<?xml version="1.0" encoding="UTF-8"?>
<gpx version="1.1" creator="https://www.youtrack.es" xsi:schemaLocation="http://www.topografix.com/GPX/1/1 http://www.topografix.com/GPX/1/1/gpx.xsd http://www.garmin.com/xmlschemas/GpxExtensions/v3 http://www.garmin.com/xmlschemas/GpxExtensionsv3.xsd http://www.garmin.com/xmlschemas/TrackPointExtension/v1 http://www.garmin.com/xmlschemas/TrackPointExtensionv1.xsd" xmlns:gpxtpx="http://www.garmin.com/xmlschemas/TrackPointExtension/v1" xmlns:gpxx="http://www.garmin.com/xmlschemas/GpxExtensions/v3" xmlns:xsi="http://www.w3.org/2001/XMLSchema-instance">
  <metadata>
    <link href="https://www.youtrack.es">
      <text>YouTrack.es</text>
    </link>
    <time>2026-05-08T21:17:20Z</time>
  </metadata>
  <trk>
    <src>https://www.youtrack.es</src>
    <link href="https://www.youtrack.es/ruta/12632-danubio-resumen">
      <text>YouTrack.es</text>
    </link>
    <trkseg>
      <trkpt lat="48.2906576" lon="14.2885413">
        <ele>262.097</ele>
        <time>2019-05-02T07:35:26.000Z</time>
      </trkpt>
      <trkpt lat="48.2906514" lon="14.2885271">
        <ele>262.052</ele>
        <time>2019-05-02T07:35:27.000Z</time>
      </trkpt>
      <trkpt lat="48.2906514" lon="14.2885271">
        <ele>262.053</ele>
        <time>2019-05-02T07:35:29.000Z</time>
      </trkpt>
      <trkpt lat="48.2906514" lon="14.2885271">
        <ele>262.022</ele>
        <time>2019-05-02T07:36:31.098Z</time>
      </trkpt>
      <trkpt lat="48.2905612" lon="14.2885126">
        <ele>261.915</ele>
        <time>2019-05-02T07:36:39.881Z</time>
      </trkpt>
      <trkpt lat="48.2905666" lon="14.2883438">
        <ele>261.842</ele>
        <time>2019-05-02T07:36:45.725Z</time>
      </trkpt>
      <trkpt lat="48.2906025" lon="14.2881714">
        <ele>261.903</ele>
        <time>2019-05-02T07:36:50.305Z</time>
      </trkpt>
      <trkpt lat="48.2906354" lon="14.2880379">
        <ele>262.014</ele>
        <time>2019-05-02T07:36:53.236Z</time>
      </trkpt>
      <trkpt lat="48.2906712" lon="14.2878854">
        <ele>262.081</ele>
        <time>2019-05-02T07:36:56.395Z</time>
      </trkpt>
      <trkpt lat="48.2907045" lon="14.2877405">
        <ele>262.166</ele>
        <time>2019-05-02T07:36:59.297Z</time>
      </trkpt>
      <trkpt lat="48.2907271" lon="14.2875729">
        <ele>262.406</ele>
        <time>2019-05-02T07:37:02.510Z</time>
      </trkpt>
      <trkpt lat="48.2908392" lon="14.2876062">
        <ele>262.816</ele>
        <time>2019-05-02T07:37:06.097Z</time>
      </trkpt>
      <trkpt lat="48.2909062" lon="14.2877275">
        <ele>263.236</ele>
        <time>2019-05-02T07:37:09.950Z</time>
      </trkpt>
      <trkpt lat="48.2910024" lon="14.2878187">
        <ele>263.500</ele>
        <time>2019-05-02T07:37:14.000Z</time>
      </trkpt>
      <trkpt lat="48.2910024" lon="14.2878187">
        <ele>263.540</ele>
        <time>2019-05-02T07:37:15.000Z</time>
      </trkpt>
      <trkpt lat="48.2910024" lon="14.2878187">
        <ele>263.413</ele>
        <time>2019-05-02T07:37:15.100Z</time>
      </trkpt>
      <trkpt lat="48.2911202" lon="14.2880356">
        <ele>263.262</ele>
        <time>2019-05-02T07:37:23.089Z</time>
      </trkpt>
      <trkpt lat="48.2912049" lon="14.2880887">
        <ele>263.039</ele>
        <time>2019-05-02T07:37:25.461Z</time>
      </trkpt>
      <trkpt lat="48.2912931" lon="14.2881878">
        <ele>262.638</ele>
        <time>2019-05-02T07:37:28.174Z</time>
      </trkpt>
      <trkpt lat="48.2914234" lon="14.2882022">
        <ele>262.239</ele>
        <time>2019-05-02T07:37:31.088Z</time>
      </trkpt>
      <trkpt lat="48.2915443" lon="14.2882893">
        <ele>262.043</ele>
        <time>2019-05-02T07:37:34.064Z</time>
      </trkpt>
      <trkpt lat="48.2916769" lon="14.2883949">
        <ele>262.007</ele>
        <time>2019-05-02T07:37:37.640Z</time>
      </trkpt>
      <trkpt lat="48.2917912" lon="14.2885045">
        <ele>262.036</ele>
        <time>2019-05-02T07:37:40.835Z</time>
      </trkpt>
      <trkpt lat="48.2918684" lon="14.2886004">
        <ele>262.067</ele>
        <time>2019-05-02T07:37:43.414Z</time>
      </trkpt>
      <trkpt lat="48.2919480" lon="14.2886781">
        <ele>262.083</ele>
        <time>2019-05-02T07:37:46.198Z</time>
      </trkpt>
      <trkpt lat="48.2920598" lon="14.2887839">
        <ele>262.086</ele>
        <time>2019-05-02T07:37:49.947Z</time>
      </trkpt>
      <trkpt lat="48.2921528" lon="14.2888358">
        <ele>262.083</ele>
        <time>2019-05-02T07:37:52.863Z</time>
      </trkpt>
      <trkpt lat="48.2922550" lon="14.2886894">
        <ele>262.081</ele>
        <time>2019-05-02T07:37:57.341Z</time>
      </trkpt>
      <trkpt lat="48.2923306" lon="14.2885329">
        <ele>262.079</ele>
        <time>2019-05-02T07:38:00.635Z</time>
      </trkpt>
      <trkpt lat="48.2923898" lon="14.2883791">
        <ele>262.079</ele>
        <time>2019-05-02T07:38:03.533Z</time>
      </trkpt>
      <trkpt lat="48.2924373" lon="14.2882369">
        <ele>262.079</ele>
        <time>2019-05-02T07:38:06.436Z</time>
      </trkpt>
      <trkpt lat="48.2924859" lon="14.2881212">
        <ele>262.080</ele>
        <time>2019-05-02T07:38:08.776Z</time>
      </trkpt>
      <trkpt lat="48.2925423" lon="14.2879647">
        <ele>262.080</ele>
        <time>2019-05-02T07:38:11.520Z</time>
      </trkpt>
      <trkpt lat="48.2926110" lon="14.2878061">
        <ele>262.080</ele>
        <time>2019-05-02T07:38:14.244Z</time>
      </trkpt>
      <trkpt lat="48.2926691" lon="14.2876551">
        <ele>262.080</ele>
        <time>2019-05-02T07:38:16.752Z</time>
      </trkpt>
      <trkpt lat="48.2927318" lon="14.2875132">
        <ele>262.080</ele>
        <time>2019-05-02T07:38:19.291Z</time>
      </trkpt>
      <trkpt lat="48.2928258" lon="14.2875949">
        <ele>262.080</ele>
        <time>2019-05-02T07:38:22.058Z</time>
      </trkpt>
      <trkpt lat="48.2929171" lon="14.2876677">
        <ele>262.080</ele>
        <time>2019-05-02T07:38:24.984Z</time>
      </trkpt>
      <trkpt lat="48.2930173" lon="14.2877708">
        <ele>262.080</ele>
        <time>2019-05-02T07:38:28.137Z</time>
      </trkpt>
      <trkpt lat="48.2931428" lon="14.2878089">
        <ele>262.080</ele>
        <time>2019-05-02T07:38:30.999Z</time>
      </trkpt>
      <trkpt lat="48.2931428" lon="14.2878089">
        <ele>262.080</ele>
        <time>2019-05-02T07:38:31.999Z</time>
      </trkpt>
      <trkpt lat="48.2931428" lon="14.2878089">
        <ele>262.038</ele>
        <time>2019-05-02T07:38:32.099Z</time>
      </trkpt>
      <trkpt lat="48.2933124" lon="14.2879889">
        <ele>261.929</ele>
        <time>2019-05-02T07:38:38.033Z</time>
      </trkpt>
      <trkpt lat="48.2934246" lon="14.2880750">
        <ele>261.859</ele>
        <time>2019-05-02T07:38:40.686Z</time>
      </trkpt>
      <trkpt lat="48.2935371" lon="14.2881509">
        <ele>261.915</ele>
        <time>2019-05-02T07:38:43.339Z</time>
      </trkpt>
      <trkpt lat="48.2936422" lon="14.2882588">
        <ele>262.019</ele>
        <time>2019-05-02T07:38:46.139Z</time>
      </trkpt>
      <trkpt lat="48.2937180" lon="14.2883568">
        <ele>262.081</ele>
        <time>2019-05-02T07:38:48.592Z</time>
      </trkpt>
      <trkpt lat="48.2938245" lon="14.2884000">
        <ele>262.098</ele>
        <time>2019-05-02T07:38:51.894Z</time>
      </trkpt>
      <trkpt lat="48.2939281" lon="14.2884210">
        <ele>262.093</ele>
        <time>2019-05-02T07:38:55.999Z</time>
      </trkpt>
      <trkpt lat="48.2939281" lon="14.2884210">
        <ele>262.084</ele>
        <time>2019-05-02T07:38:59.999Z</time>
      </trkpt>
      <trkpt lat="48.2939281" lon="14.2884210">
        <ele>262.040</ele>
        <time>2019-05-02T07:39:37.224Z</time>
      </trkpt>
      <trkpt lat="48.2940909" lon="14.2885723">
        <ele>261.934</ele>
        <time>2019-05-02T07:39:50.717Z</time>
      </trkpt>
      <trkpt lat="48.2941759" lon="14.2886373">
        <ele>261.868</ele>
        <time>2019-05-02T07:39:54.393Z</time>
      </trkpt>
      <trkpt lat="48.2942703" lon="14.2887723">
        <ele>261.922</ele>
        <time>2019-05-02T07:39:58.734Z</time>
      </trkpt>
      <trkpt lat="48.2943450" lon="14.2888677">
        <ele>262.021</ele>
        <time>2019-05-02T07:40:01.804Z</time>
      </trkpt>
      <trkpt lat="48.2944227" lon="14.2890059">
        <ele>262.081</ele>
        <time>2019-05-02T07:40:05.981Z</time>
      </trkpt>
      <trkpt lat="48.2944952" lon="14.2890901">
        <ele>262.097</ele>
        <time>2019-05-02T07:40:09.598Z</time>
      </trkpt>
      <trkpt lat="48.2945854" lon="14.2890894">
        <ele>262.092</ele>
        <time>2019-05-02T07:40:13.276Z</time>
      </trkpt>
      <trkpt lat="48.2946583" lon="14.2889393">
        <ele>262.084</ele>
        <time>2019-05-02T07:40:17.552Z</time>
      </trkpt>
      <trkpt lat="48.2947142" lon="14.2887536">
        <ele>262.079</ele>
        <time>2019-05-02T07:40:21.733Z</time>
      </trkpt>
      <trkpt lat="48.2947952" lon="14.2886087">
        <ele>262.078</ele>
        <time>2019-05-02T07:40:25.608Z</time>
      </trkpt>
      <trkpt lat="48.2948871" lon="14.2885140">
        <ele>262.079</ele>
        <time>2019-05-02T07:40:28.727Z</time>
      </trkpt>
      <trkpt lat="48.2949906" lon="14.2883904">
        <ele>262.079</ele>
        <time>2019-05-02T07:40:32.171Z</time>
      </trkpt>
      <trkpt lat="48.2950653" lon="14.2882633">
        <ele>262.080</ele>
        <time>2019-05-02T07:40:34.843Z</time>
      </trkpt>
      <trkpt lat="48.2951333" lon="14.2881209">
        <ele>262.080</ele>
        <time>2019-05-02T07:40:37.357Z</time>
      </trkpt>
      <trkpt lat="48.2952148" lon="14.2879427">
        <ele>262.080</ele>
        <time>2019-05-02T07:40:40.247Z</time>
      </trkpt>
      <trkpt lat="48.2952971" lon="14.2877849">
        <ele>262.080</ele>
        <time>2019-05-02T07:40:42.849Z</time>
      </trkpt>
      <trkpt lat="48.2953872" lon="14.2876336">
        <ele>262.080</ele>
        <time>2019-05-02T07:40:45.427Z</time>
      </trkpt>
      <trkpt lat="48.2954528" lon="14.2875051">
        <ele>262.151</ele>
        <time>2019-05-02T07:40:47.467Z</time>
      </trkpt>
      <trkpt lat="48.2955179" lon="14.2873526">
        <ele>262.394</ele>
        <time>2019-05-02T07:40:49.775Z</time>
      </trkpt>
      <trkpt lat="48.2955585" lon="14.2871941">
        <ele>262.744</ele>
        <time>2019-05-02T07:40:51.998Z</time>
      </trkpt>
      <trkpt lat="48.2955585" lon="14.2871941">
        <ele>263.016</ele>
        <time>2019-05-02T07:40:55.998Z</time>
      </trkpt>
      <trkpt lat="48.2955585" lon="14.2871941">
        <ele>263.082</ele>
        <time>2019-05-02T07:40:56.098Z</time>
      </trkpt>
      <trkpt lat="48.2957703" lon="14.2870095">
        <ele>262.956</ele>
        <time>2019-05-02T07:41:07.833Z</time>
      </trkpt>
      <trkpt lat="48.2958632" lon="14.2869743">
        <ele>262.844</ele>
        <time>2019-05-02T07:41:10.911Z</time>
      </trkpt>
      <trkpt lat="48.2959566" lon="14.2869723">
        <ele>262.891</ele>
        <time>2019-05-02T07:41:13.364Z</time>
      </trkpt>
      <trkpt lat="48.2960596" lon="14.2870132">
        <ele>263.012</ele>
        <time>2019-05-02T07:41:15.871Z</time>
      </trkpt>
      <trkpt lat="48.2961856" lon="14.2870139">
        <ele>263.089</ele>
        <time>2019-05-02T07:41:18.720Z</time>
      </trkpt>
      <trkpt lat="48.2963316" lon="14.2870266">
        <ele>263.112</ele>
        <time>2019-05-02T07:41:22.029Z</time>
      </trkpt>
      <trkpt lat="48.2964656" lon="14.2871034">
        <ele>263.108</ele>
        <time>2019-05-02T07:41:25.572Z</time>
      </trkpt>
      <trkpt lat="48.2965619" lon="14.2871843">
        <ele>263.095</ele>
        <time>2019-05-02T07:41:28.676Z</time>
      </trkpt>
      <trkpt lat="48.2966635" lon="14.2872415">
        <ele>263.078</ele>
        <time>2019-05-02T07:41:32.305Z</time>
      </trkpt>
      <trkpt lat="48.2967496" lon="14.2872813">
        <ele>263.054</ele>
        <time>2019-05-02T07:41:35.622Z</time>
      </trkpt>
      <trkpt lat="48.2968452" lon="14.2873185">
        <ele>263.020</ele>
        <time>2019-05-02T07:41:38.759Z</time>
      </trkpt>
      <trkpt lat="48.2969513" lon="14.2874052">
        <ele>262.952</ele>
        <time>2019-05-02T07:41:41.831Z</time>
      </trkpt>
      <trkpt lat="48.2970573" lon="14.2875303">
        <ele>262.803</ele>
        <time>2019-05-02T07:41:45.327Z</time>
      </trkpt>
      <trkpt lat="48.2971899" lon="14.2876999">
        <ele>262.563</ele>
        <time>2019-05-02T07:41:50.524Z</time>
      </trkpt>
      <trkpt lat="48.2972865" lon="14.2877382">
        <ele>262.309</ele>
        <time>2019-05-02T07:41:53.353Z</time>
      </trkpt>
      <trkpt lat="48.2973846" lon="14.2877410">
        <ele>262.132</ele>
        <time>2019-05-02T07:41:56.040Z</time>
      </trkpt>
      <trkpt lat="48.2975032" lon="14.2876903">
        <ele>262.058</ele>
        <time>2019-05-02T07:41:59.203Z</time>
      </trkpt>
      <trkpt lat="48.2976125" lon="14.2876890">
        <ele>262.049</ele>
        <time>2019-05-02T07:42:01.832Z</time>
      </trkpt>
      <trkpt lat="48.2977162" lon="14.2877621">
        <ele>262.063</ele>
        <time>2019-05-02T07:42:04.542Z</time>
      </trkpt>
      <trkpt lat="48.2978197" lon="14.2876762">
        <ele>262.076</ele>
        <time>2019-05-02T07:42:07.469Z</time>
      </trkpt>
      <trkpt lat="48.2979333" lon="14.2876372">
        <ele>262.082</ele>
        <time>2019-05-02T07:42:10.403Z</time>
      </trkpt>
      <trkpt lat="48.2980129" lon="14.2875744">
        <ele>262.082</ele>
        <time>2019-05-02T07:42:12.660Z</time>
      </trkpt>
      <trkpt lat="48.2981073" lon="14.2875201">
        <ele>262.081</ele>
        <time>2019-05-02T07:42:15.200Z</time>
      </trkpt>
      <trkpt lat="48.2982084" lon="14.2874906">
        <ele>262.080</ele>
        <time>2019-05-02T07:42:17.808Z</time>
      </trkpt>
      <trkpt lat="48.2983012" lon="14.2875182">
        <ele>262.079</ele>
        <time>2019-05-02T07:42:20.223Z</time>
      </trkpt>
      <trkpt lat="48.2984097" lon="14.2875349">
        <ele>262.079</ele>
        <time>2019-05-02T07:42:22.998Z</time>
      </trkpt>
      <trkpt lat="48.2984097" lon="14.2875349">
        <ele>262.079</ele>
        <time>2019-05-02T07:42:25.998Z</time>
      </trkpt>
      <trkpt lat="48.2984097" lon="14.2875349">
        <ele>262.038</ele>
        <time>2019-05-02T07:42:29.807Z</time>
      </trkpt>
      <trkpt lat="48.2985183" lon="14.2875667">
        <ele>261.929</ele>
        <time>2019-05-02T07:42:36.899Z</time>
      </trkpt>
      <trkpt lat="48.2986178" lon="14.2875416">
        <ele>261.859</ele>
        <time>2019-05-02T07:42:40.779Z</time>
      </trkpt>
      <trkpt lat="48.2987270" lon="14.2875299">
        <ele>261.915</ele>
        <time>2019-05-02T07:42:43.930Z</time>
      </trkpt>
      <trkpt lat="48.2988319" lon="14.2875064">
        <ele>262.019</ele>
        <time>2019-05-02T07:42:46.568Z</time>
      </trkpt>
      <trkpt lat="48.2989480" lon="14.2874440">
        <ele>262.081</ele>
        <time>2019-05-02T07:42:49.352Z</time>
      </trkpt>
      <trkpt lat="48.2990869" lon="14.2874175">
        <ele>262.098</ele>
        <time>2019-05-02T07:42:52.278Z</time>
      </trkpt>
      <trkpt lat="48.2991955" lon="14.2874663">
        <ele>262.093</ele>
        <time>2019-05-02T07:42:54.621Z</time>
      </trkpt>
      <trkpt lat="48.2992860" lon="14.2874423">
        <ele>262.084</ele>
        <time>2019-05-02T07:42:56.535Z</time>
      </trkpt>
      <trkpt lat="48.2994158" lon="14.2874317">
        <ele>262.082</ele>
        <time>2019-05-02T07:42:59.263Z</time>
      </trkpt>
      <trkpt lat="48.2995340" lon="14.2874162">
        <ele>262.098</ele>
        <time>2019-05-02T07:43:01.768Z</time>
      </trkpt>
      <trkpt lat="48.2996384" lon="14.2873695">
        <ele>262.156</ele>
        <time>2019-05-02T07:43:04.095Z</time>
      </trkpt>
      <trkpt lat="48.2997492" lon="14.2873630">
        <ele>262.281</ele>
        <time>2019-05-02T07:43:06.449Z</time>
      </trkpt>
      <trkpt lat="48.2998477" lon="14.2873646">
        <ele>262.487</ele>
        <time>2019-05-02T07:43:08.501Z</time>
      </trkpt>
      <trkpt lat="48.2999842" lon="14.2873902">
        <ele>262.737</ele>
        <time>2019-05-02T07:43:11.348Z</time>
      </trkpt>
      <trkpt lat="48.3000767" lon="14.2873771">
        <ele>262.949</ele>
        <time>2019-05-02T07:43:13.292Z</time>
      </trkpt>
      <trkpt lat="48.3001680" lon="14.2873616">
        <ele>263.070</ele>
        <time>2019-05-02T07:43:15.331Z</time>
      </trkpt>
      <trkpt lat="48.3002637" lon="14.2873639">
        <ele>263.111</ele>
        <time>2019-05-02T07:43:17.497Z</time>
      </trkpt>
      <trkpt lat="48.3003744" lon="14.2874412">
        <ele>263.111</ele>
        <time>2019-05-02T07:43:20.485Z</time>
      </trkpt>
      <trkpt lat="48.3004582" lon="14.2875940">
        <ele>263.109</ele>
        <time>2019-05-02T07:43:23.813Z</time>
      </trkpt>
      <trkpt lat="48.3006555" lon="14.2882866">
        <ele>263.185</ele>
        <time>2019-05-02T07:43:35.229Z</time>
      </trkpt>
      <trkpt lat="48.3007102" lon="14.2884694">
        <ele>263.288</ele>
        <time>2019-05-02T07:43:37.903Z</time>
      </trkpt>
      <trkpt lat="48.3007545" lon="14.2886087">
        <ele>263.384</ele>
        <time>2019-05-02T07:43:39.999Z</time>
      </trkpt>
      <trkpt lat="48.3007545" lon="14.2886087">
        <ele>263.416</ele>
        <time>2019-05-02T07:43:39.999Z</time>
      </trkpt>
      <trkpt lat="48.3007545" lon="14.2886087">
        <ele>263.361</ele>
        <time>2019-05-02T07:43:40.099Z</time>
      </trkpt>
      <trkpt lat="48.3008097" lon="14.2888143">
        <ele>263.243</ele>
        <time>2019-05-02T07:43:45.890Z</time>
      </trkpt>
      <trkpt lat="48.3008101" lon="14.2889826">
        <ele>263.140</ele>
        <time>2019-05-02T07:43:49.360Z</time>
      </trkpt>
      <trkpt lat="48.3007567" lon="14.2890963">
        <ele>263.094</ele>
        <time>2019-05-02T07:43:52.999Z</time>
      </trkpt>
      <trkpt lat="48.3007567" lon="14.2890963">
        <ele>263.084</ele>
        <time>2019-05-02T07:44:00.999Z</time>
      </trkpt>
      <trkpt lat="48.3007567" lon="14.2890963">
        <ele>263.045</ele>
        <time>2019-05-02T07:44:42.374Z</time>
      </trkpt>
      <trkpt lat="48.3008045" lon="14.2893228">
        <ele>262.940</ele>
        <time>2019-05-02T07:44:53.264Z</time>
      </trkpt>
      <trkpt lat="48.3008346" lon="14.2894519">
        <ele>262.872</ele>
        <time>2019-05-02T07:44:56.519Z</time>
      </trkpt>
      <trkpt lat="48.3008810" lon="14.2895676">
        <ele>262.928</ele>
        <time>2019-05-02T07:44:59.697Z</time>
      </trkpt>
      <trkpt lat="48.3010240" lon="14.2902740">
        <ele>263.093</ele>
        <time>2019-05-02T07:45:20.765Z</time>
      </trkpt>
      <trkpt lat="48.3014852" lon="14.2902754">
        <ele>263.110</ele>
        <time>2019-05-02T07:45:44.541Z</time>
      </trkpt>
      <trkpt lat="48.3015760" lon="14.2902350">
        <ele>263.105</ele>
        <time>2019-05-02T07:45:49.423Z</time>
      </trkpt>
      <trkpt lat="48.3016593" lon="14.2901686">
        <ele>263.096</ele>
        <time>2019-05-02T07:45:54.282Z</time>
      </trkpt>
      <trkpt lat="48.3017477" lon="14.2901022">
        <ele>262.392</ele>
        <time>2019-05-02T07:46:00.888Z</time>
      </trkpt>
      <trkpt lat="48.3018295" lon="14.2900211">
        <ele>259.244</ele>
        <time>2019-05-02T07:46:06.836Z</time>
      </trkpt>
      <trkpt lat="48.3019083" lon="14.2899505">
        <ele>253.920</ele>
        <time>2019-05-02T07:46:11.469Z</time>
      </trkpt>
      <trkpt lat="48.3019860" lon="14.2898721">
        <ele>251.580</ele>
        <time>2019-05-02T07:46:15.739Z</time>
      </trkpt>
      <trkpt lat="48.3020844" lon="14.2898626">
        <ele>255.216</ele>
        <time>2019-05-02T07:46:20.181Z</time>
      </trkpt>
      <trkpt lat="48.3021613" lon="14.2897827">
        <ele>260.710</ele>
        <time>2019-05-02T07:46:24.510Z</time>
      </trkpt>
      <trkpt lat="48.3022632" lon="14.2896884">
        <ele>263.805</ele>
        <time>2019-05-02T07:46:29.999Z</time>
      </trkpt>
      <trkpt lat="48.3026742" lon="14.2893268">
        <ele>264.259</ele>
        <time>2019-05-02T07:46:48.166Z</time>
      </trkpt>
      <trkpt lat="48.3027531" lon="14.2892421">
        <ele>263.810</ele>
        <time>2019-05-02T07:46:51.077Z</time>
      </trkpt>
      <trkpt lat="48.3028641" lon="14.2891971">
        <ele>263.560</ele>
        <time>2019-05-02T07:46:54.800Z</time>
      </trkpt>
      <trkpt lat="48.3029632" lon="14.2891482">
        <ele>263.500</ele>
        <time>2019-05-02T07:46:58.404Z</time>
      </trkpt>
      <trkpt lat="48.3030619" lon="14.2890957">
        <ele>263.526</ele>
        <time>2019-05-02T07:47:02.000Z</time>
      </trkpt>
      <trkpt lat="48.3031487" lon="14.2890579">
        <ele>263.563</ele>
        <time>2019-05-02T07:47:04.999Z</time>
      </trkpt>
      <trkpt lat="48.3031487" lon="14.2890579">
        <ele>263.583</ele>
        <time>2019-05-02T07:47:05.999Z</time>
      </trkpt>
      <trkpt lat="48.3031487" lon="14.2890579">
        <ele>263.546</ele>
        <time>2019-05-02T07:47:06.099Z</time>
      </trkpt>
      <trkpt lat="48.3033162" lon="14.2889059">
        <ele>263.435</ele>
        <time>2019-05-02T07:47:19.100Z</time>
      </trkpt>
      <trkpt lat="48.3034024" lon="14.2888174">
        <ele>263.362</ele>
        <time>2019-05-02T07:47:26.249Z</time>
      </trkpt>
      <trkpt lat="48.3034925" lon="14.2887717">
        <ele>263.416</ele>
        <time>2019-05-02T07:47:33.892Z</time>
      </trkpt>
      <trkpt lat="48.3035767" lon="14.2886880">
        <ele>263.520</ele>
        <time>2019-05-02T07:47:40.878Z</time>
      </trkpt>
      <trkpt lat="48.3036493" lon="14.2885899">
        <ele>263.582</ele>
        <time>2019-05-02T07:47:46.050Z</time>
      </trkpt>
      <trkpt lat="48.3037613" lon="14.2884346">
        <ele>263.599</ele>
        <time>2019-05-02T07:47:53.501Z</time>
      </trkpt>
      <trkpt lat="48.3038173" lon="14.2883011">
        <ele>263.594</ele>
        <time>2019-05-02T07:47:58.328Z</time>
      </trkpt>
      <trkpt lat="48.3038807" lon="14.2881359">
        <ele>263.586</ele>
        <time>2019-05-02T07:48:03.774Z</time>
      </trkpt>
      <trkpt lat="48.3039510" lon="14.2880381">
        <ele>263.581</ele>
        <time>2019-05-02T07:48:07.821Z</time>
      </trkpt>
      <trkpt lat="48.3040392" lon="14.2879378">
        <ele>263.579</ele>
        <time>2019-05-02T07:48:12.828Z</time>
      </trkpt>
      <trkpt lat="48.3041594" lon="14.2878581">
        <ele>263.580</ele>
        <time>2019-05-02T07:48:19.689Z</time>
      </trkpt>
      <trkpt lat="48.3042533" lon="14.2877637">
        <ele>263.581</ele>
        <time>2019-05-02T07:48:26.794Z</time>
      </trkpt>
      <trkpt lat="48.3043402" lon="14.2876947">
        <ele>263.581</ele>
        <time>2019-05-02T07:48:32.879Z</time>
      </trkpt>
      <trkpt lat="48.3044425" lon="14.2876428">
        <ele>263.581</ele>
        <time>2019-05-02T07:48:38.799Z</time>
      </trkpt>
      <trkpt lat="48.3045154" lon="14.2875628">
        <ele>263.581</ele>
        <time>2019-05-02T07:48:47.486Z</time>
      </trkpt>
      <trkpt lat="48.3045801" lon="14.2874358">
        <ele>263.581</ele>
        <time>2019-05-02T07:48:57.916Z</time>
      </trkpt>
      <trkpt lat="48.3046200" lon="14.2873015">
        <ele>263.581</ele>
        <time>2019-05-02T07:49:12.148Z</time>
      </trkpt>
      <trkpt lat="48.3046844" lon="14.2871981">
        <ele>263.581</ele>
        <time>2019-05-02T07:49:22.064Z</time>
      </trkpt>
      <trkpt lat="48.3047696" lon="14.2871368">
        <ele>263.581</ele>
        <time>2019-05-02T07:49:39.983Z</time>
      </trkpt>
      <trkpt lat="48.3048438" lon="14.2870126">
        <ele>263.581</ele>
        <time>2019-05-02T07:50:07.181Z</time>
      </trkpt>
      <trkpt lat="48.3049437" lon="14.2869150">
        <ele>263.581</ele>
        <time>2019-05-02T07:50:36.888Z</time>
      </trkpt>
      <trkpt lat="48.3050411" lon="14.2868457">
        <ele>263.581</ele>
        <time>2019-05-02T07:50:59.418Z</time>
      </trkpt>
      <trkpt lat="48.3051256" lon="14.2867774">
        <ele>263.581</ele>
        <time>2019-05-02T07:51:29.639Z</time>
      </trkpt>
      <trkpt lat="48.3052093" lon="14.2867155">
        <ele>263.581</ele>
        <time>2019-05-02T07:51:45.146Z</time>
      </trkpt>
      <trkpt lat="48.3052934" lon="14.2866459">
        <ele>263.581</ele>
        <time>2019-05-02T07:51:59.248Z</time>
      </trkpt>
      <trkpt lat="48.3053709" lon="14.2865756">
        <ele>263.581</ele>
        <time>2019-05-02T07:52:10.531Z</time>
      </trkpt>
      <trkpt lat="48.3054600" lon="14.2866116">
        <ele>263.581</ele>
        <time>2019-05-02T07:52:22.038Z</time>
      </trkpt>
      <trkpt lat="48.3055432" lon="14.2865288">
        <ele>263.581</ele>
        <time>2019-05-02T07:52:34.475Z</time>
      </trkpt>
      <trkpt lat="48.3056088" lon="14.2864337">
        <ele>263.581</ele>
        <time>2019-05-02T07:52:45.836Z</time>
      </trkpt>
      <trkpt lat="48.3057013" lon="14.2863970">
        <ele>263.581</ele>
        <time>2019-05-02T07:52:57.757Z</time>
      </trkpt>
      <trkpt lat="48.3056121" lon="14.2863709">
        <ele>263.581</ele>
        <time>2019-05-02T07:53:08.722Z</time>
      </trkpt>
      <trkpt lat="48.3056806" lon="14.2862643">
        <ele>263.581</ele>
        <time>2019-05-02T07:53:19.019Z</time>
      </trkpt>
      <trkpt lat="48.3057350" lon="14.2861513">
        <ele>263.581</ele>
        <time>2019-05-02T07:53:30.150Z</time>
      </trkpt>
      <trkpt lat="48.3058280" lon="14.2861759">
        <ele>263.581</ele>
        <time>2019-05-02T07:53:42.935Z</time>
      </trkpt>
      <trkpt lat="48.3057318" lon="14.2861640">
        <ele>263.581</ele>
        <time>2019-05-02T07:53:56.000Z</time>
      </trkpt>
      <trkpt lat="48.3057318" lon="14.2861640">
        <ele>263.581</ele>
        <time>2019-05-02T07:53:59.000Z</time>
      </trkpt>
      <trkpt lat="48.3057318" lon="14.2861640">
        <ele>263.539</ele>
        <time>2019-05-02T07:54:26.328Z</time>
      </trkpt>
      <trkpt lat="48.3061982" lon="14.2859983">
        <ele>263.318</ele>
        <time>2019-05-02T07:55:54.582Z</time>
      </trkpt>
      <trkpt lat="48.3061982" lon="14.2859983">
        <ele>263.318</ele>
        <time>2019-05-02T07:55:54.582Z</time>
      </trkpt>
      <trkpt lat="48.3065351" lon="14.2857013">
        <ele>264.355</ele>
        <time>2019-05-02T07:57:01.541Z</time>
      </trkpt>
      <trkpt lat="48.3060933" lon="14.2860600">
        <ele>264.233</ele>
        <time>2019-05-02T07:58:25.693Z</time>
      </trkpt>
      <trkpt lat="48.3065295" lon="14.2858985">
        <ele>264.176</ele>
        <time>2019-05-02T07:59:40.999Z</time>
      </trkpt>
      <trkpt lat="48.3065295" lon="14.2858985">
        <ele>263.998</ele>
        <time>2019-05-02T07:59:41.000Z</time>
      </trkpt>
      <trkpt lat="48.3065295" lon="14.2858985">
        <ele>263.593</ele>
        <time>2019-05-02T07:59:41.100Z</time>
      </trkpt>
      <trkpt lat="48.3066256" lon="14.2858063">
        <ele>263.323</ele>
        <time>2019-05-02T07:59:48.621Z</time>
      </trkpt>
      <trkpt lat="48.3067270" lon="14.2857408">
        <ele>263.518</ele>
        <time>2019-05-02T07:59:52.707Z</time>
      </trkpt>
      <trkpt lat="48.3068307" lon="14.2856420">
        <ele>263.588</ele>
        <time>2019-05-02T07:59:56.663Z</time>
      </trkpt>
      <trkpt lat="48.3069548" lon="14.2856060">
        <ele>263.376</ele>
        <time>2019-05-02T08:00:00.073Z</time>
      </trkpt>
      <trkpt lat="48.3070614" lon="14.2855572">
        <ele>262.772</ele>
        <time>2019-05-02T08:00:02.804Z</time>
      </trkpt>
      <trkpt lat="48.3071695" lon="14.2854874">
        <ele>261.143</ele>
        <time>2019-05-02T08:00:05.634Z</time>
      </trkpt>
      <trkpt lat="48.3072595" lon="14.2854339">
        <ele>258.211</ele>
        <time>2019-05-02T08:00:07.995Z</time>
      </trkpt>
      <trkpt lat="48.3073648" lon="14.2853640">
        <ele>255.281</ele>
        <time>2019-05-02T08:00:11.273Z</time>
      </trkpt>
      <trkpt lat="48.3074708" lon="14.2853036">
        <ele>254.118</ele>
        <time>2019-05-02T08:00:14.792Z</time>
      </trkpt>
      <trkpt lat="48.3075673" lon="14.2852595">
        <ele>255.032</ele>
        <time>2019-05-02T08:00:18.294Z</time>
      </trkpt>
      <trkpt lat="48.3076806" lon="14.2852113">
        <ele>256.880</ele>
        <time>2019-05-02T08:00:22.467Z</time>
      </trkpt>
      <trkpt lat="48.3077898" lon="14.2851608">
        <ele>258.302</ele>
        <time>2019-05-02T08:00:26.379Z</time>
      </trkpt>
      <trkpt lat="48.3078840" lon="14.2850807">
        <ele>258.905</ele>
        <time>2019-05-02T08:00:30.036Z</time>
      </trkpt>
      <trkpt lat="48.3079720" lon="14.2849916">
        <ele>259.043</ele>
        <time>2019-05-02T08:00:33.658Z</time>
      </trkpt>
      <trkpt lat="48.3080520" lon="14.2849101">
        <ele>259.123</ele>
        <time>2019-05-02T08:00:36.999Z</time>
      </trkpt>
      <trkpt lat="48.3080520" lon="14.2849101">
        <ele>259.161</ele>
        <time>2019-05-02T08:00:40.999Z</time>
      </trkpt>
      <trkpt lat="48.3080520" lon="14.2849101">
        <ele>259.054</ele>
        <time>2019-05-02T08:00:41.099Z</time>
      </trkpt>
      <trkpt lat="48.3082479" lon="14.2847573">
        <ele>258.901</ele>
        <time>2019-05-02T08:00:52.419Z</time>
      </trkpt>
      <trkpt lat="48.3083391" lon="14.2846755">
        <ele>258.249</ele>
        <time>2019-05-02T08:00:55.250Z</time>
      </trkpt>
      <trkpt lat="48.3084565" lon="14.2845954">
        <ele>256.387</ele>
        <time>2019-05-02T08:00:58.216Z</time>
      </trkpt>
      <trkpt lat="48.3085643" lon="14.2845060">
        <ele>253.713</ele>
        <time>2019-05-02T08:01:00.794Z</time>
      </trkpt>
      <trkpt lat="48.3086701" lon="14.2844281">
        <ele>251.465</ele>
        <time>2019-05-02T08:01:03.142Z</time>
      </trkpt>
      <trkpt lat="48.3087648" lon="14.2843125">
        <ele>250.435</ele>
        <time>2019-05-02T08:01:05.496Z</time>
      </trkpt>
      <trkpt lat="48.3088532" lon="14.2842477">
        <ele>250.628</ele>
        <time>2019-05-02T08:01:07.304Z</time>
      </trkpt>
      <trkpt lat="48.3089360" lon="14.2841793">
        <ele>251.595</ele>
        <time>2019-05-02T08:01:09.019Z</time>
      </trkpt>
      <trkpt lat="48.3090278" lon="14.2840908">
        <ele>252.886</ele>
        <time>2019-05-02T08:01:10.999Z</time>
      </trkpt>
      <trkpt lat="48.3090278" lon="14.2840908">
        <ele>254.015</ele>
        <time>2019-05-02T08:01:10.999Z</time>
      </trkpt>
      <trkpt lat="48.3090278" lon="14.2840908">
        <ele>254.503</ele>
        <time>2019-05-02T08:01:11.140Z</time>
      </trkpt>
      <trkpt lat="48.3091747" lon="14.2839876">
        <ele>254.339</ele>
        <time>2019-05-02T08:01:19.635Z</time>
      </trkpt>
      <trkpt lat="48.3092882" lon="14.2839192">
        <ele>254.797</ele>
        <time>2019-05-02T08:01:25.192Z</time>
      </trkpt>
      <trkpt lat="48.3093680" lon="14.2838295">
        <ele>257.170</ele>
        <time>2019-05-02T08:01:32.381Z</time>
      </trkpt>
      <trkpt lat="48.3094595" lon="14.2838418">
        <ele>260.471</ele>
        <time>2019-05-02T08:01:38.999Z</time>
      </trkpt>
      <trkpt lat="48.3094595" lon="14.2838418">
        <ele>262.545</ele>
        <time>2019-05-02T08:01:39.999Z</time>
      </trkpt>
      <trkpt lat="48.3094595" lon="14.2838418">
        <ele>262.848</ele>
        <time>2019-05-02T08:01:46.806Z</time>
      </trkpt>
      <trkpt lat="48.3096039" lon="14.2840333">
        <ele>262.106</ele>
        <time>2019-05-02T08:02:16.999Z</time>
      </trkpt>
      <trkpt lat="48.3096039" lon="14.2840333">
        <ele>261.299</ele>
        <time>2019-05-02T08:02:26.999Z</time>
      </trkpt>
      <trkpt lat="48.3096039" lon="14.2840333">
        <ele>261.001</ele>
        <time>2019-05-02T08:02:28.820Z</time>
      </trkpt>
      <trkpt lat="48.3097155" lon="14.2838795">
        <ele>261.026</ele>
        <time>2019-05-02T08:02:41.603Z</time>
      </trkpt>
      <trkpt lat="48.3098062" lon="14.2838192">
        <ele>259.490</ele>
        <time>2019-05-02T08:02:49.606Z</time>
      </trkpt>
      <trkpt lat="48.3098974" lon="14.2837672">
        <ele>255.453</ele>
        <time>2019-05-02T08:02:58.353Z</time>
      </trkpt>
      <trkpt lat="48.3098974" lon="14.2837672">
        <ele>255.453</ele>
        <time>2019-05-02T08:02:58.353Z</time>
      </trkpt>
      <trkpt lat="48.3102206" lon="14.2832567">
        <ele>237.332</ele>
        <time>2019-05-02T08:03:34.588Z</time>
      </trkpt>
      <trkpt lat="48.3106498" lon="14.2829291">
        <ele>237.182</ele>
        <time>2019-05-02T08:04:02.652Z</time>
      </trkpt>
      <trkpt lat="48.3106498" lon="14.2829291">
        <ele>237.182</ele>
        <time>2019-05-02T08:04:02.652Z</time>
      </trkpt>
      <trkpt lat="48.3111913" lon="14.2831820">
        <ele>261.085</ele>
        <time>2019-05-02T08:04:35.719Z</time>
      </trkpt>
      <trkpt lat="48.3111913" lon="14.2831820">
        <ele>261.085</ele>
        <time>2019-05-02T08:04:35.719Z</time>
      </trkpt>
      <trkpt lat="48.3108611" lon="14.2831735">
        <ele>261.085</ele>
        <time>2019-05-02T08:04:57.842Z</time>
      </trkpt>
      <trkpt lat="48.3108611" lon="14.2831735">
        <ele>261.085</ele>
        <time>2019-05-02T08:04:57.842Z</time>
      </trkpt>
      <trkpt lat="48.3106492" lon="14.2837139">
        <ele>259.451</ele>
        <time>2019-05-02T08:05:33.829Z</time>
      </trkpt>
      <trkpt lat="48.3102348" lon="14.2840494">
        <ele>259.331</ele>
        <time>2019-05-02T08:06:17.293Z</time>
      </trkpt>
      <trkpt lat="48.3097701" lon="14.2842269">
        <ele>259.113</ele>
        <time>2019-05-02T08:06:55.772Z</time>
      </trkpt>
      <trkpt lat="48.3098466" lon="14.2850030">
        <ele>258.002</ele>
        <time>2019-05-02T08:07:13.227Z</time>
      </trkpt>
      <trkpt lat="48.3100790" lon="14.2856584">
        <ele>255.775</ele>
        <time>2019-05-02T08:07:29.434Z</time>
      </trkpt>
      <trkpt lat="48.3103708" lon="14.2861901">
        <ele>253.681</ele>
        <time>2019-05-02T08:07:44.931Z</time>
      </trkpt>
      <trkpt lat="48.3104488" lon="14.2863291">
        <ele>252.722</ele>
        <time>2019-05-02T08:07:50.121Z</time>
      </trkpt>
      <trkpt lat="48.3105259" lon="14.2864521">
        <ele>252.597</ele>
        <time>2019-05-02T08:07:54.942Z</time>
      </trkpt>
      <trkpt lat="48.3105951" lon="14.2865834">
        <ele>252.744</ele>
        <time>2019-05-02T08:07:59.938Z</time>
      </trkpt>
      <trkpt lat="48.3106685" lon="14.2867070">
        <ele>252.867</ele>
        <time>2019-05-02T08:08:04.950Z</time>
      </trkpt>
      <trkpt lat="48.3107425" lon="14.2868216">
        <ele>252.904</ele>
        <time>2019-05-02T08:08:09.785Z</time>
      </trkpt>
      <trkpt lat="48.3108198" lon="14.2869312">
        <ele>252.884</ele>
        <time>2019-05-02T08:08:14.524Z</time>
      </trkpt>
      <trkpt lat="48.3108975" lon="14.2870632">
        <ele>252.821</ele>
        <time>2019-05-02T08:08:19.256Z</time>
      </trkpt>
      <trkpt lat="48.3109775" lon="14.2871936">
        <ele>252.715</ele>
        <time>2019-05-02T08:08:23.517Z</time>
      </trkpt>
      <trkpt lat="48.3110376" lon="14.2873036">
        <ele>252.541</ele>
        <time>2019-05-02T08:08:26.967Z</time>
      </trkpt>
      <trkpt lat="48.3111035" lon="14.2874291">
        <ele>252.300</ele>
        <time>2019-05-02T08:08:30.970Z</time>
      </trkpt>
      <trkpt lat="48.3111746" lon="14.2875318">
        <ele>252.025</ele>
        <time>2019-05-02T08:08:34.657Z</time>
      </trkpt>
      <trkpt lat="48.3112463" lon="14.2876700">
        <ele>251.714</ele>
        <time>2019-05-02T08:08:39.063Z</time>
      </trkpt>
      <trkpt lat="48.3113275" lon="14.2877889">
        <ele>251.412</ele>
        <time>2019-05-02T08:08:43.645Z</time>
      </trkpt>
      <trkpt lat="48.3114155" lon="14.2878926">
        <ele>251.306</ele>
        <time>2019-05-02T08:08:48.097Z</time>
      </trkpt>
      <trkpt lat="48.3115180" lon="14.2880174">
        <ele>251.482</ele>
        <time>2019-05-02T08:08:53.000Z</time>
      </trkpt>
      <trkpt lat="48.3115180" lon="14.2880174">
        <ele>251.762</ele>
        <time>2019-05-02T08:08:54.000Z</time>
      </trkpt>
      <trkpt lat="48.3115180" lon="14.2880174">
        <ele>251.876</ele>
        <time>2019-05-02T08:08:54.100Z</time>
      </trkpt>
      <trkpt lat="48.3116561" lon="14.2881962">
        <ele>251.760</ele>
        <time>2019-05-02T08:09:00.564Z</time>
      </trkpt>
      <trkpt lat="48.3117278" lon="14.2882928">
        <ele>251.605</ele>
        <time>2019-05-02T08:09:02.711Z</time>
      </trkpt>
      <trkpt lat="48.3117952" lon="14.2883854">
        <ele>251.579</ele>
        <time>2019-05-02T08:09:04.805Z</time>
      </trkpt>
      <trkpt lat="48.3118968" lon="14.2884826">
        <ele>251.603</ele>
        <time>2019-05-02T08:09:07.459Z</time>
      </trkpt>
      <trkpt lat="48.3119825" lon="14.2885566">
        <ele>251.564</ele>
        <time>2019-05-02T08:09:09.460Z</time>
      </trkpt>
      <trkpt lat="48.3120574" lon="14.2886526">
        <ele>251.481</ele>
        <time>2019-05-02T08:09:11.434Z</time>
      </trkpt>
      <trkpt lat="48.3121501" lon="14.2887331">
        <ele>251.407</ele>
        <time>2019-05-02T08:09:13.756Z</time>
      </trkpt>
      <trkpt lat="48.3122309" lon="14.2887928">
        <ele>251.360</ele>
        <time>2019-05-02T08:09:15.955Z</time>
      </trkpt>
      <trkpt lat="48.3123124" lon="14.2888751">
        <ele>251.346</ele>
        <time>2019-05-02T08:09:18.906Z</time>
      </trkpt>
      <trkpt lat="48.3123915" lon="14.2889560">
        <ele>251.363</ele>
        <time>2019-05-02T08:09:21.583Z</time>
      </trkpt>
      <trkpt lat="48.3124856" lon="14.2890771">
        <ele>251.408</ele>
        <time>2019-05-02T08:09:24.714Z</time>
      </trkpt>
      <trkpt lat="48.3125892" lon="14.2891846">
        <ele>251.566</ele>
        <time>2019-05-02T08:09:27.675Z</time>
      </trkpt>
      <trkpt lat="48.3126885" lon="14.2893035">
        <ele>251.939</ele>
        <time>2019-05-02T08:09:30.734Z</time>
      </trkpt>
      <trkpt lat="48.3127947" lon="14.2893930">
        <ele>252.408</ele>
        <time>2019-05-02T08:09:33.614Z</time>
      </trkpt>
      <trkpt lat="48.3128797" lon="14.2894592">
        <ele>252.731</ele>
        <time>2019-05-02T08:09:35.724Z</time>
      </trkpt>
      <trkpt lat="48.3129602" lon="14.2895413">
        <ele>252.844</ele>
        <time>2019-05-02T08:09:37.762Z</time>
      </trkpt>
      <trkpt lat="48.3130439" lon="14.2896209">
        <ele>252.842</ele>
        <time>2019-05-02T08:09:39.791Z</time>
      </trkpt>
      <trkpt lat="48.3131254" lon="14.2896944">
        <ele>252.743</ele>
        <time>2019-05-02T08:09:41.746Z</time>
      </trkpt>
      <trkpt lat="48.3132094" lon="14.2897496">
        <ele>252.473</ele>
        <time>2019-05-02T08:09:43.637Z</time>
      </trkpt>
      <trkpt lat="48.3132916" lon="14.2898243">
        <ele>252.089</ele>
        <time>2019-05-02T08:09:45.665Z</time>
      </trkpt>
      <trkpt lat="48.3133656" lon="14.2899028">
        <ele>251.790</ele>
        <time>2019-05-02T08:09:47.567Z</time>
      </trkpt>
      <trkpt lat="48.3134529" lon="14.2899735">
        <ele>251.666</ele>
        <time>2019-05-02T08:09:49.535Z</time>
      </trkpt>
      <trkpt lat="48.3135575" lon="14.2900735">
        <ele>251.662</ele>
        <time>2019-05-02T08:09:51.854Z</time>
      </trkpt>
      <trkpt lat="48.3136482" lon="14.2902011">
        <ele>251.704</ele>
        <time>2019-05-02T08:09:54.095Z</time>
      </trkpt>
      <trkpt lat="48.3137667" lon="14.2902888">
        <ele>251.748</ele>
        <time>2019-05-02T08:09:56.509Z</time>
      </trkpt>
      <trkpt lat="48.3138718" lon="14.2904240">
        <ele>251.766</ele>
        <time>2019-05-02T08:09:59.210Z</time>
      </trkpt>
      <trkpt lat="48.3139788" lon="14.2905047">
        <ele>251.748</ele>
        <time>2019-05-02T08:10:01.650Z</time>
      </trkpt>
      <trkpt lat="48.3140963" lon="14.2906260">
        <ele>251.717</ele>
        <time>2019-05-02T08:10:04.515Z</time>
      </trkpt>
      <trkpt lat="48.3141941" lon="14.2906674">
        <ele>251.710</ele>
        <time>2019-05-02T08:10:06.574Z</time>
      </trkpt>
      <trkpt lat="48.3143038" lon="14.2907491">
        <ele>251.740</ele>
        <time>2019-05-02T08:10:09.146Z</time>
      </trkpt>
      <trkpt lat="48.3144171" lon="14.2908427">
        <ele>251.842</ele>
        <time>2019-05-02T08:10:11.926Z</time>
      </trkpt>
      <trkpt lat="48.3145191" lon="14.2909450">
        <ele>252.057</ele>
        <time>2019-05-02T08:10:14.488Z</time>
      </trkpt>
      <trkpt lat="48.3146376" lon="14.2910637">
        <ele>252.339</ele>
        <time>2019-05-02T08:10:17.335Z</time>
      </trkpt>
      <trkpt lat="48.3147215" lon="14.2911712">
        <ele>252.567</ele>
        <time>2019-05-02T08:10:19.431Z</time>
      </trkpt>
      <trkpt lat="48.3148065" lon="14.2912559">
        <ele>252.676</ele>
        <time>2019-05-02T08:10:21.314Z</time>
      </trkpt>
      <trkpt lat="48.3148926" lon="14.2913385">
        <ele>252.672</ele>
        <time>2019-05-02T08:10:23.118Z</time>
      </trkpt>
      <trkpt lat="48.3149808" lon="14.2914300">
        <ele>252.600</ele>
        <time>2019-05-02T08:10:24.908Z</time>
      </trkpt>
      <trkpt lat="48.3150653" lon="14.2915314">
        <ele>252.516</ele>
        <time>2019-05-02T08:10:26.704Z</time>
      </trkpt>
      <trkpt lat="48.3151598" lon="14.2916286">
        <ele>252.459</ele>
        <time>2019-05-02T08:10:28.658Z</time>
      </trkpt>
      <trkpt lat="48.3152529" lon="14.2917075">
        <ele>252.422</ele>
        <time>2019-05-02T08:10:30.569Z</time>
      </trkpt>
      <trkpt lat="48.3153406" lon="14.2917932">
        <ele>252.385</ele>
        <time>2019-05-02T08:10:32.529Z</time>
      </trkpt>
      <trkpt lat="48.3154208" lon="14.2918787">
        <ele>252.362</ele>
        <time>2019-05-02T08:10:34.378Z</time>
      </trkpt>
      <trkpt lat="48.3155222" lon="14.2919585">
        <ele>252.370</ele>
        <time>2019-05-02T08:10:36.456Z</time>
      </trkpt>
      <trkpt lat="48.3156325" lon="14.2920471">
        <ele>252.399</ele>
        <time>2019-05-02T08:10:38.839Z</time>
      </trkpt>
      <trkpt lat="48.3157571" lon="14.2922224">
        <ele>252.447</ele>
        <time>2019-05-02T08:10:42.255Z</time>
      </trkpt>
      <trkpt lat="48.3158418" lon="14.2923207">
        <ele>252.512</ele>
        <time>2019-05-02T08:10:44.279Z</time>
      </trkpt>
      <trkpt lat="48.3159271" lon="14.2923923">
        <ele>252.552</ele>
        <time>2019-05-02T08:10:46.013Z</time>
      </trkpt>
      <trkpt lat="48.3160347" lon="14.2924802">
        <ele>252.519</ele>
        <time>2019-05-02T08:10:48.203Z</time>
      </trkpt>
      <trkpt lat="48.3161497" lon="14.2926426">
        <ele>252.429</ele>
        <time>2019-05-02T08:10:51.143Z</time>
      </trkpt>
      <trkpt lat="48.3162689" lon="14.2927463">
        <ele>252.344</ele>
        <time>2019-05-02T08:10:53.790Z</time>
      </trkpt>
      <trkpt lat="48.3164094" lon="14.2927598">
        <ele>252.301</ele>
        <time>2019-05-02T08:10:56.532Z</time>
      </trkpt>
      <trkpt lat="48.3164909" lon="14.2925455">
        <ele>252.304</ele>
        <time>2019-05-02T08:11:00.045Z</time>
      </trkpt>
      <trkpt lat="48.3165691" lon="14.2923596">
        <ele>252.505</ele>
        <time>2019-05-02T08:11:03.160Z</time>
      </trkpt>
      <trkpt lat="48.3166402" lon="14.2922111">
        <ele>253.165</ele>
        <time>2019-05-02T08:11:05.580Z</time>
      </trkpt>
      <trkpt lat="48.3166958" lon="14.2920263">
        <ele>254.200</ele>
        <time>2019-05-02T08:11:08.327Z</time>
      </trkpt>
      <trkpt lat="48.3167357" lon="14.2918359">
        <ele>255.131</ele>
        <time>2019-05-02T08:11:11.366Z</time>
      </trkpt>
      <trkpt lat="48.3168388" lon="14.2917746">
        <ele>255.644</ele>
        <time>2019-05-02T08:11:14.153Z</time>
      </trkpt>
      <trkpt lat="48.3169284" lon="14.2919212">
        <ele>255.793</ele>
        <time>2019-05-02T08:11:17.880Z</time>
      </trkpt>
      <trkpt lat="48.3170322" lon="14.2920291">
        <ele>255.768</ele>
        <time>2019-05-02T08:11:21.451Z</time>
      </trkpt>
      <trkpt lat="48.3171379" lon="14.2921167">
        <ele>255.708</ele>
        <time>2019-05-02T08:11:24.854Z</time>
      </trkpt>
      <trkpt lat="48.3172560" lon="14.2922262">
        <ele>255.671</ele>
        <time>2019-05-02T08:11:28.485Z</time>
      </trkpt>
      <trkpt lat="48.3173363" lon="14.2923208">
        <ele>255.661</ele>
        <time>2019-05-02T08:11:30.850Z</time>
      </trkpt>
      <trkpt lat="48.3174258" lon="14.2924459">
        <ele>255.699</ele>
        <time>2019-05-02T08:11:33.558Z</time>
      </trkpt>
      <trkpt lat="48.3175475" lon="14.2925426">
        <ele>255.796</ele>
        <time>2019-05-02T08:11:36.736Z</time>
      </trkpt>
      <trkpt lat="48.3176589" lon="14.2926035">
        <ele>255.918</ele>
        <time>2019-05-02T08:11:39.567Z</time>
      </trkpt>
      <trkpt lat="48.3177426" lon="14.2926643">
        <ele>256.024</ele>
        <time>2019-05-02T08:11:42.015Z</time>
      </trkpt>
      <trkpt lat="48.3178455" lon="14.2927155">
        <ele>256.137</ele>
        <time>2019-05-02T08:11:44.843Z</time>
      </trkpt>
      <trkpt lat="48.3179472" lon="14.2928298">
        <ele>256.295</ele>
        <time>2019-05-02T08:11:48.382Z</time>
      </trkpt>
      <trkpt lat="48.3180518" lon="14.2928512">
        <ele>256.494</ele>
        <time>2019-05-02T08:11:51.551Z</time>
      </trkpt>
      <trkpt lat="48.3181392" lon="14.2927668">
        <ele>256.800</ele>
        <time>2019-05-02T08:11:55.250Z</time>
      </trkpt>
      <trkpt lat="48.3182326" lon="14.2928151">
        <ele>257.337</ele>
        <time>2019-05-02T08:11:58.532Z</time>
      </trkpt>
      <trkpt lat="48.3183403" lon="14.2928707">
        <ele>258.072</ele>
        <time>2019-05-02T08:12:01.916Z</time>
      </trkpt>
      <trkpt lat="48.3184310" lon="14.2929730">
        <ele>258.890</ele>
        <time>2019-05-02T08:12:05.065Z</time>
      </trkpt>
      <trkpt lat="48.3184879" lon="14.2930940">
        <ele>259.630</ele>
        <time>2019-05-02T08:12:07.715Z</time>
      </trkpt>
      <trkpt lat="48.3185714" lon="14.2931809">
        <ele>260.067</ele>
        <time>2019-05-02T08:12:10.146Z</time>
      </trkpt>
      <trkpt lat="48.3186776" lon="14.2932792">
        <ele>260.094</ele>
        <time>2019-05-02T08:12:12.980Z</time>
      </trkpt>
      <trkpt lat="48.3187796" lon="14.2933988">
        <ele>259.734</ele>
        <time>2019-05-02T08:12:15.842Z</time>
      </trkpt>
      <trkpt lat="48.3188518" lon="14.2935587">
        <ele>259.139</ele>
        <time>2019-05-02T08:12:18.649Z</time>
      </trkpt>
      <trkpt lat="48.3189175" lon="14.2937199">
        <ele>258.573</ele>
        <time>2019-05-02T08:12:21.421Z</time>
      </trkpt>
      <trkpt lat="48.3190015" lon="14.2938652">
        <ele>258.192</ele>
        <time>2019-05-02T08:12:24.180Z</time>
      </trkpt>
      <trkpt lat="48.3190672" lon="14.2939679">
        <ele>257.873</ele>
        <time>2019-05-02T08:12:26.161Z</time>
      </trkpt>
      <trkpt lat="48.3191425" lon="14.2941393">
        <ele>257.385</ele>
        <time>2019-05-02T08:12:29.051Z</time>
      </trkpt>
      <trkpt lat="48.3191729" lon="14.2942666">
        <ele>256.725</ele>
        <time>2019-05-02T08:12:31.136Z</time>
      </trkpt>
      <trkpt lat="48.3192325" lon="14.2944165">
        <ele>256.126</ele>
        <time>2019-05-02T08:12:35.000Z</time>
      </trkpt>
      <trkpt lat="48.3192325" lon="14.2944165">
        <ele>255.770</ele>
        <time>2019-05-02T08:12:39.000Z</time>
      </trkpt>
      <trkpt lat="48.3192325" lon="14.2944165">
        <ele>255.649</ele>
        <time>2019-05-02T08:12:53.082Z</time>
      </trkpt>
      <trkpt lat="48.3192998" lon="14.2946140">
        <ele>255.641</ele>
        <time>2019-05-02T08:12:58.446Z</time>
      </trkpt>
      <trkpt lat="48.3193891" lon="14.2947751">
        <ele>255.657</ele>
        <time>2019-05-02T08:13:01.380Z</time>
      </trkpt>
      <trkpt lat="48.3194494" lon="14.2948797">
        <ele>255.669</ele>
        <time>2019-05-02T08:13:03.281Z</time>
      </trkpt>
      <trkpt lat="48.3194991" lon="14.2950082">
        <ele>255.674</ele>
        <time>2019-05-02T08:13:05.659Z</time>
      </trkpt>
      <trkpt lat="48.3195933" lon="14.2950627">
        <ele>255.674</ele>
        <time>2019-05-02T08:13:08.505Z</time>
      </trkpt>
      <trkpt lat="48.3196811" lon="14.2950336">
        <ele>255.672</ele>
        <time>2019-05-02T08:13:13.000Z</time>
      </trkpt>
      <trkpt lat="48.3196811" lon="14.2950336">
        <ele>255.671</ele>
        <time>2019-05-02T08:13:14.000Z</time>
      </trkpt>
      <trkpt lat="48.3196811" lon="14.2950336">
        <ele>255.630</ele>
        <time>2019-05-02T08:13:15.892Z</time>
      </trkpt>
      <trkpt lat="48.3195660" lon="14.2948688">
        <ele>255.525</ele>
        <time>2019-05-02T08:13:22.505Z</time>
      </trkpt>
      <trkpt lat="48.3194632" lon="14.2947905">
        <ele>255.457</ele>
        <time>2019-05-02T08:13:24.967Z</time>
      </trkpt>
      <trkpt lat="48.3193857" lon="14.2946743">
        <ele>255.511</ele>
        <time>2019-05-02T08:13:27.120Z</time>
      </trkpt>
      <trkpt lat="48.3192696" lon="14.2944910">
        <ele>255.612</ele>
        <time>2019-05-02T08:13:30.725Z</time>
      </trkpt>
      <trkpt lat="48.3192040" lon="14.2943858">
        <ele>255.672</ele>
        <time>2019-05-02T08:13:33.000Z</time>
      </trkpt>
      <trkpt lat="48.3192040" lon="14.2943858">
        <ele>255.646</ele>
        <time>2019-05-02T08:13:37.000Z</time>
      </trkpt>
      <trkpt lat="48.3192040" lon="14.2943858">
        <ele>255.536</ele>
        <time>2019-05-02T08:13:37.100Z</time>
      </trkpt>
      <trkpt lat="48.3193074" lon="14.2944378">
        <ele>255.425</ele>
        <time>2019-05-02T08:13:42.098Z</time>
      </trkpt>
      <trkpt lat="48.3193893" lon="14.2945549">
        <ele>255.413</ele>
        <time>2019-05-02T08:13:45.177Z</time>
      </trkpt>
      <trkpt lat="48.3194898" lon="14.2946770">
        <ele>255.509</ele>
        <time>2019-05-02T08:13:48.329Z</time>
      </trkpt>
      <trkpt lat="48.3195948" lon="14.2947959">
        <ele>255.681</ele>
        <time>2019-05-02T08:13:51.345Z</time>
      </trkpt>
      <trkpt lat="48.3196904" lon="14.2949356">
        <ele>255.692</ele>
        <time>2019-05-02T08:13:54.365Z</time>
      </trkpt>
      <trkpt lat="48.3197716" lon="14.2950365">
        <ele>255.684</ele>
        <time>2019-05-02T08:13:56.816Z</time>
      </trkpt>
      <trkpt lat="48.3198560" lon="14.2951687">
        <ele>255.675</ele>
        <time>2019-05-02T08:13:59.707Z</time>
      </trkpt>
      <trkpt lat="48.3199289" lon="14.2952514">
        <ele>255.670</ele>
        <time>2019-05-02T08:14:01.888Z</time>
      </trkpt>
      <trkpt lat="48.3200232" lon="14.2953812">
        <ele>255.669</ele>
        <time>2019-05-02T08:14:04.969Z</time>
      </trkpt>
      <trkpt lat="48.3201097" lon="14.2954703">
        <ele>255.670</ele>
        <time>2019-05-02T08:14:07.542Z</time>
      </trkpt>
      <trkpt lat="48.3201846" lon="14.2955896">
        <ele>255.669</ele>
        <time>2019-05-02T08:14:10.261Z</time>
      </trkpt>
      <trkpt lat="48.3202507" lon="14.2957503">
        <ele>255.668</ele>
        <time>2019-05-02T08:14:13.388Z</time>
      </trkpt>
      <trkpt lat="48.3203049" lon="14.2958654">
        <ele>255.654</ele>
        <time>2019-05-02T08:14:15.575Z</time>
      </trkpt>
      <trkpt lat="48.3203381" lon="14.2960195">
        <ele>255.617</ele>
        <time>2019-05-02T08:14:17.777Z</time>
      </trkpt>
      <trkpt lat="48.3203923" lon="14.2962304">
        <ele>255.540</ele>
        <time>2019-05-02T08:14:20.366Z</time>
      </trkpt>
      <trkpt lat="48.3204769" lon="14.2964272">
        <ele>255.325</ele>
        <time>2019-05-02T08:14:22.763Z</time>
      </trkpt>
      <trkpt lat="48.3205739" lon="14.2966012">
        <ele>254.945</ele>
        <time>2019-05-02T08:14:25.047Z</time>
      </trkpt>
      <trkpt lat="48.3206745" lon="14.2967358">
        <ele>254.584</ele>
        <time>2019-05-02T08:14:27.217Z</time>
      </trkpt>
      <trkpt lat="48.3207649" lon="14.2968558">
        <ele>254.349</ele>
        <time>2019-05-02T08:14:29.331Z</time>
      </trkpt>
      <trkpt lat="48.3208544" lon="14.2969662">
        <ele>254.037</ele>
        <time>2019-05-02T08:14:31.465Z</time>
      </trkpt>
      <trkpt lat="48.3209929" lon="14.2969971">
        <ele>253.453</ele>
        <time>2019-05-02T08:14:34.159Z</time>
      </trkpt>
      <trkpt lat="48.3210951" lon="14.2971054">
        <ele>252.657</ele>
        <time>2019-05-02T08:14:36.634Z</time>
      </trkpt>
      <trkpt lat="48.3211632" lon="14.2972527">
        <ele>251.849</ele>
        <time>2019-05-02T08:14:39.060Z</time>
      </trkpt>
      <trkpt lat="48.3212428" lon="14.2973590">
        <ele>251.089</ele>
        <time>2019-05-02T08:14:41.299Z</time>
      </trkpt>
      <trkpt lat="48.3213300" lon="14.2974994">
        <ele>250.355</ele>
        <time>2019-05-02T08:14:44.284Z</time>
      </trkpt>
      <trkpt lat="48.3214022" lon="14.2975915">
        <ele>249.735</ele>
        <time>2019-05-02T08:14:46.765Z</time>
      </trkpt>
      <trkpt lat="48.3214812" lon="14.2977122">
        <ele>249.362</ele>
        <time>2019-05-02T08:14:49.908Z</time>
      </trkpt>
      <trkpt lat="48.3215536" lon="14.2978506">
        <ele>249.805</ele>
        <time>2019-05-02T08:14:53.421Z</time>
      </trkpt>
      <trkpt lat="48.3215984" lon="14.2979722">
        <ele>251.396</ele>
        <time>2019-05-02T08:14:56.457Z</time>
      </trkpt>
      <trkpt lat="48.3216564" lon="14.2981025">
        <ele>253.286</ele>
        <time>2019-05-02T08:14:59.891Z</time>
      </trkpt>
      <trkpt lat="48.3217345" lon="14.2982584">
        <ele>254.548</ele>
        <time>2019-05-02T08:15:03.753Z</time>
      </trkpt>
      <trkpt lat="48.3218245" lon="14.2983882">
        <ele>255.197</ele>
        <time>2019-05-02T08:15:06.879Z</time>
      </trkpt>
      <trkpt lat="48.3218916" lon="14.2984790">
        <ele>255.500</ele>
        <time>2019-05-02T08:15:09.000Z</time>
      </trkpt>
      <trkpt lat="48.3219528" lon="14.2986009">
        <ele>255.637</ele>
        <time>2019-05-02T08:15:11.301Z</time>
      </trkpt>
      <trkpt lat="48.3220177" lon="14.2987530">
        <ele>255.681</ele>
        <time>2019-05-02T08:15:13.976Z</time>
      </trkpt>
      <trkpt lat="48.3220951" lon="14.2989180">
        <ele>255.683</ele>
        <time>2019-05-02T08:15:16.612Z</time>
      </trkpt>
      <trkpt lat="48.3221637" lon="14.2990280">
        <ele>255.675</ele>
        <time>2019-05-02T08:15:18.421Z</time>
      </trkpt>
      <trkpt lat="48.3222472" lon="14.2991552">
        <ele>255.670</ele>
        <time>2019-05-02T08:15:20.500Z</time>
      </trkpt>
      <trkpt lat="48.3223348" lon="14.2992804">
        <ele>255.669</ele>
        <time>2019-05-02T08:15:22.569Z</time>
      </trkpt>
      <trkpt lat="48.3224467" lon="14.2994032">
        <ele>255.670</ele>
        <time>2019-05-02T08:15:24.925Z</time>
      </trkpt>
      <trkpt lat="48.3225250" lon="14.2995174">
        <ele>255.671</ele>
        <time>2019-05-02T08:15:26.766Z</time>
      </trkpt>
      <trkpt lat="48.3226139" lon="14.2996240">
        <ele>255.671</ele>
        <time>2019-05-02T08:15:28.648Z</time>
      </trkpt>
      <trkpt lat="48.3227002" lon="14.2997318">
        <ele>255.671</ele>
        <time>2019-05-02T08:15:30.492Z</time>
      </trkpt>
      <trkpt lat="48.3227916" lon="14.2998394">
        <ele>255.671</ele>
        <time>2019-05-02T08:15:32.433Z</time>
      </trkpt>
      <trkpt lat="48.3228680" lon="14.2999476">
        <ele>255.669</ele>
        <time>2019-05-02T08:15:34.243Z</time>
      </trkpt>
      <trkpt lat="48.3229414" lon="14.3000710">
        <ele>255.664</ele>
        <time>2019-05-02T08:15:36.229Z</time>
      </trkpt>
      <trkpt lat="48.3230160" lon="14.3001894">
        <ele>255.658</ele>
        <time>2019-05-02T08:15:38.249Z</time>
      </trkpt>
      <trkpt lat="48.3230772" lon="14.3003020">
        <ele>255.633</ele>
        <time>2019-05-02T08:15:40.048Z</time>
      </trkpt>
      <trkpt lat="48.3231482" lon="14.3004232">
        <ele>255.575</ele>
        <time>2019-05-02T08:15:42.044Z</time>
      </trkpt>
      <trkpt lat="48.3232142" lon="14.3005409">
        <ele>255.494</ele>
        <time>2019-05-02T08:15:43.946Z</time>
      </trkpt>
      <trkpt lat="48.3232715" lon="14.3006534">
        <ele>255.360</ele>
        <time>2019-05-02T08:15:45.684Z</time>
      </trkpt>
      <trkpt lat="48.3233349" lon="14.3007791">
        <ele>255.169</ele>
        <time>2019-05-02T08:15:47.582Z</time>
      </trkpt>
      <trkpt lat="48.3233904" lon="14.3009191">
        <ele>255.024</ele>
        <time>2019-05-02T08:15:49.499Z</time>
      </trkpt>
      <trkpt lat="48.3234572" lon="14.3010652">
        <ele>254.993</ele>
        <time>2019-05-02T08:15:51.547Z</time>
      </trkpt>
      <trkpt lat="48.3235261" lon="14.3012028">
        <ele>255.021</ele>
        <time>2019-05-02T08:15:53.514Z</time>
      </trkpt>
      <trkpt lat="48.3235875" lon="14.3013590">
        <ele>255.000</ele>
        <time>2019-05-02T08:15:55.553Z</time>
      </trkpt>
      <trkpt lat="48.3236416" lon="14.3015109">
        <ele>254.700</ele>
        <time>2019-05-02T08:15:57.454Z</time>
      </trkpt>
      <trkpt lat="48.3237075" lon="14.3016656">
        <ele>254.413</ele>
        <time>2019-05-02T08:15:59.463Z</time>
      </trkpt>
      <trkpt lat="48.3237632" lon="14.3018216">
        <ele>250.323</ele>
        <time>2019-05-02T08:16:01.400Z</time>
      </trkpt>
      <trkpt lat="48.3238255" lon="14.3019780">
        <ele>237.994</ele>
        <time>2019-05-02T08:16:03.417Z</time>
      </trkpt>
      <trkpt lat="48.3238816" lon="14.3021185">
        <ele>220.252</ele>
        <time>2019-05-02T08:16:05.258Z</time>
      </trkpt>
      <trkpt lat="48.3239447" lon="14.3022705">
        <ele>204.227</ele>
        <time>2019-05-02T08:16:07.247Z</time>
      </trkpt>
      <trkpt lat="48.3240329" lon="14.3024307">
        <ele>191.382</ele>
        <time>2019-05-02T08:16:09.470Z</time>
      </trkpt>
      <trkpt lat="48.3241099" lon="14.3026044">
        <ele>201.632</ele>
        <time>2019-05-02T08:16:11.658Z</time>
      </trkpt>
      <trkpt lat="48.3241726" lon="14.3027660">
        <ele>223.835</ele>
        <time>2019-05-02T08:16:13.615Z</time>
      </trkpt>
      <trkpt lat="48.3242264" lon="14.3029374">
        <ele>245.478</ele>
        <time>2019-05-02T08:16:15.696Z</time>
      </trkpt>
      <trkpt lat="48.3242855" lon="14.3031268">
        <ele>256.513</ele>
        <time>2019-05-02T08:16:18.018Z</time>
      </trkpt>
      <trkpt lat="48.3244681" lon="14.3038182">
        <ele>257.229</ele>
        <time>2019-05-02T08:16:26.593Z</time>
      </trkpt>
      <trkpt lat="48.3244681" lon="14.3038182">
        <ele>257.229</ele>
        <time>2019-05-02T08:16:26.593Z</time>
      </trkpt>
      <trkpt lat="48.3246679" lon="14.3046714">
        <ele>252.970</ele>
        <time>2019-05-02T08:16:37.410Z</time>
      </trkpt>
      <trkpt lat="48.3247125" lon="14.3048177">
        <ele>252.853</ele>
        <time>2019-05-02T08:16:39.309Z</time>
      </trkpt>
      <trkpt lat="48.3247504" lon="14.3049721">
        <ele>252.797</ele>
        <time>2019-05-02T08:16:41.209Z</time>
      </trkpt>
      <trkpt lat="48.3247913" lon="14.3051271">
        <ele>252.765</ele>
        <time>2019-05-02T08:16:43.085Z</time>
      </trkpt>
      <trkpt lat="48.3248411" lon="14.3052877">
        <ele>252.764</ele>
        <time>2019-05-02T08:16:45.078Z</time>
      </trkpt>
      <trkpt lat="48.3250408" lon="14.3059502">
        <ele>252.894</ele>
        <time>2019-05-02T08:16:53.192Z</time>
      </trkpt>
      <trkpt lat="48.3250897" lon="14.3061114">
        <ele>253.019</ele>
        <time>2019-05-02T08:16:55.140Z</time>
      </trkpt>
      <trkpt lat="48.3251359" lon="14.3062740">
        <ele>253.195</ele>
        <time>2019-05-02T08:16:57.083Z</time>
      </trkpt>
      <trkpt lat="48.3251856" lon="14.3064525">
        <ele>253.245</ele>
        <time>2019-05-02T08:16:59.208Z</time>
      </trkpt>
      <trkpt lat="48.3252247" lon="14.3066222">
        <ele>253.427</ele>
        <time>2019-05-02T08:17:01.185Z</time>
      </trkpt>
      <trkpt lat="48.3252770" lon="14.3068172">
        <ele>253.752</ele>
        <time>2019-05-02T08:17:03.557Z</time>
      </trkpt>
      <trkpt lat="48.3253313" lon="14.3069881">
        <ele>253.956</ele>
        <time>2019-05-02T08:17:05.724Z</time>
      </trkpt>
      <trkpt lat="48.3253882" lon="14.3071431">
        <ele>253.819</ele>
        <time>2019-05-02T08:17:07.804Z</time>
      </trkpt>
      <trkpt lat="48.3254400" lon="14.3073198">
        <ele>253.480</ele>
        <time>2019-05-02T08:17:10.154Z</time>
      </trkpt>
      <trkpt lat="48.3254860" lon="14.3074895">
        <ele>253.247</ele>
        <time>2019-05-02T08:17:12.376Z</time>
      </trkpt>
      <trkpt lat="48.3255180" lon="14.3076330">
        <ele>253.286</ele>
        <time>2019-05-02T08:17:14.151Z</time>
      </trkpt>
      <trkpt lat="48.3255659" lon="14.3077977">
        <ele>253.554</ele>
        <time>2019-05-02T08:17:16.196Z</time>
      </trkpt>
      <trkpt lat="48.3256070" lon="14.3079567">
        <ele>253.919</ele>
        <time>2019-05-02T08:17:18.129Z</time>
      </trkpt>
      <trkpt lat="48.3256440" lon="14.3081467">
        <ele>254.465</ele>
        <time>2019-05-02T08:17:20.434Z</time>
      </trkpt>
      <trkpt lat="48.3256686" lon="14.3083432">
        <ele>254.618</ele>
        <time>2019-05-02T08:17:22.808Z</time>
      </trkpt>
      <trkpt lat="48.3256986" lon="14.3085164">
        <ele>254.698</ele>
        <time>2019-05-02T08:17:24.938Z</time>
      </trkpt>
      <trkpt lat="48.3257249" lon="14.3086970">
        <ele>254.617</ele>
        <time>2019-05-02T08:17:27.098Z</time>
      </trkpt>
      <trkpt lat="48.3257600" lon="14.3088597">
        <ele>254.364</ele>
        <time>2019-05-02T08:17:29.048Z</time>
      </trkpt>
      <trkpt lat="48.3257956" lon="14.3090226">
        <ele>254.096</ele>
        <time>2019-05-02T08:17:31.014Z</time>
      </trkpt>
      <trkpt lat="48.3258256" lon="14.3091974">
        <ele>253.990</ele>
        <time>2019-05-02T08:17:33.120Z</time>
      </trkpt>
      <trkpt lat="48.3258516" lon="14.3093628">
        <ele>254.070</ele>
        <time>2019-05-02T08:17:35.087Z</time>
      </trkpt>
      <trkpt lat="48.3258793" lon="14.3095246">
        <ele>254.274</ele>
        <time>2019-05-02T08:17:36.989Z</time>
      </trkpt>
      <trkpt lat="48.3258953" lon="14.3096837">
        <ele>254.500</ele>
        <time>2019-05-02T08:17:38.784Z</time>
      </trkpt>
      <trkpt lat="48.3259220" lon="14.3098662">
        <ele>254.670</ele>
        <time>2019-05-02T08:17:40.826Z</time>
      </trkpt>
      <trkpt lat="48.3259357" lon="14.3100364">
        <ele>254.761</ele>
        <time>2019-05-02T08:17:42.701Z</time>
      </trkpt>
      <trkpt lat="48.3259528" lon="14.3102136">
        <ele>254.793</ele>
        <time>2019-05-02T08:17:44.692Z</time>
      </trkpt>
      <trkpt lat="48.3259610" lon="14.3104062">
        <ele>254.796</ele>
        <time>2019-05-02T08:17:46.946Z</time>
      </trkpt>
      <trkpt lat="48.3259721" lon="14.3105865">
        <ele>254.791</ele>
        <time>2019-05-02T08:17:49.151Z</time>
      </trkpt>
      <trkpt lat="48.3259756" lon="14.3107681">
        <ele>254.788</ele>
        <time>2019-05-02T08:17:51.394Z</time>
      </trkpt>
      <trkpt lat="48.3259774" lon="14.3110005">
        <ele>254.786</ele>
        <time>2019-05-02T08:17:54.143Z</time>
      </trkpt>
      <trkpt lat="48.3259873" lon="14.3111469">
        <ele>254.805</ele>
        <time>2019-05-02T08:17:55.868Z</time>
      </trkpt>
      <trkpt lat="48.3259858" lon="14.3113211">
        <ele>254.914</ele>
        <time>2019-05-02T08:17:57.910Z</time>
      </trkpt>
      <trkpt lat="48.3259780" lon="14.3114935">
        <ele>255.169</ele>
        <time>2019-05-02T08:17:59.925Z</time>
      </trkpt>
      <trkpt lat="48.3259771" lon="14.3116561">
        <ele>255.500</ele>
        <time>2019-05-02T08:18:01.815Z</time>
      </trkpt>
      <trkpt lat="48.3259831" lon="14.3119127">
        <ele>255.763</ele>
        <time>2019-05-02T08:18:04.807Z</time>
      </trkpt>
      <trkpt lat="48.3259878" lon="14.3120942">
        <ele>255.892</ele>
        <time>2019-05-02T08:18:06.918Z</time>
      </trkpt>
      <trkpt lat="48.3260167" lon="14.3122757">
        <ele>255.927</ele>
        <time>2019-05-02T08:18:09.103Z</time>
      </trkpt>
      <trkpt lat="48.3260196" lon="14.3124334">
        <ele>255.935</ele>
        <time>2019-05-02T08:18:10.961Z</time>
      </trkpt>
      <trkpt lat="48.3260152" lon="14.3126014">
        <ele>255.972</ele>
        <time>2019-05-02T08:18:12.901Z</time>
      </trkpt>
      <trkpt lat="48.3260067" lon="14.3127529">
        <ele>256.047</ele>
        <time>2019-05-02T08:18:14.649Z</time>
      </trkpt>
      <trkpt lat="48.3260045" lon="14.3129079">
        <ele>256.120</ele>
        <time>2019-05-02T08:18:16.429Z</time>
      </trkpt>
      <trkpt lat="48.3259996" lon="14.3130802">
        <ele>256.143</ele>
        <time>2019-05-02T08:18:18.386Z</time>
      </trkpt>
      <trkpt lat="48.3260004" lon="14.3132563">
        <ele>256.044</ele>
        <time>2019-05-02T08:18:20.351Z</time>
      </trkpt>
      <trkpt lat="48.3259971" lon="14.3134448">
        <ele>255.761</ele>
        <time>2019-05-02T08:18:22.424Z</time>
      </trkpt>
      <trkpt lat="48.3259924" lon="14.3136199">
        <ele>255.366</ele>
        <time>2019-05-02T08:18:24.321Z</time>
      </trkpt>
      <trkpt lat="48.3259797" lon="14.3137991">
        <ele>255.026</ele>
        <time>2019-05-02T08:18:26.266Z</time>
      </trkpt>
      <trkpt lat="48.3259727" lon="14.3139674">
        <ele>254.834</ele>
        <time>2019-05-02T08:18:28.130Z</time>
      </trkpt>
      <trkpt lat="48.3259669" lon="14.3141406">
        <ele>254.767</ele>
        <time>2019-05-02T08:18:30.134Z</time>
      </trkpt>
      <trkpt lat="48.3259541" lon="14.3143024">
        <ele>254.764</ele>
        <time>2019-05-02T08:18:32.107Z</time>
      </trkpt>
      <trkpt lat="48.3259305" lon="14.3144685">
        <ele>254.777</ele>
        <time>2019-05-02T08:18:34.231Z</time>
      </trkpt>
      <trkpt lat="48.3259227" lon="14.3146295">
        <ele>254.788</ele>
        <time>2019-05-02T08:18:36.244Z</time>
      </trkpt>
      <trkpt lat="48.3259212" lon="14.3147834">
        <ele>254.776</ele>
        <time>2019-05-02T08:18:38.094Z</time>
      </trkpt>
      <trkpt lat="48.3259316" lon="14.3149343">
        <ele>254.699</ele>
        <time>2019-05-02T08:18:39.853Z</time>
      </trkpt>
      <trkpt lat="48.3259356" lon="14.3150931">
        <ele>254.536</ele>
        <time>2019-05-02T08:18:41.652Z</time>
      </trkpt>
      <trkpt lat="48.3259302" lon="14.3152584">
        <ele>254.333</ele>
        <time>2019-05-02T08:18:43.511Z</time>
      </trkpt>
      <trkpt lat="48.3259151" lon="14.3154461">
        <ele>254.164</ele>
        <time>2019-05-02T08:18:45.633Z</time>
      </trkpt>
      <trkpt lat="48.3258924" lon="14.3156064">
        <ele>254.069</ele>
        <time>2019-05-02T08:18:47.454Z</time>
      </trkpt>
      <trkpt lat="48.3258667" lon="14.3157746">
        <ele>254.053</ele>
        <time>2019-05-02T08:18:49.318Z</time>
      </trkpt>
      <trkpt lat="48.3258461" lon="14.3159396">
        <ele>254.150</ele>
        <time>2019-05-02T08:18:51.086Z</time>
      </trkpt>
      <trkpt lat="48.3258343" lon="14.3161313">
        <ele>254.478</ele>
        <time>2019-05-02T08:18:53.125Z</time>
      </trkpt>
      <trkpt lat="48.3258094" lon="14.3163087">
        <ele>255.088</ele>
        <time>2019-05-02T08:18:55.079Z</time>
      </trkpt>
      <trkpt lat="48.3257750" lon="14.3164736">
        <ele>255.811</ele>
        <time>2019-05-02T08:18:56.980Z</time>
      </trkpt>
      <trkpt lat="48.3257437" lon="14.3166517">
        <ele>256.376</ele>
        <time>2019-05-02T08:18:59.055Z</time>
      </trkpt>
      <trkpt lat="48.3257230" lon="14.3168130">
        <ele>256.570</ele>
        <time>2019-05-02T08:19:00.893Z</time>
      </trkpt>
      <trkpt lat="48.3256990" lon="14.3169840">
        <ele>256.314</ele>
        <time>2019-05-02T08:19:02.817Z</time>
      </trkpt>
      <trkpt lat="48.3256713" lon="14.3171402">
        <ele>255.761</ele>
        <time>2019-05-02T08:19:04.603Z</time>
      </trkpt>
      <trkpt lat="48.3256451" lon="14.3172992">
        <ele>254.914</ele>
        <time>2019-05-02T08:19:06.462Z</time>
      </trkpt>
      <trkpt lat="48.3256214" lon="14.3174772">
        <ele>254.712</ele>
        <time>2019-05-02T08:19:08.613Z</time>
      </trkpt>
      <trkpt lat="48.3256046" lon="14.3176100">
        <ele>254.554</ele>
        <time>2019-05-02T08:19:10.285Z</time>
      </trkpt>
      <trkpt lat="48.3255677" lon="14.3177786">
        <ele>254.543</ele>
        <time>2019-05-02T08:19:12.518Z</time>
      </trkpt>
      <trkpt lat="48.3255326" lon="14.3179205">
        <ele>254.808</ele>
        <time>2019-05-02T08:19:14.411Z</time>
      </trkpt>
      <trkpt lat="48.3254886" lon="14.3180666">
        <ele>255.249</ele>
        <time>2019-05-02T08:19:16.396Z</time>
      </trkpt>
      <trkpt lat="48.3254512" lon="14.3182093">
        <ele>255.609</ele>
        <time>2019-05-02T08:19:18.229Z</time>
      </trkpt>
      <trkpt lat="48.3254200" lon="14.3183492">
        <ele>255.691</ele>
        <time>2019-05-02T08:19:19.937Z</time>
      </trkpt>
      <trkpt lat="48.3253769" lon="14.3185007">
        <ele>255.477</ele>
        <time>2019-05-02T08:19:21.813Z</time>
      </trkpt>
      <trkpt lat="48.3253450" lon="14.3186494">
        <ele>255.130</ele>
        <time>2019-05-02T08:19:23.588Z</time>
      </trkpt>
      <trkpt lat="48.3253097" lon="14.3188008">
        <ele>254.810</ele>
        <time>2019-05-02T08:19:25.422Z</time>
      </trkpt>
      <trkpt lat="48.3252717" lon="14.3189488">
        <ele>254.568</ele>
        <time>2019-05-02T08:19:27.250Z</time>
      </trkpt>
      <trkpt lat="48.3252370" lon="14.3190994">
        <ele>254.432</ele>
        <time>2019-05-02T08:19:29.044Z</time>
      </trkpt>
      <trkpt lat="48.3251996" lon="14.3192884">
        <ele>254.402</ele>
        <time>2019-05-02T08:19:31.169Z</time>
      </trkpt>
      <trkpt lat="48.3251568" lon="14.3194728">
        <ele>254.435</ele>
        <time>2019-05-02T08:19:33.330Z</time>
      </trkpt>
      <trkpt lat="48.3251197" lon="14.3196374">
        <ele>254.481</ele>
        <time>2019-05-02T08:19:35.332Z</time>
      </trkpt>
      <trkpt lat="48.3250776" lon="14.3197964">
        <ele>254.508</ele>
        <time>2019-05-02T08:19:37.301Z</time>
      </trkpt>
      <trkpt lat="48.3250272" lon="14.3199508">
        <ele>254.479</ele>
        <time>2019-05-02T08:19:39.260Z</time>
      </trkpt>
      <trkpt lat="48.3249841" lon="14.3201073">
        <ele>254.385</ele>
        <time>2019-05-02T08:19:41.226Z</time>
      </trkpt>
      <trkpt lat="48.3249329" lon="14.3202392">
        <ele>254.310</ele>
        <time>2019-05-02T08:19:43.068Z</time>
      </trkpt>
      <trkpt lat="48.3248890" lon="14.3203645">
        <ele>254.320</ele>
        <time>2019-05-02T08:19:44.835Z</time>
      </trkpt>
      <trkpt lat="48.3248427" lon="14.3205044">
        <ele>254.353</ele>
        <time>2019-05-02T08:19:46.836Z</time>
      </trkpt>
      <trkpt lat="48.3247956" lon="14.3206330">
        <ele>254.300</ele>
        <time>2019-05-02T08:19:48.747Z</time>
      </trkpt>
      <trkpt lat="48.3247359" lon="14.3208092">
        <ele>254.155</ele>
        <time>2019-05-02T08:19:51.297Z</time>
      </trkpt>
      <trkpt lat="48.3246729" lon="14.3209306">
        <ele>254.046</ele>
        <time>2019-05-02T08:19:53.246Z</time>
      </trkpt>
      <trkpt lat="48.3246206" lon="14.3210452">
        <ele>254.079</ele>
        <time>2019-05-02T08:19:55.082Z</time>
      </trkpt>
      <trkpt lat="48.3245813" lon="14.3212063">
        <ele>254.209</ele>
        <time>2019-05-02T08:19:57.465Z</time>
      </trkpt>
      <trkpt lat="48.3245518" lon="14.3213364">
        <ele>254.292</ele>
        <time>2019-05-02T08:19:59.460Z</time>
      </trkpt>
      <trkpt lat="48.3245090" lon="14.3214925">
        <ele>254.262</ele>
        <time>2019-05-02T08:20:01.675Z</time>
      </trkpt>
      <trkpt lat="48.3244585" lon="14.3216492">
        <ele>254.225</ele>
        <time>2019-05-02T08:20:03.762Z</time>
      </trkpt>
      <trkpt lat="48.3244061" lon="14.3218031">
        <ele>254.281</ele>
        <time>2019-05-02T08:20:05.777Z</time>
      </trkpt>
      <trkpt lat="48.3243433" lon="14.3219432">
        <ele>254.378</ele>
        <time>2019-05-02T08:20:07.730Z</time>
      </trkpt>
      <trkpt lat="48.3242800" lon="14.3220775">
        <ele>254.440</ele>
        <time>2019-05-02T08:20:09.605Z</time>
      </trkpt>
      <trkpt lat="48.3242253" lon="14.3222352">
        <ele>254.414</ele>
        <time>2019-05-02T08:20:11.594Z</time>
      </trkpt>
      <trkpt lat="48.3241712" lon="14.3224012">
        <ele>254.289</ele>
        <time>2019-05-02T08:20:13.618Z</time>
      </trkpt>
      <trkpt lat="48.3241078" lon="14.3225503">
        <ele>254.171</ele>
        <time>2019-05-02T08:20:15.575Z</time>
      </trkpt>
      <trkpt lat="48.3240580" lon="14.3226740">
        <ele>254.177</ele>
        <time>2019-05-02T08:20:17.257Z</time>
      </trkpt>
      <trkpt lat="48.3239930" lon="14.3227864">
        <ele>254.291</ele>
        <time>2019-05-02T08:20:19.116Z</time>
      </trkpt>
      <trkpt lat="48.3239188" lon="14.3228996">
        <ele>254.418</ele>
        <time>2019-05-02T08:20:21.187Z</time>
      </trkpt>
      <trkpt lat="48.3238570" lon="14.3230277">
        <ele>254.508</ele>
        <time>2019-05-02T08:20:23.389Z</time>
      </trkpt>
      <trkpt lat="48.3237899" lon="14.3231519">
        <ele>254.566</ele>
        <time>2019-05-02T08:20:25.999Z</time>
      </trkpt>
      <trkpt lat="48.3237899" lon="14.3231519">
        <ele>254.576</ele>
        <time>2019-05-02T08:20:29.999Z</time>
      </trkpt>
      <trkpt lat="48.3237899" lon="14.3231519">
        <ele>254.508</ele>
        <time>2019-05-02T08:20:30.099Z</time>
      </trkpt>
      <trkpt lat="48.3237282" lon="14.3233054">
        <ele>254.301</ele>
        <time>2019-05-02T08:20:43.114Z</time>
      </trkpt>
      <trkpt lat="48.3236775" lon="14.3234176">
        <ele>254.007</ele>
        <time>2019-05-02T08:20:47.606Z</time>
      </trkpt>
      <trkpt lat="48.3236215" lon="14.3235369">
        <ele>253.335</ele>
        <time>2019-05-02T08:20:52.548Z</time>
      </trkpt>
      <trkpt lat="48.3235568" lon="14.3236612">
        <ele>252.794</ele>
        <time>2019-05-02T08:20:57.422Z</time>
      </trkpt>
      <trkpt lat="48.3235020" lon="14.3237815">
        <ele>252.838</ele>
        <time>2019-05-02T08:21:00.771Z</time>
      </trkpt>
      <trkpt lat="48.3234437" lon="14.3239293">
        <ele>253.165</ele>
        <time>2019-05-02T08:21:04.148Z</time>
      </trkpt>
      <trkpt lat="48.3234070" lon="14.3240702">
        <ele>253.398</ele>
        <time>2019-05-02T08:21:06.855Z</time>
      </trkpt>
      <trkpt lat="48.3233199" lon="14.3241928">
        <ele>253.505</ele>
        <time>2019-05-02T08:21:09.775Z</time>
      </trkpt>
      <trkpt lat="48.3232430" lon="14.3243481">
        <ele>253.709</ele>
        <time>2019-05-02T08:21:12.611Z</time>
      </trkpt>
      <trkpt lat="48.3231682" lon="14.3244514">
        <ele>254.142</ele>
        <time>2019-05-02T08:21:14.739Z</time>
      </trkpt>
      <trkpt lat="48.3230941" lon="14.3245392">
        <ele>254.589</ele>
        <time>2019-05-02T08:21:16.641Z</time>
      </trkpt>
      <trkpt lat="48.3230348" lon="14.3246583">
        <ele>254.822</ele>
        <time>2019-05-02T08:21:18.566Z</time>
      </trkpt>
      <trkpt lat="48.3229663" lon="14.3247878">
        <ele>254.870</ele>
        <time>2019-05-02T08:21:20.707Z</time>
      </trkpt>
      <trkpt lat="48.3229089" lon="14.3249056">
        <ele>254.840</ele>
        <time>2019-05-02T08:21:22.619Z</time>
      </trkpt>
      <trkpt lat="48.3228261" lon="14.3250466">
        <ele>254.804</ele>
        <time>2019-05-02T08:21:25.129Z</time>
      </trkpt>
      <trkpt lat="48.3227244" lon="14.3251771">
        <ele>254.785</ele>
        <time>2019-05-02T08:21:27.784Z</time>
      </trkpt>
      <trkpt lat="48.3226398" lon="14.3252734">
        <ele>254.781</ele>
        <time>2019-05-02T08:21:29.852Z</time>
      </trkpt>
      <trkpt lat="48.3225628" lon="14.3253709">
        <ele>254.783</ele>
        <time>2019-05-02T08:21:31.807Z</time>
      </trkpt>
      <trkpt lat="48.3224966" lon="14.3254711">
        <ele>254.786</ele>
        <time>2019-05-02T08:21:33.640Z</time>
      </trkpt>
      <trkpt lat="48.3224276" lon="14.3255581">
        <ele>254.788</ele>
        <time>2019-05-02T08:21:35.415Z</time>
      </trkpt>
      <trkpt lat="48.3223287" lon="14.3256892">
        <ele>254.788</ele>
        <time>2019-05-02T08:21:38.030Z</time>
      </trkpt>
      <trkpt lat="48.3222495" lon="14.3257633">
        <ele>254.788</ele>
        <time>2019-05-02T08:21:39.866Z</time>
      </trkpt>
      <trkpt lat="48.3221671" lon="14.3258531">
        <ele>254.788</ele>
        <time>2019-05-02T08:21:41.845Z</time>
      </trkpt>
      <trkpt lat="48.3220802" lon="14.3259339">
        <ele>254.788</ele>
        <time>2019-05-02T08:21:43.813Z</time>
      </trkpt>
      <trkpt lat="48.3219977" lon="14.3260158">
        <ele>254.788</ele>
        <time>2019-05-02T08:21:45.722Z</time>
      </trkpt>
      <trkpt lat="48.3219212" lon="14.3261183">
        <ele>254.788</ele>
        <time>2019-05-02T08:21:47.734Z</time>
      </trkpt>
      <trkpt lat="48.3218094" lon="14.3262383">
        <ele>254.788</ele>
        <time>2019-05-02T08:21:50.432Z</time>
      </trkpt>
      <trkpt lat="48.3217224" lon="14.3263400">
        <ele>254.788</ele>
        <time>2019-05-02T08:21:52.531Z</time>
      </trkpt>
      <trkpt lat="48.3216311" lon="14.3264708">
        <ele>254.788</ele>
        <time>2019-05-02T08:21:54.802Z</time>
      </trkpt>
      <trkpt lat="48.3215473" lon="14.3266046">
        <ele>254.788</ele>
        <time>2019-05-02T08:21:56.873Z</time>
      </trkpt>
      <trkpt lat="48.3214369" lon="14.3267231">
        <ele>254.788</ele>
        <time>2019-05-02T08:21:59.054Z</time>
      </trkpt>
      <trkpt lat="48.3213249" lon="14.3268461">
        <ele>254.788</ele>
        <time>2019-05-02T08:22:01.200Z</time>
      </trkpt>
      <trkpt lat="48.3212278" lon="14.3269497">
        <ele>254.788</ele>
        <time>2019-05-02T08:22:03.000Z</time>
      </trkpt>
      <trkpt lat="48.3211347" lon="14.3270088">
        <ele>254.788</ele>
        <time>2019-05-02T08:22:04.555Z</time>
      </trkpt>
      <trkpt lat="48.3210420" lon="14.3270764">
        <ele>254.788</ele>
        <time>2019-05-02T08:22:06.185Z</time>
      </trkpt>
      <trkpt lat="48.3209465" lon="14.3271737">
        <ele>254.788</ele>
        <time>2019-05-02T08:22:08.035Z</time>
      </trkpt>
      <trkpt lat="48.3208451" lon="14.3272315">
        <ele>254.788</ele>
        <time>2019-05-02T08:22:09.771Z</time>
      </trkpt>
      <trkpt lat="48.3207283" lon="14.3273193">
        <ele>254.788</ele>
        <time>2019-05-02T08:22:11.856Z</time>
      </trkpt>
      <trkpt lat="48.3206142" lon="14.3273954">
        <ele>254.788</ele>
        <time>2019-05-02T08:22:13.886Z</time>
      </trkpt>
      <trkpt lat="48.3205128" lon="14.3274800">
        <ele>254.788</ele>
        <time>2019-05-02T08:22:15.837Z</time>
      </trkpt>
      <trkpt lat="48.3204147" lon="14.3275828">
        <ele>254.788</ele>
        <time>2019-05-02T08:22:17.883Z</time>
      </trkpt>
      <trkpt lat="48.3203200" lon="14.3277062">
        <ele>254.788</ele>
        <time>2019-05-02T08:22:20.039Z</time>
      </trkpt>
      <trkpt lat="48.3202283" lon="14.3277834">
        <ele>254.788</ele>
        <time>2019-05-02T08:22:21.912Z</time>
      </trkpt>
      <trkpt lat="48.3201384" lon="14.3278738">
        <ele>254.788</ele>
        <time>2019-05-02T08:22:23.895Z</time>
      </trkpt>
      <trkpt lat="48.3200446" lon="14.3279515">
        <ele>254.788</ele>
        <time>2019-05-02T08:22:25.848Z</time>
      </trkpt>
      <trkpt lat="48.3199475" lon="14.3280543">
        <ele>254.788</ele>
        <time>2019-05-02T08:22:27.961Z</time>
      </trkpt>
      <trkpt lat="48.3198407" lon="14.3281680">
        <ele>254.788</ele>
        <time>2019-05-02T08:22:30.198Z</time>
      </trkpt>
      <trkpt lat="48.3197454" lon="14.3282700">
        <ele>254.788</ele>
        <time>2019-05-02T08:22:32.160Z</time>
      </trkpt>
      <trkpt lat="48.3196390" lon="14.3283564">
        <ele>254.788</ele>
        <time>2019-05-02T08:22:34.206Z</time>
      </trkpt>
      <trkpt lat="48.3195445" lon="14.3284657">
        <ele>254.788</ele>
        <time>2019-05-02T08:22:36.226Z</time>
      </trkpt>
      <trkpt lat="48.3194456" lon="14.3285813">
        <ele>254.788</ele>
        <time>2019-05-02T08:22:38.314Z</time>
      </trkpt>
      <trkpt lat="48.3193297" lon="14.3286820">
        <ele>254.788</ele>
        <time>2019-05-02T08:22:40.588Z</time>
      </trkpt>
      <trkpt lat="48.3192269" lon="14.3288009">
        <ele>254.788</ele>
        <time>2019-05-02T08:22:42.909Z</time>
      </trkpt>
      <trkpt lat="48.3191338" lon="14.3288815">
        <ele>254.788</ele>
        <time>2019-05-02T08:22:44.845Z</time>
      </trkpt>
      <trkpt lat="48.3190362" lon="14.3289653">
        <ele>254.788</ele>
        <time>2019-05-02T08:22:46.843Z</time>
      </trkpt>
      <trkpt lat="48.3189404" lon="14.3290394">
        <ele>254.751</ele>
        <time>2019-05-02T08:22:48.895Z</time>
      </trkpt>
      <trkpt lat="48.3188236" lon="14.3291471">
        <ele>254.577</ele>
        <time>2019-05-02T08:22:51.672Z</time>
      </trkpt>
      <trkpt lat="48.3187377" lon="14.3292181">
        <ele>254.156</ele>
        <time>2019-05-02T08:22:53.664Z</time>
      </trkpt>
      <trkpt lat="48.3186177" lon="14.3293187">
        <ele>253.554</ele>
        <time>2019-05-02T08:22:56.334Z</time>
      </trkpt>
      <trkpt lat="48.3185226" lon="14.3293982">
        <ele>253.022</ele>
        <time>2019-05-02T08:22:58.288Z</time>
      </trkpt>
      <trkpt lat="48.3184204" lon="14.3294781">
        <ele>252.724</ele>
        <time>2019-05-02T08:23:00.270Z</time>
      </trkpt>
      <trkpt lat="48.3183192" lon="14.3295648">
        <ele>252.628</ele>
        <time>2019-05-02T08:23:02.232Z</time>
      </trkpt>
      <trkpt lat="48.3182159" lon="14.3296507">
        <ele>252.635</ele>
        <time>2019-05-02T08:23:04.174Z</time>
      </trkpt>
      <trkpt lat="48.3181017" lon="14.3297532">
        <ele>252.665</ele>
        <time>2019-05-02T08:23:06.300Z</time>
      </trkpt>
      <trkpt lat="48.3179970" lon="14.3298310">
        <ele>252.684</ele>
        <time>2019-05-02T08:23:08.183Z</time>
      </trkpt>
      <trkpt lat="48.3178947" lon="14.3299054">
        <ele>252.690</ele>
        <time>2019-05-02T08:23:10.093Z</time>
      </trkpt>
      <trkpt lat="48.3177995" lon="14.3299616">
        <ele>252.689</ele>
        <time>2019-05-02T08:23:11.889Z</time>
      </trkpt>
      <trkpt lat="48.3177020" lon="14.3300197">
        <ele>252.686</ele>
        <time>2019-05-02T08:23:13.778Z</time>
      </trkpt>
      <trkpt lat="48.3175983" lon="14.3300799">
        <ele>252.684</ele>
        <time>2019-05-02T08:23:15.743Z</time>
      </trkpt>
      <trkpt lat="48.3174908" lon="14.3301560">
        <ele>252.684</ele>
        <time>2019-05-02T08:23:17.690Z</time>
      </trkpt>
      <trkpt lat="48.3173662" lon="14.3302304">
        <ele>252.684</ele>
        <time>2019-05-02T08:23:19.738Z</time>
      </trkpt>
      <trkpt lat="48.3172456" lon="14.3303491">
        <ele>252.684</ele>
        <time>2019-05-02T08:23:22.007Z</time>
      </trkpt>
      <trkpt lat="48.3171442" lon="14.3304507">
        <ele>252.684</ele>
        <time>2019-05-02T08:23:24.109Z</time>
      </trkpt>
      <trkpt lat="48.3170531" lon="14.3305360">
        <ele>252.684</ele>
        <time>2019-05-02T08:23:26.105Z</time>
      </trkpt>
      <trkpt lat="48.3169601" lon="14.3306013">
        <ele>252.684</ele>
        <time>2019-05-02T08:23:28.128Z</time>
      </trkpt>
      <trkpt lat="48.3168964" lon="14.3307116">
        <ele>252.684</ele>
        <time>2019-05-02T08:23:30.204Z</time>
      </trkpt>
      <trkpt lat="48.3168062" lon="14.3308267">
        <ele>252.684</ele>
        <time>2019-05-02T08:23:33.018Z</time>
      </trkpt>
      <trkpt lat="48.3167163" lon="14.3309139">
        <ele>252.684</ele>
        <time>2019-05-02T08:23:36.316Z</time>
      </trkpt>
      <trkpt lat="48.3166551" lon="14.3310385">
        <ele>252.684</ele>
        <time>2019-05-02T08:23:40.402Z</time>
      </trkpt>
      <trkpt lat="48.3165815" lon="14.3311724">
        <ele>252.684</ele>
        <time>2019-05-02T08:23:45.999Z</time>
      </trkpt>
      <trkpt lat="48.3165815" lon="14.3311724">
        <ele>252.684</ele>
        <time>2019-05-02T08:23:48.999Z</time>
      </trkpt>
      <trkpt lat="48.3165815" lon="14.3311724">
        <ele>252.644</ele>
        <time>2019-05-02T08:23:55.269Z</time>
      </trkpt>
      <trkpt lat="48.3164297" lon="14.3312296">
        <ele>252.539</ele>
        <time>2019-05-02T08:24:04.772Z</time>
      </trkpt>
      <trkpt lat="48.3163484" lon="14.3313125">
        <ele>252.472</ele>
        <time>2019-05-02T08:24:07.891Z</time>
      </trkpt>
      <trkpt lat="48.3162616" lon="14.3313875">
        <ele>252.526</ele>
        <time>2019-05-02T08:24:10.603Z</time>
      </trkpt>
      <trkpt lat="48.3161545" lon="14.3315006">
        <ele>252.626</ele>
        <time>2019-05-02T08:24:13.959Z</time>
      </trkpt>
      <trkpt lat="48.3160683" lon="14.3316169">
        <ele>252.685</ele>
        <time>2019-05-02T08:24:17.031Z</time>
      </trkpt>
      <trkpt lat="48.3159852" lon="14.3316696">
        <ele>252.702</ele>
        <time>2019-05-02T08:24:19.191Z</time>
      </trkpt>
      <trkpt lat="48.3158903" lon="14.3317166">
        <ele>252.697</ele>
        <time>2019-05-02T08:24:21.510Z</time>
      </trkpt>
      <trkpt lat="48.3158072" lon="14.3317856">
        <ele>252.689</ele>
        <time>2019-05-02T08:24:23.870Z</time>
      </trkpt>
      <trkpt lat="48.3157047" lon="14.3318589">
        <ele>252.684</ele>
        <time>2019-05-02T08:24:26.906Z</time>
      </trkpt>
      <trkpt lat="48.3156079" lon="14.3319445">
        <ele>252.683</ele>
        <time>2019-05-02T08:24:29.861Z</time>
      </trkpt>
      <trkpt lat="48.3154883" lon="14.3320180">
        <ele>252.683</ele>
        <time>2019-05-02T08:24:33.059Z</time>
      </trkpt>
      <trkpt lat="48.3153999" lon="14.3320717">
        <ele>252.684</ele>
        <time>2019-05-02T08:24:35.209Z</time>
      </trkpt>
      <trkpt lat="48.3152858" lon="14.3321116">
        <ele>252.684</ele>
        <time>2019-05-02T08:24:37.620Z</time>
      </trkpt>
      <trkpt lat="48.3151890" lon="14.3321780">
        <ele>252.685</ele>
        <time>2019-05-02T08:24:39.703Z</time>
      </trkpt>
      <trkpt lat="48.3150977" lon="14.3322409">
        <ele>252.684</ele>
        <time>2019-05-02T08:24:41.694Z</time>
      </trkpt>
      <trkpt lat="48.3149956" lon="14.3322800">
        <ele>252.684</ele>
        <time>2019-05-02T08:24:43.893Z</time>
      </trkpt>
      <trkpt lat="48.3149091" lon="14.3323396">
        <ele>252.684</ele>
        <time>2019-05-02T08:24:45.964Z</time>
      </trkpt>
      <trkpt lat="48.3148226" lon="14.3324081">
        <ele>252.684</ele>
        <time>2019-05-02T08:24:48.129Z</time>
      </trkpt>
      <trkpt lat="48.3147468" lon="14.3324921">
        <ele>252.684</ele>
        <time>2019-05-02T08:24:50.281Z</time>
      </trkpt>
      <trkpt lat="48.3146545" lon="14.3325575">
        <ele>252.684</ele>
        <time>2019-05-02T08:24:52.653Z</time>
      </trkpt>
      <trkpt lat="48.3145646" lon="14.3326522">
        <ele>252.684</ele>
        <time>2019-05-02T08:24:55.196Z</time>
      </trkpt>
      <trkpt lat="48.3144535" lon="14.3327616">
        <ele>252.684</ele>
        <time>2019-05-02T08:24:58.211Z</time>
      </trkpt>
      <trkpt lat="48.3143722" lon="14.3328276">
        <ele>252.684</ele>
        <time>2019-05-02T08:25:00.342Z</time>
      </trkpt>
      <trkpt lat="48.3142966" lon="14.3329218">
        <ele>252.684</ele>
        <time>2019-05-02T08:25:02.665Z</time>
      </trkpt>
      <trkpt lat="48.3141853" lon="14.3330197">
        <ele>252.684</ele>
        <time>2019-05-02T08:25:05.617Z</time>
      </trkpt>
      <trkpt lat="48.3140950" lon="14.3330866">
        <ele>252.684</ele>
        <time>2019-05-02T08:25:07.797Z</time>
      </trkpt>
      <trkpt lat="48.3139851" lon="14.3331594">
        <ele>252.684</ele>
        <time>2019-05-02T08:25:10.308Z</time>
      </trkpt>
      <trkpt lat="48.3138602" lon="14.3332359">
        <ele>252.666</ele>
        <time>2019-05-02T08:25:13.010Z</time>
      </trkpt>
      <trkpt lat="48.3137679" lon="14.3333285">
        <ele>252.618</ele>
        <time>2019-05-02T08:25:15.305Z</time>
      </trkpt>
      <trkpt lat="48.3136706" lon="14.3333805">
        <ele>252.574</ele>
        <time>2019-05-02T08:25:17.509Z</time>
      </trkpt>
      <trkpt lat="48.3135795" lon="14.3334033">
        <ele>252.565</ele>
        <time>2019-05-02T08:25:19.472Z</time>
      </trkpt>
      <trkpt lat="48.3134542" lon="14.3334410">
        <ele>252.553</ele>
        <time>2019-05-02T08:25:22.099Z</time>
      </trkpt>
      <trkpt lat="48.3133554" lon="14.3334760">
        <ele>252.460</ele>
        <time>2019-05-02T08:25:24.147Z</time>
      </trkpt>
      <trkpt lat="48.3132567" lon="14.3335249">
        <ele>252.268</ele>
        <time>2019-05-02T08:25:26.184Z</time>
      </trkpt>
      <trkpt lat="48.3131565" lon="14.3335737">
        <ele>252.031</ele>
        <time>2019-05-02T08:25:28.256Z</time>
      </trkpt>
      <trkpt lat="48.3130517" lon="14.3336254">
        <ele>251.828</ele>
        <time>2019-05-02T08:25:30.489Z</time>
      </trkpt>
      <trkpt lat="48.3129403" lon="14.3336885">
        <ele>251.753</ele>
        <time>2019-05-02T08:25:33.026Z</time>
      </trkpt>
      <trkpt lat="48.3128106" lon="14.3337543">
        <ele>251.869</ele>
        <time>2019-05-02T08:25:35.944Z</time>
      </trkpt>
      <trkpt lat="48.3126833" lon="14.3338193">
        <ele>252.104</ele>
        <time>2019-05-02T08:25:38.738Z</time>
      </trkpt>
      <trkpt lat="48.3125835" lon="14.3338785">
        <ele>252.349</ele>
        <time>2019-05-02T08:25:40.878Z</time>
      </trkpt>
      <trkpt lat="48.3124548" lon="14.3339519">
        <ele>252.615</ele>
        <time>2019-05-02T08:25:43.802Z</time>
      </trkpt>
      <trkpt lat="48.3123579" lon="14.3340027">
        <ele>252.996</ele>
        <time>2019-05-02T08:25:46.141Z</time>
      </trkpt>
      <trkpt lat="48.3122288" lon="14.3340481">
        <ele>253.492</ele>
        <time>2019-05-02T08:25:49.165Z</time>
      </trkpt>
      <trkpt lat="48.3121421" lon="14.3340902">
        <ele>253.973</ele>
        <time>2019-05-02T08:25:51.068Z</time>
      </trkpt>
      <trkpt lat="48.3120496" lon="14.3341488">
        <ele>254.306</ele>
        <time>2019-05-02T08:25:53.059Z</time>
      </trkpt>
      <trkpt lat="48.3119517" lon="14.3342132">
        <ele>254.441</ele>
        <time>2019-05-02T08:25:55.146Z</time>
      </trkpt>
      <trkpt lat="48.3118624" lon="14.3342421">
        <ele>254.334</ele>
        <time>2019-05-02T08:25:56.899Z</time>
      </trkpt>
      <trkpt lat="48.3117690" lon="14.3342478">
        <ele>253.922</ele>
        <time>2019-05-02T08:25:58.647Z</time>
      </trkpt>
      <trkpt lat="48.3116555" lon="14.3342784">
        <ele>253.300</ele>
        <time>2019-05-02T08:26:00.670Z</time>
      </trkpt>
      <trkpt lat="48.3115550" lon="14.3343540">
        <ele>252.754</ele>
        <time>2019-05-02T08:26:02.549Z</time>
      </trkpt>
      <trkpt lat="48.3114457" lon="14.3344165">
        <ele>252.504</ele>
        <time>2019-05-02T08:26:04.550Z</time>
      </trkpt>
      <trkpt lat="48.3113296" lon="14.3344515">
        <ele>252.534</ele>
        <time>2019-05-02T08:26:06.802Z</time>
      </trkpt>
      <trkpt lat="48.3112408" lon="14.3344897">
        <ele>252.687</ele>
        <time>2019-05-02T08:26:08.721Z</time>
      </trkpt>
      <trkpt lat="48.3111563" lon="14.3345560">
        <ele>252.842</ele>
        <time>2019-05-02T08:26:10.605Z</time>
      </trkpt>
      <trkpt lat="48.3110656" lon="14.3346118">
        <ele>253.006</ele>
        <time>2019-05-02T08:26:12.421Z</time>
      </trkpt>
      <trkpt lat="48.3109702" lon="14.3346468">
        <ele>253.191</ele>
        <time>2019-05-02T08:26:14.241Z</time>
      </trkpt>
      <trkpt lat="48.3108761" lon="14.3346584">
        <ele>253.333</ele>
        <time>2019-05-02T08:26:16.046Z</time>
      </trkpt>
      <trkpt lat="48.3107674" lon="14.3347102">
        <ele>253.358</ele>
        <time>2019-05-02T08:26:18.274Z</time>
      </trkpt>
      <trkpt lat="48.3106583" lon="14.3347372">
        <ele>253.235</ele>
        <time>2019-05-02T08:26:20.409Z</time>
      </trkpt>
      <trkpt lat="48.3105540" lon="14.3347709">
        <ele>253.023</ele>
        <time>2019-05-02T08:26:22.445Z</time>
      </trkpt>
      <trkpt lat="48.3104417" lon="14.3348262">
        <ele>252.817</ele>
        <time>2019-05-02T08:26:24.720Z</time>
      </trkpt>
      <trkpt lat="48.3103435" lon="14.3348865">
        <ele>252.638</ele>
        <time>2019-05-02T08:26:26.751Z</time>
      </trkpt>
      <trkpt lat="48.3102435" lon="14.3349364">
        <ele>252.484</ele>
        <time>2019-05-02T08:26:28.701Z</time>
      </trkpt>
      <trkpt lat="48.3101503" lon="14.3349696">
        <ele>252.394</ele>
        <time>2019-05-02T08:26:30.438Z</time>
      </trkpt>
      <trkpt lat="48.3100404" lon="14.3350222">
        <ele>252.393</ele>
        <time>2019-05-02T08:26:32.496Z</time>
      </trkpt>
      <trkpt lat="48.3099209" lon="14.3350744">
        <ele>252.452</ele>
        <time>2019-05-02T08:26:34.653Z</time>
      </trkpt>
      <trkpt lat="48.3098074" lon="14.3351266">
        <ele>252.500</ele>
        <time>2019-05-02T08:26:36.636Z</time>
      </trkpt>
      <trkpt lat="48.3096902" lon="14.3351856">
        <ele>252.491</ele>
        <time>2019-05-02T08:26:38.673Z</time>
      </trkpt>
      <trkpt lat="48.3095627" lon="14.3352418">
        <ele>252.446</ele>
        <time>2019-05-02T08:26:40.958Z</time>
      </trkpt>
      <trkpt lat="48.3094495" lon="14.3353217">
        <ele>252.504</ele>
        <time>2019-05-02T08:26:43.329Z</time>
      </trkpt>
      <trkpt lat="48.3093632" lon="14.3353791">
        <ele>252.859</ele>
        <time>2019-05-02T08:26:45.217Z</time>
      </trkpt>
      <trkpt lat="48.3092706" lon="14.3354326">
        <ele>253.423</ele>
        <time>2019-05-02T08:26:47.242Z</time>
      </trkpt>
      <trkpt lat="48.3091770" lon="14.3354692">
        <ele>253.861</ele>
        <time>2019-05-02T08:26:49.196Z</time>
      </trkpt>
      <trkpt lat="48.3090777" lon="14.3354762">
        <ele>254.029</ele>
        <time>2019-05-02T08:26:51.141Z</time>
      </trkpt>
      <trkpt lat="48.3089631" lon="14.3354907">
        <ele>254.033</ele>
        <time>2019-05-02T08:26:53.300Z</time>
      </trkpt>
      <trkpt lat="48.3088653" lon="14.3355254">
        <ele>253.999</ele>
        <time>2019-05-02T08:26:55.162Z</time>
      </trkpt>
      <trkpt lat="48.3087668" lon="14.3355751">
        <ele>253.981</ele>
        <time>2019-05-02T08:26:57.060Z</time>
      </trkpt>
      <trkpt lat="48.3086638" lon="14.3356410">
        <ele>253.983</ele>
        <time>2019-05-02T08:26:59.054Z</time>
      </trkpt>
      <trkpt lat="48.3085673" lon="14.3357486">
        <ele>254.008</ele>
        <time>2019-05-02T08:27:01.171Z</time>
      </trkpt>
      <trkpt lat="48.3084785" lon="14.3358698">
        <ele>254.077</ele>
        <time>2019-05-02T08:27:03.215Z</time>
      </trkpt>
      <trkpt lat="48.3083735" lon="14.3359731">
        <ele>254.291</ele>
        <time>2019-05-02T08:27:05.314Z</time>
      </trkpt>
      <trkpt lat="48.3082287" lon="14.3360585">
        <ele>254.735</ele>
        <time>2019-05-02T08:27:07.974Z</time>
      </trkpt>
      <trkpt lat="48.3081295" lon="14.3361363">
        <ele>255.295</ele>
        <time>2019-05-02T08:27:09.886Z</time>
      </trkpt>
      <trkpt lat="48.3080120" lon="14.3361933">
        <ele>255.789</ele>
        <time>2019-05-02T08:27:11.997Z</time>
      </trkpt>
      <trkpt lat="48.3075431" lon="14.3364594">
        <ele>256.202</ele>
        <time>2019-05-02T08:27:20.466Z</time>
      </trkpt>
      <trkpt lat="48.3074166" lon="14.3365077">
        <ele>255.926</ele>
        <time>2019-05-02T08:27:22.816Z</time>
      </trkpt>
      <trkpt lat="48.3072938" lon="14.3365476">
        <ele>255.544</ele>
        <time>2019-05-02T08:27:25.114Z</time>
      </trkpt>
      <trkpt lat="48.3071748" lon="14.3365560">
        <ele>255.349</ele>
        <time>2019-05-02T08:27:27.248Z</time>
      </trkpt>
      <trkpt lat="48.3070606" lon="14.3365860">
        <ele>255.417</ele>
        <time>2019-05-02T08:27:29.338Z</time>
      </trkpt>
      <trkpt lat="48.3069418" lon="14.3366146">
        <ele>255.629</ele>
        <time>2019-05-02T08:27:31.513Z</time>
      </trkpt>
      <trkpt lat="48.3068356" lon="14.3366294">
        <ele>255.822</ele>
        <time>2019-05-02T08:27:33.443Z</time>
      </trkpt>
      <trkpt lat="48.3067329" lon="14.3366496">
        <ele>255.944</ele>
        <time>2019-05-02T08:27:35.302Z</time>
      </trkpt>
      <trkpt lat="48.3066281" lon="14.3366637">
        <ele>256.037</ele>
        <time>2019-05-02T08:27:37.138Z</time>
      </trkpt>
      <trkpt lat="48.3065150" lon="14.3366834">
        <ele>256.155</ele>
        <time>2019-05-02T08:27:38.993Z</time>
      </trkpt>
      <trkpt lat="48.3064076" lon="14.3367017">
        <ele>256.293</ele>
        <time>2019-05-02T08:27:40.650Z</time>
      </trkpt>
      <trkpt lat="48.3062958" lon="14.3367302">
        <ele>256.356</ele>
        <time>2019-05-02T08:27:42.386Z</time>
      </trkpt>
      <trkpt lat="48.3061661" lon="14.3367544">
        <ele>256.284</ele>
        <time>2019-05-02T08:27:44.406Z</time>
      </trkpt>
      <trkpt lat="48.3060486" lon="14.3367737">
        <ele>256.153</ele>
        <time>2019-05-02T08:27:46.275Z</time>
      </trkpt>
      <trkpt lat="48.3059285" lon="14.3368029">
        <ele>256.063</ele>
        <time>2019-05-02T08:27:48.227Z</time>
      </trkpt>
      <trkpt lat="48.3058018" lon="14.3368263">
        <ele>255.983</ele>
        <time>2019-05-02T08:27:50.283Z</time>
      </trkpt>
      <trkpt lat="48.3056884" lon="14.3368717">
        <ele>255.756</ele>
        <time>2019-05-02T08:27:52.216Z</time>
      </trkpt>
      <trkpt lat="48.3055614" lon="14.3369447">
        <ele>255.312</ele>
        <time>2019-05-02T08:27:54.494Z</time>
      </trkpt>
      <trkpt lat="48.3054535" lon="14.3369894">
        <ele>254.826</ele>
        <time>2019-05-02T08:27:56.332Z</time>
      </trkpt>
      <trkpt lat="48.3053646" lon="14.3370343">
        <ele>254.524</ele>
        <time>2019-05-02T08:27:57.839Z</time>
      </trkpt>
      <trkpt lat="48.3052579" lon="14.3370884">
        <ele>254.398</ele>
        <time>2019-05-02T08:27:59.627Z</time>
      </trkpt>
      <trkpt lat="48.3051280" lon="14.3371497">
        <ele>254.280</ele>
        <time>2019-05-02T08:28:01.776Z</time>
      </trkpt>
      <trkpt lat="48.3050084" lon="14.3372329">
        <ele>254.114</ele>
        <time>2019-05-02T08:28:03.808Z</time>
      </trkpt>
      <trkpt lat="48.3049203" lon="14.3373191">
        <ele>253.992</ele>
        <time>2019-05-02T08:28:05.380Z</time>
      </trkpt>
      <trkpt lat="48.3048084" lon="14.3374121">
        <ele>254.073</ele>
        <time>2019-05-02T08:28:07.254Z</time>
      </trkpt>
      <trkpt lat="48.3046771" lon="14.3374917">
        <ele>254.495</ele>
        <time>2019-05-02T08:28:09.269Z</time>
      </trkpt>
      <trkpt lat="48.3045557" lon="14.3375684">
        <ele>255.205</ele>
        <time>2019-05-02T08:28:11.136Z</time>
      </trkpt>
      <trkpt lat="48.3044272" lon="14.3376657">
        <ele>255.968</ele>
        <time>2019-05-02T08:28:13.273Z</time>
      </trkpt>
      <trkpt lat="48.3043100" lon="14.3377691">
        <ele>256.647</ele>
        <time>2019-05-02T08:28:15.291Z</time>
      </trkpt>
      <trkpt lat="48.3043100" lon="14.3377691">
        <ele>256.647</ele>
        <time>2019-05-02T08:28:15.291Z</time>
      </trkpt>
      <trkpt lat="48.3016698" lon="14.3394932">
        <ele>251.543</ele>
        <time>2019-05-02T08:28:58.064Z</time>
      </trkpt>
      <trkpt lat="48.3015420" lon="14.3395726">
        <ele>251.427</ele>
        <time>2019-05-02T08:29:00.233Z</time>
      </trkpt>
      <trkpt lat="48.3014095" lon="14.3396352">
        <ele>251.384</ele>
        <time>2019-05-02T08:29:02.422Z</time>
      </trkpt>
      <trkpt lat="48.3012790" lon="14.3396944">
        <ele>251.398</ele>
        <time>2019-05-02T08:29:04.570Z</time>
      </trkpt>
      <trkpt lat="48.3011581" lon="14.3397554">
        <ele>251.468</ele>
        <time>2019-05-02T08:29:06.586Z</time>
      </trkpt>
      <trkpt lat="48.3010473" lon="14.3398170">
        <ele>251.568</ele>
        <time>2019-05-02T08:29:08.473Z</time>
      </trkpt>
      <trkpt lat="48.3009239" lon="14.3398841">
        <ele>251.607</ele>
        <time>2019-05-02T08:29:10.602Z</time>
      </trkpt>
      <trkpt lat="48.3007956" lon="14.3399506">
        <ele>251.540</ele>
        <time>2019-05-02T08:29:12.823Z</time>
      </trkpt>
      <trkpt lat="48.3006960" lon="14.3399990">
        <ele>251.489</ele>
        <time>2019-05-02T08:29:14.590Z</time>
      </trkpt>
      <trkpt lat="48.3005840" lon="14.3400659">
        <ele>251.559</ele>
        <time>2019-05-02T08:29:16.665Z</time>
      </trkpt>
      <trkpt lat="48.3004552" lon="14.3401282">
        <ele>251.662</ele>
        <time>2019-05-02T08:29:18.932Z</time>
      </trkpt>
      <trkpt lat="48.3003362" lon="14.3401909">
        <ele>251.689</ele>
        <time>2019-05-02T08:29:21.008Z</time>
      </trkpt>
      <trkpt lat="48.3002260" lon="14.3402625">
        <ele>251.649</ele>
        <time>2019-05-02T08:29:22.960Z</time>
      </trkpt>
      <trkpt lat="48.3001086" lon="14.3403296">
        <ele>251.650</ele>
        <time>2019-05-02T08:29:25.007Z</time>
      </trkpt>
      <trkpt lat="48.2999948" lon="14.3404026">
        <ele>251.754</ele>
        <time>2019-05-02T08:29:27.068Z</time>
      </trkpt>
      <trkpt lat="48.2998686" lon="14.3404704">
        <ele>251.854</ele>
        <time>2019-05-02T08:29:29.285Z</time>
      </trkpt>
      <trkpt lat="48.2997494" lon="14.3405557">
        <ele>251.850</ele>
        <time>2019-05-02T08:29:31.429Z</time>
      </trkpt>
      <trkpt lat="48.2996365" lon="14.3406053">
        <ele>251.829</ele>
        <time>2019-05-02T08:29:33.351Z</time>
      </trkpt>
      <trkpt lat="48.2995007" lon="14.3406745">
        <ele>251.901</ele>
        <time>2019-05-02T08:29:35.697Z</time>
      </trkpt>
      <trkpt lat="48.2993927" lon="14.3407308">
        <ele>252.031</ele>
        <time>2019-05-02T08:29:37.601Z</time>
      </trkpt>
      <trkpt lat="48.2992959" lon="14.3407822">
        <ele>252.102</ele>
        <time>2019-05-02T08:29:39.339Z</time>
      </trkpt>
      <trkpt lat="48.2991926" lon="14.3408206">
        <ele>252.073</ele>
        <time>2019-05-02T08:29:41.166Z</time>
      </trkpt>
      <trkpt lat="48.2990837" lon="14.3408643">
        <ele>252.041</ele>
        <time>2019-05-02T08:29:43.150Z</time>
      </trkpt>
      <trkpt lat="48.2989811" lon="14.3409076">
        <ele>252.085</ele>
        <time>2019-05-02T08:29:45.015Z</time>
      </trkpt>
      <trkpt lat="48.2988632" lon="14.3409645">
        <ele>252.153</ele>
        <time>2019-05-02T08:29:47.112Z</time>
      </trkpt>
      <trkpt lat="48.2987443" lon="14.3410076">
        <ele>252.131</ele>
        <time>2019-05-02T08:29:49.119Z</time>
      </trkpt>
      <trkpt lat="48.2986201" lon="14.3410655">
        <ele>252.000</ele>
        <time>2019-05-02T08:29:51.213Z</time>
      </trkpt>
      <trkpt lat="48.2984944" lon="14.3411231">
        <ele>251.871</ele>
        <time>2019-05-02T08:29:53.412Z</time>
      </trkpt>
      <trkpt lat="48.2984000" lon="14.3411249">
        <ele>251.829</ele>
        <time>2019-05-02T08:29:55.130Z</time>
      </trkpt>
      <trkpt lat="48.2982851" lon="14.3411203">
        <ele>251.874</ele>
        <time>2019-05-02T08:29:57.302Z</time>
      </trkpt>
      <trkpt lat="48.2981884" lon="14.3411268">
        <ele>252.013</ele>
        <time>2019-05-02T08:29:59.189Z</time>
      </trkpt>
      <trkpt lat="48.2980912" lon="14.3411363">
        <ele>252.198</ele>
        <time>2019-05-02T08:30:01.107Z</time>
      </trkpt>
      <trkpt lat="48.2979978" lon="14.3411603">
        <ele>252.220</ele>
        <time>2019-05-02T08:30:03.002Z</time>
      </trkpt>
      <trkpt lat="48.2978992" lon="14.3411980">
        <ele>251.819</ele>
        <time>2019-05-02T08:30:05.059Z</time>
      </trkpt>
      <trkpt lat="48.2978000" lon="14.3412166">
        <ele>251.095</ele>
        <time>2019-05-02T08:30:07.093Z</time>
      </trkpt>
      <trkpt lat="48.2976867" lon="14.3412669">
        <ele>250.485</ele>
        <time>2019-05-02T08:30:09.447Z</time>
      </trkpt>
      <trkpt lat="48.2975676" lon="14.3413009">
        <ele>250.216</ele>
        <time>2019-05-02T08:30:11.791Z</time>
      </trkpt>
      <trkpt lat="48.2974635" lon="14.3413526">
        <ele>250.181</ele>
        <time>2019-05-02T08:30:13.917Z</time>
      </trkpt>
      <trkpt lat="48.2973204" lon="14.3414288">
        <ele>250.225</ele>
        <time>2019-05-02T08:30:16.861Z</time>
      </trkpt>
      <trkpt lat="48.2972074" lon="14.3414799">
        <ele>250.269</ele>
        <time>2019-05-02T08:30:19.016Z</time>
      </trkpt>
      <trkpt lat="48.2970814" lon="14.3415073">
        <ele>250.302</ele>
        <time>2019-05-02T08:30:21.210Z</time>
      </trkpt>
      <trkpt lat="48.2969707" lon="14.3415215">
        <ele>250.371</ele>
        <time>2019-05-02T08:30:23.120Z</time>
      </trkpt>
      <trkpt lat="48.2968792" lon="14.3415276">
        <ele>250.542</ele>
        <time>2019-05-02T08:30:24.749Z</time>
      </trkpt>
      <trkpt lat="48.2967728" lon="14.3415365">
        <ele>250.840</ele>
        <time>2019-05-02T08:30:26.709Z</time>
      </trkpt>
      <trkpt lat="48.2966650" lon="14.3415434">
        <ele>251.188</ele>
        <time>2019-05-02T08:30:28.691Z</time>
      </trkpt>
      <trkpt lat="48.2965481" lon="14.3415485">
        <ele>251.446</ele>
        <time>2019-05-02T08:30:30.806Z</time>
      </trkpt>
      <trkpt lat="48.2964391" lon="14.3415705">
        <ele>251.549</ele>
        <time>2019-05-02T08:30:32.770Z</time>
      </trkpt>
      <trkpt lat="48.2963242" lon="14.3415872">
        <ele>251.541</ele>
        <time>2019-05-02T08:30:34.784Z</time>
      </trkpt>
      <trkpt lat="48.2961902" lon="14.3416264">
        <ele>251.498</ele>
        <time>2019-05-02T08:30:37.017Z</time>
      </trkpt>
      <trkpt lat="48.2960530" lon="14.3416767">
        <ele>251.456</ele>
        <time>2019-05-02T08:30:39.157Z</time>
      </trkpt>
      <trkpt lat="48.2959189" lon="14.3416991">
        <ele>251.344</ele>
        <time>2019-05-02T08:30:41.130Z</time>
      </trkpt>
      <trkpt lat="48.2957870" lon="14.3417349">
        <ele>251.082</ele>
        <time>2019-05-02T08:30:43.073Z</time>
      </trkpt>
      <trkpt lat="48.2956613" lon="14.3417767">
        <ele>250.753</ele>
        <time>2019-05-02T08:30:44.949Z</time>
      </trkpt>
      <trkpt lat="48.2955261" lon="14.3418119">
        <ele>250.529</ele>
        <time>2019-05-02T08:30:46.959Z</time>
      </trkpt>
      <trkpt lat="48.2953658" lon="14.3418739">
        <ele>250.472</ele>
        <time>2019-05-02T08:30:49.343Z</time>
      </trkpt>
      <trkpt lat="48.2952270" lon="14.3419224">
        <ele>250.546</ele>
        <time>2019-05-02T08:30:51.336Z</time>
      </trkpt>
      <trkpt lat="48.2950931" lon="14.3419646">
        <ele>250.694</ele>
        <time>2019-05-02T08:30:53.233Z</time>
      </trkpt>
      <trkpt lat="48.2949549" lon="14.3420087">
        <ele>250.847</ele>
        <time>2019-05-02T08:30:55.183Z</time>
      </trkpt>
      <trkpt lat="48.2948124" lon="14.3420841">
        <ele>250.895</ele>
        <time>2019-05-02T08:30:57.236Z</time>
      </trkpt>
      <trkpt lat="48.2946777" lon="14.3421576">
        <ele>250.754</ele>
        <time>2019-05-02T08:30:59.151Z</time>
      </trkpt>
      <trkpt lat="48.2945457" lon="14.3422185">
        <ele>250.502</ele>
        <time>2019-05-02T08:31:00.989Z</time>
      </trkpt>
      <trkpt lat="48.2944111" lon="14.3422754">
        <ele>250.295</ele>
        <time>2019-05-02T08:31:02.853Z</time>
      </trkpt>
      <trkpt lat="48.2942933" lon="14.3423400">
        <ele>250.196</ele>
        <time>2019-05-02T08:31:04.533Z</time>
      </trkpt>
      <trkpt lat="48.2941653" lon="14.3423849">
        <ele>250.165</ele>
        <time>2019-05-02T08:31:06.338Z</time>
      </trkpt>
      <trkpt lat="48.2940385" lon="14.3424358">
        <ele>250.155</ele>
        <time>2019-05-02T08:31:08.240Z</time>
      </trkpt>
      <trkpt lat="48.2939238" lon="14.3425113">
        <ele>250.165</ele>
        <time>2019-05-02T08:31:10.123Z</time>
      </trkpt>
      <trkpt lat="48.2938151" lon="14.3425820">
        <ele>250.209</ele>
        <time>2019-05-02T08:31:11.955Z</time>
      </trkpt>
      <trkpt lat="48.2937091" lon="14.3426508">
        <ele>250.234</ele>
        <time>2019-05-02T08:31:13.777Z</time>
      </trkpt>
      <trkpt lat="48.2935977" lon="14.3426909">
        <ele>250.198</ele>
        <time>2019-05-02T08:31:15.595Z</time>
      </trkpt>
      <trkpt lat="48.2934814" lon="14.3427452">
        <ele>250.150</ele>
        <time>2019-05-02T08:31:17.499Z</time>
      </trkpt>
      <trkpt lat="48.2933681" lon="14.3427705">
        <ele>250.152</ele>
        <time>2019-05-02T08:31:19.277Z</time>
      </trkpt>
      <trkpt lat="48.2932587" lon="14.3428148">
        <ele>250.204</ele>
        <time>2019-05-02T08:31:21.056Z</time>
      </trkpt>
      <trkpt lat="48.2931390" lon="14.3428719">
        <ele>250.257</ele>
        <time>2019-05-02T08:31:23.043Z</time>
      </trkpt>
      <trkpt lat="48.2930224" lon="14.3429530">
        <ele>250.282</ele>
        <time>2019-05-02T08:31:25.049Z</time>
      </trkpt>
      <trkpt lat="48.2929175" lon="14.3430096">
        <ele>250.286</ele>
        <time>2019-05-02T08:31:26.751Z</time>
      </trkpt>
      <trkpt lat="48.2927889" lon="14.3431074">
        <ele>250.282</ele>
        <time>2019-05-02T08:31:28.882Z</time>
      </trkpt>
      <trkpt lat="48.2926571" lon="14.3431873">
        <ele>250.277</ele>
        <time>2019-05-02T08:31:30.896Z</time>
      </trkpt>
      <trkpt lat="48.2925272" lon="14.3432741">
        <ele>250.278</ele>
        <time>2019-05-02T08:31:32.888Z</time>
      </trkpt>
      <trkpt lat="48.2923903" lon="14.3433501">
        <ele>250.311</ele>
        <time>2019-05-02T08:31:34.958Z</time>
      </trkpt>
      <trkpt lat="48.2922610" lon="14.3434328">
        <ele>250.419</ele>
        <time>2019-05-02T08:31:36.964Z</time>
      </trkpt>
      <trkpt lat="48.2921373" lon="14.3435220">
        <ele>250.576</ele>
        <time>2019-05-02T08:31:38.937Z</time>
      </trkpt>
      <trkpt lat="48.2920137" lon="14.3435878">
        <ele>250.660</ele>
        <time>2019-05-02T08:31:40.865Z</time>
      </trkpt>
      <trkpt lat="48.2918922" lon="14.3436443">
        <ele>250.599</ele>
        <time>2019-05-02T08:31:42.821Z</time>
      </trkpt>
      <trkpt lat="48.2917937" lon="14.3437040">
        <ele>250.457</ele>
        <time>2019-05-02T08:31:44.540Z</time>
      </trkpt>
      <trkpt lat="48.2916566" lon="14.3437621">
        <ele>250.326</ele>
        <time>2019-05-02T08:31:46.989Z</time>
      </trkpt>
      <trkpt lat="48.2915351" lon="14.3437804">
        <ele>250.238</ele>
        <time>2019-05-02T08:31:49.082Z</time>
      </trkpt>
      <trkpt lat="48.2914117" lon="14.3438205">
        <ele>250.210</ele>
        <time>2019-05-02T08:31:51.112Z</time>
      </trkpt>
      <trkpt lat="48.2912977" lon="14.3438702">
        <ele>250.265</ele>
        <time>2019-05-02T08:31:52.989Z</time>
      </trkpt>
      <trkpt lat="48.2912083" lon="14.3439106">
        <ele>250.423</ele>
        <time>2019-05-02T08:31:54.511Z</time>
      </trkpt>
      <trkpt lat="48.2911093" lon="14.3439304">
        <ele>250.630</ele>
        <time>2019-05-02T08:31:56.233Z</time>
      </trkpt>
      <trkpt lat="48.2909964" lon="14.3439844">
        <ele>250.754</ele>
        <time>2019-05-02T08:31:58.384Z</time>
      </trkpt>
      <trkpt lat="48.2908795" lon="14.3440488">
        <ele>250.715</ele>
        <time>2019-05-02T08:32:00.581Z</time>
      </trkpt>
      <trkpt lat="48.2907588" lon="14.3441088">
        <ele>250.560</ele>
        <time>2019-05-02T08:32:02.646Z</time>
      </trkpt>
      <trkpt lat="48.2906283" lon="14.3441469">
        <ele>250.400</ele>
        <time>2019-05-02T08:32:04.687Z</time>
      </trkpt>
      <trkpt lat="48.2904994" lon="14.3441936">
        <ele>250.303</ele>
        <time>2019-05-02T08:32:06.656Z</time>
      </trkpt>
      <trkpt lat="48.2903126" lon="14.3442685">
        <ele>250.266</ele>
        <time>2019-05-02T08:32:09.475Z</time>
      </trkpt>
      <trkpt lat="48.2900970" lon="14.3443629">
        <ele>250.259</ele>
        <time>2019-05-02T08:32:12.716Z</time>
      </trkpt>
      <trkpt lat="48.2899003" lon="14.3444641">
        <ele>250.256</ele>
        <time>2019-05-02T08:32:15.722Z</time>
      </trkpt>
      <trkpt lat="48.2896886" lon="14.3445302">
        <ele>250.252</ele>
        <time>2019-05-02T08:32:18.889Z</time>
      </trkpt>
      <trkpt lat="48.2894924" lon="14.3445831">
        <ele>250.252</ele>
        <time>2019-05-02T08:32:21.885Z</time>
      </trkpt>
      <trkpt lat="48.2893443" lon="14.3446630">
        <ele>250.275</ele>
        <time>2019-05-02T08:32:24.463Z</time>
      </trkpt>
      <trkpt lat="48.2891889" lon="14.3447623">
        <ele>250.374</ele>
        <time>2019-05-02T08:32:27.533Z</time>
      </trkpt>
      <trkpt lat="48.2890328" lon="14.3447885">
        <ele>250.563</ele>
        <time>2019-05-02T08:32:30.476Z</time>
      </trkpt>
      <trkpt lat="48.2889443" lon="14.3448184">
        <ele>250.752</ele>
        <time>2019-05-02T08:32:32.155Z</time>
      </trkpt>
      <trkpt lat="48.2888426" lon="14.3448527">
        <ele>250.824</ele>
        <time>2019-05-02T08:32:34.104Z</time>
      </trkpt>
      <trkpt lat="48.2887429" lon="14.3448747">
        <ele>250.743</ele>
        <time>2019-05-02T08:32:35.974Z</time>
      </trkpt>
      <trkpt lat="48.2886488" lon="14.3448926">
        <ele>250.584</ele>
        <time>2019-05-02T08:32:37.745Z</time>
      </trkpt>
      <trkpt lat="48.2885363" lon="14.3449416">
        <ele>250.475</ele>
        <time>2019-05-02T08:32:40.123Z</time>
      </trkpt>
      <trkpt lat="48.2884324" lon="14.3449845">
        <ele>250.510</ele>
        <time>2019-05-02T08:32:42.503Z</time>
      </trkpt>
      <trkpt lat="48.2882907" lon="14.3450243">
        <ele>250.681</ele>
        <time>2019-05-02T08:32:45.619Z</time>
      </trkpt>
      <trkpt lat="48.2881628" lon="14.3450667">
        <ele>250.892</ele>
        <time>2019-05-02T08:32:48.399Z</time>
      </trkpt>
      <trkpt lat="48.2880399" lon="14.3450925">
        <ele>251.038</ele>
        <time>2019-05-02T08:32:50.871Z</time>
      </trkpt>
      <trkpt lat="48.2879098" lon="14.3451235">
        <ele>251.064</ele>
        <time>2019-05-02T08:32:53.183Z</time>
      </trkpt>
      <trkpt lat="48.2878004" lon="14.3451603">
        <ele>250.969</ele>
        <time>2019-05-02T08:32:55.172Z</time>
      </trkpt>
      <trkpt lat="48.2876879" lon="14.3452048">
        <ele>250.831</ele>
        <time>2019-05-02T08:32:57.352Z</time>
      </trkpt>
      <trkpt lat="48.2875780" lon="14.3452433">
        <ele>250.521</ele>
        <time>2019-05-02T08:32:59.468Z</time>
      </trkpt>
      <trkpt lat="48.2874814" lon="14.3452904">
        <ele>249.766</ele>
        <time>2019-05-02T08:33:01.329Z</time>
      </trkpt>
      <trkpt lat="48.2873692" lon="14.3453416">
        <ele>248.601</ele>
        <time>2019-05-02T08:33:03.489Z</time>
      </trkpt>
      <trkpt lat="48.2872728" lon="14.3453786">
        <ele>247.242</ele>
        <time>2019-05-02T08:33:05.330Z</time>
      </trkpt>
      <trkpt lat="48.2871463" lon="14.3454314">
        <ele>245.195</ele>
        <time>2019-05-02T08:33:07.624Z</time>
      </trkpt>
      <trkpt lat="48.2870177" lon="14.3455016">
        <ele>242.369</ele>
        <time>2019-05-02T08:33:09.839Z</time>
      </trkpt>
      <trkpt lat="48.2869068" lon="14.3455625">
        <ele>239.995</ele>
        <time>2019-05-02T08:33:11.706Z</time>
      </trkpt>
      <trkpt lat="48.2867929" lon="14.3456136">
        <ele>238.943</ele>
        <time>2019-05-02T08:33:13.583Z</time>
      </trkpt>
      <trkpt lat="48.2866522" lon="14.3456442">
        <ele>238.798</ele>
        <time>2019-05-02T08:33:15.789Z</time>
      </trkpt>
      <trkpt lat="48.2865240" lon="14.3456764">
        <ele>240.527</ele>
        <time>2019-05-02T08:33:17.741Z</time>
      </trkpt>
      <trkpt lat="48.2864098" lon="14.3457260">
        <ele>244.718</ele>
        <time>2019-05-02T08:33:19.513Z</time>
      </trkpt>
      <trkpt lat="48.2862997" lon="14.3457858">
        <ele>248.909</ele>
        <time>2019-05-02T08:33:21.285Z</time>
      </trkpt>
      <trkpt lat="48.2861949" lon="14.3458323">
        <ele>250.852</ele>
        <time>2019-05-02T08:33:22.975Z</time>
      </trkpt>
      <trkpt lat="48.2860709" lon="14.3458818">
        <ele>251.106</ele>
        <time>2019-05-02T08:33:25.013Z</time>
      </trkpt>
      <trkpt lat="48.2859370" lon="14.3459558">
        <ele>250.739</ele>
        <time>2019-05-02T08:33:27.222Z</time>
      </trkpt>
      <trkpt lat="48.2858053" lon="14.3460234">
        <ele>250.388</ele>
        <time>2019-05-02T08:33:29.269Z</time>
      </trkpt>
      <trkpt lat="48.2856638" lon="14.3460977">
        <ele>250.228</ele>
        <time>2019-05-02T08:33:31.377Z</time>
      </trkpt>
      <trkpt lat="48.2855315" lon="14.3461695">
        <ele>250.208</ele>
        <time>2019-05-02T08:33:33.310Z</time>
      </trkpt>
      <trkpt lat="48.2854013" lon="14.3462434">
        <ele>250.238</ele>
        <time>2019-05-02T08:33:35.281Z</time>
      </trkpt>
      <trkpt lat="48.2852569" lon="14.3463007">
        <ele>250.272</ele>
        <time>2019-05-02T08:33:37.506Z</time>
      </trkpt>
      <trkpt lat="48.2851311" lon="14.3463559">
        <ele>250.327</ele>
        <time>2019-05-02T08:33:39.490Z</time>
      </trkpt>
      <trkpt lat="48.2850019" lon="14.3464235">
        <ele>250.434</ele>
        <time>2019-05-02T08:33:41.569Z</time>
      </trkpt>
      <trkpt lat="48.2848838" lon="14.3465132">
        <ele>250.558</ele>
        <time>2019-05-02T08:33:43.594Z</time>
      </trkpt>
      <trkpt lat="48.2847833" lon="14.3465946">
        <ele>250.637</ele>
        <time>2019-05-02T08:33:45.391Z</time>
      </trkpt>
      <trkpt lat="48.2846660" lon="14.3466785">
        <ele>250.671</ele>
        <time>2019-05-02T08:33:47.580Z</time>
      </trkpt>
      <trkpt lat="48.2845429" lon="14.3467626">
        <ele>250.725</ele>
        <time>2019-05-02T08:33:49.895Z</time>
      </trkpt>
      <trkpt lat="48.2844349" lon="14.3468409">
        <ele>250.827</ele>
        <time>2019-05-02T08:33:51.915Z</time>
      </trkpt>
      <trkpt lat="48.2843142" lon="14.3469170">
        <ele>250.915</ele>
        <time>2019-05-02T08:33:54.107Z</time>
      </trkpt>
      <trkpt lat="48.2841989" lon="14.3469989">
        <ele>250.939</ele>
        <time>2019-05-02T08:33:56.213Z</time>
      </trkpt>
      <trkpt lat="48.2840715" lon="14.3470896">
        <ele>250.912</ele>
        <time>2019-05-02T08:33:58.510Z</time>
      </trkpt>
      <trkpt lat="48.2839532" lon="14.3471901">
        <ele>250.867</ele>
        <time>2019-05-02T08:34:00.627Z</time>
      </trkpt>
      <trkpt lat="48.2838466" lon="14.3472826">
        <ele>250.865</ele>
        <time>2019-05-02T08:34:02.524Z</time>
      </trkpt>
      <trkpt lat="48.2837400" lon="14.3473641">
        <ele>250.952</ele>
        <time>2019-05-02T08:34:04.413Z</time>
      </trkpt>
      <trkpt lat="48.2836226" lon="14.3474407">
        <ele>251.078</ele>
        <time>2019-05-02T08:34:06.547Z</time>
      </trkpt>
      <trkpt lat="48.2835165" lon="14.3475243">
        <ele>251.150</ele>
        <time>2019-05-02T08:34:08.679Z</time>
      </trkpt>
      <trkpt lat="48.2833986" lon="14.3476163">
        <ele>251.146</ele>
        <time>2019-05-02T08:34:10.977Z</time>
      </trkpt>
      <trkpt lat="48.2832836" lon="14.3477206">
        <ele>251.098</ele>
        <time>2019-05-02T08:34:13.166Z</time>
      </trkpt>
      <trkpt lat="48.2832032" lon="14.3478092">
        <ele>251.029</ele>
        <time>2019-05-02T08:34:14.829Z</time>
      </trkpt>
      <trkpt lat="48.2831060" lon="14.3478859">
        <ele>250.962</ele>
        <time>2019-05-02T08:34:16.733Z</time>
      </trkpt>
      <trkpt lat="48.2829949" lon="14.3479799">
        <ele>250.914</ele>
        <time>2019-05-02T08:34:18.921Z</time>
      </trkpt>
      <trkpt lat="48.2828762" lon="14.3480758">
        <ele>250.880</ele>
        <time>2019-05-02T08:34:21.131Z</time>
      </trkpt>
      <trkpt lat="48.2827726" lon="14.3481951">
        <ele>250.852</ele>
        <time>2019-05-02T08:34:23.212Z</time>
      </trkpt>
      <trkpt lat="48.2826770" lon="14.3482979">
        <ele>250.826</ele>
        <time>2019-05-02T08:34:25.067Z</time>
      </trkpt>
      <trkpt lat="48.2825688" lon="14.3483908">
        <ele>250.803</ele>
        <time>2019-05-02T08:34:27.025Z</time>
      </trkpt>
      <trkpt lat="48.2824636" lon="14.3484869">
        <ele>250.787</ele>
        <time>2019-05-02T08:34:28.912Z</time>
      </trkpt>
      <trkpt lat="48.2823592" lon="14.3486009">
        <ele>250.778</ele>
        <time>2019-05-02T08:34:30.878Z</time>
      </trkpt>
      <trkpt lat="48.2822516" lon="14.3487178">
        <ele>250.767</ele>
        <time>2019-05-02T08:34:32.908Z</time>
      </trkpt>
      <trkpt lat="48.2821397" lon="14.3488339">
        <ele>250.755</ele>
        <time>2019-05-02T08:34:34.955Z</time>
      </trkpt>
      <trkpt lat="48.2820362" lon="14.3489605">
        <ele>250.752</ele>
        <time>2019-05-02T08:34:36.947Z</time>
      </trkpt>
      <trkpt lat="48.2819376" lon="14.3490898">
        <ele>250.765</ele>
        <time>2019-05-02T08:34:38.962Z</time>
      </trkpt>
      <trkpt lat="48.2818667" lon="14.3491880">
        <ele>250.821</ele>
        <time>2019-05-02T08:34:40.557Z</time>
      </trkpt>
      <trkpt lat="48.2817903" lon="14.3492814">
        <ele>250.987</ele>
        <time>2019-05-02T08:34:42.339Z</time>
      </trkpt>
      <trkpt lat="48.2816896" lon="14.3494157">
        <ele>251.269</ele>
        <time>2019-05-02T08:34:45.104Z</time>
      </trkpt>
      <trkpt lat="48.2816064" lon="14.3495168">
        <ele>251.649</ele>
        <time>2019-05-02T08:34:47.351Z</time>
      </trkpt>
      <trkpt lat="48.2815201" lon="14.3496127">
        <ele>252.191</ele>
        <time>2019-05-02T08:34:49.493Z</time>
      </trkpt>
      <trkpt lat="48.2814382" lon="14.3497070">
        <ele>252.818</ele>
        <time>2019-05-02T08:34:51.505Z</time>
      </trkpt>
      <trkpt lat="48.2813410" lon="14.3498254">
        <ele>253.266</ele>
        <time>2019-05-02T08:34:53.907Z</time>
      </trkpt>
      <trkpt lat="48.2812397" lon="14.3499382">
        <ele>253.451</ele>
        <time>2019-05-02T08:34:56.199Z</time>
      </trkpt>
      <trkpt lat="48.2811415" lon="14.3500420">
        <ele>253.502</ele>
        <time>2019-05-02T08:34:58.290Z</time>
      </trkpt>
      <trkpt lat="48.2810533" lon="14.3501325">
        <ele>253.484</ele>
        <time>2019-05-02T08:35:00.161Z</time>
      </trkpt>
      <trkpt lat="48.2809592" lon="14.3502164">
        <ele>253.398</ele>
        <time>2019-05-02T08:35:02.104Z</time>
      </trkpt>
      <trkpt lat="48.2808680" lon="14.3503131">
        <ele>253.258</ele>
        <time>2019-05-02T08:35:04.069Z</time>
      </trkpt>
      <trkpt lat="48.2807789" lon="14.3504087">
        <ele>253.058</ele>
        <time>2019-05-02T08:35:05.976Z</time>
      </trkpt>
      <trkpt lat="48.2807007" lon="14.3504871">
        <ele>252.812</ele>
        <time>2019-05-02T08:35:07.608Z</time>
      </trkpt>
      <trkpt lat="48.2806059" lon="14.3505872">
        <ele>252.589</ele>
        <time>2019-05-02T08:35:09.644Z</time>
      </trkpt>
      <trkpt lat="48.2805195" lon="14.3506899">
        <ele>252.467</ele>
        <time>2019-05-02T08:35:11.564Z</time>
      </trkpt>
      <trkpt lat="48.2804293" lon="14.3507950">
        <ele>252.506</ele>
        <time>2019-05-02T08:35:13.529Z</time>
      </trkpt>
      <trkpt lat="48.2803385" lon="14.3509191">
        <ele>252.704</ele>
        <time>2019-05-02T08:35:15.626Z</time>
      </trkpt>
      <trkpt lat="48.2802451" lon="14.3510347">
        <ele>252.994</ele>
        <time>2019-05-02T08:35:17.682Z</time>
      </trkpt>
      <trkpt lat="48.2801466" lon="14.3511452">
        <ele>253.301</ele>
        <time>2019-05-02T08:35:19.772Z</time>
      </trkpt>
      <trkpt lat="48.2800525" lon="14.3512659">
        <ele>253.543</ele>
        <time>2019-05-02T08:35:21.863Z</time>
      </trkpt>
      <trkpt lat="48.2799557" lon="14.3513908">
        <ele>253.551</ele>
        <time>2019-05-02T08:35:24.017Z</time>
      </trkpt>
      <trkpt lat="48.2795286" lon="14.3519488">
        <ele>252.936</ele>
        <time>2019-05-02T08:35:33.566Z</time>
      </trkpt>
      <trkpt lat="48.2791904" lon="14.3524705">
        <ele>252.649</ele>
        <time>2019-05-02T08:35:41.678Z</time>
      </trkpt>
      <trkpt lat="48.2788568" lon="14.3529801">
        <ele>252.421</ele>
        <time>2019-05-02T08:35:50.291Z</time>
      </trkpt>
      <trkpt lat="48.2785645" lon="14.3535126">
        <ele>252.242</ele>
        <time>2019-05-02T08:35:59.368Z</time>
      </trkpt>
      <trkpt lat="48.2782248" lon="14.3540728">
        <ele>252.132</ele>
        <time>2019-05-02T08:36:08.206Z</time>
      </trkpt>
      <trkpt lat="48.2779196" lon="14.3546803">
        <ele>252.136</ele>
        <time>2019-05-02T08:36:16.401Z</time>
      </trkpt>
      <trkpt lat="48.2778228" lon="14.3548156">
        <ele>252.213</ele>
        <time>2019-05-02T08:36:18.603Z</time>
      </trkpt>
      <trkpt lat="48.2777365" lon="14.3549588">
        <ele>252.270</ele>
        <time>2019-05-02T08:36:20.712Z</time>
      </trkpt>
      <trkpt lat="48.2776758" lon="14.3551055">
        <ele>252.311</ele>
        <time>2019-05-02T08:36:22.575Z</time>
      </trkpt>
      <trkpt lat="48.2776091" lon="14.3552424">
        <ele>252.362</ele>
        <time>2019-05-02T08:36:24.376Z</time>
      </trkpt>
      <trkpt lat="48.2775138" lon="14.3554208">
        <ele>252.401</ele>
        <time>2019-05-02T08:36:26.675Z</time>
      </trkpt>
      <trkpt lat="48.2774424" lon="14.3555625">
        <ele>252.292</ele>
        <time>2019-05-02T08:36:28.353Z</time>
      </trkpt>
      <trkpt lat="48.2773381" lon="14.3557438">
        <ele>251.990</ele>
        <time>2019-05-02T08:36:30.530Z</time>
      </trkpt>
      <trkpt lat="48.2772435" lon="14.3559041">
        <ele>251.695</ele>
        <time>2019-05-02T08:36:32.471Z</time>
      </trkpt>
      <trkpt lat="48.2771654" lon="14.3561068">
        <ele>251.594</ele>
        <time>2019-05-02T08:36:34.635Z</time>
      </trkpt>
      <trkpt lat="48.2770848" lon="14.3562829">
        <ele>251.712</ele>
        <time>2019-05-02T08:36:36.692Z</time>
      </trkpt>
      <trkpt lat="48.2770050" lon="14.3564466">
        <ele>251.972</ele>
        <time>2019-05-02T08:36:38.729Z</time>
      </trkpt>
      <trkpt lat="48.2769145" lon="14.3565945">
        <ele>252.205</ele>
        <time>2019-05-02T08:36:40.793Z</time>
      </trkpt>
      <trkpt lat="48.2768422" lon="14.3567407">
        <ele>252.312</ele>
        <time>2019-05-02T08:36:42.677Z</time>
      </trkpt>
      <trkpt lat="48.2767728" lon="14.3568982">
        <ele>252.329</ele>
        <time>2019-05-02T08:36:44.641Z</time>
      </trkpt>
      <trkpt lat="48.2766644" lon="14.3571196">
        <ele>252.293</ele>
        <time>2019-05-02T08:36:47.496Z</time>
      </trkpt>
      <trkpt lat="48.2765988" lon="14.3572775">
        <ele>252.229</ele>
        <time>2019-05-02T08:36:49.474Z</time>
      </trkpt>
      <trkpt lat="48.2765229" lon="14.3574531">
        <ele>252.174</ele>
        <time>2019-05-02T08:36:51.728Z</time>
      </trkpt>
      <trkpt lat="48.2764323" lon="14.3576232">
        <ele>252.154</ele>
        <time>2019-05-02T08:36:53.997Z</time>
      </trkpt>
      <trkpt lat="48.2763547" lon="14.3577888">
        <ele>252.055</ele>
        <time>2019-05-02T08:36:56.073Z</time>
      </trkpt>
      <trkpt lat="48.2763035" lon="14.3579235">
        <ele>251.798</ele>
        <time>2019-05-02T08:36:57.669Z</time>
      </trkpt>
      <trkpt lat="48.2762377" lon="14.3580876">
        <ele>251.531</ele>
        <time>2019-05-02T08:36:59.632Z</time>
      </trkpt>
      <trkpt lat="48.2761638" lon="14.3582597">
        <ele>251.391</ele>
        <time>2019-05-02T08:37:01.698Z</time>
      </trkpt>
      <trkpt lat="48.2760832" lon="14.3584329">
        <ele>251.340</ele>
        <time>2019-05-02T08:37:03.802Z</time>
      </trkpt>
      <trkpt lat="48.2760168" lon="14.3585879">
        <ele>251.362</ele>
        <time>2019-05-02T08:37:05.637Z</time>
      </trkpt>
      <trkpt lat="48.2759446" lon="14.3587541">
        <ele>251.461</ele>
        <time>2019-05-02T08:37:07.620Z</time>
      </trkpt>
      <trkpt lat="48.2758705" lon="14.3589037">
        <ele>251.579</ele>
        <time>2019-05-02T08:37:09.470Z</time>
      </trkpt>
      <trkpt lat="48.2757956" lon="14.3590874">
        <ele>251.648</ele>
        <time>2019-05-02T08:37:11.603Z</time>
      </trkpt>
      <trkpt lat="48.2755923" lon="14.3597874">
        <ele>251.688</ele>
        <time>2019-05-02T08:37:19.371Z</time>
      </trkpt>
      <trkpt lat="48.2754594" lon="14.3604587">
        <ele>251.748</ele>
        <time>2019-05-02T08:37:27.193Z</time>
      </trkpt>
      <trkpt lat="48.2753851" lon="14.3605943">
        <ele>251.814</ele>
        <time>2019-05-02T08:37:29.200Z</time>
      </trkpt>
      <trkpt lat="48.2753052" lon="14.3607357">
        <ele>251.810</ele>
        <time>2019-05-02T08:37:31.367Z</time>
      </trkpt>
      <trkpt lat="48.2752303" lon="14.3608377">
        <ele>251.721</ele>
        <time>2019-05-02T08:37:33.326Z</time>
      </trkpt>
      <trkpt lat="48.2751635" lon="14.3609553">
        <ele>251.640</ele>
        <time>2019-05-02T08:37:35.459Z</time>
      </trkpt>
      <trkpt lat="48.2751122" lon="14.3610820">
        <ele>251.643</ele>
        <time>2019-05-02T08:37:37.492Z</time>
      </trkpt>
      <trkpt lat="48.2750373" lon="14.3612676">
        <ele>251.633</ele>
        <time>2019-05-02T08:37:40.473Z</time>
      </trkpt>
      <trkpt lat="48.2749885" lon="14.3613981">
        <ele>251.520</ele>
        <time>2019-05-02T08:37:42.648Z</time>
      </trkpt>
      <trkpt lat="48.2749287" lon="14.3615326">
        <ele>251.381</ele>
        <time>2019-05-02T08:37:45.162Z</time>
      </trkpt>
      <trkpt lat="48.2748864" lon="14.3616898">
        <ele>251.361</ele>
        <time>2019-05-02T08:37:48.067Z</time>
      </trkpt>
      <trkpt lat="48.2748493" lon="14.3618151">
        <ele>251.482</ele>
        <time>2019-05-02T08:37:50.508Z</time>
      </trkpt>
      <trkpt lat="48.2748284" lon="14.3619954">
        <ele>251.629</ele>
        <time>2019-05-02T08:37:53.854Z</time>
      </trkpt>
      <trkpt lat="48.2747865" lon="14.3621393">
        <ele>251.702</ele>
        <time>2019-05-02T08:37:56.999Z</time>
      </trkpt>
      <trkpt lat="48.2747865" lon="14.3621393">
        <ele>251.713</ele>
        <time>2019-05-02T08:38:00.999Z</time>
      </trkpt>
      <trkpt lat="48.2747865" lon="14.3621393">
        <ele>251.665</ele>
        <time>2019-05-02T08:38:13.999Z</time>
      </trkpt>
      <trkpt lat="48.2747548" lon="14.3622308">
        <ele>253.134</ele>
        <time>2019-05-02T08:38:26.999Z</time>
      </trkpt>
      <trkpt lat="48.2747548" lon="14.3622308">
        <ele>253.018</ele>
        <time>2019-05-02T08:38:29.999Z</time>
      </trkpt>
      <trkpt lat="48.2747548" lon="14.3622308">
        <ele>252.952</ele>
        <time>2019-05-02T08:41:22.999Z</time>
      </trkpt>
      <trkpt lat="48.2748285" lon="14.3622883">
        <ele>251.964</ele>
        <time>2019-05-02T08:41:34.999Z</time>
      </trkpt>
      <trkpt lat="48.2748285" lon="14.3622883">
        <ele>251.848</ele>
        <time>2019-05-02T08:41:43.999Z</time>
      </trkpt>
      <trkpt lat="48.2748285" lon="14.3622883">
        <ele>251.783</ele>
        <time>2019-05-02T08:51:05.193Z</time>
      </trkpt>
      <trkpt lat="48.2748652" lon="14.3625205">
        <ele>251.712</ele>
        <time>2019-05-02T08:51:16.234Z</time>
      </trkpt>
      <trkpt lat="48.2748356" lon="14.3626502">
        <ele>243.567</ele>
        <time>2019-05-02T08:51:19.973Z</time>
      </trkpt>
      <trkpt lat="48.2747755" lon="14.3627890">
        <ele>221.925</ele>
        <time>2019-05-02T08:51:23.812Z</time>
      </trkpt>
      <trkpt lat="48.2746372" lon="14.3629790">
        <ele>198.274</ele>
        <time>2019-05-02T08:51:28.401Z</time>
      </trkpt>
      <trkpt lat="48.2745210" lon="14.3631760">
        <ele>184.627</ele>
        <time>2019-05-02T08:51:31.949Z</time>
      </trkpt>
      <trkpt lat="48.2744230" lon="14.3633596">
        <ele>179.742</ele>
        <time>2019-05-02T08:51:35.117Z</time>
      </trkpt>
      <trkpt lat="48.2743596" lon="14.3634926">
        <ele>179.495</ele>
        <time>2019-05-02T08:51:37.256Z</time>
      </trkpt>
      <trkpt lat="48.2742614" lon="14.3637076">
        <ele>189.329</ele>
        <time>2019-05-02T08:51:40.578Z</time>
      </trkpt>
      <trkpt lat="48.2741779" lon="14.3639160">
        <ele>213.751</ele>
        <time>2019-05-02T08:51:43.648Z</time>
      </trkpt>
      <trkpt lat="48.2740898" lon="14.3641040">
        <ele>239.767</ele>
        <time>2019-05-02T08:51:46.560Z</time>
      </trkpt>
      <trkpt lat="48.2740064" lon="14.3643356">
        <ele>253.428</ele>
        <time>2019-05-02T08:51:49.868Z</time>
      </trkpt>
      <trkpt lat="48.2739224" lon="14.3645576">
        <ele>256.346</ele>
        <time>2019-05-02T08:51:52.960Z</time>
      </trkpt>
      <trkpt lat="48.2738467" lon="14.3648016">
        <ele>254.646</ele>
        <time>2019-05-02T08:51:56.013Z</time>
      </trkpt>
      <trkpt lat="48.2737975" lon="14.3649635">
        <ele>252.570</ele>
        <time>2019-05-02T08:51:57.952Z</time>
      </trkpt>
      <trkpt lat="48.2737193" lon="14.3652033">
        <ele>251.558</ele>
        <time>2019-05-02T08:52:00.939Z</time>
      </trkpt>
      <trkpt lat="48.2736534" lon="14.3654497">
        <ele>251.407</ele>
        <time>2019-05-02T08:52:04.077Z</time>
      </trkpt>
      <trkpt lat="48.2736035" lon="14.3656715">
        <ele>251.551</ele>
        <time>2019-05-02T08:52:06.809Z</time>
      </trkpt>
      <trkpt lat="48.2735196" lon="14.3659037">
        <ele>251.686</ele>
        <time>2019-05-02T08:52:09.721Z</time>
      </trkpt>
      <trkpt lat="48.2734352" lon="14.3661703">
        <ele>251.718</ele>
        <time>2019-05-02T08:52:12.831Z</time>
      </trkpt>
      <trkpt lat="48.2733582" lon="14.3664100">
        <ele>251.626</ele>
        <time>2019-05-02T08:52:15.532Z</time>
      </trkpt>
      <trkpt lat="48.2732797" lon="14.3666836">
        <ele>251.472</ele>
        <time>2019-05-02T08:52:18.475Z</time>
      </trkpt>
      <trkpt lat="48.2731985" lon="14.3669635">
        <ele>251.398</ele>
        <time>2019-05-02T08:52:21.475Z</time>
      </trkpt>
      <trkpt lat="48.2731609" lon="14.3672315">
        <ele>251.464</ele>
        <time>2019-05-02T08:52:24.166Z</time>
      </trkpt>
      <trkpt lat="48.2730843" lon="14.3675184">
        <ele>251.576</ele>
        <time>2019-05-02T08:52:27.157Z</time>
      </trkpt>
      <trkpt lat="48.2730045" lon="14.3678103">
        <ele>251.704</ele>
        <time>2019-05-02T08:52:30.110Z</time>
      </trkpt>
      <trkpt lat="48.2729419" lon="14.3681272">
        <ele>251.928</ele>
        <time>2019-05-02T08:52:33.110Z</time>
      </trkpt>
      <trkpt lat="48.2728675" lon="14.3684626">
        <ele>252.204</ele>
        <time>2019-05-02T08:52:36.294Z</time>
      </trkpt>
      <trkpt lat="48.2727992" lon="14.3687838">
        <ele>252.301</ele>
        <time>2019-05-02T08:52:39.367Z</time>
      </trkpt>
      <trkpt lat="48.2727355" lon="14.3690893">
        <ele>252.125</ele>
        <time>2019-05-02T08:52:42.271Z</time>
      </trkpt>
      <trkpt lat="48.2726849" lon="14.3693780">
        <ele>251.902</ele>
        <time>2019-05-02T08:52:44.900Z</time>
      </trkpt>
      <trkpt lat="48.2726412" lon="14.3697021">
        <ele>251.836</ele>
        <time>2019-05-02T08:52:47.725Z</time>
      </trkpt>
      <trkpt lat="48.2725861" lon="14.3700534">
        <ele>251.855</ele>
        <time>2019-05-02T08:52:50.768Z</time>
      </trkpt>
      <trkpt lat="48.2725512" lon="14.3704049">
        <ele>251.843</ele>
        <time>2019-05-02T08:52:53.887Z</time>
      </trkpt>
      <trkpt lat="48.2725438" lon="14.3707015">
        <ele>251.847</ele>
        <time>2019-05-02T08:52:56.872Z</time>
      </trkpt>
      <trkpt lat="48.2725374" lon="14.3708866">
        <ele>251.944</ele>
        <time>2019-05-02T08:52:58.977Z</time>
      </trkpt>
      <trkpt lat="48.2725253" lon="14.3711067">
        <ele>252.080</ele>
        <time>2019-05-02T08:53:01.733Z</time>
      </trkpt>
      <trkpt lat="48.2725013" lon="14.3713261">
        <ele>252.166</ele>
        <time>2019-05-02T08:53:04.551Z</time>
      </trkpt>
      <trkpt lat="48.2724610" lon="14.3715576">
        <ele>252.196</ele>
        <time>2019-05-02T08:53:07.504Z</time>
      </trkpt>
      <trkpt lat="48.2724308" lon="14.3718147">
        <ele>252.200</ele>
        <time>2019-05-02T08:53:10.609Z</time>
      </trkpt>
      <trkpt lat="48.2724071" lon="14.3720543">
        <ele>252.199</ele>
        <time>2019-05-02T08:53:13.456Z</time>
      </trkpt>
      <trkpt lat="48.2723707" lon="14.3723055">
        <ele>252.249</ele>
        <time>2019-05-02T08:53:16.322Z</time>
      </trkpt>
      <trkpt lat="48.2723439" lon="14.3724827">
        <ele>252.408</ele>
        <time>2019-05-02T08:53:18.249Z</time>
      </trkpt>
      <trkpt lat="48.2723152" lon="14.3727879">
        <ele>252.630</ele>
        <time>2019-05-02T08:53:21.300Z</time>
      </trkpt>
      <trkpt lat="48.2722655" lon="14.3730618">
        <ele>252.821</ele>
        <time>2019-05-02T08:53:24.010Z</time>
      </trkpt>
      <trkpt lat="48.2720816" lon="14.3740138">
        <ele>252.862</ele>
        <time>2019-05-02T08:53:33.388Z</time>
      </trkpt>
      <trkpt lat="48.2719974" lon="14.3743587">
        <ele>252.642</ele>
        <time>2019-05-02T08:53:36.884Z</time>
      </trkpt>
      <trkpt lat="48.2719227" lon="14.3747022">
        <ele>252.326</ele>
        <time>2019-05-02T08:53:40.534Z</time>
      </trkpt>
      <trkpt lat="48.2718613" lon="14.3750411">
        <ele>252.148</ele>
        <time>2019-05-02T08:53:44.226Z</time>
      </trkpt>
      <trkpt lat="48.2718194" lon="14.3753230">
        <ele>252.227</ele>
        <time>2019-05-02T08:53:47.277Z</time>
      </trkpt>
      <trkpt lat="48.2717784" lon="14.3755907">
        <ele>252.303</ele>
        <time>2019-05-02T08:53:50.128Z</time>
      </trkpt>
      <trkpt lat="48.2717354" lon="14.3758861">
        <ele>251.947</ele>
        <time>2019-05-02T08:53:53.215Z</time>
      </trkpt>
      <trkpt lat="48.2717324" lon="14.3761604">
        <ele>251.920</ele>
        <time>2019-05-02T08:53:55.960Z</time>
      </trkpt>
      <trkpt lat="48.2716919" lon="14.3764765">
        <ele>252.173</ele>
        <time>2019-05-02T08:53:59.100Z</time>
      </trkpt>
      <trkpt lat="48.2716256" lon="14.3768023">
        <ele>252.644</ele>
        <time>2019-05-02T08:54:02.396Z</time>
      </trkpt>
      <trkpt lat="48.2715506" lon="14.3770815">
        <ele>253.129</ele>
        <time>2019-05-02T08:54:05.311Z</time>
      </trkpt>
      <trkpt lat="48.2714860" lon="14.3773583">
        <ele>252.832</ele>
        <time>2019-05-02T08:54:08.203Z</time>
      </trkpt>
      <trkpt lat="48.2714192" lon="14.3776367">
        <ele>252.445</ele>
        <time>2019-05-02T08:54:11.235Z</time>
      </trkpt>
      <trkpt lat="48.2713720" lon="14.3779383">
        <ele>252.250</ele>
        <time>2019-05-02T08:54:14.552Z</time>
      </trkpt>
      <trkpt lat="48.2713059" lon="14.3781890">
        <ele>252.323</ele>
        <time>2019-05-02T08:54:17.481Z</time>
      </trkpt>
      <trkpt lat="48.2712521" lon="14.3784542">
        <ele>252.564</ele>
        <time>2019-05-02T08:54:20.385Z</time>
      </trkpt>
      <trkpt lat="48.2711962" lon="14.3787244">
        <ele>252.670</ele>
        <time>2019-05-02T08:54:23.150Z</time>
      </trkpt>
      <trkpt lat="48.2711260" lon="14.3789848">
        <ele>252.481</ele>
        <time>2019-05-02T08:54:25.818Z</time>
      </trkpt>
      <trkpt lat="48.2710568" lon="14.3792787">
        <ele>252.257</ele>
        <time>2019-05-02T08:54:28.795Z</time>
      </trkpt>
      <trkpt lat="48.2709880" lon="14.3795695">
        <ele>252.250</ele>
        <time>2019-05-02T08:54:31.769Z</time>
      </trkpt>
      <trkpt lat="48.2709221" lon="14.3798676">
        <ele>252.284</ele>
        <time>2019-05-02T08:54:34.729Z</time>
      </trkpt>
      <trkpt lat="48.2708430" lon="14.3801937">
        <ele>252.161</ele>
        <time>2019-05-02T08:54:37.929Z</time>
      </trkpt>
      <trkpt lat="48.2707408" lon="14.3805546">
        <ele>251.975</ele>
        <time>2019-05-02T08:54:41.732Z</time>
      </trkpt>
      <trkpt lat="48.2706477" lon="14.3808788">
        <ele>251.863</ele>
        <time>2019-05-02T08:54:45.232Z</time>
      </trkpt>
      <trkpt lat="48.2706232" lon="14.3817461">
        <ele>251.693</ele>
        <time>2019-05-02T08:54:53.696Z</time>
      </trkpt>
      <trkpt lat="48.2707448" lon="14.3820172">
        <ele>251.719</ele>
        <time>2019-05-02T08:54:56.838Z</time>
      </trkpt>
      <trkpt lat="48.2708665" lon="14.3823012">
        <ele>251.982</ele>
        <time>2019-05-02T08:55:00.233Z</time>
      </trkpt>
      <trkpt lat="48.2709548" lon="14.3825646">
        <ele>252.186</ele>
        <time>2019-05-02T08:55:03.308Z</time>
      </trkpt>
      <trkpt lat="48.2710177" lon="14.3828339">
        <ele>251.955</ele>
        <time>2019-05-02T08:55:06.356Z</time>
      </trkpt>
      <trkpt lat="48.2709842" lon="14.3831010">
        <ele>251.379</ele>
        <time>2019-05-02T08:55:09.543Z</time>
      </trkpt>
      <trkpt lat="48.2708793" lon="14.3833396">
        <ele>250.848</ele>
        <time>2019-05-02T08:55:13.723Z</time>
      </trkpt>
      <trkpt lat="48.2708014" lon="14.3835426">
        <ele>250.664</ele>
        <time>2019-05-02T08:55:17.765Z</time>
      </trkpt>
      <trkpt lat="48.2707355" lon="14.3836953">
        <ele>250.930</ele>
        <time>2019-05-02T08:55:21.325Z</time>
      </trkpt>
      <trkpt lat="48.2706833" lon="14.3838256">
        <ele>251.495</ele>
        <time>2019-05-02T08:55:24.191Z</time>
      </trkpt>
      <trkpt lat="48.2706386" lon="14.3839631">
        <ele>252.046</ele>
        <time>2019-05-02T08:55:26.937Z</time>
      </trkpt>
      <trkpt lat="48.2705966" lon="14.3841072">
        <ele>252.434</ele>
        <time>2019-05-02T08:55:29.874Z</time>
      </trkpt>
      <trkpt lat="48.2705566" lon="14.3842328">
        <ele>252.711</ele>
        <time>2019-05-02T08:55:32.893Z</time>
      </trkpt>
      <trkpt lat="48.2705045" lon="14.3843762">
        <ele>252.935</ele>
        <time>2019-05-02T08:55:36.439Z</time>
      </trkpt>
      <trkpt lat="48.2704491" lon="14.3844889">
        <ele>253.113</ele>
        <time>2019-05-02T08:55:39.171Z</time>
      </trkpt>
      <trkpt lat="48.2703601" lon="14.3845968">
        <ele>253.239</ele>
        <time>2019-05-02T08:55:42.077Z</time>
      </trkpt>
      <trkpt lat="48.2702877" lon="14.3847141">
        <ele>253.333</ele>
        <time>2019-05-02T08:55:44.734Z</time>
      </trkpt>
      <trkpt lat="48.2701549" lon="14.3847735">
        <ele>253.467</ele>
        <time>2019-05-02T08:55:48.531Z</time>
      </trkpt>
      <trkpt lat="48.2700292" lon="14.3848229">
        <ele>253.646</ele>
        <time>2019-05-02T08:55:52.347Z</time>
      </trkpt>
      <trkpt lat="48.2698653" lon="14.3848679">
        <ele>253.731</ele>
        <time>2019-05-02T08:55:57.236Z</time>
      </trkpt>
      <trkpt lat="48.2693399" lon="14.3849315">
        <ele>253.470</ele>
        <time>2019-05-02T08:56:09.416Z</time>
      </trkpt>
      <trkpt lat="48.2692367" lon="14.3850686">
        <ele>253.119</ele>
        <time>2019-05-02T08:56:11.654Z</time>
      </trkpt>
      <trkpt lat="48.2691310" lon="14.3852217">
        <ele>252.501</ele>
        <time>2019-05-02T08:56:13.847Z</time>
      </trkpt>
      <trkpt lat="48.2690077" lon="14.3854429">
        <ele>251.902</ele>
        <time>2019-05-02T08:56:16.541Z</time>
      </trkpt>
      <trkpt lat="48.2688785" lon="14.3857101">
        <ele>251.576</ele>
        <time>2019-05-02T08:56:19.523Z</time>
      </trkpt>
      <trkpt lat="48.2687296" lon="14.3859685">
        <ele>251.415</ele>
        <time>2019-05-02T08:56:22.504Z</time>
      </trkpt>
      <trkpt lat="48.2685839" lon="14.3862189">
        <ele>251.249</ele>
        <time>2019-05-02T08:56:25.332Z</time>
      </trkpt>
      <trkpt lat="48.2684150" lon="14.3864916">
        <ele>251.053</ele>
        <time>2019-05-02T08:56:28.453Z</time>
      </trkpt>
      <trkpt lat="48.2682579" lon="14.3867532">
        <ele>250.901</ele>
        <time>2019-05-02T08:56:31.408Z</time>
      </trkpt>
      <trkpt lat="48.2680763" lon="14.3870291">
        <ele>250.832</ele>
        <time>2019-05-02T08:56:34.768Z</time>
      </trkpt>
      <trkpt lat="48.2679037" lon="14.3872848">
        <ele>250.883</ele>
        <time>2019-05-02T08:56:37.972Z</time>
      </trkpt>
      <trkpt lat="48.2677893" lon="14.3873902">
        <ele>251.054</ele>
        <time>2019-05-02T08:56:39.730Z</time>
      </trkpt>
      <trkpt lat="48.2676753" lon="14.3875079">
        <ele>251.205</ele>
        <time>2019-05-02T08:56:41.547Z</time>
      </trkpt>
      <trkpt lat="48.2675558" lon="14.3876485">
        <ele>251.217</ele>
        <time>2019-05-02T08:56:43.578Z</time>
      </trkpt>
      <trkpt lat="48.2674254" lon="14.3877717">
        <ele>251.153</ele>
        <time>2019-05-02T08:56:45.669Z</time>
      </trkpt>
      <trkpt lat="48.2673079" lon="14.3878827">
        <ele>251.186</ele>
        <time>2019-05-02T08:56:47.546Z</time>
      </trkpt>
      <trkpt lat="48.2671960" lon="14.3880067">
        <ele>251.382</ele>
        <time>2019-05-02T08:56:49.398Z</time>
      </trkpt>
      <trkpt lat="48.2670280" lon="14.3881749">
        <ele>251.559</ele>
        <time>2019-05-02T08:56:52.122Z</time>
      </trkpt>
      <trkpt lat="48.2668611" lon="14.3883677">
        <ele>251.566</ele>
        <time>2019-05-02T08:56:55.041Z</time>
      </trkpt>
      <trkpt lat="48.2666993" lon="14.3885878">
        <ele>251.455</ele>
        <time>2019-05-02T08:56:58.065Z</time>
      </trkpt>
      <trkpt lat="48.2665487" lon="14.3887734">
        <ele>251.310</ele>
        <time>2019-05-02T08:57:00.691Z</time>
      </trkpt>
      <trkpt lat="48.2663945" lon="14.3889611">
        <ele>251.190</ele>
        <time>2019-05-02T08:57:03.324Z</time>
      </trkpt>
      <trkpt lat="48.2662639" lon="14.3891578">
        <ele>251.133</ele>
        <time>2019-05-02T08:57:05.765Z</time>
      </trkpt>
      <trkpt lat="48.2661024" lon="14.3893746">
        <ele>251.137</ele>
        <time>2019-05-02T08:57:08.612Z</time>
      </trkpt>
      <trkpt lat="48.2659394" lon="14.3895886">
        <ele>251.182</ele>
        <time>2019-05-02T08:57:11.426Z</time>
      </trkpt>
      <trkpt lat="48.2657814" lon="14.3897944">
        <ele>251.293</ele>
        <time>2019-05-02T08:57:14.076Z</time>
      </trkpt>
      <trkpt lat="48.2656130" lon="14.3900205">
        <ele>251.487</ele>
        <time>2019-05-02T08:57:16.885Z</time>
      </trkpt>
      <trkpt lat="48.2654361" lon="14.3902590">
        <ele>251.664</ele>
        <time>2019-05-02T08:57:19.920Z</time>
      </trkpt>
      <trkpt lat="48.2652605" lon="14.3904985">
        <ele>251.701</ele>
        <time>2019-05-02T08:57:22.970Z</time>
      </trkpt>
      <trkpt lat="48.2650924" lon="14.3907165">
        <ele>251.607</ele>
        <time>2019-05-02T08:57:25.856Z</time>
      </trkpt>
      <trkpt lat="48.2649226" lon="14.3909691">
        <ele>251.520</ele>
        <time>2019-05-02T08:57:29.193Z</time>
      </trkpt>
      <trkpt lat="48.2647648" lon="14.3911873">
        <ele>251.540</ele>
        <time>2019-05-02T08:57:32.515Z</time>
      </trkpt>
      <trkpt lat="48.2646391" lon="14.3913891">
        <ele>251.628</ele>
        <time>2019-05-02T08:57:35.535Z</time>
      </trkpt>
      <trkpt lat="48.2645216" lon="14.3915747">
        <ele>251.719</ele>
        <time>2019-05-02T08:57:38.397Z</time>
      </trkpt>
      <trkpt lat="48.2644036" lon="14.3917412">
        <ele>251.797</ele>
        <time>2019-05-02T08:57:41.110Z</time>
      </trkpt>
      <trkpt lat="48.2642931" lon="14.3918828">
        <ele>251.875</ele>
        <time>2019-05-02T08:57:43.512Z</time>
      </trkpt>
      <trkpt lat="48.2641617" lon="14.3920416">
        <ele>251.953</ele>
        <time>2019-05-02T08:57:46.375Z</time>
      </trkpt>
      <trkpt lat="48.2640417" lon="14.3921974">
        <ele>251.953</ele>
        <time>2019-05-02T08:57:49.213Z</time>
      </trkpt>
      <trkpt lat="48.2639369" lon="14.3923617">
        <ele>251.831</ele>
        <time>2019-05-02T08:57:52.027Z</time>
      </trkpt>
      <trkpt lat="48.2638219" lon="14.3925341">
        <ele>251.665</ele>
        <time>2019-05-02T08:57:55.067Z</time>
      </trkpt>
      <trkpt lat="48.2637183" lon="14.3927177">
        <ele>251.619</ele>
        <time>2019-05-02T08:57:58.096Z</time>
      </trkpt>
      <trkpt lat="48.2636232" lon="14.3928862">
        <ele>251.736</ele>
        <time>2019-05-02T08:58:01.037Z</time>
      </trkpt>
      <trkpt lat="48.2635200" lon="14.3930414">
        <ele>251.804</ele>
        <time>2019-05-02T08:58:04.193Z</time>
      </trkpt>
      <trkpt lat="48.2634239" lon="14.3931798">
        <ele>251.652</ele>
        <time>2019-05-02T08:58:07.079Z</time>
      </trkpt>
      <trkpt lat="48.2633266" lon="14.3933368">
        <ele>251.449</ele>
        <time>2019-05-02T08:58:09.945Z</time>
      </trkpt>
      <trkpt lat="48.2632160" lon="14.3935186">
        <ele>251.421</ele>
        <time>2019-05-02T08:58:13.019Z</time>
      </trkpt>
      <trkpt lat="48.2631104" lon="14.3937336">
        <ele>251.552</ele>
        <time>2019-05-02T08:58:16.245Z</time>
      </trkpt>
      <trkpt lat="48.2629828" lon="14.3939629">
        <ele>251.644</ele>
        <time>2019-05-02T08:58:19.806Z</time>
      </trkpt>
      <trkpt lat="48.2628642" lon="14.3941810">
        <ele>251.549</ele>
        <time>2019-05-02T08:58:23.048Z</time>
      </trkpt>
      <trkpt lat="48.2627666" lon="14.3944064">
        <ele>251.346</ele>
        <time>2019-05-02T08:58:26.041Z</time>
      </trkpt>
      <trkpt lat="48.2626150" lon="14.3946071">
        <ele>251.199</ele>
        <time>2019-05-02T08:58:29.438Z</time>
      </trkpt>
      <trkpt lat="48.2624885" lon="14.3948315">
        <ele>251.162</ele>
        <time>2019-05-02T08:58:32.698Z</time>
      </trkpt>
      <trkpt lat="48.2623796" lon="14.3950578">
        <ele>251.194</ele>
        <time>2019-05-02T08:58:35.733Z</time>
      </trkpt>
      <trkpt lat="48.2622556" lon="14.3952848">
        <ele>251.203</ele>
        <time>2019-05-02T08:58:38.944Z</time>
      </trkpt>
      <trkpt lat="48.2621377" lon="14.3954956">
        <ele>251.128</ele>
        <time>2019-05-02T08:58:41.859Z</time>
      </trkpt>
      <trkpt lat="48.2620207" lon="14.3956867">
        <ele>251.024</ele>
        <time>2019-05-02T08:58:44.428Z</time>
      </trkpt>
      <trkpt lat="48.2618902" lon="14.3959305">
        <ele>250.961</ele>
        <time>2019-05-02T08:58:47.413Z</time>
      </trkpt>
      <trkpt lat="48.2617601" lon="14.3961949">
        <ele>250.944</ele>
        <time>2019-05-02T08:58:50.561Z</time>
      </trkpt>
      <trkpt lat="48.2616598" lon="14.3964557">
        <ele>250.910</ele>
        <time>2019-05-02T08:58:53.361Z</time>
      </trkpt>
      <trkpt lat="48.2615337" lon="14.3967301">
        <ele>250.816</ele>
        <time>2019-05-02T08:58:56.423Z</time>
      </trkpt>
      <trkpt lat="48.2613927" lon="14.3970396">
        <ele>250.713</ele>
        <time>2019-05-02T08:58:59.951Z</time>
      </trkpt>
      <trkpt lat="48.2612588" lon="14.3972987">
        <ele>250.664</ele>
        <time>2019-05-02T08:59:03.008Z</time>
      </trkpt>
      <trkpt lat="48.2611395" lon="14.3975556">
        <ele>250.692</ele>
        <time>2019-05-02T08:59:05.855Z</time>
      </trkpt>
      <trkpt lat="48.2609911" lon="14.3978199">
        <ele>250.825</ele>
        <time>2019-05-02T08:59:08.951Z</time>
      </trkpt>
      <trkpt lat="48.2608555" lon="14.3980845">
        <ele>250.982</ele>
        <time>2019-05-02T08:59:11.933Z</time>
      </trkpt>
      <trkpt lat="48.2607168" lon="14.3983518">
        <ele>251.034</ele>
        <time>2019-05-02T08:59:14.961Z</time>
      </trkpt>
      <trkpt lat="48.2605921" lon="14.3986766">
        <ele>250.991</ele>
        <time>2019-05-02T08:59:18.303Z</time>
      </trkpt>
      <trkpt lat="48.2604653" lon="14.3989330">
        <ele>250.992</ele>
        <time>2019-05-02T08:59:21.137Z</time>
      </trkpt>
      <trkpt lat="48.2603279" lon="14.3992079">
        <ele>251.092</ele>
        <time>2019-05-02T08:59:24.236Z</time>
      </trkpt>
      <trkpt lat="48.2601931" lon="14.3994787">
        <ele>251.183</ele>
        <time>2019-05-02T08:59:27.308Z</time>
      </trkpt>
      <trkpt lat="48.2600693" lon="14.3997434">
        <ele>251.092</ele>
        <time>2019-05-02T08:59:30.177Z</time>
      </trkpt>
      <trkpt lat="48.2599518" lon="14.3999984">
        <ele>250.826</ele>
        <time>2019-05-02T08:59:32.870Z</time>
      </trkpt>
      <trkpt lat="48.2598368" lon="14.4002706">
        <ele>250.606</ele>
        <time>2019-05-02T08:59:35.652Z</time>
      </trkpt>
      <trkpt lat="48.2597105" lon="14.4005730">
        <ele>250.569</ele>
        <time>2019-05-02T08:59:38.809Z</time>
      </trkpt>
      <trkpt lat="48.2595973" lon="14.4008460">
        <ele>250.631</ele>
        <time>2019-05-02T08:59:41.726Z</time>
      </trkpt>
      <trkpt lat="48.2594889" lon="14.4011092">
        <ele>250.684</ele>
        <time>2019-05-02T08:59:44.453Z</time>
      </trkpt>
      <trkpt lat="48.2593876" lon="14.4014012">
        <ele>250.717</ele>
        <time>2019-05-02T08:59:47.227Z</time>
      </trkpt>
      <trkpt lat="48.2592809" lon="14.4016996">
        <ele>250.808</ele>
        <time>2019-05-02T08:59:50.095Z</time>
      </trkpt>
      <trkpt lat="48.2591683" lon="14.4019891">
        <ele>251.009</ele>
        <time>2019-05-02T08:59:53.227Z</time>
      </trkpt>
      <trkpt lat="48.2590721" lon="14.4022606">
        <ele>251.418</ele>
        <time>2019-05-02T08:59:56.368Z</time>
      </trkpt>
      <trkpt lat="48.2589738" lon="14.4024990">
        <ele>252.042</ele>
        <time>2019-05-02T08:59:59.129Z</time>
      </trkpt>
      <trkpt lat="48.2588978" lon="14.4027499">
        <ele>252.258</ele>
        <time>2019-05-02T09:00:01.771Z</time>
      </trkpt>
      <trkpt lat="48.2588395" lon="14.4030349">
        <ele>251.638</ele>
        <time>2019-05-02T09:00:04.656Z</time>
      </trkpt>
      <trkpt lat="48.2587687" lon="14.4032742">
        <ele>250.776</ele>
        <time>2019-05-02T09:00:07.114Z</time>
      </trkpt>
      <trkpt lat="48.2586894" lon="14.4035399">
        <ele>250.292</ele>
        <time>2019-05-02T09:00:09.768Z</time>
      </trkpt>
      <trkpt lat="48.2585983" lon="14.4038628">
        <ele>250.166</ele>
        <time>2019-05-02T09:00:12.866Z</time>
      </trkpt>
      <trkpt lat="48.2585109" lon="14.4041818">
        <ele>250.270</ele>
        <time>2019-05-02T09:00:15.896Z</time>
      </trkpt>
      <trkpt lat="48.2584287" lon="14.4045167">
        <ele>250.510</ele>
        <time>2019-05-02T09:00:19.075Z</time>
      </trkpt>
      <trkpt lat="48.2583555" lon="14.4048145">
        <ele>250.748</ele>
        <time>2019-05-02T09:00:21.937Z</time>
      </trkpt>
      <trkpt lat="48.2583031" lon="14.4051333">
        <ele>250.873</ele>
        <time>2019-05-02T09:00:24.906Z</time>
      </trkpt>
      <trkpt lat="48.2582426" lon="14.4054371">
        <ele>250.962</ele>
        <time>2019-05-02T09:00:27.723Z</time>
      </trkpt>
      <trkpt lat="48.2581831" lon="14.4057350">
        <ele>251.108</ele>
        <time>2019-05-02T09:00:30.416Z</time>
      </trkpt>
      <trkpt lat="48.2581205" lon="14.4060575">
        <ele>251.201</ele>
        <time>2019-05-02T09:00:33.262Z</time>
      </trkpt>
      <trkpt lat="48.2580465" lon="14.4064259">
        <ele>251.129</ele>
        <time>2019-05-02T09:00:36.653Z</time>
      </trkpt>
      <trkpt lat="48.2580085" lon="14.4066466">
        <ele>251.083</ele>
        <time>2019-05-02T09:00:38.797Z</time>
      </trkpt>
      <trkpt lat="48.2579886" lon="14.4068359">
        <ele>251.235</ele>
        <time>2019-05-02T09:00:40.605Z</time>
      </trkpt>
      <trkpt lat="48.2579502" lon="14.4070690">
        <ele>251.421</ele>
        <time>2019-05-02T09:00:42.870Z</time>
      </trkpt>
      <trkpt lat="48.2579200" lon="14.4072481">
        <ele>251.435</ele>
        <time>2019-05-02T09:00:44.610Z</time>
      </trkpt>
      <trkpt lat="48.2578996" lon="14.4074240">
        <ele>251.267</ele>
        <time>2019-05-02T09:00:46.287Z</time>
      </trkpt>
      <trkpt lat="48.2578761" lon="14.4076251">
        <ele>250.978</ele>
        <time>2019-05-02T09:00:48.192Z</time>
      </trkpt>
      <trkpt lat="48.2578705" lon="14.4078205">
        <ele>250.608</ele>
        <time>2019-05-02T09:00:50.022Z</time>
      </trkpt>
      <trkpt lat="48.2578446" lon="14.4080277">
        <ele>250.249</ele>
        <time>2019-05-02T09:00:51.994Z</time>
      </trkpt>
      <trkpt lat="48.2578258" lon="14.4082184">
        <ele>250.052</ele>
        <time>2019-05-02T09:00:53.748Z</time>
      </trkpt>
      <trkpt lat="48.2578048" lon="14.4084250">
        <ele>250.138</ele>
        <time>2019-05-02T09:00:55.616Z</time>
      </trkpt>
      <trkpt lat="48.2577819" lon="14.4086400">
        <ele>250.473</ele>
        <time>2019-05-02T09:00:57.540Z</time>
      </trkpt>
      <trkpt lat="48.2577621" lon="14.4088505">
        <ele>250.938</ele>
        <time>2019-05-02T09:00:59.390Z</time>
      </trkpt>
      <trkpt lat="48.2577415" lon="14.4090771">
        <ele>251.420</ele>
        <time>2019-05-02T09:01:01.351Z</time>
      </trkpt>
      <trkpt lat="48.2577203" lon="14.4093133">
        <ele>251.819</ele>
        <time>2019-05-02T09:01:03.347Z</time>
      </trkpt>
      <trkpt lat="48.2576995" lon="14.4095530">
        <ele>252.037</ele>
        <time>2019-05-02T09:01:05.328Z</time>
      </trkpt>
      <trkpt lat="48.2576717" lon="14.4097947">
        <ele>251.987</ele>
        <time>2019-05-02T09:01:07.362Z</time>
      </trkpt>
      <trkpt lat="48.2576441" lon="14.4100309">
        <ele>251.675</ele>
        <time>2019-05-02T09:01:09.435Z</time>
      </trkpt>
      <trkpt lat="48.2576240" lon="14.4102502">
        <ele>251.213</ele>
        <time>2019-05-02T09:01:11.408Z</time>
      </trkpt>
      <trkpt lat="48.2576054" lon="14.4104656">
        <ele>250.749</ele>
        <time>2019-05-02T09:01:13.353Z</time>
      </trkpt>
      <trkpt lat="48.2575811" lon="14.4106735">
        <ele>250.427</ele>
        <time>2019-05-02T09:01:15.232Z</time>
      </trkpt>
      <trkpt lat="48.2575648" lon="14.4108868">
        <ele>250.268</ele>
        <time>2019-05-02T09:01:17.152Z</time>
      </trkpt>
      <trkpt lat="48.2575497" lon="14.4110957">
        <ele>250.167</ele>
        <time>2019-05-02T09:01:19.040Z</time>
      </trkpt>
      <trkpt lat="48.2575113" lon="14.4114050">
        <ele>250.232</ele>
        <time>2019-05-02T09:01:21.945Z</time>
      </trkpt>
      <trkpt lat="48.2574897" lon="14.4116942">
        <ele>250.668</ele>
        <time>2019-05-02T09:01:24.644Z</time>
      </trkpt>
      <trkpt lat="48.2574806" lon="14.4120139">
        <ele>251.407</ele>
        <time>2019-05-02T09:01:27.545Z</time>
      </trkpt>
      <trkpt lat="48.2574472" lon="14.4123345">
        <ele>252.109</ele>
        <time>2019-05-02T09:01:30.446Z</time>
      </trkpt>
      <trkpt lat="48.2574247" lon="14.4126483">
        <ele>252.505</ele>
        <time>2019-05-02T09:01:33.297Z</time>
      </trkpt>
      <trkpt lat="48.2573969" lon="14.4129501">
        <ele>252.532</ele>
        <time>2019-05-02T09:01:36.082Z</time>
      </trkpt>
      <trkpt lat="48.2573553" lon="14.4132558">
        <ele>252.294</ele>
        <time>2019-05-02T09:01:38.971Z</time>
      </trkpt>
      <trkpt lat="48.2573206" lon="14.4135490">
        <ele>251.946</ele>
        <time>2019-05-02T09:01:41.709Z</time>
      </trkpt>
      <trkpt lat="48.2572602" lon="14.4138605">
        <ele>251.638</ele>
        <time>2019-05-02T09:01:44.598Z</time>
      </trkpt>
      <trkpt lat="48.2572045" lon="14.4141957">
        <ele>251.607</ele>
        <time>2019-05-02T09:01:47.664Z</time>
      </trkpt>
      <trkpt lat="48.2571679" lon="14.4144841">
        <ele>251.989</ele>
        <time>2019-05-02T09:01:50.375Z</time>
      </trkpt>
      <trkpt lat="48.2571028" lon="14.4147939">
        <ele>252.529</ele>
        <time>2019-05-02T09:01:53.475Z</time>
      </trkpt>
      <trkpt lat="48.2570528" lon="14.4150941">
        <ele>252.816</ele>
        <time>2019-05-02T09:01:56.454Z</time>
      </trkpt>
      <trkpt lat="48.2570151" lon="14.4153703">
        <ele>252.756</ele>
        <time>2019-05-02T09:01:59.176Z</time>
      </trkpt>
      <trkpt lat="48.2569654" lon="14.4156699">
        <ele>252.615</ele>
        <time>2019-05-02T09:02:02.117Z</time>
      </trkpt>
      <trkpt lat="48.2569047" lon="14.4159896">
        <ele>252.620</ele>
        <time>2019-05-02T09:02:05.175Z</time>
      </trkpt>
      <trkpt lat="48.2568272" lon="14.4163243">
        <ele>252.714</ele>
        <time>2019-05-02T09:02:08.357Z</time>
      </trkpt>
      <trkpt lat="48.2567626" lon="14.4166582">
        <ele>252.705</ele>
        <time>2019-05-02T09:02:11.433Z</time>
      </trkpt>
      <trkpt lat="48.2566877" lon="14.4169815">
        <ele>252.527</ele>
        <time>2019-05-02T09:02:14.435Z</time>
      </trkpt>
      <trkpt lat="48.2566105" lon="14.4172901">
        <ele>252.390</ele>
        <time>2019-05-02T09:02:17.351Z</time>
      </trkpt>
      <trkpt lat="48.2565323" lon="14.4175835">
        <ele>252.470</ele>
        <time>2019-05-02T09:02:20.209Z</time>
      </trkpt>
      <trkpt lat="48.2564547" lon="14.4178557">
        <ele>252.482</ele>
        <time>2019-05-02T09:02:22.960Z</time>
      </trkpt>
      <trkpt lat="48.2563792" lon="14.4181380">
        <ele>252.174</ele>
        <time>2019-05-02T09:02:25.821Z</time>
      </trkpt>
      <trkpt lat="48.2562962" lon="14.4184176">
        <ele>251.935</ele>
        <time>2019-05-02T09:02:28.656Z</time>
      </trkpt>
      <trkpt lat="48.2562078" lon="14.4187317">
        <ele>252.129</ele>
        <time>2019-05-02T09:02:31.694Z</time>
      </trkpt>
      <trkpt lat="48.2561175" lon="14.4190203">
        <ele>252.281</ele>
        <time>2019-05-02T09:02:34.482Z</time>
      </trkpt>
      <trkpt lat="48.2560421" lon="14.4192842">
        <ele>251.938</ele>
        <time>2019-05-02T09:02:37.139Z</time>
      </trkpt>
      <trkpt lat="48.2559755" lon="14.4195261">
        <ele>251.481</ele>
        <time>2019-05-02T09:02:39.793Z</time>
      </trkpt>
      <trkpt lat="48.2559008" lon="14.4197607">
        <ele>251.349</ele>
        <time>2019-05-02T09:02:42.516Z</time>
      </trkpt>
      <trkpt lat="48.2558152" lon="14.4200066">
        <ele>251.508</ele>
        <time>2019-05-02T09:02:45.395Z</time>
      </trkpt>
      <trkpt lat="48.2557444" lon="14.4202535">
        <ele>251.788</ele>
        <time>2019-05-02T09:02:48.147Z</time>
      </trkpt>
      <trkpt lat="48.2556792" lon="14.4205069">
        <ele>252.020</ele>
        <time>2019-05-02T09:02:50.912Z</time>
      </trkpt>
      <trkpt lat="48.2555899" lon="14.4207635">
        <ele>252.144</ele>
        <time>2019-05-02T09:02:53.811Z</time>
      </trkpt>
      <trkpt lat="48.2554874" lon="14.4210362">
        <ele>252.241</ele>
        <time>2019-05-02T09:02:56.870Z</time>
      </trkpt>
      <trkpt lat="48.2553785" lon="14.4213226">
        <ele>252.364</ele>
        <time>2019-05-02T09:03:00.003Z</time>
      </trkpt>
      <trkpt lat="48.2552469" lon="14.4216704">
        <ele>252.495</ele>
        <time>2019-05-02T09:03:03.643Z</time>
      </trkpt>
      <trkpt lat="48.2551403" lon="14.4219709">
        <ele>252.548</ele>
        <time>2019-05-02T09:03:06.613Z</time>
      </trkpt>
      <trkpt lat="48.2550286" lon="14.4222638">
        <ele>252.451</ele>
        <time>2019-05-02T09:03:09.592Z</time>
      </trkpt>
      <trkpt lat="48.2549337" lon="14.4225402">
        <ele>252.271</ele>
        <time>2019-05-02T09:03:12.422Z</time>
      </trkpt>
      <trkpt lat="48.2548089" lon="14.4228201">
        <ele>252.132</ele>
        <time>2019-05-02T09:03:15.525Z</time>
      </trkpt>
      <trkpt lat="48.2546806" lon="14.4231032">
        <ele>252.064</ele>
        <time>2019-05-02T09:03:18.685Z</time>
      </trkpt>
      <trkpt lat="48.2545646" lon="14.4233493">
        <ele>252.013</ele>
        <time>2019-05-02T09:03:21.466Z</time>
      </trkpt>
      <trkpt lat="48.2544677" lon="14.4235948">
        <ele>251.937</ele>
        <time>2019-05-02T09:03:24.112Z</time>
      </trkpt>
      <trkpt lat="48.2543630" lon="14.4238441">
        <ele>251.846</ele>
        <time>2019-05-02T09:03:26.789Z</time>
      </trkpt>
      <trkpt lat="48.2542464" lon="14.4241657">
        <ele>251.793</ele>
        <time>2019-05-02T09:03:29.935Z</time>
      </trkpt>
      <trkpt lat="48.2541344" lon="14.4244721">
        <ele>251.860</ele>
        <time>2019-05-02T09:03:32.841Z</time>
      </trkpt>
      <trkpt lat="48.2540335" lon="14.4247650">
        <ele>252.040</ele>
        <time>2019-05-02T09:03:35.620Z</time>
      </trkpt>
      <trkpt lat="48.2538687" lon="14.4249841">
        <ele>252.221</ele>
        <time>2019-05-02T09:03:38.511Z</time>
      </trkpt>
      <trkpt lat="48.2537534" lon="14.4252307">
        <ele>252.326</ele>
        <time>2019-05-02T09:03:41.187Z</time>
      </trkpt>
      <trkpt lat="48.2536607" lon="14.4254607">
        <ele>252.269</ele>
        <time>2019-05-02T09:03:43.558Z</time>
      </trkpt>
      <trkpt lat="48.2535625" lon="14.4256432">
        <ele>252.018</ele>
        <time>2019-05-02T09:03:45.657Z</time>
      </trkpt>
      <trkpt lat="48.2534771" lon="14.4258528">
        <ele>251.734</ele>
        <time>2019-05-02T09:03:48.143Z</time>
      </trkpt>
      <trkpt lat="48.2533958" lon="14.4260692">
        <ele>251.560</ele>
        <time>2019-05-02T09:03:50.849Z</time>
      </trkpt>
      <trkpt lat="48.2532931" lon="14.4262935">
        <ele>251.454</ele>
        <time>2019-05-02T09:03:53.896Z</time>
      </trkpt>
      <trkpt lat="48.2531980" lon="14.4265156">
        <ele>251.352</ele>
        <time>2019-05-02T09:03:56.822Z</time>
      </trkpt>
      <trkpt lat="48.2531195" lon="14.4267128">
        <ele>251.300</ele>
        <time>2019-05-02T09:03:59.314Z</time>
      </trkpt>
      <trkpt lat="48.2530213" lon="14.4269383">
        <ele>251.351</ele>
        <time>2019-05-02T09:04:02.210Z</time>
      </trkpt>
      <trkpt lat="48.2529316" lon="14.4271574">
        <ele>251.429</ele>
        <time>2019-05-02T09:04:04.992Z</time>
      </trkpt>
      <trkpt lat="48.2528576" lon="14.4273795">
        <ele>251.458</ele>
        <time>2019-05-02T09:04:07.675Z</time>
      </trkpt>
      <trkpt lat="48.2527833" lon="14.4276065">
        <ele>251.414</ele>
        <time>2019-05-02T09:04:10.404Z</time>
      </trkpt>
      <trkpt lat="48.2527206" lon="14.4278357">
        <ele>251.316</ele>
        <time>2019-05-02T09:04:13.182Z</time>
      </trkpt>
      <trkpt lat="48.2526641" lon="14.4280634">
        <ele>251.298</ele>
        <time>2019-05-02T09:04:16.071Z</time>
      </trkpt>
      <trkpt lat="48.2526032" lon="14.4282290">
        <ele>251.456</ele>
        <time>2019-05-02T09:04:18.406Z</time>
      </trkpt>
      <trkpt lat="48.2525464" lon="14.4283724">
        <ele>251.682</ele>
        <time>2019-05-02T09:04:20.485Z</time>
      </trkpt>
      <trkpt lat="48.2524899" lon="14.4285578">
        <ele>251.901</ele>
        <time>2019-05-02T09:04:23.109Z</time>
      </trkpt>
      <trkpt lat="48.2524100" lon="14.4287180">
        <ele>252.165</ele>
        <time>2019-05-02T09:04:25.905Z</time>
      </trkpt>
      <trkpt lat="48.2523007" lon="14.4288834">
        <ele>252.433</ele>
        <time>2019-05-02T09:04:29.539Z</time>
      </trkpt>
      <trkpt lat="48.2521699" lon="14.4291034">
        <ele>252.554</ele>
        <time>2019-05-02T09:04:34.115Z</time>
      </trkpt>
      <trkpt lat="48.2520700" lon="14.4293127">
        <ele>252.473</ele>
        <time>2019-05-02T09:04:37.942Z</time>
      </trkpt>
      <trkpt lat="48.2520088" lon="14.4296519">
        <ele>252.306</ele>
        <time>2019-05-02T09:04:43.238Z</time>
      </trkpt>
      <trkpt lat="48.2519424" lon="14.4299377">
        <ele>252.187</ele>
        <time>2019-05-02T09:04:47.963Z</time>
      </trkpt>
      <trkpt lat="48.2518764" lon="14.4300667">
        <ele>252.210</ele>
        <time>2019-05-02T09:04:50.450Z</time>
      </trkpt>
      <trkpt lat="48.2517871" lon="14.4302166">
        <ele>252.388</ele>
        <time>2019-05-02T09:04:53.541Z</time>
      </trkpt>
      <trkpt lat="48.2517223" lon="14.4304238">
        <ele>252.597</ele>
        <time>2019-05-02T09:04:56.784Z</time>
      </trkpt>
      <trkpt lat="48.2516676" lon="14.4306534">
        <ele>252.731</ele>
        <time>2019-05-02T09:04:59.831Z</time>
      </trkpt>
      <trkpt lat="48.2516055" lon="14.4308932">
        <ele>252.795</ele>
        <time>2019-05-02T09:05:02.871Z</time>
      </trkpt>
      <trkpt lat="48.2515299" lon="14.4311503">
        <ele>252.813</ele>
        <time>2019-05-02T09:05:06.039Z</time>
      </trkpt>
      <trkpt lat="48.2514578" lon="14.4314101">
        <ele>252.806</ele>
        <time>2019-05-02T09:05:09.072Z</time>
      </trkpt>
      <trkpt lat="48.2513817" lon="14.4316761">
        <ele>252.802</ele>
        <time>2019-05-02T09:05:12.171Z</time>
      </trkpt>
      <trkpt lat="48.2513266" lon="14.4319159">
        <ele>252.817</ele>
        <time>2019-05-02T09:05:14.981Z</time>
      </trkpt>
      <trkpt lat="48.2512846" lon="14.4320942">
        <ele>252.844</ele>
        <time>2019-05-02T09:05:17.330Z</time>
      </trkpt>
      <trkpt lat="48.2512436" lon="14.4322335">
        <ele>252.864</ele>
        <time>2019-05-02T09:05:19.569Z</time>
      </trkpt>
      <trkpt lat="48.2512077" lon="14.4323855">
        <ele>252.873</ele>
        <time>2019-05-02T09:05:22.758Z</time>
      </trkpt>
      <trkpt lat="48.2511213" lon="14.4325113">
        <ele>252.874</ele>
        <time>2019-05-02T09:05:28.761Z</time>
      </trkpt>
      <trkpt lat="48.2510909" lon="14.4326695">
        <ele>252.872</ele>
        <time>2019-05-02T09:05:35.998Z</time>
      </trkpt>
      <trkpt lat="48.2510909" lon="14.4326695">
        <ele>252.871</ele>
        <time>2019-05-02T09:05:39.998Z</time>
      </trkpt>
      <trkpt lat="48.2510909" lon="14.4326695">
        <ele>252.830</ele>
        <time>2019-05-02T09:05:40.098Z</time>
      </trkpt>
      <trkpt lat="48.2510805" lon="14.4328220">
        <ele>252.726</ele>
        <time>2019-05-02T09:06:10.851Z</time>
      </trkpt>
      <trkpt lat="48.2510487" lon="14.4329554">
        <ele>252.659</ele>
        <time>2019-05-02T09:06:17.503Z</time>
      </trkpt>
      <trkpt lat="48.2509931" lon="14.4330709">
        <ele>252.713</ele>
        <time>2019-05-02T09:06:22.335Z</time>
      </trkpt>
      <trkpt lat="48.2509208" lon="14.4331703">
        <ele>252.812</ele>
        <time>2019-05-02T09:06:27.056Z</time>
      </trkpt>
      <trkpt lat="48.2508058" lon="14.4331900">
        <ele>252.872</ele>
        <time>2019-05-02T09:06:32.012Z</time>
      </trkpt>
      <trkpt lat="48.2507087" lon="14.4331152">
        <ele>252.888</ele>
        <time>2019-05-02T09:06:36.400Z</time>
      </trkpt>
      <trkpt lat="48.2506247" lon="14.4330470">
        <ele>252.774</ele>
        <time>2019-05-02T09:06:39.939Z</time>
      </trkpt>
      <trkpt lat="48.2505341" lon="14.4329695">
        <ele>252.406</ele>
        <time>2019-05-02T09:06:43.775Z</time>
      </trkpt>
      <trkpt lat="48.2504346" lon="14.4328962">
        <ele>251.871</ele>
        <time>2019-05-02T09:06:48.121Z</time>
      </trkpt>
      <trkpt lat="48.2503483" lon="14.4328408">
        <ele>251.350</ele>
        <time>2019-05-02T09:06:52.770Z</time>
      </trkpt>
      <trkpt lat="48.2502669" lon="14.4327321">
        <ele>250.939</ele>
        <time>2019-05-02T09:07:00.534Z</time>
      </trkpt>
      <trkpt lat="48.2501760" lon="14.4326489">
        <ele>250.710</ele>
        <time>2019-05-02T09:07:09.604Z</time>
      </trkpt>
      <trkpt lat="48.2501194" lon="14.4325305">
        <ele>250.179</ele>
        <time>2019-05-02T09:07:19.000Z</time>
      </trkpt>
      <trkpt lat="48.2500398" lon="14.4323760">
        <ele>247.709</ele>
        <time>2019-05-02T09:07:31.589Z</time>
      </trkpt>
      <trkpt lat="48.2499530" lon="14.4322419">
        <ele>239.970</ele>
        <time>2019-05-02T09:07:43.647Z</time>
      </trkpt>
      <trkpt lat="48.2498325" lon="14.4321244">
        <ele>227.071</ele>
        <time>2019-05-02T09:07:57.296Z</time>
      </trkpt>
      <trkpt lat="48.2497255" lon="14.4320200">
        <ele>215.342</ele>
        <time>2019-05-02T09:08:02.790Z</time>
      </trkpt>
      <trkpt lat="48.2496407" lon="14.4319431">
        <ele>209.903</ele>
        <time>2019-05-02T09:08:05.960Z</time>
      </trkpt>
      <trkpt lat="48.2495532" lon="14.4318953">
        <ele>210.103</ele>
        <time>2019-05-02T09:08:08.763Z</time>
      </trkpt>
      <trkpt lat="48.2494428" lon="14.4318072">
        <ele>213.422</ele>
        <time>2019-05-02T09:08:12.642Z</time>
      </trkpt>
      <trkpt lat="48.2493476" lon="14.4317711">
        <ele>217.771</ele>
        <time>2019-05-02T09:08:15.842Z</time>
      </trkpt>
      <trkpt lat="48.2492654" lon="14.4317057">
        <ele>222.177</ele>
        <time>2019-05-02T09:08:19.002Z</time>
      </trkpt>
      <trkpt lat="48.2491641" lon="14.4316420">
        <ele>226.626</ele>
        <time>2019-05-02T09:08:22.863Z</time>
      </trkpt>
      <trkpt lat="48.2490792" lon="14.4315775">
        <ele>231.469</ele>
        <time>2019-05-02T09:08:26.546Z</time>
      </trkpt>
      <trkpt lat="48.2489866" lon="14.4314980">
        <ele>236.356</ele>
        <time>2019-05-02T09:08:30.905Z</time>
      </trkpt>
      <trkpt lat="48.2489020" lon="14.4314178">
        <ele>240.389</ele>
        <time>2019-05-02T09:08:35.000Z</time>
      </trkpt>
      <trkpt lat="48.2487988" lon="14.4313347">
        <ele>243.595</ele>
        <time>2019-05-02T09:08:39.479Z</time>
      </trkpt>
      <trkpt lat="48.2487074" lon="14.4312678">
        <ele>246.498</ele>
        <time>2019-05-02T09:08:43.201Z</time>
      </trkpt>
      <trkpt lat="48.2486076" lon="14.4311811">
        <ele>248.883</ele>
        <time>2019-05-02T09:08:47.316Z</time>
      </trkpt>
      <trkpt lat="48.2485247" lon="14.4311024">
        <ele>250.359</ele>
        <time>2019-05-02T09:08:50.842Z</time>
      </trkpt>
      <trkpt lat="48.2484378" lon="14.4310272">
        <ele>251.044</ele>
        <time>2019-05-02T09:08:54.412Z</time>
      </trkpt>
      <trkpt lat="48.2483540" lon="14.4309543">
        <ele>251.325</ele>
        <time>2019-05-02T09:08:57.740Z</time>
      </trkpt>
      <trkpt lat="48.2482746" lon="14.4308709">
        <ele>251.464</ele>
        <time>2019-05-02T09:09:00.999Z</time>
      </trkpt>
      <trkpt lat="48.2482746" lon="14.4308709">
        <ele>251.486</ele>
        <time>2019-05-02T09:09:01.999Z</time>
      </trkpt>
      <trkpt lat="48.2482746" lon="14.4308709">
        <ele>251.374</ele>
        <time>2019-05-02T09:09:02.099Z</time>
      </trkpt>
      <trkpt lat="48.2481278" lon="14.4307292">
        <ele>251.236</ele>
        <time>2019-05-02T09:09:09.820Z</time>
      </trkpt>
      <trkpt lat="48.2480416" lon="14.4306475">
        <ele>251.108</ele>
        <time>2019-05-02T09:09:12.840Z</time>
      </trkpt>
      <trkpt lat="48.2479637" lon="14.4305535">
        <ele>250.947</ele>
        <time>2019-05-02T09:09:15.653Z</time>
      </trkpt>
      <trkpt lat="48.2478764" lon="14.4304597">
        <ele>250.843</ele>
        <time>2019-05-02T09:09:18.521Z</time>
      </trkpt>
      <trkpt lat="48.2477815" lon="14.4303822">
        <ele>251.022</ele>
        <time>2019-05-02T09:09:21.268Z</time>
      </trkpt>
      <trkpt lat="48.2476839" lon="14.4302976">
        <ele>251.545</ele>
        <time>2019-05-02T09:09:24.074Z</time>
      </trkpt>
      <trkpt lat="48.2475974" lon="14.4302227">
        <ele>252.138</ele>
        <time>2019-05-02T09:09:26.580Z</time>
      </trkpt>
      <trkpt lat="48.2475073" lon="14.4301408">
        <ele>252.423</ele>
        <time>2019-05-02T09:09:29.268Z</time>
      </trkpt>
      <trkpt lat="48.2474190" lon="14.4300704">
        <ele>252.285</ele>
        <time>2019-05-02T09:09:31.905Z</time>
      </trkpt>
      <trkpt lat="48.2473361" lon="14.4300165">
        <ele>251.877</ele>
        <time>2019-05-02T09:09:34.391Z</time>
      </trkpt>
      <trkpt lat="48.2472560" lon="14.4299553">
        <ele>251.366</ele>
        <time>2019-05-02T09:09:36.999Z</time>
      </trkpt>
      <trkpt lat="48.2472560" lon="14.4299553">
        <ele>250.879</ele>
        <time>2019-05-02T09:09:36.999Z</time>
      </trkpt>
      <trkpt lat="48.2472560" lon="14.4299553">
        <ele>250.573</ele>
        <time>2019-05-02T09:09:37.099Z</time>
      </trkpt>
      <trkpt lat="48.2471251" lon="14.4298275">
        <ele>250.491</ele>
        <time>2019-05-02T09:09:46.279Z</time>
      </trkpt>
      <trkpt lat="48.2470243" lon="14.4297444">
        <ele>250.480</ele>
        <time>2019-05-02T09:09:51.306Z</time>
      </trkpt>
      <trkpt lat="48.2469299" lon="14.4296824">
        <ele>250.415</ele>
        <time>2019-05-02T09:09:56.369Z</time>
      </trkpt>
      <trkpt lat="48.2468909" lon="14.4295579">
        <ele>250.322</ele>
        <time>2019-05-02T09:10:03.218Z</time>
      </trkpt>
      <trkpt lat="48.2468581" lon="14.4294173">
        <ele>250.602</ele>
        <time>2019-05-02T09:10:10.999Z</time>
      </trkpt>
      <trkpt lat="48.2468581" lon="14.4294173">
        <ele>251.463</ele>
        <time>2019-05-02T09:10:20.999Z</time>
      </trkpt>
      <trkpt lat="48.2468581" lon="14.4294173">
        <ele>252.156</ele>
        <time>2019-05-02T09:10:33.322Z</time>
      </trkpt>
      <trkpt lat="48.2470606" lon="14.4294124">
        <ele>252.041</ele>
        <time>2019-05-02T09:10:54.906Z</time>
      </trkpt>
      <trkpt lat="48.2471628" lon="14.4294475">
        <ele>251.929</ele>
        <time>2019-05-02T09:11:01.610Z</time>
      </trkpt>
      <trkpt lat="48.2472544" lon="14.4295162">
        <ele>252.588</ele>
        <time>2019-05-02T09:11:06.684Z</time>
      </trkpt>
      <trkpt lat="48.2473469" lon="14.4295915">
        <ele>253.505</ele>
        <time>2019-05-02T09:11:11.161Z</time>
      </trkpt>
      <trkpt lat="48.2474430" lon="14.4296736">
        <ele>253.512</ele>
        <time>2019-05-02T09:11:16.180Z</time>
      </trkpt>
      <trkpt lat="48.2475414" lon="14.4297589">
        <ele>251.718</ele>
        <time>2019-05-02T09:11:21.244Z</time>
      </trkpt>
      <trkpt lat="48.2476202" lon="14.4298627">
        <ele>248.731</ele>
        <time>2019-05-02T09:11:25.115Z</time>
      </trkpt>
      <trkpt lat="48.2477090" lon="14.4299945">
        <ele>246.651</ele>
        <time>2019-05-02T09:11:29.117Z</time>
      </trkpt>
      <trkpt lat="48.2477998" lon="14.4301079">
        <ele>246.686</ele>
        <time>2019-05-02T09:11:32.700Z</time>
      </trkpt>
      <trkpt lat="48.2479136" lon="14.4302994">
        <ele>248.235</ele>
        <time>2019-05-02T09:11:37.920Z</time>
      </trkpt>
      <trkpt lat="48.2479692" lon="14.4305335">
        <ele>250.015</ele>
        <time>2019-05-02T09:11:42.956Z</time>
      </trkpt>
      <trkpt lat="48.2480279" lon="14.4306519">
        <ele>251.123</ele>
        <time>2019-05-02T09:11:45.885Z</time>
      </trkpt>
      <trkpt lat="48.2481197" lon="14.4307772">
        <ele>251.459</ele>
        <time>2019-05-02T09:11:49.533Z</time>
      </trkpt>
      <trkpt lat="48.2482067" lon="14.4308727">
        <ele>251.400</ele>
        <time>2019-05-02T09:11:52.594Z</time>
      </trkpt>
      <trkpt lat="48.2482827" lon="14.4309447">
        <ele>251.577</ele>
        <time>2019-05-02T09:11:55.202Z</time>
      </trkpt>
      <trkpt lat="48.2483621" lon="14.4310620">
        <ele>252.338</ele>
        <time>2019-05-02T09:11:58.763Z</time>
      </trkpt>
      <trkpt lat="48.2484491" lon="14.4311412">
        <ele>253.223</ele>
        <time>2019-05-02T09:12:02.621Z</time>
      </trkpt>
      <trkpt lat="48.2485504" lon="14.4312286">
        <ele>253.606</ele>
        <time>2019-05-02T09:12:08.129Z</time>
      </trkpt>
      <trkpt lat="48.2486413" lon="14.4312866">
        <ele>253.126</ele>
        <time>2019-05-02T09:12:13.572Z</time>
      </trkpt>
      <trkpt lat="48.2487316" lon="14.4312857">
        <ele>251.448</ele>
        <time>2019-05-02T09:12:18.634Z</time>
      </trkpt>
      <trkpt lat="48.2488170" lon="14.4313751">
        <ele>248.104</ele>
        <time>2019-05-02T09:12:23.554Z</time>
      </trkpt>
      <trkpt lat="48.2489203" lon="14.4314546">
        <ele>243.668</ele>
        <time>2019-05-02T09:12:27.613Z</time>
      </trkpt>
      <trkpt lat="48.2490163" lon="14.4315635">
        <ele>240.139</ele>
        <time>2019-05-02T09:12:31.327Z</time>
      </trkpt>
      <trkpt lat="48.2490948" lon="14.4316309">
        <ele>238.945</ele>
        <time>2019-05-02T09:12:33.863Z</time>
      </trkpt>
      <trkpt lat="48.2491983" lon="14.4317202">
        <ele>239.558</ele>
        <time>2019-05-02T09:12:36.947Z</time>
      </trkpt>
      <trkpt lat="48.2492958" lon="14.4318273">
        <ele>240.524</ele>
        <time>2019-05-02T09:12:39.907Z</time>
      </trkpt>
      <trkpt lat="48.2493792" lon="14.4319572">
        <ele>240.843</ele>
        <time>2019-05-02T09:12:42.767Z</time>
      </trkpt>
      <trkpt lat="48.2494767" lon="14.4320290">
        <ele>240.241</ele>
        <time>2019-05-02T09:12:45.328Z</time>
      </trkpt>
      <trkpt lat="48.2495813" lon="14.4321490">
        <ele>238.527</ele>
        <time>2019-05-02T09:12:48.447Z</time>
      </trkpt>
      <trkpt lat="48.2496404" lon="14.4322546">
        <ele>236.269</ele>
        <time>2019-05-02T09:12:50.635Z</time>
      </trkpt>
      <trkpt lat="48.2497374" lon="14.4323375">
        <ele>234.575</ele>
        <time>2019-05-02T09:12:53.306Z</time>
      </trkpt>
      <trkpt lat="48.2498162" lon="14.4324366">
        <ele>233.665</ele>
        <time>2019-05-02T09:12:55.771Z</time>
      </trkpt>
      <trkpt lat="48.2499073" lon="14.4325350">
        <ele>232.994</ele>
        <time>2019-05-02T09:12:58.358Z</time>
      </trkpt>
      <trkpt lat="48.2500112" lon="14.4326247">
        <ele>232.340</ele>
        <time>2019-05-02T09:13:01.047Z</time>
      </trkpt>
      <trkpt lat="48.2501217" lon="14.4327559">
        <ele>231.987</ele>
        <time>2019-05-02T09:13:04.152Z</time>
      </trkpt>
      <trkpt lat="48.2502355" lon="14.4328670">
        <ele>232.087</ele>
        <time>2019-05-02T09:13:07.108Z</time>
      </trkpt>
      <trkpt lat="48.2503370" lon="14.4329596">
        <ele>232.247</ele>
        <time>2019-05-02T09:13:09.710Z</time>
      </trkpt>
      <trkpt lat="48.2504488" lon="14.4330882">
        <ele>231.959</ele>
        <time>2019-05-02T09:13:12.758Z</time>
      </trkpt>
      <trkpt lat="48.2505710" lon="14.4332028">
        <ele>231.223</ele>
        <time>2019-05-02T09:13:15.746Z</time>
      </trkpt>
      <trkpt lat="48.2506794" lon="14.4333148">
        <ele>230.463</ele>
        <time>2019-05-02T09:13:18.428Z</time>
      </trkpt>
      <trkpt lat="48.2508381" lon="14.4333428">
        <ele>229.996</ele>
        <time>2019-05-02T09:13:21.852Z</time>
      </trkpt>
      <trkpt lat="48.2509516" lon="14.4332097">
        <ele>232.884</ele>
        <time>2019-05-02T09:13:25.263Z</time>
      </trkpt>
      <trkpt lat="48.2510441" lon="14.4330764">
        <ele>240.949</ele>
        <time>2019-05-02T09:13:28.432Z</time>
      </trkpt>
      <trkpt lat="48.2511262" lon="14.4329962">
        <ele>249.442</ele>
        <time>2019-05-02T09:13:30.911Z</time>
      </trkpt>
      <trkpt lat="48.2512086" lon="14.4328397">
        <ele>253.659</ele>
        <time>2019-05-02T09:13:34.056Z</time>
      </trkpt>
      <trkpt lat="48.2512972" lon="14.4325771">
        <ele>254.433</ele>
        <time>2019-05-02T09:13:37.823Z</time>
      </trkpt>
      <trkpt lat="48.2515481" lon="14.4316690">
        <ele>253.138</ele>
        <time>2019-05-02T09:13:47.308Z</time>
      </trkpt>
      <trkpt lat="48.2514505" lon="14.4309889">
        <ele>252.801</ele>
        <time>2019-05-02T09:13:54.208Z</time>
      </trkpt>
      <trkpt lat="48.2514652" lon="14.4307787">
        <ele>252.742</ele>
        <time>2019-05-02T09:13:56.733Z</time>
      </trkpt>
      <trkpt lat="48.2515235" lon="14.4305931">
        <ele>252.729</ele>
        <time>2019-05-02T09:13:59.329Z</time>
      </trkpt>
      <trkpt lat="48.2515916" lon="14.4304169">
        <ele>252.560</ele>
        <time>2019-05-02T09:14:01.999Z</time>
      </trkpt>
      <trkpt lat="48.2515916" lon="14.4304169">
        <ele>252.267</ele>
        <time>2019-05-02T09:14:06.999Z</time>
      </trkpt>
      <trkpt lat="48.2515916" lon="14.4304169">
        <ele>252.036</ele>
        <time>2019-05-02T09:14:48.596Z</time>
      </trkpt>
      <trkpt lat="48.2516865" lon="14.4301521">
        <ele>251.982</ele>
        <time>2019-05-02T09:15:01.014Z</time>
      </trkpt>
      <trkpt lat="48.2517338" lon="14.4300214">
        <ele>252.086</ele>
        <time>2019-05-02T09:15:03.913Z</time>
      </trkpt>
      <trkpt lat="48.2517955" lon="14.4299076">
        <ele>252.234</ele>
        <time>2019-05-02T09:15:06.452Z</time>
      </trkpt>
      <trkpt lat="48.2518478" lon="14.4297785">
        <ele>252.299</ele>
        <time>2019-05-02T09:15:08.970Z</time>
      </trkpt>
      <trkpt lat="48.2519322" lon="14.4296934">
        <ele>252.260</ele>
        <time>2019-05-02T09:15:11.498Z</time>
      </trkpt>
      <trkpt lat="48.2520206" lon="14.4295382">
        <ele>252.239</ele>
        <time>2019-05-02T09:15:14.890Z</time>
      </trkpt>
      <trkpt lat="48.2521111" lon="14.4293989">
        <ele>252.328</ele>
        <time>2019-05-02T09:15:18.147Z</time>
      </trkpt>
      <trkpt lat="48.2522029" lon="14.4292323">
        <ele>252.447</ele>
        <time>2019-05-02T09:15:21.771Z</time>
      </trkpt>
      <trkpt lat="48.2522630" lon="14.4291203">
        <ele>252.502</ele>
        <time>2019-05-02T09:15:24.095Z</time>
      </trkpt>
      <trkpt lat="48.2523487" lon="14.4289670">
        <ele>252.505</ele>
        <time>2019-05-02T09:15:27.117Z</time>
      </trkpt>
      <trkpt lat="48.2524273" lon="14.4288285">
        <ele>252.490</ele>
        <time>2019-05-02T09:15:29.763Z</time>
      </trkpt>
      <trkpt lat="48.2525168" lon="14.4286632">
        <ele>252.476</ele>
        <time>2019-05-02T09:15:32.855Z</time>
      </trkpt>
      <trkpt lat="48.2525621" lon="14.4285427">
        <ele>252.489</ele>
        <time>2019-05-02T09:15:34.948Z</time>
      </trkpt>
      <trkpt lat="48.2525950" lon="14.4283882">
        <ele>252.552</ele>
        <time>2019-05-02T09:15:37.478Z</time>
      </trkpt>
      <trkpt lat="48.2526410" lon="14.4282601">
        <ele>252.641</ele>
        <time>2019-05-02T09:15:39.823Z</time>
      </trkpt>
      <trkpt lat="48.2527116" lon="14.4281451">
        <ele>252.704</ele>
        <time>2019-05-02T09:15:42.415Z</time>
      </trkpt>
      <trkpt lat="48.2527739" lon="14.4280460">
        <ele>252.693</ele>
        <time>2019-05-02T09:15:44.755Z</time>
      </trkpt>
      <trkpt lat="48.2528548" lon="14.4279045">
        <ele>252.603</ele>
        <time>2019-05-02T09:15:48.000Z</time>
      </trkpt>
      <trkpt lat="48.2528548" lon="14.4279045">
        <ele>252.504</ele>
        <time>2019-05-02T09:15:50.000Z</time>
      </trkpt>
      <trkpt lat="48.2528548" lon="14.4279045">
        <ele>252.434</ele>
        <time>2019-05-02T09:15:50.100Z</time>
      </trkpt>
      <trkpt lat="48.2529428" lon="14.4276078">
        <ele>252.357</ele>
        <time>2019-05-02T09:16:02.367Z</time>
      </trkpt>
      <trkpt lat="48.2528355" lon="14.4274705">
        <ele>252.263</ele>
        <time>2019-05-02T09:16:08.332Z</time>
      </trkpt>
      <trkpt lat="48.2528894" lon="14.4273335">
        <ele>252.168</ele>
        <time>2019-05-02T09:16:11.566Z</time>
      </trkpt>
      <trkpt lat="48.2529538" lon="14.4272218">
        <ele>252.009</ele>
        <time>2019-05-02T09:16:14.096Z</time>
      </trkpt>
      <trkpt lat="48.2530203" lon="14.4270814">
        <ele>251.759</ele>
        <time>2019-05-02T09:16:16.898Z</time>
      </trkpt>
      <trkpt lat="48.2531069" lon="14.4269406">
        <ele>251.599</ele>
        <time>2019-05-02T09:16:19.954Z</time>
      </trkpt>
      <trkpt lat="48.2531717" lon="14.4267977">
        <ele>251.659</ele>
        <time>2019-05-02T09:16:22.626Z</time>
      </trkpt>
      <trkpt lat="48.2532447" lon="14.4266515">
        <ele>251.822</ele>
        <time>2019-05-02T09:16:25.440Z</time>
      </trkpt>
      <trkpt lat="48.2533121" lon="14.4265052">
        <ele>251.955</ele>
        <time>2019-05-02T09:16:28.247Z</time>
      </trkpt>
      <trkpt lat="48.2533923" lon="14.4263885">
        <ele>252.078</ele>
        <time>2019-05-02T09:16:30.917Z</time>
      </trkpt>
      <trkpt lat="48.2534534" lon="14.4262316">
        <ele>252.231</ele>
        <time>2019-05-02T09:16:33.750Z</time>
      </trkpt>
      <trkpt lat="48.2535335" lon="14.4260813">
        <ele>252.357</ele>
        <time>2019-05-02T09:16:36.640Z</time>
      </trkpt>
      <trkpt lat="48.2536050" lon="14.4259348">
        <ele>252.396</ele>
        <time>2019-05-02T09:16:39.314Z</time>
      </trkpt>
      <trkpt lat="48.2536563" lon="14.4257779">
        <ele>252.382</ele>
        <time>2019-05-02T09:16:41.891Z</time>
      </trkpt>
      <trkpt lat="48.2537090" lon="14.4256117">
        <ele>252.390</ele>
        <time>2019-05-02T09:16:44.628Z</time>
      </trkpt>
      <trkpt lat="48.2537558" lon="14.4254515">
        <ele>252.455</ele>
        <time>2019-05-02T09:16:47.229Z</time>
      </trkpt>
      <trkpt lat="48.2538275" lon="14.4252935">
        <ele>252.490</ele>
        <time>2019-05-02T09:16:50.066Z</time>
      </trkpt>
      <trkpt lat="48.2539149" lon="14.4251421">
        <ele>252.421</ele>
        <time>2019-05-02T09:16:52.999Z</time>
      </trkpt>
      <trkpt lat="48.2539149" lon="14.4251421">
        <ele>252.299</ele>
        <time>2019-05-02T09:16:53.999Z</time>
      </trkpt>
      <trkpt lat="48.2539149" lon="14.4251421">
        <ele>252.193</ele>
        <time>2019-05-02T09:16:54.099Z</time>
      </trkpt>
      <trkpt lat="48.2540559" lon="14.4249509">
        <ele>252.130</ele>
        <time>2019-05-02T09:17:00.413Z</time>
      </trkpt>
      <trkpt lat="48.2541206" lon="14.4247836">
        <ele>252.200</ele>
        <time>2019-05-02T09:17:03.383Z</time>
      </trkpt>
      <trkpt lat="48.2541852" lon="14.4246401">
        <ele>252.436</ele>
        <time>2019-05-02T09:17:05.975Z</time>
      </trkpt>
      <trkpt lat="48.2542263" lon="14.4244855">
        <ele>252.685</ele>
        <time>2019-05-02T09:17:08.401Z</time>
      </trkpt>
      <trkpt lat="48.2542848" lon="14.4242600">
        <ele>252.806</ele>
        <time>2019-05-02T09:17:11.843Z</time>
      </trkpt>
      <trkpt lat="48.2543890" lon="14.4240564">
        <ele>252.822</ele>
        <time>2019-05-02T09:17:15.405Z</time>
      </trkpt>
      <trkpt lat="48.2544672" lon="14.4238531">
        <ele>252.779</ele>
        <time>2019-05-02T09:17:18.615Z</time>
      </trkpt>
      <trkpt lat="48.2545507" lon="14.4236656">
        <ele>252.714</ele>
        <time>2019-05-02T09:17:21.798Z</time>
      </trkpt>
      <trkpt lat="48.2546378" lon="14.4235186">
        <ele>252.672</ele>
        <time>2019-05-02T09:17:24.685Z</time>
      </trkpt>
      <trkpt lat="48.2547371" lon="14.4233654">
        <ele>252.672</ele>
        <time>2019-05-02T09:17:27.789Z</time>
      </trkpt>
      <trkpt lat="48.2548241" lon="14.4232163">
        <ele>252.691</ele>
        <time>2019-05-02T09:17:30.663Z</time>
      </trkpt>
      <trkpt lat="48.2549078" lon="14.4230506">
        <ele>252.721</ele>
        <time>2019-05-02T09:17:33.686Z</time>
      </trkpt>
      <trkpt lat="48.2549617" lon="14.4228835">
        <ele>252.772</ele>
        <time>2019-05-02T09:17:36.417Z</time>
      </trkpt>
      <trkpt lat="48.2550139" lon="14.4227357">
        <ele>252.834</ele>
        <time>2019-05-02T09:17:38.930Z</time>
      </trkpt>
      <trkpt lat="48.2550540" lon="14.4225714">
        <ele>252.944</ele>
        <time>2019-05-02T09:17:41.472Z</time>
      </trkpt>
      <trkpt lat="48.2551331" lon="14.4223259">
        <ele>253.130</ele>
        <time>2019-05-02T09:17:45.289Z</time>
      </trkpt>
      <trkpt lat="48.2552263" lon="14.4222334">
        <ele>253.316</ele>
        <time>2019-05-02T09:17:47.696Z</time>
      </trkpt>
      <trkpt lat="48.2553021" lon="14.4221030">
        <ele>253.435</ele>
        <time>2019-05-02T09:17:50.227Z</time>
      </trkpt>
      <trkpt lat="48.2553993" lon="14.4219877">
        <ele>253.495</ele>
        <time>2019-05-02T09:17:52.962Z</time>
      </trkpt>
      <trkpt lat="48.2554898" lon="14.4218669">
        <ele>253.519</ele>
        <time>2019-05-02T09:17:55.669Z</time>
      </trkpt>
      <trkpt lat="48.2556084" lon="14.4217948">
        <ele>253.527</ele>
        <time>2019-05-02T09:17:58.624Z</time>
      </trkpt>
      <trkpt lat="48.2557346" lon="14.4216791">
        <ele>253.563</ele>
        <time>2019-05-02T09:18:01.988Z</time>
      </trkpt>
      <trkpt lat="48.2558341" lon="14.4215803">
        <ele>253.719</ele>
        <time>2019-05-02T09:18:04.541Z</time>
      </trkpt>
      <trkpt lat="48.2559705" lon="14.4214502">
        <ele>254.015</ele>
        <time>2019-05-02T09:18:07.822Z</time>
      </trkpt>
      <trkpt lat="48.2560602" lon="14.4213980">
        <ele>254.331</ele>
        <time>2019-05-02T09:18:09.762Z</time>
      </trkpt>
      <trkpt lat="48.2561850" lon="14.4213519">
        <ele>254.493</ele>
        <time>2019-05-02T09:18:12.422Z</time>
      </trkpt>
      <trkpt lat="48.2563553" lon="14.4213354">
        <ele>254.432</ele>
        <time>2019-05-02T09:18:15.998Z</time>
      </trkpt>
      <trkpt lat="48.2565289" lon="14.4213069">
        <ele>254.237</ele>
        <time>2019-05-02T09:18:19.395Z</time>
      </trkpt>
      <trkpt lat="48.2566657" lon="14.4213330">
        <ele>254.054</ele>
        <time>2019-05-02T09:18:22.012Z</time>
      </trkpt>
      <trkpt lat="48.2567926" lon="14.4213761">
        <ele>253.958</ele>
        <time>2019-05-02T09:18:24.552Z</time>
      </trkpt>
      <trkpt lat="48.2569376" lon="14.4214524">
        <ele>253.911</ele>
        <time>2019-05-02T09:18:27.534Z</time>
      </trkpt>
      <trkpt lat="48.2570630" lon="14.4215487">
        <ele>253.791</ele>
        <time>2019-05-02T09:18:30.121Z</time>
      </trkpt>
      <trkpt lat="48.2571806" lon="14.4216860">
        <ele>253.466</ele>
        <time>2019-05-02T09:18:32.836Z</time>
      </trkpt>
      <trkpt lat="48.2572497" lon="14.4217947">
        <ele>252.874</ele>
        <time>2019-05-02T09:18:34.742Z</time>
      </trkpt>
      <trkpt lat="48.2573464" lon="14.4219208">
        <ele>252.116</ele>
        <time>2019-05-02T09:18:37.418Z</time>
      </trkpt>
      <trkpt lat="48.2574374" lon="14.4220183">
        <ele>251.350</ele>
        <time>2019-05-02T09:18:40.002Z</time>
      </trkpt>
      <trkpt lat="48.2575618" lon="14.4221340">
        <ele>250.600</ele>
        <time>2019-05-02T09:18:43.404Z</time>
      </trkpt>
      <trkpt lat="48.2577465" lon="14.4222272">
        <ele>249.678</ele>
        <time>2019-05-02T09:18:47.092Z</time>
      </trkpt>
      <trkpt lat="48.2579265" lon="14.4223152">
        <ele>248.306</ele>
        <time>2019-05-02T09:18:50.071Z</time>
      </trkpt>
      <trkpt lat="48.2580752" lon="14.4224204">
        <ele>246.708</ele>
        <time>2019-05-02T09:18:52.833Z</time>
      </trkpt>
      <trkpt lat="48.2581916" lon="14.4224952">
        <ele>245.597</ele>
        <time>2019-05-02T09:18:55.389Z</time>
      </trkpt>
      <trkpt lat="48.2583385" lon="14.4225646">
        <ele>245.619</ele>
        <time>2019-05-02T09:18:58.998Z</time>
      </trkpt>
      <trkpt lat="48.2583385" lon="14.4225646">
        <ele>246.660</ele>
        <time>2019-05-02T09:19:04.998Z</time>
      </trkpt>
      <trkpt lat="48.2583385" lon="14.4225646">
        <ele>247.551</ele>
        <time>2019-05-02T09:20:36.998Z</time>
      </trkpt>
      <trkpt lat="48.2584381" lon="14.4232258">
        <ele>215.658</ele>
        <time>2019-05-02T09:20:57.541Z</time>
      </trkpt>
      <trkpt lat="48.2583971" lon="14.4233503">
        <ele>215.559</ele>
        <time>2019-05-02T09:20:59.448Z</time>
      </trkpt>
      <trkpt lat="48.2583389" lon="14.4235126">
        <ele>220.807</ele>
        <time>2019-05-02T09:21:01.871Z</time>
      </trkpt>
      <trkpt lat="48.2582722" lon="14.4237171">
        <ele>234.573</ele>
        <time>2019-05-02T09:21:04.785Z</time>
      </trkpt>
      <trkpt lat="48.2582328" lon="14.4240487">
        <ele>248.626</ele>
        <time>2019-05-02T09:21:09.140Z</time>
      </trkpt>
      <trkpt lat="48.2582708" lon="14.4242753">
        <ele>255.011</ele>
        <time>2019-05-02T09:21:11.998Z</time>
      </trkpt>
      <trkpt lat="48.2582922" lon="14.4244918">
        <ele>255.496</ele>
        <time>2019-05-02T09:21:14.628Z</time>
      </trkpt>
      <trkpt lat="48.2583156" lon="14.4247135">
        <ele>253.852</ele>
        <time>2019-05-02T09:21:17.425Z</time>
      </trkpt>
      <trkpt lat="48.2583652" lon="14.4249828">
        <ele>252.401</ele>
        <time>2019-05-02T09:21:21.093Z</time>
      </trkpt>
      <trkpt lat="48.2583549" lon="14.4252081">
        <ele>251.696</ele>
        <time>2019-05-02T09:21:23.986Z</time>
      </trkpt>
      <trkpt lat="48.2583652" lon="14.4254070">
        <ele>251.391</ele>
        <time>2019-05-02T09:21:26.442Z</time>
      </trkpt>
      <trkpt lat="48.2583620" lon="14.4256092">
        <ele>251.051</ele>
        <time>2019-05-02T09:21:28.929Z</time>
      </trkpt>
      <trkpt lat="48.2583936" lon="14.4258564">
        <ele>250.563</ele>
        <time>2019-05-02T09:21:32.210Z</time>
      </trkpt>
      <trkpt lat="48.2583736" lon="14.4261412">
        <ele>250.120</ele>
        <time>2019-05-02T09:21:36.241Z</time>
      </trkpt>
      <trkpt lat="48.2583750" lon="14.4263767">
        <ele>249.891</ele>
        <time>2019-05-02T09:21:39.548Z</time>
      </trkpt>
      <trkpt lat="48.2584101" lon="14.4265600">
        <ele>249.845</ele>
        <time>2019-05-02T09:21:42.272Z</time>
      </trkpt>
      <trkpt lat="48.2584363" lon="14.4267631">
        <ele>249.886</ele>
        <time>2019-05-02T09:21:45.361Z</time>
      </trkpt>
      <trkpt lat="48.2584308" lon="14.4269748">
        <ele>249.968</ele>
        <time>2019-05-02T09:21:48.727Z</time>
      </trkpt>
      <trkpt lat="48.2584511" lon="14.4271722">
        <ele>250.068</ele>
        <time>2019-05-02T09:21:51.873Z</time>
      </trkpt>
      <trkpt lat="48.2584859" lon="14.4273124">
        <ele>250.084</ele>
        <time>2019-05-02T09:21:53.962Z</time>
      </trkpt>
      <trkpt lat="48.2585296" lon="14.4274646">
        <ele>249.892</ele>
        <time>2019-05-02T09:21:55.888Z</time>
      </trkpt>
      <trkpt lat="48.2585619" lon="14.4276325">
        <ele>249.554</ele>
        <time>2019-05-02T09:21:57.732Z</time>
      </trkpt>
      <trkpt lat="48.2585911" lon="14.4277868">
        <ele>249.276</ele>
        <time>2019-05-02T09:21:59.450Z</time>
      </trkpt>
      <trkpt lat="48.2586511" lon="14.4279477">
        <ele>249.126</ele>
        <time>2019-05-02T09:22:01.450Z</time>
      </trkpt>
      <trkpt lat="48.2587168" lon="14.4280998">
        <ele>248.999</ele>
        <time>2019-05-02T09:22:03.418Z</time>
      </trkpt>
      <trkpt lat="48.2587781" lon="14.4282478">
        <ele>248.833</ele>
        <time>2019-05-02T09:22:05.307Z</time>
      </trkpt>
      <trkpt lat="48.2588207" lon="14.4284079">
        <ele>248.655</ele>
        <time>2019-05-02T09:22:07.168Z</time>
      </trkpt>
      <trkpt lat="48.2588633" lon="14.4285784">
        <ele>248.491</ele>
        <time>2019-05-02T09:22:09.128Z</time>
      </trkpt>
      <trkpt lat="48.2589053" lon="14.4287268">
        <ele>248.354</ele>
        <time>2019-05-02T09:22:10.853Z</time>
      </trkpt>
      <trkpt lat="48.2589520" lon="14.4288897">
        <ele>248.275</ele>
        <time>2019-05-02T09:22:12.724Z</time>
      </trkpt>
      <trkpt lat="48.2589943" lon="14.4290291">
        <ele>248.223</ele>
        <time>2019-05-02T09:22:14.319Z</time>
      </trkpt>
      <trkpt lat="48.2590386" lon="14.4291849">
        <ele>248.093</ele>
        <time>2019-05-02T09:22:16.080Z</time>
      </trkpt>
      <trkpt lat="48.2591635" lon="14.4294167">
        <ele>247.859</ele>
        <time>2019-05-02T09:22:19.174Z</time>
      </trkpt>
      <trkpt lat="48.2592523" lon="14.4295435">
        <ele>247.617</ele>
        <time>2019-05-02T09:22:21.056Z</time>
      </trkpt>
      <trkpt lat="48.2593389" lon="14.4296605">
        <ele>247.457</ele>
        <time>2019-05-02T09:22:22.854Z</time>
      </trkpt>
      <trkpt lat="48.2594301" lon="14.4298093">
        <ele>247.391</ele>
        <time>2019-05-02T09:22:24.992Z</time>
      </trkpt>
      <trkpt lat="48.2595156" lon="14.4299591">
        <ele>247.383</ele>
        <time>2019-05-02T09:22:27.073Z</time>
      </trkpt>
      <trkpt lat="48.2595940" lon="14.4300964">
        <ele>247.395</ele>
        <time>2019-05-02T09:22:28.920Z</time>
      </trkpt>
      <trkpt lat="48.2596754" lon="14.4302741">
        <ele>247.405</ele>
        <time>2019-05-02T09:22:31.113Z</time>
      </trkpt>
      <trkpt lat="48.2597861" lon="14.4304033">
        <ele>247.409</ele>
        <time>2019-05-02T09:22:33.323Z</time>
      </trkpt>
      <trkpt lat="48.2598599" lon="14.4305360">
        <ele>247.409</ele>
        <time>2019-05-02T09:22:35.169Z</time>
      </trkpt>
      <trkpt lat="48.2599205" lon="14.4306738">
        <ele>247.408</ele>
        <time>2019-05-02T09:22:36.933Z</time>
      </trkpt>
      <trkpt lat="48.2599684" lon="14.4308501">
        <ele>247.407</ele>
        <time>2019-05-02T09:22:39.055Z</time>
      </trkpt>
      <trkpt lat="48.2600253" lon="14.4310098">
        <ele>247.407</ele>
        <time>2019-05-02T09:22:41.460Z</time>
      </trkpt>
      <trkpt lat="48.2600707" lon="14.4311784">
        <ele>247.407</ele>
        <time>2019-05-02T09:22:44.515Z</time>
      </trkpt>
      <trkpt lat="48.2601171" lon="14.4313579">
        <ele>247.407</ele>
        <time>2019-05-02T09:22:48.270Z</time>
      </trkpt>
      <trkpt lat="48.2601696" lon="14.4314757">
        <ele>247.407</ele>
        <time>2019-05-02T09:22:50.950Z</time>
      </trkpt>
      <trkpt lat="48.2602374" lon="14.4315742">
        <ele>247.407</ele>
        <time>2019-05-02T09:22:53.605Z</time>
      </trkpt>
      <trkpt lat="48.2602856" lon="14.4317079">
        <ele>247.407</ele>
        <time>2019-05-02T09:22:56.559Z</time>
      </trkpt>
      <trkpt lat="48.2603561" lon="14.4318455">
        <ele>247.407</ele>
        <time>2019-05-02T09:23:00.362Z</time>
      </trkpt>
      <trkpt lat="48.2604284" lon="14.4319718">
        <ele>247.407</ele>
        <time>2019-05-02T09:23:04.241Z</time>
      </trkpt>
      <trkpt lat="48.2604870" lon="14.4321063">
        <ele>247.407</ele>
        <time>2019-05-02T09:23:07.870Z</time>
      </trkpt>
      <trkpt lat="48.2605448" lon="14.4322319">
        <ele>247.407</ele>
        <time>2019-05-02T09:23:11.063Z</time>
      </trkpt>
      <trkpt lat="48.2605895" lon="14.4323490">
        <ele>247.407</ele>
        <time>2019-05-02T09:23:13.547Z</time>
      </trkpt>
      <trkpt lat="48.2606798" lon="14.4324748">
        <ele>247.384</ele>
        <time>2019-05-02T09:23:16.671Z</time>
      </trkpt>
      <trkpt lat="48.2607619" lon="14.4325954">
        <ele>247.291</ele>
        <time>2019-05-02T09:23:19.527Z</time>
      </trkpt>
      <trkpt lat="48.2608202" lon="14.4327129">
        <ele>247.142</ele>
        <time>2019-05-02T09:23:21.873Z</time>
      </trkpt>
      <trkpt lat="48.2608516" lon="14.4328683">
        <ele>247.066</ele>
        <time>2019-05-02T09:23:24.440Z</time>
      </trkpt>
      <trkpt lat="48.2609177" lon="14.4330461">
        <ele>247.129</ele>
        <time>2019-05-02T09:23:27.579Z</time>
      </trkpt>
      <trkpt lat="48.2609953" lon="14.4332045">
        <ele>247.196</ele>
        <time>2019-05-02T09:23:30.370Z</time>
      </trkpt>
      <trkpt lat="48.2610775" lon="14.4333758">
        <ele>247.009</ele>
        <time>2019-05-02T09:23:33.208Z</time>
      </trkpt>
      <trkpt lat="48.2611438" lon="14.4335371">
        <ele>246.936</ele>
        <time>2019-05-02T09:23:35.755Z</time>
      </trkpt>
      <trkpt lat="48.2612071" lon="14.4337069">
        <ele>246.982</ele>
        <time>2019-05-02T09:23:38.402Z</time>
      </trkpt>
      <trkpt lat="48.2612679" lon="14.4338619">
        <ele>247.131</ele>
        <time>2019-05-02T09:23:40.825Z</time>
      </trkpt>
      <trkpt lat="48.2613137" lon="14.4339789">
        <ele>247.292</ele>
        <time>2019-05-02T09:23:42.614Z</time>
      </trkpt>
      <trkpt lat="48.2614215" lon="14.4341768">
        <ele>247.387</ele>
        <time>2019-05-02T09:23:45.942Z</time>
      </trkpt>
      <trkpt lat="48.2614854" lon="14.4342890">
        <ele>247.414</ele>
        <time>2019-05-02T09:23:47.963Z</time>
      </trkpt>
      <trkpt lat="48.2615738" lon="14.4343995">
        <ele>247.406</ele>
        <time>2019-05-02T09:23:50.429Z</time>
      </trkpt>
      <trkpt lat="48.2616774" lon="14.4344892">
        <ele>247.394</ele>
        <time>2019-05-02T09:23:52.943Z</time>
      </trkpt>
      <trkpt lat="48.2618009" lon="14.4346128">
        <ele>247.393</ele>
        <time>2019-05-02T09:23:55.986Z</time>
      </trkpt>
      <trkpt lat="48.2618869" lon="14.4346819">
        <ele>247.398</ele>
        <time>2019-05-02T09:23:58.079Z</time>
      </trkpt>
      <trkpt lat="48.2619648" lon="14.4348184">
        <ele>247.404</ele>
        <time>2019-05-02T09:24:00.517Z</time>
      </trkpt>
      <trkpt lat="48.2620785" lon="14.4349979">
        <ele>247.400</ele>
        <time>2019-05-02T09:24:03.547Z</time>
      </trkpt>
      <trkpt lat="48.2621522" lon="14.4351152">
        <ele>247.320</ele>
        <time>2019-05-02T09:24:05.493Z</time>
      </trkpt>
      <trkpt lat="48.2622392" lon="14.4352370">
        <ele>247.089</ele>
        <time>2019-05-02T09:24:07.650Z</time>
      </trkpt>
      <trkpt lat="48.2623030" lon="14.4353796">
        <ele>246.772</ele>
        <time>2019-05-02T09:24:09.738Z</time>
      </trkpt>
      <trkpt lat="48.2623534" lon="14.4355043">
        <ele>246.527</ele>
        <time>2019-05-02T09:24:11.535Z</time>
      </trkpt>
      <trkpt lat="48.2624225" lon="14.4356128">
        <ele>246.469</ele>
        <time>2019-05-02T09:24:13.373Z</time>
      </trkpt>
      <trkpt lat="48.2624970" lon="14.4357290">
        <ele>246.630</ele>
        <time>2019-05-02T09:24:15.267Z</time>
      </trkpt>
      <trkpt lat="48.2626313" lon="14.4359316">
        <ele>246.918</ele>
        <time>2019-05-02T09:24:18.555Z</time>
      </trkpt>
      <trkpt lat="48.2627088" lon="14.4361676">
        <ele>247.182</ele>
        <time>2019-05-02T09:24:21.563Z</time>
      </trkpt>
      <trkpt lat="48.2627817" lon="14.4363886">
        <ele>247.343</ele>
        <time>2019-05-02T09:24:24.307Z</time>
      </trkpt>
      <trkpt lat="48.2628469" lon="14.4365822">
        <ele>247.400</ele>
        <time>2019-05-02T09:24:26.735Z</time>
      </trkpt>
      <trkpt lat="48.2628769" lon="14.4367501">
        <ele>247.385</ele>
        <time>2019-05-02T09:24:28.735Z</time>
      </trkpt>
      <trkpt lat="48.2629264" lon="14.4368910">
        <ele>247.291</ele>
        <time>2019-05-02T09:24:30.584Z</time>
      </trkpt>
      <trkpt lat="48.2629789" lon="14.4370038">
        <ele>247.098</ele>
        <time>2019-05-02T09:24:32.167Z</time>
      </trkpt>
      <trkpt lat="48.2630287" lon="14.4372054">
        <ele>246.842</ele>
        <time>2019-05-02T09:24:34.639Z</time>
      </trkpt>
      <trkpt lat="48.2630833" lon="14.4374098">
        <ele>246.598</ele>
        <time>2019-05-02T09:24:37.213Z</time>
      </trkpt>
      <trkpt lat="48.2631064" lon="14.4375940">
        <ele>246.422</ele>
        <time>2019-05-02T09:24:39.445Z</time>
      </trkpt>
      <trkpt lat="48.2631221" lon="14.4377384">
        <ele>246.350</ele>
        <time>2019-05-02T09:24:41.180Z</time>
      </trkpt>
      <trkpt lat="48.2631170" lon="14.4379126">
        <ele>246.376</ele>
        <time>2019-05-02T09:24:43.219Z</time>
      </trkpt>
      <trkpt lat="48.2631370" lon="14.4380598">
        <ele>246.448</ele>
        <time>2019-05-02T09:24:45.046Z</time>
      </trkpt>
      <trkpt lat="48.2632346" lon="14.4382978">
        <ele>246.514</ele>
        <time>2019-05-02T09:24:48.528Z</time>
      </trkpt>
      <trkpt lat="48.2633574" lon="14.4385003">
        <ele>246.575</ele>
        <time>2019-05-02T09:24:51.840Z</time>
      </trkpt>
      <trkpt lat="48.2634244" lon="14.4385930">
        <ele>246.698</ele>
        <time>2019-05-02T09:24:53.491Z</time>
      </trkpt>
      <trkpt lat="48.2635143" lon="14.4387069">
        <ele>246.928</ele>
        <time>2019-05-02T09:24:55.703Z</time>
      </trkpt>
      <trkpt lat="48.2635997" lon="14.4387683">
        <ele>247.231</ele>
        <time>2019-05-02T09:24:57.641Z</time>
      </trkpt>
      <trkpt lat="48.2636926" lon="14.4388393">
        <ele>247.555</ele>
        <time>2019-05-02T09:24:59.975Z</time>
      </trkpt>
      <trkpt lat="48.2637839" lon="14.4388593">
        <ele>247.912</ele>
        <time>2019-05-02T09:25:02.113Z</time>
      </trkpt>
      <trkpt lat="48.2638897" lon="14.4389007">
        <ele>248.340</ele>
        <time>2019-05-02T09:25:04.488Z</time>
      </trkpt>
      <trkpt lat="48.2640009" lon="14.4389601">
        <ele>248.841</ele>
        <time>2019-05-02T09:25:07.319Z</time>
      </trkpt>
      <trkpt lat="48.2640859" lon="14.4390396">
        <ele>249.470</ele>
        <time>2019-05-02T09:25:10.256Z</time>
      </trkpt>
      <trkpt lat="48.2642037" lon="14.4391325">
        <ele>250.280</ele>
        <time>2019-05-02T09:25:14.075Z</time>
      </trkpt>
      <trkpt lat="48.2643136" lon="14.4391974">
        <ele>251.173</ele>
        <time>2019-05-02T09:25:17.365Z</time>
      </trkpt>
      <trkpt lat="48.2644187" lon="14.4392763">
        <ele>252.015</ele>
        <time>2019-05-02T09:25:20.526Z</time>
      </trkpt>
      <trkpt lat="48.2645028" lon="14.4393290">
        <ele>252.739</ele>
        <time>2019-05-02T09:25:22.862Z</time>
      </trkpt>
      <trkpt lat="48.2645950" lon="14.4394248">
        <ele>253.313</ele>
        <time>2019-05-02T09:25:25.829Z</time>
      </trkpt>
      <trkpt lat="48.2646734" lon="14.4395016">
        <ele>253.722</ele>
        <time>2019-05-02T09:25:28.668Z</time>
      </trkpt>
      <trkpt lat="48.2647076" lon="14.4396464">
        <ele>253.956</ele>
        <time>2019-05-02T09:25:32.321Z</time>
      </trkpt>
      <trkpt lat="48.2647538" lon="14.4397790">
        <ele>254.036</ele>
        <time>2019-05-02T09:25:36.706Z</time>
      </trkpt>
      <trkpt lat="48.2648002" lon="14.4398957">
        <ele>254.042</ele>
        <time>2019-05-02T09:25:41.145Z</time>
      </trkpt>
      <trkpt lat="48.2647496" lon="14.4400180">
        <ele>254.059</ele>
        <time>2019-05-02T09:25:49.999Z</time>
      </trkpt>
      <trkpt lat="48.2647496" lon="14.4400180">
        <ele>254.110</ele>
        <time>2019-05-02T09:25:50.000Z</time>
      </trkpt>
      <trkpt lat="48.2647496" lon="14.4400180">
        <ele>254.158</ele>
        <time>2019-05-02T09:25:56.009Z</time>
      </trkpt>
      <trkpt lat="48.2648055" lon="14.4401867">
        <ele>254.169</ele>
        <time>2019-05-02T09:26:01.985Z</time>
      </trkpt>
      <trkpt lat="48.2648616" lon="14.4402971">
        <ele>254.146</ele>
        <time>2019-05-02T09:26:04.475Z</time>
      </trkpt>
      <trkpt lat="48.2648747" lon="14.4404408">
        <ele>254.148</ele>
        <time>2019-05-02T09:26:06.999Z</time>
      </trkpt>
      <trkpt lat="48.2648747" lon="14.4404408">
        <ele>254.218</ele>
        <time>2019-05-02T09:26:06.999Z</time>
      </trkpt>
      <trkpt lat="48.2648747" lon="14.4404408">
        <ele>254.245</ele>
        <time>2019-05-02T09:26:07.099Z</time>
      </trkpt>
      <trkpt lat="48.2649160" lon="14.4406352">
        <ele>254.140</ele>
        <time>2019-05-02T09:26:13.487Z</time>
      </trkpt>
      <trkpt lat="48.2649577" lon="14.4407933">
        <ele>254.091</ele>
        <time>2019-05-02T09:26:17.044Z</time>
      </trkpt>
      <trkpt lat="48.2649722" lon="14.4409338">
        <ele>254.282</ele>
        <time>2019-05-02T09:26:19.946Z</time>
      </trkpt>
      <trkpt lat="48.2649769" lon="14.4411118">
        <ele>254.576</ele>
        <time>2019-05-02T09:26:23.462Z</time>
      </trkpt>
      <trkpt lat="48.2649909" lon="14.4413061">
        <ele>254.704</ele>
        <time>2019-05-02T09:26:26.984Z</time>
      </trkpt>
      <trkpt lat="48.2650162" lon="14.4414799">
        <ele>254.558</ele>
        <time>2019-05-02T09:26:29.972Z</time>
      </trkpt>
      <trkpt lat="48.2650566" lon="14.4416397">
        <ele>254.254</ele>
        <time>2019-05-02T09:26:32.614Z</time>
      </trkpt>
      <trkpt lat="48.2650894" lon="14.4418274">
        <ele>253.952</ele>
        <time>2019-05-02T09:26:35.422Z</time>
      </trkpt>
      <trkpt lat="48.2651038" lon="14.4419725">
        <ele>253.663</ele>
        <time>2019-05-02T09:26:37.412Z</time>
      </trkpt>
      <trkpt lat="48.2651530" lon="14.4422218">
        <ele>253.398</ele>
        <time>2019-05-02T09:26:40.723Z</time>
      </trkpt>
      <trkpt lat="48.2651743" lon="14.4423908">
        <ele>253.257</ele>
        <time>2019-05-02T09:26:42.873Z</time>
      </trkpt>
      <trkpt lat="48.2651985" lon="14.4426157">
        <ele>253.281</ele>
        <time>2019-05-02T09:26:45.788Z</time>
      </trkpt>
      <trkpt lat="48.2652047" lon="14.4427525">
        <ele>253.393</ele>
        <time>2019-05-02T09:26:47.609Z</time>
      </trkpt>
      <trkpt lat="48.2652197" lon="14.4429003">
        <ele>253.495</ele>
        <time>2019-05-02T09:26:49.633Z</time>
      </trkpt>
      <trkpt lat="48.2652813" lon="14.4430367">
        <ele>253.527</ele>
        <time>2019-05-02T09:26:51.857Z</time>
      </trkpt>
      <trkpt lat="48.2653254" lon="14.4432335">
        <ele>253.468</ele>
        <time>2019-05-02T09:26:54.681Z</time>
      </trkpt>
      <trkpt lat="48.2653524" lon="14.4434218">
        <ele>253.351</ele>
        <time>2019-05-02T09:26:57.436Z</time>
      </trkpt>
      <trkpt lat="48.2653900" lon="14.4435639">
        <ele>253.239</ele>
        <time>2019-05-02T09:26:59.655Z</time>
      </trkpt>
      <trkpt lat="48.2654512" lon="14.4438016">
        <ele>253.164</ele>
        <time>2019-05-02T09:27:03.111Z</time>
      </trkpt>
      <trkpt lat="48.2654867" lon="14.4439943">
        <ele>253.087</ele>
        <time>2019-05-02T09:27:05.841Z</time>
      </trkpt>
      <trkpt lat="48.2655177" lon="14.4441361">
        <ele>252.952</ele>
        <time>2019-05-02T09:27:08.005Z</time>
      </trkpt>
      <trkpt lat="48.2655537" lon="14.4442915">
        <ele>252.770</ele>
        <time>2019-05-02T09:27:10.295Z</time>
      </trkpt>
      <trkpt lat="48.2655805" lon="14.4444231">
        <ele>252.619</ele>
        <time>2019-05-02T09:27:12.207Z</time>
      </trkpt>
      <trkpt lat="48.2656210" lon="14.4446166">
        <ele>252.530</ele>
        <time>2019-05-02T09:27:15.058Z</time>
      </trkpt>
      <trkpt lat="48.2656492" lon="14.4447584">
        <ele>252.481</ele>
        <time>2019-05-02T09:27:17.115Z</time>
      </trkpt>
      <trkpt lat="48.2657091" lon="14.4449514">
        <ele>252.520</ele>
        <time>2019-05-02T09:27:20.179Z</time>
      </trkpt>
      <trkpt lat="48.2657080" lon="14.4451474">
        <ele>252.753</ele>
        <time>2019-05-02T09:27:23.142Z</time>
      </trkpt>
      <trkpt lat="48.2657150" lon="14.4452971">
        <ele>253.121</ele>
        <time>2019-05-02T09:27:25.364Z</time>
      </trkpt>
      <trkpt lat="48.2657275" lon="14.4455029">
        <ele>253.378</ele>
        <time>2019-05-02T09:27:28.256Z</time>
      </trkpt>
      <trkpt lat="48.2657424" lon="14.4456873">
        <ele>253.408</ele>
        <time>2019-05-02T09:27:30.852Z</time>
      </trkpt>
      <trkpt lat="48.2657536" lon="14.4459022">
        <ele>253.319</ele>
        <time>2019-05-02T09:27:33.946Z</time>
      </trkpt>
      <trkpt lat="48.2657754" lon="14.4460575">
        <ele>253.238</ele>
        <time>2019-05-02T09:27:36.221Z</time>
      </trkpt>
      <trkpt lat="48.2657979" lon="14.4462480">
        <ele>253.190</ele>
        <time>2019-05-02T09:27:38.936Z</time>
      </trkpt>
      <trkpt lat="48.2658653" lon="14.4464168">
        <ele>253.111</ele>
        <time>2019-05-02T09:27:41.765Z</time>
      </trkpt>
      <trkpt lat="48.2659684" lon="14.4465517">
        <ele>252.973</ele>
        <time>2019-05-02T09:27:44.881Z</time>
      </trkpt>
      <trkpt lat="48.2660536" lon="14.4466081">
        <ele>252.884</ele>
        <time>2019-05-02T09:27:47.100Z</time>
      </trkpt>
      <trkpt lat="48.2662220" lon="14.4467458">
        <ele>252.951</ele>
        <time>2019-05-02T09:27:51.322Z</time>
      </trkpt>
      <trkpt lat="48.2663059" lon="14.4468460">
        <ele>253.189</ele>
        <time>2019-05-02T09:27:53.407Z</time>
      </trkpt>
      <trkpt lat="48.2663780" lon="14.4469656">
        <ele>253.512</ele>
        <time>2019-05-02T09:27:55.450Z</time>
      </trkpt>
      <trkpt lat="48.2664372" lon="14.4471146">
        <ele>253.766</ele>
        <time>2019-05-02T09:27:57.502Z</time>
      </trkpt>
      <trkpt lat="48.2664985" lon="14.4472462">
        <ele>253.846</ele>
        <time>2019-05-02T09:27:59.342Z</time>
      </trkpt>
      <trkpt lat="48.2665601" lon="14.4473799">
        <ele>253.732</ele>
        <time>2019-05-02T09:28:01.264Z</time>
      </trkpt>
      <trkpt lat="48.2666183" lon="14.4475049">
        <ele>253.468</ele>
        <time>2019-05-02T09:28:03.115Z</time>
      </trkpt>
      <trkpt lat="48.2666865" lon="14.4476250">
        <ele>253.170</ele>
        <time>2019-05-02T09:28:05.086Z</time>
      </trkpt>
      <trkpt lat="48.2667318" lon="14.4477531">
        <ele>252.912</ele>
        <time>2019-05-02T09:28:07.000Z</time>
      </trkpt>
      <trkpt lat="48.2667318" lon="14.4477531">
        <ele>252.717</ele>
        <time>2019-05-02T09:28:12.000Z</time>
      </trkpt>
      <trkpt lat="48.2667318" lon="14.4477531">
        <ele>252.592</ele>
        <time>2019-05-02T09:28:12.100Z</time>
      </trkpt>
      <trkpt lat="48.2666872" lon="14.4476186">
        <ele>252.451</ele>
        <time>2019-05-02T09:28:24.094Z</time>
      </trkpt>
      <trkpt lat="48.2666177" lon="14.4475185">
        <ele>252.431</ele>
        <time>2019-05-02T09:28:27.654Z</time>
      </trkpt>
      <trkpt lat="48.2665472" lon="14.4473572">
        <ele>252.462</ele>
        <time>2019-05-02T09:28:31.052Z</time>
      </trkpt>
      <trkpt lat="48.2664987" lon="14.4472426">
        <ele>252.519</ele>
        <time>2019-05-02T09:28:33.142Z</time>
      </trkpt>
      <trkpt lat="48.2664244" lon="14.4471229">
        <ele>252.587</ele>
        <time>2019-05-02T09:28:35.530Z</time>
      </trkpt>
      <trkpt lat="48.2663607" lon="14.4470112">
        <ele>252.696</ele>
        <time>2019-05-02T09:28:37.635Z</time>
      </trkpt>
      <trkpt lat="48.2662723" lon="14.4468431">
        <ele>252.846</ele>
        <time>2019-05-02T09:28:41.962Z</time>
      </trkpt>
      <trkpt lat="48.2661959" lon="14.4467324">
        <ele>253.002</ele>
        <time>2019-05-02T09:28:46.070Z</time>
      </trkpt>
      <trkpt lat="48.2661309" lon="14.4468615">
        <ele>253.167</ele>
        <time>2019-05-02T09:28:50.114Z</time>
      </trkpt>
      <trkpt lat="48.2661424" lon="14.4470573">
        <ele>253.316</ele>
        <time>2019-05-02T09:28:53.615Z</time>
      </trkpt>
      <trkpt lat="48.2661297" lon="14.4472414">
        <ele>253.265</ele>
        <time>2019-05-02T09:28:56.650Z</time>
      </trkpt>
      <trkpt lat="48.2661276" lon="14.4473839">
        <ele>252.803</ele>
        <time>2019-05-02T09:28:58.958Z</time>
      </trkpt>
      <trkpt lat="48.2661344" lon="14.4475757">
        <ele>252.019</ele>
        <time>2019-05-02T09:29:02.187Z</time>
      </trkpt>
      <trkpt lat="48.2661695" lon="14.4477244">
        <ele>251.262</ele>
        <time>2019-05-02T09:29:04.863Z</time>
      </trkpt>
      <trkpt lat="48.2662011" lon="14.4478724">
        <ele>250.736</ele>
        <time>2019-05-02T09:29:07.430Z</time>
      </trkpt>
      <trkpt lat="48.2662392" lon="14.4480695">
        <ele>250.389</ele>
        <time>2019-05-02T09:29:10.749Z</time>
      </trkpt>
      <trkpt lat="48.2662560" lon="14.4482181">
        <ele>250.144</ele>
        <time>2019-05-02T09:29:13.148Z</time>
      </trkpt>
      <trkpt lat="48.2662562" lon="14.4483850">
        <ele>250.010</ele>
        <time>2019-05-02T09:29:15.791Z</time>
      </trkpt>
      <trkpt lat="48.2662422" lon="14.4485509">
        <ele>249.937</ele>
        <time>2019-05-02T09:29:18.455Z</time>
      </trkpt>
      <trkpt lat="48.2662213" lon="14.4487293">
        <ele>249.816</ele>
        <time>2019-05-02T09:29:21.412Z</time>
      </trkpt>
      <trkpt lat="48.2661917" lon="14.4488722">
        <ele>249.583</ele>
        <time>2019-05-02T09:29:23.933Z</time>
      </trkpt>
      <trkpt lat="48.2661742" lon="14.4490300">
        <ele>249.256</ele>
        <time>2019-05-02T09:29:26.684Z</time>
      </trkpt>
      <trkpt lat="48.2662371" lon="14.4491876">
        <ele>248.897</ele>
        <time>2019-05-02T09:29:29.781Z</time>
      </trkpt>
      <trkpt lat="48.2662364" lon="14.4493272">
        <ele>248.522</ele>
        <time>2019-05-02T09:29:32.006Z</time>
      </trkpt>
      <trkpt lat="48.2662195" lon="14.4494615">
        <ele>248.110</ele>
        <time>2019-05-02T09:29:34.100Z</time>
      </trkpt>
      <trkpt lat="48.2661744" lon="14.4496390">
        <ele>247.689</ele>
        <time>2019-05-02T09:29:36.727Z</time>
      </trkpt>
      <trkpt lat="48.2660550" lon="14.4498147">
        <ele>247.285</ele>
        <time>2019-05-02T09:29:40.033Z</time>
      </trkpt>
      <trkpt lat="48.2659984" lon="14.4499865">
        <ele>246.899</ele>
        <time>2019-05-02T09:29:42.628Z</time>
      </trkpt>
      <trkpt lat="48.2659323" lon="14.4501331">
        <ele>246.520</ele>
        <time>2019-05-02T09:29:45.088Z</time>
      </trkpt>
      <trkpt lat="48.2658842" lon="14.4503149">
        <ele>246.108</ele>
        <time>2019-05-02T09:29:47.982Z</time>
      </trkpt>
      <trkpt lat="48.2658406" lon="14.4504414">
        <ele>245.695</ele>
        <time>2019-05-02T09:29:50.267Z</time>
      </trkpt>
      <trkpt lat="48.2657833" lon="14.4505864">
        <ele>244.381</ele>
        <time>2019-05-02T09:29:53.097Z</time>
      </trkpt>
      <trkpt lat="48.2657357" lon="14.4507144">
        <ele>241.054</ele>
        <time>2019-05-02T09:29:55.568Z</time>
      </trkpt>
      <trkpt lat="48.2656992" lon="14.4508762">
        <ele>236.623</ele>
        <time>2019-05-02T09:29:58.270Z</time>
      </trkpt>
      <trkpt lat="48.2657301" lon="14.4510678">
        <ele>233.018</ele>
        <time>2019-05-02T09:30:00.901Z</time>
      </trkpt>
      <trkpt lat="48.2657616" lon="14.4512130">
        <ele>230.773</ele>
        <time>2019-05-02T09:30:02.688Z</time>
      </trkpt>
      <trkpt lat="48.2658042" lon="14.4513847">
        <ele>229.550</ele>
        <time>2019-05-02T09:30:04.784Z</time>
      </trkpt>
      <trkpt lat="48.2658148" lon="14.4515697">
        <ele>229.060</ele>
        <time>2019-05-02T09:30:07.006Z</time>
      </trkpt>
      <trkpt lat="48.2658181" lon="14.4517239">
        <ele>231.651</ele>
        <time>2019-05-02T09:30:08.954Z</time>
      </trkpt>
      <trkpt lat="48.2658327" lon="14.4519284">
        <ele>238.695</ele>
        <time>2019-05-02T09:30:11.755Z</time>
      </trkpt>
      <trkpt lat="48.2658606" lon="14.4521369">
        <ele>246.148</ele>
        <time>2019-05-02T09:30:14.926Z</time>
      </trkpt>
      <trkpt lat="48.2658765" lon="14.4523002">
        <ele>250.056</ele>
        <time>2019-05-02T09:30:17.540Z</time>
      </trkpt>
      <trkpt lat="48.2658930" lon="14.4524519">
        <ele>251.215</ele>
        <time>2019-05-02T09:30:20.044Z</time>
      </trkpt>
      <trkpt lat="48.2659393" lon="14.4525989">
        <ele>251.382</ele>
        <time>2019-05-02T09:30:22.762Z</time>
      </trkpt>
      <trkpt lat="48.2659381" lon="14.4527494">
        <ele>251.469</ele>
        <time>2019-05-02T09:30:25.402Z</time>
      </trkpt>
      <trkpt lat="48.2659211" lon="14.4528882">
        <ele>251.605</ele>
        <time>2019-05-02T09:30:28.109Z</time>
      </trkpt>
      <trkpt lat="48.2659123" lon="14.4530397">
        <ele>251.735</ele>
        <time>2019-05-02T09:30:31.449Z</time>
      </trkpt>
      <trkpt lat="48.2659407" lon="14.4531961">
        <ele>251.888</ele>
        <time>2019-05-02T09:30:35.364Z</time>
      </trkpt>
      <trkpt lat="48.2659616" lon="14.4533494">
        <ele>252.155</ele>
        <time>2019-05-02T09:30:39.669Z</time>
      </trkpt>
      <trkpt lat="48.2659788" lon="14.4534937">
        <ele>252.506</ele>
        <time>2019-05-02T09:30:45.008Z</time>
      </trkpt>
      <trkpt lat="48.2658937" lon="14.4535381">
        <ele>252.784</ele>
        <time>2019-05-02T09:30:50.334Z</time>
      </trkpt>
      <trkpt lat="48.2657668" lon="14.4534914">
        <ele>252.908</ele>
        <time>2019-05-02T09:30:54.809Z</time>
      </trkpt>
      <trkpt lat="48.2656441" lon="14.4534526">
        <ele>252.923</ele>
        <time>2019-05-02T09:30:57.935Z</time>
      </trkpt>
      <trkpt lat="48.2655315" lon="14.4534380">
        <ele>252.899</ele>
        <time>2019-05-02T09:31:00.483Z</time>
      </trkpt>
      <trkpt lat="48.2653954" lon="14.4534521">
        <ele>252.877</ele>
        <time>2019-05-02T09:31:03.314Z</time>
      </trkpt>
      <trkpt lat="48.2652608" lon="14.4534571">
        <ele>252.848</ele>
        <time>2019-05-02T09:31:05.862Z</time>
      </trkpt>
      <trkpt lat="48.2651435" lon="14.4534579">
        <ele>252.761</ele>
        <time>2019-05-02T09:31:07.852Z</time>
      </trkpt>
      <trkpt lat="48.2650147" lon="14.4534981">
        <ele>252.603</ele>
        <time>2019-05-02T09:31:10.045Z</time>
      </trkpt>
      <trkpt lat="48.2649164" lon="14.4535402">
        <ele>252.441</ele>
        <time>2019-05-02T09:31:11.883Z</time>
      </trkpt>
      <trkpt lat="48.2648052" lon="14.4535811">
        <ele>252.346</ele>
        <time>2019-05-02T09:31:14.076Z</time>
      </trkpt>
      <trkpt lat="48.2646763" lon="14.4536674">
        <ele>252.312</ele>
        <time>2019-05-02T09:31:16.762Z</time>
      </trkpt>
      <trkpt lat="48.2645462" lon="14.4538101">
        <ele>252.288</ele>
        <time>2019-05-02T09:31:19.676Z</time>
      </trkpt>
      <trkpt lat="48.2644616" lon="14.4538931">
        <ele>252.242</ele>
        <time>2019-05-02T09:31:21.466Z</time>
      </trkpt>
      <trkpt lat="48.2643297" lon="14.4540217">
        <ele>252.235</ele>
        <time>2019-05-02T09:31:24.467Z</time>
      </trkpt>
      <trkpt lat="48.2642443" lon="14.4541320">
        <ele>252.365</ele>
        <time>2019-05-02T09:31:26.835Z</time>
      </trkpt>
      <trkpt lat="48.2641584" lon="14.4542195">
        <ele>252.611</ele>
        <time>2019-05-02T09:31:29.004Z</time>
      </trkpt>
      <trkpt lat="48.2640564" lon="14.4543136">
        <ele>252.841</ele>
        <time>2019-05-02T09:31:31.383Z</time>
      </trkpt>
      <trkpt lat="48.2639803" lon="14.4544058">
        <ele>252.976</ele>
        <time>2019-05-02T09:31:33.266Z</time>
      </trkpt>
      <trkpt lat="48.2638853" lon="14.4544470">
        <ele>253.015</ele>
        <time>2019-05-02T09:31:35.129Z</time>
      </trkpt>
      <trkpt lat="48.2637716" lon="14.4545533">
        <ele>252.990</ele>
        <time>2019-05-02T09:31:37.512Z</time>
      </trkpt>
      <trkpt lat="48.2636121" lon="14.4547491">
        <ele>252.930</ele>
        <time>2019-05-02T09:31:41.049Z</time>
      </trkpt>
      <trkpt lat="48.2635132" lon="14.4548450">
        <ele>252.856</ele>
        <time>2019-05-02T09:31:43.098Z</time>
      </trkpt>
      <trkpt lat="48.2633927" lon="14.4549056">
        <ele>252.822</ele>
        <time>2019-05-02T09:31:45.315Z</time>
      </trkpt>
      <trkpt lat="48.2632947" lon="14.4549648">
        <ele>252.882</ele>
        <time>2019-05-02T09:31:47.124Z</time>
      </trkpt>
      <trkpt lat="48.2632003" lon="14.4550396">
        <ele>253.006</ele>
        <time>2019-05-02T09:31:48.885Z</time>
      </trkpt>
      <trkpt lat="48.2631061" lon="14.4551101">
        <ele>253.120</ele>
        <time>2019-05-02T09:31:50.604Z</time>
      </trkpt>
      <trkpt lat="48.2630056" lon="14.4551825">
        <ele>253.187</ele>
        <time>2019-05-02T09:31:52.475Z</time>
      </trkpt>
      <trkpt lat="48.2629001" lon="14.4552514">
        <ele>253.193</ele>
        <time>2019-05-02T09:31:54.462Z</time>
      </trkpt>
      <trkpt lat="48.2627972" lon="14.4553271">
        <ele>253.122</ele>
        <time>2019-05-02T09:31:56.497Z</time>
      </trkpt>
      <trkpt lat="48.2627094" lon="14.4553854">
        <ele>252.978</ele>
        <time>2019-05-02T09:31:58.221Z</time>
      </trkpt>
      <trkpt lat="48.2626229" lon="14.4554678">
        <ele>252.779</ele>
        <time>2019-05-02T09:32:00.073Z</time>
      </trkpt>
      <trkpt lat="48.2625124" lon="14.4555442">
        <ele>252.585</ele>
        <time>2019-05-02T09:32:02.291Z</time>
      </trkpt>
      <trkpt lat="48.2624278" lon="14.4556350">
        <ele>252.495</ele>
        <time>2019-05-02T09:32:04.246Z</time>
      </trkpt>
      <trkpt lat="48.2623088" lon="14.4556961">
        <ele>252.553</ele>
        <time>2019-05-02T09:32:06.732Z</time>
      </trkpt>
      <trkpt lat="48.2622070" lon="14.4557703">
        <ele>252.748</ele>
        <time>2019-05-02T09:32:09.046Z</time>
      </trkpt>
      <trkpt lat="48.2620394" lon="14.4558895">
        <ele>253.013</ele>
        <time>2019-05-02T09:32:12.767Z</time>
      </trkpt>
      <trkpt lat="48.2619592" lon="14.4560327">
        <ele>253.218</ele>
        <time>2019-05-02T09:32:15.283Z</time>
      </trkpt>
      <trkpt lat="48.2618780" lon="14.4561651">
        <ele>253.360</ele>
        <time>2019-05-02T09:32:17.770Z</time>
      </trkpt>
      <trkpt lat="48.2617541" lon="14.4561854">
        <ele>253.717</ele>
        <time>2019-05-02T09:32:20.417Z</time>
      </trkpt>
      <trkpt lat="48.2616444" lon="14.4562048">
        <ele>254.359</ele>
        <time>2019-05-02T09:32:22.679Z</time>
      </trkpt>
      <trkpt lat="48.2615584" lon="14.4561621">
        <ele>254.898</ele>
        <time>2019-05-02T09:32:24.375Z</time>
      </trkpt>
      <trkpt lat="48.2614530" lon="14.4561816">
        <ele>254.929</ele>
        <time>2019-05-02T09:32:26.266Z</time>
      </trkpt>
      <trkpt lat="48.2613400" lon="14.4562296">
        <ele>254.432</ele>
        <time>2019-05-02T09:32:28.282Z</time>
      </trkpt>
      <trkpt lat="48.2612333" lon="14.4562663">
        <ele>253.696</ele>
        <time>2019-05-02T09:32:30.123Z</time>
      </trkpt>
      <trkpt lat="48.2611272" lon="14.4562995">
        <ele>253.026</ele>
        <time>2019-05-02T09:32:31.951Z</time>
      </trkpt>
      <trkpt lat="48.2610322" lon="14.4563217">
        <ele>252.463</ele>
        <time>2019-05-02T09:32:33.604Z</time>
      </trkpt>
      <trkpt lat="48.2608928" lon="14.4563126">
        <ele>251.906</ele>
        <time>2019-05-02T09:32:36.100Z</time>
      </trkpt>
      <trkpt lat="48.2607568" lon="14.4562914">
        <ele>251.234</ele>
        <time>2019-05-02T09:32:38.613Z</time>
      </trkpt>
      <trkpt lat="48.2606399" lon="14.4562768">
        <ele>250.352</ele>
        <time>2019-05-02T09:32:40.766Z</time>
      </trkpt>
      <trkpt lat="48.2605105" lon="14.4563607">
        <ele>249.325</ele>
        <time>2019-05-02T09:32:43.272Z</time>
      </trkpt>
      <trkpt lat="48.2604043" lon="14.4564975">
        <ele>248.365</ele>
        <time>2019-05-02T09:32:45.874Z</time>
      </trkpt>
      <trkpt lat="48.2603027" lon="14.4565543">
        <ele>247.688</ele>
        <time>2019-05-02T09:32:47.977Z</time>
      </trkpt>
      <trkpt lat="48.2602185" lon="14.4566222">
        <ele>247.407</ele>
        <time>2019-05-02T09:32:49.825Z</time>
      </trkpt>
      <trkpt lat="48.2601233" lon="14.4567452">
        <ele>247.442</ele>
        <time>2019-05-02T09:32:52.238Z</time>
      </trkpt>
      <trkpt lat="48.2600509" lon="14.4568439">
        <ele>247.594</ele>
        <time>2019-05-02T09:32:54.204Z</time>
      </trkpt>
      <trkpt lat="48.2599977" lon="14.4569744">
        <ele>247.740</ele>
        <time>2019-05-02T09:32:56.646Z</time>
      </trkpt>
      <trkpt lat="48.2599276" lon="14.4571841">
        <ele>247.909</ele>
        <time>2019-05-02T09:33:01.136Z</time>
      </trkpt>
      <trkpt lat="48.2598662" lon="14.4573435">
        <ele>248.156</ele>
        <time>2019-05-02T09:33:04.276Z</time>
      </trkpt>
      <trkpt lat="48.2598129" lon="14.4574819">
        <ele>248.447</ele>
        <time>2019-05-02T09:33:06.538Z</time>
      </trkpt>
      <trkpt lat="48.2597756" lon="14.4576106">
        <ele>248.729</ele>
        <time>2019-05-02T09:33:08.549Z</time>
      </trkpt>
      <trkpt lat="48.2597285" lon="14.4577485">
        <ele>249.002</ele>
        <time>2019-05-02T09:33:11.039Z</time>
      </trkpt>
      <trkpt lat="48.2596489" lon="14.4578617">
        <ele>249.247</ele>
        <time>2019-05-02T09:33:13.875Z</time>
      </trkpt>
      <trkpt lat="48.2595451" lon="14.4579697">
        <ele>249.418</ele>
        <time>2019-05-02T09:33:16.927Z</time>
      </trkpt>
      <trkpt lat="48.2594458" lon="14.4580503">
        <ele>249.474</ele>
        <time>2019-05-02T09:33:19.376Z</time>
      </trkpt>
      <trkpt lat="48.2593629" lon="14.4581536">
        <ele>249.391</ele>
        <time>2019-05-02T09:33:21.504Z</time>
      </trkpt>
      <trkpt lat="48.2592717" lon="14.4583694">
        <ele>249.155</ele>
        <time>2019-05-02T09:33:24.387Z</time>
      </trkpt>
      <trkpt lat="48.2592295" lon="14.4585500">
        <ele>248.742</ele>
        <time>2019-05-02T09:33:26.419Z</time>
      </trkpt>
      <trkpt lat="48.2591635" lon="14.4587422">
        <ele>248.227</ele>
        <time>2019-05-02T09:33:28.708Z</time>
      </trkpt>
      <trkpt lat="48.2590963" lon="14.4589471">
        <ele>247.814</ele>
        <time>2019-05-02T09:33:31.120Z</time>
      </trkpt>
      <trkpt lat="48.2589936" lon="14.4592934">
        <ele>247.593</ele>
        <time>2019-05-02T09:33:35.062Z</time>
      </trkpt>
      <trkpt lat="48.2589458" lon="14.4594944">
        <ele>247.453</ele>
        <time>2019-05-02T09:33:37.277Z</time>
      </trkpt>
      <trkpt lat="48.2588743" lon="14.4597025">
        <ele>247.300</ele>
        <time>2019-05-02T09:33:39.796Z</time>
      </trkpt>
      <trkpt lat="48.2587665" lon="14.4599321">
        <ele>247.159</ele>
        <time>2019-05-02T09:33:43.118Z</time>
      </trkpt>
      <trkpt lat="48.2587123" lon="14.4600411">
        <ele>247.098</ele>
        <time>2019-05-02T09:33:44.791Z</time>
      </trkpt>
      <trkpt lat="48.2586478" lon="14.4602361">
        <ele>247.123</ele>
        <time>2019-05-02T09:33:47.196Z</time>
      </trkpt>
      <trkpt lat="48.2585586" lon="14.4604241">
        <ele>247.187</ele>
        <time>2019-05-02T09:33:49.576Z</time>
      </trkpt>
      <trkpt lat="48.2584963" lon="14.4606309">
        <ele>247.262</ele>
        <time>2019-05-02T09:33:52.040Z</time>
      </trkpt>
      <trkpt lat="48.2584167" lon="14.4607856">
        <ele>247.389</ele>
        <time>2019-05-02T09:33:54.286Z</time>
      </trkpt>
      <trkpt lat="48.2583635" lon="14.4609291">
        <ele>247.608</ele>
        <time>2019-05-02T09:33:56.238Z</time>
      </trkpt>
      <trkpt lat="48.2582379" lon="14.4610968">
        <ele>247.889</ele>
        <time>2019-05-02T09:33:59.416Z</time>
      </trkpt>
      <trkpt lat="48.2581709" lon="14.4612022">
        <ele>248.140</ele>
        <time>2019-05-02T09:34:01.434Z</time>
      </trkpt>
      <trkpt lat="48.2580952" lon="14.4613313">
        <ele>248.275</ele>
        <time>2019-05-02T09:34:04.430Z</time>
      </trkpt>
      <trkpt lat="48.2580466" lon="14.4614490">
        <ele>248.287</ele>
        <time>2019-05-02T09:34:07.000Z</time>
      </trkpt>
      <trkpt lat="48.2580466" lon="14.4614490">
        <ele>248.241</ele>
        <time>2019-05-02T09:34:10.000Z</time>
      </trkpt>
      <trkpt lat="48.2580466" lon="14.4614490">
        <ele>248.169</ele>
        <time>2019-05-02T09:34:38.025Z</time>
      </trkpt>
      <trkpt lat="48.2579241" lon="14.4615646">
        <ele>248.074</ele>
        <time>2019-05-02T09:34:45.189Z</time>
      </trkpt>
      <trkpt lat="48.2578834" lon="14.4616914">
        <ele>247.963</ele>
        <time>2019-05-02T09:34:47.888Z</time>
      </trkpt>
      <trkpt lat="48.2578324" lon="14.4618696">
        <ele>247.808</ele>
        <time>2019-05-02T09:34:51.300Z</time>
      </trkpt>
      <trkpt lat="48.2577865" lon="14.4619888">
        <ele>247.611</ele>
        <time>2019-05-02T09:34:53.559Z</time>
      </trkpt>
      <trkpt lat="48.2577241" lon="14.4621475">
        <ele>247.453</ele>
        <time>2019-05-02T09:34:56.467Z</time>
      </trkpt>
      <trkpt lat="48.2576461" lon="14.4622998">
        <ele>247.382</ele>
        <time>2019-05-02T09:34:59.481Z</time>
      </trkpt>
      <trkpt lat="48.2575860" lon="14.4624354">
        <ele>247.370</ele>
        <time>2019-05-02T09:35:02.183Z</time>
      </trkpt>
      <trkpt lat="48.2574741" lon="14.4625676">
        <ele>247.413</ele>
        <time>2019-05-02T09:35:05.833Z</time>
      </trkpt>
      <trkpt lat="48.2574003" lon="14.4626544">
        <ele>247.584</ele>
        <time>2019-05-02T09:35:08.146Z</time>
      </trkpt>
      <trkpt lat="48.2573281" lon="14.4627641">
        <ele>247.891</ele>
        <time>2019-05-02T09:35:10.527Z</time>
      </trkpt>
      <trkpt lat="48.2572610" lon="14.4628745">
        <ele>248.185</ele>
        <time>2019-05-02T09:35:12.776Z</time>
      </trkpt>
      <trkpt lat="48.2571631" lon="14.4630240">
        <ele>248.356</ele>
        <time>2019-05-02T09:35:15.751Z</time>
      </trkpt>
      <trkpt lat="48.2570540" lon="14.4630961">
        <ele>248.428</ele>
        <time>2019-05-02T09:35:18.104Z</time>
      </trkpt>
      <trkpt lat="48.2569669" lon="14.4631929">
        <ele>248.422</ele>
        <time>2019-05-02T09:35:20.137Z</time>
      </trkpt>
      <trkpt lat="48.2568603" lon="14.4633332">
        <ele>248.304</ele>
        <time>2019-05-02T09:35:22.699Z</time>
      </trkpt>
      <trkpt lat="48.2567748" lon="14.4634453">
        <ele>248.064</ele>
        <time>2019-05-02T09:35:24.696Z</time>
      </trkpt>
      <trkpt lat="48.2566831" lon="14.4635357">
        <ele>247.779</ele>
        <time>2019-05-02T09:35:26.610Z</time>
      </trkpt>
      <trkpt lat="48.2565957" lon="14.4636153">
        <ele>247.553</ele>
        <time>2019-05-02T09:35:28.389Z</time>
      </trkpt>
      <trkpt lat="48.2565148" lon="14.4636910">
        <ele>247.432</ele>
        <time>2019-05-02T09:35:30.051Z</time>
      </trkpt>
      <trkpt lat="48.2564191" lon="14.4637949">
        <ele>247.386</ele>
        <time>2019-05-02T09:35:32.105Z</time>
      </trkpt>
      <trkpt lat="48.2563264" lon="14.4638977">
        <ele>247.370</ele>
        <time>2019-05-02T09:35:34.123Z</time>
      </trkpt>
      <trkpt lat="48.2562505" lon="14.4640222">
        <ele>247.352</ele>
        <time>2019-05-02T09:35:36.115Z</time>
      </trkpt>
      <trkpt lat="48.2561321" lon="14.4641882">
        <ele>247.322</ele>
        <time>2019-05-02T09:35:39.218Z</time>
      </trkpt>
      <trkpt lat="48.2560596" lon="14.4642982">
        <ele>247.221</ele>
        <time>2019-05-02T09:35:41.485Z</time>
      </trkpt>
      <trkpt lat="48.2559609" lon="14.4642954">
        <ele>246.974</ele>
        <time>2019-05-02T09:35:43.870Z</time>
      </trkpt>
      <trkpt lat="48.2558761" lon="14.4643480">
        <ele>246.650</ele>
        <time>2019-05-02T09:35:46.217Z</time>
      </trkpt>
      <trkpt lat="48.2557522" lon="14.4643802">
        <ele>246.403</ele>
        <time>2019-05-02T09:35:49.432Z</time>
      </trkpt>
      <trkpt lat="48.2557155" lon="14.4645065">
        <ele>246.293</ele>
        <time>2019-05-02T09:35:51.739Z</time>
      </trkpt>
      <trkpt lat="48.2556905" lon="14.4646509">
        <ele>246.275</ele>
        <time>2019-05-02T09:35:54.151Z</time>
      </trkpt>
      <trkpt lat="48.2556543" lon="14.4648062">
        <ele>246.292</ele>
        <time>2019-05-02T09:35:56.753Z</time>
      </trkpt>
      <trkpt lat="48.2556007" lon="14.4649426">
        <ele>246.309</ele>
        <time>2019-05-02T09:35:59.244Z</time>
      </trkpt>
      <trkpt lat="48.2555193" lon="14.4650752">
        <ele>246.317</ele>
        <time>2019-05-02T09:36:02.157Z</time>
      </trkpt>
      <trkpt lat="48.2554868" lon="14.4652151">
        <ele>246.321</ele>
        <time>2019-05-02T09:36:04.660Z</time>
      </trkpt>
      <trkpt lat="48.2554575" lon="14.4654058">
        <ele>246.373</ele>
        <time>2019-05-02T09:36:07.954Z</time>
      </trkpt>
      <trkpt lat="48.2554484" lon="14.4655516">
        <ele>246.532</ele>
        <time>2019-05-02T09:36:10.255Z</time>
      </trkpt>
      <trkpt lat="48.2554298" lon="14.4656967">
        <ele>246.761</ele>
        <time>2019-05-02T09:36:12.433Z</time>
      </trkpt>
      <trkpt lat="48.2553944" lon="14.4658349">
        <ele>246.942</ele>
        <time>2019-05-02T09:36:14.528Z</time>
      </trkpt>
      <trkpt lat="48.2553670" lon="14.4659797">
        <ele>247.043</ele>
        <time>2019-05-02T09:36:16.629Z</time>
      </trkpt>
      <trkpt lat="48.2553224" lon="14.4661690">
        <ele>247.126</ele>
        <time>2019-05-02T09:36:19.374Z</time>
      </trkpt>
      <trkpt lat="48.2552886" lon="14.4663181">
        <ele>247.228</ele>
        <time>2019-05-02T09:36:21.477Z</time>
      </trkpt>
      <trkpt lat="48.2552548" lon="14.4664515">
        <ele>247.329</ele>
        <time>2019-05-02T09:36:23.340Z</time>
      </trkpt>
      <trkpt lat="48.2551931" lon="14.4666017">
        <ele>247.391</ele>
        <time>2019-05-02T09:36:25.615Z</time>
      </trkpt>
      <trkpt lat="48.2551198" lon="14.4668303">
        <ele>247.425</ele>
        <time>2019-05-02T09:36:28.799Z</time>
      </trkpt>
      <trkpt lat="48.2550303" lon="14.4670544">
        <ele>247.458</ele>
        <time>2019-05-02T09:36:31.998Z</time>
      </trkpt>
      <trkpt lat="48.2549707" lon="14.4672515">
        <ele>247.476</ele>
        <time>2019-05-02T09:36:34.593Z</time>
      </trkpt>
      <trkpt lat="48.2548793" lon="14.4675138">
        <ele>247.456</ele>
        <time>2019-05-02T09:36:38.049Z</time>
      </trkpt>
      <trkpt lat="48.2548182" lon="14.4676774">
        <ele>247.417</ele>
        <time>2019-05-02T09:36:40.215Z</time>
      </trkpt>
      <trkpt lat="48.2547391" lon="14.4679242">
        <ele>247.386</ele>
        <time>2019-05-02T09:36:43.370Z</time>
      </trkpt>
      <trkpt lat="48.2546657" lon="14.4681515">
        <ele>247.374</ele>
        <time>2019-05-02T09:36:46.292Z</time>
      </trkpt>
      <trkpt lat="48.2545994" lon="14.4683052">
        <ele>247.381</ele>
        <time>2019-05-02T09:36:48.413Z</time>
      </trkpt>
      <trkpt lat="48.2545503" lon="14.4684630">
        <ele>247.395</ele>
        <time>2019-05-02T09:36:50.428Z</time>
      </trkpt>
      <trkpt lat="48.2544367" lon="14.4686942">
        <ele>247.409</ele>
        <time>2019-05-02T09:36:53.817Z</time>
      </trkpt>
      <trkpt lat="48.2543773" lon="14.4688318">
        <ele>247.439</ele>
        <time>2019-05-02T09:36:55.822Z</time>
      </trkpt>
      <trkpt lat="48.2543359" lon="14.4689692">
        <ele>247.515</ele>
        <time>2019-05-02T09:36:57.701Z</time>
      </trkpt>
      <trkpt lat="48.2543096" lon="14.4691372">
        <ele>247.656</ele>
        <time>2019-05-02T09:36:59.871Z</time>
      </trkpt>
      <trkpt lat="48.2542559" lon="14.4692698">
        <ele>247.871</ele>
        <time>2019-05-02T09:37:01.841Z</time>
      </trkpt>
      <trkpt lat="48.2541688" lon="14.4694530">
        <ele>248.167</ele>
        <time>2019-05-02T09:37:04.672Z</time>
      </trkpt>
      <trkpt lat="48.2541048" lon="14.4696058">
        <ele>248.545</ele>
        <time>2019-05-02T09:37:06.888Z</time>
      </trkpt>
      <trkpt lat="48.2540064" lon="14.4697069">
        <ele>248.951</ele>
        <time>2019-05-02T09:37:09.042Z</time>
      </trkpt>
      <trkpt lat="48.2539263" lon="14.4698140">
        <ele>249.279</ele>
        <time>2019-05-02T09:37:10.960Z</time>
      </trkpt>
      <trkpt lat="48.2538596" lon="14.4699558">
        <ele>249.469</ele>
        <time>2019-05-02T09:37:13.010Z</time>
      </trkpt>
      <trkpt lat="48.2537850" lon="14.4701281">
        <ele>249.550</ele>
        <time>2019-05-02T09:37:15.401Z</time>
      </trkpt>
      <trkpt lat="48.2537163" lon="14.4702898">
        <ele>249.557</ele>
        <time>2019-05-02T09:37:17.625Z</time>
      </trkpt>
      <trkpt lat="48.2536611" lon="14.4704392">
        <ele>249.492</ele>
        <time>2019-05-02T09:37:19.641Z</time>
      </trkpt>
      <trkpt lat="48.2535817" lon="14.4705742">
        <ele>249.376</ele>
        <time>2019-05-02T09:37:21.848Z</time>
      </trkpt>
      <trkpt lat="48.2535316" lon="14.4707348">
        <ele>249.281</ele>
        <time>2019-05-02T09:37:24.306Z</time>
      </trkpt>
      <trkpt lat="48.2534688" lon="14.4708819">
        <ele>249.246</ele>
        <time>2019-05-02T09:37:26.930Z</time>
      </trkpt>
      <trkpt lat="48.2533682" lon="14.4710037">
        <ele>249.245</ele>
        <time>2019-05-02T09:37:30.274Z</time>
      </trkpt>
      <trkpt lat="48.2532733" lon="14.4709761">
        <ele>249.209</ele>
        <time>2019-05-02T09:37:32.832Z</time>
      </trkpt>
      <trkpt lat="48.2532009" lon="14.4711025">
        <ele>249.073</ele>
        <time>2019-05-02T09:37:35.813Z</time>
      </trkpt>
      <trkpt lat="48.2532119" lon="14.4712569">
        <ele>248.796</ele>
        <time>2019-05-02T09:37:38.378Z</time>
      </trkpt>
      <trkpt lat="48.2532346" lon="14.4714419">
        <ele>248.439</ele>
        <time>2019-05-02T09:37:41.405Z</time>
      </trkpt>
      <trkpt lat="48.2532291" lon="14.4716216">
        <ele>248.198</ele>
        <time>2019-05-02T09:37:44.237Z</time>
      </trkpt>
      <trkpt lat="48.2531860" lon="14.4718158">
        <ele>248.220</ele>
        <time>2019-05-02T09:37:47.232Z</time>
      </trkpt>
      <trkpt lat="48.2531455" lon="14.4719538">
        <ele>248.489</ele>
        <time>2019-05-02T09:37:49.229Z</time>
      </trkpt>
      <trkpt lat="48.2531046" lon="14.4720893">
        <ele>248.893</ele>
        <time>2019-05-02T09:37:50.995Z</time>
      </trkpt>
      <trkpt lat="48.2530650" lon="14.4722267">
        <ele>249.308</ele>
        <time>2019-05-02T09:37:52.688Z</time>
      </trkpt>
      <trkpt lat="48.2530446" lon="14.4723594">
        <ele>249.631</ele>
        <time>2019-05-02T09:37:54.228Z</time>
      </trkpt>
      <trkpt lat="48.2530250" lon="14.4725865">
        <ele>249.805</ele>
        <time>2019-05-02T09:37:56.815Z</time>
      </trkpt>
      <trkpt lat="48.2530127" lon="14.4727843">
        <ele>249.909</ele>
        <time>2019-05-02T09:37:58.956Z</time>
      </trkpt>
      <trkpt lat="48.2530011" lon="14.4729859">
        <ele>250.060</ele>
        <time>2019-05-02T09:38:01.026Z</time>
      </trkpt>
      <trkpt lat="48.2529714" lon="14.4731985">
        <ele>250.229</ele>
        <time>2019-05-02T09:38:03.228Z</time>
      </trkpt>
      <trkpt lat="48.2529469" lon="14.4733637">
        <ele>250.310</ele>
        <time>2019-05-02T09:38:04.948Z</time>
      </trkpt>
      <trkpt lat="48.2528758" lon="14.4735189">
        <ele>250.289</ele>
        <time>2019-05-02T09:38:06.884Z</time>
      </trkpt>
      <trkpt lat="48.2528311" lon="14.4736979">
        <ele>250.231</ele>
        <time>2019-05-02T09:38:08.863Z</time>
      </trkpt>
      <trkpt lat="48.2527844" lon="14.4739064">
        <ele>250.194</ele>
        <time>2019-05-02T09:38:11.125Z</time>
      </trkpt>
      <trkpt lat="48.2527401" lon="14.4741103">
        <ele>250.138</ele>
        <time>2019-05-02T09:38:13.356Z</time>
      </trkpt>
      <trkpt lat="48.2526985" lon="14.4742884">
        <ele>250.004</ele>
        <time>2019-05-02T09:38:15.299Z</time>
      </trkpt>
      <trkpt lat="48.2526608" lon="14.4744760">
        <ele>249.823</ele>
        <time>2019-05-02T09:38:17.266Z</time>
      </trkpt>
      <trkpt lat="48.2526011" lon="14.4746511">
        <ele>249.678</ele>
        <time>2019-05-02T09:38:19.207Z</time>
      </trkpt>
      <trkpt lat="48.2525463" lon="14.4748290">
        <ele>249.603</ele>
        <time>2019-05-02T09:38:21.195Z</time>
      </trkpt>
      <trkpt lat="48.2524993" lon="14.4750007">
        <ele>249.580</ele>
        <time>2019-05-02T09:38:23.137Z</time>
      </trkpt>
      <trkpt lat="48.2524710" lon="14.4751629">
        <ele>249.582</ele>
        <time>2019-05-02T09:38:24.850Z</time>
      </trkpt>
      <trkpt lat="48.2524252" lon="14.4753494">
        <ele>249.589</ele>
        <time>2019-05-02T09:38:26.906Z</time>
      </trkpt>
      <trkpt lat="48.2523969" lon="14.4755379">
        <ele>249.593</ele>
        <time>2019-05-02T09:38:28.974Z</time>
      </trkpt>
      <trkpt lat="48.2523567" lon="14.4757156">
        <ele>249.606</ele>
        <time>2019-05-02T09:38:30.995Z</time>
      </trkpt>
      <trkpt lat="48.2523325" lon="14.4758891">
        <ele>249.651</ele>
        <time>2019-05-02T09:38:32.906Z</time>
      </trkpt>
      <trkpt lat="48.2522915" lon="14.4760532">
        <ele>249.716</ele>
        <time>2019-05-02T09:38:34.713Z</time>
      </trkpt>
      <trkpt lat="48.2522356" lon="14.4762464">
        <ele>249.750</ele>
        <time>2019-05-02T09:38:36.835Z</time>
      </trkpt>
      <trkpt lat="48.2522043" lon="14.4764141">
        <ele>249.723</ele>
        <time>2019-05-02T09:38:38.606Z</time>
      </trkpt>
      <trkpt lat="48.2521677" lon="14.4766075">
        <ele>249.664</ele>
        <time>2019-05-02T09:38:40.614Z</time>
      </trkpt>
      <trkpt lat="48.2521054" lon="14.4768006">
        <ele>249.617</ele>
        <time>2019-05-02T09:38:42.918Z</time>
      </trkpt>
      <trkpt lat="48.2520447" lon="14.4770291">
        <ele>249.593</ele>
        <time>2019-05-02T09:38:45.714Z</time>
      </trkpt>
      <trkpt lat="48.2520118" lon="14.4772341">
        <ele>249.587</ele>
        <time>2019-05-02T09:38:48.100Z</time>
      </trkpt>
      <trkpt lat="48.2519632" lon="14.4774123">
        <ele>249.588</ele>
        <time>2019-05-02T09:38:50.416Z</time>
      </trkpt>
      <trkpt lat="48.2519232" lon="14.4775700">
        <ele>249.591</ele>
        <time>2019-05-02T09:38:52.561Z</time>
      </trkpt>
      <trkpt lat="48.2518927" lon="14.4777034">
        <ele>249.592</ele>
        <time>2019-05-02T09:38:54.457Z</time>
      </trkpt>
      <trkpt lat="48.2518464" lon="14.4778668">
        <ele>249.581</ele>
        <time>2019-05-02T09:38:57.001Z</time>
      </trkpt>
      <trkpt lat="48.2518140" lon="14.4780544">
        <ele>249.540</ele>
        <time>2019-05-02T09:38:59.805Z</time>
      </trkpt>
      <trkpt lat="48.2517987" lon="14.4782710">
        <ele>249.447</ele>
        <time>2019-05-02T09:39:02.949Z</time>
      </trkpt>
      <trkpt lat="48.2517769" lon="14.4784100">
        <ele>249.293</ele>
        <time>2019-05-02T09:39:05.104Z</time>
      </trkpt>
      <trkpt lat="48.2517345" lon="14.4785605">
        <ele>249.081</ele>
        <time>2019-05-02T09:39:07.464Z</time>
      </trkpt>
      <trkpt lat="48.2516962" lon="14.4786954">
        <ele>248.848</ele>
        <time>2019-05-02T09:39:09.443Z</time>
      </trkpt>
      <trkpt lat="48.2516675" lon="14.4788320">
        <ele>248.655</ele>
        <time>2019-05-02T09:39:11.260Z</time>
      </trkpt>
      <trkpt lat="48.2516022" lon="14.4790028">
        <ele>248.540</ele>
        <time>2019-05-02T09:39:13.617Z</time>
      </trkpt>
      <trkpt lat="48.2515456" lon="14.4791587">
        <ele>248.491</ele>
        <time>2019-05-02T09:39:15.746Z</time>
      </trkpt>
      <trkpt lat="48.2515171" lon="14.4793167">
        <ele>248.451</ele>
        <time>2019-05-02T09:39:17.716Z</time>
      </trkpt>
      <trkpt lat="48.2515115" lon="14.4794906">
        <ele>248.354</ele>
        <time>2019-05-02T09:39:19.813Z</time>
      </trkpt>
      <trkpt lat="48.2514755" lon="14.4796322">
        <ele>248.166</ele>
        <time>2019-05-02T09:39:21.660Z</time>
      </trkpt>
      <trkpt lat="48.2514507" lon="14.4797800">
        <ele>247.909</ele>
        <time>2019-05-02T09:39:23.528Z</time>
      </trkpt>
      <trkpt lat="48.2514187" lon="14.4799610">
        <ele>247.660</ele>
        <time>2019-05-02T09:39:25.844Z</time>
      </trkpt>
      <trkpt lat="48.2513952" lon="14.4800982">
        <ele>247.489</ele>
        <time>2019-05-02T09:39:27.566Z</time>
      </trkpt>
      <trkpt lat="48.2513924" lon="14.4802372">
        <ele>247.409</ele>
        <time>2019-05-02T09:39:29.266Z</time>
      </trkpt>
      <trkpt lat="48.2513852" lon="14.4803765">
        <ele>247.389</ele>
        <time>2019-05-02T09:39:30.988Z</time>
      </trkpt>
      <trkpt lat="48.2513558" lon="14.4805772">
        <ele>247.395</ele>
        <time>2019-05-02T09:39:33.511Z</time>
      </trkpt>
      <trkpt lat="48.2513291" lon="14.4807423">
        <ele>247.401</ele>
        <time>2019-05-02T09:39:35.557Z</time>
      </trkpt>
      <trkpt lat="48.2513091" lon="14.4808905">
        <ele>247.388</ele>
        <time>2019-05-02T09:39:37.438Z</time>
      </trkpt>
      <trkpt lat="48.2512918" lon="14.4810764">
        <ele>247.339</ele>
        <time>2019-05-02T09:39:39.916Z</time>
      </trkpt>
      <trkpt lat="48.2512899" lon="14.4812620">
        <ele>247.254</ele>
        <time>2019-05-02T09:39:42.598Z</time>
      </trkpt>
      <trkpt lat="48.2512501" lon="14.4814028">
        <ele>247.157</ele>
        <time>2019-05-02T09:39:44.894Z</time>
      </trkpt>
      <trkpt lat="48.2512533" lon="14.4815422">
        <ele>247.078</ele>
        <time>2019-05-02T09:39:47.045Z</time>
      </trkpt>
      <trkpt lat="48.2512580" lon="14.4816844">
        <ele>247.016</ele>
        <time>2019-05-02T09:39:49.225Z</time>
      </trkpt>
      <trkpt lat="48.2512312" lon="14.4818607">
        <ele>246.961</ele>
        <time>2019-05-02T09:39:51.995Z</time>
      </trkpt>
      <trkpt lat="48.2512023" lon="14.4820233">
        <ele>246.948</ele>
        <time>2019-05-02T09:39:54.999Z</time>
      </trkpt>
      <trkpt lat="48.2512023" lon="14.4820233">
        <ele>246.998</ele>
        <time>2019-05-02T09:39:58.999Z</time>
      </trkpt>
      <trkpt lat="48.2512023" lon="14.4820233">
        <ele>247.010</ele>
        <time>2019-05-02T09:40:02.146Z</time>
      </trkpt>
      <trkpt lat="48.2513438" lon="14.4820051">
        <ele>246.908</ele>
        <time>2019-05-02T09:40:23.749Z</time>
      </trkpt>
      <trkpt lat="48.2514349" lon="14.4819710">
        <ele>246.986</ele>
        <time>2019-05-02T09:40:32.999Z</time>
      </trkpt>
      <trkpt lat="48.2514349" lon="14.4819710">
        <ele>247.464</ele>
        <time>2019-05-02T09:40:51.999Z</time>
      </trkpt>
      <trkpt lat="48.2514349" lon="14.4819710">
        <ele>247.866</ele>
        <time>2019-05-02T09:42:48.999Z</time>
      </trkpt>
      <trkpt lat="48.2513378" lon="14.4817142">
        <ele>247.525</ele>
        <time>2019-05-02T09:43:03.999Z</time>
      </trkpt>
      <trkpt lat="48.2513378" lon="14.4817142">
        <ele>247.411</ele>
        <time>2019-05-02T09:43:06.999Z</time>
      </trkpt>
      <trkpt lat="48.2513378" lon="14.4817142">
        <ele>247.347</ele>
        <time>2019-05-02T09:44:13.190Z</time>
      </trkpt>
      <trkpt lat="48.2513208" lon="14.4820743">
        <ele>247.293</ele>
        <time>2019-05-02T09:45:08.999Z</time>
      </trkpt>
      <trkpt lat="48.2513208" lon="14.4820743">
        <ele>247.234</ele>
        <time>2019-05-02T09:45:15.999Z</time>
      </trkpt>
      <trkpt lat="48.2513208" lon="14.4820743">
        <ele>247.159</ele>
        <time>2019-05-02T09:54:25.976Z</time>
      </trkpt>
      <trkpt lat="48.2511554" lon="14.4821882">
        <ele>247.074</ele>
        <time>2019-05-02T09:55:41.999Z</time>
      </trkpt>
      <trkpt lat="48.2511554" lon="14.4821882">
        <ele>247.007</ele>
        <time>2019-05-02T09:55:45.999Z</time>
      </trkpt>
      <trkpt lat="48.2511554" lon="14.4821882">
        <ele>246.943</ele>
        <time>2019-05-02T09:55:47.219Z</time>
      </trkpt>
      <trkpt lat="48.2511144" lon="14.4824364">
        <ele>246.865</ele>
        <time>2019-05-02T09:55:57.731Z</time>
      </trkpt>
      <trkpt lat="48.2510969" lon="14.4825791">
        <ele>246.884</ele>
        <time>2019-05-02T09:56:00.777Z</time>
      </trkpt>
      <trkpt lat="48.2510770" lon="14.4827462">
        <ele>247.072</ele>
        <time>2019-05-02T09:56:04.008Z</time>
      </trkpt>
      <trkpt lat="48.2510611" lon="14.4829026">
        <ele>247.278</ele>
        <time>2019-05-02T09:56:06.917Z</time>
      </trkpt>
      <trkpt lat="48.2510432" lon="14.4830461">
        <ele>247.349</ele>
        <time>2019-05-02T09:56:09.673Z</time>
      </trkpt>
      <trkpt lat="48.2510065" lon="14.4832069">
        <ele>247.309</ele>
        <time>2019-05-02T09:56:12.898Z</time>
      </trkpt>
      <trkpt lat="48.2509792" lon="14.4833564">
        <ele>247.223</ele>
        <time>2019-05-02T09:56:15.784Z</time>
      </trkpt>
      <trkpt lat="48.2509276" lon="14.4834891">
        <ele>247.122</ele>
        <time>2019-05-02T09:56:18.567Z</time>
      </trkpt>
      <trkpt lat="48.2508915" lon="14.4836253">
        <ele>247.032</ele>
        <time>2019-05-02T09:56:21.012Z</time>
      </trkpt>
      <trkpt lat="48.2508409" lon="14.4838111">
        <ele>247.003</ele>
        <time>2019-05-02T09:56:24.174Z</time>
      </trkpt>
      <trkpt lat="48.2507916" lon="14.4839687">
        <ele>247.082</ele>
        <time>2019-05-02T09:56:26.968Z</time>
      </trkpt>
      <trkpt lat="48.2507434" lon="14.4841035">
        <ele>247.227</ele>
        <time>2019-05-02T09:56:29.480Z</time>
      </trkpt>
      <trkpt lat="48.2506925" lon="14.4842547">
        <ele>247.321</ele>
        <time>2019-05-02T09:56:32.250Z</time>
      </trkpt>
      <trkpt lat="48.2506562" lon="14.4844118">
        <ele>247.286</ele>
        <time>2019-05-02T09:56:34.962Z</time>
      </trkpt>
      <trkpt lat="48.2506109" lon="14.4845800">
        <ele>247.140</ele>
        <time>2019-05-02T09:56:38.019Z</time>
      </trkpt>
      <trkpt lat="48.2505833" lon="14.4847311">
        <ele>246.946</ele>
        <time>2019-05-02T09:56:40.782Z</time>
      </trkpt>
      <trkpt lat="48.2505253" lon="14.4848938">
        <ele>246.769</ele>
        <time>2019-05-02T09:56:44.160Z</time>
      </trkpt>
      <trkpt lat="48.2504714" lon="14.4850030">
        <ele>246.658</ele>
        <time>2019-05-02T09:56:46.611Z</time>
      </trkpt>
      <trkpt lat="48.2504104" lon="14.4851361">
        <ele>246.620</ele>
        <time>2019-05-02T09:56:49.438Z</time>
      </trkpt>
      <trkpt lat="48.2503651" lon="14.4852855">
        <ele>246.625</ele>
        <time>2019-05-02T09:56:52.487Z</time>
      </trkpt>
      <trkpt lat="48.2503189" lon="14.4854075">
        <ele>246.633</ele>
        <time>2019-05-02T09:56:55.588Z</time>
      </trkpt>
      <trkpt lat="48.2502762" lon="14.4855364">
        <ele>246.623</ele>
        <time>2019-05-02T09:56:59.148Z</time>
      </trkpt>
      <trkpt lat="48.2502502" lon="14.4857241">
        <ele>246.579</ele>
        <time>2019-05-02T09:57:03.727Z</time>
      </trkpt>
      <trkpt lat="48.2502035" lon="14.4858654">
        <ele>246.487</ele>
        <time>2019-05-02T09:57:07.383Z</time>
      </trkpt>
      <trkpt lat="48.2501729" lon="14.4860040">
        <ele>246.371</ele>
        <time>2019-05-02T09:57:10.949Z</time>
      </trkpt>
      <trkpt lat="48.2501261" lon="14.4861611">
        <ele>246.290</ele>
        <time>2019-05-02T09:57:15.229Z</time>
      </trkpt>
      <trkpt lat="48.2500508" lon="14.4862964">
        <ele>246.327</ele>
        <time>2019-05-02T09:57:19.224Z</time>
      </trkpt>
      <trkpt lat="48.2500055" lon="14.4864314">
        <ele>246.534</ele>
        <time>2019-05-02T09:57:22.515Z</time>
      </trkpt>
      <trkpt lat="48.2499557" lon="14.4865546">
        <ele>246.852</ele>
        <time>2019-05-02T09:57:25.655Z</time>
      </trkpt>
      <trkpt lat="48.2498900" lon="14.4866609">
        <ele>247.217</ele>
        <time>2019-05-02T09:57:28.743Z</time>
      </trkpt>
      <trkpt lat="48.2498128" lon="14.4867550">
        <ele>247.656</ele>
        <time>2019-05-02T09:57:32.001Z</time>
      </trkpt>
      <trkpt lat="48.2498128" lon="14.4867550">
        <ele>248.102</ele>
        <time>2019-05-02T09:57:45.000Z</time>
      </trkpt>
      <trkpt lat="48.2498128" lon="14.4867550">
        <ele>248.311</ele>
        <time>2019-05-02T10:04:03.945Z</time>
      </trkpt>
      <trkpt lat="48.2496629" lon="14.4869764">
        <ele>248.189</ele>
        <time>2019-05-02T10:04:30.258Z</time>
      </trkpt>
      <trkpt lat="48.2495932" lon="14.4870763">
        <ele>248.196</ele>
        <time>2019-05-02T10:04:39.232Z</time>
      </trkpt>
      <trkpt lat="48.2495102" lon="14.4871566">
        <ele>248.763</ele>
        <time>2019-05-02T10:04:48.848Z</time>
      </trkpt>
      <trkpt lat="48.2494169" lon="14.4871827">
        <ele>249.580</ele>
        <time>2019-05-02T10:04:57.895Z</time>
      </trkpt>
      <trkpt lat="48.2493286" lon="14.4872768">
        <ele>250.086</ele>
        <time>2019-05-02T10:05:04.007Z</time>
      </trkpt>
      <trkpt lat="48.2492453" lon="14.4873962">
        <ele>250.179</ele>
        <time>2019-05-02T10:05:08.612Z</time>
      </trkpt>
      <trkpt lat="48.2491711" lon="14.4874887">
        <ele>250.269</ele>
        <time>2019-05-02T10:05:11.761Z</time>
      </trkpt>
      <trkpt lat="48.2490834" lon="14.4875674">
        <ele>250.717</ele>
        <time>2019-05-02T10:05:14.697Z</time>
      </trkpt>
      <trkpt lat="48.2489889" lon="14.4876663">
        <ele>251.370</ele>
        <time>2019-05-02T10:05:17.811Z</time>
      </trkpt>
      <trkpt lat="48.2489094" lon="14.4877956">
        <ele>251.966</ele>
        <time>2019-05-02T10:05:20.849Z</time>
      </trkpt>
      <trkpt lat="48.2488416" lon="14.4879323">
        <ele>252.507</ele>
        <time>2019-05-02T10:05:23.804Z</time>
      </trkpt>
      <trkpt lat="48.2487660" lon="14.4880800">
        <ele>253.093</ele>
        <time>2019-05-02T10:05:26.998Z</time>
      </trkpt>
      <trkpt lat="48.2487660" lon="14.4880800">
        <ele>253.699</ele>
        <time>2019-05-02T10:05:28.998Z</time>
      </trkpt>
      <trkpt lat="48.2487660" lon="14.4880800">
        <ele>254.015</ele>
        <time>2019-05-02T10:05:29.098Z</time>
      </trkpt>
      <trkpt lat="48.2486665" lon="14.4884010">
        <ele>253.885</ele>
        <time>2019-05-02T10:05:39.042Z</time>
      </trkpt>
      <trkpt lat="48.2486274" lon="14.4885489">
        <ele>253.890</ele>
        <time>2019-05-02T10:05:42.113Z</time>
      </trkpt>
      <trkpt lat="48.2486080" lon="14.4887112">
        <ele>254.479</ele>
        <time>2019-05-02T10:05:44.530Z</time>
      </trkpt>
      <trkpt lat="48.2486193" lon="14.4889017">
        <ele>255.163</ele>
        <time>2019-05-02T10:05:46.841Z</time>
      </trkpt>
      <trkpt lat="48.2486736" lon="14.4891300">
        <ele>255.399</ele>
        <time>2019-05-02T10:05:49.503Z</time>
      </trkpt>
      <trkpt lat="48.2487496" lon="14.4893751">
        <ele>255.250</ele>
        <time>2019-05-02T10:05:52.284Z</time>
      </trkpt>
      <trkpt lat="48.2488793" lon="14.4895950">
        <ele>254.840</ele>
        <time>2019-05-02T10:05:55.129Z</time>
      </trkpt>
      <trkpt lat="48.2490260" lon="14.4897600">
        <ele>254.108</ele>
        <time>2019-05-02T10:05:57.604Z</time>
      </trkpt>
      <trkpt lat="48.2492030" lon="14.4899361">
        <ele>253.012</ele>
        <time>2019-05-02T10:06:00.232Z</time>
      </trkpt>
      <trkpt lat="48.2493917" lon="14.4901663">
        <ele>251.753</ele>
        <time>2019-05-02T10:06:03.034Z</time>
      </trkpt>
      <trkpt lat="48.2495792" lon="14.4904739">
        <ele>250.486</ele>
        <time>2019-05-02T10:06:06.372Z</time>
      </trkpt>
      <trkpt lat="48.2495882" lon="14.4908158">
        <ele>249.131</ele>
        <time>2019-05-02T10:06:09.239Z</time>
      </trkpt>
      <trkpt lat="48.2494135" lon="14.4910682">
        <ele>247.818</ele>
        <time>2019-05-02T10:06:12.419Z</time>
      </trkpt>
      <trkpt lat="48.2492520" lon="14.4912623">
        <ele>246.927</ele>
        <time>2019-05-02T10:06:15.521Z</time>
      </trkpt>
      <trkpt lat="48.2491186" lon="14.4914751">
        <ele>246.709</ele>
        <time>2019-05-02T10:06:18.946Z</time>
      </trkpt>
      <trkpt lat="48.2489862" lon="14.4916490">
        <ele>247.051</ele>
        <time>2019-05-02T10:06:22.449Z</time>
      </trkpt>
      <trkpt lat="48.2488875" lon="14.4918075">
        <ele>247.549</ele>
        <time>2019-05-02T10:06:25.476Z</time>
      </trkpt>
      <trkpt lat="48.2487905" lon="14.4919792">
        <ele>247.922</ele>
        <time>2019-05-02T10:06:28.687Z</time>
      </trkpt>
      <trkpt lat="48.2486891" lon="14.4921330">
        <ele>248.157</ele>
        <time>2019-05-02T10:06:31.756Z</time>
      </trkpt>
      <trkpt lat="48.2485838" lon="14.4922912">
        <ele>248.245</ele>
        <time>2019-05-02T10:06:34.804Z</time>
      </trkpt>
      <trkpt lat="48.2484980" lon="14.4924329">
        <ele>248.167</ele>
        <time>2019-05-02T10:06:37.327Z</time>
      </trkpt>
      <trkpt lat="48.2484036" lon="14.4925697">
        <ele>247.983</ele>
        <time>2019-05-02T10:06:39.871Z</time>
      </trkpt>
      <trkpt lat="48.2483096" lon="14.4927207">
        <ele>247.836</ele>
        <time>2019-05-02T10:06:42.483Z</time>
      </trkpt>
      <trkpt lat="48.2482036" lon="14.4929049">
        <ele>247.813</ele>
        <time>2019-05-02T10:06:45.461Z</time>
      </trkpt>
      <trkpt lat="48.2481177" lon="14.4931197">
        <ele>247.897</ele>
        <time>2019-05-02T10:06:48.509Z</time>
      </trkpt>
      <trkpt lat="48.2480404" lon="14.4933112">
        <ele>248.082</ele>
        <time>2019-05-02T10:06:51.249Z</time>
      </trkpt>
      <trkpt lat="48.2479715" lon="14.4934981">
        <ele>248.499</ele>
        <time>2019-05-02T10:06:53.879Z</time>
      </trkpt>
      <trkpt lat="48.2479493" lon="14.4937593">
        <ele>249.289</ele>
        <time>2019-05-02T10:06:57.136Z</time>
      </trkpt>
      <trkpt lat="48.2479296" lon="14.4939563">
        <ele>250.272</ele>
        <time>2019-05-02T10:06:59.671Z</time>
      </trkpt>
      <trkpt lat="48.2479395" lon="14.4941491">
        <ele>251.039</ele>
        <time>2019-05-02T10:07:02.185Z</time>
      </trkpt>
      <trkpt lat="48.2479711" lon="14.4943591">
        <ele>251.385</ele>
        <time>2019-05-02T10:07:05.038Z</time>
      </trkpt>
      <trkpt lat="48.2479972" lon="14.4945707">
        <ele>251.418</ele>
        <time>2019-05-02T10:07:07.926Z</time>
      </trkpt>
      <trkpt lat="48.2480230" lon="14.4947624">
        <ele>251.386</ele>
        <time>2019-05-02T10:07:10.476Z</time>
      </trkpt>
      <trkpt lat="48.2480061" lon="14.4949637">
        <ele>251.477</ele>
        <time>2019-05-02T10:07:13.101Z</time>
      </trkpt>
      <trkpt lat="48.2480096" lon="14.4951543">
        <ele>251.673</ele>
        <time>2019-05-02T10:07:15.681Z</time>
      </trkpt>
      <trkpt lat="48.2480455" lon="14.4953397">
        <ele>251.772</ele>
        <time>2019-05-02T10:07:18.482Z</time>
      </trkpt>
      <trkpt lat="48.2480690" lon="14.4955633">
        <ele>251.678</ele>
        <time>2019-05-02T10:07:21.697Z</time>
      </trkpt>
      <trkpt lat="48.2480404" lon="14.4957455">
        <ele>251.621</ele>
        <time>2019-05-02T10:07:24.291Z</time>
      </trkpt>
      <trkpt lat="48.2480434" lon="14.4959542">
        <ele>251.867</ele>
        <time>2019-05-02T10:07:27.255Z</time>
      </trkpt>
      <trkpt lat="48.2480265" lon="14.4961151">
        <ele>252.303</ele>
        <time>2019-05-02T10:07:29.725Z</time>
      </trkpt>
      <trkpt lat="48.2480056" lon="14.4962715">
        <ele>252.627</ele>
        <time>2019-05-02T10:07:32.395Z</time>
      </trkpt>
      <trkpt lat="48.2479807" lon="14.4964338">
        <ele>252.736</ele>
        <time>2019-05-02T10:07:35.300Z</time>
      </trkpt>
      <trkpt lat="48.2479678" lon="14.4966232">
        <ele>252.744</ele>
        <time>2019-05-02T10:07:38.523Z</time>
      </trkpt>
      <trkpt lat="48.2479385" lon="14.4968534">
        <ele>252.762</ele>
        <time>2019-05-02T10:07:41.990Z</time>
      </trkpt>
      <trkpt lat="48.2478976" lon="14.4970467">
        <ele>252.813</ele>
        <time>2019-05-02T10:07:44.696Z</time>
      </trkpt>
      <trkpt lat="48.2478538" lon="14.4972419">
        <ele>252.870</ele>
        <time>2019-05-02T10:07:47.422Z</time>
      </trkpt>
      <trkpt lat="48.2477927" lon="14.4974399">
        <ele>252.899</ele>
        <time>2019-05-02T10:07:50.109Z</time>
      </trkpt>
      <trkpt lat="48.2476849" lon="14.4976147">
        <ele>252.869</ele>
        <time>2019-05-02T10:07:52.884Z</time>
      </trkpt>
      <trkpt lat="48.2475934" lon="14.4978048">
        <ele>252.799</ele>
        <time>2019-05-02T10:07:55.606Z</time>
      </trkpt>
      <trkpt lat="48.2474742" lon="14.4980327">
        <ele>252.712</ele>
        <time>2019-05-02T10:07:58.930Z</time>
      </trkpt>
      <trkpt lat="48.2473164" lon="14.4982454">
        <ele>252.560</ele>
        <time>2019-05-02T10:08:02.309Z</time>
      </trkpt>
      <trkpt lat="48.2472215" lon="14.4984927">
        <ele>252.191</ele>
        <time>2019-05-02T10:08:05.217Z</time>
      </trkpt>
      <trkpt lat="48.2470855" lon="14.4986670">
        <ele>251.536</ele>
        <time>2019-05-02T10:08:08.050Z</time>
      </trkpt>
      <trkpt lat="48.2469706" lon="14.4988304">
        <ele>250.789</ele>
        <time>2019-05-02T10:08:10.688Z</time>
      </trkpt>
      <trkpt lat="48.2468762" lon="14.4990176">
        <ele>250.206</ele>
        <time>2019-05-02T10:08:13.379Z</time>
      </trkpt>
      <trkpt lat="48.2468128" lon="14.4992459">
        <ele>249.832</ele>
        <time>2019-05-02T10:08:16.267Z</time>
      </trkpt>
      <trkpt lat="48.2467937" lon="14.4995898">
        <ele>249.610</ele>
        <time>2019-05-02T10:08:20.320Z</time>
      </trkpt>
      <trkpt lat="48.2467722" lon="14.4999135">
        <ele>249.556</ele>
        <time>2019-05-02T10:08:24.031Z</time>
      </trkpt>
      <trkpt lat="48.2467862" lon="14.5002381">
        <ele>249.723</ele>
        <time>2019-05-02T10:08:27.844Z</time>
      </trkpt>
      <trkpt lat="48.2467656" lon="14.5004927">
        <ele>250.061</ele>
        <time>2019-05-02T10:08:31.333Z</time>
      </trkpt>
      <trkpt lat="48.2467875" lon="14.5007124">
        <ele>250.396</ele>
        <time>2019-05-02T10:08:34.702Z</time>
      </trkpt>
      <trkpt lat="48.2467777" lon="14.5009290">
        <ele>250.586</ele>
        <time>2019-05-02T10:08:38.124Z</time>
      </trkpt>
      <trkpt lat="48.2467610" lon="14.5010688">
        <ele>250.617</ele>
        <time>2019-05-02T10:08:40.439Z</time>
      </trkpt>
      <trkpt lat="48.2467791" lon="14.5012612">
        <ele>250.554</ele>
        <time>2019-05-02T10:08:43.524Z</time>
      </trkpt>
      <trkpt lat="48.2467631" lon="14.5014475">
        <ele>250.456</ele>
        <time>2019-05-02T10:08:46.333Z</time>
      </trkpt>
      <trkpt lat="48.2467977" lon="14.5016337">
        <ele>250.315</ele>
        <time>2019-05-02T10:08:49.092Z</time>
      </trkpt>
      <trkpt lat="48.2468495" lon="14.5018171">
        <ele>250.113</ele>
        <time>2019-05-02T10:08:51.780Z</time>
      </trkpt>
      <trkpt lat="48.2468949" lon="14.5020313">
        <ele>248.957</ele>
        <time>2019-05-02T10:08:54.612Z</time>
      </trkpt>
      <trkpt lat="48.2469379" lon="14.5022503">
        <ele>245.763</ele>
        <time>2019-05-02T10:08:57.367Z</time>
      </trkpt>
      <trkpt lat="48.2469978" lon="14.5024872">
        <ele>241.644</ele>
        <time>2019-05-02T10:09:00.283Z</time>
      </trkpt>
      <trkpt lat="48.2470598" lon="14.5027450">
        <ele>240.249</ele>
        <time>2019-05-02T10:09:03.273Z</time>
      </trkpt>
      <trkpt lat="48.2470894" lon="14.5030020">
        <ele>242.931</ele>
        <time>2019-05-02T10:09:06.024Z</time>
      </trkpt>
      <trkpt lat="48.2471171" lon="14.5032535">
        <ele>246.694</ele>
        <time>2019-05-02T10:09:08.647Z</time>
      </trkpt>
      <trkpt lat="48.2471747" lon="14.5035087">
        <ele>248.701</ele>
        <time>2019-05-02T10:09:11.376Z</time>
      </trkpt>
      <trkpt lat="48.2471576" lon="14.5037943">
        <ele>249.101</ele>
        <time>2019-05-02T10:09:14.245Z</time>
      </trkpt>
      <trkpt lat="48.2471571" lon="14.5040889">
        <ele>248.827</ele>
        <time>2019-05-02T10:09:17.111Z</time>
      </trkpt>
      <trkpt lat="48.2471082" lon="14.5043840">
        <ele>248.512</ele>
        <time>2019-05-02T10:09:20.029Z</time>
      </trkpt>
      <trkpt lat="48.2470236" lon="14.5047001">
        <ele>248.376</ele>
        <time>2019-05-02T10:09:23.317Z</time>
      </trkpt>
      <trkpt lat="48.2469609" lon="14.5049292">
        <ele>248.391</ele>
        <time>2019-05-02T10:09:25.714Z</time>
      </trkpt>
      <trkpt lat="48.2468864" lon="14.5051980">
        <ele>248.374</ele>
        <time>2019-05-02T10:09:28.583Z</time>
      </trkpt>
      <trkpt lat="48.2468267" lon="14.5054675">
        <ele>248.110</ele>
        <time>2019-05-02T10:09:31.454Z</time>
      </trkpt>
      <trkpt lat="48.2467682" lon="14.5057285">
        <ele>247.614</ele>
        <time>2019-05-02T10:09:34.241Z</time>
      </trkpt>
      <trkpt lat="48.2466987" lon="14.5059700">
        <ele>247.138</ele>
        <time>2019-05-02T10:09:36.892Z</time>
      </trkpt>
      <trkpt lat="48.2466280" lon="14.5062354">
        <ele>246.874</ele>
        <time>2019-05-02T10:09:39.793Z</time>
      </trkpt>
      <trkpt lat="48.2465589" lon="14.5064788">
        <ele>246.806</ele>
        <time>2019-05-02T10:09:42.503Z</time>
      </trkpt>
      <trkpt lat="48.2464970" lon="14.5066600">
        <ele>246.940</ele>
        <time>2019-05-02T10:09:44.636Z</time>
      </trkpt>
      <trkpt lat="48.2464444" lon="14.5068680">
        <ele>247.293</ele>
        <time>2019-05-02T10:09:47.067Z</time>
      </trkpt>
      <trkpt lat="48.2463802" lon="14.5070628">
        <ele>247.896</ele>
        <time>2019-05-02T10:09:49.463Z</time>
      </trkpt>
      <trkpt lat="48.2462975" lon="14.5072880">
        <ele>247.892</ele>
        <time>2019-05-02T10:09:52.270Z</time>
      </trkpt>
      <trkpt lat="48.2462155" lon="14.5074605">
        <ele>247.783</ele>
        <time>2019-05-02T10:09:54.583Z</time>
      </trkpt>
      <trkpt lat="48.2461027" lon="14.5075983">
        <ele>247.720</ele>
        <time>2019-05-02T10:09:57.030Z</time>
      </trkpt>
      <trkpt lat="48.2459623" lon="14.5077428">
        <ele>247.712</ele>
        <time>2019-05-02T10:10:00.014Z</time>
      </trkpt>
      <trkpt lat="48.2458517" lon="14.5078770">
        <ele>247.609</ele>
        <time>2019-05-02T10:10:02.534Z</time>
      </trkpt>
      <trkpt lat="48.2457464" lon="14.5080443">
        <ele>247.475</ele>
        <time>2019-05-02T10:10:05.244Z</time>
      </trkpt>
      <trkpt lat="48.2456645" lon="14.5081542">
        <ele>247.332</ele>
        <time>2019-05-02T10:10:07.291Z</time>
      </trkpt>
      <trkpt lat="48.2455439" lon="14.5082764">
        <ele>247.167</ele>
        <time>2019-05-02T10:10:10.125Z</time>
      </trkpt>
      <trkpt lat="48.2454448" lon="14.5083727">
        <ele>247.078</ele>
        <time>2019-05-02T10:10:12.614Z</time>
      </trkpt>
      <trkpt lat="48.2453669" lon="14.5084498">
        <ele>247.130</ele>
        <time>2019-05-02T10:10:14.702Z</time>
      </trkpt>
      <trkpt lat="48.2452693" lon="14.5085117">
        <ele>247.279</ele>
        <time>2019-05-02T10:10:17.206Z</time>
      </trkpt>
      <trkpt lat="48.2451865" lon="14.5085911">
        <ele>247.541</ele>
        <time>2019-05-02T10:10:19.631Z</time>
      </trkpt>
      <trkpt lat="48.2450948" lon="14.5086764">
        <ele>247.893</ele>
        <time>2019-05-02T10:10:22.589Z</time>
      </trkpt>
      <trkpt lat="48.2449863" lon="14.5087889">
        <ele>248.214</ele>
        <time>2019-05-02T10:10:27.448Z</time>
      </trkpt>
      <trkpt lat="48.2448785" lon="14.5088837">
        <ele>248.538</ele>
        <time>2019-05-02T10:10:31.744Z</time>
      </trkpt>
      <trkpt lat="48.2447963" lon="14.5089645">
        <ele>248.972</ele>
        <time>2019-05-02T10:10:34.495Z</time>
      </trkpt>
      <trkpt lat="48.2447066" lon="14.5090169">
        <ele>249.436</ele>
        <time>2019-05-02T10:10:37.028Z</time>
      </trkpt>
      <trkpt lat="48.2445871" lon="14.5090626">
        <ele>249.769</ele>
        <time>2019-05-02T10:10:40.285Z</time>
      </trkpt>
      <trkpt lat="48.2444444" lon="14.5091385">
        <ele>249.841</ele>
        <time>2019-05-02T10:10:44.797Z</time>
      </trkpt>
      <trkpt lat="48.2443251" lon="14.5092472">
        <ele>249.546</ele>
        <time>2019-05-02T10:10:48.810Z</time>
      </trkpt>
      <trkpt lat="48.2441501" lon="14.5094473">
        <ele>248.930</ele>
        <time>2019-05-02T10:10:54.085Z</time>
      </trkpt>
      <trkpt lat="48.2439194" lon="14.5097052">
        <ele>248.280</ele>
        <time>2019-05-02T10:10:59.221Z</time>
      </trkpt>
      <trkpt lat="48.2437422" lon="14.5099023">
        <ele>247.881</ele>
        <time>2019-05-02T10:11:02.711Z</time>
      </trkpt>
      <trkpt lat="48.2436328" lon="14.5100530">
        <ele>247.768</ele>
        <time>2019-05-02T10:11:05.373Z</time>
      </trkpt>
      <trkpt lat="48.2435334" lon="14.5102104">
        <ele>247.826</ele>
        <time>2019-05-02T10:11:08.393Z</time>
      </trkpt>
      <trkpt lat="48.2434437" lon="14.5103457">
        <ele>247.972</ele>
        <time>2019-05-02T10:11:11.333Z</time>
      </trkpt>
      <trkpt lat="48.2433436" lon="14.5104779">
        <ele>248.178</ele>
        <time>2019-05-02T10:11:14.631Z</time>
      </trkpt>
      <trkpt lat="48.2432612" lon="14.5105831">
        <ele>248.534</ele>
        <time>2019-05-02T10:11:17.530Z</time>
      </trkpt>
      <trkpt lat="48.2432006" lon="14.5106917">
        <ele>249.216</ele>
        <time>2019-05-02T10:11:20.302Z</time>
      </trkpt>
      <trkpt lat="48.2431263" lon="14.5108467">
        <ele>250.187</ele>
        <time>2019-05-02T10:11:24.247Z</time>
      </trkpt>
      <trkpt lat="48.2430407" lon="14.5109915">
        <ele>251.250</ele>
        <time>2019-05-02T10:11:28.208Z</time>
      </trkpt>
      <trkpt lat="48.2429651" lon="14.5111511">
        <ele>252.319</ele>
        <time>2019-05-02T10:11:32.181Z</time>
      </trkpt>
      <trkpt lat="48.2428959" lon="14.5113300">
        <ele>253.342</ele>
        <time>2019-05-02T10:11:36.369Z</time>
      </trkpt>
      <trkpt lat="48.2428524" lon="14.5114795">
        <ele>254.143</ele>
        <time>2019-05-02T10:11:39.702Z</time>
      </trkpt>
      <trkpt lat="48.2428174" lon="14.5116174">
        <ele>254.657</ele>
        <time>2019-05-02T10:11:42.663Z</time>
      </trkpt>
      <trkpt lat="48.2427838" lon="14.5117594">
        <ele>255.048</ele>
        <time>2019-05-02T10:11:45.801Z</time>
      </trkpt>
      <trkpt lat="48.2427549" lon="14.5118941">
        <ele>255.551</ele>
        <time>2019-05-02T10:11:48.799Z</time>
      </trkpt>
      <trkpt lat="48.2427009" lon="14.5120435">
        <ele>256.279</ele>
        <time>2019-05-02T10:11:52.131Z</time>
      </trkpt>
      <trkpt lat="48.2426432" lon="14.5121791">
        <ele>257.089</ele>
        <time>2019-05-02T10:11:55.015Z</time>
      </trkpt>
      <trkpt lat="48.2425945" lon="14.5123048">
        <ele>257.675</ele>
        <time>2019-05-02T10:11:57.511Z</time>
      </trkpt>
      <trkpt lat="48.2425498" lon="14.5124423">
        <ele>257.820</ele>
        <time>2019-05-02T10:12:00.071Z</time>
      </trkpt>
      <trkpt lat="48.2424999" lon="14.5126062">
        <ele>257.518</ele>
        <time>2019-05-02T10:12:02.842Z</time>
      </trkpt>
      <trkpt lat="48.2424315" lon="14.5128392">
        <ele>256.974</ele>
        <time>2019-05-02T10:12:06.221Z</time>
      </trkpt>
      <trkpt lat="48.2424031" lon="14.5131262">
        <ele>256.490</ele>
        <time>2019-05-02T10:12:09.472Z</time>
      </trkpt>
      <trkpt lat="48.2423329" lon="14.5134484">
        <ele>256.281</ele>
        <time>2019-05-02T10:12:12.781Z</time>
      </trkpt>
      <trkpt lat="48.2422886" lon="14.5137372">
        <ele>256.349</ele>
        <time>2019-05-02T10:12:15.448Z</time>
      </trkpt>
      <trkpt lat="48.2422760" lon="14.5140646">
        <ele>256.330</ele>
        <time>2019-05-02T10:12:18.270Z</time>
      </trkpt>
      <trkpt lat="48.2423063" lon="14.5143824">
        <ele>255.795</ele>
        <time>2019-05-02T10:12:20.910Z</time>
      </trkpt>
      <trkpt lat="48.2422857" lon="14.5147218">
        <ele>254.888</ele>
        <time>2019-05-02T10:12:23.663Z</time>
      </trkpt>
      <trkpt lat="48.2422245" lon="14.5150433">
        <ele>254.042</ele>
        <time>2019-05-02T10:12:26.351Z</time>
      </trkpt>
      <trkpt lat="48.2420474" lon="14.5152755">
        <ele>253.314</ele>
        <time>2019-05-02T10:12:29.203Z</time>
      </trkpt>
      <trkpt lat="48.2418661" lon="14.5154658">
        <ele>252.592</ele>
        <time>2019-05-02T10:12:31.954Z</time>
      </trkpt>
      <trkpt lat="48.2416594" lon="14.5155137">
        <ele>251.863</ele>
        <time>2019-05-02T10:12:34.726Z</time>
      </trkpt>
      <trkpt lat="48.2414692" lon="14.5154842">
        <ele>251.086</ele>
        <time>2019-05-02T10:12:37.704Z</time>
      </trkpt>
      <trkpt lat="48.2413511" lon="14.5154848">
        <ele>250.178</ele>
        <time>2019-05-02T10:12:39.999Z</time>
      </trkpt>
      <trkpt lat="48.2413511" lon="14.5154848">
        <ele>249.259</ele>
        <time>2019-05-02T10:12:44.999Z</time>
      </trkpt>
      <trkpt lat="48.2413511" lon="14.5154848">
        <ele>248.700</ele>
        <time>2019-05-02T10:15:05.990Z</time>
      </trkpt>
      <trkpt lat="48.2410750" lon="14.5155896">
        <ele>248.635</ele>
        <time>2019-05-02T10:15:35.306Z</time>
      </trkpt>
      <trkpt lat="48.2409703" lon="14.5155872">
        <ele>248.387</ele>
        <time>2019-05-02T10:15:42.959Z</time>
      </trkpt>
      <trkpt lat="48.2408710" lon="14.5155468">
        <ele>247.414</ele>
        <time>2019-05-02T10:15:48.917Z</time>
      </trkpt>
      <trkpt lat="48.2407646" lon="14.5155428">
        <ele>246.198</ele>
        <time>2019-05-02T10:15:52.998Z</time>
      </trkpt>
      <trkpt lat="48.2407646" lon="14.5155428">
        <ele>245.411</ele>
        <time>2019-05-02T10:16:03.998Z</time>
      </trkpt>
      <trkpt lat="48.2407646" lon="14.5155428">
        <ele>245.090</ele>
        <time>2019-05-02T10:16:04.098Z</time>
      </trkpt>
      <trkpt lat="48.2410299" lon="14.5155270">
        <ele>245.106</ele>
        <time>2019-05-02T10:16:30.998Z</time>
      </trkpt>
      <trkpt lat="48.2410299" lon="14.5155270">
        <ele>245.249</ele>
        <time>2019-05-02T10:16:34.998Z</time>
      </trkpt>
      <trkpt lat="48.2410299" lon="14.5155270">
        <ele>245.271</ele>
        <time>2019-05-02T10:17:47.602Z</time>
      </trkpt>
      <trkpt lat="48.2412539" lon="14.5156309">
        <ele>245.137</ele>
        <time>2019-05-02T10:18:07.340Z</time>
      </trkpt>
      <trkpt lat="48.2413525" lon="14.5156694">
        <ele>245.240</ele>
        <time>2019-05-02T10:18:10.737Z</time>
      </trkpt>
      <trkpt lat="48.2414630" lon="14.5156657">
        <ele>245.855</ele>
        <time>2019-05-02T10:18:13.850Z</time>
      </trkpt>
      <trkpt lat="48.2415599" lon="14.5156748">
        <ele>246.708</ele>
        <time>2019-05-02T10:18:16.379Z</time>
      </trkpt>
      <trkpt lat="48.2416606" lon="14.5156845">
        <ele>247.441</ele>
        <time>2019-05-02T10:18:18.998Z</time>
      </trkpt>
      <trkpt lat="48.2416606" lon="14.5156845">
        <ele>247.970</ele>
        <time>2019-05-02T10:18:23.998Z</time>
      </trkpt>
      <trkpt lat="48.2416606" lon="14.5156845">
        <ele>248.174</ele>
        <time>2019-05-02T10:19:16.258Z</time>
      </trkpt>
      <trkpt lat="48.2418494" lon="14.5155527">
        <ele>248.044</ele>
        <time>2019-05-02T10:19:32.029Z</time>
      </trkpt>
      <trkpt lat="48.2419336" lon="14.5154853">
        <ele>248.158</ele>
        <time>2019-05-02T10:19:35.706Z</time>
      </trkpt>
      <trkpt lat="48.2420117" lon="14.5154090">
        <ele>248.974</ele>
        <time>2019-05-02T10:19:38.924Z</time>
      </trkpt>
      <trkpt lat="48.2420830" lon="14.5153071">
        <ele>250.038</ele>
        <time>2019-05-02T10:19:41.999Z</time>
      </trkpt>
      <trkpt lat="48.2420830" lon="14.5153071">
        <ele>250.725</ele>
        <time>2019-05-02T10:19:45.999Z</time>
      </trkpt>
      <trkpt lat="48.2420830" lon="14.5153071">
        <ele>250.917</ele>
        <time>2019-05-02T10:19:46.099Z</time>
      </trkpt>
      <trkpt lat="48.2421819" lon="14.5150770">
        <ele>250.769</ele>
        <time>2019-05-02T10:19:59.824Z</time>
      </trkpt>
      <trkpt lat="48.2421819" lon="14.5150770">
        <ele>250.769</ele>
        <time>2019-05-02T10:19:59.824Z</time>
      </trkpt>
      <trkpt lat="48.2424632" lon="14.5150662">
        <ele>253.741</ele>
        <time>2019-05-02T10:20:20.998Z</time>
      </trkpt>
      <trkpt lat="48.2419647" lon="14.5153164">
        <ele>253.624</ele>
        <time>2019-05-02T10:22:58.297Z</time>
      </trkpt>
      <trkpt lat="48.2418112" lon="14.5153790">
        <ele>253.147</ele>
        <time>2019-05-02T10:23:45.890Z</time>
      </trkpt>
      <trkpt lat="48.2416236" lon="14.5154018">
        <ele>251.922</ele>
        <time>2019-05-02T10:24:42.222Z</time>
      </trkpt>
      <trkpt lat="48.2414569" lon="14.5154225">
        <ele>250.363</ele>
        <time>2019-05-02T10:25:32.262Z</time>
      </trkpt>
      <trkpt lat="48.2413729" lon="14.5154746">
        <ele>248.972</ele>
        <time>2019-05-02T10:25:59.447Z</time>
      </trkpt>
      <trkpt lat="48.2412932" lon="14.5155712">
        <ele>247.796</ele>
        <time>2019-05-02T10:26:30.073Z</time>
      </trkpt>
      <trkpt lat="48.2411998" lon="14.5157447">
        <ele>246.962</ele>
        <time>2019-05-02T10:27:13.156Z</time>
      </trkpt>
      <trkpt lat="48.2411802" lon="14.5159278">
        <ele>246.600</ele>
        <time>2019-05-02T10:27:32.998Z</time>
      </trkpt>
      <trkpt lat="48.2411802" lon="14.5159278">
        <ele>246.611</ele>
        <time>2019-05-02T10:27:35.998Z</time>
      </trkpt>
      <trkpt lat="48.2411802" lon="14.5159278">
        <ele>246.674</ele>
        <time>2019-05-02T10:28:21.024Z</time>
      </trkpt>
      <trkpt lat="48.2410325" lon="14.5161801">
        <ele>246.581</ele>
        <time>2019-05-02T10:29:00.440Z</time>
      </trkpt>
      <trkpt lat="48.2409916" lon="14.5163307">
        <ele>246.575</ele>
        <time>2019-05-02T10:29:06.860Z</time>
      </trkpt>
      <trkpt lat="48.2409416" lon="14.5164516">
        <ele>246.898</ele>
        <time>2019-05-02T10:29:10.486Z</time>
      </trkpt>
      <trkpt lat="48.2408856" lon="14.5165901">
        <ele>247.335</ele>
        <time>2019-05-02T10:29:14.204Z</time>
      </trkpt>
      <trkpt lat="48.2408493" lon="14.5167342">
        <ele>247.653</ele>
        <time>2019-05-02T10:29:17.477Z</time>
      </trkpt>
      <trkpt lat="48.2408445" lon="14.5169520">
        <ele>247.860</ele>
        <time>2019-05-02T10:29:21.201Z</time>
      </trkpt>
      <trkpt lat="48.2407857" lon="14.5171149">
        <ele>248.017</ele>
        <time>2019-05-02T10:29:24.070Z</time>
      </trkpt>
      <trkpt lat="48.2407075" lon="14.5172878">
        <ele>248.211</ele>
        <time>2019-05-02T10:29:27.213Z</time>
      </trkpt>
      <trkpt lat="48.2406261" lon="14.5174649">
        <ele>248.508</ele>
        <time>2019-05-02T10:29:30.261Z</time>
      </trkpt>
      <trkpt lat="48.2405600" lon="14.5176072">
        <ele>248.838</ele>
        <time>2019-05-02T10:29:32.675Z</time>
      </trkpt>
      <trkpt lat="48.2404876" lon="14.5177990">
        <ele>249.054</ele>
        <time>2019-05-02T10:29:35.854Z</time>
      </trkpt>
      <trkpt lat="48.2403976" lon="14.5179815">
        <ele>249.102</ele>
        <time>2019-05-02T10:29:39.264Z</time>
      </trkpt>
      <trkpt lat="48.2403228" lon="14.5181399">
        <ele>249.102</ele>
        <time>2019-05-02T10:29:42.224Z</time>
      </trkpt>
      <trkpt lat="48.2402403" lon="14.5182987">
        <ele>249.154</ele>
        <time>2019-05-02T10:29:45.278Z</time>
      </trkpt>
      <trkpt lat="48.2401596" lon="14.5184399">
        <ele>249.226</ele>
        <time>2019-05-02T10:29:48.115Z</time>
      </trkpt>
      <trkpt lat="48.2400907" lon="14.5186047">
        <ele>249.244</ele>
        <time>2019-05-02T10:29:51.287Z</time>
      </trkpt>
      <trkpt lat="48.2399856" lon="14.5188499">
        <ele>249.172</ele>
        <time>2019-05-02T10:29:56.647Z</time>
      </trkpt>
      <trkpt lat="48.2399393" lon="14.5189801">
        <ele>248.951</ele>
        <time>2019-05-02T10:29:59.529Z</time>
      </trkpt>
      <trkpt lat="48.2398670" lon="14.5190950">
        <ele>248.556</ele>
        <time>2019-05-02T10:30:02.519Z</time>
      </trkpt>
      <trkpt lat="48.2397813" lon="14.5192151">
        <ele>248.080</ele>
        <time>2019-05-02T10:30:05.683Z</time>
      </trkpt>
      <trkpt lat="48.2397232" lon="14.5193707">
        <ele>247.581</ele>
        <time>2019-05-02T10:30:08.778Z</time>
      </trkpt>
      <trkpt lat="48.2396571" lon="14.5194978">
        <ele>247.003</ele>
        <time>2019-05-02T10:30:11.358Z</time>
      </trkpt>
      <trkpt lat="48.2396201" lon="14.5196589">
        <ele>246.400</ele>
        <time>2019-05-02T10:30:13.829Z</time>
      </trkpt>
      <trkpt lat="48.2395943" lon="14.5198318">
        <ele>245.920</ele>
        <time>2019-05-02T10:30:16.193Z</time>
      </trkpt>
      <trkpt lat="48.2395254" lon="14.5200044">
        <ele>245.581</ele>
        <time>2019-05-02T10:30:18.815Z</time>
      </trkpt>
      <trkpt lat="48.2394594" lon="14.5202521">
        <ele>245.315</ele>
        <time>2019-05-02T10:30:22.326Z</time>
      </trkpt>
      <trkpt lat="48.2394013" lon="14.5204399">
        <ele>245.044</ele>
        <time>2019-05-02T10:30:25.080Z</time>
      </trkpt>
      <trkpt lat="48.2393968" lon="14.5206737">
        <ele>244.725</ele>
        <time>2019-05-02T10:30:28.215Z</time>
      </trkpt>
      <trkpt lat="48.2393938" lon="14.5208558">
        <ele>244.425</ele>
        <time>2019-05-02T10:30:30.627Z</time>
      </trkpt>
      <trkpt lat="48.2393903" lon="14.5210683">
        <ele>244.251</ele>
        <time>2019-05-02T10:30:33.475Z</time>
      </trkpt>
      <trkpt lat="48.2394231" lon="14.5212651">
        <ele>244.216</ele>
        <time>2019-05-02T10:30:36.212Z</time>
      </trkpt>
      <trkpt lat="48.2394529" lon="14.5214544">
        <ele>244.277</ele>
        <time>2019-05-02T10:30:38.858Z</time>
      </trkpt>
      <trkpt lat="48.2395023" lon="14.5216729">
        <ele>244.423</ele>
        <time>2019-05-02T10:30:41.966Z</time>
      </trkpt>
      <trkpt lat="48.2395521" lon="14.5218774">
        <ele>244.620</ele>
        <time>2019-05-02T10:30:44.832Z</time>
      </trkpt>
      <trkpt lat="48.2396050" lon="14.5220822">
        <ele>244.767</ele>
        <time>2019-05-02T10:30:47.696Z</time>
      </trkpt>
      <trkpt lat="48.2396750" lon="14.5222808">
        <ele>244.811</ele>
        <time>2019-05-02T10:30:50.637Z</time>
      </trkpt>
      <trkpt lat="48.2397282" lon="14.5225122">
        <ele>244.804</ele>
        <time>2019-05-02T10:30:53.873Z</time>
      </trkpt>
      <trkpt lat="48.2397841" lon="14.5227437">
        <ele>244.823</ele>
        <time>2019-05-02T10:30:57.089Z</time>
      </trkpt>
      <trkpt lat="48.2398361" lon="14.5229415">
        <ele>244.903</ele>
        <time>2019-05-02T10:30:59.877Z</time>
      </trkpt>
      <trkpt lat="48.2398946" lon="14.5231638">
        <ele>245.069</ele>
        <time>2019-05-02T10:31:03.110Z</time>
      </trkpt>
      <trkpt lat="48.2399278" lon="14.5233569">
        <ele>245.403</ele>
        <time>2019-05-02T10:31:05.881Z</time>
      </trkpt>
      <trkpt lat="48.2399833" lon="14.5235258">
        <ele>245.937</ele>
        <time>2019-05-02T10:31:08.541Z</time>
      </trkpt>
      <trkpt lat="48.2400262" lon="14.5236980">
        <ele>246.489</ele>
        <time>2019-05-02T10:31:11.080Z</time>
      </trkpt>
      <trkpt lat="48.2400777" lon="14.5239073">
        <ele>246.812</ele>
        <time>2019-05-02T10:31:13.974Z</time>
      </trkpt>
      <trkpt lat="48.2401255" lon="14.5241411">
        <ele>246.871</ele>
        <time>2019-05-02T10:31:17.007Z</time>
      </trkpt>
      <trkpt lat="48.2401834" lon="14.5243902">
        <ele>246.809</ele>
        <time>2019-05-02T10:31:20.332Z</time>
      </trkpt>
      <trkpt lat="48.2402304" lon="14.5246520">
        <ele>246.723</ele>
        <time>2019-05-02T10:31:23.950Z</time>
      </trkpt>
      <trkpt lat="48.2402892" lon="14.5247955">
        <ele>246.583</ele>
        <time>2019-05-02T10:31:26.138Z</time>
      </trkpt>
      <trkpt lat="48.2403893" lon="14.5249507">
        <ele>246.391</ele>
        <time>2019-05-02T10:31:28.715Z</time>
      </trkpt>
      <trkpt lat="48.2404735" lon="14.5251996">
        <ele>246.253</ele>
        <time>2019-05-02T10:31:31.785Z</time>
      </trkpt>
      <trkpt lat="48.2405443" lon="14.5254368">
        <ele>246.311</ele>
        <time>2019-05-02T10:31:34.576Z</time>
      </trkpt>
      <trkpt lat="48.2406137" lon="14.5256746">
        <ele>246.604</ele>
        <time>2019-05-02T10:31:37.167Z</time>
      </trkpt>
      <trkpt lat="48.2406789" lon="14.5260029">
        <ele>246.979</ele>
        <time>2019-05-02T10:31:40.427Z</time>
      </trkpt>
      <trkpt lat="48.2407604" lon="14.5262668">
        <ele>247.204</ele>
        <time>2019-05-02T10:31:43.178Z</time>
      </trkpt>
      <trkpt lat="48.2408207" lon="14.5265783">
        <ele>247.223</ele>
        <time>2019-05-02T10:31:46.098Z</time>
      </trkpt>
      <trkpt lat="48.2408948" lon="14.5269204">
        <ele>247.178</ele>
        <time>2019-05-02T10:31:49.285Z</time>
      </trkpt>
      <trkpt lat="48.2409479" lon="14.5273268">
        <ele>247.215</ele>
        <time>2019-05-02T10:31:53.048Z</time>
      </trkpt>
      <trkpt lat="48.2409977" lon="14.5276099">
        <ele>247.329</ele>
        <time>2019-05-02T10:31:55.773Z</time>
      </trkpt>
      <trkpt lat="48.2410551" lon="14.5278973">
        <ele>247.436</ele>
        <time>2019-05-02T10:31:58.735Z</time>
      </trkpt>
      <trkpt lat="48.2411011" lon="14.5281647">
        <ele>246.153</ele>
        <time>2019-05-02T10:32:01.635Z</time>
      </trkpt>
      <trkpt lat="48.2411609" lon="14.5284446">
        <ele>241.488</ele>
        <time>2019-05-02T10:32:04.708Z</time>
      </trkpt>
      <trkpt lat="48.2412214" lon="14.5287040">
        <ele>234.220</ele>
        <time>2019-05-02T10:32:07.495Z</time>
      </trkpt>
      <trkpt lat="48.2412917" lon="14.5289754">
        <ele>227.565</ele>
        <time>2019-05-02T10:32:10.441Z</time>
      </trkpt>
      <trkpt lat="48.2413595" lon="14.5292342">
        <ele>223.482</ele>
        <time>2019-05-02T10:32:13.271Z</time>
      </trkpt>
      <trkpt lat="48.2414099" lon="14.5295100">
        <ele>221.789</ele>
        <time>2019-05-02T10:32:16.241Z</time>
      </trkpt>
      <trkpt lat="48.2414630" lon="14.5297522">
        <ele>221.365</ele>
        <time>2019-05-02T10:32:18.959Z</time>
      </trkpt>
      <trkpt lat="48.2415265" lon="14.5300240">
        <ele>221.322</ele>
        <time>2019-05-02T10:32:21.978Z</time>
      </trkpt>
      <trkpt lat="48.2416198" lon="14.5302384">
        <ele>224.725</ele>
        <time>2019-05-02T10:32:24.626Z</time>
      </trkpt>
      <trkpt lat="48.2417009" lon="14.5305103">
        <ele>233.865</ele>
        <time>2019-05-02T10:32:27.767Z</time>
      </trkpt>
      <trkpt lat="48.2417480" lon="14.5307879">
        <ele>243.707</ele>
        <time>2019-05-02T10:32:30.771Z</time>
      </trkpt>
      <trkpt lat="48.2418254" lon="14.5310724">
        <ele>248.807</ele>
        <time>2019-05-02T10:32:33.857Z</time>
      </trkpt>
      <trkpt lat="48.2418652" lon="14.5313391">
        <ele>249.919</ele>
        <time>2019-05-02T10:32:36.541Z</time>
      </trkpt>
      <trkpt lat="48.2419159" lon="14.5315998">
        <ele>249.443</ele>
        <time>2019-05-02T10:32:39.187Z</time>
      </trkpt>
      <trkpt lat="48.2419514" lon="14.5319090">
        <ele>248.778</ele>
        <time>2019-05-02T10:32:42.209Z</time>
      </trkpt>
      <trkpt lat="48.2420064" lon="14.5322130">
        <ele>248.150</ele>
        <time>2019-05-02T10:32:45.238Z</time>
      </trkpt>
      <trkpt lat="48.2420340" lon="14.5324832">
        <ele>247.488</ele>
        <time>2019-05-02T10:32:47.931Z</time>
      </trkpt>
      <trkpt lat="48.2420583" lon="14.5327413">
        <ele>246.940</ele>
        <time>2019-05-02T10:32:50.731Z</time>
      </trkpt>
      <trkpt lat="48.2420364" lon="14.5329134">
        <ele>246.900</ele>
        <time>2019-05-02T10:32:53.000Z</time>
      </trkpt>
      <trkpt lat="48.2420364" lon="14.5329134">
        <ele>247.454</ele>
        <time>2019-05-02T10:32:57.000Z</time>
      </trkpt>
      <trkpt lat="48.2420364" lon="14.5329134">
        <ele>247.943</ele>
        <time>2019-05-02T10:33:01.214Z</time>
      </trkpt>
      <trkpt lat="48.2418274" lon="14.5328349">
        <ele>247.839</ele>
        <time>2019-05-02T10:33:14.654Z</time>
      </trkpt>
      <trkpt lat="48.2417396" lon="14.5327815">
        <ele>247.469</ele>
        <time>2019-05-02T10:33:18.146Z</time>
      </trkpt>
      <trkpt lat="48.2416352" lon="14.5327822">
        <ele>247.365</ele>
        <time>2019-05-02T10:33:21.753Z</time>
      </trkpt>
      <trkpt lat="48.2415289" lon="14.5327864">
        <ele>247.622</ele>
        <time>2019-05-02T10:33:25.361Z</time>
      </trkpt>
      <trkpt lat="48.2414084" lon="14.5328629">
        <ele>247.865</ele>
        <time>2019-05-02T10:33:28.909Z</time>
      </trkpt>
      <trkpt lat="48.2413067" lon="14.5330081">
        <ele>247.682</ele>
        <time>2019-05-02T10:33:32.036Z</time>
      </trkpt>
      <trkpt lat="48.2411604" lon="14.5330896">
        <ele>246.998</ele>
        <time>2019-05-02T10:33:35.253Z</time>
      </trkpt>
      <trkpt lat="48.2410219" lon="14.5331576">
        <ele>245.973</ele>
        <time>2019-05-02T10:33:38.173Z</time>
      </trkpt>
      <trkpt lat="48.2408741" lon="14.5332138">
        <ele>244.961</ele>
        <time>2019-05-02T10:33:41.273Z</time>
      </trkpt>
      <trkpt lat="48.2407460" lon="14.5333108">
        <ele>244.324</ele>
        <time>2019-05-02T10:33:44.206Z</time>
      </trkpt>
      <trkpt lat="48.2406163" lon="14.5333779">
        <ele>244.114</ele>
        <time>2019-05-02T10:33:46.986Z</time>
      </trkpt>
      <trkpt lat="48.2405033" lon="14.5334901">
        <ele>244.114</ele>
        <time>2019-05-02T10:33:49.787Z</time>
      </trkpt>
      <trkpt lat="48.2404278" lon="14.5336818">
        <ele>244.120</ele>
        <time>2019-05-02T10:33:52.993Z</time>
      </trkpt>
      <trkpt lat="48.2403579" lon="14.5338476">
        <ele>244.082</ele>
        <time>2019-05-02T10:33:55.923Z</time>
      </trkpt>
      <trkpt lat="48.2402644" lon="14.5339670">
        <ele>244.038</ele>
        <time>2019-05-02T10:33:58.853Z</time>
      </trkpt>
      <trkpt lat="48.2401689" lon="14.5340871">
        <ele>244.012</ele>
        <time>2019-05-02T10:34:02.109Z</time>
      </trkpt>
      <trkpt lat="48.2401112" lon="14.5341916">
        <ele>244.004</ele>
        <time>2019-05-02T10:34:04.668Z</time>
      </trkpt>
      <trkpt lat="48.2400226" lon="14.5343066">
        <ele>244.005</ele>
        <time>2019-05-02T10:34:08.234Z</time>
      </trkpt>
      <trkpt lat="48.2399365" lon="14.5343816">
        <ele>244.009</ele>
        <time>2019-05-02T10:34:11.245Z</time>
      </trkpt>
      <trkpt lat="48.2398480" lon="14.5344840">
        <ele>244.011</ele>
        <time>2019-05-02T10:34:14.548Z</time>
      </trkpt>
      <trkpt lat="48.2397818" lon="14.5345961">
        <ele>244.012</ele>
        <time>2019-05-02T10:34:18.446Z</time>
      </trkpt>
      <trkpt lat="48.2396845" lon="14.5345981">
        <ele>244.012</ele>
        <time>2019-05-02T10:34:24.412Z</time>
      </trkpt>
      <trkpt lat="48.2395866" lon="14.5345864">
        <ele>244.017</ele>
        <time>2019-05-02T10:34:28.983Z</time>
      </trkpt>
      <trkpt lat="48.2394798" lon="14.5346186">
        <ele>244.059</ele>
        <time>2019-05-02T10:34:32.167Z</time>
      </trkpt>
      <trkpt lat="48.2393505" lon="14.5346203">
        <ele>244.189</ele>
        <time>2019-05-02T10:34:35.392Z</time>
      </trkpt>
      <trkpt lat="48.2392102" lon="14.5346055">
        <ele>244.424</ele>
        <time>2019-05-02T10:34:38.655Z</time>
      </trkpt>
      <trkpt lat="48.2391167" lon="14.5346105">
        <ele>244.690</ele>
        <time>2019-05-02T10:34:40.999Z</time>
      </trkpt>
      <trkpt lat="48.2391167" lon="14.5346105">
        <ele>244.872</ele>
        <time>2019-05-02T10:34:47.999Z</time>
      </trkpt>
      <trkpt lat="48.2391167" lon="14.5346105">
        <ele>244.895</ele>
        <time>2019-05-02T10:35:16.647Z</time>
      </trkpt>
      <trkpt lat="48.2390217" lon="14.5346162">
        <ele>244.756</ele>
        <time>2019-05-02T10:35:22.999Z</time>
      </trkpt>
      <trkpt lat="48.2390217" lon="14.5346162">
        <ele>244.565</ele>
        <time>2019-05-02T10:35:30.999Z</time>
      </trkpt>
      <trkpt lat="48.2390217" lon="14.5346162">
        <ele>244.427</ele>
        <time>2019-05-02T10:36:09.467Z</time>
      </trkpt>
      <trkpt lat="48.2388363" lon="14.5347775">
        <ele>244.338</ele>
        <time>2019-05-02T10:36:31.999Z</time>
      </trkpt>
      <trkpt lat="48.2388363" lon="14.5347775">
        <ele>244.252</ele>
        <time>2019-05-02T10:36:47.999Z</time>
      </trkpt>
      <trkpt lat="48.2388363" lon="14.5347775">
        <ele>244.143</ele>
        <time>2019-05-02T10:37:44.421Z</time>
      </trkpt>
      <trkpt lat="48.2387159" lon="14.5350394">
        <ele>244.032</ele>
        <time>2019-05-02T10:38:05.221Z</time>
      </trkpt>
      <trkpt lat="48.2386745" lon="14.5351811">
        <ele>243.505</ele>
        <time>2019-05-02T10:38:09.237Z</time>
      </trkpt>
      <trkpt lat="48.2386418" lon="14.5353440">
        <ele>237.910</ele>
        <time>2019-05-02T10:38:12.716Z</time>
      </trkpt>
      <trkpt lat="48.2386264" lon="14.5355278">
        <ele>223.575</ele>
        <time>2019-05-02T10:38:15.834Z</time>
      </trkpt>
      <trkpt lat="48.2385950" lon="14.5357265">
        <ele>206.418</ele>
        <time>2019-05-02T10:38:18.836Z</time>
      </trkpt>
      <trkpt lat="48.2385755" lon="14.5359413">
        <ele>195.106</ele>
        <time>2019-05-02T10:38:21.732Z</time>
      </trkpt>
      <trkpt lat="48.2385416" lon="14.5361784">
        <ele>197.410</ele>
        <time>2019-05-02T10:38:24.733Z</time>
      </trkpt>
      <trkpt lat="48.2385317" lon="14.5364263">
        <ele>214.292</ele>
        <time>2019-05-02T10:38:27.654Z</time>
      </trkpt>
      <trkpt lat="48.2385137" lon="14.5366395">
        <ele>233.111</ele>
        <time>2019-05-02T10:38:30.137Z</time>
      </trkpt>
      <trkpt lat="48.2384954" lon="14.5368551">
        <ele>242.884</ele>
        <time>2019-05-02T10:38:32.640Z</time>
      </trkpt>
      <trkpt lat="48.2384671" lon="14.5370904">
        <ele>245.081</ele>
        <time>2019-05-02T10:38:35.399Z</time>
      </trkpt>
      <trkpt lat="48.2384588" lon="14.5373140">
        <ele>244.003</ele>
        <time>2019-05-02T10:38:37.998Z</time>
      </trkpt>
      <trkpt lat="48.2384588" lon="14.5373140">
        <ele>242.561</ele>
        <time>2019-05-02T10:38:39.998Z</time>
      </trkpt>
      <trkpt lat="48.2384588" lon="14.5373140">
        <ele>241.839</ele>
        <time>2019-05-02T10:38:40.098Z</time>
      </trkpt>
      <trkpt lat="48.2384492" lon="14.5376934">
        <ele>241.820</ele>
        <time>2019-05-02T10:38:47.958Z</time>
      </trkpt>
      <trkpt lat="48.2383988" lon="14.5378501">
        <ele>242.082</ele>
        <time>2019-05-02T10:38:50.733Z</time>
      </trkpt>
      <trkpt lat="48.2383243" lon="14.5379926">
        <ele>242.334</ele>
        <time>2019-05-02T10:38:53.436Z</time>
      </trkpt>
      <trkpt lat="48.2382804" lon="14.5381753">
        <ele>242.526</ele>
        <time>2019-05-02T10:38:56.149Z</time>
      </trkpt>
      <trkpt lat="48.2382333" lon="14.5383884">
        <ele>242.642</ele>
        <time>2019-05-02T10:38:59.112Z</time>
      </trkpt>
      <trkpt lat="48.2381814" lon="14.5386068">
        <ele>242.654</ele>
        <time>2019-05-02T10:39:02.034Z</time>
      </trkpt>
      <trkpt lat="48.2381336" lon="14.5388294">
        <ele>242.550</ele>
        <time>2019-05-02T10:39:04.942Z</time>
      </trkpt>
      <trkpt lat="48.2380799" lon="14.5390313">
        <ele>242.368</ele>
        <time>2019-05-02T10:39:07.613Z</time>
      </trkpt>
      <trkpt lat="48.2380061" lon="14.5393195">
        <ele>242.263</ele>
        <time>2019-05-02T10:39:11.282Z</time>
      </trkpt>
      <trkpt lat="48.2379518" lon="14.5395771">
        <ele>242.366</ele>
        <time>2019-05-02T10:39:14.317Z</time>
      </trkpt>
      <trkpt lat="48.2378910" lon="14.5398183">
        <ele>242.603</ele>
        <time>2019-05-02T10:39:17.092Z</time>
      </trkpt>
      <trkpt lat="48.2378281" lon="14.5400737">
        <ele>242.797</ele>
        <time>2019-05-02T10:39:19.984Z</time>
      </trkpt>
      <trkpt lat="48.2377585" lon="14.5403031">
        <ele>242.878</ele>
        <time>2019-05-02T10:39:22.696Z</time>
      </trkpt>
      <trkpt lat="48.2376877" lon="14.5405283">
        <ele>242.961</ele>
        <time>2019-05-02T10:39:25.405Z</time>
      </trkpt>
      <trkpt lat="48.2376206" lon="14.5407610">
        <ele>243.135</ele>
        <time>2019-05-02T10:39:28.171Z</time>
      </trkpt>
      <trkpt lat="48.2375457" lon="14.5409851">
        <ele>243.191</ele>
        <time>2019-05-02T10:39:30.905Z</time>
      </trkpt>
      <trkpt lat="48.2374722" lon="14.5412188">
        <ele>242.956</ele>
        <time>2019-05-02T10:39:33.721Z</time>
      </trkpt>
      <trkpt lat="48.2374203" lon="14.5414363">
        <ele>242.755</ele>
        <time>2019-05-02T10:39:36.257Z</time>
      </trkpt>
      <trkpt lat="48.2373668" lon="14.5416586">
        <ele>242.883</ele>
        <time>2019-05-02T10:39:38.926Z</time>
      </trkpt>
      <trkpt lat="48.2373139" lon="14.5419035">
        <ele>243.042</ele>
        <time>2019-05-02T10:39:41.935Z</time>
      </trkpt>
      <trkpt lat="48.2372977" lon="14.5420364">
        <ele>242.925</ele>
        <time>2019-05-02T10:39:43.926Z</time>
      </trkpt>
      <trkpt lat="48.2373429" lon="14.5418920">
        <ele>242.685</ele>
        <time>2019-05-02T10:39:47.319Z</time>
      </trkpt>
      <trkpt lat="48.2373786" lon="14.5417560">
        <ele>242.541</ele>
        <time>2019-05-02T10:39:51.274Z</time>
      </trkpt>
      <trkpt lat="48.2374071" lon="14.5416230">
        <ele>242.486</ele>
        <time>2019-05-02T10:39:57.999Z</time>
      </trkpt>
      <trkpt lat="48.2374071" lon="14.5416230">
        <ele>242.424</ele>
        <time>2019-05-02T10:39:58.000Z</time>
      </trkpt>
      <trkpt lat="48.2374071" lon="14.5416230">
        <ele>242.321</ele>
        <time>2019-05-02T10:39:58.100Z</time>
      </trkpt>
      <trkpt lat="48.2373496" lon="14.5417349">
        <ele>242.162</ele>
        <time>2019-05-02T10:40:40.902Z</time>
      </trkpt>
      <trkpt lat="48.2372616" lon="14.5418071">
        <ele>242.092</ele>
        <time>2019-05-02T10:41:16.920Z</time>
      </trkpt>
      <trkpt lat="48.2371710" lon="14.5417638">
        <ele>241.941</ele>
        <time>2019-05-02T10:41:50.948Z</time>
      </trkpt>
      <trkpt lat="48.2370836" lon="14.5418019">
        <ele>241.645</ele>
        <time>2019-05-02T10:42:23.529Z</time>
      </trkpt>
      <trkpt lat="48.2370165" lon="14.5419527">
        <ele>241.163</ele>
        <time>2019-05-02T10:43:27.760Z</time>
      </trkpt>
      <trkpt lat="48.2370165" lon="14.5419527">
        <ele>241.163</ele>
        <time>2019-05-02T10:43:27.760Z</time>
      </trkpt>
      <trkpt lat="48.2368926" lon="14.5422366">
        <ele>239.343</ele>
        <time>2019-05-02T10:44:16.785Z</time>
      </trkpt>
      <trkpt lat="48.2368926" lon="14.5422366">
        <ele>239.343</ele>
        <time>2019-05-02T10:44:16.785Z</time>
      </trkpt>
      <trkpt lat="48.2369132" lon="14.5418638">
        <ele>239.343</ele>
        <time>2019-05-02T10:45:03.392Z</time>
      </trkpt>
      <trkpt lat="48.2369339" lon="14.5420100">
        <ele>239.232</ele>
        <time>2019-05-02T10:45:22.015Z</time>
      </trkpt>
      <trkpt lat="48.2369282" lon="14.5421896">
        <ele>239.191</ele>
        <time>2019-05-02T10:45:41.866Z</time>
      </trkpt>
      <trkpt lat="48.2369230" lon="14.5423600">
        <ele>239.192</ele>
        <time>2019-05-02T10:46:09.709Z</time>
      </trkpt>
      <trkpt lat="48.2369117" lon="14.5425531">
        <ele>239.204</ele>
        <time>2019-05-02T10:46:45.363Z</time>
      </trkpt>
      <trkpt lat="48.2369911" lon="14.5426626">
        <ele>239.213</ele>
        <time>2019-05-02T10:47:05.406Z</time>
      </trkpt>
      <trkpt lat="48.2370359" lon="14.5428831">
        <ele>239.220</ele>
        <time>2019-05-02T10:47:12.909Z</time>
      </trkpt>
      <trkpt lat="48.2370577" lon="14.5431732">
        <ele>239.401</ele>
        <time>2019-05-02T10:47:19.434Z</time>
      </trkpt>
      <trkpt lat="48.2370583" lon="14.5433220">
        <ele>239.967</ele>
        <time>2019-05-02T10:47:22.426Z</time>
      </trkpt>
      <trkpt lat="48.2370518" lon="14.5434863">
        <ele>240.804</ele>
        <time>2019-05-02T10:47:25.605Z</time>
      </trkpt>
      <trkpt lat="48.2370411" lon="14.5436662">
        <ele>241.655</ele>
        <time>2019-05-02T10:47:28.938Z</time>
      </trkpt>
      <trkpt lat="48.2370177" lon="14.5438276">
        <ele>242.506</ele>
        <time>2019-05-02T10:47:31.812Z</time>
      </trkpt>
      <trkpt lat="48.2369980" lon="14.5439793">
        <ele>243.355</ele>
        <time>2019-05-02T10:47:34.372Z</time>
      </trkpt>
      <trkpt lat="48.2369760" lon="14.5441497">
        <ele>244.024</ele>
        <time>2019-05-02T10:47:37.169Z</time>
      </trkpt>
      <trkpt lat="48.2369474" lon="14.5443140">
        <ele>244.375</ele>
        <time>2019-05-02T10:47:39.864Z</time>
      </trkpt>
      <trkpt lat="48.2369169" lon="14.5444702">
        <ele>244.494</ele>
        <time>2019-05-02T10:47:42.434Z</time>
      </trkpt>
      <trkpt lat="48.2368926" lon="14.5446318">
        <ele>244.532</ele>
        <time>2019-05-02T10:47:45.033Z</time>
      </trkpt>
      <trkpt lat="48.2368791" lon="14.5448040">
        <ele>244.476</ele>
        <time>2019-05-02T10:47:47.710Z</time>
      </trkpt>
      <trkpt lat="48.2368642" lon="14.5449791">
        <ele>244.216</ele>
        <time>2019-05-02T10:47:50.407Z</time>
      </trkpt>
      <trkpt lat="48.2368456" lon="14.5451431">
        <ele>243.764</ele>
        <time>2019-05-02T10:47:52.935Z</time>
      </trkpt>
      <trkpt lat="48.2368149" lon="14.5453231">
        <ele>243.211</ele>
        <time>2019-05-02T10:47:55.755Z</time>
      </trkpt>
      <trkpt lat="48.2367778" lon="14.5455658">
        <ele>242.645</ele>
        <time>2019-05-02T10:47:59.549Z</time>
      </trkpt>
      <trkpt lat="48.2367571" lon="14.5457430">
        <ele>242.203</ele>
        <time>2019-05-02T10:48:02.317Z</time>
      </trkpt>
      <trkpt lat="48.2367240" lon="14.5459863">
        <ele>242.003</ele>
        <time>2019-05-02T10:48:06.275Z</time>
      </trkpt>
      <trkpt lat="48.2367011" lon="14.5462202">
        <ele>242.153</ele>
        <time>2019-05-02T10:48:10.258Z</time>
      </trkpt>
      <trkpt lat="48.2366580" lon="14.5464381">
        <ele>242.672</ele>
        <time>2019-05-02T10:48:17.419Z</time>
      </trkpt>
      <trkpt lat="48.2366294" lon="14.5466616">
        <ele>243.313</ele>
        <time>2019-05-02T10:48:25.352Z</time>
      </trkpt>
      <trkpt lat="48.2366123" lon="14.5468793">
        <ele>243.763</ele>
        <time>2019-05-02T10:48:32.994Z</time>
      </trkpt>
      <trkpt lat="48.2366123" lon="14.5468793">
        <ele>243.763</ele>
        <time>2019-05-02T10:48:32.994Z</time>
      </trkpt>
      <trkpt lat="48.2366683" lon="14.5468985">
        <ele>244.251</ele>
        <time>2019-05-02T10:48:35.998Z</time>
      </trkpt>
      <trkpt lat="48.2366683" lon="14.5468985">
        <ele>244.139</ele>
        <time>2019-05-02T10:48:39.998Z</time>
      </trkpt>
      <trkpt lat="48.2366683" lon="14.5468985">
        <ele>244.076</ele>
        <time>2019-05-02T10:48:40.098Z</time>
      </trkpt>
      <trkpt lat="48.2367568" lon="14.5469441">
        <ele>243.923</ele>
        <time>2019-05-02T10:48:50.363Z</time>
      </trkpt>
      <trkpt lat="48.2368595" lon="14.5469236">
        <ele>243.864</ele>
        <time>2019-05-02T10:48:58.004Z</time>
      </trkpt>
      <trkpt lat="48.2369354" lon="14.5470299">
        <ele>243.804</ele>
        <time>2019-05-02T10:49:04.457Z</time>
      </trkpt>
      <trkpt lat="48.2369934" lon="14.5471642">
        <ele>243.676</ele>
        <time>2019-05-02T10:49:08.420Z</time>
      </trkpt>
      <trkpt lat="48.2370335" lon="14.5472949">
        <ele>243.492</ele>
        <time>2019-05-02T10:49:11.094Z</time>
      </trkpt>
      <trkpt lat="48.2370492" lon="14.5474552">
        <ele>243.321</ele>
        <time>2019-05-02T10:49:13.687Z</time>
      </trkpt>
      <trkpt lat="48.2370641" lon="14.5476458">
        <ele>243.158</ele>
        <time>2019-05-02T10:49:16.432Z</time>
      </trkpt>
      <trkpt lat="48.2370911" lon="14.5478685">
        <ele>242.923</ele>
        <time>2019-05-02T10:49:19.338Z</time>
      </trkpt>
      <trkpt lat="48.2371002" lon="14.5480953">
        <ele>242.614</ele>
        <time>2019-05-02T10:49:21.998Z</time>
      </trkpt>
      <trkpt lat="48.2371002" lon="14.5480953">
        <ele>242.353</ele>
        <time>2019-05-02T10:49:21.998Z</time>
      </trkpt>
      <trkpt lat="48.2371002" lon="14.5480953">
        <ele>242.222</ele>
        <time>2019-05-02T10:49:22.098Z</time>
      </trkpt>
      <trkpt lat="48.2371456" lon="14.5483574">
        <ele>242.168</ele>
        <time>2019-05-02T10:49:29.089Z</time>
      </trkpt>
      <trkpt lat="48.2372051" lon="14.5485038">
        <ele>242.116</ele>
        <time>2019-05-02T10:49:33.283Z</time>
      </trkpt>
      <trkpt lat="48.2372055" lon="14.5486577">
        <ele>242.056</ele>
        <time>2019-05-02T10:49:37.536Z</time>
      </trkpt>
      <trkpt lat="48.2372054" lon="14.5487973">
        <ele>242.035</ele>
        <time>2019-05-02T10:49:41.688Z</time>
      </trkpt>
      <trkpt lat="48.2372106" lon="14.5489716">
        <ele>242.065</ele>
        <time>2019-05-02T10:49:46.781Z</time>
      </trkpt>
      <trkpt lat="48.2371849" lon="14.5491256">
        <ele>242.109</ele>
        <time>2019-05-02T10:49:51.540Z</time>
      </trkpt>
      <trkpt lat="48.2371797" lon="14.5493054">
        <ele>242.133</ele>
        <time>2019-05-02T10:49:56.418Z</time>
      </trkpt>
      <trkpt lat="48.2371714" lon="14.5494624">
        <ele>242.138</ele>
        <time>2019-05-02T10:50:00.345Z</time>
      </trkpt>
      <trkpt lat="48.2371511" lon="14.5496203">
        <ele>242.140</ele>
        <time>2019-05-02T10:50:04.241Z</time>
      </trkpt>
      <trkpt lat="48.2371524" lon="14.5497857">
        <ele>242.153</ele>
        <time>2019-05-02T10:50:07.886Z</time>
      </trkpt>
      <trkpt lat="48.2371274" lon="14.5499542">
        <ele>242.178</ele>
        <time>2019-05-02T10:50:11.375Z</time>
      </trkpt>
      <trkpt lat="48.2370986" lon="14.5501448">
        <ele>242.201</ele>
        <time>2019-05-02T10:50:15.263Z</time>
      </trkpt>
      <trkpt lat="48.2370684" lon="14.5503096">
        <ele>242.212</ele>
        <time>2019-05-02T10:50:18.555Z</time>
      </trkpt>
      <trkpt lat="48.2370465" lon="14.5505116">
        <ele>242.215</ele>
        <time>2019-05-02T10:50:22.146Z</time>
      </trkpt>
      <trkpt lat="48.2370307" lon="14.5506813">
        <ele>242.213</ele>
        <time>2019-05-02T10:50:24.977Z</time>
      </trkpt>
      <trkpt lat="48.2370234" lon="14.5508344">
        <ele>242.211</ele>
        <time>2019-05-02T10:50:27.478Z</time>
      </trkpt>
      <trkpt lat="48.2370099" lon="14.5510192">
        <ele>242.210</ele>
        <time>2019-05-02T10:50:30.501Z</time>
      </trkpt>
      <trkpt lat="48.2370047" lon="14.5511868">
        <ele>242.210</ele>
        <time>2019-05-02T10:50:33.201Z</time>
      </trkpt>
      <trkpt lat="48.2370167" lon="14.5514027">
        <ele>242.210</ele>
        <time>2019-05-02T10:50:36.543Z</time>
      </trkpt>
      <trkpt lat="48.2370030" lon="14.5516260">
        <ele>242.210</ele>
        <time>2019-05-02T10:50:39.745Z</time>
      </trkpt>
      <trkpt lat="48.2370038" lon="14.5518466">
        <ele>242.211</ele>
        <time>2019-05-02T10:50:42.724Z</time>
      </trkpt>
      <trkpt lat="48.2369943" lon="14.5520593">
        <ele>242.211</ele>
        <time>2019-05-02T10:50:45.556Z</time>
      </trkpt>
      <trkpt lat="48.2369996" lon="14.5522793">
        <ele>242.211</ele>
        <time>2019-05-02T10:50:48.490Z</time>
      </trkpt>
      <trkpt lat="48.2370053" lon="14.5524867">
        <ele>242.211</ele>
        <time>2019-05-02T10:50:51.324Z</time>
      </trkpt>
      <trkpt lat="48.2370287" lon="14.5526895">
        <ele>242.211</ele>
        <time>2019-05-02T10:50:54.217Z</time>
      </trkpt>
      <trkpt lat="48.2370247" lon="14.5529055">
        <ele>242.211</ele>
        <time>2019-05-02T10:50:57.208Z</time>
      </trkpt>
      <trkpt lat="48.2369899" lon="14.5531027">
        <ele>242.211</ele>
        <time>2019-05-02T10:50:59.969Z</time>
      </trkpt>
      <trkpt lat="48.2369646" lon="14.5533481">
        <ele>242.211</ele>
        <time>2019-05-02T10:51:03.379Z</time>
      </trkpt>
      <trkpt lat="48.2369657" lon="14.5535926">
        <ele>242.211</ele>
        <time>2019-05-02T10:51:06.692Z</time>
      </trkpt>
      <trkpt lat="48.2369600" lon="14.5538275">
        <ele>242.211</ele>
        <time>2019-05-02T10:51:09.730Z</time>
      </trkpt>
      <trkpt lat="48.2369595" lon="14.5540428">
        <ele>242.211</ele>
        <time>2019-05-02T10:51:12.489Z</time>
      </trkpt>
      <trkpt lat="48.2369891" lon="14.5542301">
        <ele>242.210</ele>
        <time>2019-05-02T10:51:14.949Z</time>
      </trkpt>
      <trkpt lat="48.2370157" lon="14.5544100">
        <ele>242.210</ele>
        <time>2019-05-02T10:51:17.376Z</time>
      </trkpt>
      <trkpt lat="48.2370307" lon="14.5546595">
        <ele>242.210</ele>
        <time>2019-05-02T10:51:20.674Z</time>
      </trkpt>
      <trkpt lat="48.2370424" lon="14.5549157">
        <ele>242.217</ele>
        <time>2019-05-02T10:51:23.941Z</time>
      </trkpt>
      <trkpt lat="48.2370803" lon="14.5551312">
        <ele>242.263</ele>
        <time>2019-05-02T10:51:26.799Z</time>
      </trkpt>
      <trkpt lat="48.2371190" lon="14.5553710">
        <ele>242.370</ele>
        <time>2019-05-02T10:51:29.975Z</time>
      </trkpt>
      <trkpt lat="48.2371517" lon="14.5556278">
        <ele>242.518</ele>
        <time>2019-05-02T10:51:33.304Z</time>
      </trkpt>
      <trkpt lat="48.2371986" lon="14.5558567">
        <ele>242.689</ele>
        <time>2019-05-02T10:51:36.360Z</time>
      </trkpt>
      <trkpt lat="48.2372637" lon="14.5560968">
        <ele>242.863</ele>
        <time>2019-05-02T10:51:39.635Z</time>
      </trkpt>
      <trkpt lat="48.2373440" lon="14.5563201">
        <ele>242.971</ele>
        <time>2019-05-02T10:51:42.839Z</time>
      </trkpt>
      <trkpt lat="48.2374495" lon="14.5565162">
        <ele>242.945</ele>
        <time>2019-05-02T10:51:45.978Z</time>
      </trkpt>
      <trkpt lat="48.2375810" lon="14.5566589">
        <ele>242.808</ele>
        <time>2019-05-02T10:51:48.978Z</time>
      </trkpt>
      <trkpt lat="48.2377056" lon="14.5567881">
        <ele>242.661</ele>
        <time>2019-05-02T10:51:51.829Z</time>
      </trkpt>
      <trkpt lat="48.2378101" lon="14.5569006">
        <ele>242.578</ele>
        <time>2019-05-02T10:51:54.322Z</time>
      </trkpt>
      <trkpt lat="48.2378990" lon="14.5570473">
        <ele>242.554</ele>
        <time>2019-05-02T10:51:56.956Z</time>
      </trkpt>
      <trkpt lat="48.2379843" lon="14.5572509">
        <ele>242.522</ele>
        <time>2019-05-02T10:51:59.993Z</time>
      </trkpt>
      <trkpt lat="48.2380422" lon="14.5573714">
        <ele>242.430</ele>
        <time>2019-05-02T10:52:01.769Z</time>
      </trkpt>
      <trkpt lat="48.2381350" lon="14.5575616">
        <ele>242.311</ele>
        <time>2019-05-02T10:52:04.714Z</time>
      </trkpt>
      <trkpt lat="48.2381993" lon="14.5577509">
        <ele>242.231</ele>
        <time>2019-05-02T10:52:07.583Z</time>
      </trkpt>
      <trkpt lat="48.2382170" lon="14.5579356">
        <ele>242.199</ele>
        <time>2019-05-02T10:52:10.256Z</time>
      </trkpt>
      <trkpt lat="48.2382603" lon="14.5581306">
        <ele>242.197</ele>
        <time>2019-05-02T10:52:13.245Z</time>
      </trkpt>
      <trkpt lat="48.2383001" lon="14.5583000">
        <ele>242.204</ele>
        <time>2019-05-02T10:52:15.899Z</time>
      </trkpt>
      <trkpt lat="48.2383373" lon="14.5584445">
        <ele>242.209</ele>
        <time>2019-05-02T10:52:18.293Z</time>
      </trkpt>
      <trkpt lat="48.2383828" lon="14.5586424">
        <ele>242.212</ele>
        <time>2019-05-02T10:52:21.610Z</time>
      </trkpt>
      <trkpt lat="48.2384085" lon="14.5588480">
        <ele>242.212</ele>
        <time>2019-05-02T10:52:24.766Z</time>
      </trkpt>
      <trkpt lat="48.2384344" lon="14.5590584">
        <ele>242.211</ele>
        <time>2019-05-02T10:52:27.772Z</time>
      </trkpt>
      <trkpt lat="48.2384713" lon="14.5592758">
        <ele>242.211</ele>
        <time>2019-05-02T10:52:30.827Z</time>
      </trkpt>
      <trkpt lat="48.2384912" lon="14.5594648">
        <ele>242.207</ele>
        <time>2019-05-02T10:52:33.507Z</time>
      </trkpt>
      <trkpt lat="48.2385109" lon="14.5596615">
        <ele>242.168</ele>
        <time>2019-05-02T10:52:36.382Z</time>
      </trkpt>
      <trkpt lat="48.2385412" lon="14.5599024">
        <ele>242.081</ele>
        <time>2019-05-02T10:52:39.812Z</time>
      </trkpt>
      <trkpt lat="48.2385600" lon="14.5601108">
        <ele>242.019</ele>
        <time>2019-05-02T10:52:42.578Z</time>
      </trkpt>
      <trkpt lat="48.2385797" lon="14.5603241">
        <ele>242.048</ele>
        <time>2019-05-02T10:52:45.426Z</time>
      </trkpt>
      <trkpt lat="48.2385941" lon="14.5604812">
        <ele>242.128</ele>
        <time>2019-05-02T10:52:47.653Z</time>
      </trkpt>
      <trkpt lat="48.2386391" lon="14.5606644">
        <ele>242.190</ele>
        <time>2019-05-02T10:52:50.719Z</time>
      </trkpt>
      <trkpt lat="48.2386916" lon="14.5608868">
        <ele>242.218</ele>
        <time>2019-05-02T10:52:54.778Z</time>
      </trkpt>
      <trkpt lat="48.2387393" lon="14.5610766">
        <ele>242.234</ele>
        <time>2019-05-02T10:52:58.243Z</time>
      </trkpt>
      <trkpt lat="48.2387580" lon="14.5612438">
        <ele>242.289</ele>
        <time>2019-05-02T10:53:01.281Z</time>
      </trkpt>
      <trkpt lat="48.2387633" lon="14.5613868">
        <ele>242.394</ele>
        <time>2019-05-02T10:53:04.034Z</time>
      </trkpt>
      <trkpt lat="48.2387770" lon="14.5615654">
        <ele>242.469</ele>
        <time>2019-05-02T10:53:08.095Z</time>
      </trkpt>
      <trkpt lat="48.2387511" lon="14.5617387">
        <ele>242.463</ele>
        <time>2019-05-02T10:53:11.761Z</time>
      </trkpt>
      <trkpt lat="48.2387420" lon="14.5619589">
        <ele>242.400</ele>
        <time>2019-05-02T10:53:15.904Z</time>
      </trkpt>
      <trkpt lat="48.2387242" lon="14.5622461">
        <ele>242.308</ele>
        <time>2019-05-02T10:53:19.671Z</time>
      </trkpt>
      <trkpt lat="48.2387140" lon="14.5624848">
        <ele>242.204</ele>
        <time>2019-05-02T10:53:22.401Z</time>
      </trkpt>
      <trkpt lat="48.2387228" lon="14.5627724">
        <ele>242.091</ele>
        <time>2019-05-02T10:53:25.555Z</time>
      </trkpt>
      <trkpt lat="48.2386814" lon="14.5630465">
        <ele>241.973</ele>
        <time>2019-05-02T10:53:28.660Z</time>
      </trkpt>
      <trkpt lat="48.2386419" lon="14.5632776">
        <ele>241.888</ele>
        <time>2019-05-02T10:53:31.405Z</time>
      </trkpt>
      <trkpt lat="48.2386064" lon="14.5635251">
        <ele>241.913</ele>
        <time>2019-05-02T10:53:34.434Z</time>
      </trkpt>
      <trkpt lat="48.2385746" lon="14.5637479">
        <ele>242.056</ele>
        <time>2019-05-02T10:53:37.232Z</time>
      </trkpt>
      <trkpt lat="48.2385707" lon="14.5639531">
        <ele>242.213</ele>
        <time>2019-05-02T10:53:39.847Z</time>
      </trkpt>
      <trkpt lat="48.2385627" lon="14.5641801">
        <ele>242.342</ele>
        <time>2019-05-02T10:53:42.971Z</time>
      </trkpt>
      <trkpt lat="48.2385068" lon="14.5642905">
        <ele>242.488</ele>
        <time>2019-05-02T10:53:45.048Z</time>
      </trkpt>
      <trkpt lat="48.2384324" lon="14.5644225">
        <ele>242.609</ele>
        <time>2019-05-02T10:53:47.893Z</time>
      </trkpt>
      <trkpt lat="48.2383461" lon="14.5645352">
        <ele>242.678</ele>
        <time>2019-05-02T10:53:50.817Z</time>
      </trkpt>
      <trkpt lat="48.2382680" lon="14.5646728">
        <ele>242.773</ele>
        <time>2019-05-02T10:53:53.870Z</time>
      </trkpt>
      <trkpt lat="48.2381638" lon="14.5648311">
        <ele>242.922</ele>
        <time>2019-05-02T10:53:57.471Z</time>
      </trkpt>
      <trkpt lat="48.2380725" lon="14.5649304">
        <ele>243.027</ele>
        <time>2019-05-02T10:54:00.020Z</time>
      </trkpt>
      <trkpt lat="48.2380009" lon="14.5650646">
        <ele>243.026</ele>
        <time>2019-05-02T10:54:02.560Z</time>
      </trkpt>
      <trkpt lat="48.2378940" lon="14.5652100">
        <ele>242.989</ele>
        <time>2019-05-02T10:54:06.048Z</time>
      </trkpt>
      <trkpt lat="48.2377947" lon="14.5653851">
        <ele>242.991</ele>
        <time>2019-05-02T10:54:09.670Z</time>
      </trkpt>
      <trkpt lat="48.2377474" lon="14.5655738">
        <ele>243.028</ele>
        <time>2019-05-02T10:54:12.661Z</time>
      </trkpt>
      <trkpt lat="48.2376624" lon="14.5657416">
        <ele>243.082</ele>
        <time>2019-05-02T10:54:15.775Z</time>
      </trkpt>
      <trkpt lat="48.2375843" lon="14.5658179">
        <ele>243.202</ele>
        <time>2019-05-02T10:54:17.922Z</time>
      </trkpt>
      <trkpt lat="48.2374459" lon="14.5659669">
        <ele>243.406</ele>
        <time>2019-05-02T10:54:22.106Z</time>
      </trkpt>
      <trkpt lat="48.2373505" lon="14.5660467">
        <ele>243.588</ele>
        <time>2019-05-02T10:54:25.004Z</time>
      </trkpt>
      <trkpt lat="48.2373007" lon="14.5661613">
        <ele>243.665</ele>
        <time>2019-05-02T10:54:28.696Z</time>
      </trkpt>
      <trkpt lat="48.2372501" lon="14.5662796">
        <ele>242.377</ele>
        <time>2019-05-02T10:54:33.185Z</time>
      </trkpt>
      <trkpt lat="48.2371966" lon="14.5663900">
        <ele>238.577</ele>
        <time>2019-05-02T10:54:37.811Z</time>
      </trkpt>
      <trkpt lat="48.2371306" lon="14.5665187">
        <ele>234.024</ele>
        <time>2019-05-02T10:54:41.641Z</time>
      </trkpt>
      <trkpt lat="48.2370737" lon="14.5666280">
        <ele>231.496</ele>
        <time>2019-05-02T10:54:44.667Z</time>
      </trkpt>
      <trkpt lat="48.2370337" lon="14.5667792">
        <ele>231.501</ele>
        <time>2019-05-02T10:54:48.401Z</time>
      </trkpt>
      <trkpt lat="48.2369947" lon="14.5669175">
        <ele>232.788</ele>
        <time>2019-05-02T10:54:52.999Z</time>
      </trkpt>
      <trkpt lat="48.2369947" lon="14.5669175">
        <ele>233.830</ele>
        <time>2019-05-02T10:54:54.999Z</time>
      </trkpt>
      <trkpt lat="48.2369947" lon="14.5669175">
        <ele>234.055</ele>
        <time>2019-05-02T10:54:55.099Z</time>
      </trkpt>
      <trkpt lat="48.2369618" lon="14.5667434">
        <ele>233.615</ele>
        <time>2019-05-02T10:55:08.999Z</time>
      </trkpt>
      <trkpt lat="48.2369618" lon="14.5667434">
        <ele>233.495</ele>
        <time>2019-05-02T10:55:12.999Z</time>
      </trkpt>
      <trkpt lat="48.2369618" lon="14.5667434">
        <ele>233.395</ele>
        <time>2019-05-02T10:55:41.994Z</time>
      </trkpt>
      <trkpt lat="48.2368871" lon="14.5664548">
        <ele>233.293</ele>
        <time>2019-05-02T10:56:41.406Z</time>
      </trkpt>
      <trkpt lat="48.2368189" lon="14.5665429">
        <ele>228.254</ele>
        <time>2019-05-02T10:56:50.999Z</time>
      </trkpt>
      <trkpt lat="48.2368189" lon="14.5665429">
        <ele>215.279</ele>
        <time>2019-05-02T10:57:00.999Z</time>
      </trkpt>
      <trkpt lat="48.2368189" lon="14.5665429">
        <ele>204.440</ele>
        <time>2019-05-02T10:57:17.600Z</time>
      </trkpt>
      <trkpt lat="48.2367039" lon="14.5664864">
        <ele>204.540</ele>
        <time>2019-05-02T10:57:25.034Z</time>
      </trkpt>
      <trkpt lat="48.2366277" lon="14.5663914">
        <ele>210.018</ele>
        <time>2019-05-02T10:57:28.775Z</time>
      </trkpt>
      <trkpt lat="48.2365338" lon="14.5662909">
        <ele>213.848</ele>
        <time>2019-05-02T10:57:33.228Z</time>
      </trkpt>
      <trkpt lat="48.2364498" lon="14.5662138">
        <ele>218.762</ele>
        <time>2019-05-02T10:57:37.656Z</time>
      </trkpt>
      <trkpt lat="48.2363656" lon="14.5661360">
        <ele>228.314</ele>
        <time>2019-05-02T10:57:42.384Z</time>
      </trkpt>
      <trkpt lat="48.2362680" lon="14.5660535">
        <ele>237.867</ele>
        <time>2019-05-02T10:57:46.432Z</time>
      </trkpt>
      <trkpt lat="48.2361672" lon="14.5659676">
        <ele>242.331</ele>
        <time>2019-05-02T10:57:49.785Z</time>
      </trkpt>
      <trkpt lat="48.2360606" lon="14.5658860">
        <ele>242.953</ele>
        <time>2019-05-02T10:57:53.038Z</time>
      </trkpt>
      <trkpt lat="48.2359563" lon="14.5658235">
        <ele>242.126</ele>
        <time>2019-05-02T10:57:55.956Z</time>
      </trkpt>
      <trkpt lat="48.2358503" lon="14.5657786">
        <ele>241.328</ele>
        <time>2019-05-02T10:57:58.739Z</time>
      </trkpt>
      <trkpt lat="48.2357646" lon="14.5657355">
        <ele>241.050</ele>
        <time>2019-05-02T10:58:00.999Z</time>
      </trkpt>
      <trkpt lat="48.2357646" lon="14.5657355">
        <ele>241.166</ele>
        <time>2019-05-02T10:58:01.999Z</time>
      </trkpt>
      <trkpt lat="48.2357646" lon="14.5657355">
        <ele>241.280</ele>
        <time>2019-05-02T10:58:02.099Z</time>
      </trkpt>
      <trkpt lat="48.2355675" lon="14.5656075">
        <ele>241.184</ele>
        <time>2019-05-02T10:58:08.747Z</time>
      </trkpt>
      <trkpt lat="48.2354489" lon="14.5655208">
        <ele>241.095</ele>
        <time>2019-05-02T10:58:11.503Z</time>
      </trkpt>
      <trkpt lat="48.2353266" lon="14.5654559">
        <ele>241.278</ele>
        <time>2019-05-02T10:58:14.134Z</time>
      </trkpt>
      <trkpt lat="48.2351839" lon="14.5653738">
        <ele>241.623</ele>
        <time>2019-05-02T10:58:17.004Z</time>
      </trkpt>
      <trkpt lat="48.2349755" lon="14.5653388">
        <ele>241.858</ele>
        <time>2019-05-02T10:58:20.600Z</time>
      </trkpt>
      <trkpt lat="48.2347985" lon="14.5652647">
        <ele>241.899</ele>
        <time>2019-05-02T10:58:23.715Z</time>
      </trkpt>
      <trkpt lat="48.2346455" lon="14.5651584">
        <ele>241.875</ele>
        <time>2019-05-02T10:58:26.567Z</time>
      </trkpt>
      <trkpt lat="48.2344804" lon="14.5650777">
        <ele>241.901</ele>
        <time>2019-05-02T10:58:29.335Z</time>
      </trkpt>
      <trkpt lat="48.2342907" lon="14.5649858">
        <ele>241.959</ele>
        <time>2019-05-02T10:58:32.302Z</time>
      </trkpt>
      <trkpt lat="48.2340878" lon="14.5649133">
        <ele>241.990</ele>
        <time>2019-05-02T10:58:35.259Z</time>
      </trkpt>
      <trkpt lat="48.2338774" lon="14.5648404">
        <ele>241.968</ele>
        <time>2019-05-02T10:58:38.268Z</time>
      </trkpt>
      <trkpt lat="48.2336672" lon="14.5648018">
        <ele>241.826</ele>
        <time>2019-05-02T10:58:41.272Z</time>
      </trkpt>
      <trkpt lat="48.2334882" lon="14.5647811">
        <ele>241.536</ele>
        <time>2019-05-02T10:58:43.885Z</time>
      </trkpt>
      <trkpt lat="48.2332795" lon="14.5647849">
        <ele>241.182</ele>
        <time>2019-05-02T10:58:46.976Z</time>
      </trkpt>
      <trkpt lat="48.2330885" lon="14.5647795">
        <ele>240.895</ele>
        <time>2019-05-02T10:58:49.862Z</time>
      </trkpt>
      <trkpt lat="48.2328904" lon="14.5647851">
        <ele>240.754</ele>
        <time>2019-05-02T10:58:52.894Z</time>
      </trkpt>
      <trkpt lat="48.2326918" lon="14.5648098">
        <ele>240.755</ele>
        <time>2019-05-02T10:58:55.944Z</time>
      </trkpt>
      <trkpt lat="48.2325170" lon="14.5648557">
        <ele>240.820</ele>
        <time>2019-05-02T10:58:58.663Z</time>
      </trkpt>
      <trkpt lat="48.2323671" lon="14.5649508">
        <ele>240.828</ele>
        <time>2019-05-02T10:59:01.152Z</time>
      </trkpt>
      <trkpt lat="48.2321644" lon="14.5650741">
        <ele>240.717</ele>
        <time>2019-05-02T10:59:04.519Z</time>
      </trkpt>
      <trkpt lat="48.2320168" lon="14.5651415">
        <ele>240.565</ele>
        <time>2019-05-02T10:59:06.967Z</time>
      </trkpt>
      <trkpt lat="48.2318444" lon="14.5652108">
        <ele>240.500</ele>
        <time>2019-05-02T10:59:09.857Z</time>
      </trkpt>
      <trkpt lat="48.2316490" lon="14.5653174">
        <ele>240.563</ele>
        <time>2019-05-02T10:59:13.103Z</time>
      </trkpt>
      <trkpt lat="48.2314794" lon="14.5654282">
        <ele>240.685</ele>
        <time>2019-05-02T10:59:15.919Z</time>
      </trkpt>
      <trkpt lat="48.2313414" lon="14.5655644">
        <ele>240.766</ele>
        <time>2019-05-02T10:59:18.514Z</time>
      </trkpt>
      <trkpt lat="48.2312202" lon="14.5657000">
        <ele>240.779</ele>
        <time>2019-05-02T10:59:21.017Z</time>
      </trkpt>
      <trkpt lat="48.2310648" lon="14.5658898">
        <ele>240.757</ele>
        <time>2019-05-02T10:59:24.442Z</time>
      </trkpt>
      <trkpt lat="48.2309574" lon="14.5660358">
        <ele>240.700</ele>
        <time>2019-05-02T10:59:27.001Z</time>
      </trkpt>
      <trkpt lat="48.2308461" lon="14.5662121">
        <ele>240.588</ele>
        <time>2019-05-02T10:59:29.813Z</time>
      </trkpt>
      <trkpt lat="48.2307407" lon="14.5664153">
        <ele>240.470</ele>
        <time>2019-05-02T10:59:32.756Z</time>
      </trkpt>
      <trkpt lat="48.2306798" lon="14.5666114">
        <ele>240.609</ele>
        <time>2019-05-02T10:59:35.273Z</time>
      </trkpt>
      <trkpt lat="48.2305891" lon="14.5668482">
        <ele>241.120</ele>
        <time>2019-05-02T10:59:38.467Z</time>
      </trkpt>
      <trkpt lat="48.2305273" lon="14.5670635">
        <ele>241.716</ele>
        <time>2019-05-02T10:59:41.221Z</time>
      </trkpt>
      <trkpt lat="48.2304467" lon="14.5672722">
        <ele>242.145</ele>
        <time>2019-05-02T10:59:43.964Z</time>
      </trkpt>
      <trkpt lat="48.2303560" lon="14.5675052">
        <ele>242.409</ele>
        <time>2019-05-02T10:59:46.947Z</time>
      </trkpt>
      <trkpt lat="48.2302807" lon="14.5676964">
        <ele>242.431</ele>
        <time>2019-05-02T10:59:49.418Z</time>
      </trkpt>
      <trkpt lat="48.2302069" lon="14.5679024">
        <ele>242.176</ele>
        <time>2019-05-02T10:59:52.049Z</time>
      </trkpt>
      <trkpt lat="48.2301623" lon="14.5681385">
        <ele>241.826</ele>
        <time>2019-05-02T10:59:54.826Z</time>
      </trkpt>
      <trkpt lat="48.2301106" lon="14.5683365">
        <ele>241.660</ele>
        <time>2019-05-02T10:59:57.286Z</time>
      </trkpt>
      <trkpt lat="48.2300475" lon="14.5685679">
        <ele>241.747</ele>
        <time>2019-05-02T11:00:00.350Z</time>
      </trkpt>
      <trkpt lat="48.2299716" lon="14.5688218">
        <ele>241.820</ele>
        <time>2019-05-02T11:00:03.792Z</time>
      </trkpt>
      <trkpt lat="48.2299135" lon="14.5690707">
        <ele>241.663</ele>
        <time>2019-05-02T11:00:06.902Z</time>
      </trkpt>
      <trkpt lat="48.2298441" lon="14.5693082">
        <ele>241.465</ele>
        <time>2019-05-02T11:00:09.941Z</time>
      </trkpt>
      <trkpt lat="48.2298228" lon="14.5696163">
        <ele>241.435</ele>
        <time>2019-05-02T11:00:13.717Z</time>
      </trkpt>
      <trkpt lat="48.2297736" lon="14.5699104">
        <ele>241.464</ele>
        <time>2019-05-02T11:00:17.561Z</time>
      </trkpt>
      <trkpt lat="48.2297261" lon="14.5701430">
        <ele>241.340</ele>
        <time>2019-05-02T11:00:20.690Z</time>
      </trkpt>
      <trkpt lat="48.2296631" lon="14.5703338">
        <ele>241.064</ele>
        <time>2019-05-02T11:00:23.462Z</time>
      </trkpt>
      <trkpt lat="48.2295935" lon="14.5705473">
        <ele>240.985</ele>
        <time>2019-05-02T11:00:26.538Z</time>
      </trkpt>
      <trkpt lat="48.2295253" lon="14.5707877">
        <ele>241.304</ele>
        <time>2019-05-02T11:00:29.752Z</time>
      </trkpt>
      <trkpt lat="48.2294570" lon="14.5709649">
        <ele>241.720</ele>
        <time>2019-05-02T11:00:32.196Z</time>
      </trkpt>
      <trkpt lat="48.2294037" lon="14.5711503">
        <ele>241.770</ele>
        <time>2019-05-02T11:00:34.687Z</time>
      </trkpt>
      <trkpt lat="48.2293556" lon="14.5713757">
        <ele>241.390</ele>
        <time>2019-05-02T11:00:37.703Z</time>
      </trkpt>
      <trkpt lat="48.2292732" lon="14.5716712">
        <ele>241.012</ele>
        <time>2019-05-02T11:00:41.633Z</time>
      </trkpt>
      <trkpt lat="48.2291884" lon="14.5719347">
        <ele>240.982</ele>
        <time>2019-05-02T11:00:44.788Z</time>
      </trkpt>
      <trkpt lat="48.2290758" lon="14.5722750">
        <ele>241.127</ele>
        <time>2019-05-02T11:00:48.440Z</time>
      </trkpt>
      <trkpt lat="48.2289974" lon="14.5725585">
        <ele>241.212</ele>
        <time>2019-05-02T11:00:51.295Z</time>
      </trkpt>
      <trkpt lat="48.2289524" lon="14.5728399">
        <ele>241.326</ele>
        <time>2019-05-02T11:00:54.044Z</time>
      </trkpt>
      <trkpt lat="48.2288629" lon="14.5731016">
        <ele>241.603</ele>
        <time>2019-05-02T11:00:56.870Z</time>
      </trkpt>
      <trkpt lat="48.2287811" lon="14.5734410">
        <ele>241.905</ele>
        <time>2019-05-02T11:01:00.259Z</time>
      </trkpt>
      <trkpt lat="48.2287149" lon="14.5738045">
        <ele>242.083</ele>
        <time>2019-05-02T11:01:03.775Z</time>
      </trkpt>
      <trkpt lat="48.2286456" lon="14.5741260">
        <ele>242.172</ele>
        <time>2019-05-02T11:01:06.962Z</time>
      </trkpt>
      <trkpt lat="48.2285822" lon="14.5744074">
        <ele>242.255</ele>
        <time>2019-05-02T11:01:09.736Z</time>
      </trkpt>
      <trkpt lat="48.2284919" lon="14.5746829">
        <ele>242.421</ele>
        <time>2019-05-02T11:01:12.645Z</time>
      </trkpt>
      <trkpt lat="48.2284011" lon="14.5749848">
        <ele>242.659</ele>
        <time>2019-05-02T11:01:15.869Z</time>
      </trkpt>
      <trkpt lat="48.2283504" lon="14.5751448">
        <ele>242.844</ele>
        <time>2019-05-02T11:01:17.609Z</time>
      </trkpt>
      <trkpt lat="48.2282991" lon="14.5753199">
        <ele>242.920</ele>
        <time>2019-05-02T11:01:19.482Z</time>
      </trkpt>
      <trkpt lat="48.2282421" lon="14.5755186">
        <ele>242.935</ele>
        <time>2019-05-02T11:01:21.502Z</time>
      </trkpt>
      <trkpt lat="48.2281717" lon="14.5757360">
        <ele>242.893</ele>
        <time>2019-05-02T11:01:23.641Z</time>
      </trkpt>
      <trkpt lat="48.2281178" lon="14.5759263">
        <ele>242.709</ele>
        <time>2019-05-02T11:01:25.471Z</time>
      </trkpt>
      <trkpt lat="48.2280603" lon="14.5761094">
        <ele>242.376</ele>
        <time>2019-05-02T11:01:27.312Z</time>
      </trkpt>
      <trkpt lat="48.2279927" lon="14.5762930">
        <ele>242.036</ele>
        <time>2019-05-02T11:01:29.266Z</time>
      </trkpt>
      <trkpt lat="48.2279295" lon="14.5764516">
        <ele>241.765</ele>
        <time>2019-05-02T11:01:31.029Z</time>
      </trkpt>
      <trkpt lat="48.2278805" lon="14.5766330">
        <ele>241.557</ele>
        <time>2019-05-02T11:01:32.939Z</time>
      </trkpt>
      <trkpt lat="48.2278229" lon="14.5767956">
        <ele>241.444</ele>
        <time>2019-05-02T11:01:34.729Z</time>
      </trkpt>
      <trkpt lat="48.2277536" lon="14.5769728">
        <ele>241.437</ele>
        <time>2019-05-02T11:01:36.726Z</time>
      </trkpt>
      <trkpt lat="48.2276983" lon="14.5771182">
        <ele>241.519</ele>
        <time>2019-05-02T11:01:38.385Z</time>
      </trkpt>
      <trkpt lat="48.2276334" lon="14.5772674">
        <ele>241.656</ele>
        <time>2019-05-02T11:01:40.197Z</time>
      </trkpt>
      <trkpt lat="48.2275922" lon="14.5773923">
        <ele>241.738</ele>
        <time>2019-05-02T11:01:41.651Z</time>
      </trkpt>
      <trkpt lat="48.2275306" lon="14.5775549">
        <ele>241.660</ele>
        <time>2019-05-02T11:01:43.631Z</time>
      </trkpt>
      <trkpt lat="48.2274679" lon="14.5777242">
        <ele>241.454</ele>
        <time>2019-05-02T11:01:45.645Z</time>
      </trkpt>
      <trkpt lat="48.2274033" lon="14.5778667">
        <ele>241.243</ele>
        <time>2019-05-02T11:01:47.405Z</time>
      </trkpt>
      <trkpt lat="48.2273458" lon="14.5780104">
        <ele>241.101</ele>
        <time>2019-05-02T11:01:49.146Z</time>
      </trkpt>
      <trkpt lat="48.2273012" lon="14.5781321">
        <ele>241.012</ele>
        <time>2019-05-02T11:01:50.654Z</time>
      </trkpt>
      <trkpt lat="48.2273010" lon="14.5782887">
        <ele>240.949</ele>
        <time>2019-05-02T11:01:52.417Z</time>
      </trkpt>
      <trkpt lat="48.2273832" lon="14.5784368">
        <ele>240.916</ele>
        <time>2019-05-02T11:01:54.747Z</time>
      </trkpt>
      <trkpt lat="48.2274612" lon="14.5786055">
        <ele>240.910</ele>
        <time>2019-05-02T11:01:57.229Z</time>
      </trkpt>
      <trkpt lat="48.2275311" lon="14.5787593">
        <ele>241.025</ele>
        <time>2019-05-02T11:01:59.315Z</time>
      </trkpt>
      <trkpt lat="48.2275931" lon="14.5789290">
        <ele>241.430</ele>
        <time>2019-05-02T11:02:01.481Z</time>
      </trkpt>
      <trkpt lat="48.2276650" lon="14.5791444">
        <ele>242.063</ele>
        <time>2019-05-02T11:02:04.299Z</time>
      </trkpt>
      <trkpt lat="48.2277656" lon="14.5793100">
        <ele>242.624</ele>
        <time>2019-05-02T11:02:07.091Z</time>
      </trkpt>
      <trkpt lat="48.2278542" lon="14.5794563">
        <ele>242.969</ele>
        <time>2019-05-02T11:02:09.730Z</time>
      </trkpt>
      <trkpt lat="48.2279945" lon="14.5796091">
        <ele>243.183</ele>
        <time>2019-05-02T11:02:13.487Z</time>
      </trkpt>
      <trkpt lat="48.2281217" lon="14.5797608">
        <ele>243.367</ele>
        <time>2019-05-02T11:02:17.146Z</time>
      </trkpt>
      <trkpt lat="48.2281931" lon="14.5798828">
        <ele>243.526</ele>
        <time>2019-05-02T11:02:19.806Z</time>
      </trkpt>
      <trkpt lat="48.2281700" lon="14.5800414">
        <ele>243.620</ele>
        <time>2019-05-02T11:02:22.870Z</time>
      </trkpt>
      <trkpt lat="48.2281168" lon="14.5801647">
        <ele>243.645</ele>
        <time>2019-05-02T11:02:26.224Z</time>
      </trkpt>
      <trkpt lat="48.2280474" lon="14.5802646">
        <ele>243.615</ele>
        <time>2019-05-02T11:02:29.830Z</time>
      </trkpt>
      <trkpt lat="48.2279727" lon="14.5803791">
        <ele>243.527</ele>
        <time>2019-05-02T11:02:33.485Z</time>
      </trkpt>
      <trkpt lat="48.2278760" lon="14.5804160">
        <ele>243.339</ele>
        <time>2019-05-02T11:02:37.081Z</time>
      </trkpt>
      <trkpt lat="48.2277793" lon="14.5804654">
        <ele>242.967</ele>
        <time>2019-05-02T11:02:41.139Z</time>
      </trkpt>
      <trkpt lat="48.2276775" lon="14.5805213">
        <ele>242.413</ele>
        <time>2019-05-02T11:02:45.575Z</time>
      </trkpt>
      <trkpt lat="48.2275917" lon="14.5806077">
        <ele>241.828</ele>
        <time>2019-05-02T11:02:49.382Z</time>
      </trkpt>
      <trkpt lat="48.2275366" lon="14.5807187">
        <ele>241.341</ele>
        <time>2019-05-02T11:02:52.518Z</time>
      </trkpt>
      <trkpt lat="48.2274405" lon="14.5808099">
        <ele>241.004</ele>
        <time>2019-05-02T11:02:56.029Z</time>
      </trkpt>
      <trkpt lat="48.2273616" lon="14.5809336">
        <ele>240.969</ele>
        <time>2019-05-02T11:02:59.244Z</time>
      </trkpt>
      <trkpt lat="48.2272516" lon="14.5810513">
        <ele>241.353</ele>
        <time>2019-05-02T11:03:02.762Z</time>
      </trkpt>
      <trkpt lat="48.2271689" lon="14.5811706">
        <ele>241.968</ele>
        <time>2019-05-02T11:03:05.580Z</time>
      </trkpt>
      <trkpt lat="48.2270834" lon="14.5812916">
        <ele>242.554</ele>
        <time>2019-05-02T11:03:08.421Z</time>
      </trkpt>
      <trkpt lat="48.2269668" lon="14.5814202">
        <ele>243.032</ele>
        <time>2019-05-02T11:03:11.748Z</time>
      </trkpt>
      <trkpt lat="48.2268672" lon="14.5815421">
        <ele>243.396</ele>
        <time>2019-05-02T11:03:14.558Z</time>
      </trkpt>
      <trkpt lat="48.2267717" lon="14.5816504">
        <ele>243.631</ele>
        <time>2019-05-02T11:03:17.133Z</time>
      </trkpt>
      <trkpt lat="48.2266800" lon="14.5817957">
        <ele>243.759</ele>
        <time>2019-05-02T11:03:19.998Z</time>
      </trkpt>
      <trkpt lat="48.2266800" lon="14.5817957">
        <ele>243.807</ele>
        <time>2019-05-02T11:03:21.998Z</time>
      </trkpt>
      <trkpt lat="48.2266800" lon="14.5817957">
        <ele>243.761</ele>
        <time>2019-05-02T11:03:22.098Z</time>
      </trkpt>
      <trkpt lat="48.2264915" lon="14.5820707">
        <ele>243.640</ele>
        <time>2019-05-02T11:03:30.016Z</time>
      </trkpt>
      <trkpt lat="48.2263949" lon="14.5822228">
        <ele>243.442</ele>
        <time>2019-05-02T11:03:33.052Z</time>
      </trkpt>
      <trkpt lat="48.2263108" lon="14.5823757">
        <ele>243.168</ele>
        <time>2019-05-02T11:03:35.797Z</time>
      </trkpt>
      <trkpt lat="48.2262203" lon="14.5825080">
        <ele>242.959</ele>
        <time>2019-05-02T11:03:38.286Z</time>
      </trkpt>
      <trkpt lat="48.2261078" lon="14.5826632">
        <ele>242.971</ele>
        <time>2019-05-02T11:03:41.147Z</time>
      </trkpt>
      <trkpt lat="48.2259821" lon="14.5828240">
        <ele>243.101</ele>
        <time>2019-05-02T11:03:44.184Z</time>
      </trkpt>
      <trkpt lat="48.2258855" lon="14.5829974">
        <ele>243.136</ele>
        <time>2019-05-02T11:03:46.974Z</time>
      </trkpt>
      <trkpt lat="48.2257987" lon="14.5831639">
        <ele>243.012</ele>
        <time>2019-05-02T11:03:49.570Z</time>
      </trkpt>
      <trkpt lat="48.2256878" lon="14.5833272">
        <ele>242.836</ele>
        <time>2019-05-02T11:03:52.444Z</time>
      </trkpt>
      <trkpt lat="48.2255741" lon="14.5834891">
        <ele>242.726</ele>
        <time>2019-05-02T11:03:55.342Z</time>
      </trkpt>
      <trkpt lat="48.2252050" lon="14.5840094">
        <ele>242.812</ele>
        <time>2019-05-02T11:04:04.732Z</time>
      </trkpt>
      <trkpt lat="48.2248304" lon="14.5846946">
        <ele>242.827</ele>
        <time>2019-05-02T11:04:15.721Z</time>
      </trkpt>
      <trkpt lat="48.2244980" lon="14.5852733">
        <ele>242.679</ele>
        <time>2019-05-02T11:04:24.962Z</time>
      </trkpt>
      <trkpt lat="48.2241774" lon="14.5858372">
        <ele>242.519</ele>
        <time>2019-05-02T11:04:33.568Z</time>
      </trkpt>
      <trkpt lat="48.2240649" lon="14.5860443">
        <ele>242.323</ele>
        <time>2019-05-02T11:04:36.577Z</time>
      </trkpt>
      <trkpt lat="48.2239536" lon="14.5862925">
        <ele>242.132</ele>
        <time>2019-05-02T11:04:39.885Z</time>
      </trkpt>
      <trkpt lat="48.2238757" lon="14.5865238">
        <ele>242.032</ele>
        <time>2019-05-02T11:04:42.721Z</time>
      </trkpt>
      <trkpt lat="48.2237697" lon="14.5867308">
        <ele>242.050</ele>
        <time>2019-05-02T11:04:45.625Z</time>
      </trkpt>
      <trkpt lat="48.2236542" lon="14.5869203">
        <ele>242.103</ele>
        <time>2019-05-02T11:04:48.598Z</time>
      </trkpt>
      <trkpt lat="48.2233117" lon="14.5874472">
        <ele>242.075</ele>
        <time>2019-05-02T11:04:57.367Z</time>
      </trkpt>
      <trkpt lat="48.2233117" lon="14.5874472">
        <ele>242.075</ele>
        <time>2019-05-02T11:04:57.367Z</time>
      </trkpt>
      <trkpt lat="48.2221005" lon="14.5897192">
        <ele>241.578</ele>
        <time>2019-05-02T11:05:33.261Z</time>
      </trkpt>
      <trkpt lat="48.2219752" lon="14.5898928">
        <ele>241.466</ele>
        <time>2019-05-02T11:05:36.440Z</time>
      </trkpt>
      <trkpt lat="48.2218593" lon="14.5900653">
        <ele>241.425</ele>
        <time>2019-05-02T11:05:39.454Z</time>
      </trkpt>
      <trkpt lat="48.2217171" lon="14.5902567">
        <ele>241.463</ele>
        <time>2019-05-02T11:05:42.814Z</time>
      </trkpt>
      <trkpt lat="48.2215912" lon="14.5903841">
        <ele>241.595</ele>
        <time>2019-05-02T11:05:45.544Z</time>
      </trkpt>
      <trkpt lat="48.2214551" lon="14.5905267">
        <ele>241.782</ele>
        <time>2019-05-02T11:05:48.781Z</time>
      </trkpt>
      <trkpt lat="48.2213252" lon="14.5906905">
        <ele>241.993</ele>
        <time>2019-05-02T11:05:51.968Z</time>
      </trkpt>
      <trkpt lat="48.2211864" lon="14.5908506">
        <ele>242.160</ele>
        <time>2019-05-02T11:05:54.963Z</time>
      </trkpt>
      <trkpt lat="48.2210421" lon="14.5909981">
        <ele>242.165</ele>
        <time>2019-05-02T11:05:57.879Z</time>
      </trkpt>
      <trkpt lat="48.2209189" lon="14.5911346">
        <ele>242.037</ele>
        <time>2019-05-02T11:06:00.418Z</time>
      </trkpt>
      <trkpt lat="48.2207878" lon="14.5912605">
        <ele>241.982</ele>
        <time>2019-05-02T11:06:02.993Z</time>
      </trkpt>
      <trkpt lat="48.2206628" lon="14.5913788">
        <ele>242.211</ele>
        <time>2019-05-02T11:06:05.462Z</time>
      </trkpt>
      <trkpt lat="48.2205375" lon="14.5914770">
        <ele>242.705</ele>
        <time>2019-05-02T11:06:07.858Z</time>
      </trkpt>
      <trkpt lat="48.2204010" lon="14.5916154">
        <ele>243.153</ele>
        <time>2019-05-02T11:06:10.728Z</time>
      </trkpt>
      <trkpt lat="48.2202718" lon="14.5917503">
        <ele>243.354</ele>
        <time>2019-05-02T11:06:13.516Z</time>
      </trkpt>
      <trkpt lat="48.2201527" lon="14.5918217">
        <ele>243.387</ele>
        <time>2019-05-02T11:06:15.826Z</time>
      </trkpt>
      <trkpt lat="48.2200217" lon="14.5919342">
        <ele>243.355</ele>
        <time>2019-05-02T11:06:18.634Z</time>
      </trkpt>
      <trkpt lat="48.2198767" lon="14.5920642">
        <ele>243.206</ele>
        <time>2019-05-02T11:06:21.857Z</time>
      </trkpt>
      <trkpt lat="48.2197140" lon="14.5921797">
        <ele>242.903</ele>
        <time>2019-05-02T11:06:25.200Z</time>
      </trkpt>
      <trkpt lat="48.2195776" lon="14.5922649">
        <ele>242.584</ele>
        <time>2019-05-02T11:06:27.895Z</time>
      </trkpt>
      <trkpt lat="48.2194804" lon="14.5923428">
        <ele>242.359</ele>
        <time>2019-05-02T11:06:29.985Z</time>
      </trkpt>
      <trkpt lat="48.2193686" lon="14.5924207">
        <ele>242.145</ele>
        <time>2019-05-02T11:06:32.474Z</time>
      </trkpt>
      <trkpt lat="48.2192266" lon="14.5925048">
        <ele>241.923</ele>
        <time>2019-05-02T11:06:35.792Z</time>
      </trkpt>
      <trkpt lat="48.2190543" lon="14.5926301">
        <ele>241.849</ele>
        <time>2019-05-02T11:06:39.674Z</time>
      </trkpt>
      <trkpt lat="48.2189305" lon="14.5927222">
        <ele>242.063</ele>
        <time>2019-05-02T11:06:42.206Z</time>
      </trkpt>
      <trkpt lat="48.2187840" lon="14.5928221">
        <ele>242.518</ele>
        <time>2019-05-02T11:06:45.134Z</time>
      </trkpt>
      <trkpt lat="48.2185412" lon="14.5929781">
        <ele>242.926</ele>
        <time>2019-05-02T11:06:50.335Z</time>
      </trkpt>
      <trkpt lat="48.2183521" lon="14.5931327">
        <ele>242.838</ele>
        <time>2019-05-02T11:06:53.610Z</time>
      </trkpt>
      <trkpt lat="48.2181625" lon="14.5932741">
        <ele>242.075</ele>
        <time>2019-05-02T11:06:56.555Z</time>
      </trkpt>
      <trkpt lat="48.2180062" lon="14.5934219">
        <ele>241.054</ele>
        <time>2019-05-02T11:06:59.319Z</time>
      </trkpt>
      <trkpt lat="48.2178568" lon="14.5935472">
        <ele>240.318</ele>
        <time>2019-05-02T11:07:02.002Z</time>
      </trkpt>
      <trkpt lat="48.2176970" lon="14.5936481">
        <ele>240.012</ele>
        <time>2019-05-02T11:07:04.931Z</time>
      </trkpt>
      <trkpt lat="48.2175318" lon="14.5937591">
        <ele>239.998</ele>
        <time>2019-05-02T11:07:08.149Z</time>
      </trkpt>
      <trkpt lat="48.2173473" lon="14.5939036">
        <ele>240.100</ele>
        <time>2019-05-02T11:07:11.697Z</time>
      </trkpt>
      <trkpt lat="48.2171507" lon="14.5940567">
        <ele>240.184</ele>
        <time>2019-05-02T11:07:15.238Z</time>
      </trkpt>
      <trkpt lat="48.2169837" lon="14.5942083">
        <ele>240.198</ele>
        <time>2019-05-02T11:07:18.256Z</time>
      </trkpt>
      <trkpt lat="48.2168380" lon="14.5943164">
        <ele>240.224</ele>
        <time>2019-05-02T11:07:20.771Z</time>
      </trkpt>
      <trkpt lat="48.2167082" lon="14.5944233">
        <ele>240.352</ele>
        <time>2019-05-02T11:07:23.135Z</time>
      </trkpt>
      <trkpt lat="48.2165652" lon="14.5945054">
        <ele>240.533</ele>
        <time>2019-05-02T11:07:25.728Z</time>
      </trkpt>
      <trkpt lat="48.2164266" lon="14.5945960">
        <ele>240.659</ele>
        <time>2019-05-02T11:07:28.316Z</time>
      </trkpt>
      <trkpt lat="48.2163098" lon="14.5946881">
        <ele>240.634</ele>
        <time>2019-05-02T11:07:30.608Z</time>
      </trkpt>
      <trkpt lat="48.2161464" lon="14.5947744">
        <ele>240.422</ele>
        <time>2019-05-02T11:07:33.720Z</time>
      </trkpt>
      <trkpt lat="48.2159842" lon="14.5949125">
        <ele>240.114</ele>
        <time>2019-05-02T11:07:37.239Z</time>
      </trkpt>
      <trkpt lat="48.2158578" lon="14.5950032">
        <ele>239.854</ele>
        <time>2019-05-02T11:07:39.897Z</time>
      </trkpt>
      <trkpt lat="48.2157164" lon="14.5951310">
        <ele>239.800</ele>
        <time>2019-05-02T11:07:42.966Z</time>
      </trkpt>
      <trkpt lat="48.2155661" lon="14.5952456">
        <ele>240.002</ele>
        <time>2019-05-02T11:07:45.981Z</time>
      </trkpt>
      <trkpt lat="48.2154182" lon="14.5953393">
        <ele>240.301</ele>
        <time>2019-05-02T11:07:48.824Z</time>
      </trkpt>
      <trkpt lat="48.2152801" lon="14.5954400">
        <ele>240.499</ele>
        <time>2019-05-02T11:07:51.555Z</time>
      </trkpt>
      <trkpt lat="48.2151402" lon="14.5955086">
        <ele>240.495</ele>
        <time>2019-05-02T11:07:54.176Z</time>
      </trkpt>
      <trkpt lat="48.2149933" lon="14.5956171">
        <ele>240.320</ele>
        <time>2019-05-02T11:07:57.135Z</time>
      </trkpt>
      <trkpt lat="48.2148590" lon="14.5957126">
        <ele>240.142</ele>
        <time>2019-05-02T11:07:59.848Z</time>
      </trkpt>
      <trkpt lat="48.2147143" lon="14.5957772">
        <ele>240.074</ele>
        <time>2019-05-02T11:08:02.521Z</time>
      </trkpt>
      <trkpt lat="48.2145571" lon="14.5958829">
        <ele>240.121</ele>
        <time>2019-05-02T11:08:05.624Z</time>
      </trkpt>
      <trkpt lat="48.2144096" lon="14.5959793">
        <ele>240.239</ele>
        <time>2019-05-02T11:08:08.675Z</time>
      </trkpt>
      <trkpt lat="48.2142667" lon="14.5960815">
        <ele>240.314</ele>
        <time>2019-05-02T11:08:11.612Z</time>
      </trkpt>
      <trkpt lat="48.2141423" lon="14.5961644">
        <ele>240.275</ele>
        <time>2019-05-02T11:08:14.049Z</time>
      </trkpt>
      <trkpt lat="48.2140705" lon="14.5962677">
        <ele>240.127</ele>
        <time>2019-05-02T11:08:15.834Z</time>
      </trkpt>
      <trkpt lat="48.2139841" lon="14.5963575">
        <ele>239.923</ele>
        <time>2019-05-02T11:08:17.736Z</time>
      </trkpt>
      <trkpt lat="48.2139051" lon="14.5964296">
        <ele>239.768</ele>
        <time>2019-05-02T11:08:19.430Z</time>
      </trkpt>
      <trkpt lat="48.2138180" lon="14.5964812">
        <ele>239.721</ele>
        <time>2019-05-02T11:08:21.141Z</time>
      </trkpt>
      <trkpt lat="48.2137457" lon="14.5965660">
        <ele>239.733</ele>
        <time>2019-05-02T11:08:22.812Z</time>
      </trkpt>
      <trkpt lat="48.2136326" lon="14.5966570">
        <ele>239.741</ele>
        <time>2019-05-02T11:08:25.180Z</time>
      </trkpt>
      <trkpt lat="48.2135371" lon="14.5967283">
        <ele>239.729</ele>
        <time>2019-05-02T11:08:27.237Z</time>
      </trkpt>
      <trkpt lat="48.2134511" lon="14.5968145">
        <ele>239.681</ele>
        <time>2019-05-02T11:08:29.315Z</time>
      </trkpt>
      <trkpt lat="48.2133679" lon="14.5969358">
        <ele>239.585</ele>
        <time>2019-05-02T11:08:31.746Z</time>
      </trkpt>
      <trkpt lat="48.2132836" lon="14.5970667">
        <ele>239.484</ele>
        <time>2019-05-02T11:08:34.293Z</time>
      </trkpt>
      <trkpt lat="48.2131992" lon="14.5971833">
        <ele>239.432</ele>
        <time>2019-05-02T11:08:36.607Z</time>
      </trkpt>
      <trkpt lat="48.2130965" lon="14.5972991">
        <ele>239.473</ele>
        <time>2019-05-02T11:08:39.080Z</time>
      </trkpt>
      <trkpt lat="48.2130018" lon="14.5973993">
        <ele>239.628</ele>
        <time>2019-05-02T11:08:41.238Z</time>
      </trkpt>
      <trkpt lat="48.2129359" lon="14.5974940">
        <ele>239.822</ele>
        <time>2019-05-02T11:08:42.920Z</time>
      </trkpt>
      <trkpt lat="48.2128424" lon="14.5976212">
        <ele>239.971</ele>
        <time>2019-05-02T11:08:45.273Z</time>
      </trkpt>
      <trkpt lat="48.2127279" lon="14.5976960">
        <ele>240.067</ele>
        <time>2019-05-02T11:08:47.688Z</time>
      </trkpt>
      <trkpt lat="48.2126115" lon="14.5977926">
        <ele>240.138</ele>
        <time>2019-05-02T11:08:50.665Z</time>
      </trkpt>
      <trkpt lat="48.2125094" lon="14.5978768">
        <ele>240.196</ele>
        <time>2019-05-02T11:08:53.541Z</time>
      </trkpt>
      <trkpt lat="48.2123712" lon="14.5980362">
        <ele>240.220</ele>
        <time>2019-05-02T11:08:57.519Z</time>
      </trkpt>
      <trkpt lat="48.2121966" lon="14.5981987">
        <ele>240.187</ele>
        <time>2019-05-02T11:09:01.298Z</time>
      </trkpt>
      <trkpt lat="48.2119881" lon="14.5983587">
        <ele>240.125</ele>
        <time>2019-05-02T11:09:05.318Z</time>
      </trkpt>
      <trkpt lat="48.2117892" lon="14.5985149">
        <ele>240.063</ele>
        <time>2019-05-02T11:09:09.081Z</time>
      </trkpt>
      <trkpt lat="48.2116178" lon="14.5986359">
        <ele>240.014</ele>
        <time>2019-05-02T11:09:12.123Z</time>
      </trkpt>
      <trkpt lat="48.2115096" lon="14.5987068">
        <ele>240.057</ele>
        <time>2019-05-02T11:09:13.969Z</time>
      </trkpt>
      <trkpt lat="48.2113957" lon="14.5988029">
        <ele>240.233</ele>
        <time>2019-05-02T11:09:15.981Z</time>
      </trkpt>
      <trkpt lat="48.2112902" lon="14.5989058">
        <ele>240.375</ele>
        <time>2019-05-02T11:09:17.864Z</time>
      </trkpt>
      <trkpt lat="48.2111775" lon="14.5990069">
        <ele>240.322</ele>
        <time>2019-05-02T11:09:19.807Z</time>
      </trkpt>
      <trkpt lat="48.2110865" lon="14.5991246">
        <ele>240.130</ele>
        <time>2019-05-02T11:09:21.653Z</time>
      </trkpt>
      <trkpt lat="48.2109811" lon="14.5992419">
        <ele>239.926</ele>
        <time>2019-05-02T11:09:23.803Z</time>
      </trkpt>
      <trkpt lat="48.2108710" lon="14.5993512">
        <ele>239.795</ele>
        <time>2019-05-02T11:09:26.052Z</time>
      </trkpt>
      <trkpt lat="48.2108032" lon="14.5994564">
        <ele>239.762</ele>
        <time>2019-05-02T11:09:27.628Z</time>
      </trkpt>
      <trkpt lat="48.2107296" lon="14.5995472">
        <ele>239.797</ele>
        <time>2019-05-02T11:09:29.140Z</time>
      </trkpt>
      <trkpt lat="48.2106291" lon="14.5996499">
        <ele>239.860</ele>
        <time>2019-05-02T11:09:31.080Z</time>
      </trkpt>
      <trkpt lat="48.2105098" lon="14.5997805">
        <ele>239.915</ele>
        <time>2019-05-02T11:09:33.553Z</time>
      </trkpt>
      <trkpt lat="48.2104019" lon="14.5998638">
        <ele>240.012</ele>
        <time>2019-05-02T11:09:35.691Z</time>
      </trkpt>
      <trkpt lat="48.2103052" lon="14.5999364">
        <ele>240.194</ele>
        <time>2019-05-02T11:09:37.538Z</time>
      </trkpt>
      <trkpt lat="48.2101390" lon="14.6001027">
        <ele>240.370</ele>
        <time>2019-05-02T11:09:40.817Z</time>
      </trkpt>
      <trkpt lat="48.2099932" lon="14.6002412">
        <ele>240.440</ele>
        <time>2019-05-02T11:09:43.657Z</time>
      </trkpt>
      <trkpt lat="48.2098613" lon="14.6003115">
        <ele>240.446</ele>
        <time>2019-05-02T11:09:45.977Z</time>
      </trkpt>
      <trkpt lat="48.2097237" lon="14.6004382">
        <ele>240.436</ele>
        <time>2019-05-02T11:09:48.667Z</time>
      </trkpt>
      <trkpt lat="48.2095646" lon="14.6005726">
        <ele>240.395</ele>
        <time>2019-05-02T11:09:51.724Z</time>
      </trkpt>
      <trkpt lat="48.2094149" lon="14.6006683">
        <ele>240.318</ele>
        <time>2019-05-02T11:09:54.463Z</time>
      </trkpt>
      <trkpt lat="48.2092681" lon="14.6007591">
        <ele>240.202</ele>
        <time>2019-05-02T11:09:57.163Z</time>
      </trkpt>
      <trkpt lat="48.2091274" lon="14.6008535">
        <ele>240.012</ele>
        <time>2019-05-02T11:09:59.869Z</time>
      </trkpt>
      <trkpt lat="48.2089885" lon="14.6009732">
        <ele>239.782</ele>
        <time>2019-05-02T11:10:02.794Z</time>
      </trkpt>
      <trkpt lat="48.2088768" lon="14.6011139">
        <ele>239.600</ele>
        <time>2019-05-02T11:10:05.522Z</time>
      </trkpt>
      <trkpt lat="48.2087015" lon="14.6012040">
        <ele>239.621</ele>
        <time>2019-05-02T11:10:09.059Z</time>
      </trkpt>
      <trkpt lat="48.2085513" lon="14.6013229">
        <ele>239.900</ele>
        <time>2019-05-02T11:10:12.449Z</time>
      </trkpt>
      <trkpt lat="48.2084490" lon="14.6014684">
        <ele>240.229</ele>
        <time>2019-05-02T11:10:15.271Z</time>
      </trkpt>
      <trkpt lat="48.2083069" lon="14.6015923">
        <ele>240.403</ele>
        <time>2019-05-02T11:10:18.471Z</time>
      </trkpt>
      <trkpt lat="48.2081587" lon="14.6016820">
        <ele>239.952</ele>
        <time>2019-05-02T11:10:21.622Z</time>
      </trkpt>
      <trkpt lat="48.2080205" lon="14.6017457">
        <ele>238.346</ele>
        <time>2019-05-02T11:10:24.514Z</time>
      </trkpt>
      <trkpt lat="48.2078625" lon="14.6018251">
        <ele>236.070</ele>
        <time>2019-05-02T11:10:27.789Z</time>
      </trkpt>
      <trkpt lat="48.2077396" lon="14.6020090">
        <ele>234.265</ele>
        <time>2019-05-02T11:10:31.225Z</time>
      </trkpt>
      <trkpt lat="48.2076168" lon="14.6021275">
        <ele>234.177</ele>
        <time>2019-05-02T11:10:33.972Z</time>
      </trkpt>
      <trkpt lat="48.2074804" lon="14.6022549">
        <ele>236.184</ele>
        <time>2019-05-02T11:10:36.822Z</time>
      </trkpt>
      <trkpt lat="48.2073316" lon="14.6023519">
        <ele>238.884</ele>
        <time>2019-05-02T11:10:39.777Z</time>
      </trkpt>
      <trkpt lat="48.2071496" lon="14.6024900">
        <ele>240.699</ele>
        <time>2019-05-02T11:10:43.658Z</time>
      </trkpt>
      <trkpt lat="48.2070017" lon="14.6026171">
        <ele>241.404</ele>
        <time>2019-05-02T11:10:46.814Z</time>
      </trkpt>
      <trkpt lat="48.2068457" lon="14.6027059">
        <ele>241.411</ele>
        <time>2019-05-02T11:10:49.813Z</time>
      </trkpt>
      <trkpt lat="48.2066994" lon="14.6027819">
        <ele>241.181</ele>
        <time>2019-05-02T11:10:52.570Z</time>
      </trkpt>
      <trkpt lat="48.2065868" lon="14.6028818">
        <ele>240.965</ele>
        <time>2019-05-02T11:10:54.927Z</time>
      </trkpt>
      <trkpt lat="48.2064354" lon="14.6030142">
        <ele>240.772</ele>
        <time>2019-05-02T11:10:58.208Z</time>
      </trkpt>
      <trkpt lat="48.2063265" lon="14.6031372">
        <ele>240.550</ele>
        <time>2019-05-02T11:11:00.891Z</time>
      </trkpt>
      <trkpt lat="48.2063155" lon="14.6033353">
        <ele>240.350</ele>
        <time>2019-05-02T11:11:03.650Z</time>
      </trkpt>
      <trkpt lat="48.2063154" lon="14.6035556">
        <ele>240.264</ele>
        <time>2019-05-02T11:11:07.091Z</time>
      </trkpt>
      <trkpt lat="48.2061849" lon="14.6037168">
        <ele>240.288</ele>
        <time>2019-05-02T11:11:11.313Z</time>
      </trkpt>
      <trkpt lat="48.2060414" lon="14.6038584">
        <ele>240.332</ele>
        <time>2019-05-02T11:11:14.909Z</time>
      </trkpt>
      <trkpt lat="48.2059019" lon="14.6039795">
        <ele>240.325</ele>
        <time>2019-05-02T11:11:17.758Z</time>
      </trkpt>
      <trkpt lat="48.2057446" lon="14.6041294">
        <ele>240.282</ele>
        <time>2019-05-02T11:11:20.959Z</time>
      </trkpt>
      <trkpt lat="48.2056201" lon="14.6042609">
        <ele>240.244</ele>
        <time>2019-05-02T11:11:23.622Z</time>
      </trkpt>
      <trkpt lat="48.2054635" lon="14.6043417">
        <ele>240.223</ele>
        <time>2019-05-02T11:11:26.670Z</time>
      </trkpt>
      <trkpt lat="48.2052793" lon="14.6044576">
        <ele>240.221</ele>
        <time>2019-05-02T11:11:30.385Z</time>
      </trkpt>
      <trkpt lat="48.2051191" lon="14.6045636">
        <ele>240.230</ele>
        <time>2019-05-02T11:11:33.392Z</time>
      </trkpt>
      <trkpt lat="48.2050061" lon="14.6046647">
        <ele>240.233</ele>
        <time>2019-05-02T11:11:35.662Z</time>
      </trkpt>
      <trkpt lat="48.2048714" lon="14.6047780">
        <ele>240.157</ele>
        <time>2019-05-02T11:11:38.562Z</time>
      </trkpt>
      <trkpt lat="48.2047358" lon="14.6049128">
        <ele>239.922</ele>
        <time>2019-05-02T11:11:41.653Z</time>
      </trkpt>
      <trkpt lat="48.2045785" lon="14.6050932">
        <ele>239.593</ele>
        <time>2019-05-02T11:11:45.170Z</time>
      </trkpt>
      <trkpt lat="48.2044494" lon="14.6052329">
        <ele>239.335</ele>
        <time>2019-05-02T11:11:47.786Z</time>
      </trkpt>
      <trkpt lat="48.2043478" lon="14.6053465">
        <ele>239.212</ele>
        <time>2019-05-02T11:11:49.904Z</time>
      </trkpt>
      <trkpt lat="48.2042244" lon="14.6055194">
        <ele>239.172</ele>
        <time>2019-05-02T11:11:52.933Z</time>
      </trkpt>
      <trkpt lat="48.2041298" lon="14.6056289">
        <ele>239.153</ele>
        <time>2019-05-02T11:11:55.191Z</time>
      </trkpt>
      <trkpt lat="48.2039926" lon="14.6057671">
        <ele>239.135</ele>
        <time>2019-05-02T11:11:58.361Z</time>
      </trkpt>
      <trkpt lat="48.2039125" lon="14.6059253">
        <ele>239.168</ele>
        <time>2019-05-02T11:12:00.996Z</time>
      </trkpt>
      <trkpt lat="48.2037881" lon="14.6061254">
        <ele>239.325</ele>
        <time>2019-05-02T11:12:04.938Z</time>
      </trkpt>
      <trkpt lat="48.2036599" lon="14.6061576">
        <ele>239.631</ele>
        <time>2019-05-02T11:12:07.774Z</time>
      </trkpt>
      <trkpt lat="48.2035256" lon="14.6061405">
        <ele>240.055</ele>
        <time>2019-05-02T11:12:10.762Z</time>
      </trkpt>
      <trkpt lat="48.2033310" lon="14.6061055">
        <ele>240.578</ele>
        <time>2019-05-02T11:12:15.403Z</time>
      </trkpt>
      <trkpt lat="48.2032015" lon="14.6061981">
        <ele>241.198</ele>
        <time>2019-05-02T11:12:18.710Z</time>
      </trkpt>
      <trkpt lat="48.2030801" lon="14.6062967">
        <ele>241.796</ele>
        <time>2019-05-02T11:12:21.699Z</time>
      </trkpt>
      <trkpt lat="48.2029476" lon="14.6064230">
        <ele>242.173</ele>
        <time>2019-05-02T11:12:25.070Z</time>
      </trkpt>
      <trkpt lat="48.2028221" lon="14.6066384">
        <ele>242.267</ele>
        <time>2019-05-02T11:12:29.005Z</time>
      </trkpt>
      <trkpt lat="48.2027144" lon="14.6068471">
        <ele>242.213</ele>
        <time>2019-05-02T11:12:32.268Z</time>
      </trkpt>
      <trkpt lat="48.2025680" lon="14.6070573">
        <ele>242.142</ele>
        <time>2019-05-02T11:12:35.992Z</time>
      </trkpt>
      <trkpt lat="48.2024107" lon="14.6072142">
        <ele>242.064</ele>
        <time>2019-05-02T11:12:39.481Z</time>
      </trkpt>
      <trkpt lat="48.2022424" lon="14.6073529">
        <ele>241.932</ele>
        <time>2019-05-02T11:12:42.922Z</time>
      </trkpt>
      <trkpt lat="48.2021085" lon="14.6075277">
        <ele>241.705</ele>
        <time>2019-05-02T11:12:46.138Z</time>
      </trkpt>
      <trkpt lat="48.2020261" lon="14.6076560">
        <ele>241.407</ele>
        <time>2019-05-02T11:12:48.305Z</time>
      </trkpt>
      <trkpt lat="48.2018869" lon="14.6078190">
        <ele>241.163</ele>
        <time>2019-05-02T11:12:51.424Z</time>
      </trkpt>
      <trkpt lat="48.2017256" lon="14.6080040">
        <ele>241.070</ele>
        <time>2019-05-02T11:12:54.794Z</time>
      </trkpt>
      <trkpt lat="48.2015971" lon="14.6081871">
        <ele>241.111</ele>
        <time>2019-05-02T11:12:57.743Z</time>
      </trkpt>
      <trkpt lat="48.2014922" lon="14.6083752">
        <ele>241.222</ele>
        <time>2019-05-02T11:13:00.670Z</time>
      </trkpt>
      <trkpt lat="48.2013579" lon="14.6084894">
        <ele>241.329</ele>
        <time>2019-05-02T11:13:03.701Z</time>
      </trkpt>
      <trkpt lat="48.2012315" lon="14.6086118">
        <ele>241.386</ele>
        <time>2019-05-02T11:13:06.726Z</time>
      </trkpt>
      <trkpt lat="48.2011255" lon="14.6087402">
        <ele>241.379</ele>
        <time>2019-05-02T11:13:09.364Z</time>
      </trkpt>
      <trkpt lat="48.2010133" lon="14.6088654">
        <ele>241.296</ele>
        <time>2019-05-02T11:13:12.033Z</time>
      </trkpt>
      <trkpt lat="48.2009047" lon="14.6090273">
        <ele>241.158</ele>
        <time>2019-05-02T11:13:14.948Z</time>
      </trkpt>
      <trkpt lat="48.2007986" lon="14.6091693">
        <ele>241.051</ele>
        <time>2019-05-02T11:13:17.624Z</time>
      </trkpt>
      <trkpt lat="48.2007195" lon="14.6092634">
        <ele>241.125</ele>
        <time>2019-05-02T11:13:19.501Z</time>
      </trkpt>
      <trkpt lat="48.2006293" lon="14.6093390">
        <ele>241.438</ele>
        <time>2019-05-02T11:13:21.344Z</time>
      </trkpt>
      <trkpt lat="48.2005030" lon="14.6095107">
        <ele>241.834</ele>
        <time>2019-05-02T11:13:24.292Z</time>
      </trkpt>
      <trkpt lat="48.2003767" lon="14.6096433">
        <ele>242.093</ele>
        <time>2019-05-02T11:13:27.034Z</time>
      </trkpt>
      <trkpt lat="48.2002241" lon="14.6097442">
        <ele>242.116</ele>
        <time>2019-05-02T11:13:30.136Z</time>
      </trkpt>
      <trkpt lat="48.2000650" lon="14.6098867">
        <ele>241.924</ele>
        <time>2019-05-02T11:13:33.653Z</time>
      </trkpt>
      <trkpt lat="48.1998897" lon="14.6100491">
        <ele>241.660</ele>
        <time>2019-05-02T11:13:37.108Z</time>
      </trkpt>
      <trkpt lat="48.1997411" lon="14.6101992">
        <ele>241.500</ele>
        <time>2019-05-02T11:13:39.741Z</time>
      </trkpt>
      <trkpt lat="48.1995860" lon="14.6103164">
        <ele>241.497</ele>
        <time>2019-05-02T11:13:42.343Z</time>
      </trkpt>
      <trkpt lat="48.1994561" lon="14.6104262">
        <ele>241.525</ele>
        <time>2019-05-02T11:13:44.801Z</time>
      </trkpt>
      <trkpt lat="48.1993156" lon="14.6105474">
        <ele>241.436</ele>
        <time>2019-05-02T11:13:47.796Z</time>
      </trkpt>
      <trkpt lat="48.1991350" lon="14.6107206">
        <ele>241.248</ele>
        <time>2019-05-02T11:13:51.741Z</time>
      </trkpt>
      <trkpt lat="48.1989202" lon="14.6108447">
        <ele>241.065</ele>
        <time>2019-05-02T11:13:55.408Z</time>
      </trkpt>
      <trkpt lat="48.1987483" lon="14.6109452">
        <ele>240.928</ele>
        <time>2019-05-02T11:13:58.220Z</time>
      </trkpt>
      <trkpt lat="48.1986026" lon="14.6110429">
        <ele>240.841</ele>
        <time>2019-05-02T11:14:00.671Z</time>
      </trkpt>
      <trkpt lat="48.1984766" lon="14.6111372">
        <ele>240.949</ele>
        <time>2019-05-02T11:14:02.921Z</time>
      </trkpt>
      <trkpt lat="48.1983324" lon="14.6112437">
        <ele>241.322</ele>
        <time>2019-05-02T11:14:05.569Z</time>
      </trkpt>
      <trkpt lat="48.1981679" lon="14.6113853">
        <ele>241.796</ele>
        <time>2019-05-02T11:14:08.746Z</time>
      </trkpt>
      <trkpt lat="48.1979911" lon="14.6115437">
        <ele>242.195</ele>
        <time>2019-05-02T11:14:12.083Z</time>
      </trkpt>
      <trkpt lat="48.1977980" lon="14.6117222">
        <ele>242.441</ele>
        <time>2019-05-02T11:14:15.646Z</time>
      </trkpt>
      <trkpt lat="48.1976415" lon="14.6118837">
        <ele>242.256</ele>
        <time>2019-05-02T11:14:18.656Z</time>
      </trkpt>
      <trkpt lat="48.1975087" lon="14.6120360">
        <ele>241.467</ele>
        <time>2019-05-02T11:14:21.309Z</time>
      </trkpt>
      <trkpt lat="48.1973987" lon="14.6122033">
        <ele>240.476</ele>
        <time>2019-05-02T11:14:23.819Z</time>
      </trkpt>
      <trkpt lat="48.1972563" lon="14.6123796">
        <ele>239.853</ele>
        <time>2019-05-02T11:14:26.709Z</time>
      </trkpt>
      <trkpt lat="48.1971240" lon="14.6125317">
        <ele>239.687</ele>
        <time>2019-05-02T11:14:29.189Z</time>
      </trkpt>
      <trkpt lat="48.1969975" lon="14.6127588">
        <ele>239.776</ele>
        <time>2019-05-02T11:14:32.046Z</time>
      </trkpt>
      <trkpt lat="48.1968553" lon="14.6130391">
        <ele>239.891</ele>
        <time>2019-05-02T11:14:35.463Z</time>
      </trkpt>
      <trkpt lat="48.1967140" lon="14.6133018">
        <ele>239.923</ele>
        <time>2019-05-02T11:14:38.666Z</time>
      </trkpt>
      <trkpt lat="48.1965620" lon="14.6135430">
        <ele>239.944</ele>
        <time>2019-05-02T11:14:41.807Z</time>
      </trkpt>
      <trkpt lat="48.1964291" lon="14.6137904">
        <ele>240.065</ele>
        <time>2019-05-02T11:14:44.890Z</time>
      </trkpt>
      <trkpt lat="48.1962985" lon="14.6139950">
        <ele>240.310</ele>
        <time>2019-05-02T11:14:47.724Z</time>
      </trkpt>
      <trkpt lat="48.1961905" lon="14.6142162">
        <ele>240.561</ele>
        <time>2019-05-02T11:14:50.507Z</time>
      </trkpt>
      <trkpt lat="48.1960680" lon="14.6144491">
        <ele>240.669</ele>
        <time>2019-05-02T11:14:53.497Z</time>
      </trkpt>
      <trkpt lat="48.1959652" lon="14.6146599">
        <ele>240.640</ele>
        <time>2019-05-02T11:14:56.126Z</time>
      </trkpt>
      <trkpt lat="48.1958583" lon="14.6148748">
        <ele>240.585</ele>
        <time>2019-05-02T11:14:58.881Z</time>
      </trkpt>
      <trkpt lat="48.1957644" lon="14.6150759">
        <ele>240.491</ele>
        <time>2019-05-02T11:15:01.487Z</time>
      </trkpt>
      <trkpt lat="48.1956626" lon="14.6152772">
        <ele>240.316</ele>
        <time>2019-05-02T11:15:04.239Z</time>
      </trkpt>
      <trkpt lat="48.1955642" lon="14.6154927">
        <ele>240.110</ele>
        <time>2019-05-02T11:15:07.169Z</time>
      </trkpt>
      <trkpt lat="48.1954990" lon="14.6156837">
        <ele>239.954</ele>
        <time>2019-05-02T11:15:09.620Z</time>
      </trkpt>
      <trkpt lat="48.1954000" lon="14.6159199">
        <ele>239.937</ele>
        <time>2019-05-02T11:15:12.827Z</time>
      </trkpt>
      <trkpt lat="48.1953071" lon="14.6161306">
        <ele>240.147</ele>
        <time>2019-05-02T11:15:15.722Z</time>
      </trkpt>
      <trkpt lat="48.1952069" lon="14.6163141">
        <ele>240.480</ele>
        <time>2019-05-02T11:15:18.446Z</time>
      </trkpt>
      <trkpt lat="48.1951073" lon="14.6165268">
        <ele>240.731</ele>
        <time>2019-05-02T11:15:21.495Z</time>
      </trkpt>
      <trkpt lat="48.1950600" lon="14.6166922">
        <ele>240.780</ele>
        <time>2019-05-02T11:15:23.627Z</time>
      </trkpt>
      <trkpt lat="48.1949877" lon="14.6169155">
        <ele>240.660</ele>
        <time>2019-05-02T11:15:26.513Z</time>
      </trkpt>
      <trkpt lat="48.1948995" lon="14.6170985">
        <ele>240.560</ele>
        <time>2019-05-02T11:15:29.062Z</time>
      </trkpt>
      <trkpt lat="48.1948087" lon="14.6173187">
        <ele>240.614</ele>
        <time>2019-05-02T11:15:32.004Z</time>
      </trkpt>
      <trkpt lat="48.1947299" lon="14.6175333">
        <ele>240.659</ele>
        <time>2019-05-02T11:15:34.795Z</time>
      </trkpt>
      <trkpt lat="48.1946667" lon="14.6177161">
        <ele>240.538</ele>
        <time>2019-05-02T11:15:37.131Z</time>
      </trkpt>
      <trkpt lat="48.1945825" lon="14.6178793">
        <ele>240.359</ele>
        <time>2019-05-02T11:15:39.475Z</time>
      </trkpt>
      <trkpt lat="48.1944834" lon="14.6180442">
        <ele>240.192</ele>
        <time>2019-05-02T11:15:42.054Z</time>
      </trkpt>
      <trkpt lat="48.1944002" lon="14.6182170">
        <ele>239.995</ele>
        <time>2019-05-02T11:15:44.760Z</time>
      </trkpt>
      <trkpt lat="48.1943455" lon="14.6183578">
        <ele>239.882</ele>
        <time>2019-05-02T11:15:46.959Z</time>
      </trkpt>
      <trkpt lat="48.1942673" lon="14.6184973">
        <ele>239.955</ele>
        <time>2019-05-02T11:15:49.418Z</time>
      </trkpt>
      <trkpt lat="48.1941914" lon="14.6187286">
        <ele>240.069</ele>
        <time>2019-05-02T11:15:52.793Z</time>
      </trkpt>
      <trkpt lat="48.1941003" lon="14.6189573">
        <ele>240.084</ele>
        <time>2019-05-02T11:15:56.104Z</time>
      </trkpt>
      <trkpt lat="48.1940577" lon="14.6190994">
        <ele>240.090</ele>
        <time>2019-05-02T11:15:58.029Z</time>
      </trkpt>
      <trkpt lat="48.1939763" lon="14.6193315">
        <ele>240.192</ele>
        <time>2019-05-02T11:16:01.360Z</time>
      </trkpt>
      <trkpt lat="48.1938608" lon="14.6195177">
        <ele>240.261</ele>
        <time>2019-05-02T11:16:04.662Z</time>
      </trkpt>
      <trkpt lat="48.1937635" lon="14.6196839">
        <ele>240.173</ele>
        <time>2019-05-02T11:16:07.486Z</time>
      </trkpt>
      <trkpt lat="48.1936802" lon="14.6198684">
        <ele>240.027</ele>
        <time>2019-05-02T11:16:10.286Z</time>
      </trkpt>
      <trkpt lat="48.1935827" lon="14.6200755">
        <ele>239.964</ele>
        <time>2019-05-02T11:16:13.540Z</time>
      </trkpt>
      <trkpt lat="48.1934994" lon="14.6202706">
        <ele>240.001</ele>
        <time>2019-05-02T11:16:16.649Z</time>
      </trkpt>
      <trkpt lat="48.1934086" lon="14.6204597">
        <ele>240.077</ele>
        <time>2019-05-02T11:16:19.731Z</time>
      </trkpt>
      <trkpt lat="48.1933292" lon="14.6206627">
        <ele>240.135</ele>
        <time>2019-05-02T11:16:22.757Z</time>
      </trkpt>
      <trkpt lat="48.1932649" lon="14.6208792">
        <ele>240.161</ele>
        <time>2019-05-02T11:16:25.836Z</time>
      </trkpt>
      <trkpt lat="48.1931777" lon="14.6210601">
        <ele>240.164</ele>
        <time>2019-05-02T11:16:28.782Z</time>
      </trkpt>
      <trkpt lat="48.1930743" lon="14.6212551">
        <ele>240.159</ele>
        <time>2019-05-02T11:16:32.062Z</time>
      </trkpt>
      <trkpt lat="48.1929704" lon="14.6214328">
        <ele>240.107</ele>
        <time>2019-05-02T11:16:35.087Z</time>
      </trkpt>
      <trkpt lat="48.1928740" lon="14.6216405">
        <ele>239.956</ele>
        <time>2019-05-02T11:16:38.265Z</time>
      </trkpt>
      <trkpt lat="48.1927321" lon="14.6217978">
        <ele>239.763</ele>
        <time>2019-05-02T11:16:41.652Z</time>
      </trkpt>
      <trkpt lat="48.1926344" lon="14.6219542">
        <ele>239.623</ele>
        <time>2019-05-02T11:16:44.335Z</time>
      </trkpt>
      <trkpt lat="48.1925196" lon="14.6221416">
        <ele>239.548</ele>
        <time>2019-05-02T11:16:47.405Z</time>
      </trkpt>
      <trkpt lat="48.1924484" lon="14.6223318">
        <ele>239.518</ele>
        <time>2019-05-02T11:16:50.056Z</time>
      </trkpt>
      <trkpt lat="48.1923695" lon="14.6225168">
        <ele>239.494</ele>
        <time>2019-05-02T11:16:52.842Z</time>
      </trkpt>
      <trkpt lat="48.1922603" lon="14.6227313">
        <ele>239.366</ele>
        <time>2019-05-02T11:16:56.338Z</time>
      </trkpt>
      <trkpt lat="48.1921830" lon="14.6228827">
        <ele>239.191</ele>
        <time>2019-05-02T11:16:58.782Z</time>
      </trkpt>
      <trkpt lat="48.1920696" lon="14.6230686">
        <ele>238.844</ele>
        <time>2019-05-02T11:17:02.094Z</time>
      </trkpt>
      <trkpt lat="48.1919690" lon="14.6232750">
        <ele>238.459</ele>
        <time>2019-05-02T11:17:05.586Z</time>
      </trkpt>
      <trkpt lat="48.1918922" lon="14.6234400">
        <ele>238.156</ele>
        <time>2019-05-02T11:17:08.335Z</time>
      </trkpt>
      <trkpt lat="48.1917407" lon="14.6236009">
        <ele>238.265</ele>
        <time>2019-05-02T11:17:12.033Z</time>
      </trkpt>
      <trkpt lat="48.1916333" lon="14.6237712">
        <ele>238.528</ele>
        <time>2019-05-02T11:17:15.068Z</time>
      </trkpt>
      <trkpt lat="48.1915535" lon="14.6239302">
        <ele>238.821</ele>
        <time>2019-05-02T11:17:17.683Z</time>
      </trkpt>
      <trkpt lat="48.1914658" lon="14.6241058">
        <ele>239.050</ele>
        <time>2019-05-02T11:17:20.597Z</time>
      </trkpt>
      <trkpt lat="48.1913426" lon="14.6242860">
        <ele>239.208</ele>
        <time>2019-05-02T11:17:23.959Z</time>
      </trkpt>
      <trkpt lat="48.1912556" lon="14.6245043">
        <ele>239.291</ele>
        <time>2019-05-02T11:17:27.176Z</time>
      </trkpt>
      <trkpt lat="48.1911701" lon="14.6246704">
        <ele>239.325</ele>
        <time>2019-05-02T11:17:29.770Z</time>
      </trkpt>
      <trkpt lat="48.1910483" lon="14.6248562">
        <ele>239.378</ele>
        <time>2019-05-02T11:17:33.016Z</time>
      </trkpt>
      <trkpt lat="48.1909164" lon="14.6250521">
        <ele>239.536</ele>
        <time>2019-05-02T11:17:36.500Z</time>
      </trkpt>
      <trkpt lat="48.1908086" lon="14.6252710">
        <ele>239.779</ele>
        <time>2019-05-02T11:17:39.754Z</time>
      </trkpt>
      <trkpt lat="48.1907136" lon="14.6254723">
        <ele>239.979</ele>
        <time>2019-05-02T11:17:42.666Z</time>
      </trkpt>
      <trkpt lat="48.1905850" lon="14.6256574">
        <ele>240.117</ele>
        <time>2019-05-02T11:17:45.870Z</time>
      </trkpt>
      <trkpt lat="48.1904618" lon="14.6258462">
        <ele>240.281</ele>
        <time>2019-05-02T11:17:49.015Z</time>
      </trkpt>
      <trkpt lat="48.1903361" lon="14.6260421">
        <ele>240.447</ele>
        <time>2019-05-02T11:17:52.257Z</time>
      </trkpt>
      <trkpt lat="48.1902202" lon="14.6262564">
        <ele>240.543</ele>
        <time>2019-05-02T11:17:55.529Z</time>
      </trkpt>
      <trkpt lat="48.1901355" lon="14.6264803">
        <ele>240.571</ele>
        <time>2019-05-02T11:17:58.574Z</time>
      </trkpt>
      <trkpt lat="48.1900191" lon="14.6266546">
        <ele>240.558</ele>
        <time>2019-05-02T11:18:01.646Z</time>
      </trkpt>
      <trkpt lat="48.1899312" lon="14.6268136">
        <ele>240.510</ele>
        <time>2019-05-02T11:18:04.319Z</time>
      </trkpt>
      <trkpt lat="48.1898278" lon="14.6270002">
        <ele>240.414</ele>
        <time>2019-05-02T11:18:07.436Z</time>
      </trkpt>
      <trkpt lat="48.1896850" lon="14.6271770">
        <ele>240.278</ele>
        <time>2019-05-02T11:18:10.907Z</time>
      </trkpt>
      <trkpt lat="48.1895626" lon="14.6273237">
        <ele>240.133</ele>
        <time>2019-05-02T11:18:13.838Z</time>
      </trkpt>
      <trkpt lat="48.1894691" lon="14.6274740">
        <ele>240.023</ele>
        <time>2019-05-02T11:18:16.479Z</time>
      </trkpt>
      <trkpt lat="48.1893754" lon="14.6276357">
        <ele>239.937</ele>
        <time>2019-05-02T11:18:19.312Z</time>
      </trkpt>
      <trkpt lat="48.1892830" lon="14.6277909">
        <ele>239.825</ele>
        <time>2019-05-02T11:18:22.136Z</time>
      </trkpt>
      <trkpt lat="48.1891821" lon="14.6279555">
        <ele>239.564</ele>
        <time>2019-05-02T11:18:25.226Z</time>
      </trkpt>
      <trkpt lat="48.1890893" lon="14.6281010">
        <ele>239.136</ele>
        <time>2019-05-02T11:18:27.997Z</time>
      </trkpt>
      <trkpt lat="48.1889777" lon="14.6282082">
        <ele>238.821</ele>
        <time>2019-05-02T11:18:30.724Z</time>
      </trkpt>
      <trkpt lat="48.1888720" lon="14.6283567">
        <ele>238.838</ele>
        <time>2019-05-02T11:18:33.717Z</time>
      </trkpt>
      <trkpt lat="48.1887779" lon="14.6285175">
        <ele>239.133</ele>
        <time>2019-05-02T11:18:36.727Z</time>
      </trkpt>
      <trkpt lat="48.1886674" lon="14.6286576">
        <ele>239.567</ele>
        <time>2019-05-02T11:18:39.912Z</time>
      </trkpt>
      <trkpt lat="48.1885751" lon="14.6288085">
        <ele>239.797</ele>
        <time>2019-05-02T11:18:43.013Z</time>
      </trkpt>
      <trkpt lat="48.1884647" lon="14.6289668">
        <ele>239.586</ele>
        <time>2019-05-02T11:18:46.368Z</time>
      </trkpt>
      <trkpt lat="48.1883309" lon="14.6290918">
        <ele>239.187</ele>
        <time>2019-05-02T11:18:49.701Z</time>
      </trkpt>
      <trkpt lat="48.1882429" lon="14.6292548">
        <ele>238.939</ele>
        <time>2019-05-02T11:18:52.665Z</time>
      </trkpt>
      <trkpt lat="48.1881181" lon="14.6293996">
        <ele>238.908</ele>
        <time>2019-05-02T11:18:55.980Z</time>
      </trkpt>
      <trkpt lat="48.1880041" lon="14.6295488">
        <ele>238.986</ele>
        <time>2019-05-02T11:18:59.085Z</time>
      </trkpt>
      <trkpt lat="48.1879046" lon="14.6296908">
        <ele>239.043</ele>
        <time>2019-05-02T11:19:01.952Z</time>
      </trkpt>
      <trkpt lat="48.1878310" lon="14.6298423">
        <ele>238.958</ele>
        <time>2019-05-02T11:19:04.709Z</time>
      </trkpt>
      <trkpt lat="48.1877482" lon="14.6299992">
        <ele>238.723</ele>
        <time>2019-05-02T11:19:07.812Z</time>
      </trkpt>
      <trkpt lat="48.1876617" lon="14.6301595">
        <ele>238.468</ele>
        <time>2019-05-02T11:19:11.050Z</time>
      </trkpt>
      <trkpt lat="48.1875517" lon="14.6303133">
        <ele>238.289</ele>
        <time>2019-05-02T11:19:14.379Z</time>
      </trkpt>
      <trkpt lat="48.1874180" lon="14.6304432">
        <ele>238.171</ele>
        <time>2019-05-02T11:19:17.653Z</time>
      </trkpt>
      <trkpt lat="48.1873040" lon="14.6305721">
        <ele>238.076</ele>
        <time>2019-05-02T11:19:20.598Z</time>
      </trkpt>
      <trkpt lat="48.1871996" lon="14.6307079">
        <ele>237.999</ele>
        <time>2019-05-02T11:19:23.578Z</time>
      </trkpt>
      <trkpt lat="48.1871015" lon="14.6308277">
        <ele>237.941</ele>
        <time>2019-05-02T11:19:26.350Z</time>
      </trkpt>
      <trkpt lat="48.1869775" lon="14.6309650">
        <ele>237.904</ele>
        <time>2019-05-02T11:19:29.645Z</time>
      </trkpt>
      <trkpt lat="48.1868635" lon="14.6311545">
        <ele>237.903</ele>
        <time>2019-05-02T11:19:33.056Z</time>
      </trkpt>
      <trkpt lat="48.1867480" lon="14.6312973">
        <ele>237.998</ele>
        <time>2019-05-02T11:19:36.053Z</time>
      </trkpt>
      <trkpt lat="48.1866015" lon="14.6314121">
        <ele>238.225</ele>
        <time>2019-05-02T11:19:39.579Z</time>
      </trkpt>
      <trkpt lat="48.1864792" lon="14.6315317">
        <ele>238.682</ele>
        <time>2019-05-02T11:19:42.780Z</time>
      </trkpt>
      <trkpt lat="48.1863554" lon="14.6316904">
        <ele>239.349</ele>
        <time>2019-05-02T11:19:46.189Z</time>
      </trkpt>
      <trkpt lat="48.1862443" lon="14.6318697">
        <ele>239.923</ele>
        <time>2019-05-02T11:19:49.353Z</time>
      </trkpt>
      <trkpt lat="48.1861365" lon="14.6320380">
        <ele>240.172</ele>
        <time>2019-05-02T11:19:52.295Z</time>
      </trkpt>
      <trkpt lat="48.1860188" lon="14.6321952">
        <ele>240.197</ele>
        <time>2019-05-02T11:19:55.273Z</time>
      </trkpt>
      <trkpt lat="48.1858797" lon="14.6323445">
        <ele>240.126</ele>
        <time>2019-05-02T11:19:58.495Z</time>
      </trkpt>
      <trkpt lat="48.1857616" lon="14.6324807">
        <ele>240.038</ele>
        <time>2019-05-02T11:20:01.314Z</time>
      </trkpt>
      <trkpt lat="48.1856064" lon="14.6326371">
        <ele>239.979</ele>
        <time>2019-05-02T11:20:04.835Z</time>
      </trkpt>
      <trkpt lat="48.1854696" lon="14.6327704">
        <ele>239.960</ele>
        <time>2019-05-02T11:20:07.971Z</time>
      </trkpt>
      <trkpt lat="48.1853590" lon="14.6328698">
        <ele>239.963</ele>
        <time>2019-05-02T11:20:10.593Z</time>
      </trkpt>
      <trkpt lat="48.1852579" lon="14.6329873">
        <ele>239.968</ele>
        <time>2019-05-02T11:20:13.233Z</time>
      </trkpt>
      <trkpt lat="48.1851335" lon="14.6330918">
        <ele>239.965</ele>
        <time>2019-05-02T11:20:16.102Z</time>
      </trkpt>
      <trkpt lat="48.1850265" lon="14.6332250">
        <ele>239.958</ele>
        <time>2019-05-02T11:20:18.816Z</time>
      </trkpt>
      <trkpt lat="48.1849048" lon="14.6333619">
        <ele>239.963</ele>
        <time>2019-05-02T11:20:21.714Z</time>
      </trkpt>
      <trkpt lat="48.1847674" lon="14.6334929">
        <ele>239.995</ele>
        <time>2019-05-02T11:20:24.763Z</time>
      </trkpt>
      <trkpt lat="48.1845966" lon="14.6336305">
        <ele>240.041</ele>
        <time>2019-05-02T11:20:28.387Z</time>
      </trkpt>
      <trkpt lat="48.1844521" lon="14.6337335">
        <ele>240.081</ele>
        <time>2019-05-02T11:20:31.474Z</time>
      </trkpt>
      <trkpt lat="48.1843339" lon="14.6338608">
        <ele>240.104</ele>
        <time>2019-05-02T11:20:34.336Z</time>
      </trkpt>
      <trkpt lat="48.1842259" lon="14.6340122">
        <ele>240.141</ele>
        <time>2019-05-02T11:20:37.212Z</time>
      </trkpt>
      <trkpt lat="48.1840767" lon="14.6341406">
        <ele>240.220</ele>
        <time>2019-05-02T11:20:40.507Z</time>
      </trkpt>
      <trkpt lat="48.1839101" lon="14.6342847">
        <ele>240.303</ele>
        <time>2019-05-02T11:20:44.025Z</time>
      </trkpt>
      <trkpt lat="48.1837777" lon="14.6344291">
        <ele>240.359</ele>
        <time>2019-05-02T11:20:46.883Z</time>
      </trkpt>
      <trkpt lat="48.1836292" lon="14.6345652">
        <ele>240.391</ele>
        <time>2019-05-02T11:20:49.837Z</time>
      </trkpt>
      <trkpt lat="48.1834606" lon="14.6346970">
        <ele>240.388</ele>
        <time>2019-05-02T11:20:53.021Z</time>
      </trkpt>
      <trkpt lat="48.1833327" lon="14.6348945">
        <ele>240.357</ele>
        <time>2019-05-02T11:20:56.127Z</time>
      </trkpt>
      <trkpt lat="48.1832132" lon="14.6350436">
        <ele>240.331</ele>
        <time>2019-05-02T11:20:58.808Z</time>
      </trkpt>
      <trkpt lat="48.1830536" lon="14.6351761">
        <ele>240.322</ele>
        <time>2019-05-02T11:21:02.003Z</time>
      </trkpt>
      <trkpt lat="48.1829214" lon="14.6353102">
        <ele>240.359</ele>
        <time>2019-05-02T11:21:04.847Z</time>
      </trkpt>
      <trkpt lat="48.1827994" lon="14.6354319">
        <ele>240.416</ele>
        <time>2019-05-02T11:21:07.492Z</time>
      </trkpt>
      <trkpt lat="48.1826774" lon="14.6355921">
        <ele>240.368</ele>
        <time>2019-05-02T11:21:10.410Z</time>
      </trkpt>
      <trkpt lat="48.1825358" lon="14.6357604">
        <ele>240.129</ele>
        <time>2019-05-02T11:21:13.618Z</time>
      </trkpt>
      <trkpt lat="48.1824096" lon="14.6359292">
        <ele>239.790</ele>
        <time>2019-05-02T11:21:16.634Z</time>
      </trkpt>
      <trkpt lat="48.1822843" lon="14.6360366">
        <ele>239.513</ele>
        <time>2019-05-02T11:21:19.275Z</time>
      </trkpt>
      <trkpt lat="48.1821686" lon="14.6361418">
        <ele>239.379</ele>
        <time>2019-05-02T11:21:21.798Z</time>
      </trkpt>
      <trkpt lat="48.1820381" lon="14.6363735">
        <ele>239.353</ele>
        <time>2019-05-02T11:21:25.558Z</time>
      </trkpt>
      <trkpt lat="48.1819160" lon="14.6365252">
        <ele>239.392</ele>
        <time>2019-05-02T11:21:28.512Z</time>
      </trkpt>
      <trkpt lat="48.1817917" lon="14.6366650">
        <ele>239.483</ele>
        <time>2019-05-02T11:21:31.412Z</time>
      </trkpt>
      <trkpt lat="48.1816736" lon="14.6368601">
        <ele>239.609</ele>
        <time>2019-05-02T11:21:34.638Z</time>
      </trkpt>
      <trkpt lat="48.1815593" lon="14.6370283">
        <ele>239.753</ele>
        <time>2019-05-02T11:21:37.537Z</time>
      </trkpt>
      <trkpt lat="48.1814340" lon="14.6371644">
        <ele>239.885</ele>
        <time>2019-05-02T11:21:40.339Z</time>
      </trkpt>
      <trkpt lat="48.1813165" lon="14.6373124">
        <ele>239.953</ele>
        <time>2019-05-02T11:21:43.125Z</time>
      </trkpt>
      <trkpt lat="48.1811858" lon="14.6374299">
        <ele>239.893</ele>
        <time>2019-05-02T11:21:45.895Z</time>
      </trkpt>
      <trkpt lat="48.1810536" lon="14.6375494">
        <ele>239.708</ele>
        <time>2019-05-02T11:21:48.759Z</time>
      </trkpt>
      <trkpt lat="48.1809393" lon="14.6377008">
        <ele>239.514</ele>
        <time>2019-05-02T11:21:51.717Z</time>
      </trkpt>
      <trkpt lat="48.1808345" lon="14.6378562">
        <ele>239.431</ele>
        <time>2019-05-02T11:21:54.590Z</time>
      </trkpt>
      <trkpt lat="48.1807267" lon="14.6380178">
        <ele>239.466</ele>
        <time>2019-05-02T11:21:57.401Z</time>
      </trkpt>
      <trkpt lat="48.1806476" lon="14.6381935">
        <ele>239.610</ele>
        <time>2019-05-02T11:21:59.926Z</time>
      </trkpt>
      <trkpt lat="48.1805377" lon="14.6383562">
        <ele>239.830</ele>
        <time>2019-05-02T11:22:02.653Z</time>
      </trkpt>
      <trkpt lat="48.1804272" lon="14.6385465">
        <ele>239.955</ele>
        <time>2019-05-02T11:22:05.486Z</time>
      </trkpt>
      <trkpt lat="48.1803155" lon="14.6387270">
        <ele>239.846</ele>
        <time>2019-05-02T11:22:08.199Z</time>
      </trkpt>
      <trkpt lat="48.1802453" lon="14.6388687">
        <ele>239.624</ele>
        <time>2019-05-02T11:22:10.263Z</time>
      </trkpt>
      <trkpt lat="48.1801209" lon="14.6389906">
        <ele>239.515</ele>
        <time>2019-05-02T11:22:13.087Z</time>
      </trkpt>
      <trkpt lat="48.1799871" lon="14.6391071">
        <ele>239.593</ele>
        <time>2019-05-02T11:22:16.224Z</time>
      </trkpt>
      <trkpt lat="48.1798645" lon="14.6392730">
        <ele>239.757</ele>
        <time>2019-05-02T11:22:19.461Z</time>
      </trkpt>
      <trkpt lat="48.1797392" lon="14.6394310">
        <ele>239.911</ele>
        <time>2019-05-02T11:22:22.494Z</time>
      </trkpt>
      <trkpt lat="48.1796166" lon="14.6395923">
        <ele>240.032</ele>
        <time>2019-05-02T11:22:25.486Z</time>
      </trkpt>
      <trkpt lat="48.1794903" lon="14.6397407">
        <ele>240.074</ele>
        <time>2019-05-02T11:22:28.463Z</time>
      </trkpt>
      <trkpt lat="48.1793641" lon="14.6399110">
        <ele>239.953</ele>
        <time>2019-05-02T11:22:31.605Z</time>
      </trkpt>
      <trkpt lat="48.1792249" lon="14.6400687">
        <ele>239.627</ele>
        <time>2019-05-02T11:22:34.823Z</time>
      </trkpt>
      <trkpt lat="48.1791030" lon="14.6402021">
        <ele>239.222</ele>
        <time>2019-05-02T11:22:37.609Z</time>
      </trkpt>
      <trkpt lat="48.1789784" lon="14.6403548">
        <ele>238.967</ele>
        <time>2019-05-02T11:22:40.580Z</time>
      </trkpt>
      <trkpt lat="48.1788379" lon="14.6405062">
        <ele>238.957</ele>
        <time>2019-05-02T11:22:43.719Z</time>
      </trkpt>
      <trkpt lat="48.1787138" lon="14.6406748">
        <ele>239.091</ele>
        <time>2019-05-02T11:22:46.703Z</time>
      </trkpt>
      <trkpt lat="48.1786069" lon="14.6408366">
        <ele>239.221</ele>
        <time>2019-05-02T11:22:49.449Z</time>
      </trkpt>
      <trkpt lat="48.1784756" lon="14.6409973">
        <ele>239.280</ele>
        <time>2019-05-02T11:22:52.505Z</time>
      </trkpt>
      <trkpt lat="48.1783315" lon="14.6412195">
        <ele>239.300</ele>
        <time>2019-05-02T11:22:56.006Z</time>
      </trkpt>
      <trkpt lat="48.1782237" lon="14.6414545">
        <ele>239.321</ele>
        <time>2019-05-02T11:22:59.119Z</time>
      </trkpt>
      <trkpt lat="48.1781161" lon="14.6416470">
        <ele>239.346</ele>
        <time>2019-05-02T11:23:01.917Z</time>
      </trkpt>
      <trkpt lat="48.1779925" lon="14.6418221">
        <ele>239.321</ele>
        <time>2019-05-02T11:23:04.799Z</time>
      </trkpt>
      <trkpt lat="48.1778695" lon="14.6420048">
        <ele>239.218</ele>
        <time>2019-05-02T11:23:07.712Z</time>
      </trkpt>
      <trkpt lat="48.1777378" lon="14.6421923">
        <ele>239.105</ele>
        <time>2019-05-02T11:23:10.727Z</time>
      </trkpt>
      <trkpt lat="48.1776081" lon="14.6423862">
        <ele>239.100</ele>
        <time>2019-05-02T11:23:13.754Z</time>
      </trkpt>
      <trkpt lat="48.1774776" lon="14.6425636">
        <ele>239.226</ele>
        <time>2019-05-02T11:23:16.669Z</time>
      </trkpt>
      <trkpt lat="48.1773576" lon="14.6427388">
        <ele>239.368</ele>
        <time>2019-05-02T11:23:19.482Z</time>
      </trkpt>
      <trkpt lat="48.1772564" lon="14.6429365">
        <ele>239.428</ele>
        <time>2019-05-02T11:23:22.319Z</time>
      </trkpt>
      <trkpt lat="48.1771595" lon="14.6431283">
        <ele>239.419</ele>
        <time>2019-05-02T11:23:25.073Z</time>
      </trkpt>
      <trkpt lat="48.1770437" lon="14.6432967">
        <ele>239.377</ele>
        <time>2019-05-02T11:23:27.829Z</time>
      </trkpt>
      <trkpt lat="48.1769288" lon="14.6434892">
        <ele>239.316</ele>
        <time>2019-05-02T11:23:30.784Z</time>
      </trkpt>
      <trkpt lat="48.1767959" lon="14.6436981">
        <ele>239.242</ele>
        <time>2019-05-02T11:23:34.106Z</time>
      </trkpt>
      <trkpt lat="48.1766768" lon="14.6438959">
        <ele>239.184</ele>
        <time>2019-05-02T11:23:37.094Z</time>
      </trkpt>
      <trkpt lat="48.1765471" lon="14.6441193">
        <ele>239.181</ele>
        <time>2019-05-02T11:23:40.322Z</time>
      </trkpt>
      <trkpt lat="48.1764290" lon="14.6443244">
        <ele>239.231</ele>
        <time>2019-05-02T11:23:43.204Z</time>
      </trkpt>
      <trkpt lat="48.1762966" lon="14.6445425">
        <ele>239.311</ele>
        <time>2019-05-02T11:23:46.277Z</time>
      </trkpt>
      <trkpt lat="48.1761841" lon="14.6447355">
        <ele>239.466</ele>
        <time>2019-05-02T11:23:48.946Z</time>
      </trkpt>
      <trkpt lat="48.1760917" lon="14.6449288">
        <ele>239.713</ele>
        <time>2019-05-02T11:23:51.476Z</time>
      </trkpt>
      <trkpt lat="48.1759669" lon="14.6451289">
        <ele>239.917</ele>
        <time>2019-05-02T11:23:54.517Z</time>
      </trkpt>
      <trkpt lat="48.1758459" lon="14.6452996">
        <ele>239.955</ele>
        <time>2019-05-02T11:23:57.281Z</time>
      </trkpt>
      <trkpt lat="48.1757179" lon="14.6454962">
        <ele>239.856</ele>
        <time>2019-05-02T11:24:00.273Z</time>
      </trkpt>
      <trkpt lat="48.1755971" lon="14.6457055">
        <ele>239.718</ele>
        <time>2019-05-02T11:24:03.301Z</time>
      </trkpt>
      <trkpt lat="48.1754687" lon="14.6459152">
        <ele>239.653</ele>
        <time>2019-05-02T11:24:06.407Z</time>
      </trkpt>
      <trkpt lat="48.1753740" lon="14.6460979">
        <ele>239.757</ele>
        <time>2019-05-02T11:24:08.917Z</time>
      </trkpt>
      <trkpt lat="48.1752840" lon="14.6463315">
        <ele>240.038</ele>
        <time>2019-05-02T11:24:11.850Z</time>
      </trkpt>
      <trkpt lat="48.1751888" lon="14.6465110">
        <ele>240.354</ele>
        <time>2019-05-02T11:24:14.377Z</time>
      </trkpt>
      <trkpt lat="48.1750743" lon="14.6467456">
        <ele>240.610</ele>
        <time>2019-05-02T11:24:17.613Z</time>
      </trkpt>
      <trkpt lat="48.1749579" lon="14.6470069">
        <ele>240.926</ele>
        <time>2019-05-02T11:24:21.124Z</time>
      </trkpt>
      <trkpt lat="48.1748419" lon="14.6472396">
        <ele>241.342</ele>
        <time>2019-05-02T11:24:24.380Z</time>
      </trkpt>
      <trkpt lat="48.1747280" lon="14.6474604">
        <ele>241.667</ele>
        <time>2019-05-02T11:24:27.551Z</time>
      </trkpt>
      <trkpt lat="48.1746462" lon="14.6476138">
        <ele>241.798</ele>
        <time>2019-05-02T11:24:29.722Z</time>
      </trkpt>
      <trkpt lat="48.1745381" lon="14.6477866">
        <ele>241.744</ele>
        <time>2019-05-02T11:24:32.319Z</time>
      </trkpt>
      <trkpt lat="48.1744294" lon="14.6479859">
        <ele>241.504</ele>
        <time>2019-05-02T11:24:35.172Z</time>
      </trkpt>
      <trkpt lat="48.1743276" lon="14.6481699">
        <ele>241.192</ele>
        <time>2019-05-02T11:24:37.831Z</time>
      </trkpt>
      <trkpt lat="48.1742487" lon="14.6483175">
        <ele>240.951</ele>
        <time>2019-05-02T11:24:39.969Z</time>
      </trkpt>
      <trkpt lat="48.1741595" lon="14.6484758">
        <ele>240.802</ele>
        <time>2019-05-02T11:24:42.374Z</time>
      </trkpt>
      <trkpt lat="48.1740413" lon="14.6486702">
        <ele>240.726</ele>
        <time>2019-05-02T11:24:45.521Z</time>
      </trkpt>
      <trkpt lat="48.1739536" lon="14.6489067">
        <ele>240.665</ele>
        <time>2019-05-02T11:24:48.755Z</time>
      </trkpt>
      <trkpt lat="48.1738579" lon="14.6491531">
        <ele>240.577</ele>
        <time>2019-05-02T11:24:52.042Z</time>
      </trkpt>
      <trkpt lat="48.1737382" lon="14.6493815">
        <ele>240.525</ele>
        <time>2019-05-02T11:24:55.282Z</time>
      </trkpt>
      <trkpt lat="48.1736068" lon="14.6496074">
        <ele>240.534</ele>
        <time>2019-05-02T11:24:58.590Z</time>
      </trkpt>
      <trkpt lat="48.1734773" lon="14.6498376">
        <ele>240.612</ele>
        <time>2019-05-02T11:25:01.895Z</time>
      </trkpt>
      <trkpt lat="48.1733656" lon="14.6500646">
        <ele>240.680</ele>
        <time>2019-05-02T11:25:04.950Z</time>
      </trkpt>
      <trkpt lat="48.1732496" lon="14.6502686">
        <ele>240.587</ele>
        <time>2019-05-02T11:25:07.824Z</time>
      </trkpt>
      <trkpt lat="48.1731380" lon="14.6505011">
        <ele>240.383</ele>
        <time>2019-05-02T11:25:10.881Z</time>
      </trkpt>
      <trkpt lat="48.1730517" lon="14.6507430">
        <ele>240.237</ele>
        <time>2019-05-02T11:25:13.784Z</time>
      </trkpt>
      <trkpt lat="48.1729683" lon="14.6509922">
        <ele>240.180</ele>
        <time>2019-05-02T11:25:16.714Z</time>
      </trkpt>
      <trkpt lat="48.1728814" lon="14.6512415">
        <ele>240.214</ele>
        <time>2019-05-02T11:25:19.704Z</time>
      </trkpt>
      <trkpt lat="48.1727896" lon="14.6514625">
        <ele>240.414</ele>
        <time>2019-05-02T11:25:22.535Z</time>
      </trkpt>
      <trkpt lat="48.1726903" lon="14.6516760">
        <ele>240.759</ele>
        <time>2019-05-02T11:25:25.437Z</time>
      </trkpt>
      <trkpt lat="48.1726029" lon="14.6518798">
        <ele>241.054</ele>
        <time>2019-05-02T11:25:28.213Z</time>
      </trkpt>
      <trkpt lat="48.1725003" lon="14.6521257">
        <ele>241.203</ele>
        <time>2019-05-02T11:25:31.629Z</time>
      </trkpt>
      <trkpt lat="48.1724151" lon="14.6523177">
        <ele>241.258</ele>
        <time>2019-05-02T11:25:34.333Z</time>
      </trkpt>
      <trkpt lat="48.1723242" lon="14.6525081">
        <ele>241.248</ele>
        <time>2019-05-02T11:25:37.022Z</time>
      </trkpt>
      <trkpt lat="48.1722175" lon="14.6526727">
        <ele>241.067</ele>
        <time>2019-05-02T11:25:39.673Z</time>
      </trkpt>
      <trkpt lat="48.1721313" lon="14.6528337">
        <ele>240.675</ele>
        <time>2019-05-02T11:25:42.143Z</time>
      </trkpt>
      <trkpt lat="48.1720539" lon="14.6530330">
        <ele>240.317</ele>
        <time>2019-05-02T11:25:44.976Z</time>
      </trkpt>
      <trkpt lat="48.1719580" lon="14.6532328">
        <ele>240.206</ele>
        <time>2019-05-02T11:25:48.057Z</time>
      </trkpt>
      <trkpt lat="48.1718790" lon="14.6534474">
        <ele>240.250</ele>
        <time>2019-05-02T11:25:51.095Z</time>
      </trkpt>
      <trkpt lat="48.1717756" lon="14.6536275">
        <ele>240.360</ele>
        <time>2019-05-02T11:25:53.939Z</time>
      </trkpt>
      <trkpt lat="48.1717104" lon="14.6538142">
        <ele>240.514</ele>
        <time>2019-05-02T11:25:56.408Z</time>
      </trkpt>
      <trkpt lat="48.1716076" lon="14.6540145">
        <ele>240.645</ele>
        <time>2019-05-02T11:25:59.458Z</time>
      </trkpt>
      <trkpt lat="48.1715192" lon="14.6542347">
        <ele>240.711</ele>
        <time>2019-05-02T11:26:02.736Z</time>
      </trkpt>
      <trkpt lat="48.1714431" lon="14.6544582">
        <ele>240.744</ele>
        <time>2019-05-02T11:26:05.889Z</time>
      </trkpt>
      <trkpt lat="48.1713593" lon="14.6546981">
        <ele>240.695</ele>
        <time>2019-05-02T11:26:09.102Z</time>
      </trkpt>
      <trkpt lat="48.1712575" lon="14.6549450">
        <ele>240.525</ele>
        <time>2019-05-02T11:26:12.509Z</time>
      </trkpt>
      <trkpt lat="48.1711680" lon="14.6551452">
        <ele>240.344</ele>
        <time>2019-05-02T11:26:15.290Z</time>
      </trkpt>
      <trkpt lat="48.1710770" lon="14.6553448">
        <ele>240.321</ele>
        <time>2019-05-02T11:26:18.001Z</time>
      </trkpt>
      <trkpt lat="48.1709918" lon="14.6555622">
        <ele>240.494</ele>
        <time>2019-05-02T11:26:20.854Z</time>
      </trkpt>
      <trkpt lat="48.1709041" lon="14.6557560">
        <ele>240.732</ele>
        <time>2019-05-02T11:26:23.589Z</time>
      </trkpt>
      <trkpt lat="48.1708272" lon="14.6559554">
        <ele>240.756</ele>
        <time>2019-05-02T11:26:26.292Z</time>
      </trkpt>
      <trkpt lat="48.1707296" lon="14.6561765">
        <ele>240.476</ele>
        <time>2019-05-02T11:26:29.360Z</time>
      </trkpt>
      <trkpt lat="48.1706275" lon="14.6564611">
        <ele>240.193</ele>
        <time>2019-05-02T11:26:33.128Z</time>
      </trkpt>
      <trkpt lat="48.1705420" lon="14.6566657">
        <ele>240.218</ele>
        <time>2019-05-02T11:26:35.993Z</time>
      </trkpt>
      <trkpt lat="48.1704574" lon="14.6568418">
        <ele>240.466</ele>
        <time>2019-05-02T11:26:38.537Z</time>
      </trkpt>
      <trkpt lat="48.1703741" lon="14.6570672">
        <ele>240.694</ele>
        <time>2019-05-02T11:26:41.563Z</time>
      </trkpt>
      <trkpt lat="48.1702818" lon="14.6573080">
        <ele>240.792</ele>
        <time>2019-05-02T11:26:44.902Z</time>
      </trkpt>
      <trkpt lat="48.1702093" lon="14.6575254">
        <ele>240.677</ele>
        <time>2019-05-02T11:26:47.912Z</time>
      </trkpt>
      <trkpt lat="48.1701109" lon="14.6577586">
        <ele>240.334</ele>
        <time>2019-05-02T11:26:51.279Z</time>
      </trkpt>
      <trkpt lat="48.1700283" lon="14.6579824">
        <ele>239.989</ele>
        <time>2019-05-02T11:26:54.334Z</time>
      </trkpt>
      <trkpt lat="48.1699489" lon="14.6582403">
        <ele>239.838</ele>
        <time>2019-05-02T11:26:57.644Z</time>
      </trkpt>
      <trkpt lat="48.1698510" lon="14.6585095">
        <ele>239.961</ele>
        <time>2019-05-02T11:27:01.155Z</time>
      </trkpt>
      <trkpt lat="48.1697842" lon="14.6587540">
        <ele>240.323</ele>
        <time>2019-05-02T11:27:04.124Z</time>
      </trkpt>
      <trkpt lat="48.1697075" lon="14.6589830">
        <ele>240.632</ele>
        <time>2019-05-02T11:27:06.931Z</time>
      </trkpt>
      <trkpt lat="48.1696273" lon="14.6592169">
        <ele>240.682</ele>
        <time>2019-05-02T11:27:09.813Z</time>
      </trkpt>
      <trkpt lat="48.1695423" lon="14.6594338">
        <ele>240.589</ele>
        <time>2019-05-02T11:27:12.630Z</time>
      </trkpt>
      <trkpt lat="48.1694559" lon="14.6596789">
        <ele>240.413</ele>
        <time>2019-05-02T11:27:15.754Z</time>
      </trkpt>
      <trkpt lat="48.1693783" lon="14.6599028">
        <ele>240.137</ele>
        <time>2019-05-02T11:27:18.566Z</time>
      </trkpt>
      <trkpt lat="48.1693049" lon="14.6601492">
        <ele>239.914</ele>
        <time>2019-05-02T11:27:21.524Z</time>
      </trkpt>
      <trkpt lat="48.1692300" lon="14.6603475">
        <ele>239.872</ele>
        <time>2019-05-02T11:27:24.046Z</time>
      </trkpt>
      <trkpt lat="48.1691347" lon="14.6606043">
        <ele>239.844</ele>
        <time>2019-05-02T11:27:27.395Z</time>
      </trkpt>
      <trkpt lat="48.1690476" lon="14.6608301">
        <ele>239.676</ele>
        <time>2019-05-02T11:27:30.323Z</time>
      </trkpt>
      <trkpt lat="48.1689755" lon="14.6610537">
        <ele>239.511</ele>
        <time>2019-05-02T11:27:33.014Z</time>
      </trkpt>
      <trkpt lat="48.1689038" lon="14.6613184">
        <ele>239.509</ele>
        <time>2019-05-02T11:27:36.076Z</time>
      </trkpt>
      <trkpt lat="48.1688280" lon="14.6615737">
        <ele>239.594</ele>
        <time>2019-05-02T11:27:39.082Z</time>
      </trkpt>
      <trkpt lat="48.1687618" lon="14.6618466">
        <ele>239.703</ele>
        <time>2019-05-02T11:27:42.163Z</time>
      </trkpt>
      <trkpt lat="48.1686976" lon="14.6620789">
        <ele>239.843</ele>
        <time>2019-05-02T11:27:44.812Z</time>
      </trkpt>
      <trkpt lat="48.1686369" lon="14.6623559">
        <ele>239.902</ele>
        <time>2019-05-02T11:27:47.852Z</time>
      </trkpt>
      <trkpt lat="48.1685867" lon="14.6626355">
        <ele>239.796</ele>
        <time>2019-05-02T11:27:50.854Z</time>
      </trkpt>
      <trkpt lat="48.1685185" lon="14.6628932">
        <ele>239.757</ele>
        <time>2019-05-02T11:27:53.726Z</time>
      </trkpt>
      <trkpt lat="48.1684295" lon="14.6631627">
        <ele>239.975</ele>
        <time>2019-05-02T11:27:56.835Z</time>
      </trkpt>
      <trkpt lat="48.1683700" lon="14.6633869">
        <ele>240.236</ele>
        <time>2019-05-02T11:27:59.345Z</time>
      </trkpt>
      <trkpt lat="48.1682974" lon="14.6636487">
        <ele>240.277</ele>
        <time>2019-05-02T11:28:02.320Z</time>
      </trkpt>
      <trkpt lat="48.1682505" lon="14.6639345">
        <ele>240.134</ele>
        <time>2019-05-02T11:28:05.452Z</time>
      </trkpt>
      <trkpt lat="48.1682068" lon="14.6641477">
        <ele>240.011</ele>
        <time>2019-05-02T11:28:07.910Z</time>
      </trkpt>
      <trkpt lat="48.1681261" lon="14.6643855">
        <ele>240.020</ele>
        <time>2019-05-02T11:28:10.882Z</time>
      </trkpt>
      <trkpt lat="48.1680701" lon="14.6646586">
        <ele>240.028</ele>
        <time>2019-05-02T11:28:14.076Z</time>
      </trkpt>
      <trkpt lat="48.1679999" lon="14.6649152">
        <ele>239.909</ele>
        <time>2019-05-02T11:28:17.382Z</time>
      </trkpt>
      <trkpt lat="48.1679642" lon="14.6651266">
        <ele>239.827</ele>
        <time>2019-05-02T11:28:20.123Z</time>
      </trkpt>
      <trkpt lat="48.1679287" lon="14.6653413">
        <ele>239.942</ele>
        <time>2019-05-02T11:28:22.823Z</time>
      </trkpt>
      <trkpt lat="48.1678833" lon="14.6655754">
        <ele>240.090</ele>
        <time>2019-05-02T11:28:25.716Z</time>
      </trkpt>
      <trkpt lat="48.1678282" lon="14.6658131">
        <ele>240.034</ele>
        <time>2019-05-02T11:28:28.733Z</time>
      </trkpt>
      <trkpt lat="48.1677729" lon="14.6660423">
        <ele>239.791</ele>
        <time>2019-05-02T11:28:31.697Z</time>
      </trkpt>
      <trkpt lat="48.1677233" lon="14.6662708">
        <ele>239.567</ele>
        <time>2019-05-02T11:28:34.547Z</time>
      </trkpt>
      <trkpt lat="48.1676737" lon="14.6664843">
        <ele>239.559</ele>
        <time>2019-05-02T11:28:37.160Z</time>
      </trkpt>
      <trkpt lat="48.1676459" lon="14.6666848">
        <ele>239.776</ele>
        <time>2019-05-02T11:28:39.534Z</time>
      </trkpt>
      <trkpt lat="48.1676217" lon="14.6668501">
        <ele>240.039</ele>
        <time>2019-05-02T11:28:41.555Z</time>
      </trkpt>
      <trkpt lat="48.1675837" lon="14.6670317">
        <ele>240.160</ele>
        <time>2019-05-02T11:28:43.879Z</time>
      </trkpt>
      <trkpt lat="48.1675670" lon="14.6671742">
        <ele>240.047</ele>
        <time>2019-05-02T11:28:45.687Z</time>
      </trkpt>
      <trkpt lat="48.1675350" lon="14.6673849">
        <ele>239.727</ele>
        <time>2019-05-02T11:28:48.503Z</time>
      </trkpt>
      <trkpt lat="48.1675047" lon="14.6676143">
        <ele>239.347</ele>
        <time>2019-05-02T11:28:51.798Z</time>
      </trkpt>
      <trkpt lat="48.1674673" lon="14.6678614">
        <ele>239.048</ele>
        <time>2019-05-02T11:28:55.730Z</time>
      </trkpt>
      <trkpt lat="48.1674139" lon="14.6681271">
        <ele>239.270</ele>
        <time>2019-05-02T11:29:00.440Z</time>
      </trkpt>
      <trkpt lat="48.1673788" lon="14.6683437">
        <ele>240.221</ele>
        <time>2019-05-02T11:29:03.706Z</time>
      </trkpt>
      <trkpt lat="48.1673495" lon="14.6685562">
        <ele>241.172</ele>
        <time>2019-05-02T11:29:06.435Z</time>
      </trkpt>
      <trkpt lat="48.1673223" lon="14.6688005">
        <ele>241.392</ele>
        <time>2019-05-02T11:29:09.364Z</time>
      </trkpt>
      <trkpt lat="48.1672776" lon="14.6690322">
        <ele>240.979</ele>
        <time>2019-05-02T11:29:12.320Z</time>
      </trkpt>
      <trkpt lat="48.1672418" lon="14.6692605">
        <ele>240.311</ele>
        <time>2019-05-02T11:29:15.303Z</time>
      </trkpt>
      <trkpt lat="48.1672216" lon="14.6695113">
        <ele>239.682</ele>
        <time>2019-05-02T11:29:18.480Z</time>
      </trkpt>
      <trkpt lat="48.1671988" lon="14.6697613">
        <ele>239.248</ele>
        <time>2019-05-02T11:29:21.592Z</time>
      </trkpt>
      <trkpt lat="48.1671640" lon="14.6700050">
        <ele>239.080</ele>
        <time>2019-05-02T11:29:24.643Z</time>
      </trkpt>
      <trkpt lat="48.1671510" lon="14.6702538">
        <ele>239.208</ele>
        <time>2019-05-02T11:29:27.678Z</time>
      </trkpt>
      <trkpt lat="48.1671226" lon="14.6705033">
        <ele>239.638</ele>
        <time>2019-05-02T11:29:30.752Z</time>
      </trkpt>
      <trkpt lat="48.1670929" lon="14.6707525">
        <ele>240.252</ele>
        <time>2019-05-02T11:29:33.850Z</time>
      </trkpt>
      <trkpt lat="48.1670706" lon="14.6710132">
        <ele>240.774</ele>
        <time>2019-05-02T11:29:37.083Z</time>
      </trkpt>
      <trkpt lat="48.1670580" lon="14.6712947">
        <ele>240.956</ele>
        <time>2019-05-02T11:29:40.518Z</time>
      </trkpt>
      <trkpt lat="48.1670321" lon="14.6715823">
        <ele>240.737</ele>
        <time>2019-05-02T11:29:43.961Z</time>
      </trkpt>
      <trkpt lat="48.1670146" lon="14.6718549">
        <ele>240.275</ele>
        <time>2019-05-02T11:29:47.119Z</time>
      </trkpt>
      <trkpt lat="48.1670164" lon="14.6721352">
        <ele>239.804</ele>
        <time>2019-05-02T11:29:50.271Z</time>
      </trkpt>
      <trkpt lat="48.1669988" lon="14.6724069">
        <ele>239.443</ele>
        <time>2019-05-02T11:29:53.326Z</time>
      </trkpt>
      <trkpt lat="48.1669721" lon="14.6726768">
        <ele>239.190</ele>
        <time>2019-05-02T11:29:56.414Z</time>
      </trkpt>
      <trkpt lat="48.1669699" lon="14.6729672">
        <ele>238.997</ele>
        <time>2019-05-02T11:29:59.707Z</time>
      </trkpt>
      <trkpt lat="48.1669525" lon="14.6732448">
        <ele>238.829</ele>
        <time>2019-05-02T11:30:02.848Z</time>
      </trkpt>
      <trkpt lat="48.1669387" lon="14.6735483">
        <ele>238.687</ele>
        <time>2019-05-02T11:30:06.168Z</time>
      </trkpt>
      <trkpt lat="48.1669460" lon="14.6738464">
        <ele>238.570</ele>
        <time>2019-05-02T11:30:09.350Z</time>
      </trkpt>
      <trkpt lat="48.1669496" lon="14.6741238">
        <ele>238.486</ele>
        <time>2019-05-02T11:30:12.317Z</time>
      </trkpt>
      <trkpt lat="48.1669439" lon="14.6743897">
        <ele>238.444</ele>
        <time>2019-05-02T11:30:15.130Z</time>
      </trkpt>
      <trkpt lat="48.1669176" lon="14.6746281">
        <ele>238.439</ele>
        <time>2019-05-02T11:30:17.655Z</time>
      </trkpt>
      <trkpt lat="48.1669110" lon="14.6749086">
        <ele>238.463</ele>
        <time>2019-05-02T11:30:20.639Z</time>
      </trkpt>
      <trkpt lat="48.1669133" lon="14.6751689">
        <ele>238.586</ele>
        <time>2019-05-02T11:30:23.525Z</time>
      </trkpt>
      <trkpt lat="48.1669261" lon="14.6754180">
        <ele>238.893</ele>
        <time>2019-05-02T11:30:26.366Z</time>
      </trkpt>
      <trkpt lat="48.1669614" lon="14.6756637">
        <ele>239.307</ele>
        <time>2019-05-02T11:30:29.216Z</time>
      </trkpt>
      <trkpt lat="48.1669648" lon="14.6759143">
        <ele>239.613</ele>
        <time>2019-05-02T11:30:32.066Z</time>
      </trkpt>
      <trkpt lat="48.1669718" lon="14.6761385">
        <ele>239.668</ele>
        <time>2019-05-02T11:30:34.630Z</time>
      </trkpt>
      <trkpt lat="48.1669846" lon="14.6763684">
        <ele>239.456</ele>
        <time>2019-05-02T11:30:37.284Z</time>
      </trkpt>
      <trkpt lat="48.1669623" lon="14.6765822">
        <ele>239.107</ele>
        <time>2019-05-02T11:30:39.807Z</time>
      </trkpt>
      <trkpt lat="48.1669708" lon="14.6768308">
        <ele>238.831</ele>
        <time>2019-05-02T11:30:42.789Z</time>
      </trkpt>
      <trkpt lat="48.1669759" lon="14.6770733">
        <ele>238.717</ele>
        <time>2019-05-02T11:30:45.825Z</time>
      </trkpt>
      <trkpt lat="48.1669934" lon="14.6773232">
        <ele>238.704</ele>
        <time>2019-05-02T11:30:49.074Z</time>
      </trkpt>
      <trkpt lat="48.1670167" lon="14.6775726">
        <ele>238.748</ele>
        <time>2019-05-02T11:30:52.264Z</time>
      </trkpt>
      <trkpt lat="48.1670410" lon="14.6778026">
        <ele>238.863</ele>
        <time>2019-05-02T11:30:55.119Z</time>
      </trkpt>
      <trkpt lat="48.1670725" lon="14.6780597">
        <ele>239.067</ele>
        <time>2019-05-02T11:30:58.232Z</time>
      </trkpt>
      <trkpt lat="48.1671106" lon="14.6783178">
        <ele>239.355</ele>
        <time>2019-05-02T11:31:01.384Z</time>
      </trkpt>
      <trkpt lat="48.1671211" lon="14.6785890">
        <ele>239.718</ele>
        <time>2019-05-02T11:31:04.652Z</time>
      </trkpt>
      <trkpt lat="48.1671201" lon="14.6788135">
        <ele>240.160</ele>
        <time>2019-05-02T11:31:07.319Z</time>
      </trkpt>
      <trkpt lat="48.1671285" lon="14.6790391">
        <ele>240.670</ele>
        <time>2019-05-02T11:31:09.996Z</time>
      </trkpt>
      <trkpt lat="48.1671797" lon="14.6792610">
        <ele>241.141</ele>
        <time>2019-05-02T11:31:12.866Z</time>
      </trkpt>
      <trkpt lat="48.1672097" lon="14.6794736">
        <ele>241.426</ele>
        <time>2019-05-02T11:31:15.703Z</time>
      </trkpt>
      <trkpt lat="48.1672477" lon="14.6796846">
        <ele>241.440</ele>
        <time>2019-05-02T11:31:18.652Z</time>
      </trkpt>
      <trkpt lat="48.1672817" lon="14.6798871">
        <ele>241.183</ele>
        <time>2019-05-02T11:31:21.410Z</time>
      </trkpt>
      <trkpt lat="48.1673122" lon="14.6801203">
        <ele>240.798</ele>
        <time>2019-05-02T11:31:24.603Z</time>
      </trkpt>
      <trkpt lat="48.1673170" lon="14.6803431">
        <ele>240.479</ele>
        <time>2019-05-02T11:31:27.732Z</time>
      </trkpt>
      <trkpt lat="48.1673175" lon="14.6805702">
        <ele>240.265</ele>
        <time>2019-05-02T11:31:30.956Z</time>
      </trkpt>
      <trkpt lat="48.1673269" lon="14.6807634">
        <ele>240.124</ele>
        <time>2019-05-02T11:31:33.684Z</time>
      </trkpt>
      <trkpt lat="48.1673410" lon="14.6809461">
        <ele>240.116</ele>
        <time>2019-05-02T11:31:36.265Z</time>
      </trkpt>
      <trkpt lat="48.1673614" lon="14.6811433">
        <ele>240.331</ele>
        <time>2019-05-02T11:31:39.171Z</time>
      </trkpt>
      <trkpt lat="48.1673925" lon="14.6813497">
        <ele>240.757</ele>
        <time>2019-05-02T11:31:42.474Z</time>
      </trkpt>
      <trkpt lat="48.1674292" lon="14.6815643">
        <ele>241.240</ele>
        <time>2019-05-02T11:31:45.986Z</time>
      </trkpt>
      <trkpt lat="48.1674649" lon="14.6817691">
        <ele>241.584</ele>
        <time>2019-05-02T11:31:49.347Z</time>
      </trkpt>
      <trkpt lat="48.1674872" lon="14.6819563">
        <ele>241.717</ele>
        <time>2019-05-02T11:31:52.329Z</time>
      </trkpt>
      <trkpt lat="48.1675379" lon="14.6821278">
        <ele>241.625</ele>
        <time>2019-05-02T11:31:55.222Z</time>
      </trkpt>
      <trkpt lat="48.1675673" lon="14.6822810">
        <ele>241.227</ele>
        <time>2019-05-02T11:31:57.703Z</time>
      </trkpt>
      <trkpt lat="48.1675861" lon="14.6824415">
        <ele>240.542</ele>
        <time>2019-05-02T11:32:00.350Z</time>
      </trkpt>
      <trkpt lat="48.1676096" lon="14.6826227">
        <ele>239.835</ele>
        <time>2019-05-02T11:32:03.552Z</time>
      </trkpt>
      <trkpt lat="48.1676422" lon="14.6827953">
        <ele>239.438</ele>
        <time>2019-05-02T11:32:06.831Z</time>
      </trkpt>
      <trkpt lat="48.1676483" lon="14.6829648">
        <ele>239.504</ele>
        <time>2019-05-02T11:32:09.974Z</time>
      </trkpt>
      <trkpt lat="48.1676701" lon="14.6831263">
        <ele>239.940</ele>
        <time>2019-05-02T11:32:12.957Z</time>
      </trkpt>
      <trkpt lat="48.1677097" lon="14.6833073">
        <ele>240.509</ele>
        <time>2019-05-02T11:32:16.480Z</time>
      </trkpt>
      <trkpt lat="48.1677337" lon="14.6835202">
        <ele>240.951</ele>
        <time>2019-05-02T11:32:20.632Z</time>
      </trkpt>
      <trkpt lat="48.1677559" lon="14.6837066">
        <ele>241.140</ele>
        <time>2019-05-02T11:32:24.105Z</time>
      </trkpt>
      <trkpt lat="48.1677781" lon="14.6838791">
        <ele>240.972</ele>
        <time>2019-05-02T11:32:27.318Z</time>
      </trkpt>
      <trkpt lat="48.1678072" lon="14.6840866">
        <ele>240.371</ele>
        <time>2019-05-02T11:32:31.429Z</time>
      </trkpt>
      <trkpt lat="48.1678558" lon="14.6843535">
        <ele>239.573</ele>
        <time>2019-05-02T11:32:36.815Z</time>
      </trkpt>
      <trkpt lat="48.1679244" lon="14.6845699">
        <ele>238.980</ele>
        <time>2019-05-02T11:32:40.598Z</time>
      </trkpt>
      <trkpt lat="48.1679660" lon="14.6847637">
        <ele>238.842</ele>
        <time>2019-05-02T11:32:43.570Z</time>
      </trkpt>
      <trkpt lat="48.1680032" lon="14.6849213">
        <ele>239.233</ele>
        <time>2019-05-02T11:32:46.170Z</time>
      </trkpt>
      <trkpt lat="48.1680676" lon="14.6850856">
        <ele>239.959</ele>
        <time>2019-05-02T11:32:49.325Z</time>
      </trkpt>
      <trkpt lat="48.1681043" lon="14.6852744">
        <ele>240.620</ele>
        <time>2019-05-02T11:32:52.502Z</time>
      </trkpt>
      <trkpt lat="48.1681063" lon="14.6854684">
        <ele>240.857</ele>
        <time>2019-05-02T11:32:55.588Z</time>
      </trkpt>
      <trkpt lat="48.1681153" lon="14.6856488">
        <ele>240.562</ele>
        <time>2019-05-02T11:32:58.582Z</time>
      </trkpt>
      <trkpt lat="48.1681372" lon="14.6858464">
        <ele>240.003</ele>
        <time>2019-05-02T11:33:02.071Z</time>
      </trkpt>
      <trkpt lat="48.1681763" lon="14.6860147">
        <ele>239.558</ele>
        <time>2019-05-02T11:33:05.206Z</time>
      </trkpt>
      <trkpt lat="48.1682200" lon="14.6862007">
        <ele>239.367</ele>
        <time>2019-05-02T11:33:08.621Z</time>
      </trkpt>
      <trkpt lat="48.1682818" lon="14.6863956">
        <ele>239.400</ele>
        <time>2019-05-02T11:33:12.230Z</time>
      </trkpt>
      <trkpt lat="48.1683185" lon="14.6865873">
        <ele>239.685</ele>
        <time>2019-05-02T11:33:15.463Z</time>
      </trkpt>
      <trkpt lat="48.1683317" lon="14.6867741">
        <ele>240.247</ele>
        <time>2019-05-02T11:33:18.602Z</time>
      </trkpt>
      <trkpt lat="48.1683621" lon="14.6869304">
        <ele>240.882</ele>
        <time>2019-05-02T11:33:21.446Z</time>
      </trkpt>
      <trkpt lat="48.1684116" lon="14.6871188">
        <ele>241.241</ele>
        <time>2019-05-02T11:33:24.734Z</time>
      </trkpt>
      <trkpt lat="48.1684714" lon="14.6873114">
        <ele>241.139</ele>
        <time>2019-05-02T11:33:27.892Z</time>
      </trkpt>
      <trkpt lat="48.1684902" lon="14.6874951">
        <ele>240.707</ele>
        <time>2019-05-02T11:33:30.825Z</time>
      </trkpt>
      <trkpt lat="48.1685082" lon="14.6876532">
        <ele>240.248</ele>
        <time>2019-05-02T11:33:33.715Z</time>
      </trkpt>
      <trkpt lat="48.1685578" lon="14.6877853">
        <ele>239.999</ele>
        <time>2019-05-02T11:33:36.751Z</time>
      </trkpt>
      <trkpt lat="48.1685902" lon="14.6879214">
        <ele>240.010</ele>
        <time>2019-05-02T11:33:40.050Z</time>
      </trkpt>
      <trkpt lat="48.1686277" lon="14.6880532">
        <ele>240.272</ele>
        <time>2019-05-02T11:33:44.999Z</time>
      </trkpt>
      <trkpt lat="48.1686277" lon="14.6880532">
        <ele>240.681</ele>
        <time>2019-05-02T11:33:50.999Z</time>
      </trkpt>
      <trkpt lat="48.1686277" lon="14.6880532">
        <ele>240.916</ele>
        <time>2019-05-02T11:34:35.912Z</time>
      </trkpt>
      <trkpt lat="48.1686862" lon="14.6884223">
        <ele>240.774</ele>
        <time>2019-05-02T11:34:52.332Z</time>
      </trkpt>
      <trkpt lat="48.1687348" lon="14.6885722">
        <ele>240.451</ele>
        <time>2019-05-02T11:34:56.225Z</time>
      </trkpt>
      <trkpt lat="48.1687942" lon="14.6887212">
        <ele>240.210</ele>
        <time>2019-05-02T11:35:00.025Z</time>
      </trkpt>
      <trkpt lat="48.1688425" lon="14.6888445">
        <ele>240.102</ele>
        <time>2019-05-02T11:35:03.016Z</time>
      </trkpt>
      <trkpt lat="48.1688913" lon="14.6889758">
        <ele>240.161</ele>
        <time>2019-05-02T11:35:05.710Z</time>
      </trkpt>
      <trkpt lat="48.1689541" lon="14.6891486">
        <ele>240.439</ele>
        <time>2019-05-02T11:35:08.784Z</time>
      </trkpt>
      <trkpt lat="48.1690074" lon="14.6892943">
        <ele>240.809</ele>
        <time>2019-05-02T11:35:11.242Z</time>
      </trkpt>
      <trkpt lat="48.1690566" lon="14.6894512">
        <ele>240.995</ele>
        <time>2019-05-02T11:35:13.697Z</time>
      </trkpt>
      <trkpt lat="48.1690893" lon="14.6896757">
        <ele>240.878</ele>
        <time>2019-05-02T11:35:16.692Z</time>
      </trkpt>
      <trkpt lat="48.1691389" lon="14.6899208">
        <ele>240.616</ele>
        <time>2019-05-02T11:35:19.699Z</time>
      </trkpt>
      <trkpt lat="48.1691778" lon="14.6901416">
        <ele>240.437</ele>
        <time>2019-05-02T11:35:22.218Z</time>
      </trkpt>
      <trkpt lat="48.1692182" lon="14.6903636">
        <ele>240.480</ele>
        <time>2019-05-02T11:35:24.700Z</time>
      </trkpt>
      <trkpt lat="48.1692723" lon="14.6905613">
        <ele>240.818</ele>
        <time>2019-05-02T11:35:26.999Z</time>
      </trkpt>
      <trkpt lat="48.1692723" lon="14.6905613">
        <ele>241.305</ele>
        <time>2019-05-02T11:35:28.999Z</time>
      </trkpt>
      <trkpt lat="48.1692723" lon="14.6905613">
        <ele>241.569</ele>
        <time>2019-05-02T11:35:29.099Z</time>
      </trkpt>
      <trkpt lat="48.1693959" lon="14.6908987">
        <ele>241.435</ele>
        <time>2019-05-02T11:35:36.286Z</time>
      </trkpt>
      <trkpt lat="48.1694465" lon="14.6911336">
        <ele>241.150</ele>
        <time>2019-05-02T11:35:39.022Z</time>
      </trkpt>
      <trkpt lat="48.1695127" lon="14.6914014">
        <ele>240.988</ele>
        <time>2019-05-02T11:35:41.839Z</time>
      </trkpt>
      <trkpt lat="48.1696008" lon="14.6916864">
        <ele>240.966</ele>
        <time>2019-05-02T11:35:44.881Z</time>
      </trkpt>
      <trkpt lat="48.1697049" lon="14.6919353">
        <ele>240.874</ele>
        <time>2019-05-02T11:35:47.891Z</time>
      </trkpt>
      <trkpt lat="48.1698350" lon="14.6921394">
        <ele>240.583</ele>
        <time>2019-05-02T11:35:50.933Z</time>
      </trkpt>
      <trkpt lat="48.1699620" lon="14.6923246">
        <ele>240.252</ele>
        <time>2019-05-02T11:35:53.934Z</time>
      </trkpt>
      <trkpt lat="48.1700959" lon="14.6925079">
        <ele>240.062</ele>
        <time>2019-05-02T11:35:57.082Z</time>
      </trkpt>
      <trkpt lat="48.1702287" lon="14.6926851">
        <ele>239.978</ele>
        <time>2019-05-02T11:36:00.119Z</time>
      </trkpt>
      <trkpt lat="48.1703658" lon="14.6928658">
        <ele>239.931</ele>
        <time>2019-05-02T11:36:03.357Z</time>
      </trkpt>
      <trkpt lat="48.1704735" lon="14.6930352">
        <ele>239.848</ele>
        <time>2019-05-02T11:36:06.447Z</time>
      </trkpt>
      <trkpt lat="48.1705847" lon="14.6931456">
        <ele>239.704</ele>
        <time>2019-05-02T11:36:09.257Z</time>
      </trkpt>
      <trkpt lat="48.1706642" lon="14.6933224">
        <ele>239.578</ele>
        <time>2019-05-02T11:36:12.210Z</time>
      </trkpt>
      <trkpt lat="48.1707579" lon="14.6934985">
        <ele>239.574</ele>
        <time>2019-05-02T11:36:15.338Z</time>
      </trkpt>
      <trkpt lat="48.1708259" lon="14.6936716">
        <ele>239.748</ele>
        <time>2019-05-02T11:36:18.092Z</time>
      </trkpt>
      <trkpt lat="48.1709016" lon="14.6938885">
        <ele>240.109</ele>
        <time>2019-05-02T11:36:21.233Z</time>
      </trkpt>
      <trkpt lat="48.1709588" lon="14.6941484">
        <ele>240.520</ele>
        <time>2019-05-02T11:36:24.628Z</time>
      </trkpt>
      <trkpt lat="48.1710357" lon="14.6943600">
        <ele>240.671</ele>
        <time>2019-05-02T11:36:27.733Z</time>
      </trkpt>
      <trkpt lat="48.1710746" lon="14.6945649">
        <ele>240.342</ele>
        <time>2019-05-02T11:36:30.639Z</time>
      </trkpt>
      <trkpt lat="48.1711428" lon="14.6947021">
        <ele>239.733</ele>
        <time>2019-05-02T11:36:33.046Z</time>
      </trkpt>
      <trkpt lat="48.1711926" lon="14.6948988">
        <ele>239.270</ele>
        <time>2019-05-02T11:36:36.012Z</time>
      </trkpt>
      <trkpt lat="48.1712271" lon="14.6950789">
        <ele>239.113</ele>
        <time>2019-05-02T11:36:38.859Z</time>
      </trkpt>
      <trkpt lat="48.1712734" lon="14.6952513">
        <ele>239.096</ele>
        <time>2019-05-02T11:36:42.908Z</time>
      </trkpt>
      <trkpt lat="48.1713192" lon="14.6953961">
        <ele>239.020</ele>
        <time>2019-05-02T11:36:46.999Z</time>
      </trkpt>
      <trkpt lat="48.1713192" lon="14.6953961">
        <ele>238.864</ele>
        <time>2019-05-02T11:36:50.999Z</time>
      </trkpt>
      <trkpt lat="48.1713192" lon="14.6953961">
        <ele>238.718</ele>
        <time>2019-05-02T11:37:23.877Z</time>
      </trkpt>
      <trkpt lat="48.1713787" lon="14.6956460">
        <ele>238.624</ele>
        <time>2019-05-02T11:37:32.501Z</time>
      </trkpt>
      <trkpt lat="48.1714398" lon="14.6958170">
        <ele>238.579</ele>
        <time>2019-05-02T11:37:35.974Z</time>
      </trkpt>
      <trkpt lat="48.1715111" lon="14.6959904">
        <ele>238.587</ele>
        <time>2019-05-02T11:37:39.348Z</time>
      </trkpt>
      <trkpt lat="48.1715838" lon="14.6961279">
        <ele>238.635</ele>
        <time>2019-05-02T11:37:42.085Z</time>
      </trkpt>
      <trkpt lat="48.1716647" lon="14.6962161">
        <ele>238.611</ele>
        <time>2019-05-02T11:37:44.311Z</time>
      </trkpt>
      <trkpt lat="48.1717278" lon="14.6963221">
        <ele>238.371</ele>
        <time>2019-05-02T11:37:46.383Z</time>
      </trkpt>
      <trkpt lat="48.1718327" lon="14.6964403">
        <ele>237.956</ele>
        <time>2019-05-02T11:37:49.096Z</time>
      </trkpt>
      <trkpt lat="48.1719136" lon="14.6965476">
        <ele>237.570</ele>
        <time>2019-05-02T11:37:51.255Z</time>
      </trkpt>
      <trkpt lat="48.1720278" lon="14.6966829">
        <ele>237.338</ele>
        <time>2019-05-02T11:37:54.172Z</time>
      </trkpt>
      <trkpt lat="48.1721479" lon="14.6968179">
        <ele>237.137</ele>
        <time>2019-05-02T11:37:57.148Z</time>
      </trkpt>
      <trkpt lat="48.1722590" lon="14.6968799">
        <ele>236.832</ele>
        <time>2019-05-02T11:37:59.439Z</time>
      </trkpt>
      <trkpt lat="48.1723978" lon="14.6969794">
        <ele>236.531</ele>
        <time>2019-05-02T11:38:02.319Z</time>
      </trkpt>
      <trkpt lat="48.1724877" lon="14.6971801">
        <ele>236.328</ele>
        <time>2019-05-02T11:38:05.322Z</time>
      </trkpt>
      <trkpt lat="48.1725558" lon="14.6973765">
        <ele>236.121</ele>
        <time>2019-05-02T11:38:08.081Z</time>
      </trkpt>
      <trkpt lat="48.1726129" lon="14.6976226">
        <ele>235.839</ele>
        <time>2019-05-02T11:38:11.169Z</time>
      </trkpt>
      <trkpt lat="48.1726571" lon="14.6978730">
        <ele>235.529</ele>
        <time>2019-05-02T11:38:14.111Z</time>
      </trkpt>
      <trkpt lat="48.1726795" lon="14.6981610">
        <ele>235.212</ele>
        <time>2019-05-02T11:38:17.352Z</time>
      </trkpt>
      <trkpt lat="48.1727000" lon="14.6984705">
        <ele>234.877</ele>
        <time>2019-05-02T11:38:20.921Z</time>
      </trkpt>
      <trkpt lat="48.1726921" lon="14.6987358">
        <ele>234.588</ele>
        <time>2019-05-02T11:38:23.972Z</time>
      </trkpt>
      <trkpt lat="48.1726466" lon="14.6990301">
        <ele>234.418</ele>
        <time>2019-05-02T11:38:27.302Z</time>
      </trkpt>
      <trkpt lat="48.1725883" lon="14.6993255">
        <ele>234.303</ele>
        <time>2019-05-02T11:38:30.634Z</time>
      </trkpt>
      <trkpt lat="48.1728231" lon="14.6996653">
        <ele>234.108</ele>
        <time>2019-05-02T11:38:36.131Z</time>
      </trkpt>
      <trkpt lat="48.1728132" lon="14.6998910">
        <ele>233.813</ele>
        <time>2019-05-02T11:38:38.716Z</time>
      </trkpt>
      <trkpt lat="48.1727969" lon="14.7000919">
        <ele>233.540</ele>
        <time>2019-05-02T11:38:41.003Z</time>
      </trkpt>
      <trkpt lat="48.1727995" lon="14.7003420">
        <ele>233.393</ele>
        <time>2019-05-02T11:38:43.846Z</time>
      </trkpt>
      <trkpt lat="48.1727940" lon="14.7005732">
        <ele>233.429</ele>
        <time>2019-05-02T11:38:46.444Z</time>
      </trkpt>
      <trkpt lat="48.1727903" lon="14.7008214">
        <ele>233.637</ele>
        <time>2019-05-02T11:38:49.155Z</time>
      </trkpt>
      <trkpt lat="48.1727904" lon="14.7011085">
        <ele>233.884</ele>
        <time>2019-05-02T11:38:52.108Z</time>
      </trkpt>
      <trkpt lat="48.1727831" lon="14.7014135">
        <ele>233.968</ele>
        <time>2019-05-02T11:38:55.143Z</time>
      </trkpt>
      <trkpt lat="48.1728307" lon="14.7016961">
        <ele>233.825</ele>
        <time>2019-05-02T11:38:58.087Z</time>
      </trkpt>
      <trkpt lat="48.1728695" lon="14.7019600">
        <ele>232.805</ele>
        <time>2019-05-02T11:39:00.901Z</time>
      </trkpt>
      <trkpt lat="48.1729387" lon="14.7022141">
        <ele>229.856</ele>
        <time>2019-05-02T11:39:03.824Z</time>
      </trkpt>
      <trkpt lat="48.1730400" lon="14.7024458">
        <ele>225.775</ele>
        <time>2019-05-02T11:39:06.748Z</time>
      </trkpt>
      <trkpt lat="48.1731597" lon="14.7026352">
        <ele>224.245</ele>
        <time>2019-05-02T11:39:09.437Z</time>
      </trkpt>
      <trkpt lat="48.1732990" lon="14.7028240">
        <ele>227.131</ele>
        <time>2019-05-02T11:39:12.275Z</time>
      </trkpt>
      <trkpt lat="48.1734387" lon="14.7029959">
        <ele>231.572</ele>
        <time>2019-05-02T11:39:14.934Z</time>
      </trkpt>
      <trkpt lat="48.1736376" lon="14.7030643">
        <ele>234.318</ele>
        <time>2019-05-02T11:39:17.842Z</time>
      </trkpt>
      <trkpt lat="48.1738607" lon="14.7030510">
        <ele>235.138</ele>
        <time>2019-05-02T11:39:20.922Z</time>
      </trkpt>
      <trkpt lat="48.1740995" lon="14.7030401">
        <ele>234.944</ele>
        <time>2019-05-02T11:39:24.153Z</time>
      </trkpt>
      <trkpt lat="48.1743350" lon="14.7030422">
        <ele>234.422</ele>
        <time>2019-05-02T11:39:27.372Z</time>
      </trkpt>
      <trkpt lat="48.1745465" lon="14.7030085">
        <ele>233.886</ele>
        <time>2019-05-02T11:39:30.349Z</time>
      </trkpt>
      <trkpt lat="48.1747496" lon="14.7029339">
        <ele>233.460</ele>
        <time>2019-05-02T11:39:33.331Z</time>
      </trkpt>
      <trkpt lat="48.1749525" lon="14.7029165">
        <ele>233.182</ele>
        <time>2019-05-02T11:39:36.286Z</time>
      </trkpt>
      <trkpt lat="48.1751700" lon="14.7028846">
        <ele>233.089</ele>
        <time>2019-05-02T11:39:39.571Z</time>
      </trkpt>
      <trkpt lat="48.1753699" lon="14.7029300">
        <ele>233.166</ele>
        <time>2019-05-02T11:39:42.782Z</time>
      </trkpt>
      <trkpt lat="48.1755452" lon="14.7030550">
        <ele>233.255</ele>
        <time>2019-05-02T11:39:45.958Z</time>
      </trkpt>
      <trkpt lat="48.1757135" lon="14.7032523">
        <ele>233.187</ele>
        <time>2019-05-02T11:39:49.549Z</time>
      </trkpt>
      <trkpt lat="48.1758615" lon="14.7034263">
        <ele>232.936</ele>
        <time>2019-05-02T11:39:53.014Z</time>
      </trkpt>
      <trkpt lat="48.1759479" lon="14.7036636">
        <ele>232.560</ele>
        <time>2019-05-02T11:39:56.582Z</time>
      </trkpt>
      <trkpt lat="48.1760359" lon="14.7038156">
        <ele>232.073</ele>
        <time>2019-05-02T11:39:59.211Z</time>
      </trkpt>
      <trkpt lat="48.1760903" lon="14.7039336">
        <ele>231.546</ele>
        <time>2019-05-02T11:40:01.067Z</time>
      </trkpt>
      <trkpt lat="48.1761874" lon="14.7040983">
        <ele>231.150</ele>
        <time>2019-05-02T11:40:03.877Z</time>
      </trkpt>
      <trkpt lat="48.1762667" lon="14.7042947">
        <ele>230.990</ele>
        <time>2019-05-02T11:40:06.727Z</time>
      </trkpt>
      <trkpt lat="48.1763306" lon="14.7044990">
        <ele>231.014</ele>
        <time>2019-05-02T11:40:09.399Z</time>
      </trkpt>
      <trkpt lat="48.1763881" lon="14.7047092">
        <ele>231.095</ele>
        <time>2019-05-02T11:40:12.072Z</time>
      </trkpt>
      <trkpt lat="48.1764767" lon="14.7049385">
        <ele>231.156</ele>
        <time>2019-05-02T11:40:15.230Z</time>
      </trkpt>
      <trkpt lat="48.1765490" lon="14.7051757">
        <ele>231.558</ele>
        <time>2019-05-02T11:40:18.271Z</time>
      </trkpt>
      <trkpt lat="48.1766297" lon="14.7053849">
        <ele>232.528</ele>
        <time>2019-05-02T11:40:20.955Z</time>
      </trkpt>
      <trkpt lat="48.1767195" lon="14.7055934">
        <ele>233.447</ele>
        <time>2019-05-02T11:40:23.667Z</time>
      </trkpt>
      <trkpt lat="48.1768063" lon="14.7057907">
        <ele>233.747</ele>
        <time>2019-05-02T11:40:26.255Z</time>
      </trkpt>
      <trkpt lat="48.1769101" lon="14.7059971">
        <ele>233.582</ele>
        <time>2019-05-02T11:40:29.058Z</time>
      </trkpt>
      <trkpt lat="48.1770169" lon="14.7061950">
        <ele>233.170</ele>
        <time>2019-05-02T11:40:31.776Z</time>
      </trkpt>
      <trkpt lat="48.1771180" lon="14.7063985">
        <ele>232.636</ele>
        <time>2019-05-02T11:40:34.598Z</time>
      </trkpt>
      <trkpt lat="48.1771974" lon="14.7065229">
        <ele>232.163</ele>
        <time>2019-05-02T11:40:36.542Z</time>
      </trkpt>
      <trkpt lat="48.1773400" lon="14.7067355">
        <ele>231.903</ele>
        <time>2019-05-02T11:40:39.834Z</time>
      </trkpt>
      <trkpt lat="48.1774740" lon="14.7069481">
        <ele>231.875</ele>
        <time>2019-05-02T11:40:42.942Z</time>
      </trkpt>
      <trkpt lat="48.1776050" lon="14.7071477">
        <ele>231.981</ele>
        <time>2019-05-02T11:40:45.916Z</time>
      </trkpt>
      <trkpt lat="48.1777644" lon="14.7073960">
        <ele>232.105</ele>
        <time>2019-05-02T11:40:49.400Z</time>
      </trkpt>
      <trkpt lat="48.1778606" lon="14.7075395">
        <ele>232.183</ele>
        <time>2019-05-02T11:40:51.431Z</time>
      </trkpt>
      <trkpt lat="48.1780176" lon="14.7077290">
        <ele>232.259</ele>
        <time>2019-05-02T11:40:54.512Z</time>
      </trkpt>
      <trkpt lat="48.1780988" lon="14.7079125">
        <ele>232.420</ele>
        <time>2019-05-02T11:40:56.858Z</time>
      </trkpt>
      <trkpt lat="48.1781763" lon="14.7081267">
        <ele>232.643</ele>
        <time>2019-05-02T11:40:59.573Z</time>
      </trkpt>
      <trkpt lat="48.1782379" lon="14.7083212">
        <ele>232.765</ele>
        <time>2019-05-02T11:41:02.028Z</time>
      </trkpt>
      <trkpt lat="48.1783297" lon="14.7085328">
        <ele>232.683</ele>
        <time>2019-05-02T11:41:04.780Z</time>
      </trkpt>
      <trkpt lat="48.1784438" lon="14.7087409">
        <ele>232.486</ele>
        <time>2019-05-02T11:41:07.608Z</time>
      </trkpt>
      <trkpt lat="48.1785381" lon="14.7089164">
        <ele>232.361</ele>
        <time>2019-05-02T11:41:09.977Z</time>
      </trkpt>
      <trkpt lat="48.1786162" lon="14.7091402">
        <ele>232.386</ele>
        <time>2019-05-02T11:41:12.537Z</time>
      </trkpt>
      <trkpt lat="48.1789050" lon="14.7096634">
        <ele>232.613</ele>
        <time>2019-05-02T11:41:19.267Z</time>
      </trkpt>
      <trkpt lat="48.1790911" lon="14.7099229">
        <ele>232.804</ele>
        <time>2019-05-02T11:41:22.915Z</time>
      </trkpt>
      <trkpt lat="48.1792398" lon="14.7101854">
        <ele>233.058</ele>
        <time>2019-05-02T11:41:26.157Z</time>
      </trkpt>
      <trkpt lat="48.1793781" lon="14.7104023">
        <ele>233.384</ele>
        <time>2019-05-02T11:41:29.007Z</time>
      </trkpt>
      <trkpt lat="48.1795296" lon="14.7106459">
        <ele>233.731</ele>
        <time>2019-05-02T11:41:32.258Z</time>
      </trkpt>
      <trkpt lat="48.1796512" lon="14.7108950">
        <ele>233.918</ele>
        <time>2019-05-02T11:41:35.397Z</time>
      </trkpt>
      <trkpt lat="48.1797826" lon="14.7111199">
        <ele>233.856</ele>
        <time>2019-05-02T11:41:38.546Z</time>
      </trkpt>
      <trkpt lat="48.1799279" lon="14.7113007">
        <ele>233.661</ele>
        <time>2019-05-02T11:41:41.428Z</time>
      </trkpt>
      <trkpt lat="48.1800859" lon="14.7114842">
        <ele>233.494</ele>
        <time>2019-05-02T11:41:44.298Z</time>
      </trkpt>
      <trkpt lat="48.1802900" lon="14.7116208">
        <ele>233.422</ele>
        <time>2019-05-02T11:41:47.360Z</time>
      </trkpt>
      <trkpt lat="48.1804191" lon="14.7117230">
        <ele>233.480</ele>
        <time>2019-05-02T11:41:49.337Z</time>
      </trkpt>
      <trkpt lat="48.1806239" lon="14.7118624">
        <ele>233.692</ele>
        <time>2019-05-02T11:41:52.388Z</time>
      </trkpt>
      <trkpt lat="48.1807960" lon="14.7119893">
        <ele>233.992</ele>
        <time>2019-05-02T11:41:55.001Z</time>
      </trkpt>
      <trkpt lat="48.1809960" lon="14.7121311">
        <ele>234.259</ele>
        <time>2019-05-02T11:41:58.043Z</time>
      </trkpt>
      <trkpt lat="48.1811825" lon="14.7122690">
        <ele>234.416</ele>
        <time>2019-05-02T11:42:00.975Z</time>
      </trkpt>
      <trkpt lat="48.1813542" lon="14.7123988">
        <ele>234.469</ele>
        <time>2019-05-02T11:42:03.755Z</time>
      </trkpt>
      <trkpt lat="48.1815169" lon="14.7125031">
        <ele>234.460</ele>
        <time>2019-05-02T11:42:06.362Z</time>
      </trkpt>
      <trkpt lat="48.1816904" lon="14.7126016">
        <ele>234.419</ele>
        <time>2019-05-02T11:42:09.234Z</time>
      </trkpt>
      <trkpt lat="48.1818543" lon="14.7127043">
        <ele>234.364</ele>
        <time>2019-05-02T11:42:12.152Z</time>
      </trkpt>
      <trkpt lat="48.1820117" lon="14.7127987">
        <ele>234.263</ele>
        <time>2019-05-02T11:42:15.023Z</time>
      </trkpt>
      <trkpt lat="48.1821599" lon="14.7128822">
        <ele>234.071</ele>
        <time>2019-05-02T11:42:17.824Z</time>
      </trkpt>
      <trkpt lat="48.1822454" lon="14.7129250">
        <ele>233.856</ele>
        <time>2019-05-02T11:42:19.438Z</time>
      </trkpt>
      <trkpt lat="48.1823918" lon="14.7130065">
        <ele>233.725</ele>
        <time>2019-05-02T11:42:22.185Z</time>
      </trkpt>
      <trkpt lat="48.1825627" lon="14.7130719">
        <ele>233.689</ele>
        <time>2019-05-02T11:42:25.263Z</time>
      </trkpt>
      <trkpt lat="48.1827151" lon="14.7131469">
        <ele>233.673</ele>
        <time>2019-05-02T11:42:28.209Z</time>
      </trkpt>
      <trkpt lat="48.1828555" lon="14.7132048">
        <ele>233.610</ele>
        <time>2019-05-02T11:42:31.014Z</time>
      </trkpt>
      <trkpt lat="48.1829526" lon="14.7132748">
        <ele>233.521</ele>
        <time>2019-05-02T11:42:33.092Z</time>
      </trkpt>
      <trkpt lat="48.1831296" lon="14.7133352">
        <ele>233.456</ele>
        <time>2019-05-02T11:42:36.635Z</time>
      </trkpt>
      <trkpt lat="48.1832600" lon="14.7133328">
        <ele>233.430</ele>
        <time>2019-05-02T11:42:39.353Z</time>
      </trkpt>
      <trkpt lat="48.1834142" lon="14.7133603">
        <ele>233.427</ele>
        <time>2019-05-02T11:42:42.755Z</time>
      </trkpt>
      <trkpt lat="48.1835581" lon="14.7133769">
        <ele>233.433</ele>
        <time>2019-05-02T11:42:46.190Z</time>
      </trkpt>
      <trkpt lat="48.1836726" lon="14.7132587">
        <ele>233.438</ele>
        <time>2019-05-02T11:42:50.175Z</time>
      </trkpt>
      <trkpt lat="48.1837739" lon="14.7132424">
        <ele>233.440</ele>
        <time>2019-05-02T11:42:53.239Z</time>
      </trkpt>
      <trkpt lat="48.1838656" lon="14.7132391">
        <ele>233.440</ele>
        <time>2019-05-02T11:42:55.876Z</time>
      </trkpt>
      <trkpt lat="48.1839592" lon="14.7131866">
        <ele>233.439</ele>
        <time>2019-05-02T11:42:58.747Z</time>
      </trkpt>
      <trkpt lat="48.1840544" lon="14.7131377">
        <ele>233.439</ele>
        <time>2019-05-02T11:43:01.795Z</time>
      </trkpt>
      <trkpt lat="48.1841587" lon="14.7131261">
        <ele>233.439</ele>
        <time>2019-05-02T11:43:05.132Z</time>
      </trkpt>
      <trkpt lat="48.1842540" lon="14.7130918">
        <ele>233.439</ele>
        <time>2019-05-02T11:43:08.439Z</time>
      </trkpt>
      <trkpt lat="48.1843456" lon="14.7130741">
        <ele>233.439</ele>
        <time>2019-05-02T11:43:11.618Z</time>
      </trkpt>
      <trkpt lat="48.1844333" lon="14.7130228">
        <ele>233.439</ele>
        <time>2019-05-02T11:43:14.709Z</time>
      </trkpt>
      <trkpt lat="48.1845283" lon="14.7129373">
        <ele>233.439</ele>
        <time>2019-05-02T11:43:18.482Z</time>
      </trkpt>
      <trkpt lat="48.1846371" lon="14.7128861">
        <ele>233.444</ele>
        <time>2019-05-02T11:43:22.640Z</time>
      </trkpt>
      <trkpt lat="48.1847413" lon="14.7128716">
        <ele>233.484</ele>
        <time>2019-05-02T11:43:26.447Z</time>
      </trkpt>
      <trkpt lat="48.1848510" lon="14.7128420">
        <ele>233.603</ele>
        <time>2019-05-02T11:43:30.998Z</time>
      </trkpt>
      <trkpt lat="48.1848510" lon="14.7128420">
        <ele>233.777</ele>
        <time>2019-05-02T11:43:42.998Z</time>
      </trkpt>
      <trkpt lat="48.1848510" lon="14.7128420">
        <ele>233.854</ele>
        <time>2019-05-02T11:44:46.680Z</time>
      </trkpt>
      <trkpt lat="48.1848037" lon="14.7125413">
        <ele>233.751</ele>
        <time>2019-05-02T11:45:00.567Z</time>
      </trkpt>
      <trkpt lat="48.1847758" lon="14.7123604">
        <ele>233.721</ele>
        <time>2019-05-02T11:45:04.513Z</time>
      </trkpt>
      <trkpt lat="48.1847647" lon="14.7122217">
        <ele>233.966</ele>
        <time>2019-05-02T11:45:07.266Z</time>
      </trkpt>
      <trkpt lat="48.1847764" lon="14.7120842">
        <ele>234.287</ele>
        <time>2019-05-02T11:45:09.950Z</time>
      </trkpt>
      <trkpt lat="48.1847755" lon="14.7119274">
        <ele>234.459</ele>
        <time>2019-05-02T11:45:13.062Z</time>
      </trkpt>
      <trkpt lat="48.1848135" lon="14.7117819">
        <ele>234.496</ele>
        <time>2019-05-02T11:45:16.336Z</time>
      </trkpt>
      <trkpt lat="48.1848626" lon="14.7116621">
        <ele>234.476</ele>
        <time>2019-05-02T11:45:19.429Z</time>
      </trkpt>
      <trkpt lat="48.1849277" lon="14.7115526">
        <ele>234.450</ele>
        <time>2019-05-02T11:45:22.439Z</time>
      </trkpt>
      <trkpt lat="48.1849992" lon="14.7113997">
        <ele>234.436</ele>
        <time>2019-05-02T11:45:25.914Z</time>
      </trkpt>
      <trkpt lat="48.1850493" lon="14.7112539">
        <ele>234.433</ele>
        <time>2019-05-02T11:45:28.718Z</time>
      </trkpt>
      <trkpt lat="48.1851074" lon="14.7110595">
        <ele>234.435</ele>
        <time>2019-05-02T11:45:32.166Z</time>
      </trkpt>
      <trkpt lat="48.1851894" lon="14.7109431">
        <ele>234.437</ele>
        <time>2019-05-02T11:45:34.973Z</time>
      </trkpt>
      <trkpt lat="48.1852341" lon="14.7107862">
        <ele>234.438</ele>
        <time>2019-05-02T11:45:38.018Z</time>
      </trkpt>
      <trkpt lat="48.1852121" lon="14.7106368">
        <ele>234.438</ele>
        <time>2019-05-02T11:45:41.000Z</time>
      </trkpt>
      <trkpt lat="48.1851865" lon="14.7104851">
        <ele>234.438</ele>
        <time>2019-05-02T11:45:44.225Z</time>
      </trkpt>
      <trkpt lat="48.1852060" lon="14.7103470">
        <ele>234.438</ele>
        <time>2019-05-02T11:45:47.300Z</time>
      </trkpt>
      <trkpt lat="48.1852089" lon="14.7101866">
        <ele>234.438</ele>
        <time>2019-05-02T11:45:50.998Z</time>
      </trkpt>
      <trkpt lat="48.1852089" lon="14.7101866">
        <ele>234.438</ele>
        <time>2019-05-02T11:45:53.998Z</time>
      </trkpt>
      <trkpt lat="48.1852089" lon="14.7101866">
        <ele>234.400</ele>
        <time>2019-05-02T11:45:54.098Z</time>
      </trkpt>
      <trkpt lat="48.1852703" lon="14.7098219">
        <ele>234.303</ele>
        <time>2019-05-02T11:46:07.291Z</time>
      </trkpt>
      <trkpt lat="48.1853366" lon="14.7097087">
        <ele>234.241</ele>
        <time>2019-05-02T11:46:09.998Z</time>
      </trkpt>
      <trkpt lat="48.1853366" lon="14.7097087">
        <ele>234.291</ele>
        <time>2019-05-02T11:46:21.998Z</time>
      </trkpt>
      <trkpt lat="48.1853366" lon="14.7097087">
        <ele>234.325</ele>
        <time>2019-05-02T11:46:32.680Z</time>
      </trkpt>
      <trkpt lat="48.1854323" lon="14.7094477">
        <ele>234.231</ele>
        <time>2019-05-02T11:46:48.707Z</time>
      </trkpt>
      <trkpt lat="48.1854758" lon="14.7093084">
        <ele>234.215</ele>
        <time>2019-05-02T11:46:54.435Z</time>
      </trkpt>
      <trkpt lat="48.1854827" lon="14.7091716">
        <ele>234.466</ele>
        <time>2019-05-02T11:46:59.669Z</time>
      </trkpt>
      <trkpt lat="48.1854801" lon="14.7090183">
        <ele>234.828</ele>
        <time>2019-05-02T11:47:05.375Z</time>
      </trkpt>
      <trkpt lat="48.1854970" lon="14.7088672">
        <ele>235.125</ele>
        <time>2019-05-02T11:47:10.536Z</time>
      </trkpt>
      <trkpt lat="48.1854573" lon="14.7087230">
        <ele>235.336</ele>
        <time>2019-05-02T11:47:15.135Z</time>
      </trkpt>
      <trkpt lat="48.1854568" lon="14.7085605">
        <ele>235.446</ele>
        <time>2019-05-02T11:47:18.478Z</time>
      </trkpt>
      <trkpt lat="48.1854451" lon="14.7083779">
        <ele>235.472</ele>
        <time>2019-05-02T11:47:21.296Z</time>
      </trkpt>
      <trkpt lat="48.1854526" lon="14.7081637">
        <ele>235.460</ele>
        <time>2019-05-02T11:47:24.118Z</time>
      </trkpt>
      <trkpt lat="48.1854628" lon="14.7080174">
        <ele>235.444</ele>
        <time>2019-05-02T11:47:25.976Z</time>
      </trkpt>
      <trkpt lat="48.1854616" lon="14.7078601">
        <ele>235.436</ele>
        <time>2019-05-02T11:47:27.980Z</time>
      </trkpt>
      <trkpt lat="48.1854806" lon="14.7077058">
        <ele>235.434</ele>
        <time>2019-05-02T11:47:29.998Z</time>
      </trkpt>
      <trkpt lat="48.1854806" lon="14.7077058">
        <ele>235.435</ele>
        <time>2019-05-02T11:47:31.998Z</time>
      </trkpt>
      <trkpt lat="48.1854806" lon="14.7077058">
        <ele>235.398</ele>
        <time>2019-05-02T11:47:32.098Z</time>
      </trkpt>
      <trkpt lat="48.1855087" lon="14.7073636">
        <ele>235.301</ele>
        <time>2019-05-02T11:47:39.291Z</time>
      </trkpt>
      <trkpt lat="48.1855290" lon="14.7072071">
        <ele>235.238</ele>
        <time>2019-05-02T11:47:41.998Z</time>
      </trkpt>
      <trkpt lat="48.1855290" lon="14.7072071">
        <ele>235.288</ele>
        <time>2019-05-02T11:47:45.998Z</time>
      </trkpt>
      <trkpt lat="48.1855290" lon="14.7072071">
        <ele>235.323</ele>
        <time>2019-05-02T11:48:12.723Z</time>
      </trkpt>
      <trkpt lat="48.1855517" lon="14.7070702">
        <ele>235.228</ele>
        <time>2019-05-02T11:48:17.998Z</time>
      </trkpt>
      <trkpt lat="48.1855517" lon="14.7070702">
        <ele>235.089</ele>
        <time>2019-05-02T11:48:19.998Z</time>
      </trkpt>
      <trkpt lat="48.1855517" lon="14.7070702">
        <ele>235.003</ele>
        <time>2019-05-02T11:48:20.098Z</time>
      </trkpt>
      <trkpt lat="48.1855456" lon="14.7069064">
        <ele>234.962</ele>
        <time>2019-05-02T11:48:20.998Z</time>
      </trkpt>
      <trkpt lat="48.1855456" lon="14.7069064">
        <ele>234.929</ele>
        <time>2019-05-02T11:48:21.998Z</time>
      </trkpt>
      <trkpt lat="48.1855456" lon="14.7069064">
        <ele>234.862</ele>
        <time>2019-05-02T11:48:22.098Z</time>
      </trkpt>
      <trkpt lat="48.1854958" lon="14.7065288">
        <ele>234.770</ele>
        <time>2019-05-02T11:48:36.960Z</time>
      </trkpt>
      <trkpt lat="48.1854968" lon="14.7063929">
        <ele>234.805</ele>
        <time>2019-05-02T11:48:40.865Z</time>
      </trkpt>
      <trkpt lat="48.1854971" lon="14.7062400">
        <ele>235.049</ele>
        <time>2019-05-02T11:48:44.808Z</time>
      </trkpt>
      <trkpt lat="48.1854938" lon="14.7060943">
        <ele>235.325</ele>
        <time>2019-05-02T11:48:48.077Z</time>
      </trkpt>
      <trkpt lat="48.1854709" lon="14.7059474">
        <ele>235.463</ele>
        <time>2019-05-02T11:48:51.131Z</time>
      </trkpt>
      <trkpt lat="48.1854769" lon="14.7057813">
        <ele>235.488</ele>
        <time>2019-05-02T11:48:54.355Z</time>
      </trkpt>
      <trkpt lat="48.1855005" lon="14.7056469">
        <ele>235.468</ele>
        <time>2019-05-02T11:48:57.062Z</time>
      </trkpt>
      <trkpt lat="48.1855364" lon="14.7054902">
        <ele>235.445</ele>
        <time>2019-05-02T11:49:00.243Z</time>
      </trkpt>
      <trkpt lat="48.1855762" lon="14.7053497">
        <ele>235.434</ele>
        <time>2019-05-02T11:49:03.042Z</time>
      </trkpt>
      <trkpt lat="48.1855982" lon="14.7051856">
        <ele>235.432</ele>
        <time>2019-05-02T11:49:05.998Z</time>
      </trkpt>
      <trkpt lat="48.1855982" lon="14.7051856">
        <ele>235.434</ele>
        <time>2019-05-02T11:49:06.998Z</time>
      </trkpt>
      <trkpt lat="48.1855982" lon="14.7051856">
        <ele>235.398</ele>
        <time>2019-05-02T11:49:07.098Z</time>
      </trkpt>
      <trkpt lat="48.1856695" lon="14.7049063">
        <ele>235.300</ele>
        <time>2019-05-02T11:49:12.998Z</time>
      </trkpt>
      <trkpt lat="48.1856695" lon="14.7049063">
        <ele>235.199</ele>
        <time>2019-05-02T11:49:19.998Z</time>
      </trkpt>
      <trkpt lat="48.1856695" lon="14.7049063">
        <ele>235.133</ele>
        <time>2019-05-02T11:49:20.098Z</time>
      </trkpt>
      <trkpt lat="48.1855491" lon="14.7050869">
        <ele>235.077</ele>
        <time>2019-05-02T11:49:28.672Z</time>
      </trkpt>
      <trkpt lat="48.1855071" lon="14.7052217">
        <ele>235.092</ele>
        <time>2019-05-02T11:49:31.901Z</time>
      </trkpt>
      <trkpt lat="48.1855119" lon="14.7053660">
        <ele>235.224</ele>
        <time>2019-05-02T11:49:34.955Z</time>
      </trkpt>
      <trkpt lat="48.1855143" lon="14.7055188">
        <ele>235.375</ele>
        <time>2019-05-02T11:49:38.020Z</time>
      </trkpt>
      <trkpt lat="48.1854754" lon="14.7056948">
        <ele>235.451</ele>
        <time>2019-05-02T11:49:41.656Z</time>
      </trkpt>
      <trkpt lat="48.1854584" lon="14.7058537">
        <ele>235.465</ele>
        <time>2019-05-02T11:49:44.864Z</time>
      </trkpt>
      <trkpt lat="48.1854483" lon="14.7060087">
        <ele>235.454</ele>
        <time>2019-05-02T11:49:47.987Z</time>
      </trkpt>
      <trkpt lat="48.1854267" lon="14.7061828">
        <ele>235.441</ele>
        <time>2019-05-02T11:49:51.489Z</time>
      </trkpt>
      <trkpt lat="48.1854120" lon="14.7063296">
        <ele>235.435</ele>
        <time>2019-05-02T11:49:54.317Z</time>
      </trkpt>
      <trkpt lat="48.1854174" lon="14.7065035">
        <ele>235.434</ele>
        <time>2019-05-02T11:49:57.384Z</time>
      </trkpt>
      <trkpt lat="48.1853920" lon="14.7066811">
        <ele>235.435</ele>
        <time>2019-05-02T11:50:00.400Z</time>
      </trkpt>
      <trkpt lat="48.1854044" lon="14.7068781">
        <ele>235.436</ele>
        <time>2019-05-02T11:50:03.534Z</time>
      </trkpt>
      <trkpt lat="48.1854099" lon="14.7070574">
        <ele>235.437</ele>
        <time>2019-05-02T11:50:06.301Z</time>
      </trkpt>
      <trkpt lat="48.1854175" lon="14.7072601">
        <ele>235.437</ele>
        <time>2019-05-02T11:50:09.398Z</time>
      </trkpt>
      <trkpt lat="48.1854009" lon="14.7074670">
        <ele>235.437</ele>
        <time>2019-05-02T11:50:12.516Z</time>
      </trkpt>
      <trkpt lat="48.1854015" lon="14.7076829">
        <ele>235.437</ele>
        <time>2019-05-02T11:50:15.708Z</time>
      </trkpt>
      <trkpt lat="48.1854008" lon="14.7078592">
        <ele>235.436</ele>
        <time>2019-05-02T11:50:18.347Z</time>
      </trkpt>
      <trkpt lat="48.1853709" lon="14.7080462">
        <ele>235.436</ele>
        <time>2019-05-02T11:50:21.321Z</time>
      </trkpt>
      <trkpt lat="48.1853025" lon="14.7081972">
        <ele>235.436</ele>
        <time>2019-05-02T11:50:24.325Z</time>
      </trkpt>
      <trkpt lat="48.1852828" lon="14.7083350">
        <ele>235.436</ele>
        <time>2019-05-02T11:50:26.823Z</time>
      </trkpt>
      <trkpt lat="48.1853172" lon="14.7084938">
        <ele>235.436</ele>
        <time>2019-05-02T11:50:29.947Z</time>
      </trkpt>
      <trkpt lat="48.1853149" lon="14.7086594">
        <ele>235.436</ele>
        <time>2019-05-02T11:50:33.374Z</time>
      </trkpt>
      <trkpt lat="48.1853047" lon="14.7088175">
        <ele>235.436</ele>
        <time>2019-05-02T11:50:36.970Z</time>
      </trkpt>
      <trkpt lat="48.1852651" lon="14.7089640">
        <ele>235.436</ele>
        <time>2019-05-02T11:50:40.956Z</time>
      </trkpt>
      <trkpt lat="48.1852175" lon="14.7091066">
        <ele>235.436</ele>
        <time>2019-05-02T11:50:45.485Z</time>
      </trkpt>
      <trkpt lat="48.1851315" lon="14.7091828">
        <ele>235.436</ele>
        <time>2019-05-02T11:50:49.998Z</time>
      </trkpt>
      <trkpt lat="48.1851315" lon="14.7091828">
        <ele>235.399</ele>
        <time>2019-05-02T11:51:19.998Z</time>
      </trkpt>
      <trkpt lat="48.1851315" lon="14.7091828">
        <ele>235.296</ele>
        <time>2019-05-02T11:51:31.312Z</time>
      </trkpt>
      <trkpt lat="48.1848876" lon="14.7093896">
        <ele>235.188</ele>
        <time>2019-05-02T11:52:10.064Z</time>
      </trkpt>
      <trkpt lat="48.1848876" lon="14.7093896">
        <ele>235.188</ele>
        <time>2019-05-02T11:52:10.064Z</time>
      </trkpt>
      <trkpt lat="48.1848729" lon="14.7094128">
        <ele>235.563</ele>
        <time>2019-05-02T11:52:12.999Z</time>
      </trkpt>
      <trkpt lat="48.1848729" lon="14.7094128">
        <ele>235.454</ele>
        <time>2019-05-02T11:52:16.999Z</time>
      </trkpt>
      <trkpt lat="48.1848729" lon="14.7094128">
        <ele>235.394</ele>
        <time>2019-05-02T11:55:23.716Z</time>
      </trkpt>
      <trkpt lat="48.1846808" lon="14.7092594">
        <ele>235.342</ele>
        <time>2019-05-02T11:56:11.999Z</time>
      </trkpt>
      <trkpt lat="48.1846808" lon="14.7092594">
        <ele>235.286</ele>
        <time>2019-05-02T11:56:15.999Z</time>
      </trkpt>
      <trkpt lat="48.1846808" lon="14.7092594">
        <ele>235.215</ele>
        <time>2019-05-02T11:58:13.659Z</time>
      </trkpt>
      <trkpt lat="48.1848703" lon="14.7093040">
        <ele>235.134</ele>
        <time>2019-05-02T11:59:20.571Z</time>
      </trkpt>
      <trkpt lat="48.1849398" lon="14.7094031">
        <ele>235.128</ele>
        <time>2019-05-02T11:59:30.034Z</time>
      </trkpt>
      <trkpt lat="48.1850213" lon="14.7094608">
        <ele>235.240</ele>
        <time>2019-05-02T11:59:36.999Z</time>
      </trkpt>
      <trkpt lat="48.1850213" lon="14.7094608">
        <ele>235.369</ele>
        <time>2019-05-02T11:59:54.999Z</time>
      </trkpt>
      <trkpt lat="48.1850213" lon="14.7094608">
        <ele>235.380</ele>
        <time>2019-05-02T11:59:55.099Z</time>
      </trkpt>
      <trkpt lat="48.1852600" lon="14.7094562">
        <ele>235.272</ele>
        <time>2019-05-02T12:00:15.448Z</time>
      </trkpt>
      <trkpt lat="48.1853649" lon="14.7093970">
        <ele>235.168</ele>
        <time>2019-05-02T12:00:20.724Z</time>
      </trkpt>
      <trkpt lat="48.1854246" lon="14.7092411">
        <ele>235.158</ele>
        <time>2019-05-02T12:00:24.606Z</time>
      </trkpt>
      <trkpt lat="48.1854669" lon="14.7090783">
        <ele>235.200</ele>
        <time>2019-05-02T12:00:27.682Z</time>
      </trkpt>
      <trkpt lat="48.1854698" lon="14.7089134">
        <ele>235.261</ele>
        <time>2019-05-02T12:00:30.342Z</time>
      </trkpt>
      <trkpt lat="48.1854739" lon="14.7087555">
        <ele>235.345</ele>
        <time>2019-05-02T12:00:32.755Z</time>
      </trkpt>
      <trkpt lat="48.1854712" lon="14.7085831">
        <ele>235.417</ele>
        <time>2019-05-02T12:00:35.259Z</time>
      </trkpt>
      <trkpt lat="48.1854596" lon="14.7083888">
        <ele>235.448</ele>
        <time>2019-05-02T12:00:37.937Z</time>
      </trkpt>
      <trkpt lat="48.1854604" lon="14.7081717">
        <ele>235.451</ele>
        <time>2019-05-02T12:00:40.784Z</time>
      </trkpt>
      <trkpt lat="48.1854508" lon="14.7079901">
        <ele>235.444</ele>
        <time>2019-05-02T12:00:43.129Z</time>
      </trkpt>
      <trkpt lat="48.1854587" lon="14.7077965">
        <ele>235.438</ele>
        <time>2019-05-02T12:00:45.618Z</time>
      </trkpt>
      <trkpt lat="48.1854524" lon="14.7076045">
        <ele>235.436</ele>
        <time>2019-05-02T12:00:48.093Z</time>
      </trkpt>
      <trkpt lat="48.1854666" lon="14.7074155">
        <ele>235.435</ele>
        <time>2019-05-02T12:00:50.517Z</time>
      </trkpt>
      <trkpt lat="48.1854755" lon="14.7071476">
        <ele>235.436</ele>
        <time>2019-05-02T12:00:53.821Z</time>
      </trkpt>
      <trkpt lat="48.1854938" lon="14.7069241">
        <ele>235.436</ele>
        <time>2019-05-02T12:00:56.496Z</time>
      </trkpt>
      <trkpt lat="48.1854972" lon="14.7067203">
        <ele>235.437</ele>
        <time>2019-05-02T12:00:58.908Z</time>
      </trkpt>
      <trkpt lat="48.1855212" lon="14.7065491">
        <ele>235.437</ele>
        <time>2019-05-02T12:01:00.999Z</time>
      </trkpt>
      <trkpt lat="48.1855212" lon="14.7065491">
        <ele>235.437</ele>
        <time>2019-05-02T12:01:00.999Z</time>
      </trkpt>
      <trkpt lat="48.1855212" lon="14.7065491">
        <ele>235.399</ele>
        <time>2019-05-02T12:01:01.711Z</time>
      </trkpt>
      <trkpt lat="48.1855451" lon="14.7063158">
        <ele>235.301</ele>
        <time>2019-05-02T12:01:09.220Z</time>
      </trkpt>
      <trkpt lat="48.1855445" lon="14.7061598">
        <ele>235.239</ele>
        <time>2019-05-02T12:01:12.010Z</time>
      </trkpt>
      <trkpt lat="48.1855177" lon="14.7060172">
        <ele>235.289</ele>
        <time>2019-05-02T12:01:14.472Z</time>
      </trkpt>
      <trkpt lat="48.1855137" lon="14.7058344">
        <ele>235.382</ele>
        <time>2019-05-02T12:01:17.394Z</time>
      </trkpt>
      <trkpt lat="48.1855231" lon="14.7056211">
        <ele>235.437</ele>
        <time>2019-05-02T12:01:20.692Z</time>
      </trkpt>
      <trkpt lat="48.1855628" lon="14.7054249">
        <ele>235.453</ele>
        <time>2019-05-02T12:01:23.689Z</time>
      </trkpt>
      <trkpt lat="48.1856042" lon="14.7052250">
        <ele>235.448</ele>
        <time>2019-05-02T12:01:26.615Z</time>
      </trkpt>
      <trkpt lat="48.1856432" lon="14.7050358">
        <ele>235.441</ele>
        <time>2019-05-02T12:01:29.382Z</time>
      </trkpt>
      <trkpt lat="48.1856883" lon="14.7048496">
        <ele>235.436</ele>
        <time>2019-05-02T12:01:32.159Z</time>
      </trkpt>
      <trkpt lat="48.1857292" lon="14.7046173">
        <ele>235.435</ele>
        <time>2019-05-02T12:01:35.446Z</time>
      </trkpt>
      <trkpt lat="48.1857499" lon="14.7044173">
        <ele>235.436</ele>
        <time>2019-05-02T12:01:38.289Z</time>
      </trkpt>
      <trkpt lat="48.1858010" lon="14.7042466">
        <ele>235.436</ele>
        <time>2019-05-02T12:01:41.130Z</time>
      </trkpt>
      <trkpt lat="48.1858105" lon="14.7040558">
        <ele>235.437</ele>
        <time>2019-05-02T12:01:44.268Z</time>
      </trkpt>
      <trkpt lat="48.1858400" lon="14.7039085">
        <ele>235.437</ele>
        <time>2019-05-02T12:01:46.899Z</time>
      </trkpt>
      <trkpt lat="48.1858615" lon="14.7037486">
        <ele>235.437</ele>
        <time>2019-05-02T12:01:49.704Z</time>
      </trkpt>
      <trkpt lat="48.1858768" lon="14.7035765">
        <ele>235.437</ele>
        <time>2019-05-02T12:01:52.698Z</time>
      </trkpt>
      <trkpt lat="48.1858817" lon="14.7034160">
        <ele>235.436</ele>
        <time>2019-05-02T12:01:55.479Z</time>
      </trkpt>
      <trkpt lat="48.1859057" lon="14.7032291">
        <ele>235.436</ele>
        <time>2019-05-02T12:01:58.510Z</time>
      </trkpt>
      <trkpt lat="48.1859610" lon="14.7029808">
        <ele>235.436</ele>
        <time>2019-05-02T12:02:02.180Z</time>
      </trkpt>
      <trkpt lat="48.1859766" lon="14.7027854">
        <ele>235.436</ele>
        <time>2019-05-02T12:02:04.849Z</time>
      </trkpt>
      <trkpt lat="48.1859908" lon="14.7025957">
        <ele>235.436</ele>
        <time>2019-05-02T12:02:07.511Z</time>
      </trkpt>
      <trkpt lat="48.1860258" lon="14.7024104">
        <ele>235.410</ele>
        <time>2019-05-02T12:02:10.329Z</time>
      </trkpt>
      <trkpt lat="48.1860826" lon="14.7022443">
        <ele>235.269</ele>
        <time>2019-05-02T12:02:13.136Z</time>
      </trkpt>
      <trkpt lat="48.1861457" lon="14.7020691">
        <ele>234.981</ele>
        <time>2019-05-02T12:02:16.162Z</time>
      </trkpt>
      <trkpt lat="48.1862191" lon="14.7018269">
        <ele>234.671</ele>
        <time>2019-05-02T12:02:20.002Z</time>
      </trkpt>
      <trkpt lat="48.1862772" lon="14.7016079">
        <ele>234.473</ele>
        <time>2019-05-02T12:02:23.132Z</time>
      </trkpt>
      <trkpt lat="48.1863283" lon="14.7013713">
        <ele>234.401</ele>
        <time>2019-05-02T12:02:26.354Z</time>
      </trkpt>
      <trkpt lat="48.1863811" lon="14.7011739">
        <ele>234.401</ele>
        <time>2019-05-02T12:02:29.199Z</time>
      </trkpt>
      <trkpt lat="48.1864285" lon="14.7009672">
        <ele>234.421</ele>
        <time>2019-05-02T12:02:32.179Z</time>
      </trkpt>
      <trkpt lat="48.1864957" lon="14.7007477">
        <ele>234.439</ele>
        <time>2019-05-02T12:02:35.408Z</time>
      </trkpt>
      <trkpt lat="48.1865309" lon="14.7005330">
        <ele>234.476</ele>
        <time>2019-05-02T12:02:38.375Z</time>
      </trkpt>
      <trkpt lat="48.1865695" lon="14.7003298">
        <ele>234.566</ele>
        <time>2019-05-02T12:02:41.225Z</time>
      </trkpt>
      <trkpt lat="48.1866077" lon="14.7001305">
        <ele>234.713</ele>
        <time>2019-05-02T12:02:43.963Z</time>
      </trkpt>
      <trkpt lat="48.1866305" lon="14.6998944">
        <ele>234.880</ele>
        <time>2019-05-02T12:02:47.060Z</time>
      </trkpt>
      <trkpt lat="48.1866872" lon="14.6997037">
        <ele>235.019</ele>
        <time>2019-05-02T12:02:49.748Z</time>
      </trkpt>
      <trkpt lat="48.1867127" lon="14.6994683">
        <ele>235.060</ele>
        <time>2019-05-02T12:02:52.761Z</time>
      </trkpt>
      <trkpt lat="48.1867209" lon="14.6992002">
        <ele>234.958</ele>
        <time>2019-05-02T12:02:56.057Z</time>
      </trkpt>
      <trkpt lat="48.1867492" lon="14.6989896">
        <ele>234.784</ele>
        <time>2019-05-02T12:02:58.765Z</time>
      </trkpt>
      <trkpt lat="48.1867513" lon="14.6988150">
        <ele>234.656</ele>
        <time>2019-05-02T12:03:01.157Z</time>
      </trkpt>
      <trkpt lat="48.1867559" lon="14.6986266">
        <ele>234.629</ele>
        <time>2019-05-02T12:03:04.187Z</time>
      </trkpt>
      <trkpt lat="48.1867733" lon="14.6984520">
        <ele>234.717</ele>
        <time>2019-05-02T12:03:07.142Z</time>
      </trkpt>
      <trkpt lat="48.1867960" lon="14.6982794">
        <ele>234.891</ele>
        <time>2019-05-02T12:03:09.998Z</time>
      </trkpt>
      <trkpt lat="48.1867928" lon="14.6980938">
        <ele>234.962</ele>
        <time>2019-05-02T12:03:12.983Z</time>
      </trkpt>
      <trkpt lat="48.1867808" lon="14.6979554">
        <ele>234.809</ele>
        <time>2019-05-02T12:03:15.363Z</time>
      </trkpt>
      <trkpt lat="48.1867848" lon="14.6978131">
        <ele>234.575</ele>
        <time>2019-05-02T12:03:17.991Z</time>
      </trkpt>
      <trkpt lat="48.1867981" lon="14.6976594">
        <ele>234.430</ele>
        <time>2019-05-02T12:03:21.063Z</time>
      </trkpt>
      <trkpt lat="48.1867973" lon="14.6974024">
        <ele>234.341</ele>
        <time>2019-05-02T12:03:25.995Z</time>
      </trkpt>
      <trkpt lat="48.1868024" lon="14.6971355">
        <ele>234.235</ele>
        <time>2019-05-02T12:03:30.213Z</time>
      </trkpt>
      <trkpt lat="48.1868238" lon="14.6968921">
        <ele>234.134</ele>
        <time>2019-05-02T12:03:33.985Z</time>
      </trkpt>
      <trkpt lat="48.1868376" lon="14.6966940">
        <ele>234.071</ele>
        <time>2019-05-02T12:03:37.063Z</time>
      </trkpt>
      <trkpt lat="48.1868645" lon="14.6964750">
        <ele>234.024</ele>
        <time>2019-05-02T12:03:40.403Z</time>
      </trkpt>
      <trkpt lat="48.1869052" lon="14.6962507">
        <ele>234.001</ele>
        <time>2019-05-02T12:03:43.714Z</time>
      </trkpt>
      <trkpt lat="48.1868928" lon="14.6960046">
        <ele>234.015</ele>
        <time>2019-05-02T12:03:47.417Z</time>
      </trkpt>
      <trkpt lat="48.1868703" lon="14.6958356">
        <ele>234.039</ele>
        <time>2019-05-02T12:03:50.310Z</time>
      </trkpt>
      <trkpt lat="48.1868875" lon="14.6956620">
        <ele>234.051</ele>
        <time>2019-05-02T12:03:53.127Z</time>
      </trkpt>
      <trkpt lat="48.1869221" lon="14.6954617">
        <ele>234.088</ele>
        <time>2019-05-02T12:03:56.273Z</time>
      </trkpt>
      <trkpt lat="48.1869763" lon="14.6952784">
        <ele>234.181</ele>
        <time>2019-05-02T12:03:59.504Z</time>
      </trkpt>
      <trkpt lat="48.1870266" lon="14.6951278">
        <ele>234.228</ele>
        <time>2019-05-02T12:04:02.288Z</time>
      </trkpt>
      <trkpt lat="48.1870907" lon="14.6949995">
        <ele>234.120</ele>
        <time>2019-05-02T12:04:04.895Z</time>
      </trkpt>
      <trkpt lat="48.1871546" lon="14.6948834">
        <ele>233.926</ele>
        <time>2019-05-02T12:04:07.315Z</time>
      </trkpt>
      <trkpt lat="48.1872351" lon="14.6947822">
        <ele>233.818</ele>
        <time>2019-05-02T12:04:09.756Z</time>
      </trkpt>
      <trkpt lat="48.1873429" lon="14.6946735">
        <ele>233.888</ele>
        <time>2019-05-02T12:04:12.738Z</time>
      </trkpt>
      <trkpt lat="48.1874386" lon="14.6945985">
        <ele>234.083</ele>
        <time>2019-05-02T12:04:15.217Z</time>
      </trkpt>
      <trkpt lat="48.1875654" lon="14.6944982">
        <ele>234.278</ele>
        <time>2019-05-02T12:04:18.530Z</time>
      </trkpt>
      <trkpt lat="48.1876739" lon="14.6944335">
        <ele>234.396</ele>
        <time>2019-05-02T12:04:21.301Z</time>
      </trkpt>
      <trkpt lat="48.1877739" lon="14.6943695">
        <ele>234.483</ele>
        <time>2019-05-02T12:04:24.010Z</time>
      </trkpt>
      <trkpt lat="48.1878561" lon="14.6943035">
        <ele>234.641</ele>
        <time>2019-05-02T12:04:26.569Z</time>
      </trkpt>
      <trkpt lat="48.1879578" lon="14.6943291">
        <ele>234.897</ele>
        <time>2019-05-02T12:04:29.998Z</time>
      </trkpt>
      <trkpt lat="48.1879578" lon="14.6943291">
        <ele>235.156</ele>
        <time>2019-05-02T12:04:33.998Z</time>
      </trkpt>
      <trkpt lat="48.1879578" lon="14.6943291">
        <ele>235.255</ele>
        <time>2019-05-02T12:04:34.098Z</time>
      </trkpt>
      <trkpt lat="48.1877997" lon="14.6942373">
        <ele>235.145</ele>
        <time>2019-05-02T12:05:22.998Z</time>
      </trkpt>
      <trkpt lat="48.1877997" lon="14.6942373">
        <ele>234.976</ele>
        <time>2019-05-02T12:05:26.998Z</time>
      </trkpt>
      <trkpt lat="48.1877997" lon="14.6942373">
        <ele>234.878</ele>
        <time>2019-05-02T12:06:01.221Z</time>
      </trkpt>
      <trkpt lat="48.1880059" lon="14.6941838">
        <ele>234.771</ele>
        <time>2019-05-02T12:06:12.348Z</time>
      </trkpt>
      <trkpt lat="48.1881475" lon="14.6941251">
        <ele>227.459</ele>
        <time>2019-05-02T12:06:16.126Z</time>
      </trkpt>
      <trkpt lat="48.1882931" lon="14.6940914">
        <ele>208.524</ele>
        <time>2019-05-02T12:06:19.351Z</time>
      </trkpt>
      <trkpt lat="48.1883917" lon="14.6940646">
        <ele>189.372</ele>
        <time>2019-05-02T12:06:21.434Z</time>
      </trkpt>
      <trkpt lat="48.1885227" lon="14.6940237">
        <ele>187.247</ele>
        <time>2019-05-02T12:06:24.107Z</time>
      </trkpt>
      <trkpt lat="48.1886727" lon="14.6939635">
        <ele>203.915</ele>
        <time>2019-05-02T12:06:27.126Z</time>
      </trkpt>
      <trkpt lat="48.1888308" lon="14.6939022">
        <ele>224.744</ele>
        <time>2019-05-02T12:06:30.306Z</time>
      </trkpt>
      <trkpt lat="48.1889650" lon="14.6938327">
        <ele>236.358</ele>
        <time>2019-05-02T12:06:33.138Z</time>
      </trkpt>
      <trkpt lat="48.1890958" lon="14.6937639">
        <ele>238.000</ele>
        <time>2019-05-02T12:06:35.939Z</time>
      </trkpt>
      <trkpt lat="48.1892260" lon="14.6936944">
        <ele>236.406</ele>
        <time>2019-05-02T12:06:38.737Z</time>
      </trkpt>
      <trkpt lat="48.1893748" lon="14.6936269">
        <ele>235.601</ele>
        <time>2019-05-02T12:06:41.898Z</time>
      </trkpt>
      <trkpt lat="48.1895143" lon="14.6935625">
        <ele>235.489</ele>
        <time>2019-05-02T12:06:44.859Z</time>
      </trkpt>
      <trkpt lat="48.1896553" lon="14.6934999">
        <ele>235.891</ele>
        <time>2019-05-02T12:06:47.783Z</time>
      </trkpt>
      <trkpt lat="48.1897854" lon="14.6934342">
        <ele>236.037</ele>
        <time>2019-05-02T12:06:50.455Z</time>
      </trkpt>
      <trkpt lat="48.1899195" lon="14.6933293">
        <ele>236.070</ele>
        <time>2019-05-02T12:06:53.370Z</time>
      </trkpt>
      <trkpt lat="48.1900525" lon="14.6932195">
        <ele>236.031</ele>
        <time>2019-05-02T12:06:56.314Z</time>
      </trkpt>
      <trkpt lat="48.1901744" lon="14.6931158">
        <ele>235.938</ele>
        <time>2019-05-02T12:06:59.092Z</time>
      </trkpt>
      <trkpt lat="48.1902977" lon="14.6930187">
        <ele>235.860</ele>
        <time>2019-05-02T12:07:01.943Z</time>
      </trkpt>
      <trkpt lat="48.1903907" lon="14.6928948">
        <ele>235.753</ele>
        <time>2019-05-02T12:07:04.547Z</time>
      </trkpt>
      <trkpt lat="48.1905156" lon="14.6927629">
        <ele>235.618</ele>
        <time>2019-05-02T12:07:07.835Z</time>
      </trkpt>
      <trkpt lat="48.1906160" lon="14.6926678">
        <ele>235.411</ele>
        <time>2019-05-02T12:07:10.523Z</time>
      </trkpt>
      <trkpt lat="48.1906969" lon="14.6925720">
        <ele>235.413</ele>
        <time>2019-05-02T12:07:12.929Z</time>
      </trkpt>
      <trkpt lat="48.1908140" lon="14.6924721">
        <ele>235.551</ele>
        <time>2019-05-02T12:07:15.994Z</time>
      </trkpt>
      <trkpt lat="48.1909247" lon="14.6923633">
        <ele>235.900</ele>
        <time>2019-05-02T12:07:19.044Z</time>
      </trkpt>
      <trkpt lat="48.1910021" lon="14.6922507">
        <ele>236.437</ele>
        <time>2019-05-02T12:07:21.696Z</time>
      </trkpt>
      <trkpt lat="48.1910832" lon="14.6921389">
        <ele>237.032</ele>
        <time>2019-05-02T12:07:24.481Z</time>
      </trkpt>
      <trkpt lat="48.1911940" lon="14.6920488">
        <ele>237.552</ele>
        <time>2019-05-02T12:07:27.683Z</time>
      </trkpt>
      <trkpt lat="48.1912779" lon="14.6919505">
        <ele>237.945</ele>
        <time>2019-05-02T12:07:30.431Z</time>
      </trkpt>
      <trkpt lat="48.1913743" lon="14.6918557">
        <ele>238.214</ele>
        <time>2019-05-02T12:07:33.395Z</time>
      </trkpt>
      <trkpt lat="48.1914875" lon="14.6917670">
        <ele>238.365</ele>
        <time>2019-05-02T12:07:36.635Z</time>
      </trkpt>
      <trkpt lat="48.1915782" lon="14.6917370">
        <ele>238.420</ele>
        <time>2019-05-02T12:07:38.994Z</time>
      </trkpt>
      <trkpt lat="48.1916940" lon="14.6916599">
        <ele>238.423</ele>
        <time>2019-05-02T12:07:42.167Z</time>
      </trkpt>
      <trkpt lat="48.1918205" lon="14.6915902">
        <ele>238.410</ele>
        <time>2019-05-02T12:07:45.343Z</time>
      </trkpt>
      <trkpt lat="48.1919585" lon="14.6915215">
        <ele>238.405</ele>
        <time>2019-05-02T12:07:48.551Z</time>
      </trkpt>
      <trkpt lat="48.1920749" lon="14.6914691">
        <ele>238.439</ele>
        <time>2019-05-02T12:07:51.199Z</time>
      </trkpt>
      <trkpt lat="48.1921969" lon="14.6914084">
        <ele>238.561</ele>
        <time>2019-05-02T12:07:54.039Z</time>
      </trkpt>
      <trkpt lat="48.1923077" lon="14.6913583">
        <ele>238.773</ele>
        <time>2019-05-02T12:07:56.619Z</time>
      </trkpt>
      <trkpt lat="48.1924191" lon="14.6912952">
        <ele>239.018</ele>
        <time>2019-05-02T12:07:59.279Z</time>
      </trkpt>
      <trkpt lat="48.1925552" lon="14.6912468">
        <ele>239.238</ele>
        <time>2019-05-02T12:08:02.403Z</time>
      </trkpt>
      <trkpt lat="48.1926885" lon="14.6911928">
        <ele>239.394</ele>
        <time>2019-05-02T12:08:05.427Z</time>
      </trkpt>
      <trkpt lat="48.1928368" lon="14.6911228">
        <ele>239.460</ele>
        <time>2019-05-02T12:08:08.715Z</time>
      </trkpt>
      <trkpt lat="48.1929645" lon="14.6910545">
        <ele>239.455</ele>
        <time>2019-05-02T12:08:11.581Z</time>
      </trkpt>
      <trkpt lat="48.1930623" lon="14.6910225">
        <ele>239.425</ele>
        <time>2019-05-02T12:08:13.759Z</time>
      </trkpt>
      <trkpt lat="48.1931679" lon="14.6909686">
        <ele>239.402</ele>
        <time>2019-05-02T12:08:16.285Z</time>
      </trkpt>
      <trkpt lat="48.1932716" lon="14.6909098">
        <ele>239.382</ele>
        <time>2019-05-02T12:08:18.926Z</time>
      </trkpt>
      <trkpt lat="48.1933743" lon="14.6908428">
        <ele>239.343</ele>
        <time>2019-05-02T12:08:21.749Z</time>
      </trkpt>
      <trkpt lat="48.1934762" lon="14.6908096">
        <ele>239.291</ele>
        <time>2019-05-02T12:08:24.521Z</time>
      </trkpt>
      <trkpt lat="48.1935857" lon="14.6907677">
        <ele>239.269</ele>
        <time>2019-05-02T12:08:27.650Z</time>
      </trkpt>
      <trkpt lat="48.1937007" lon="14.6907316">
        <ele>239.299</ele>
        <time>2019-05-02T12:08:31.062Z</time>
      </trkpt>
      <trkpt lat="48.1937987" lon="14.6906633">
        <ele>239.351</ele>
        <time>2019-05-02T12:08:34.266Z</time>
      </trkpt>
      <trkpt lat="48.1938951" lon="14.6906011">
        <ele>239.389</ele>
        <time>2019-05-02T12:08:37.342Z</time>
      </trkpt>
      <trkpt lat="48.1939624" lon="14.6905058">
        <ele>239.404</ele>
        <time>2019-05-02T12:08:40.040Z</time>
      </trkpt>
      <trkpt lat="48.1940320" lon="14.6904106">
        <ele>239.404</ele>
        <time>2019-05-02T12:08:42.833Z</time>
      </trkpt>
      <trkpt lat="48.1941423" lon="14.6903403">
        <ele>239.400</ele>
        <time>2019-05-02T12:08:46.424Z</time>
      </trkpt>
      <trkpt lat="48.1942566" lon="14.6902696">
        <ele>239.397</ele>
        <time>2019-05-02T12:08:49.998Z</time>
      </trkpt>
      <trkpt lat="48.1942566" lon="14.6902696">
        <ele>239.395</ele>
        <time>2019-05-02T12:08:50.998Z</time>
      </trkpt>
      <trkpt lat="48.1942566" lon="14.6902696">
        <ele>239.355</ele>
        <time>2019-05-02T12:08:51.098Z</time>
      </trkpt>
      <trkpt lat="48.1944101" lon="14.6901599">
        <ele>239.256</ele>
        <time>2019-05-02T12:08:59.054Z</time>
      </trkpt>
      <trkpt lat="48.1944985" lon="14.6901201">
        <ele>239.190</ele>
        <time>2019-05-02T12:09:02.263Z</time>
      </trkpt>
      <trkpt lat="48.1945968" lon="14.6900814">
        <ele>239.230</ele>
        <time>2019-05-02T12:09:06.342Z</time>
      </trkpt>
      <trkpt lat="48.1946040" lon="14.6899408">
        <ele>239.308</ele>
        <time>2019-05-02T12:09:12.585Z</time>
      </trkpt>
      <trkpt lat="48.1945136" lon="14.6899421">
        <ele>239.348</ele>
        <time>2019-05-02T12:09:18.998Z</time>
      </trkpt>
      <trkpt lat="48.1945136" lon="14.6899421">
        <ele>239.352</ele>
        <time>2019-05-02T12:09:24.998Z</time>
      </trkpt>
      <trkpt lat="48.1945136" lon="14.6899421">
        <ele>239.308</ele>
        <time>2019-05-02T12:09:25.098Z</time>
      </trkpt>
      <trkpt lat="48.1947022" lon="14.6899362">
        <ele>239.208</ele>
        <time>2019-05-02T12:09:34.722Z</time>
      </trkpt>
      <trkpt lat="48.1948050" lon="14.6898534">
        <ele>239.148</ele>
        <time>2019-05-02T12:09:38.822Z</time>
      </trkpt>
      <trkpt lat="48.1949061" lon="14.6897748">
        <ele>239.204</ele>
        <time>2019-05-02T12:09:42.572Z</time>
      </trkpt>
      <trkpt lat="48.1950017" lon="14.6897281">
        <ele>239.292</ele>
        <time>2019-05-02T12:09:45.689Z</time>
      </trkpt>
      <trkpt lat="48.1951075" lon="14.6896415">
        <ele>239.320</ele>
        <time>2019-05-02T12:09:50.295Z</time>
      </trkpt>
      <trkpt lat="48.1951963" lon="14.6895627">
        <ele>239.299</ele>
        <time>2019-05-02T12:09:54.334Z</time>
      </trkpt>
      <trkpt lat="48.1952213" lon="14.6894028">
        <ele>239.271</ele>
        <time>2019-05-02T12:09:58.776Z</time>
      </trkpt>
      <trkpt lat="48.1952430" lon="14.6892677">
        <ele>239.259</ele>
        <time>2019-05-02T12:10:01.949Z</time>
      </trkpt>
      <trkpt lat="48.1952573" lon="14.6891093">
        <ele>239.280</ele>
        <time>2019-05-02T12:10:05.514Z</time>
      </trkpt>
      <trkpt lat="48.1952569" lon="14.6889689">
        <ele>239.330</ele>
        <time>2019-05-02T12:10:08.683Z</time>
      </trkpt>
      <trkpt lat="48.1952853" lon="14.6888380">
        <ele>239.377</ele>
        <time>2019-05-02T12:10:11.347Z</time>
      </trkpt>
      <trkpt lat="48.1953142" lon="14.6886485">
        <ele>239.401</ele>
        <time>2019-05-02T12:10:14.284Z</time>
      </trkpt>
      <trkpt lat="48.1953619" lon="14.6884460">
        <ele>239.396</ele>
        <time>2019-05-02T12:10:17.034Z</time>
      </trkpt>
      <trkpt lat="48.1953975" lon="14.6882338">
        <ele>239.313</ele>
        <time>2019-05-02T12:10:19.576Z</time>
      </trkpt>
      <trkpt lat="48.1954299" lon="14.6879845">
        <ele>235.708</ele>
        <time>2019-05-02T12:10:22.334Z</time>
      </trkpt>
      <trkpt lat="48.1954874" lon="14.6876985">
        <ele>224.869</ele>
        <time>2019-05-02T12:10:25.378Z</time>
      </trkpt>
      <trkpt lat="48.1955410" lon="14.6874264">
        <ele>211.087</ele>
        <time>2019-05-02T12:10:28.180Z</time>
      </trkpt>
      <trkpt lat="48.1955898" lon="14.6871618">
        <ele>207.243</ele>
        <time>2019-05-02T12:10:30.982Z</time>
      </trkpt>
      <trkpt lat="48.1956421" lon="14.6869830">
        <ele>217.866</ele>
        <time>2019-05-02T12:10:33.111Z</time>
      </trkpt>
      <trkpt lat="48.1956610" lon="14.6868207">
        <ele>232.123</ele>
        <time>2019-05-02T12:10:34.998Z</time>
      </trkpt>
      <trkpt lat="48.1956610" lon="14.6868207">
        <ele>239.762</ele>
        <time>2019-05-02T12:10:36.998Z</time>
      </trkpt>
      <trkpt lat="48.1956610" lon="14.6868207">
        <ele>241.344</ele>
        <time>2019-05-02T12:11:08.660Z</time>
      </trkpt>
      <trkpt lat="48.1954484" lon="14.6866928">
        <ele>240.337</ele>
        <time>2019-05-02T12:11:32.998Z</time>
      </trkpt>
      <trkpt lat="48.1954484" lon="14.6866928">
        <ele>239.286</ele>
        <time>2019-05-02T12:11:41.998Z</time>
      </trkpt>
      <trkpt lat="48.1954484" lon="14.6866928">
        <ele>238.930</ele>
        <time>2019-05-02T12:11:42.098Z</time>
      </trkpt>
      <trkpt lat="48.1956173" lon="14.6865794">
        <ele>238.937</ele>
        <time>2019-05-02T12:20:16.000Z</time>
      </trkpt>
      <trkpt lat="48.1956173" lon="14.6865794">
        <ele>238.930</ele>
        <time>2019-05-02T12:20:19.000Z</time>
      </trkpt>
      <trkpt lat="48.1956173" lon="14.6865794">
        <ele>238.833</ele>
        <time>2019-05-02T12:38:19.133Z</time>
      </trkpt>
      <trkpt lat="48.1954293" lon="14.6865917">
        <ele>238.711</ele>
        <time>2019-05-02T12:38:57.404Z</time>
      </trkpt>
      <trkpt lat="48.1953773" lon="14.6867023">
        <ele>231.456</ele>
        <time>2019-05-02T12:39:06.000Z</time>
      </trkpt>
      <trkpt lat="48.1953773" lon="14.6867023">
        <ele>212.715</ele>
        <time>2019-05-02T12:39:19.000Z</time>
      </trkpt>
      <trkpt lat="48.1953773" lon="14.6867023">
        <ele>197.066</ele>
        <time>2019-05-02T13:38:05.999Z</time>
      </trkpt>
      <trkpt lat="48.1955100" lon="14.6866189">
        <ele>197.249</ele>
        <time>2019-05-02T13:38:47.999Z</time>
      </trkpt>
      <trkpt lat="48.1955100" lon="14.6866189">
        <ele>203.276</ele>
        <time>2019-05-02T13:38:50.999Z</time>
      </trkpt>
      <trkpt lat="48.1955100" lon="14.6866189">
        <ele>203.797</ele>
        <time>2019-05-02T13:45:05.093Z</time>
      </trkpt>
      <trkpt lat="48.1955100" lon="14.6866189">
        <ele>200.584</ele>
        <time>2019-05-02T13:45:29.000Z</time>
      </trkpt>
      <trkpt lat="48.1955100" lon="14.6866189">
        <ele>201.437</ele>
        <time>2019-05-02T13:45:29.100Z</time>
      </trkpt>
      <trkpt lat="48.1956986" lon="14.6867938">
        <ele>201.704</ele>
        <time>2019-05-02T13:50:30.999Z</time>
      </trkpt>
      <trkpt lat="48.1956986" lon="14.6867938">
        <ele>201.445</ele>
        <time>2019-05-02T13:50:33.999Z</time>
      </trkpt>
      <trkpt lat="48.1956986" lon="14.6867938">
        <ele>201.311</ele>
        <time>2019-05-02T13:59:29.368Z</time>
      </trkpt>
      <trkpt lat="48.1959092" lon="14.6866016">
        <ele>201.359</ele>
        <time>2019-05-02T14:00:08.398Z</time>
      </trkpt>
      <trkpt lat="48.1959092" lon="14.6866016">
        <ele>201.359</ele>
        <time>2019-05-02T14:00:08.398Z</time>
      </trkpt>
      <trkpt lat="48.1959426" lon="14.6865256">
        <ele>238.527</ele>
        <time>2019-05-02T14:00:18.000Z</time>
      </trkpt>
      <trkpt lat="48.1957137" lon="14.6871178">
        <ele>238.417</ele>
        <time>2019-05-02T14:01:37.936Z</time>
      </trkpt>
      <trkpt lat="48.1956834" lon="14.6872568">
        <ele>229.878</ele>
        <time>2019-05-02T14:01:55.013Z</time>
      </trkpt>
      <trkpt lat="48.1956479" lon="14.6873992">
        <ele>207.746</ele>
        <time>2019-05-02T14:02:12.766Z</time>
      </trkpt>
      <trkpt lat="48.1956227" lon="14.6875449">
        <ele>185.307</ele>
        <time>2019-05-02T14:02:30.346Z</time>
      </trkpt>
      <trkpt lat="48.1955830" lon="14.6876914">
        <ele>175.558</ele>
        <time>2019-05-02T14:02:48.807Z</time>
      </trkpt>
      <trkpt lat="48.1955312" lon="14.6878529">
        <ele>175.919</ele>
        <time>2019-05-02T14:03:09.724Z</time>
      </trkpt>
      <trkpt lat="48.1954962" lon="14.6879825">
        <ele>180.484</ele>
        <time>2019-05-02T14:03:26.045Z</time>
      </trkpt>
      <trkpt lat="48.1954557" lon="14.6881154">
        <ele>185.377</ele>
        <time>2019-05-02T14:03:43.106Z</time>
      </trkpt>
      <trkpt lat="48.1954410" lon="14.6882738">
        <ele>189.388</ele>
        <time>2019-05-02T14:04:01.772Z</time>
      </trkpt>
      <trkpt lat="48.1954345" lon="14.6884294">
        <ele>192.837</ele>
        <time>2019-05-02T14:04:19.966Z</time>
      </trkpt>
      <trkpt lat="48.1954029" lon="14.6885776">
        <ele>196.218</ele>
        <time>2019-05-02T14:04:38.128Z</time>
      </trkpt>
      <trkpt lat="48.1953738" lon="14.6887126">
        <ele>204.422</ele>
        <time>2019-05-02T14:04:54.701Z</time>
      </trkpt>
      <trkpt lat="48.1953629" lon="14.6888485">
        <ele>219.833</ele>
        <time>2019-05-02T14:05:10.675Z</time>
      </trkpt>
      <trkpt lat="48.1953516" lon="14.6890001">
        <ele>234.386</ele>
        <time>2019-05-02T14:05:28.476Z</time>
      </trkpt>
      <trkpt lat="48.1953236" lon="14.6891712">
        <ele>241.003</ele>
        <time>2019-05-02T14:05:49.046Z</time>
      </trkpt>
      <trkpt lat="48.1953041" lon="14.6893474">
        <ele>241.876</ele>
        <time>2019-05-02T14:06:09.900Z</time>
      </trkpt>
      <trkpt lat="48.1952849" lon="14.6895168">
        <ele>240.691</ele>
        <time>2019-05-02T14:06:21.485Z</time>
      </trkpt>
      <trkpt lat="48.1952048" lon="14.6895794">
        <ele>239.582</ele>
        <time>2019-05-02T14:06:27.877Z</time>
      </trkpt>
      <trkpt lat="48.1950938" lon="14.6896266">
        <ele>239.068</ele>
        <time>2019-05-02T14:06:35.392Z</time>
      </trkpt>
      <trkpt lat="48.1950041" lon="14.6896496">
        <ele>238.954</ele>
        <time>2019-05-02T14:06:40.455Z</time>
      </trkpt>
      <trkpt lat="48.1948969" lon="14.6896624">
        <ele>239.012</ele>
        <time>2019-05-02T14:06:45.550Z</time>
      </trkpt>
      <trkpt lat="48.1947916" lon="14.6896818">
        <ele>239.147</ele>
        <time>2019-05-02T14:06:50.106Z</time>
      </trkpt>
      <trkpt lat="48.1947005" lon="14.6897085">
        <ele>239.290</ele>
        <time>2019-05-02T14:06:54.208Z</time>
      </trkpt>
      <trkpt lat="48.1946202" lon="14.6898306">
        <ele>239.383</ele>
        <time>2019-05-02T14:06:59.527Z</time>
      </trkpt>
      <trkpt lat="48.1945707" lon="14.6899443">
        <ele>239.417</ele>
        <time>2019-05-02T14:07:03.815Z</time>
      </trkpt>
      <trkpt lat="48.1944622" lon="14.6900267">
        <ele>239.416</ele>
        <time>2019-05-02T14:07:10.051Z</time>
      </trkpt>
      <trkpt lat="48.1943339" lon="14.6901412">
        <ele>239.405</ele>
        <time>2019-05-02T14:07:19.707Z</time>
      </trkpt>
      <trkpt lat="48.1942296" lon="14.6902446">
        <ele>239.398</ele>
        <time>2019-05-02T14:07:28.247Z</time>
      </trkpt>
      <trkpt lat="48.1941102" lon="14.6902912">
        <ele>239.395</ele>
        <time>2019-05-02T14:07:35.747Z</time>
      </trkpt>
      <trkpt lat="48.1940181" lon="14.6903344">
        <ele>239.395</ele>
        <time>2019-05-02T14:07:41.735Z</time>
      </trkpt>
      <trkpt lat="48.1939239" lon="14.6903746">
        <ele>239.396</ele>
        <time>2019-05-02T14:07:47.963Z</time>
      </trkpt>
      <trkpt lat="48.1938251" lon="14.6904457">
        <ele>239.397</ele>
        <time>2019-05-02T14:07:53.422Z</time>
      </trkpt>
      <trkpt lat="48.1937143" lon="14.6905124">
        <ele>239.397</ele>
        <time>2019-05-02T14:07:58.537Z</time>
      </trkpt>
      <trkpt lat="48.1936280" lon="14.6905662">
        <ele>239.397</ele>
        <time>2019-05-02T14:08:02.531Z</time>
      </trkpt>
      <trkpt lat="48.1935228" lon="14.6906383">
        <ele>239.397</ele>
        <time>2019-05-02T14:08:07.730Z</time>
      </trkpt>
      <trkpt lat="48.1934301" lon="14.6906823">
        <ele>239.397</ele>
        <time>2019-05-02T14:08:12.209Z</time>
      </trkpt>
      <trkpt lat="48.1933115" lon="14.6907197">
        <ele>239.397</ele>
        <time>2019-05-02T14:08:17.742Z</time>
      </trkpt>
      <trkpt lat="48.1931834" lon="14.6907621">
        <ele>239.397</ele>
        <time>2019-05-02T14:08:24.109Z</time>
      </trkpt>
      <trkpt lat="48.1930853" lon="14.6908111">
        <ele>239.407</ele>
        <time>2019-05-02T14:08:29.309Z</time>
      </trkpt>
      <trkpt lat="48.1929796" lon="14.6908940">
        <ele>239.433</ele>
        <time>2019-05-02T14:08:34.998Z</time>
      </trkpt>
      <trkpt lat="48.1929796" lon="14.6908940">
        <ele>239.453</ele>
        <time>2019-05-02T14:08:36.998Z</time>
      </trkpt>
      <trkpt lat="48.1929796" lon="14.6908940">
        <ele>239.416</ele>
        <time>2019-05-02T14:08:37.098Z</time>
      </trkpt>
      <trkpt lat="48.1927539" lon="14.6909866">
        <ele>239.312</ele>
        <time>2019-05-02T14:08:45.899Z</time>
      </trkpt>
      <trkpt lat="48.1926598" lon="14.6910473">
        <ele>239.211</ele>
        <time>2019-05-02T14:08:48.421Z</time>
      </trkpt>
      <trkpt lat="48.1925226" lon="14.6910800">
        <ele>239.193</ele>
        <time>2019-05-02T14:08:51.735Z</time>
      </trkpt>
      <trkpt lat="48.1924091" lon="14.6911418">
        <ele>239.261</ele>
        <time>2019-05-02T14:08:54.877Z</time>
      </trkpt>
      <trkpt lat="48.1923092" lon="14.6911971">
        <ele>239.359</ele>
        <time>2019-05-02T14:08:57.838Z</time>
      </trkpt>
      <trkpt lat="48.1922019" lon="14.6912498">
        <ele>239.466</ele>
        <time>2019-05-02T14:09:01.047Z</time>
      </trkpt>
      <trkpt lat="48.1920926" lon="14.6913017">
        <ele>239.587</ele>
        <time>2019-05-02T14:09:04.151Z</time>
      </trkpt>
      <trkpt lat="48.1920076" lon="14.6913517">
        <ele>239.677</ele>
        <time>2019-05-02T14:09:06.550Z</time>
      </trkpt>
      <trkpt lat="48.1918874" lon="14.6914058">
        <ele>239.676</ele>
        <time>2019-05-02T14:09:09.841Z</time>
      </trkpt>
      <trkpt lat="48.1917813" lon="14.6914660">
        <ele>239.576</ele>
        <time>2019-05-02T14:09:12.776Z</time>
      </trkpt>
      <trkpt lat="48.1916784" lon="14.6915299">
        <ele>239.405</ele>
        <time>2019-05-02T14:09:15.624Z</time>
      </trkpt>
      <trkpt lat="48.1915522" lon="14.6916017">
        <ele>239.164</ele>
        <time>2019-05-02T14:09:19.208Z</time>
      </trkpt>
      <trkpt lat="48.1914594" lon="14.6916443">
        <ele>238.865</ele>
        <time>2019-05-02T14:09:21.777Z</time>
      </trkpt>
      <trkpt lat="48.1913730" lon="14.6917304">
        <ele>238.593</ele>
        <time>2019-05-02T14:09:24.389Z</time>
      </trkpt>
      <trkpt lat="48.1912914" lon="14.6918131">
        <ele>238.428</ele>
        <time>2019-05-02T14:09:26.765Z</time>
      </trkpt>
      <trkpt lat="48.1911835" lon="14.6919002">
        <ele>238.369</ele>
        <time>2019-05-02T14:09:29.539Z</time>
      </trkpt>
      <trkpt lat="48.1910573" lon="14.6919941">
        <ele>238.369</ele>
        <time>2019-05-02T14:09:32.518Z</time>
      </trkpt>
      <trkpt lat="48.1909332" lon="14.6920906">
        <ele>238.382</ele>
        <time>2019-05-02T14:09:35.407Z</time>
      </trkpt>
      <trkpt lat="48.1908069" lon="14.6921887">
        <ele>238.348</ele>
        <time>2019-05-02T14:09:38.479Z</time>
      </trkpt>
      <trkpt lat="48.1907055" lon="14.6922760">
        <ele>238.192</ele>
        <time>2019-05-02T14:09:41.171Z</time>
      </trkpt>
      <trkpt lat="48.1905917" lon="14.6923541">
        <ele>237.887</ele>
        <time>2019-05-02T14:09:44.101Z</time>
      </trkpt>
      <trkpt lat="48.1904703" lon="14.6924248">
        <ele>237.488</ele>
        <time>2019-05-02T14:09:47.090Z</time>
      </trkpt>
      <trkpt lat="48.1903356" lon="14.6924750">
        <ele>237.061</ele>
        <time>2019-05-02T14:09:50.308Z</time>
      </trkpt>
      <trkpt lat="48.1902403" lon="14.6925229">
        <ele>236.632</ele>
        <time>2019-05-02T14:09:52.792Z</time>
      </trkpt>
      <trkpt lat="48.1901360" lon="14.6925752">
        <ele>236.200</ele>
        <time>2019-05-02T14:09:55.656Z</time>
      </trkpt>
      <trkpt lat="48.1900318" lon="14.6926059">
        <ele>235.796</ele>
        <time>2019-05-02T14:09:58.592Z</time>
      </trkpt>
      <trkpt lat="48.1899293" lon="14.6926735">
        <ele>235.480</ele>
        <time>2019-05-02T14:10:01.915Z</time>
      </trkpt>
      <trkpt lat="48.1898406" lon="14.6928532">
        <ele>235.255</ele>
        <time>2019-05-02T14:10:06.697Z</time>
      </trkpt>
      <trkpt lat="48.1897714" lon="14.6929951">
        <ele>235.049</ele>
        <time>2019-05-02T14:10:10.720Z</time>
      </trkpt>
      <trkpt lat="48.1896719" lon="14.6930768">
        <ele>234.827</ele>
        <time>2019-05-02T14:10:14.690Z</time>
      </trkpt>
      <trkpt lat="48.1895721" lon="14.6931537">
        <ele>234.647</ele>
        <time>2019-05-02T14:10:18.283Z</time>
      </trkpt>
      <trkpt lat="48.1894562" lon="14.6931995">
        <ele>234.596</ele>
        <time>2019-05-02T14:10:21.826Z</time>
      </trkpt>
      <trkpt lat="48.1893134" lon="14.6932458">
        <ele>234.713</ele>
        <time>2019-05-02T14:10:26.325Z</time>
      </trkpt>
      <trkpt lat="48.1892277" lon="14.6933023">
        <ele>234.954</ele>
        <time>2019-05-02T14:10:30.672Z</time>
      </trkpt>
      <trkpt lat="48.1891352" lon="14.6933963">
        <ele>235.203</ele>
        <time>2019-05-02T14:10:37.317Z</time>
      </trkpt>
      <trkpt lat="48.1890483" lon="14.6934670">
        <ele>235.365</ele>
        <time>2019-05-02T14:10:51.206Z</time>
      </trkpt>
      <trkpt lat="48.1890944" lon="14.6935932">
        <ele>235.427</ele>
        <time>2019-05-02T14:11:05.694Z</time>
      </trkpt>
      <trkpt lat="48.1891589" lon="14.6934915">
        <ele>235.430</ele>
        <time>2019-05-02T14:11:19.815Z</time>
      </trkpt>
      <trkpt lat="48.1891868" lon="14.6936203">
        <ele>235.416</ele>
        <time>2019-05-02T14:11:33.449Z</time>
      </trkpt>
      <trkpt lat="48.1890867" lon="14.6936654">
        <ele>226.788</ele>
        <time>2019-05-02T14:11:49.329Z</time>
      </trkpt>
      <trkpt lat="48.1889862" lon="14.6936739">
        <ele>204.341</ele>
        <time>2019-05-02T14:12:11.442Z</time>
      </trkpt>
      <trkpt lat="48.1888759" lon="14.6937041">
        <ele>181.436</ele>
        <time>2019-05-02T14:12:32.973Z</time>
      </trkpt>
      <trkpt lat="48.1887517" lon="14.6937491">
        <ele>170.924</ele>
        <time>2019-05-02T14:12:42.805Z</time>
      </trkpt>
      <trkpt lat="48.1886395" lon="14.6937971">
        <ele>169.814</ele>
        <time>2019-05-02T14:12:47.556Z</time>
      </trkpt>
      <trkpt lat="48.1885197" lon="14.6938394">
        <ele>172.080</ele>
        <time>2019-05-02T14:12:51.779Z</time>
      </trkpt>
      <trkpt lat="48.1884222" lon="14.6938919">
        <ele>174.252</ele>
        <time>2019-05-02T14:12:54.942Z</time>
      </trkpt>
      <trkpt lat="48.1883099" lon="14.6939478">
        <ele>175.643</ele>
        <time>2019-05-02T14:12:58.341Z</time>
      </trkpt>
      <trkpt lat="48.1881984" lon="14.6940245">
        <ele>176.810</ele>
        <time>2019-05-02T14:13:01.772Z</time>
      </trkpt>
      <trkpt lat="48.1880734" lon="14.6940865">
        <ele>178.398</ele>
        <time>2019-05-02T14:13:05.361Z</time>
      </trkpt>
      <trkpt lat="48.1879847" lon="14.6941664">
        <ele>180.658</ele>
        <time>2019-05-02T14:13:08.145Z</time>
      </trkpt>
      <trkpt lat="48.1878958" lon="14.6942711">
        <ele>190.043</ele>
        <time>2019-05-02T14:13:11.265Z</time>
      </trkpt>
      <trkpt lat="48.1877899" lon="14.6943416">
        <ele>209.856</ele>
        <time>2019-05-02T14:13:14.513Z</time>
      </trkpt>
      <trkpt lat="48.1876496" lon="14.6944085">
        <ele>229.109</ele>
        <time>2019-05-02T14:13:18.416Z</time>
      </trkpt>
      <trkpt lat="48.1875263" lon="14.6944695">
        <ele>237.931</ele>
        <time>2019-05-02T14:13:21.627Z</time>
      </trkpt>
      <trkpt lat="48.1874290" lon="14.6945501">
        <ele>238.993</ele>
        <time>2019-05-02T14:13:24.345Z</time>
      </trkpt>
      <trkpt lat="48.1873347" lon="14.6946342">
        <ele>237.110</ele>
        <time>2019-05-02T14:13:27.099Z</time>
      </trkpt>
      <trkpt lat="48.1872357" lon="14.6947120">
        <ele>235.236</ele>
        <time>2019-05-02T14:13:29.998Z</time>
      </trkpt>
      <trkpt lat="48.1872357" lon="14.6947120">
        <ele>234.289</ele>
        <time>2019-05-02T14:13:31.998Z</time>
      </trkpt>
      <trkpt lat="48.1872357" lon="14.6947120">
        <ele>234.094</ele>
        <time>2019-05-02T14:13:32.098Z</time>
      </trkpt>
      <trkpt lat="48.1870679" lon="14.6949564">
        <ele>234.187</ele>
        <time>2019-05-02T14:13:39.714Z</time>
      </trkpt>
      <trkpt lat="48.1869915" lon="14.6951404">
        <ele>234.234</ele>
        <time>2019-05-02T14:13:42.960Z</time>
      </trkpt>
      <trkpt lat="48.1869385" lon="14.6953290">
        <ele>234.144</ele>
        <time>2019-05-02T14:13:46.041Z</time>
      </trkpt>
      <trkpt lat="48.1868839" lon="14.6954939">
        <ele>233.985</ele>
        <time>2019-05-02T14:13:48.789Z</time>
      </trkpt>
      <trkpt lat="48.1868493" lon="14.6956964">
        <ele>233.851</ele>
        <time>2019-05-02T14:13:51.775Z</time>
      </trkpt>
      <trkpt lat="48.1868318" lon="14.6959104">
        <ele>233.844</ele>
        <time>2019-05-02T14:13:54.709Z</time>
      </trkpt>
      <trkpt lat="48.1868228" lon="14.6961263">
        <ele>233.985</ele>
        <time>2019-05-02T14:13:57.618Z</time>
      </trkpt>
      <trkpt lat="48.1868187" lon="14.6963485">
        <ele>234.139</ele>
        <time>2019-05-02T14:14:00.565Z</time>
      </trkpt>
      <trkpt lat="48.1868025" lon="14.6965489">
        <ele>234.168</ele>
        <time>2019-05-02T14:14:03.161Z</time>
      </trkpt>
      <trkpt lat="48.1867953" lon="14.6967913">
        <ele>234.084</ele>
        <time>2019-05-02T14:14:06.203Z</time>
      </trkpt>
      <trkpt lat="48.1867991" lon="14.6970313">
        <ele>233.975</ele>
        <time>2019-05-02T14:14:09.095Z</time>
      </trkpt>
      <trkpt lat="48.1868078" lon="14.6972857">
        <ele>233.903</ele>
        <time>2019-05-02T14:14:12.081Z</time>
      </trkpt>
      <trkpt lat="48.1868067" lon="14.6975336">
        <ele>233.872</ele>
        <time>2019-05-02T14:14:15.030Z</time>
      </trkpt>
      <trkpt lat="48.1868103" lon="14.6977874">
        <ele>233.902</ele>
        <time>2019-05-02T14:14:18.122Z</time>
      </trkpt>
      <trkpt lat="48.1867905" lon="14.6980348">
        <ele>234.023</ele>
        <time>2019-05-02T14:14:21.255Z</time>
      </trkpt>
      <trkpt lat="48.1867713" lon="14.6982761">
        <ele>234.200</ele>
        <time>2019-05-02T14:14:24.501Z</time>
      </trkpt>
      <trkpt lat="48.1867482" lon="14.6984998">
        <ele>234.344</ele>
        <time>2019-05-02T14:14:27.782Z</time>
      </trkpt>
      <trkpt lat="48.1867354" lon="14.6987114">
        <ele>234.413</ele>
        <time>2019-05-02T14:14:31.202Z</time>
      </trkpt>
      <trkpt lat="48.1867188" lon="14.6988834">
        <ele>234.426</ele>
        <time>2019-05-02T14:14:34.095Z</time>
      </trkpt>
      <trkpt lat="48.1866977" lon="14.6990729">
        <ele>234.418</ele>
        <time>2019-05-02T14:14:37.220Z</time>
      </trkpt>
      <trkpt lat="48.1866782" lon="14.6992486">
        <ele>234.407</ele>
        <time>2019-05-02T14:14:39.965Z</time>
      </trkpt>
      <trkpt lat="48.1866626" lon="14.6994320">
        <ele>234.402</ele>
        <time>2019-05-02T14:14:42.624Z</time>
      </trkpt>
      <trkpt lat="48.1866324" lon="14.6996231">
        <ele>234.401</ele>
        <time>2019-05-02T14:14:45.300Z</time>
      </trkpt>
      <trkpt lat="48.1866028" lon="14.6998268">
        <ele>234.396</ele>
        <time>2019-05-02T14:14:48.107Z</time>
      </trkpt>
      <trkpt lat="48.1865513" lon="14.7000014">
        <ele>234.373</ele>
        <time>2019-05-02T14:14:50.708Z</time>
      </trkpt>
      <trkpt lat="48.1865143" lon="14.7001958">
        <ele>234.333</ele>
        <time>2019-05-02T14:14:53.470Z</time>
      </trkpt>
      <trkpt lat="48.1864692" lon="14.7003980">
        <ele>234.311</ele>
        <time>2019-05-02T14:14:56.399Z</time>
      </trkpt>
      <trkpt lat="48.1864320" lon="14.7005675">
        <ele>234.330</ele>
        <time>2019-05-02T14:14:58.875Z</time>
      </trkpt>
      <trkpt lat="48.1863784" lon="14.7007484">
        <ele>234.369</ele>
        <time>2019-05-02T14:15:01.674Z</time>
      </trkpt>
      <trkpt lat="48.1863143" lon="14.7009197">
        <ele>234.396</ele>
        <time>2019-05-02T14:15:04.507Z</time>
      </trkpt>
      <trkpt lat="48.1862555" lon="14.7011111">
        <ele>234.393</ele>
        <time>2019-05-02T14:15:07.571Z</time>
      </trkpt>
      <trkpt lat="48.1861968" lon="14.7012720">
        <ele>234.331</ele>
        <time>2019-05-02T14:15:10.270Z</time>
      </trkpt>
      <trkpt lat="48.1861429" lon="14.7014434">
        <ele>234.194</ele>
        <time>2019-05-02T14:15:13.119Z</time>
      </trkpt>
      <trkpt lat="48.1860929" lon="14.7016291">
        <ele>234.002</ele>
        <time>2019-05-02T14:15:16.156Z</time>
      </trkpt>
      <trkpt lat="48.1860490" lon="14.7018687">
        <ele>233.815</ele>
        <time>2019-05-02T14:15:19.948Z</time>
      </trkpt>
      <trkpt lat="48.1860155" lon="14.7020805">
        <ele>233.751</ele>
        <time>2019-05-02T14:15:23.394Z</time>
      </trkpt>
      <trkpt lat="48.1860063" lon="14.7022628">
        <ele>233.893</ele>
        <time>2019-05-02T14:15:26.376Z</time>
      </trkpt>
      <trkpt lat="48.1859893" lon="14.7024652">
        <ele>234.153</ele>
        <time>2019-05-02T14:15:29.891Z</time>
      </trkpt>
      <trkpt lat="48.1859730" lon="14.7026213">
        <ele>234.365</ele>
        <time>2019-05-02T14:15:32.670Z</time>
      </trkpt>
      <trkpt lat="48.1859403" lon="14.7028026">
        <ele>234.475</ele>
        <time>2019-05-02T14:15:35.817Z</time>
      </trkpt>
      <trkpt lat="48.1859112" lon="14.7029656">
        <ele>234.588</ele>
        <time>2019-05-02T14:15:38.428Z</time>
      </trkpt>
      <trkpt lat="48.1858859" lon="14.7031814">
        <ele>234.818</ele>
        <time>2019-05-02T14:15:41.602Z</time>
      </trkpt>
      <trkpt lat="48.1858185" lon="14.7034261">
        <ele>235.118</ele>
        <time>2019-05-02T14:15:45.323Z</time>
      </trkpt>
      <trkpt lat="48.1857688" lon="14.7036458">
        <ele>235.350</ele>
        <time>2019-05-02T14:15:48.402Z</time>
      </trkpt>
      <trkpt lat="48.1857144" lon="14.7038907">
        <ele>235.456</ele>
        <time>2019-05-02T14:15:51.593Z</time>
      </trkpt>
      <trkpt lat="48.1856650" lon="14.7041210">
        <ele>235.475</ele>
        <time>2019-05-02T14:15:54.469Z</time>
      </trkpt>
      <trkpt lat="48.1856016" lon="14.7043502">
        <ele>235.459</ele>
        <time>2019-05-02T14:15:57.304Z</time>
      </trkpt>
      <trkpt lat="48.1855493" lon="14.7046235">
        <ele>235.443</ele>
        <time>2019-05-02T14:16:00.533Z</time>
      </trkpt>
      <trkpt lat="48.1855276" lon="14.7048986">
        <ele>235.435</ele>
        <time>2019-05-02T14:16:03.908Z</time>
      </trkpt>
      <trkpt lat="48.1855192" lon="14.7050849">
        <ele>235.431</ele>
        <time>2019-05-02T14:16:06.340Z</time>
      </trkpt>
      <trkpt lat="48.1855232" lon="14.7052911">
        <ele>235.425</ele>
        <time>2019-05-02T14:16:09.184Z</time>
      </trkpt>
      <trkpt lat="48.1855189" lon="14.7054550">
        <ele>235.422</ele>
        <time>2019-05-02T14:16:11.538Z</time>
      </trkpt>
      <trkpt lat="48.1855046" lon="14.7056371">
        <ele>235.425</ele>
        <time>2019-05-02T14:16:14.289Z</time>
      </trkpt>
      <trkpt lat="48.1854888" lon="14.7057948">
        <ele>235.431</ele>
        <time>2019-05-02T14:16:16.757Z</time>
      </trkpt>
      <trkpt lat="48.1854744" lon="14.7060191">
        <ele>235.435</ele>
        <time>2019-05-02T14:16:20.096Z</time>
      </trkpt>
      <trkpt lat="48.1854796" lon="14.7062501">
        <ele>235.437</ele>
        <time>2019-05-02T14:16:23.310Z</time>
      </trkpt>
      <trkpt lat="48.1854807" lon="14.7064491">
        <ele>235.437</ele>
        <time>2019-05-02T14:16:26.054Z</time>
      </trkpt>
      <trkpt lat="48.1854623" lon="14.7066622">
        <ele>235.437</ele>
        <time>2019-05-02T14:16:28.906Z</time>
      </trkpt>
      <trkpt lat="48.1854701" lon="14.7069231">
        <ele>235.437</ele>
        <time>2019-05-02T14:16:32.264Z</time>
      </trkpt>
      <trkpt lat="48.1854528" lon="14.7071679">
        <ele>235.436</ele>
        <time>2019-05-02T14:16:35.405Z</time>
      </trkpt>
      <trkpt lat="48.1854598" lon="14.7074182">
        <ele>235.436</ele>
        <time>2019-05-02T14:16:38.600Z</time>
      </trkpt>
      <trkpt lat="48.1854541" lon="14.7076372">
        <ele>235.436</ele>
        <time>2019-05-02T14:16:41.443Z</time>
      </trkpt>
      <trkpt lat="48.1854450" lon="14.7078940">
        <ele>235.436</ele>
        <time>2019-05-02T14:16:44.760Z</time>
      </trkpt>
      <trkpt lat="48.1854458" lon="14.7081415">
        <ele>235.436</ele>
        <time>2019-05-02T14:16:47.988Z</time>
      </trkpt>
      <trkpt lat="48.1854409" lon="14.7083366">
        <ele>235.436</ele>
        <time>2019-05-02T14:16:50.555Z</time>
      </trkpt>
      <trkpt lat="48.1854669" lon="14.7085929">
        <ele>235.436</ele>
        <time>2019-05-02T14:16:53.862Z</time>
      </trkpt>
      <trkpt lat="48.1854748" lon="14.7088550">
        <ele>235.436</ele>
        <time>2019-05-02T14:16:57.165Z</time>
      </trkpt>
      <trkpt lat="48.1854932" lon="14.7090925">
        <ele>235.436</ele>
        <time>2019-05-02T14:17:00.178Z</time>
      </trkpt>
      <trkpt lat="48.1854935" lon="14.7093222">
        <ele>235.436</ele>
        <time>2019-05-02T14:17:04.021Z</time>
      </trkpt>
      <trkpt lat="48.1854197" lon="14.7094006">
        <ele>235.424</ele>
        <time>2019-05-02T14:17:07.983Z</time>
      </trkpt>
      <trkpt lat="48.1853535" lon="14.7094954">
        <ele>235.354</ele>
        <time>2019-05-02T14:17:13.104Z</time>
      </trkpt>
      <trkpt lat="48.1853097" lon="14.7096437">
        <ele>235.218</ele>
        <time>2019-05-02T14:17:16.755Z</time>
      </trkpt>
      <trkpt lat="48.1852895" lon="14.7097961">
        <ele>235.078</ele>
        <time>2019-05-02T14:17:19.742Z</time>
      </trkpt>
      <trkpt lat="48.1852609" lon="14.7099702">
        <ele>234.936</ele>
        <time>2019-05-02T14:17:23.130Z</time>
      </trkpt>
      <trkpt lat="48.1852405" lon="14.7101078">
        <ele>234.755</ele>
        <time>2019-05-02T14:17:25.840Z</time>
      </trkpt>
      <trkpt lat="48.1852225" lon="14.7102555">
        <ele>234.575</ele>
        <time>2019-05-02T14:17:28.637Z</time>
      </trkpt>
      <trkpt lat="48.1852112" lon="14.7104093">
        <ele>234.460</ele>
        <time>2019-05-02T14:17:31.297Z</time>
      </trkpt>
      <trkpt lat="48.1852016" lon="14.7105781">
        <ele>234.418</ele>
        <time>2019-05-02T14:17:33.972Z</time>
      </trkpt>
      <trkpt lat="48.1851798" lon="14.7107369">
        <ele>234.417</ele>
        <time>2019-05-02T14:17:36.500Z</time>
      </trkpt>
      <trkpt lat="48.1851439" lon="14.7109352">
        <ele>234.428</ele>
        <time>2019-05-02T14:17:39.684Z</time>
      </trkpt>
      <trkpt lat="48.1851040" lon="14.7111155">
        <ele>234.436</ele>
        <time>2019-05-02T14:17:42.633Z</time>
      </trkpt>
      <trkpt lat="48.1850461" lon="14.7112893">
        <ele>234.439</ele>
        <time>2019-05-02T14:17:45.690Z</time>
      </trkpt>
      <trkpt lat="48.1849947" lon="14.7114512">
        <ele>234.439</ele>
        <time>2019-05-02T14:17:48.412Z</time>
      </trkpt>
      <trkpt lat="48.1849197" lon="14.7116361">
        <ele>234.438</ele>
        <time>2019-05-02T14:17:51.722Z</time>
      </trkpt>
      <trkpt lat="48.1848581" lon="14.7117965">
        <ele>234.438</ele>
        <time>2019-05-02T14:17:54.615Z</time>
      </trkpt>
      <trkpt lat="48.1848026" lon="14.7119706">
        <ele>234.437</ele>
        <time>2019-05-02T14:17:57.630Z</time>
      </trkpt>
      <trkpt lat="48.1847642" lon="14.7121358">
        <ele>234.437</ele>
        <time>2019-05-02T14:18:00.449Z</time>
      </trkpt>
      <trkpt lat="48.1847272" lon="14.7122643">
        <ele>234.438</ele>
        <time>2019-05-02T14:18:02.785Z</time>
      </trkpt>
      <trkpt lat="48.1847635" lon="14.7124450">
        <ele>234.438</ele>
        <time>2019-05-02T14:18:06.061Z</time>
      </trkpt>
      <trkpt lat="48.1847815" lon="14.7126022">
        <ele>234.438</ele>
        <time>2019-05-02T14:18:09.119Z</time>
      </trkpt>
      <trkpt lat="48.1847924" lon="14.7127608">
        <ele>234.438</ele>
        <time>2019-05-02T14:18:12.544Z</time>
      </trkpt>
      <trkpt lat="48.1847206" lon="14.7128688">
        <ele>234.438</ele>
        <time>2019-05-02T14:18:15.641Z</time>
      </trkpt>
      <trkpt lat="48.1846049" lon="14.7129352">
        <ele>234.430</ele>
        <time>2019-05-02T14:18:19.343Z</time>
      </trkpt>
      <trkpt lat="48.1844974" lon="14.7129594">
        <ele>234.350</ele>
        <time>2019-05-02T14:18:22.903Z</time>
      </trkpt>
      <trkpt lat="48.1844555" lon="14.7130898">
        <ele>234.138</ele>
        <time>2019-05-02T14:18:25.952Z</time>
      </trkpt>
      <trkpt lat="48.1844538" lon="14.7132633">
        <ele>233.847</ele>
        <time>2019-05-02T14:18:29.029Z</time>
      </trkpt>
      <trkpt lat="48.1844875" lon="14.7134610">
        <ele>233.596</ele>
        <time>2019-05-02T14:18:32.241Z</time>
      </trkpt>
      <trkpt lat="48.1845101" lon="14.7136985">
        <ele>233.452</ele>
        <time>2019-05-02T14:18:35.908Z</time>
      </trkpt>
      <trkpt lat="48.1845339" lon="14.7138808">
        <ele>233.406</ele>
        <time>2019-05-02T14:18:38.798Z</time>
      </trkpt>
      <trkpt lat="48.1845515" lon="14.7140306">
        <ele>233.410</ele>
        <time>2019-05-02T14:18:41.499Z</time>
      </trkpt>
      <trkpt lat="48.1845565" lon="14.7141847">
        <ele>233.427</ele>
        <time>2019-05-02T14:18:44.730Z</time>
      </trkpt>
      <trkpt lat="48.1845988" lon="14.7143294">
        <ele>233.438</ele>
        <time>2019-05-02T14:18:48.885Z</time>
      </trkpt>
      <trkpt lat="48.1846007" lon="14.7144997">
        <ele>233.441</ele>
        <time>2019-05-02T14:18:53.228Z</time>
      </trkpt>
      <trkpt lat="48.1846190" lon="14.7146322">
        <ele>233.440</ele>
        <time>2019-05-02T14:18:57.022Z</time>
      </trkpt>
      <trkpt lat="48.1846276" lon="14.7147807">
        <ele>233.343</ele>
        <time>2019-05-02T14:19:02.997Z</time>
      </trkpt>
      <trkpt lat="48.1846276" lon="14.7147807">
        <ele>233.303</ele>
        <time>2019-05-02T14:19:04.997Z</time>
      </trkpt>
      <trkpt lat="48.1846276" lon="14.7147807">
        <ele>233.245</ele>
        <time>2019-05-02T14:19:05.097Z</time>
      </trkpt>
      <trkpt lat="48.1846455" lon="14.7149266">
        <ele>233.064</ele>
        <time>2019-05-02T14:19:55.732Z</time>
      </trkpt>
      <trkpt lat="48.1846884" lon="14.7150544">
        <ele>233.025</ele>
        <time>2019-05-02T14:20:18.382Z</time>
      </trkpt>
      <trkpt lat="48.1846922" lon="14.7152206">
        <ele>226.980</ele>
        <time>2019-05-02T14:20:30.861Z</time>
      </trkpt>
      <trkpt lat="48.1846988" lon="14.7153574">
        <ele>211.256</ele>
        <time>2019-05-02T14:20:41.146Z</time>
      </trkpt>
      <trkpt lat="48.1847055" lon="14.7155199">
        <ele>200.610</ele>
        <time>2019-05-02T14:20:46.499Z</time>
      </trkpt>
      <trkpt lat="48.1847112" lon="14.7156919">
        <ele>207.858</ele>
        <time>2019-05-02T14:20:49.639Z</time>
      </trkpt>
      <trkpt lat="48.1847181" lon="14.7158923">
        <ele>222.939</ele>
        <time>2019-05-02T14:20:52.510Z</time>
      </trkpt>
      <trkpt lat="48.1847173" lon="14.7161964">
        <ele>232.709</ele>
        <time>2019-05-02T14:20:56.149Z</time>
      </trkpt>
      <trkpt lat="48.1847173" lon="14.7161964">
        <ele>232.709</ele>
        <time>2019-05-02T14:20:56.149Z</time>
      </trkpt>
      <trkpt lat="48.1847795" lon="14.7175464">
        <ele>233.564</ele>
        <time>2019-05-02T14:21:10.334Z</time>
      </trkpt>
      <trkpt lat="48.1847959" lon="14.7178284">
        <ele>233.457</ele>
        <time>2019-05-02T14:21:13.293Z</time>
      </trkpt>
      <trkpt lat="48.1848053" lon="14.7180778">
        <ele>233.416</ele>
        <time>2019-05-02T14:21:16.083Z</time>
      </trkpt>
      <trkpt lat="48.1848147" lon="14.7183395">
        <ele>233.433</ele>
        <time>2019-05-02T14:21:19.273Z</time>
      </trkpt>
      <trkpt lat="48.1848395" lon="14.7185866">
        <ele>233.485</ele>
        <time>2019-05-02T14:21:22.447Z</time>
      </trkpt>
      <trkpt lat="48.1848336" lon="14.7188087">
        <ele>233.531</ele>
        <time>2019-05-02T14:21:25.329Z</time>
      </trkpt>
      <trkpt lat="48.1848652" lon="14.7190215">
        <ele>233.542</ele>
        <time>2019-05-02T14:21:28.240Z</time>
      </trkpt>
      <trkpt lat="48.1849020" lon="14.7192265">
        <ele>233.544</ele>
        <time>2019-05-02T14:21:31.141Z</time>
      </trkpt>
      <trkpt lat="48.1849327" lon="14.7194223">
        <ele>233.563</ele>
        <time>2019-05-02T14:21:33.966Z</time>
      </trkpt>
      <trkpt lat="48.1849534" lon="14.7196137">
        <ele>233.044</ele>
        <time>2019-05-02T14:21:36.880Z</time>
      </trkpt>
      <trkpt lat="48.1849906" lon="14.7197657">
        <ele>231.225</ele>
        <time>2019-05-02T14:21:39.566Z</time>
      </trkpt>
      <trkpt lat="48.1850213" lon="14.7199317">
        <ele>228.509</ele>
        <time>2019-05-02T14:21:42.989Z</time>
      </trkpt>
      <trkpt lat="48.1850294" lon="14.7200747">
        <ele>226.173</ele>
        <time>2019-05-02T14:21:46.999Z</time>
      </trkpt>
      <trkpt lat="48.1850294" lon="14.7200747">
        <ele>224.899</ele>
        <time>2019-05-02T14:21:48.999Z</time>
      </trkpt>
      <trkpt lat="48.1850294" lon="14.7200747">
        <ele>224.547</ele>
        <time>2019-05-02T14:21:49.684Z</time>
      </trkpt>
      <trkpt lat="48.1851650" lon="14.7199678">
        <ele>224.783</ele>
        <time>2019-05-02T14:21:59.590Z</time>
      </trkpt>
      <trkpt lat="48.1852647" lon="14.7199279">
        <ele>226.127</ele>
        <time>2019-05-02T14:22:02.547Z</time>
      </trkpt>
      <trkpt lat="48.1853547" lon="14.7198960">
        <ele>228.839</ele>
        <time>2019-05-02T14:22:04.966Z</time>
      </trkpt>
      <trkpt lat="48.1854866" lon="14.7198782">
        <ele>231.542</ele>
        <time>2019-05-02T14:22:08.263Z</time>
      </trkpt>
      <trkpt lat="48.1856210" lon="14.7198666">
        <ele>232.784</ele>
        <time>2019-05-02T14:22:11.424Z</time>
      </trkpt>
      <trkpt lat="48.1857490" lon="14.7198163">
        <ele>232.613</ele>
        <time>2019-05-02T14:22:14.458Z</time>
      </trkpt>
      <trkpt lat="48.1858695" lon="14.7198403">
        <ele>231.856</ele>
        <time>2019-05-02T14:22:17.298Z</time>
      </trkpt>
      <trkpt lat="48.1860354" lon="14.7197863">
        <ele>231.265</ele>
        <time>2019-05-02T14:22:21.248Z</time>
      </trkpt>
      <trkpt lat="48.1861518" lon="14.7197764">
        <ele>231.067</ele>
        <time>2019-05-02T14:22:23.952Z</time>
      </trkpt>
      <trkpt lat="48.1862869" lon="14.7197547">
        <ele>231.165</ele>
        <time>2019-05-02T14:22:27.122Z</time>
      </trkpt>
      <trkpt lat="48.1864136" lon="14.7197280">
        <ele>231.411</ele>
        <time>2019-05-02T14:22:30.094Z</time>
      </trkpt>
      <trkpt lat="48.1865477" lon="14.7197070">
        <ele>231.725</ele>
        <time>2019-05-02T14:22:33.138Z</time>
      </trkpt>
      <trkpt lat="48.1866965" lon="14.7196730">
        <ele>232.046</ele>
        <time>2019-05-02T14:22:36.522Z</time>
      </trkpt>
      <trkpt lat="48.1868206" lon="14.7196517">
        <ele>232.281</ele>
        <time>2019-05-02T14:22:39.378Z</time>
      </trkpt>
      <trkpt lat="48.1869410" lon="14.7195784">
        <ele>232.401</ele>
        <time>2019-05-02T14:22:42.253Z</time>
      </trkpt>
      <trkpt lat="48.1870823" lon="14.7194911">
        <ele>232.490</ele>
        <time>2019-05-02T14:22:45.534Z</time>
      </trkpt>
      <trkpt lat="48.1872072" lon="14.7194210">
        <ele>232.625</ele>
        <time>2019-05-02T14:22:48.463Z</time>
      </trkpt>
      <trkpt lat="48.1873457" lon="14.7193969">
        <ele>232.803</ele>
        <time>2019-05-02T14:22:51.643Z</time>
      </trkpt>
      <trkpt lat="48.1874454" lon="14.7192887">
        <ele>232.967</ele>
        <time>2019-05-02T14:22:54.790Z</time>
      </trkpt>
      <trkpt lat="48.1875550" lon="14.7192019">
        <ele>233.048</ele>
        <time>2019-05-02T14:22:58.096Z</time>
      </trkpt>
      <trkpt lat="48.1876793" lon="14.7191059">
        <ele>233.008</ele>
        <time>2019-05-02T14:23:01.605Z</time>
      </trkpt>
      <trkpt lat="48.1877873" lon="14.7190374">
        <ele>232.894</ele>
        <time>2019-05-02T14:23:04.448Z</time>
      </trkpt>
      <trkpt lat="48.1878741" lon="14.7189907">
        <ele>232.813</ele>
        <time>2019-05-02T14:23:06.769Z</time>
      </trkpt>
      <trkpt lat="48.1879823" lon="14.7188957">
        <ele>232.815</ele>
        <time>2019-05-02T14:23:10.062Z</time>
      </trkpt>
      <trkpt lat="48.1880843" lon="14.7188189">
        <ele>232.833</ele>
        <time>2019-05-02T14:23:13.107Z</time>
      </trkpt>
      <trkpt lat="48.1881697" lon="14.7187499">
        <ele>232.763</ele>
        <time>2019-05-02T14:23:15.592Z</time>
      </trkpt>
      <trkpt lat="48.1882947" lon="14.7186476">
        <ele>232.584</ele>
        <time>2019-05-02T14:23:19.088Z</time>
      </trkpt>
      <trkpt lat="48.1883981" lon="14.7185980">
        <ele>232.384</ele>
        <time>2019-05-02T14:23:21.701Z</time>
      </trkpt>
      <trkpt lat="48.1885307" lon="14.7185137">
        <ele>232.275</ele>
        <time>2019-05-02T14:23:25.148Z</time>
      </trkpt>
      <trkpt lat="48.1886452" lon="14.7184062">
        <ele>232.276</ele>
        <time>2019-05-02T14:23:28.459Z</time>
      </trkpt>
      <trkpt lat="48.1887448" lon="14.7182581">
        <ele>232.327</ele>
        <time>2019-05-02T14:23:31.905Z</time>
      </trkpt>
      <trkpt lat="48.1888424" lon="14.7181708">
        <ele>232.374</ele>
        <time>2019-05-02T14:23:34.668Z</time>
      </trkpt>
      <trkpt lat="48.1889514" lon="14.7180761">
        <ele>232.316</ele>
        <time>2019-05-02T14:23:38.196Z</time>
      </trkpt>
      <trkpt lat="48.1890434" lon="14.7180244">
        <ele>232.102</ele>
        <time>2019-05-02T14:23:41.539Z</time>
      </trkpt>
      <trkpt lat="48.1890938" lon="14.7181706">
        <ele>231.899</ele>
        <time>2019-05-02T14:23:45.489Z</time>
      </trkpt>
      <trkpt lat="48.1891347" lon="14.7183131">
        <ele>231.857</ele>
        <time>2019-05-02T14:23:48.941Z</time>
      </trkpt>
      <trkpt lat="48.1891807" lon="14.7184413">
        <ele>231.849</ele>
        <time>2019-05-02T14:23:51.967Z</time>
      </trkpt>
      <trkpt lat="48.1892590" lon="14.7185782">
        <ele>231.515</ele>
        <time>2019-05-02T14:23:55.734Z</time>
      </trkpt>
      <trkpt lat="48.1893435" lon="14.7186753">
        <ele>230.787</ele>
        <time>2019-05-02T14:23:58.779Z</time>
      </trkpt>
      <trkpt lat="48.1894125" lon="14.7188122">
        <ele>230.562</ele>
        <time>2019-05-02T14:24:01.703Z</time>
      </trkpt>
      <trkpt lat="48.1894941" lon="14.7189814">
        <ele>231.572</ele>
        <time>2019-05-02T14:24:05.107Z</time>
      </trkpt>
      <trkpt lat="48.1895788" lon="14.7191288">
        <ele>233.089</ele>
        <time>2019-05-02T14:24:08.276Z</time>
      </trkpt>
      <trkpt lat="48.1896381" lon="14.7192522">
        <ele>234.072</ele>
        <time>2019-05-02T14:24:10.719Z</time>
      </trkpt>
      <trkpt lat="48.1897195" lon="14.7194145">
        <ele>234.381</ele>
        <time>2019-05-02T14:24:13.779Z</time>
      </trkpt>
      <trkpt lat="48.1898039" lon="14.7196291">
        <ele>234.342</ele>
        <time>2019-05-02T14:24:17.141Z</time>
      </trkpt>
      <trkpt lat="48.1898613" lon="14.7198160">
        <ele>234.278</ele>
        <time>2019-05-02T14:24:19.822Z</time>
      </trkpt>
      <trkpt lat="48.1899400" lon="14.7200052">
        <ele>234.322</ele>
        <time>2019-05-02T14:24:22.811Z</time>
      </trkpt>
      <trkpt lat="48.1900047" lon="14.7201814">
        <ele>234.416</ele>
        <time>2019-05-02T14:24:25.588Z</time>
      </trkpt>
      <trkpt lat="48.1900658" lon="14.7203426">
        <ele>234.477</ele>
        <time>2019-05-02T14:24:28.204Z</time>
      </trkpt>
      <trkpt lat="48.1901170" lon="14.7205226">
        <ele>234.480</ele>
        <time>2019-05-02T14:24:30.979Z</time>
      </trkpt>
      <trkpt lat="48.1901868" lon="14.7207483">
        <ele>234.428</ele>
        <time>2019-05-02T14:24:34.378Z</time>
      </trkpt>
      <trkpt lat="48.1902335" lon="14.7209479">
        <ele>234.337</ele>
        <time>2019-05-02T14:24:37.164Z</time>
      </trkpt>
      <trkpt lat="48.1902818" lon="14.7211755">
        <ele>234.235</ele>
        <time>2019-05-02T14:24:40.203Z</time>
      </trkpt>
      <trkpt lat="48.1903245" lon="14.7214095">
        <ele>234.162</ele>
        <time>2019-05-02T14:24:43.178Z</time>
      </trkpt>
      <trkpt lat="48.1903701" lon="14.7216571">
        <ele>234.118</ele>
        <time>2019-05-02T14:24:46.238Z</time>
      </trkpt>
      <trkpt lat="48.1904169" lon="14.7219019">
        <ele>234.042</ele>
        <time>2019-05-02T14:24:49.312Z</time>
      </trkpt>
      <trkpt lat="48.1904776" lon="14.7220839">
        <ele>233.929</ele>
        <time>2019-05-02T14:24:51.890Z</time>
      </trkpt>
      <trkpt lat="48.1905386" lon="14.7223005">
        <ele>233.852</ele>
        <time>2019-05-02T14:24:54.977Z</time>
      </trkpt>
      <trkpt lat="48.1905903" lon="14.7225054">
        <ele>233.857</ele>
        <time>2019-05-02T14:24:57.898Z</time>
      </trkpt>
      <trkpt lat="48.1906420" lon="14.7227316">
        <ele>233.900</ele>
        <time>2019-05-02T14:25:01.078Z</time>
      </trkpt>
      <trkpt lat="48.1906955" lon="14.7229484">
        <ele>233.933</ele>
        <time>2019-05-02T14:25:04.119Z</time>
      </trkpt>
      <trkpt lat="48.1907929" lon="14.7231574">
        <ele>233.937</ele>
        <time>2019-05-02T14:25:07.441Z</time>
      </trkpt>
      <trkpt lat="48.1908591" lon="14.7233425">
        <ele>233.925</ele>
        <time>2019-05-02T14:25:10.255Z</time>
      </trkpt>
      <trkpt lat="48.1909140" lon="14.7235253">
        <ele>233.964</ele>
        <time>2019-05-02T14:25:13.078Z</time>
      </trkpt>
      <trkpt lat="48.1909817" lon="14.7237554">
        <ele>234.089</ele>
        <time>2019-05-02T14:25:16.405Z</time>
      </trkpt>
      <trkpt lat="48.1910578" lon="14.7239876">
        <ele>234.247</ele>
        <time>2019-05-02T14:25:19.592Z</time>
      </trkpt>
      <trkpt lat="48.1911587" lon="14.7242560">
        <ele>234.419</ele>
        <time>2019-05-02T14:25:23.251Z</time>
      </trkpt>
      <trkpt lat="48.1913098" lon="14.7244655">
        <ele>234.493</ele>
        <time>2019-05-02T14:25:26.827Z</time>
      </trkpt>
      <trkpt lat="48.1914117" lon="14.7246717">
        <ele>234.576</ele>
        <time>2019-05-02T14:25:29.800Z</time>
      </trkpt>
      <trkpt lat="48.1915218" lon="14.7248909">
        <ele>234.648</ele>
        <time>2019-05-02T14:25:32.915Z</time>
      </trkpt>
      <trkpt lat="48.1916212" lon="14.7250876">
        <ele>234.704</ele>
        <time>2019-05-02T14:25:35.660Z</time>
      </trkpt>
      <trkpt lat="48.1917344" lon="14.7252858">
        <ele>234.817</ele>
        <time>2019-05-02T14:25:38.556Z</time>
      </trkpt>
      <trkpt lat="48.1918518" lon="14.7255126">
        <ele>234.975</ele>
        <time>2019-05-02T14:25:41.761Z</time>
      </trkpt>
      <trkpt lat="48.1919492" lon="14.7257433">
        <ele>235.105</ele>
        <time>2019-05-02T14:25:44.834Z</time>
      </trkpt>
      <trkpt lat="48.1920479" lon="14.7259502">
        <ele>235.210</ele>
        <time>2019-05-02T14:25:47.721Z</time>
      </trkpt>
      <trkpt lat="48.1921452" lon="14.7261610">
        <ele>235.347</ele>
        <time>2019-05-02T14:25:50.612Z</time>
      </trkpt>
      <trkpt lat="48.1922420" lon="14.7263676">
        <ele>235.475</ele>
        <time>2019-05-02T14:25:53.439Z</time>
      </trkpt>
      <trkpt lat="48.1923523" lon="14.7265897">
        <ele>235.534</ele>
        <time>2019-05-02T14:25:56.575Z</time>
      </trkpt>
      <trkpt lat="48.1924577" lon="14.7267908">
        <ele>235.564</ele>
        <time>2019-05-02T14:25:59.614Z</time>
      </trkpt>
      <trkpt lat="48.1925265" lon="14.7269676">
        <ele>235.675</ele>
        <time>2019-05-02T14:26:02.194Z</time>
      </trkpt>
      <trkpt lat="48.1925901" lon="14.7271611">
        <ele>236.007</ele>
        <time>2019-05-02T14:26:04.983Z</time>
      </trkpt>
      <trkpt lat="48.1926664" lon="14.7273881">
        <ele>236.501</ele>
        <time>2019-05-02T14:26:08.279Z</time>
      </trkpt>
      <trkpt lat="48.1927201" lon="14.7275561">
        <ele>236.879</ele>
        <time>2019-05-02T14:26:10.767Z</time>
      </trkpt>
      <trkpt lat="48.1927861" lon="14.7277390">
        <ele>236.936</ele>
        <time>2019-05-02T14:26:13.538Z</time>
      </trkpt>
      <trkpt lat="48.1928558" lon="14.7280026">
        <ele>236.739</ele>
        <time>2019-05-02T14:26:16.835Z</time>
      </trkpt>
      <trkpt lat="48.1929336" lon="14.7282408">
        <ele>236.495</ele>
        <time>2019-05-02T14:26:19.659Z</time>
      </trkpt>
      <trkpt lat="48.1929787" lon="14.7284890">
        <ele>236.345</ele>
        <time>2019-05-02T14:26:22.431Z</time>
      </trkpt>
      <trkpt lat="48.1930062" lon="14.7287784">
        <ele>236.261</ele>
        <time>2019-05-02T14:26:25.560Z</time>
      </trkpt>
      <trkpt lat="48.1930548" lon="14.7290680">
        <ele>236.135</ele>
        <time>2019-05-02T14:26:28.626Z</time>
      </trkpt>
      <trkpt lat="48.1931153" lon="14.7293762">
        <ele>235.894</ele>
        <time>2019-05-02T14:26:31.805Z</time>
      </trkpt>
      <trkpt lat="48.1931564" lon="14.7296562">
        <ele>235.596</ele>
        <time>2019-05-02T14:26:34.594Z</time>
      </trkpt>
      <trkpt lat="48.1932169" lon="14.7299737">
        <ele>235.329</ele>
        <time>2019-05-02T14:26:37.829Z</time>
      </trkpt>
      <trkpt lat="48.1932781" lon="14.7302473">
        <ele>235.115</ele>
        <time>2019-05-02T14:26:40.718Z</time>
      </trkpt>
      <trkpt lat="48.1933376" lon="14.7305388">
        <ele>234.971</ele>
        <time>2019-05-02T14:26:43.855Z</time>
      </trkpt>
      <trkpt lat="48.1933836" lon="14.7308126">
        <ele>235.003</ele>
        <time>2019-05-02T14:26:46.804Z</time>
      </trkpt>
      <trkpt lat="48.1934365" lon="14.7310615">
        <ele>235.220</ele>
        <time>2019-05-02T14:26:49.585Z</time>
      </trkpt>
      <trkpt lat="48.1934550" lon="14.7312868">
        <ele>235.454</ele>
        <time>2019-05-02T14:26:52.078Z</time>
      </trkpt>
      <trkpt lat="48.1934946" lon="14.7315174">
        <ele>235.539</ele>
        <time>2019-05-02T14:26:54.713Z</time>
      </trkpt>
      <trkpt lat="48.1935176" lon="14.7318069">
        <ele>235.487</ele>
        <time>2019-05-02T14:26:57.764Z</time>
      </trkpt>
      <trkpt lat="48.1935263" lon="14.7321309">
        <ele>235.388</ele>
        <time>2019-05-02T14:27:00.935Z</time>
      </trkpt>
      <trkpt lat="48.1935444" lon="14.7324677">
        <ele>235.274</ele>
        <time>2019-05-02T14:27:04.187Z</time>
      </trkpt>
      <trkpt lat="48.1935293" lon="14.7326773">
        <ele>235.122</ele>
        <time>2019-05-02T14:27:06.268Z</time>
      </trkpt>
      <trkpt lat="48.1935460" lon="14.7329050">
        <ele>234.977</ele>
        <time>2019-05-02T14:27:08.514Z</time>
      </trkpt>
      <trkpt lat="48.1935318" lon="14.7331127">
        <ele>234.898</ele>
        <time>2019-05-02T14:27:10.557Z</time>
      </trkpt>
      <trkpt lat="48.1935230" lon="14.7333161">
        <ele>234.878</ele>
        <time>2019-05-02T14:27:12.597Z</time>
      </trkpt>
      <trkpt lat="48.1935327" lon="14.7334982">
        <ele>234.878</ele>
        <time>2019-05-02T14:27:14.470Z</time>
      </trkpt>
      <trkpt lat="48.1935367" lon="14.7336613">
        <ele>234.876</ele>
        <time>2019-05-02T14:27:16.184Z</time>
      </trkpt>
      <trkpt lat="48.1935358" lon="14.7338415">
        <ele>234.870</ele>
        <time>2019-05-02T14:27:18.129Z</time>
      </trkpt>
      <trkpt lat="48.1935363" lon="14.7340161">
        <ele>234.870</ele>
        <time>2019-05-02T14:27:20.084Z</time>
      </trkpt>
      <trkpt lat="48.1935444" lon="14.7341772">
        <ele>234.879</ele>
        <time>2019-05-02T14:27:21.983Z</time>
      </trkpt>
      <trkpt lat="48.1935376" lon="14.7343359">
        <ele>234.890</ele>
        <time>2019-05-02T14:27:23.917Z</time>
      </trkpt>
      <trkpt lat="48.1935226" lon="14.7345550">
        <ele>234.897</ele>
        <time>2019-05-02T14:27:26.471Z</time>
      </trkpt>
      <trkpt lat="48.1935126" lon="14.7347387">
        <ele>234.900</ele>
        <time>2019-05-02T14:27:28.432Z</time>
      </trkpt>
      <trkpt lat="48.1935300" lon="14.7349446">
        <ele>234.892</ele>
        <time>2019-05-02T14:27:30.519Z</time>
      </trkpt>
      <trkpt lat="48.1935268" lon="14.7351687">
        <ele>234.867</ele>
        <time>2019-05-02T14:27:32.677Z</time>
      </trkpt>
      <trkpt lat="48.1935229" lon="14.7354129">
        <ele>234.840</ele>
        <time>2019-05-02T14:27:34.967Z</time>
      </trkpt>
      <trkpt lat="48.1935202" lon="14.7356127">
        <ele>234.826</ele>
        <time>2019-05-02T14:27:36.840Z</time>
      </trkpt>
      <trkpt lat="48.1935170" lon="14.7358495">
        <ele>234.823</ele>
        <time>2019-05-02T14:27:39.067Z</time>
      </trkpt>
      <trkpt lat="48.1935126" lon="14.7360637">
        <ele>234.831</ele>
        <time>2019-05-02T14:27:41.088Z</time>
      </trkpt>
      <trkpt lat="48.1935094" lon="14.7362942">
        <ele>234.867</ele>
        <time>2019-05-02T14:27:43.285Z</time>
      </trkpt>
      <trkpt lat="48.1935166" lon="14.7364925">
        <ele>234.939</ele>
        <time>2019-05-02T14:27:45.205Z</time>
      </trkpt>
      <trkpt lat="48.1934972" lon="14.7367103">
        <ele>235.014</ele>
        <time>2019-05-02T14:27:47.376Z</time>
      </trkpt>
      <trkpt lat="48.1934739" lon="14.7368852">
        <ele>235.079</ele>
        <time>2019-05-02T14:27:49.197Z</time>
      </trkpt>
      <trkpt lat="48.1934498" lon="14.7370955">
        <ele>235.162</ele>
        <time>2019-05-02T14:27:51.428Z</time>
      </trkpt>
      <trkpt lat="48.1934314" lon="14.7372906">
        <ele>235.269</ele>
        <time>2019-05-02T14:27:53.512Z</time>
      </trkpt>
      <trkpt lat="48.1933814" lon="14.7374644">
        <ele>235.364</ele>
        <time>2019-05-02T14:27:55.557Z</time>
      </trkpt>
      <trkpt lat="48.1933375" lon="14.7376136">
        <ele>235.420</ele>
        <time>2019-05-02T14:27:57.433Z</time>
      </trkpt>
      <trkpt lat="48.1933089" lon="14.7378292">
        <ele>235.440</ele>
        <time>2019-05-02T14:28:00.054Z</time>
      </trkpt>
      <trkpt lat="48.1932738" lon="14.7380825">
        <ele>235.434</ele>
        <time>2019-05-02T14:28:03.197Z</time>
      </trkpt>
      <trkpt lat="48.1932327" lon="14.7383132">
        <ele>235.396</ele>
        <time>2019-05-02T14:28:06.014Z</time>
      </trkpt>
      <trkpt lat="48.1932289" lon="14.7384838">
        <ele>235.339</ele>
        <time>2019-05-02T14:28:07.946Z</time>
      </trkpt>
      <trkpt lat="48.1931881" lon="14.7387680">
        <ele>235.305</ele>
        <time>2019-05-02T14:28:11.194Z</time>
      </trkpt>
      <trkpt lat="48.1931494" lon="14.7390444">
        <ele>235.325</ele>
        <time>2019-05-02T14:28:14.360Z</time>
      </trkpt>
      <trkpt lat="48.1931319" lon="14.7393011">
        <ele>235.376</ele>
        <time>2019-05-02T14:28:17.253Z</time>
      </trkpt>
      <trkpt lat="48.1931003" lon="14.7395717">
        <ele>235.419</ele>
        <time>2019-05-02T14:28:20.278Z</time>
      </trkpt>
      <trkpt lat="48.1930693" lon="14.7398312">
        <ele>235.440</ele>
        <time>2019-05-02T14:28:23.049Z</time>
      </trkpt>
      <trkpt lat="48.1930503" lon="14.7401362">
        <ele>235.444</ele>
        <time>2019-05-02T14:28:26.079Z</time>
      </trkpt>
      <trkpt lat="48.1930138" lon="14.7404978">
        <ele>235.441</ele>
        <time>2019-05-02T14:28:29.572Z</time>
      </trkpt>
      <trkpt lat="48.1929733" lon="14.7408498">
        <ele>235.452</ele>
        <time>2019-05-02T14:28:32.988Z</time>
      </trkpt>
      <trkpt lat="48.1929456" lon="14.7411286">
        <ele>235.556</ele>
        <time>2019-05-02T14:28:35.731Z</time>
      </trkpt>
      <trkpt lat="48.1929120" lon="14.7414561">
        <ele>235.771</ele>
        <time>2019-05-02T14:28:38.963Z</time>
      </trkpt>
      <trkpt lat="48.1928603" lon="14.7417643">
        <ele>235.935</ele>
        <time>2019-05-02T14:28:42.047Z</time>
      </trkpt>
      <trkpt lat="48.1928095" lon="14.7420511">
        <ele>235.896</ele>
        <time>2019-05-02T14:28:44.895Z</time>
      </trkpt>
      <trkpt lat="48.1927788" lon="14.7423434">
        <ele>235.711</ele>
        <time>2019-05-02T14:28:47.692Z</time>
      </trkpt>
      <trkpt lat="48.1927364" lon="14.7426341">
        <ele>235.529</ele>
        <time>2019-05-02T14:28:50.532Z</time>
      </trkpt>
      <trkpt lat="48.1926824" lon="14.7428973">
        <ele>235.431</ele>
        <time>2019-05-02T14:28:53.269Z</time>
      </trkpt>
      <trkpt lat="48.1926611" lon="14.7431554">
        <ele>235.406</ele>
        <time>2019-05-02T14:28:55.937Z</time>
      </trkpt>
      <trkpt lat="48.1926122" lon="14.7434751">
        <ele>235.415</ele>
        <time>2019-05-02T14:28:59.266Z</time>
      </trkpt>
      <trkpt lat="48.1925552" lon="14.7437631">
        <ele>235.429</ele>
        <time>2019-05-02T14:29:02.269Z</time>
      </trkpt>
      <trkpt lat="48.1925076" lon="14.7440286">
        <ele>235.455</ele>
        <time>2019-05-02T14:29:05.043Z</time>
      </trkpt>
      <trkpt lat="48.1924830" lon="14.7443016">
        <ele>235.509</ele>
        <time>2019-05-02T14:29:07.956Z</time>
      </trkpt>
      <trkpt lat="48.1924367" lon="14.7445280">
        <ele>235.572</ele>
        <time>2019-05-02T14:29:10.728Z</time>
      </trkpt>
      <trkpt lat="48.1924102" lon="14.7446932">
        <ele>235.592</ele>
        <time>2019-05-02T14:29:12.939Z</time>
      </trkpt>
      <trkpt lat="48.1923605" lon="14.7449617">
        <ele>235.554</ele>
        <time>2019-05-02T14:29:16.381Z</time>
      </trkpt>
      <trkpt lat="48.1922951" lon="14.7452519">
        <ele>235.511</ele>
        <time>2019-05-02T14:29:19.756Z</time>
      </trkpt>
      <trkpt lat="48.1922762" lon="14.7454619">
        <ele>235.568</ele>
        <time>2019-05-02T14:29:22.144Z</time>
      </trkpt>
      <trkpt lat="48.1922790" lon="14.7456994">
        <ele>235.791</ele>
        <time>2019-05-02T14:29:25.097Z</time>
      </trkpt>
      <trkpt lat="48.1924030" lon="14.7458572">
        <ele>236.101</ele>
        <time>2019-05-02T14:29:28.320Z</time>
      </trkpt>
      <trkpt lat="48.1925797" lon="14.7459507">
        <ele>236.340</ele>
        <time>2019-05-02T14:29:31.716Z</time>
      </trkpt>
      <trkpt lat="48.1927163" lon="14.7460280">
        <ele>236.425</ele>
        <time>2019-05-02T14:29:34.252Z</time>
      </trkpt>
      <trkpt lat="48.1928675" lon="14.7461087">
        <ele>236.346</ele>
        <time>2019-05-02T14:29:37.445Z</time>
      </trkpt>
      <trkpt lat="48.1929621" lon="14.7461609">
        <ele>236.131</ele>
        <time>2019-05-02T14:29:39.560Z</time>
      </trkpt>
      <trkpt lat="48.1931482" lon="14.7462381">
        <ele>235.845</ele>
        <time>2019-05-02T14:29:43.156Z</time>
      </trkpt>
      <trkpt lat="48.1933199" lon="14.7463498">
        <ele>235.565</ele>
        <time>2019-05-02T14:29:46.261Z</time>
      </trkpt>
      <trkpt lat="48.1933941" lon="14.7466115">
        <ele>235.310</ele>
        <time>2019-05-02T14:29:49.490Z</time>
      </trkpt>
      <trkpt lat="48.1934078" lon="14.7468400">
        <ele>235.029</ele>
        <time>2019-05-02T14:29:52.337Z</time>
      </trkpt>
      <trkpt lat="48.1934493" lon="14.7470267">
        <ele>234.699</ele>
        <time>2019-05-02T14:29:54.971Z</time>
      </trkpt>
      <trkpt lat="48.1936229" lon="14.7470380">
        <ele>234.394</ele>
        <time>2019-05-02T14:29:58.590Z</time>
      </trkpt>
      <trkpt lat="48.1937514" lon="14.7471009">
        <ele>234.162</ele>
        <time>2019-05-02T14:30:01.393Z</time>
      </trkpt>
      <trkpt lat="48.1938560" lon="14.7471731">
        <ele>233.940</ele>
        <time>2019-05-02T14:30:03.810Z</time>
      </trkpt>
      <trkpt lat="48.1939719" lon="14.7472574">
        <ele>233.703</ele>
        <time>2019-05-02T14:30:06.787Z</time>
      </trkpt>
      <trkpt lat="48.1939979" lon="14.7474227">
        <ele>233.518</ele>
        <time>2019-05-02T14:30:09.664Z</time>
      </trkpt>
      <trkpt lat="48.1939008" lon="14.7475836">
        <ele>233.429</ele>
        <time>2019-05-02T14:30:13.563Z</time>
      </trkpt>
      <trkpt lat="48.1938433" lon="14.7477003">
        <ele>233.410</ele>
        <time>2019-05-02T14:30:16.115Z</time>
      </trkpt>
      <trkpt lat="48.1937609" lon="14.7478158">
        <ele>233.420</ele>
        <time>2019-05-02T14:30:18.962Z</time>
      </trkpt>
      <trkpt lat="48.1936747" lon="14.7479219">
        <ele>233.433</ele>
        <time>2019-05-02T14:30:22.010Z</time>
      </trkpt>
      <trkpt lat="48.1936176" lon="14.7480604">
        <ele>233.440</ele>
        <time>2019-05-02T14:30:25.298Z</time>
      </trkpt>
      <trkpt lat="48.1936025" lon="14.7482127">
        <ele>233.441</ele>
        <time>2019-05-02T14:30:28.802Z</time>
      </trkpt>
      <trkpt lat="48.1935752" lon="14.7483555">
        <ele>233.440</ele>
        <time>2019-05-02T14:30:32.998Z</time>
      </trkpt>
      <trkpt lat="48.1935752" lon="14.7483555">
        <ele>233.439</ele>
        <time>2019-05-02T14:30:38.998Z</time>
      </trkpt>
      <trkpt lat="48.1935752" lon="14.7483555">
        <ele>233.402</ele>
        <time>2019-05-02T14:30:40.746Z</time>
      </trkpt>
      <trkpt lat="48.1935889" lon="14.7484973">
        <ele>233.305</ele>
        <time>2019-05-02T14:30:47.603Z</time>
      </trkpt>
      <trkpt lat="48.1935627" lon="14.7487038">
        <ele>233.244</ele>
        <time>2019-05-02T14:30:51.482Z</time>
      </trkpt>
      <trkpt lat="48.1935170" lon="14.7489489">
        <ele>233.295</ele>
        <time>2019-05-02T14:30:54.994Z</time>
      </trkpt>
      <trkpt lat="48.1934560" lon="14.7491495">
        <ele>233.443</ele>
        <time>2019-05-02T14:30:57.714Z</time>
      </trkpt>
      <trkpt lat="48.1933691" lon="14.7493750">
        <ele>233.656</ele>
        <time>2019-05-02T14:31:00.779Z</time>
      </trkpt>
      <trkpt lat="48.1932509" lon="14.7495652">
        <ele>233.874</ele>
        <time>2019-05-02T14:31:03.799Z</time>
      </trkpt>
      <trkpt lat="48.1931307" lon="14.7496995">
        <ele>234.056</ele>
        <time>2019-05-02T14:31:06.424Z</time>
      </trkpt>
      <trkpt lat="48.1930178" lon="14.7498603">
        <ele>234.277</ele>
        <time>2019-05-02T14:31:09.203Z</time>
      </trkpt>
      <trkpt lat="48.1928971" lon="14.7499382">
        <ele>234.583</ele>
        <time>2019-05-02T14:31:11.602Z</time>
      </trkpt>
      <trkpt lat="48.1927515" lon="14.7500259">
        <ele>234.882</ele>
        <time>2019-05-02T14:31:14.502Z</time>
      </trkpt>
      <trkpt lat="48.1926157" lon="14.7501088">
        <ele>235.008</ele>
        <time>2019-05-02T14:31:17.254Z</time>
      </trkpt>
      <trkpt lat="48.1924965" lon="14.7501692">
        <ele>234.872</ele>
        <time>2019-05-02T14:31:19.688Z</time>
      </trkpt>
      <trkpt lat="48.1923879" lon="14.7502196">
        <ele>234.565</ele>
        <time>2019-05-02T14:31:21.998Z</time>
      </trkpt>
      <trkpt lat="48.1923879" lon="14.7502196">
        <ele>234.275</ele>
        <time>2019-05-02T14:31:21.998Z</time>
      </trkpt>
      <trkpt lat="48.1923879" lon="14.7502196">
        <ele>234.106</ele>
        <time>2019-05-02T14:31:28.581Z</time>
      </trkpt>
      <trkpt lat="48.1922622" lon="14.7503330">
        <ele>234.035</ele>
        <time>2019-05-02T14:31:36.937Z</time>
      </trkpt>
      <trkpt lat="48.1921763" lon="14.7505694">
        <ele>233.967</ele>
        <time>2019-05-02T14:31:40.764Z</time>
      </trkpt>
      <trkpt lat="48.1921168" lon="14.7508032">
        <ele>233.851</ele>
        <time>2019-05-02T14:31:43.740Z</time>
      </trkpt>
      <trkpt lat="48.1920401" lon="14.7510152">
        <ele>233.735</ele>
        <time>2019-05-02T14:31:46.512Z</time>
      </trkpt>
      <trkpt lat="48.1919780" lon="14.7512679">
        <ele>233.683</ele>
        <time>2019-05-02T14:31:49.625Z</time>
      </trkpt>
      <trkpt lat="48.1919283" lon="14.7514875">
        <ele>233.688</ele>
        <time>2019-05-02T14:31:52.388Z</time>
      </trkpt>
      <trkpt lat="48.1918656" lon="14.7516825">
        <ele>233.714</ele>
        <time>2019-05-02T14:31:55.049Z</time>
      </trkpt>
      <trkpt lat="48.1918067" lon="14.7518553">
        <ele>233.749</ele>
        <time>2019-05-02T14:31:57.468Z</time>
      </trkpt>
      <trkpt lat="48.1917788" lon="14.7520770">
        <ele>233.820</ele>
        <time>2019-05-02T14:32:00.272Z</time>
      </trkpt>
      <trkpt lat="48.1917675" lon="14.7523468">
        <ele>233.918</ele>
        <time>2019-05-02T14:32:03.549Z</time>
      </trkpt>
      <trkpt lat="48.1917713" lon="14.7525972">
        <ele>234.060</ele>
        <time>2019-05-02T14:32:06.459Z</time>
      </trkpt>
      <trkpt lat="48.1917974" lon="14.7529093">
        <ele>234.264</ele>
        <time>2019-05-02T14:32:09.923Z</time>
      </trkpt>
      <trkpt lat="48.1918067" lon="14.7531082">
        <ele>234.410</ele>
        <time>2019-05-02T14:32:12.059Z</time>
      </trkpt>
      <trkpt lat="48.1918575" lon="14.7533102">
        <ele>234.372</ele>
        <time>2019-05-02T14:32:14.445Z</time>
      </trkpt>
      <trkpt lat="48.1919386" lon="14.7535163">
        <ele>234.217</ele>
        <time>2019-05-02T14:32:17.191Z</time>
      </trkpt>
      <trkpt lat="48.1920215" lon="14.7537649">
        <ele>234.107</ele>
        <time>2019-05-02T14:32:20.429Z</time>
      </trkpt>
      <trkpt lat="48.1920916" lon="14.7540039">
        <ele>234.114</ele>
        <time>2019-05-02T14:32:23.406Z</time>
      </trkpt>
      <trkpt lat="48.1921005" lon="14.7542744">
        <ele>234.181</ele>
        <time>2019-05-02T14:32:26.427Z</time>
      </trkpt>
      <trkpt lat="48.1920803" lon="14.7545752">
        <ele>234.240</ele>
        <time>2019-05-02T14:32:29.727Z</time>
      </trkpt>
      <trkpt lat="48.1920564" lon="14.7548454">
        <ele>234.289</ele>
        <time>2019-05-02T14:32:32.675Z</time>
      </trkpt>
      <trkpt lat="48.1920293" lon="14.7550982">
        <ele>234.347</ele>
        <time>2019-05-02T14:32:35.421Z</time>
      </trkpt>
      <trkpt lat="48.1919647" lon="14.7553950">
        <ele>234.403</ele>
        <time>2019-05-02T14:32:38.791Z</time>
      </trkpt>
      <trkpt lat="48.1919247" lon="14.7556306">
        <ele>234.435</ele>
        <time>2019-05-02T14:32:41.551Z</time>
      </trkpt>
      <trkpt lat="48.1918757" lon="14.7558228">
        <ele>234.445</ele>
        <time>2019-05-02T14:32:43.955Z</time>
      </trkpt>
      <trkpt lat="48.1918082" lon="14.7560315">
        <ele>234.444</ele>
        <time>2019-05-02T14:32:46.643Z</time>
      </trkpt>
      <trkpt lat="48.1917423" lon="14.7562652">
        <ele>234.440</ele>
        <time>2019-05-02T14:32:49.500Z</time>
      </trkpt>
      <trkpt lat="48.1916720" lon="14.7565397">
        <ele>234.438</ele>
        <time>2019-05-02T14:32:52.680Z</time>
      </trkpt>
      <trkpt lat="48.1915850" lon="14.7567562">
        <ele>234.437</ele>
        <time>2019-05-02T14:32:55.379Z</time>
      </trkpt>
      <trkpt lat="48.1915113" lon="14.7569658">
        <ele>234.437</ele>
        <time>2019-05-02T14:32:57.961Z</time>
      </trkpt>
      <trkpt lat="48.1914233" lon="14.7571604">
        <ele>234.437</ele>
        <time>2019-05-02T14:33:00.619Z</time>
      </trkpt>
      <trkpt lat="48.1913158" lon="14.7573370">
        <ele>234.438</ele>
        <time>2019-05-02T14:33:03.394Z</time>
      </trkpt>
      <trkpt lat="48.1912216" lon="14.7575326">
        <ele>234.423</ele>
        <time>2019-05-02T14:33:06.137Z</time>
      </trkpt>
      <trkpt lat="48.1911091" lon="14.7577451">
        <ele>234.344</ele>
        <time>2019-05-02T14:33:09.114Z</time>
      </trkpt>
      <trkpt lat="48.1909743" lon="14.7579446">
        <ele>234.178</ele>
        <time>2019-05-02T14:33:12.127Z</time>
      </trkpt>
      <trkpt lat="48.1908353" lon="14.7581224">
        <ele>233.956</ele>
        <time>2019-05-02T14:33:14.938Z</time>
      </trkpt>
      <trkpt lat="48.1907386" lon="14.7582655">
        <ele>233.720</ele>
        <time>2019-05-02T14:33:17.068Z</time>
      </trkpt>
      <trkpt lat="48.1906479" lon="14.7584843">
        <ele>233.517</ele>
        <time>2019-05-02T14:33:19.920Z</time>
      </trkpt>
      <trkpt lat="48.1905989" lon="14.7588429">
        <ele>233.346</ele>
        <time>2019-05-02T14:33:23.971Z</time>
      </trkpt>
      <trkpt lat="48.1905621" lon="14.7591816">
        <ele>233.148</ele>
        <time>2019-05-02T14:33:27.324Z</time>
      </trkpt>
      <trkpt lat="48.1905229" lon="14.7595038">
        <ele>232.912</ele>
        <time>2019-05-02T14:33:30.478Z</time>
      </trkpt>
      <trkpt lat="48.1904870" lon="14.7597670">
        <ele>232.685</ele>
        <time>2019-05-02T14:33:33.151Z</time>
      </trkpt>
      <trkpt lat="48.1904580" lon="14.7600522">
        <ele>232.499</ele>
        <time>2019-05-02T14:33:36.082Z</time>
      </trkpt>
      <trkpt lat="48.1904329" lon="14.7602938">
        <ele>232.349</ele>
        <time>2019-05-02T14:33:38.638Z</time>
      </trkpt>
      <trkpt lat="48.1904339" lon="14.7605647">
        <ele>232.223</ele>
        <time>2019-05-02T14:33:41.586Z</time>
      </trkpt>
      <trkpt lat="48.1904306" lon="14.7607948">
        <ele>232.117</ele>
        <time>2019-05-02T14:33:44.184Z</time>
      </trkpt>
      <trkpt lat="48.1904113" lon="14.7610742">
        <ele>232.042</ele>
        <time>2019-05-02T14:33:47.376Z</time>
      </trkpt>
      <trkpt lat="48.1904186" lon="14.7613062">
        <ele>232.000</ele>
        <time>2019-05-02T14:33:49.986Z</time>
      </trkpt>
      <trkpt lat="48.1904052" lon="14.7615670">
        <ele>231.961</ele>
        <time>2019-05-02T14:33:52.925Z</time>
      </trkpt>
      <trkpt lat="48.1904008" lon="14.7618417">
        <ele>231.869</ele>
        <time>2019-05-02T14:33:56.040Z</time>
      </trkpt>
      <trkpt lat="48.1903898" lon="14.7620883">
        <ele>231.701</ele>
        <time>2019-05-02T14:33:58.913Z</time>
      </trkpt>
      <trkpt lat="48.1903896" lon="14.7623387">
        <ele>231.508</ele>
        <time>2019-05-02T14:34:01.915Z</time>
      </trkpt>
      <trkpt lat="48.1903872" lon="14.7625442">
        <ele>231.365</ele>
        <time>2019-05-02T14:34:04.419Z</time>
      </trkpt>
      <trkpt lat="48.1903808" lon="14.7627520">
        <ele>231.339</ele>
        <time>2019-05-02T14:34:07.069Z</time>
      </trkpt>
      <trkpt lat="48.1903778" lon="14.7629275">
        <ele>231.487</ele>
        <time>2019-05-02T14:34:09.393Z</time>
      </trkpt>
      <trkpt lat="48.1903857" lon="14.7630839">
        <ele>231.777</ele>
        <time>2019-05-02T14:34:11.408Z</time>
      </trkpt>
      <trkpt lat="48.1903821" lon="14.7632365">
        <ele>232.081</ele>
        <time>2019-05-02T14:34:13.320Z</time>
      </trkpt>
      <trkpt lat="48.1903773" lon="14.7633745">
        <ele>232.281</ele>
        <time>2019-05-02T14:34:15.060Z</time>
      </trkpt>
      <trkpt lat="48.1903846" lon="14.7635090">
        <ele>232.325</ele>
        <time>2019-05-02T14:34:16.784Z</time>
      </trkpt>
      <trkpt lat="48.1903933" lon="14.7636482">
        <ele>232.219</ele>
        <time>2019-05-02T14:34:18.599Z</time>
      </trkpt>
      <trkpt lat="48.1903851" lon="14.7637939">
        <ele>232.044</ele>
        <time>2019-05-02T14:34:20.518Z</time>
      </trkpt>
      <trkpt lat="48.1903708" lon="14.7639407">
        <ele>231.903</ele>
        <time>2019-05-02T14:34:22.475Z</time>
      </trkpt>
      <trkpt lat="48.1903630" lon="14.7641035">
        <ele>231.833</ele>
        <time>2019-05-02T14:34:24.588Z</time>
      </trkpt>
      <trkpt lat="48.1903525" lon="14.7642820">
        <ele>231.808</ele>
        <time>2019-05-02T14:34:26.785Z</time>
      </trkpt>
      <trkpt lat="48.1903231" lon="14.7644665">
        <ele>231.793</ele>
        <time>2019-05-02T14:34:28.999Z</time>
      </trkpt>
      <trkpt lat="48.1903207" lon="14.7646343">
        <ele>231.771</ele>
        <time>2019-05-02T14:34:30.906Z</time>
      </trkpt>
      <trkpt lat="48.1903160" lon="14.7647991">
        <ele>231.734</ele>
        <time>2019-05-02T14:34:32.754Z</time>
      </trkpt>
      <trkpt lat="48.1903251" lon="14.7649653">
        <ele>231.685</ele>
        <time>2019-05-02T14:34:34.614Z</time>
      </trkpt>
      <trkpt lat="48.1903328" lon="14.7651191">
        <ele>231.645</ele>
        <time>2019-05-02T14:34:36.349Z</time>
      </trkpt>
      <trkpt lat="48.1903471" lon="14.7652609">
        <ele>231.644</ele>
        <time>2019-05-02T14:34:38.015Z</time>
      </trkpt>
      <trkpt lat="48.1903418" lon="14.7654255">
        <ele>231.733</ele>
        <time>2019-05-02T14:34:40.066Z</time>
      </trkpt>
      <trkpt lat="48.1903466" lon="14.7655694">
        <ele>231.951</ele>
        <time>2019-05-02T14:34:41.931Z</time>
      </trkpt>
      <trkpt lat="48.1903421" lon="14.7657181">
        <ele>232.244</ele>
        <time>2019-05-02T14:34:43.865Z</time>
      </trkpt>
      <trkpt lat="48.1903349" lon="14.7658666">
        <ele>232.496</ele>
        <time>2019-05-02T14:34:45.848Z</time>
      </trkpt>
      <trkpt lat="48.1903367" lon="14.7661470">
        <ele>232.639</ele>
        <time>2019-05-02T14:34:49.605Z</time>
      </trkpt>
      <trkpt lat="48.1903280" lon="14.7663114">
        <ele>232.685</ele>
        <time>2019-05-02T14:34:51.685Z</time>
      </trkpt>
      <trkpt lat="48.1903373" lon="14.7665163">
        <ele>232.679</ele>
        <time>2019-05-02T14:34:54.229Z</time>
      </trkpt>
      <trkpt lat="48.1903061" lon="14.7667241">
        <ele>232.661</ele>
        <time>2019-05-02T14:34:56.888Z</time>
      </trkpt>
      <trkpt lat="48.1902371" lon="14.7669243">
        <ele>232.644</ele>
        <time>2019-05-02T14:34:59.809Z</time>
      </trkpt>
      <trkpt lat="48.1901758" lon="14.7670747">
        <ele>232.610</ele>
        <time>2019-05-02T14:35:02.162Z</time>
      </trkpt>
      <trkpt lat="48.1901314" lon="14.7672240">
        <ele>232.523</ele>
        <time>2019-05-02T14:35:04.411Z</time>
      </trkpt>
      <trkpt lat="48.1901187" lon="14.7673814">
        <ele>232.366</ele>
        <time>2019-05-02T14:35:06.806Z</time>
      </trkpt>
      <trkpt lat="48.1901253" lon="14.7675739">
        <ele>232.162</ele>
        <time>2019-05-02T14:35:10.190Z</time>
      </trkpt>
      <trkpt lat="48.1901491" lon="14.7678087">
        <ele>231.936</ele>
        <time>2019-05-02T14:35:14.190Z</time>
      </trkpt>
      <trkpt lat="48.1901802" lon="14.7681081">
        <ele>231.710</ele>
        <time>2019-05-02T14:35:18.592Z</time>
      </trkpt>
      <trkpt lat="48.1902670" lon="14.7683191">
        <ele>231.535</ele>
        <time>2019-05-02T14:35:21.873Z</time>
      </trkpt>
      <trkpt lat="48.1902663" lon="14.7685310">
        <ele>231.443</ele>
        <time>2019-05-02T14:35:24.631Z</time>
      </trkpt>
      <trkpt lat="48.1902638" lon="14.7687205">
        <ele>231.418</ele>
        <time>2019-05-02T14:35:27.250Z</time>
      </trkpt>
      <trkpt lat="48.1902370" lon="14.7689070">
        <ele>231.423</ele>
        <time>2019-05-02T14:35:30.041Z</time>
      </trkpt>
      <trkpt lat="48.1901832" lon="14.7690731">
        <ele>231.435</ele>
        <time>2019-05-02T14:35:32.844Z</time>
      </trkpt>
      <trkpt lat="48.1901014" lon="14.7691763">
        <ele>231.441</ele>
        <time>2019-05-02T14:35:35.318Z</time>
      </trkpt>
      <trkpt lat="48.1899817" lon="14.7692617">
        <ele>231.443</ele>
        <time>2019-05-02T14:35:38.500Z</time>
      </trkpt>
      <trkpt lat="48.1898683" lon="14.7692953">
        <ele>231.443</ele>
        <time>2019-05-02T14:35:41.381Z</time>
      </trkpt>
      <trkpt lat="48.1897516" lon="14.7693843">
        <ele>231.442</ele>
        <time>2019-05-02T14:35:44.601Z</time>
      </trkpt>
      <trkpt lat="48.1896471" lon="14.7695024">
        <ele>231.441</ele>
        <time>2019-05-02T14:35:47.715Z</time>
      </trkpt>
      <trkpt lat="48.1895664" lon="14.7696230">
        <ele>231.441</ele>
        <time>2019-05-02T14:35:50.327Z</time>
      </trkpt>
      <trkpt lat="48.1894874" lon="14.7697864">
        <ele>231.441</ele>
        <time>2019-05-02T14:35:53.451Z</time>
      </trkpt>
      <trkpt lat="48.1893996" lon="14.7699665">
        <ele>231.441</ele>
        <time>2019-05-02T14:35:57.128Z</time>
      </trkpt>
      <trkpt lat="48.1893466" lon="14.7701230">
        <ele>231.441</ele>
        <time>2019-05-02T14:35:59.729Z</time>
      </trkpt>
      <trkpt lat="48.1892652" lon="14.7702952">
        <ele>231.429</ele>
        <time>2019-05-02T14:36:02.678Z</time>
      </trkpt>
      <trkpt lat="48.1891935" lon="14.7704312">
        <ele>231.375</ele>
        <time>2019-05-02T14:36:05.241Z</time>
      </trkpt>
      <trkpt lat="48.1890807" lon="14.7705143">
        <ele>231.282</ele>
        <time>2019-05-02T14:36:08.351Z</time>
      </trkpt>
      <trkpt lat="48.1889787" lon="14.7706394">
        <ele>231.226</ele>
        <time>2019-05-02T14:36:11.810Z</time>
      </trkpt>
      <trkpt lat="48.1888329" lon="14.7707130">
        <ele>231.257</ele>
        <time>2019-05-02T14:36:15.584Z</time>
      </trkpt>
      <trkpt lat="48.1886919" lon="14.7707853">
        <ele>231.329</ele>
        <time>2019-05-02T14:36:18.843Z</time>
      </trkpt>
      <trkpt lat="48.1885451" lon="14.7708625">
        <ele>231.344</ele>
        <time>2019-05-02T14:36:22.069Z</time>
      </trkpt>
      <trkpt lat="48.1884046" lon="14.7709206">
        <ele>231.209</ele>
        <time>2019-05-02T14:36:25.055Z</time>
      </trkpt>
      <trkpt lat="48.1882959" lon="14.7709843">
        <ele>230.931</ele>
        <time>2019-05-02T14:36:27.423Z</time>
      </trkpt>
      <trkpt lat="48.1881906" lon="14.7710240">
        <ele>230.644</ele>
        <time>2019-05-02T14:36:29.732Z</time>
      </trkpt>
      <trkpt lat="48.1880707" lon="14.7710550">
        <ele>230.436</ele>
        <time>2019-05-02T14:36:32.579Z</time>
      </trkpt>
      <trkpt lat="48.1879443" lon="14.7710734">
        <ele>230.248</ele>
        <time>2019-05-02T14:36:35.901Z</time>
      </trkpt>
      <trkpt lat="48.1878019" lon="14.7710924">
        <ele>230.000</ele>
        <time>2019-05-02T14:36:39.603Z</time>
      </trkpt>
      <trkpt lat="48.1876237" lon="14.7711110">
        <ele>229.725</ele>
        <time>2019-05-02T14:36:43.946Z</time>
      </trkpt>
      <trkpt lat="48.1874349" lon="14.7711835">
        <ele>229.500</ele>
        <time>2019-05-02T14:36:48.195Z</time>
      </trkpt>
      <trkpt lat="48.1872105" lon="14.7711923">
        <ele>229.282</ele>
        <time>2019-05-02T14:36:52.776Z</time>
      </trkpt>
      <trkpt lat="48.1870781" lon="14.7712148">
        <ele>228.993</ele>
        <time>2019-05-02T14:36:55.741Z</time>
      </trkpt>
      <trkpt lat="48.1869797" lon="14.7712266">
        <ele>228.692</ele>
        <time>2019-05-02T14:36:58.328Z</time>
      </trkpt>
      <trkpt lat="48.1869035" lon="14.7713297">
        <ele>228.492</ele>
        <time>2019-05-02T14:37:01.998Z</time>
      </trkpt>
      <trkpt lat="48.1869035" lon="14.7713297">
        <ele>228.410</ele>
        <time>2019-05-02T14:37:09.998Z</time>
      </trkpt>
      <trkpt lat="48.1869035" lon="14.7713297">
        <ele>228.367</ele>
        <time>2019-05-02T14:37:10.098Z</time>
      </trkpt>
      <trkpt lat="48.1870477" lon="14.7711690">
        <ele>228.307</ele>
        <time>2019-05-02T14:37:46.998Z</time>
      </trkpt>
      <trkpt lat="48.1870477" lon="14.7711690">
        <ele>228.237</ele>
        <time>2019-05-02T14:37:50.998Z</time>
      </trkpt>
      <trkpt lat="48.1870477" lon="14.7711690">
        <ele>228.166</ele>
        <time>2019-05-02T14:39:22.777Z</time>
      </trkpt>
      <trkpt lat="48.1870028" lon="14.7713364">
        <ele>228.095</ele>
        <time>2019-05-02T14:39:30.848Z</time>
      </trkpt>
      <trkpt lat="48.1870579" lon="14.7715623">
        <ele>228.103</ele>
        <time>2019-05-02T14:39:36.129Z</time>
      </trkpt>
      <trkpt lat="48.1871062" lon="14.7717222">
        <ele>228.232</ele>
        <time>2019-05-02T14:39:39.362Z</time>
      </trkpt>
      <trkpt lat="48.1871225" lon="14.7718728">
        <ele>228.382</ele>
        <time>2019-05-02T14:39:41.952Z</time>
      </trkpt>
      <trkpt lat="48.1871716" lon="14.7720033">
        <ele>228.458</ele>
        <time>2019-05-02T14:39:44.341Z</time>
      </trkpt>
      <trkpt lat="48.1871945" lon="14.7721804">
        <ele>228.473</ele>
        <time>2019-05-02T14:39:46.950Z</time>
      </trkpt>
      <trkpt lat="48.1872080" lon="14.7723361">
        <ele>228.462</ele>
        <time>2019-05-02T14:39:49.101Z</time>
      </trkpt>
      <trkpt lat="48.1872313" lon="14.7725379">
        <ele>228.457</ele>
        <time>2019-05-02T14:39:51.762Z</time>
      </trkpt>
      <trkpt lat="48.1872428" lon="14.7726761">
        <ele>228.538</ele>
        <time>2019-05-02T14:39:53.579Z</time>
      </trkpt>
      <trkpt lat="48.1872664" lon="14.7728301">
        <ele>228.766</ele>
        <time>2019-05-02T14:39:55.709Z</time>
      </trkpt>
      <trkpt lat="48.1873052" lon="14.7730146">
        <ele>229.046</ele>
        <time>2019-05-02T14:39:58.384Z</time>
      </trkpt>
      <trkpt lat="48.1873324" lon="14.7731855">
        <ele>229.241</ele>
        <time>2019-05-02T14:40:00.852Z</time>
      </trkpt>
      <trkpt lat="48.1873707" lon="14.7733833">
        <ele>229.332</ele>
        <time>2019-05-02T14:40:03.715Z</time>
      </trkpt>
      <trkpt lat="48.1874111" lon="14.7736140">
        <ele>229.335</ele>
        <time>2019-05-02T14:40:06.877Z</time>
      </trkpt>
      <trkpt lat="48.1874363" lon="14.7738280">
        <ele>229.214</ele>
        <time>2019-05-02T14:40:09.620Z</time>
      </trkpt>
      <trkpt lat="48.1874821" lon="14.7740480">
        <ele>228.983</ele>
        <time>2019-05-02T14:40:12.425Z</time>
      </trkpt>
      <trkpt lat="48.1874970" lon="14.7742610">
        <ele>228.754</ele>
        <time>2019-05-02T14:40:14.999Z</time>
      </trkpt>
      <trkpt lat="48.1874970" lon="14.7742610">
        <ele>228.617</ele>
        <time>2019-05-02T14:40:14.999Z</time>
      </trkpt>
      <trkpt lat="48.1874970" lon="14.7742610">
        <ele>228.553</ele>
        <time>2019-05-02T14:40:15.099Z</time>
      </trkpt>
      <trkpt lat="48.1875767" lon="14.7745170">
        <ele>228.516</ele>
        <time>2019-05-02T14:40:21.321Z</time>
      </trkpt>
      <trkpt lat="48.1876316" lon="14.7746892">
        <ele>228.556</ele>
        <time>2019-05-02T14:40:24.370Z</time>
      </trkpt>
      <trkpt lat="48.1876510" lon="14.7748885">
        <ele>228.713</ele>
        <time>2019-05-02T14:40:27.590Z</time>
      </trkpt>
      <trkpt lat="48.1876501" lon="14.7751294">
        <ele>228.815</ele>
        <time>2019-05-02T14:40:31.091Z</time>
      </trkpt>
      <trkpt lat="48.1876462" lon="14.7753735">
        <ele>228.686</ele>
        <time>2019-05-02T14:40:34.700Z</time>
      </trkpt>
      <trkpt lat="48.1876582" lon="14.7755752">
        <ele>228.428</ele>
        <time>2019-05-02T14:40:37.742Z</time>
      </trkpt>
      <trkpt lat="48.1876714" lon="14.7757990">
        <ele>228.255</ele>
        <time>2019-05-02T14:40:40.961Z</time>
      </trkpt>
      <trkpt lat="48.1876827" lon="14.7760398">
        <ele>228.249</ele>
        <time>2019-05-02T14:40:44.416Z</time>
      </trkpt>
      <trkpt lat="48.1877175" lon="14.7762566">
        <ele>228.380</ele>
        <time>2019-05-02T14:40:47.474Z</time>
      </trkpt>
      <trkpt lat="48.1877697" lon="14.7764902">
        <ele>228.574</ele>
        <time>2019-05-02T14:40:50.713Z</time>
      </trkpt>
      <trkpt lat="48.1878106" lon="14.7767516">
        <ele>228.792</ele>
        <time>2019-05-02T14:40:54.317Z</time>
      </trkpt>
      <trkpt lat="48.1877849" lon="14.7770089">
        <ele>229.027</ele>
        <time>2019-05-02T14:40:57.848Z</time>
      </trkpt>
      <trkpt lat="48.1876485" lon="14.7771954">
        <ele>229.234</ele>
        <time>2019-05-02T14:41:01.622Z</time>
      </trkpt>
      <trkpt lat="48.1875093" lon="14.7771917">
        <ele>229.362</ele>
        <time>2019-05-02T14:41:04.486Z</time>
      </trkpt>
      <trkpt lat="48.1873444" lon="14.7771611">
        <ele>229.423</ele>
        <time>2019-05-02T14:41:08.201Z</time>
      </trkpt>
      <trkpt lat="48.1872055" lon="14.7771291">
        <ele>229.464</ele>
        <time>2019-05-02T14:41:11.318Z</time>
      </trkpt>
      <trkpt lat="48.1870941" lon="14.7771055">
        <ele>229.558</ele>
        <time>2019-05-02T14:41:13.742Z</time>
      </trkpt>
      <trkpt lat="48.1869518" lon="14.7771130">
        <ele>229.717</ele>
        <time>2019-05-02T14:41:16.764Z</time>
      </trkpt>
      <trkpt lat="48.1868247" lon="14.7771110">
        <ele>229.829</ele>
        <time>2019-05-02T14:41:19.386Z</time>
      </trkpt>
      <trkpt lat="48.1866822" lon="14.7770667">
        <ele>229.822</ele>
        <time>2019-05-02T14:41:22.321Z</time>
      </trkpt>
      <trkpt lat="48.1865509" lon="14.7770362">
        <ele>229.797</ele>
        <time>2019-05-02T14:41:24.898Z</time>
      </trkpt>
      <trkpt lat="48.1864171" lon="14.7770048">
        <ele>229.894</ele>
        <time>2019-05-02T14:41:27.431Z</time>
      </trkpt>
      <trkpt lat="48.1862681" lon="14.7769825">
        <ele>230.113</ele>
        <time>2019-05-02T14:41:30.284Z</time>
      </trkpt>
      <trkpt lat="48.1861274" lon="14.7769728">
        <ele>230.324</ele>
        <time>2019-05-02T14:41:33.106Z</time>
      </trkpt>
      <trkpt lat="48.1859700" lon="14.7769623">
        <ele>230.441</ele>
        <time>2019-05-02T14:41:36.567Z</time>
      </trkpt>
      <trkpt lat="48.1858453" lon="14.7769373">
        <ele>230.475</ele>
        <time>2019-05-02T14:41:39.722Z</time>
      </trkpt>
      <trkpt lat="48.1857270" lon="14.7769084">
        <ele>230.473</ele>
        <time>2019-05-02T14:41:42.396Z</time>
      </trkpt>
      <trkpt lat="48.1856200" lon="14.7769079">
        <ele>230.479</ele>
        <time>2019-05-02T14:41:44.452Z</time>
      </trkpt>
      <trkpt lat="48.1854766" lon="14.7768888">
        <ele>230.555</ele>
        <time>2019-05-02T14:41:47.035Z</time>
      </trkpt>
      <trkpt lat="48.1853232" lon="14.7768794">
        <ele>230.757</ele>
        <time>2019-05-02T14:41:49.719Z</time>
      </trkpt>
      <trkpt lat="48.1851574" lon="14.7768683">
        <ele>231.091</ele>
        <time>2019-05-02T14:41:52.674Z</time>
      </trkpt>
      <trkpt lat="48.1850209" lon="14.7768551">
        <ele>231.500</ele>
        <time>2019-05-02T14:41:55.216Z</time>
      </trkpt>
      <trkpt lat="48.1848923" lon="14.7768374">
        <ele>231.897</ele>
        <time>2019-05-02T14:41:57.710Z</time>
      </trkpt>
      <trkpt lat="48.1847490" lon="14.7767892">
        <ele>232.198</ele>
        <time>2019-05-02T14:42:00.384Z</time>
      </trkpt>
      <trkpt lat="48.1845816" lon="14.7767553">
        <ele>232.376</ele>
        <time>2019-05-02T14:42:03.189Z</time>
      </trkpt>
      <trkpt lat="48.1843989" lon="14.7767239">
        <ele>232.451</ele>
        <time>2019-05-02T14:42:06.253Z</time>
      </trkpt>
      <trkpt lat="48.1842424" lon="14.7767229">
        <ele>232.464</ele>
        <time>2019-05-02T14:42:09.141Z</time>
      </trkpt>
      <trkpt lat="48.1841076" lon="14.7767157">
        <ele>232.454</ele>
        <time>2019-05-02T14:42:11.889Z</time>
      </trkpt>
      <trkpt lat="48.1839724" lon="14.7766990">
        <ele>232.444</ele>
        <time>2019-05-02T14:42:14.808Z</time>
      </trkpt>
      <trkpt lat="48.1838542" lon="14.7766722">
        <ele>232.439</ele>
        <time>2019-05-02T14:42:17.405Z</time>
      </trkpt>
      <trkpt lat="48.1837115" lon="14.7766634">
        <ele>232.438</ele>
        <time>2019-05-02T14:42:20.550Z</time>
      </trkpt>
      <trkpt lat="48.1835778" lon="14.7766603">
        <ele>232.439</ele>
        <time>2019-05-02T14:42:23.675Z</time>
      </trkpt>
      <trkpt lat="48.1834696" lon="14.7766396">
        <ele>232.440</ele>
        <time>2019-05-02T14:42:26.337Z</time>
      </trkpt>
      <trkpt lat="48.1833551" lon="14.7766297">
        <ele>232.440</ele>
        <time>2019-05-02T14:42:29.285Z</time>
      </trkpt>
      <trkpt lat="48.1832427" lon="14.7766138">
        <ele>232.440</ele>
        <time>2019-05-02T14:42:32.413Z</time>
      </trkpt>
      <trkpt lat="48.1831248" lon="14.7765944">
        <ele>232.440</ele>
        <time>2019-05-02T14:42:36.016Z</time>
      </trkpt>
      <trkpt lat="48.1830224" lon="14.7766472">
        <ele>232.440</ele>
        <time>2019-05-02T14:42:39.388Z</time>
      </trkpt>
      <trkpt lat="48.1830483" lon="14.7768014">
        <ele>232.438</ele>
        <time>2019-05-02T14:42:42.170Z</time>
      </trkpt>
      <trkpt lat="48.1830778" lon="14.7770244">
        <ele>232.430</ele>
        <time>2019-05-02T14:42:45.504Z</time>
      </trkpt>
      <trkpt lat="48.1830894" lon="14.7772096">
        <ele>232.419</ele>
        <time>2019-05-02T14:42:48.168Z</time>
      </trkpt>
      <trkpt lat="48.1830874" lon="14.7774508">
        <ele>232.410</ele>
        <time>2019-05-02T14:42:51.634Z</time>
      </trkpt>
      <trkpt lat="48.1830929" lon="14.7776694">
        <ele>232.380</ele>
        <time>2019-05-02T14:42:54.690Z</time>
      </trkpt>
      <trkpt lat="48.1831149" lon="14.7778879">
        <ele>232.245</ele>
        <time>2019-05-02T14:42:57.621Z</time>
      </trkpt>
      <trkpt lat="48.1831476" lon="14.7781128">
        <ele>231.997</ele>
        <time>2019-05-02T14:43:00.550Z</time>
      </trkpt>
      <trkpt lat="48.1831722" lon="14.7783479">
        <ele>231.764</ele>
        <time>2019-05-02T14:43:03.558Z</time>
      </trkpt>
      <trkpt lat="48.1832052" lon="14.7785714">
        <ele>231.622</ele>
        <time>2019-05-02T14:43:06.441Z</time>
      </trkpt>
      <trkpt lat="48.1832360" lon="14.7787998">
        <ele>231.509</ele>
        <time>2019-05-02T14:43:09.286Z</time>
      </trkpt>
      <trkpt lat="48.1832657" lon="14.7790504">
        <ele>231.349</ele>
        <time>2019-05-02T14:43:12.318Z</time>
      </trkpt>
      <trkpt lat="48.1832912" lon="14.7792874">
        <ele>231.162</ele>
        <time>2019-05-02T14:43:15.148Z</time>
      </trkpt>
      <trkpt lat="48.1833291" lon="14.7795491">
        <ele>231.024</ele>
        <time>2019-05-02T14:43:18.198Z</time>
      </trkpt>
      <trkpt lat="48.1833428" lon="14.7798105">
        <ele>230.996</ele>
        <time>2019-05-02T14:43:21.152Z</time>
      </trkpt>
      <trkpt lat="48.1833398" lon="14.7800486">
        <ele>231.092</ele>
        <time>2019-05-02T14:43:24.029Z</time>
      </trkpt>
      <trkpt lat="48.1833467" lon="14.7802496">
        <ele>231.259</ele>
        <time>2019-05-02T14:43:26.775Z</time>
      </trkpt>
      <trkpt lat="48.1833521" lon="14.7804588">
        <ele>231.405</ele>
        <time>2019-05-02T14:43:29.765Z</time>
      </trkpt>
      <trkpt lat="48.1833403" lon="14.7807228">
        <ele>231.482</ele>
        <time>2019-05-02T14:43:33.069Z</time>
      </trkpt>
      <trkpt lat="48.1833273" lon="14.7809917">
        <ele>231.505</ele>
        <time>2019-05-02T14:43:36.239Z</time>
      </trkpt>
      <trkpt lat="48.1833148" lon="14.7812200">
        <ele>231.498</ele>
        <time>2019-05-02T14:43:39.021Z</time>
      </trkpt>
      <trkpt lat="48.1832946" lon="14.7814947">
        <ele>231.459</ele>
        <time>2019-05-02T14:43:42.222Z</time>
      </trkpt>
      <trkpt lat="48.1832685" lon="14.7817914">
        <ele>231.357</ele>
        <time>2019-05-02T14:43:45.383Z</time>
      </trkpt>
      <trkpt lat="48.1832173" lon="14.7820938">
        <ele>231.157</ele>
        <time>2019-05-02T14:43:48.571Z</time>
      </trkpt>
      <trkpt lat="48.1832154" lon="14.7823544">
        <ele>230.827</ele>
        <time>2019-05-02T14:43:51.321Z</time>
      </trkpt>
      <trkpt lat="48.1832383" lon="14.7826344">
        <ele>230.397</ele>
        <time>2019-05-02T14:43:54.365Z</time>
      </trkpt>
      <trkpt lat="48.1832562" lon="14.7829262">
        <ele>230.007</ele>
        <time>2019-05-02T14:43:57.437Z</time>
      </trkpt>
      <trkpt lat="48.1832707" lon="14.7832244">
        <ele>229.810</ele>
        <time>2019-05-02T14:44:00.527Z</time>
      </trkpt>
      <trkpt lat="48.1832831" lon="14.7835048">
        <ele>229.853</ele>
        <time>2019-05-02T14:44:03.523Z</time>
      </trkpt>
      <trkpt lat="48.1833078" lon="14.7837577">
        <ele>230.077</ele>
        <time>2019-05-02T14:44:06.355Z</time>
      </trkpt>
      <trkpt lat="48.1833360" lon="14.7840568">
        <ele>230.380</ele>
        <time>2019-05-02T14:44:09.708Z</time>
      </trkpt>
      <trkpt lat="48.1833610" lon="14.7843445">
        <ele>230.695</ele>
        <time>2019-05-02T14:44:12.770Z</time>
      </trkpt>
      <trkpt lat="48.1834072" lon="14.7846544">
        <ele>231.005</ele>
        <time>2019-05-02T14:44:15.925Z</time>
      </trkpt>
      <trkpt lat="48.1834816" lon="14.7849392">
        <ele>231.284</ele>
        <time>2019-05-02T14:44:18.896Z</time>
      </trkpt>
      <trkpt lat="48.1835503" lon="14.7852185">
        <ele>231.495</ele>
        <time>2019-05-02T14:44:21.823Z</time>
      </trkpt>
      <trkpt lat="48.1836106" lon="14.7854152">
        <ele>231.630</ele>
        <time>2019-05-02T14:44:24.053Z</time>
      </trkpt>
      <trkpt lat="48.1836605" lon="14.7855825">
        <ele>231.736</ele>
        <time>2019-05-02T14:44:26.118Z</time>
      </trkpt>
      <trkpt lat="48.1837143" lon="14.7857340">
        <ele>231.891</ele>
        <time>2019-05-02T14:44:28.153Z</time>
      </trkpt>
      <trkpt lat="48.1838077" lon="14.7859719">
        <ele>232.101</ele>
        <time>2019-05-02T14:44:31.461Z</time>
      </trkpt>
      <trkpt lat="48.1838629" lon="14.7861180">
        <ele>232.293</ele>
        <time>2019-05-02T14:44:33.484Z</time>
      </trkpt>
      <trkpt lat="48.1839326" lon="14.7863349">
        <ele>232.409</ele>
        <time>2019-05-02T14:44:36.258Z</time>
      </trkpt>
      <trkpt lat="48.1839968" lon="14.7866023">
        <ele>232.454</ele>
        <time>2019-05-02T14:44:39.463Z</time>
      </trkpt>
      <trkpt lat="48.1840439" lon="14.7868441">
        <ele>232.458</ele>
        <time>2019-05-02T14:44:42.358Z</time>
      </trkpt>
      <trkpt lat="48.1841080" lon="14.7870873">
        <ele>232.449</ele>
        <time>2019-05-02T14:44:45.514Z</time>
      </trkpt>
      <trkpt lat="48.1841770" lon="14.7872951">
        <ele>232.441</ele>
        <time>2019-05-02T14:44:48.468Z</time>
      </trkpt>
      <trkpt lat="48.1842319" lon="14.7875355">
        <ele>232.439</ele>
        <time>2019-05-02T14:44:51.679Z</time>
      </trkpt>
      <trkpt lat="48.1842721" lon="14.7877506">
        <ele>232.438</ele>
        <time>2019-05-02T14:44:54.447Z</time>
      </trkpt>
      <trkpt lat="48.1843052" lon="14.7879645">
        <ele>232.439</ele>
        <time>2019-05-02T14:44:57.116Z</time>
      </trkpt>
      <trkpt lat="48.1843263" lon="14.7881923">
        <ele>232.440</ele>
        <time>2019-05-02T14:44:59.823Z</time>
      </trkpt>
      <trkpt lat="48.1843736" lon="14.7884270">
        <ele>232.440</ele>
        <time>2019-05-02T14:45:02.610Z</time>
      </trkpt>
      <trkpt lat="48.1844255" lon="14.7886621">
        <ele>232.440</ele>
        <time>2019-05-02T14:45:05.345Z</time>
      </trkpt>
      <trkpt lat="48.1844727" lon="14.7889135">
        <ele>232.440</ele>
        <time>2019-05-02T14:45:08.166Z</time>
      </trkpt>
      <trkpt lat="48.1844970" lon="14.7891704">
        <ele>232.467</ele>
        <time>2019-05-02T14:45:10.927Z</time>
      </trkpt>
      <trkpt lat="48.1845480" lon="14.7894474">
        <ele>232.537</ele>
        <time>2019-05-02T14:45:13.943Z</time>
      </trkpt>
      <trkpt lat="48.1846049" lon="14.7897176">
        <ele>232.610</ele>
        <time>2019-05-02T14:45:16.883Z</time>
      </trkpt>
      <trkpt lat="48.1846463" lon="14.7899683">
        <ele>232.646</ele>
        <time>2019-05-02T14:45:19.596Z</time>
      </trkpt>
      <trkpt lat="48.1847027" lon="14.7902002">
        <ele>232.652</ele>
        <time>2019-05-02T14:45:22.293Z</time>
      </trkpt>
      <trkpt lat="48.1847389" lon="14.7904028">
        <ele>232.643</ele>
        <time>2019-05-02T14:45:24.720Z</time>
      </trkpt>
      <trkpt lat="48.1847779" lon="14.7906448">
        <ele>232.617</ele>
        <time>2019-05-02T14:45:27.649Z</time>
      </trkpt>
      <trkpt lat="48.1848453" lon="14.7908885">
        <ele>232.507</ele>
        <time>2019-05-02T14:45:30.609Z</time>
      </trkpt>
      <trkpt lat="48.1849162" lon="14.7911651">
        <ele>232.180</ele>
        <time>2019-05-02T14:45:33.739Z</time>
      </trkpt>
      <trkpt lat="48.1849938" lon="14.7914443">
        <ele>231.502</ele>
        <time>2019-05-02T14:45:36.816Z</time>
      </trkpt>
      <trkpt lat="48.1850907" lon="14.7916755">
        <ele>230.380</ele>
        <time>2019-05-02T14:45:39.741Z</time>
      </trkpt>
      <trkpt lat="48.1851887" lon="14.7918950">
        <ele>228.978</ele>
        <time>2019-05-02T14:45:42.849Z</time>
      </trkpt>
      <trkpt lat="48.1852842" lon="14.7921031">
        <ele>227.807</ele>
        <time>2019-05-02T14:45:45.922Z</time>
      </trkpt>
      <trkpt lat="48.1853901" lon="14.7923376">
        <ele>227.225</ele>
        <time>2019-05-02T14:45:49.312Z</time>
      </trkpt>
      <trkpt lat="48.1854475" lon="14.7925733">
        <ele>227.127</ele>
        <time>2019-05-02T14:45:52.307Z</time>
      </trkpt>
      <trkpt lat="48.1855151" lon="14.7927957">
        <ele>227.301</ele>
        <time>2019-05-02T14:45:55.255Z</time>
      </trkpt>
      <trkpt lat="48.1855663" lon="14.7930206">
        <ele>227.647</ele>
        <time>2019-05-02T14:45:58.105Z</time>
      </trkpt>
      <trkpt lat="48.1856194" lon="14.7932728">
        <ele>228.042</ele>
        <time>2019-05-02T14:46:01.204Z</time>
      </trkpt>
      <trkpt lat="48.1856891" lon="14.7935181">
        <ele>228.352</ele>
        <time>2019-05-02T14:46:04.237Z</time>
      </trkpt>
      <trkpt lat="48.1857653" lon="14.7937517">
        <ele>228.530</ele>
        <time>2019-05-02T14:46:07.152Z</time>
      </trkpt>
      <trkpt lat="48.1858368" lon="14.7939812">
        <ele>228.593</ele>
        <time>2019-05-02T14:46:09.990Z</time>
      </trkpt>
      <trkpt lat="48.1859020" lon="14.7942046">
        <ele>228.613</ele>
        <time>2019-05-02T14:46:12.763Z</time>
      </trkpt>
      <trkpt lat="48.1859626" lon="14.7944312">
        <ele>228.654</ele>
        <time>2019-05-02T14:46:15.595Z</time>
      </trkpt>
      <trkpt lat="48.1860191" lon="14.7946334">
        <ele>228.704</ele>
        <time>2019-05-02T14:46:18.272Z</time>
      </trkpt>
      <trkpt lat="48.1860713" lon="14.7948343">
        <ele>228.750</ele>
        <time>2019-05-02T14:46:21.098Z</time>
      </trkpt>
      <trkpt lat="48.1861261" lon="14.7950107">
        <ele>228.809</ele>
        <time>2019-05-02T14:46:23.812Z</time>
      </trkpt>
      <trkpt lat="48.1861775" lon="14.7952046">
        <ele>228.790</ele>
        <time>2019-05-02T14:46:26.816Z</time>
      </trkpt>
      <trkpt lat="48.1862459" lon="14.7954086">
        <ele>228.567</ele>
        <time>2019-05-02T14:46:30.104Z</time>
      </trkpt>
      <trkpt lat="48.1863094" lon="14.7956239">
        <ele>228.224</ele>
        <time>2019-05-02T14:46:33.440Z</time>
      </trkpt>
      <trkpt lat="48.1863650" lon="14.7958547">
        <ele>228.002</ele>
        <time>2019-05-02T14:46:36.754Z</time>
      </trkpt>
      <trkpt lat="48.1864193" lon="14.7960851">
        <ele>227.990</ele>
        <time>2019-05-02T14:46:39.905Z</time>
      </trkpt>
      <trkpt lat="48.1864701" lon="14.7963307">
        <ele>228.043</ele>
        <time>2019-05-02T14:46:43.188Z</time>
      </trkpt>
      <trkpt lat="48.1865073" lon="14.7965697">
        <ele>228.029</ele>
        <time>2019-05-02T14:46:46.312Z</time>
      </trkpt>
      <trkpt lat="48.1865585" lon="14.7968148">
        <ele>227.981</ele>
        <time>2019-05-02T14:46:49.580Z</time>
      </trkpt>
      <trkpt lat="48.1865901" lon="14.7970649">
        <ele>227.973</ele>
        <time>2019-05-02T14:46:52.763Z</time>
      </trkpt>
      <trkpt lat="48.1866341" lon="14.7972966">
        <ele>228.002</ele>
        <time>2019-05-02T14:46:55.800Z</time>
      </trkpt>
      <trkpt lat="48.1867030" lon="14.7975154">
        <ele>227.987</ele>
        <time>2019-05-02T14:46:58.908Z</time>
      </trkpt>
      <trkpt lat="48.1867725" lon="14.7977179">
        <ele>227.881</ele>
        <time>2019-05-02T14:47:01.853Z</time>
      </trkpt>
      <trkpt lat="48.1868433" lon="14.7979204">
        <ele>227.785</ele>
        <time>2019-05-02T14:47:04.835Z</time>
      </trkpt>
      <trkpt lat="48.1869153" lon="14.7981462">
        <ele>227.812</ele>
        <time>2019-05-02T14:47:08.031Z</time>
      </trkpt>
      <trkpt lat="48.1869765" lon="14.7983726">
        <ele>227.948</ele>
        <time>2019-05-02T14:47:11.116Z</time>
      </trkpt>
      <trkpt lat="48.1870458" lon="14.7986008">
        <ele>228.124</ele>
        <time>2019-05-02T14:47:14.289Z</time>
      </trkpt>
      <trkpt lat="48.1871292" lon="14.7988141">
        <ele>228.282</ele>
        <time>2019-05-02T14:47:17.396Z</time>
      </trkpt>
      <trkpt lat="48.1872009" lon="14.7990580">
        <ele>228.385</ele>
        <time>2019-05-02T14:47:20.747Z</time>
      </trkpt>
      <trkpt lat="48.1873037" lon="14.7992921">
        <ele>228.474</ele>
        <time>2019-05-02T14:47:24.189Z</time>
      </trkpt>
      <trkpt lat="48.1874007" lon="14.7995240">
        <ele>228.615</ele>
        <time>2019-05-02T14:47:27.413Z</time>
      </trkpt>
      <trkpt lat="48.1874456" lon="14.7997688">
        <ele>228.840</ele>
        <time>2019-05-02T14:47:30.362Z</time>
      </trkpt>
      <trkpt lat="48.1875029" lon="14.7999919">
        <ele>229.167</ele>
        <time>2019-05-02T14:47:33.176Z</time>
      </trkpt>
      <trkpt lat="48.1875583" lon="14.8002185">
        <ele>229.523</ele>
        <time>2019-05-02T14:47:36.055Z</time>
      </trkpt>
      <trkpt lat="48.1876266" lon="14.8004605">
        <ele>229.769</ele>
        <time>2019-05-02T14:47:39.296Z</time>
      </trkpt>
      <trkpt lat="48.1876980" lon="14.8006727">
        <ele>229.863</ele>
        <time>2019-05-02T14:47:42.377Z</time>
      </trkpt>
      <trkpt lat="48.1877637" lon="14.8008668">
        <ele>229.865</ele>
        <time>2019-05-02T14:47:45.176Z</time>
      </trkpt>
      <trkpt lat="48.1878191" lon="14.8010997">
        <ele>229.889</ele>
        <time>2019-05-02T14:47:48.218Z</time>
      </trkpt>
      <trkpt lat="48.1878909" lon="14.8013217">
        <ele>229.996</ele>
        <time>2019-05-02T14:47:51.199Z</time>
      </trkpt>
      <trkpt lat="48.1879520" lon="14.8015404">
        <ele>230.116</ele>
        <time>2019-05-02T14:47:54.069Z</time>
      </trkpt>
      <trkpt lat="48.1880172" lon="14.8017815">
        <ele>230.167</ele>
        <time>2019-05-02T14:47:57.130Z</time>
      </trkpt>
      <trkpt lat="48.1881109" lon="14.8020121">
        <ele>229.555</ele>
        <time>2019-05-02T14:48:00.209Z</time>
      </trkpt>
      <trkpt lat="48.1881979" lon="14.8022120">
        <ele>227.493</ele>
        <time>2019-05-02T14:48:03.051Z</time>
      </trkpt>
      <trkpt lat="48.1881979" lon="14.8022120">
        <ele>227.493</ele>
        <time>2019-05-02T14:48:03.051Z</time>
      </trkpt>
      <trkpt lat="48.1887601" lon="14.8033808">
        <ele>231.844</ele>
        <time>2019-05-02T14:48:20.602Z</time>
      </trkpt>
      <trkpt lat="48.1889808" lon="14.8041234">
        <ele>231.696</ele>
        <time>2019-05-02T14:48:30.201Z</time>
      </trkpt>
      <trkpt lat="48.1890303" lon="14.8043083">
        <ele>231.694</ele>
        <time>2019-05-02T14:48:32.450Z</time>
      </trkpt>
      <trkpt lat="48.1890733" lon="14.8044786">
        <ele>231.702</ele>
        <time>2019-05-02T14:48:34.510Z</time>
      </trkpt>
      <trkpt lat="48.1891042" lon="14.8046373">
        <ele>231.684</ele>
        <time>2019-05-02T14:48:36.357Z</time>
      </trkpt>
      <trkpt lat="48.1891440" lon="14.8047958">
        <ele>231.596</ele>
        <time>2019-05-02T14:48:38.241Z</time>
      </trkpt>
      <trkpt lat="48.1892014" lon="14.8049421">
        <ele>231.448</ele>
        <time>2019-05-02T14:48:40.101Z</time>
      </trkpt>
      <trkpt lat="48.1892685" lon="14.8051112">
        <ele>231.303</ele>
        <time>2019-05-02T14:48:42.224Z</time>
      </trkpt>
      <trkpt lat="48.1893391" lon="14.8052768">
        <ele>231.183</ele>
        <time>2019-05-02T14:48:44.296Z</time>
      </trkpt>
      <trkpt lat="48.1894145" lon="14.8054400">
        <ele>231.056</ele>
        <time>2019-05-02T14:48:46.358Z</time>
      </trkpt>
      <trkpt lat="48.1894896" lon="14.8056055">
        <ele>230.923</ele>
        <time>2019-05-02T14:48:48.466Z</time>
      </trkpt>
      <trkpt lat="48.1895511" lon="14.8057793">
        <ele>230.828</ele>
        <time>2019-05-02T14:48:50.564Z</time>
      </trkpt>
      <trkpt lat="48.1896317" lon="14.8059128">
        <ele>230.793</ele>
        <time>2019-05-02T14:48:52.490Z</time>
      </trkpt>
      <trkpt lat="48.1896917" lon="14.8060730">
        <ele>230.824</ele>
        <time>2019-05-02T14:48:54.465Z</time>
      </trkpt>
      <trkpt lat="48.1897535" lon="14.8062437">
        <ele>230.931</ele>
        <time>2019-05-02T14:48:56.579Z</time>
      </trkpt>
      <trkpt lat="48.1898089" lon="14.8063878">
        <ele>231.115</ele>
        <time>2019-05-02T14:48:58.415Z</time>
      </trkpt>
      <trkpt lat="48.1898691" lon="14.8065356">
        <ele>231.344</ele>
        <time>2019-05-02T14:49:00.383Z</time>
      </trkpt>
      <trkpt lat="48.1899461" lon="14.8067746">
        <ele>231.555</ele>
        <time>2019-05-02T14:49:03.504Z</time>
      </trkpt>
      <trkpt lat="48.1900186" lon="14.8069961">
        <ele>231.690</ele>
        <time>2019-05-02T14:49:06.492Z</time>
      </trkpt>
      <trkpt lat="48.1901016" lon="14.8072054">
        <ele>231.743</ele>
        <time>2019-05-02T14:49:09.419Z</time>
      </trkpt>
      <trkpt lat="48.1901746" lon="14.8074334">
        <ele>231.752</ele>
        <time>2019-05-02T14:49:12.359Z</time>
      </trkpt>
      <trkpt lat="48.1902389" lon="14.8076729">
        <ele>231.768</ele>
        <time>2019-05-02T14:49:15.257Z</time>
      </trkpt>
      <trkpt lat="48.1902954" lon="14.8079281">
        <ele>231.882</ele>
        <time>2019-05-02T14:49:18.189Z</time>
      </trkpt>
      <trkpt lat="48.1903547" lon="14.8081822">
        <ele>232.160</ele>
        <time>2019-05-02T14:49:21.059Z</time>
      </trkpt>
      <trkpt lat="48.1903840" lon="14.8084572">
        <ele>232.498</ele>
        <time>2019-05-02T14:49:23.997Z</time>
      </trkpt>
      <trkpt lat="48.1904340" lon="14.8087152">
        <ele>232.703</ele>
        <time>2019-05-02T14:49:26.835Z</time>
      </trkpt>
      <trkpt lat="48.1904737" lon="14.8089476">
        <ele>232.701</ele>
        <time>2019-05-02T14:49:29.375Z</time>
      </trkpt>
      <trkpt lat="48.1905135" lon="14.8092153">
        <ele>232.556</ele>
        <time>2019-05-02T14:49:32.237Z</time>
      </trkpt>
      <trkpt lat="48.1905607" lon="14.8094810">
        <ele>232.355</ele>
        <time>2019-05-02T14:49:35.082Z</time>
      </trkpt>
      <trkpt lat="48.1906159" lon="14.8097407">
        <ele>232.178</ele>
        <time>2019-05-02T14:49:37.897Z</time>
      </trkpt>
      <trkpt lat="48.1906633" lon="14.8100219">
        <ele>232.092</ele>
        <time>2019-05-02T14:49:40.934Z</time>
      </trkpt>
      <trkpt lat="48.1907051" lon="14.8102845">
        <ele>232.105</ele>
        <time>2019-05-02T14:49:43.907Z</time>
      </trkpt>
      <trkpt lat="48.1907403" lon="14.8105061">
        <ele>232.139</ele>
        <time>2019-05-02T14:49:46.484Z</time>
      </trkpt>
      <trkpt lat="48.1907657" lon="14.8107316">
        <ele>232.132</ele>
        <time>2019-05-02T14:49:49.065Z</time>
      </trkpt>
      <trkpt lat="48.1907976" lon="14.8109859">
        <ele>232.069</ele>
        <time>2019-05-02T14:49:51.944Z</time>
      </trkpt>
      <trkpt lat="48.1908258" lon="14.8112521">
        <ele>231.955</ele>
        <time>2019-05-02T14:49:54.911Z</time>
      </trkpt>
      <trkpt lat="48.1908374" lon="14.8115112">
        <ele>231.835</ele>
        <time>2019-05-02T14:49:57.836Z</time>
      </trkpt>
      <trkpt lat="48.1908463" lon="14.8117429">
        <ele>231.754</ele>
        <time>2019-05-02T14:50:00.577Z</time>
      </trkpt>
      <trkpt lat="48.1908611" lon="14.8119604">
        <ele>231.623</ele>
        <time>2019-05-02T14:50:03.300Z</time>
      </trkpt>
      <trkpt lat="48.1908799" lon="14.8121644">
        <ele>231.339</ele>
        <time>2019-05-02T14:50:05.947Z</time>
      </trkpt>
      <trkpt lat="48.1908840" lon="14.8123952">
        <ele>230.999</ele>
        <time>2019-05-02T14:50:08.874Z</time>
      </trkpt>
      <trkpt lat="48.1908885" lon="14.8126369">
        <ele>230.776</ele>
        <time>2019-05-02T14:50:11.862Z</time>
      </trkpt>
      <trkpt lat="48.1908974" lon="14.8128690">
        <ele>230.679</ele>
        <time>2019-05-02T14:50:14.742Z</time>
      </trkpt>
      <trkpt lat="48.1909269" lon="14.8131163">
        <ele>230.550</ele>
        <time>2019-05-02T14:50:17.815Z</time>
      </trkpt>
      <trkpt lat="48.1909548" lon="14.8133800">
        <ele>230.287</ele>
        <time>2019-05-02T14:50:20.986Z</time>
      </trkpt>
      <trkpt lat="48.1909720" lon="14.8136347">
        <ele>229.958</ele>
        <time>2019-05-02T14:50:23.966Z</time>
      </trkpt>
      <trkpt lat="48.1909994" lon="14.8139019">
        <ele>229.663</ele>
        <time>2019-05-02T14:50:27.073Z</time>
      </trkpt>
      <trkpt lat="48.1910288" lon="14.8141619">
        <ele>229.446</ele>
        <time>2019-05-02T14:50:30.060Z</time>
      </trkpt>
      <trkpt lat="48.1910506" lon="14.8144330">
        <ele>229.292</ele>
        <time>2019-05-02T14:50:33.081Z</time>
      </trkpt>
      <trkpt lat="48.1910730" lon="14.8147113">
        <ele>229.141</ele>
        <time>2019-05-02T14:50:36.141Z</time>
      </trkpt>
      <trkpt lat="48.1911125" lon="14.8149788">
        <ele>228.961</ele>
        <time>2019-05-02T14:50:39.124Z</time>
      </trkpt>
      <trkpt lat="48.1911605" lon="14.8152602">
        <ele>228.753</ele>
        <time>2019-05-02T14:50:42.226Z</time>
      </trkpt>
      <trkpt lat="48.1911978" lon="14.8155240">
        <ele>228.555</ele>
        <time>2019-05-02T14:50:45.049Z</time>
      </trkpt>
      <trkpt lat="48.1912412" lon="14.8157950">
        <ele>228.468</ele>
        <time>2019-05-02T14:50:48.008Z</time>
      </trkpt>
      <trkpt lat="48.1912878" lon="14.8160716">
        <ele>228.531</ele>
        <time>2019-05-02T14:50:51.128Z</time>
      </trkpt>
      <trkpt lat="48.1913556" lon="14.8163296">
        <ele>228.617</ele>
        <time>2019-05-02T14:50:54.211Z</time>
      </trkpt>
      <trkpt lat="48.1914185" lon="14.8165610">
        <ele>228.615</ele>
        <time>2019-05-02T14:50:57.050Z</time>
      </trkpt>
      <trkpt lat="48.1914571" lon="14.8168075">
        <ele>228.561</ele>
        <time>2019-05-02T14:50:59.980Z</time>
      </trkpt>
      <trkpt lat="48.1915119" lon="14.8170469">
        <ele>228.531</ele>
        <time>2019-05-02T14:51:02.937Z</time>
      </trkpt>
      <trkpt lat="48.1915680" lon="14.8172793">
        <ele>228.538</ele>
        <time>2019-05-02T14:51:05.900Z</time>
      </trkpt>
      <trkpt lat="48.1916262" lon="14.8175251">
        <ele>228.568</ele>
        <time>2019-05-02T14:51:09.208Z</time>
      </trkpt>
      <trkpt lat="48.1916828" lon="14.8177014">
        <ele>228.596</ele>
        <time>2019-05-02T14:51:11.979Z</time>
      </trkpt>
      <trkpt lat="48.1917371" lon="14.8178559">
        <ele>228.595</ele>
        <time>2019-05-02T14:51:14.818Z</time>
      </trkpt>
      <trkpt lat="48.1918113" lon="14.8179872">
        <ele>228.514</ele>
        <time>2019-05-02T14:51:18.070Z</time>
      </trkpt>
      <trkpt lat="48.1918499" lon="14.8181232">
        <ele>228.347</ele>
        <time>2019-05-02T14:51:21.287Z</time>
      </trkpt>
      <trkpt lat="48.1918771" lon="14.8182854">
        <ele>228.223</ele>
        <time>2019-05-02T14:51:24.997Z</time>
      </trkpt>
      <trkpt lat="48.1919503" lon="14.8184171">
        <ele>228.243</ele>
        <time>2019-05-02T14:51:28.590Z</time>
      </trkpt>
      <trkpt lat="48.1920279" lon="14.8185606">
        <ele>228.288</ele>
        <time>2019-05-02T14:51:32.055Z</time>
      </trkpt>
      <trkpt lat="48.1921177" lon="14.8187032">
        <ele>228.193</ele>
        <time>2019-05-02T14:51:35.793Z</time>
      </trkpt>
      <trkpt lat="48.1921775" lon="14.8188476">
        <ele>227.917</ele>
        <time>2019-05-02T14:51:40.077Z</time>
      </trkpt>
      <trkpt lat="48.1922071" lon="14.8189777">
        <ele>227.568</ele>
        <time>2019-05-02T14:51:44.501Z</time>
      </trkpt>
      <trkpt lat="48.1922822" lon="14.8190836">
        <ele>227.312</ele>
        <time>2019-05-02T14:51:50.335Z</time>
      </trkpt>
      <trkpt lat="48.1922916" lon="14.8192257">
        <ele>227.408</ele>
        <time>2019-05-02T14:51:56.063Z</time>
      </trkpt>
      <trkpt lat="48.1922005" lon="14.8193248">
        <ele>228.097</ele>
        <time>2019-05-02T14:52:03.284Z</time>
      </trkpt>
      <trkpt lat="48.1921275" lon="14.8194227">
        <ele>229.122</ele>
        <time>2019-05-02T14:52:09.998Z</time>
      </trkpt>
      <trkpt lat="48.1921275" lon="14.8194227">
        <ele>229.822</ele>
        <time>2019-05-02T14:52:24.998Z</time>
      </trkpt>
      <trkpt lat="48.1921275" lon="14.8194227">
        <ele>229.948</ele>
        <time>2019-05-02T14:53:00.900Z</time>
      </trkpt>
      <trkpt lat="48.1920785" lon="14.8197050">
        <ele>229.780</ele>
        <time>2019-05-02T14:53:34.998Z</time>
      </trkpt>
      <trkpt lat="48.1920785" lon="14.8197050">
        <ele>229.613</ele>
        <time>2019-05-02T14:53:40.998Z</time>
      </trkpt>
      <trkpt lat="48.1920785" lon="14.8197050">
        <ele>229.530</ele>
        <time>2019-05-02T14:54:30.743Z</time>
      </trkpt>
      <trkpt lat="48.1919157" lon="14.8197760">
        <ele>229.505</ele>
        <time>2019-05-02T14:54:40.939Z</time>
      </trkpt>
      <trkpt lat="48.1918484" lon="14.8198861">
        <ele>229.506</ele>
        <time>2019-05-02T14:54:44.289Z</time>
      </trkpt>
      <trkpt lat="48.1917853" lon="14.8200045">
        <ele>229.521</ele>
        <time>2019-05-02T14:54:47.728Z</time>
      </trkpt>
      <trkpt lat="48.1917181" lon="14.8201440">
        <ele>229.507</ele>
        <time>2019-05-02T14:54:51.466Z</time>
      </trkpt>
      <trkpt lat="48.1916700" lon="14.8202941">
        <ele>229.345</ele>
        <time>2019-05-02T14:54:54.584Z</time>
      </trkpt>
      <trkpt lat="48.1916172" lon="14.8204656">
        <ele>229.020</ele>
        <time>2019-05-02T14:54:57.792Z</time>
      </trkpt>
      <trkpt lat="48.1915661" lon="14.8206745">
        <ele>228.782</ele>
        <time>2019-05-02T14:55:01.436Z</time>
      </trkpt>
      <trkpt lat="48.1915312" lon="14.8208721">
        <ele>228.874</ele>
        <time>2019-05-02T14:55:04.826Z</time>
      </trkpt>
      <trkpt lat="48.1915048" lon="14.8210479">
        <ele>229.204</ele>
        <time>2019-05-02T14:55:07.875Z</time>
      </trkpt>
      <trkpt lat="48.1914756" lon="14.8212178">
        <ele>229.522</ele>
        <time>2019-05-02T14:55:10.625Z</time>
      </trkpt>
      <trkpt lat="48.1914407" lon="14.8213922">
        <ele>229.741</ele>
        <time>2019-05-02T14:55:13.162Z</time>
      </trkpt>
      <trkpt lat="48.1913800" lon="14.8215912">
        <ele>229.954</ele>
        <time>2019-05-02T14:55:16.018Z</time>
      </trkpt>
      <trkpt lat="48.1913015" lon="14.8218230">
        <ele>230.219</ele>
        <time>2019-05-02T14:55:19.469Z</time>
      </trkpt>
      <trkpt lat="48.1912459" lon="14.8220461">
        <ele>230.481</ele>
        <time>2019-05-02T14:55:22.593Z</time>
      </trkpt>
      <trkpt lat="48.1911969" lon="14.8222570">
        <ele>230.651</ele>
        <time>2019-05-02T14:55:25.423Z</time>
      </trkpt>
      <trkpt lat="48.1911343" lon="14.8224963">
        <ele>230.699</ele>
        <time>2019-05-02T14:55:28.627Z</time>
      </trkpt>
      <trkpt lat="48.1910832" lon="14.8227237">
        <ele>230.626</ele>
        <time>2019-05-02T14:55:31.625Z</time>
      </trkpt>
      <trkpt lat="48.1910522" lon="14.8228532">
        <ele>230.450</ele>
        <time>2019-05-02T14:55:33.345Z</time>
      </trkpt>
      <trkpt lat="48.1910244" lon="14.8229879">
        <ele>230.251</ele>
        <time>2019-05-02T14:55:35.125Z</time>
      </trkpt>
      <trkpt lat="48.1909894" lon="14.8231279">
        <ele>230.152</ele>
        <time>2019-05-02T14:55:37.011Z</time>
      </trkpt>
      <trkpt lat="48.1909466" lon="14.8232783">
        <ele>230.217</ele>
        <time>2019-05-02T14:55:39.129Z</time>
      </trkpt>
      <trkpt lat="48.1909119" lon="14.8234276">
        <ele>230.387</ele>
        <time>2019-05-02T14:55:41.177Z</time>
      </trkpt>
      <trkpt lat="48.1908841" lon="14.8236274">
        <ele>230.497</ele>
        <time>2019-05-02T14:55:43.778Z</time>
      </trkpt>
      <trkpt lat="48.1908599" lon="14.8237984">
        <ele>230.426</ele>
        <time>2019-05-02T14:55:45.961Z</time>
      </trkpt>
      <trkpt lat="48.1908273" lon="14.8239397">
        <ele>230.235</ele>
        <time>2019-05-02T14:55:47.806Z</time>
      </trkpt>
      <trkpt lat="48.1908113" lon="14.8241030">
        <ele>230.060</ele>
        <time>2019-05-02T14:55:49.811Z</time>
      </trkpt>
      <trkpt lat="48.1907941" lon="14.8242578">
        <ele>229.961</ele>
        <time>2019-05-02T14:55:51.696Z</time>
      </trkpt>
      <trkpt lat="48.1907897" lon="14.8245022">
        <ele>229.936</ele>
        <time>2019-05-02T14:55:54.612Z</time>
      </trkpt>
      <trkpt lat="48.1907673" lon="14.8247586">
        <ele>230.042</ele>
        <time>2019-05-02T14:55:57.852Z</time>
      </trkpt>
      <trkpt lat="48.1907645" lon="14.8249608">
        <ele>230.309</ele>
        <time>2019-05-02T14:56:00.502Z</time>
      </trkpt>
      <trkpt lat="48.1907714" lon="14.8251592">
        <ele>230.637</ele>
        <time>2019-05-02T14:56:03.040Z</time>
      </trkpt>
      <trkpt lat="48.1907474" lon="14.8254212">
        <ele>230.953</ele>
        <time>2019-05-02T14:56:06.119Z</time>
      </trkpt>
      <trkpt lat="48.1907481" lon="14.8256956">
        <ele>231.321</ele>
        <time>2019-05-02T14:56:09.220Z</time>
      </trkpt>
      <trkpt lat="48.1907250" lon="14.8259588">
        <ele>231.719</ele>
        <time>2019-05-02T14:56:12.292Z</time>
      </trkpt>
      <trkpt lat="48.1907298" lon="14.8262450">
        <ele>232.008</ele>
        <time>2019-05-02T14:56:15.754Z</time>
      </trkpt>
      <trkpt lat="48.1907341" lon="14.8264659">
        <ele>232.150</ele>
        <time>2019-05-02T14:56:18.511Z</time>
      </trkpt>
      <trkpt lat="48.1907152" lon="14.8266967">
        <ele>232.207</ele>
        <time>2019-05-02T14:56:21.346Z</time>
      </trkpt>
      <trkpt lat="48.1907061" lon="14.8269236">
        <ele>232.289</ele>
        <time>2019-05-02T14:56:24.038Z</time>
      </trkpt>
      <trkpt lat="48.1907007" lon="14.8271613">
        <ele>232.463</ele>
        <time>2019-05-02T14:56:26.882Z</time>
      </trkpt>
      <trkpt lat="48.1907112" lon="14.8274004">
        <ele>232.627</ele>
        <time>2019-05-02T14:56:30.007Z</time>
      </trkpt>
      <trkpt lat="48.1907458" lon="14.8275954">
        <ele>232.667</ele>
        <time>2019-05-02T14:56:32.781Z</time>
      </trkpt>
      <trkpt lat="48.1907528" lon="14.8277716">
        <ele>232.612</ele>
        <time>2019-05-02T14:56:35.120Z</time>
      </trkpt>
      <trkpt lat="48.1907540" lon="14.8279858">
        <ele>232.602</ele>
        <time>2019-05-02T14:56:37.924Z</time>
      </trkpt>
      <trkpt lat="48.1907784" lon="14.8282055">
        <ele>232.720</ele>
        <time>2019-05-02T14:56:40.751Z</time>
      </trkpt>
      <trkpt lat="48.1908051" lon="14.8284837">
        <ele>232.874</ele>
        <time>2019-05-02T14:56:44.219Z</time>
      </trkpt>
      <trkpt lat="48.1908143" lon="14.8287135">
        <ele>232.928</ele>
        <time>2019-05-02T14:56:47.123Z</time>
      </trkpt>
      <trkpt lat="48.1908348" lon="14.8289556">
        <ele>232.867</ele>
        <time>2019-05-02T14:56:50.220Z</time>
      </trkpt>
      <trkpt lat="48.1908574" lon="14.8292006">
        <ele>232.678</ele>
        <time>2019-05-02T14:56:53.249Z</time>
      </trkpt>
      <trkpt lat="48.1908847" lon="14.8294504">
        <ele>232.363</ele>
        <time>2019-05-02T14:56:56.263Z</time>
      </trkpt>
      <trkpt lat="48.1909186" lon="14.8296842">
        <ele>232.023</ele>
        <time>2019-05-02T14:56:59.094Z</time>
      </trkpt>
      <trkpt lat="48.1909821" lon="14.8298938">
        <ele>231.756</ele>
        <time>2019-05-02T14:57:01.850Z</time>
      </trkpt>
      <trkpt lat="48.1910520" lon="14.8300879">
        <ele>231.570</ele>
        <time>2019-05-02T14:57:04.533Z</time>
      </trkpt>
      <trkpt lat="48.1911153" lon="14.8302900">
        <ele>231.541</ele>
        <time>2019-05-02T14:57:07.286Z</time>
      </trkpt>
      <trkpt lat="48.1912017" lon="14.8305076">
        <ele>231.750</ele>
        <time>2019-05-02T14:57:10.453Z</time>
      </trkpt>
      <trkpt lat="48.1912795" lon="14.8307137">
        <ele>232.099</ele>
        <time>2019-05-02T14:57:13.439Z</time>
      </trkpt>
      <trkpt lat="48.1913659" lon="14.8308787">
        <ele>232.384</ele>
        <time>2019-05-02T14:57:16.029Z</time>
      </trkpt>
      <trkpt lat="48.1914773" lon="14.8310717">
        <ele>232.529</ele>
        <time>2019-05-02T14:57:19.039Z</time>
      </trkpt>
      <trkpt lat="48.1916033" lon="14.8312641">
        <ele>232.623</ele>
        <time>2019-05-02T14:57:22.103Z</time>
      </trkpt>
      <trkpt lat="48.1917287" lon="14.8314320">
        <ele>232.785</ele>
        <time>2019-05-02T14:57:24.928Z</time>
      </trkpt>
      <trkpt lat="48.1918640" lon="14.8315708">
        <ele>233.008</ele>
        <time>2019-05-02T14:57:27.685Z</time>
      </trkpt>
      <trkpt lat="48.1919896" lon="14.8317459">
        <ele>233.173</ele>
        <time>2019-05-02T14:57:30.598Z</time>
      </trkpt>
      <trkpt lat="48.1921047" lon="14.8319263">
        <ele>233.217</ele>
        <time>2019-05-02T14:57:33.467Z</time>
      </trkpt>
      <trkpt lat="48.1922019" lon="14.8321327">
        <ele>233.171</ele>
        <time>2019-05-02T14:57:36.493Z</time>
      </trkpt>
      <trkpt lat="48.1923333" lon="14.8322816">
        <ele>233.092</ele>
        <time>2019-05-02T14:57:39.617Z</time>
      </trkpt>
      <trkpt lat="48.1924166" lon="14.8324245">
        <ele>233.013</ele>
        <time>2019-05-02T14:57:42.114Z</time>
      </trkpt>
      <trkpt lat="48.1925473" lon="14.8325420">
        <ele>232.951</ele>
        <time>2019-05-02T14:57:45.066Z</time>
      </trkpt>
      <trkpt lat="48.1926768" lon="14.8327225">
        <ele>232.919</ele>
        <time>2019-05-02T14:57:48.187Z</time>
      </trkpt>
      <trkpt lat="48.1927485" lon="14.8328995">
        <ele>232.861</ele>
        <time>2019-05-02T14:57:50.534Z</time>
      </trkpt>
      <trkpt lat="48.1928512" lon="14.8330941">
        <ele>232.630</ele>
        <time>2019-05-02T14:57:53.360Z</time>
      </trkpt>
      <trkpt lat="48.1929666" lon="14.8333159">
        <ele>232.064</ele>
        <time>2019-05-02T14:57:56.508Z</time>
      </trkpt>
      <trkpt lat="48.1930970" lon="14.8335361">
        <ele>231.190</ele>
        <time>2019-05-02T14:57:59.759Z</time>
      </trkpt>
      <trkpt lat="48.1931991" lon="14.8337354">
        <ele>230.254</ele>
        <time>2019-05-02T14:58:02.588Z</time>
      </trkpt>
      <trkpt lat="48.1933341" lon="14.8339903">
        <ele>229.506</ele>
        <time>2019-05-02T14:58:06.166Z</time>
      </trkpt>
      <trkpt lat="48.1934466" lon="14.8342629">
        <ele>229.026</ele>
        <time>2019-05-02T14:58:09.497Z</time>
      </trkpt>
      <trkpt lat="48.1935705" lon="14.8345226">
        <ele>228.763</ele>
        <time>2019-05-02T14:58:12.740Z</time>
      </trkpt>
      <trkpt lat="48.1936942" lon="14.8347501">
        <ele>228.641</ele>
        <time>2019-05-02T14:58:15.699Z</time>
      </trkpt>
      <trkpt lat="48.1938224" lon="14.8349944">
        <ele>228.606</ele>
        <time>2019-05-02T14:58:18.818Z</time>
      </trkpt>
      <trkpt lat="48.1939371" lon="14.8352202">
        <ele>228.587</ele>
        <time>2019-05-02T14:58:21.660Z</time>
      </trkpt>
      <trkpt lat="48.1940358" lon="14.8354040">
        <ele>228.580</ele>
        <time>2019-05-02T14:58:24.061Z</time>
      </trkpt>
      <trkpt lat="48.1941691" lon="14.8356348">
        <ele>228.638</ele>
        <time>2019-05-02T14:58:27.255Z</time>
      </trkpt>
      <trkpt lat="48.1942842" lon="14.8358080">
        <ele>228.778</ele>
        <time>2019-05-02T14:58:29.836Z</time>
      </trkpt>
      <trkpt lat="48.1943773" lon="14.8360419">
        <ele>228.968</ele>
        <time>2019-05-02T14:58:32.778Z</time>
      </trkpt>
      <trkpt lat="48.1944784" lon="14.8362298">
        <ele>229.199</ele>
        <time>2019-05-02T14:58:35.435Z</time>
      </trkpt>
      <trkpt lat="48.1945742" lon="14.8364122">
        <ele>229.489</ele>
        <time>2019-05-02T14:58:37.959Z</time>
      </trkpt>
      <trkpt lat="48.1946685" lon="14.8366253">
        <ele>229.908</ele>
        <time>2019-05-02T14:58:40.644Z</time>
      </trkpt>
      <trkpt lat="48.1947155" lon="14.8368371">
        <ele>230.589</ele>
        <time>2019-05-02T14:58:42.926Z</time>
      </trkpt>
      <trkpt lat="48.1947722" lon="14.8371185">
        <ele>231.428</ele>
        <time>2019-05-02T14:58:45.906Z</time>
      </trkpt>
      <trkpt lat="48.1948178" lon="14.8374145">
        <ele>231.973</ele>
        <time>2019-05-02T14:58:49.000Z</time>
      </trkpt>
      <trkpt lat="48.1948699" lon="14.8376871">
        <ele>231.977</ele>
        <time>2019-05-02T14:58:51.849Z</time>
      </trkpt>
      <trkpt lat="48.1949893" lon="14.8379332">
        <ele>231.688</ele>
        <time>2019-05-02T14:58:54.922Z</time>
      </trkpt>
      <trkpt lat="48.1951053" lon="14.8381779">
        <ele>231.453</ele>
        <time>2019-05-02T14:58:58.064Z</time>
      </trkpt>
      <trkpt lat="48.1950582" lon="14.8384056">
        <ele>231.577</ele>
        <time>2019-05-02T14:59:00.644Z</time>
      </trkpt>
      <trkpt lat="48.1949568" lon="14.8386109">
        <ele>232.124</ele>
        <time>2019-05-02T14:59:03.472Z</time>
      </trkpt>
      <trkpt lat="48.1949416" lon="14.8388870">
        <ele>232.739</ele>
        <time>2019-05-02T14:59:06.453Z</time>
      </trkpt>
      <trkpt lat="48.1949550" lon="14.8391207">
        <ele>233.062</ele>
        <time>2019-05-02T14:59:08.941Z</time>
      </trkpt>
      <trkpt lat="48.1950303" lon="14.8394313">
        <ele>233.060</ele>
        <time>2019-05-02T14:59:12.581Z</time>
      </trkpt>
      <trkpt lat="48.1951159" lon="14.8396785">
        <ele>232.706</ele>
        <time>2019-05-02T14:59:15.611Z</time>
      </trkpt>
      <trkpt lat="48.1951709" lon="14.8398942">
        <ele>231.924</ele>
        <time>2019-05-02T14:59:18.055Z</time>
      </trkpt>
      <trkpt lat="48.1952242" lon="14.8401621">
        <ele>230.953</ele>
        <time>2019-05-02T14:59:21.071Z</time>
      </trkpt>
      <trkpt lat="48.1952561" lon="14.8404276">
        <ele>230.266</ele>
        <time>2019-05-02T14:59:24.061Z</time>
      </trkpt>
      <trkpt lat="48.1952884" lon="14.8406505">
        <ele>230.016</ele>
        <time>2019-05-02T14:59:26.603Z</time>
      </trkpt>
      <trkpt lat="48.1953256" lon="14.8409098">
        <ele>229.965</ele>
        <time>2019-05-02T14:59:29.622Z</time>
      </trkpt>
      <trkpt lat="48.1953720" lon="14.8411274">
        <ele>229.897</ele>
        <time>2019-05-02T14:59:32.235Z</time>
      </trkpt>
      <trkpt lat="48.1954270" lon="14.8413653">
        <ele>229.825</ele>
        <time>2019-05-02T14:59:35.082Z</time>
      </trkpt>
      <trkpt lat="48.1954740" lon="14.8416532">
        <ele>229.884</ele>
        <time>2019-05-02T14:59:38.432Z</time>
      </trkpt>
      <trkpt lat="48.1955450" lon="14.8418991">
        <ele>230.159</ele>
        <time>2019-05-02T14:59:41.405Z</time>
      </trkpt>
      <trkpt lat="48.1956197" lon="14.8421006">
        <ele>230.555</ele>
        <time>2019-05-02T14:59:43.894Z</time>
      </trkpt>
      <trkpt lat="48.1956965" lon="14.8423244">
        <ele>230.847</ele>
        <time>2019-05-02T14:59:46.663Z</time>
      </trkpt>
      <trkpt lat="48.1957859" lon="14.8425419">
        <ele>230.911</ele>
        <time>2019-05-02T14:59:49.566Z</time>
      </trkpt>
      <trkpt lat="48.1958709" lon="14.8427422">
        <ele>230.812</ele>
        <time>2019-05-02T14:59:52.287Z</time>
      </trkpt>
      <trkpt lat="48.1959576" lon="14.8429459">
        <ele>230.689</ele>
        <time>2019-05-02T14:59:55.034Z</time>
      </trkpt>
      <trkpt lat="48.1960548" lon="14.8431521">
        <ele>230.663</ele>
        <time>2019-05-02T14:59:57.915Z</time>
      </trkpt>
      <trkpt lat="48.1961499" lon="14.8433422">
        <ele>230.748</ele>
        <time>2019-05-02T15:00:00.679Z</time>
      </trkpt>
      <trkpt lat="48.1962576" lon="14.8435259">
        <ele>230.736</ele>
        <time>2019-05-02T15:00:03.574Z</time>
      </trkpt>
      <trkpt lat="48.1963587" lon="14.8436781">
        <ele>230.438</ele>
        <time>2019-05-02T15:00:06.137Z</time>
      </trkpt>
      <trkpt lat="48.1964634" lon="14.8438357">
        <ele>230.016</ele>
        <time>2019-05-02T15:00:08.797Z</time>
      </trkpt>
      <trkpt lat="48.1965768" lon="14.8439798">
        <ele>229.676</ele>
        <time>2019-05-02T15:00:11.602Z</time>
      </trkpt>
      <trkpt lat="48.1966752" lon="14.8440966">
        <ele>229.361</ele>
        <time>2019-05-02T15:00:14.104Z</time>
      </trkpt>
      <trkpt lat="48.1967953" lon="14.8441873">
        <ele>229.007</ele>
        <time>2019-05-02T15:00:16.840Z</time>
      </trkpt>
      <trkpt lat="48.1969331" lon="14.8443051">
        <ele>228.704</ele>
        <time>2019-05-02T15:00:20.137Z</time>
      </trkpt>
      <trkpt lat="48.1970739" lon="14.8443924">
        <ele>228.559</ele>
        <time>2019-05-02T15:00:23.357Z</time>
      </trkpt>
      <trkpt lat="48.1972170" lon="14.8444944">
        <ele>228.580</ele>
        <time>2019-05-02T15:00:26.526Z</time>
      </trkpt>
      <trkpt lat="48.1973624" lon="14.8445953">
        <ele>228.696</ele>
        <time>2019-05-02T15:00:29.557Z</time>
      </trkpt>
      <trkpt lat="48.1974993" lon="14.8447181">
        <ele>228.836</ele>
        <time>2019-05-02T15:00:32.547Z</time>
      </trkpt>
      <trkpt lat="48.1976506" lon="14.8448103">
        <ele>228.960</ele>
        <time>2019-05-02T15:00:35.574Z</time>
      </trkpt>
      <trkpt lat="48.1978033" lon="14.8448932">
        <ele>228.990</ele>
        <time>2019-05-02T15:00:38.580Z</time>
      </trkpt>
      <trkpt lat="48.1979546" lon="14.8449634">
        <ele>228.894</ele>
        <time>2019-05-02T15:00:41.505Z</time>
      </trkpt>
      <trkpt lat="48.1981258" lon="14.8450213">
        <ele>228.740</ele>
        <time>2019-05-02T15:00:44.820Z</time>
      </trkpt>
      <trkpt lat="48.1982914" lon="14.8450468">
        <ele>228.599</ele>
        <time>2019-05-02T15:00:47.923Z</time>
      </trkpt>
      <trkpt lat="48.1984354" lon="14.8450806">
        <ele>228.570</ele>
        <time>2019-05-02T15:00:50.503Z</time>
      </trkpt>
      <trkpt lat="48.1985645" lon="14.8451125">
        <ele>228.796</ele>
        <time>2019-05-02T15:00:52.807Z</time>
      </trkpt>
      <trkpt lat="48.1987016" lon="14.8451477">
        <ele>229.222</ele>
        <time>2019-05-02T15:00:55.383Z</time>
      </trkpt>
      <trkpt lat="48.1988266" lon="14.8451542">
        <ele>229.603</ele>
        <time>2019-05-02T15:00:57.936Z</time>
      </trkpt>
      <trkpt lat="48.1989493" lon="14.8451438">
        <ele>229.788</ele>
        <time>2019-05-02T15:01:00.712Z</time>
      </trkpt>
      <trkpt lat="48.1990725" lon="14.8451540">
        <ele>229.879</ele>
        <time>2019-05-02T15:01:03.531Z</time>
      </trkpt>
      <trkpt lat="48.1991977" lon="14.8451760">
        <ele>230.058</ele>
        <time>2019-05-02T15:01:06.362Z</time>
      </trkpt>
      <trkpt lat="48.1993478" lon="14.8452091">
        <ele>230.334</ele>
        <time>2019-05-02T15:01:09.894Z</time>
      </trkpt>
      <trkpt lat="48.1995382" lon="14.8452582">
        <ele>230.531</ele>
        <time>2019-05-02T15:01:14.341Z</time>
      </trkpt>
      <trkpt lat="48.1997054" lon="14.8452854">
        <ele>230.540</ele>
        <time>2019-05-02T15:01:17.854Z</time>
      </trkpt>
      <trkpt lat="48.2000091" lon="14.8453547">
        <ele>230.355</ele>
        <time>2019-05-02T15:01:23.120Z</time>
      </trkpt>
      <trkpt lat="48.2001756" lon="14.8453955">
        <ele>230.043</ele>
        <time>2019-05-02T15:01:25.797Z</time>
      </trkpt>
      <trkpt lat="48.2003621" lon="14.8454572">
        <ele>229.765</ele>
        <time>2019-05-02T15:01:28.702Z</time>
      </trkpt>
      <trkpt lat="48.2005227" lon="14.8455532">
        <ele>229.669</ele>
        <time>2019-05-02T15:01:31.363Z</time>
      </trkpt>
      <trkpt lat="48.2007064" lon="14.8456557">
        <ele>229.887</ele>
        <time>2019-05-02T15:01:34.496Z</time>
      </trkpt>
      <trkpt lat="48.2008859" lon="14.8457415">
        <ele>230.434</ele>
        <time>2019-05-02T15:01:37.537Z</time>
      </trkpt>
      <trkpt lat="48.2010812" lon="14.8458417">
        <ele>231.161</ele>
        <time>2019-05-02T15:01:40.831Z</time>
      </trkpt>
      <trkpt lat="48.2012508" lon="14.8459444">
        <ele>232.052</ele>
        <time>2019-05-02T15:01:43.656Z</time>
      </trkpt>
      <trkpt lat="48.2014148" lon="14.8460141">
        <ele>233.106</ele>
        <time>2019-05-02T15:01:46.228Z</time>
      </trkpt>
      <trkpt lat="48.2016092" lon="14.8461190">
        <ele>234.017</ele>
        <time>2019-05-02T15:01:49.383Z</time>
      </trkpt>
      <trkpt lat="48.2017578" lon="14.8462039">
        <ele>234.371</ele>
        <time>2019-05-02T15:01:51.883Z</time>
      </trkpt>
      <trkpt lat="48.2018928" lon="14.8462603">
        <ele>233.610</ele>
        <time>2019-05-02T15:01:54.110Z</time>
      </trkpt>
      <trkpt lat="48.2020341" lon="14.8463279">
        <ele>231.533</ele>
        <time>2019-05-02T15:01:56.590Z</time>
      </trkpt>
      <trkpt lat="48.2021545" lon="14.8464143">
        <ele>229.120</ele>
        <time>2019-05-02T15:01:59.093Z</time>
      </trkpt>
      <trkpt lat="48.2022769" lon="14.8464803">
        <ele>228.140</ele>
        <time>2019-05-02T15:02:01.633Z</time>
      </trkpt>
      <trkpt lat="48.2024088" lon="14.8464942">
        <ele>229.073</ele>
        <time>2019-05-02T15:02:04.196Z</time>
      </trkpt>
      <trkpt lat="48.2025297" lon="14.8465607">
        <ele>230.584</ele>
        <time>2019-05-02T15:02:06.671Z</time>
      </trkpt>
      <trkpt lat="48.2026166" lon="14.8466488">
        <ele>231.455</ele>
        <time>2019-05-02T15:02:08.745Z</time>
      </trkpt>
      <trkpt lat="48.2027358" lon="14.8467380">
        <ele>231.679</ele>
        <time>2019-05-02T15:02:11.756Z</time>
      </trkpt>
      <trkpt lat="48.2028675" lon="14.8468740">
        <ele>231.549</ele>
        <time>2019-05-02T15:02:15.764Z</time>
      </trkpt>
      <trkpt lat="48.2030101" lon="14.8469796">
        <ele>231.294</ele>
        <time>2019-05-02T15:02:19.557Z</time>
      </trkpt>
      <trkpt lat="48.2031522" lon="14.8471456">
        <ele>231.004</ele>
        <time>2019-05-02T15:02:23.379Z</time>
      </trkpt>
      <trkpt lat="48.2033051" lon="14.8472786">
        <ele>230.622</ele>
        <time>2019-05-02T15:02:26.579Z</time>
      </trkpt>
      <trkpt lat="48.2034556" lon="14.8474467">
        <ele>230.147</ele>
        <time>2019-05-02T15:02:29.663Z</time>
      </trkpt>
      <trkpt lat="48.2036008" lon="14.8475920">
        <ele>229.751</ele>
        <time>2019-05-02T15:02:32.505Z</time>
      </trkpt>
      <trkpt lat="48.2037413" lon="14.8477588">
        <ele>229.544</ele>
        <time>2019-05-02T15:02:35.472Z</time>
      </trkpt>
      <trkpt lat="48.2038971" lon="14.8479009">
        <ele>229.463</ele>
        <time>2019-05-02T15:02:38.489Z</time>
      </trkpt>
      <trkpt lat="48.2040533" lon="14.8480191">
        <ele>229.405</ele>
        <time>2019-05-02T15:02:41.289Z</time>
      </trkpt>
      <trkpt lat="48.2041567" lon="14.8481576">
        <ele>229.375</ele>
        <time>2019-05-02T15:02:43.513Z</time>
      </trkpt>
      <trkpt lat="48.2042751" lon="14.8482996">
        <ele>229.417</ele>
        <time>2019-05-02T15:02:46.013Z</time>
      </trkpt>
      <trkpt lat="48.2043705" lon="14.8484268">
        <ele>229.517</ele>
        <time>2019-05-02T15:02:48.200Z</time>
      </trkpt>
      <trkpt lat="48.2044921" lon="14.8485329">
        <ele>229.626</ele>
        <time>2019-05-02T15:02:50.714Z</time>
      </trkpt>
      <trkpt lat="48.2046368" lon="14.8487092">
        <ele>229.722</ele>
        <time>2019-05-02T15:02:54.178Z</time>
      </trkpt>
      <trkpt lat="48.2047699" lon="14.8488776">
        <ele>229.824</ele>
        <time>2019-05-02T15:02:57.512Z</time>
      </trkpt>
      <trkpt lat="48.2049196" lon="14.8490178">
        <ele>229.977</ele>
        <time>2019-05-02T15:03:00.747Z</time>
      </trkpt>
      <trkpt lat="48.2050369" lon="14.8491458">
        <ele>230.176</ele>
        <time>2019-05-02T15:03:03.210Z</time>
      </trkpt>
      <trkpt lat="48.2051565" lon="14.8492639">
        <ele>230.347</ele>
        <time>2019-05-02T15:03:05.554Z</time>
      </trkpt>
      <trkpt lat="48.2053196" lon="14.8494047">
        <ele>230.373</ele>
        <time>2019-05-02T15:03:08.772Z</time>
      </trkpt>
      <trkpt lat="48.2054661" lon="14.8495555">
        <ele>230.231</ele>
        <time>2019-05-02T15:03:12.069Z</time>
      </trkpt>
      <trkpt lat="48.2056059" lon="14.8497192">
        <ele>230.056</ele>
        <time>2019-05-02T15:03:15.461Z</time>
      </trkpt>
      <trkpt lat="48.2057409" lon="14.8498354">
        <ele>229.844</ele>
        <time>2019-05-02T15:03:18.262Z</time>
      </trkpt>
      <trkpt lat="48.2058878" lon="14.8499458">
        <ele>229.496</ele>
        <time>2019-05-02T15:03:21.013Z</time>
      </trkpt>
      <trkpt lat="48.2060275" lon="14.8500799">
        <ele>229.143</ele>
        <time>2019-05-02T15:03:23.844Z</time>
      </trkpt>
      <trkpt lat="48.2061892" lon="14.8502140">
        <ele>229.004</ele>
        <time>2019-05-02T15:03:27.229Z</time>
      </trkpt>
      <trkpt lat="48.2063432" lon="14.8503570">
        <ele>229.132</ele>
        <time>2019-05-02T15:03:30.531Z</time>
      </trkpt>
      <trkpt lat="48.2064562" lon="14.8504847">
        <ele>229.536</ele>
        <time>2019-05-02T15:03:33.022Z</time>
      </trkpt>
      <trkpt lat="48.2065502" lon="14.8506242">
        <ele>230.238</ele>
        <time>2019-05-02T15:03:35.217Z</time>
      </trkpt>
      <trkpt lat="48.2066397" lon="14.8507520">
        <ele>231.087</ele>
        <time>2019-05-02T15:03:37.275Z</time>
      </trkpt>
      <trkpt lat="48.2067431" lon="14.8508851">
        <ele>231.744</ele>
        <time>2019-05-02T15:03:39.613Z</time>
      </trkpt>
      <trkpt lat="48.2068643" lon="14.8510241">
        <ele>232.024</ele>
        <time>2019-05-02T15:03:42.532Z</time>
      </trkpt>
      <trkpt lat="48.2069869" lon="14.8511771">
        <ele>232.009</ele>
        <time>2019-05-02T15:03:45.988Z</time>
      </trkpt>
      <trkpt lat="48.2071222" lon="14.8513361">
        <ele>231.800</ele>
        <time>2019-05-02T15:03:49.892Z</time>
      </trkpt>
      <trkpt lat="48.2072784" lon="14.8514917">
        <ele>231.415</ele>
        <time>2019-05-02T15:03:53.771Z</time>
      </trkpt>
      <trkpt lat="48.2074274" lon="14.8516536">
        <ele>230.875</ele>
        <time>2019-05-02T15:03:57.254Z</time>
      </trkpt>
      <trkpt lat="48.2076043" lon="14.8518232">
        <ele>230.326</ele>
        <time>2019-05-02T15:04:01.077Z</time>
      </trkpt>
      <trkpt lat="48.2077276" lon="14.8519867">
        <ele>229.988</ele>
        <time>2019-05-02T15:04:03.998Z</time>
      </trkpt>
      <trkpt lat="48.2078711" lon="14.8521633">
        <ele>229.925</ele>
        <time>2019-05-02T15:04:07.190Z</time>
      </trkpt>
      <trkpt lat="48.2080235" lon="14.8523308">
        <ele>229.924</ele>
        <time>2019-05-02T15:04:10.408Z</time>
      </trkpt>
      <trkpt lat="48.2081668" lon="14.8524709">
        <ele>229.769</ele>
        <time>2019-05-02T15:04:13.390Z</time>
      </trkpt>
      <trkpt lat="48.2083011" lon="14.8526136">
        <ele>229.501</ele>
        <time>2019-05-02T15:04:16.355Z</time>
      </trkpt>
      <trkpt lat="48.2084240" lon="14.8527493">
        <ele>229.362</ele>
        <time>2019-05-02T15:04:19.181Z</time>
      </trkpt>
      <trkpt lat="48.2085558" lon="14.8528547">
        <ele>229.451</ele>
        <time>2019-05-02T15:04:21.945Z</time>
      </trkpt>
      <trkpt lat="48.2086834" lon="14.8529923">
        <ele>229.623</ele>
        <time>2019-05-02T15:04:24.789Z</time>
      </trkpt>
      <trkpt lat="48.2087854" lon="14.8531231">
        <ele>229.728</ele>
        <time>2019-05-02T15:04:27.223Z</time>
      </trkpt>
      <trkpt lat="48.2088961" lon="14.8532643">
        <ele>229.755</ele>
        <time>2019-05-02T15:04:30.009Z</time>
      </trkpt>
      <trkpt lat="48.2090024" lon="14.8534009">
        <ele>229.714</ele>
        <time>2019-05-02T15:04:32.747Z</time>
      </trkpt>
      <trkpt lat="48.2091199" lon="14.8535144">
        <ele>229.488</ele>
        <time>2019-05-02T15:04:35.526Z</time>
      </trkpt>
      <trkpt lat="48.2092180" lon="14.8536722">
        <ele>229.026</ele>
        <time>2019-05-02T15:04:38.465Z</time>
      </trkpt>
      <trkpt lat="48.2093406" lon="14.8537925">
        <ele>228.484</ele>
        <time>2019-05-02T15:04:41.439Z</time>
      </trkpt>
      <trkpt lat="48.2094682" lon="14.8538770">
        <ele>228.042</ele>
        <time>2019-05-02T15:04:44.253Z</time>
      </trkpt>
      <trkpt lat="48.2096413" lon="14.8539824">
        <ele>227.778</ele>
        <time>2019-05-02T15:04:48.079Z</time>
      </trkpt>
      <trkpt lat="48.2098060" lon="14.8541347">
        <ele>227.693</ele>
        <time>2019-05-02T15:04:52.272Z</time>
      </trkpt>
      <trkpt lat="48.2099813" lon="14.8542649">
        <ele>227.716</ele>
        <time>2019-05-02T15:04:56.440Z</time>
      </trkpt>
      <trkpt lat="48.2101602" lon="14.8543926">
        <ele>227.802</ele>
        <time>2019-05-02T15:05:00.223Z</time>
      </trkpt>
      <trkpt lat="48.2103826" lon="14.8545185">
        <ele>227.904</ele>
        <time>2019-05-02T15:05:04.607Z</time>
      </trkpt>
      <trkpt lat="48.2106137" lon="14.8546465">
        <ele>227.996</ele>
        <time>2019-05-02T15:05:08.887Z</time>
      </trkpt>
      <trkpt lat="48.2108002" lon="14.8547680">
        <ele>228.092</ele>
        <time>2019-05-02T15:05:12.124Z</time>
      </trkpt>
      <trkpt lat="48.2109924" lon="14.8548487">
        <ele>228.200</ele>
        <time>2019-05-02T15:05:15.196Z</time>
      </trkpt>
      <trkpt lat="48.2111600" lon="14.8549249">
        <ele>228.319</ele>
        <time>2019-05-02T15:05:17.965Z</time>
      </trkpt>
      <trkpt lat="48.2113148" lon="14.8549993">
        <ele>228.439</ele>
        <time>2019-05-02T15:05:20.703Z</time>
      </trkpt>
      <trkpt lat="48.2114579" lon="14.8550472">
        <ele>228.524</ele>
        <time>2019-05-02T15:05:23.282Z</time>
      </trkpt>
      <trkpt lat="48.2115915" lon="14.8550649">
        <ele>228.558</ele>
        <time>2019-05-02T15:05:25.759Z</time>
      </trkpt>
      <trkpt lat="48.2117152" lon="14.8551239">
        <ele>227.291</ele>
        <time>2019-05-02T15:05:28.274Z</time>
      </trkpt>
      <trkpt lat="48.2118378" lon="14.8551870">
        <ele>222.847</ele>
        <time>2019-05-02T15:05:30.930Z</time>
      </trkpt>
      <trkpt lat="48.2119501" lon="14.8552497">
        <ele>215.856</ele>
        <time>2019-05-02T15:05:33.559Z</time>
      </trkpt>
      <trkpt lat="48.2120657" lon="14.8552912">
        <ele>208.760</ele>
        <time>2019-05-02T15:05:36.340Z</time>
      </trkpt>
      <trkpt lat="48.2121922" lon="14.8553484">
        <ele>203.178</ele>
        <time>2019-05-02T15:05:39.530Z</time>
      </trkpt>
      <trkpt lat="48.2123237" lon="14.8554122">
        <ele>199.945</ele>
        <time>2019-05-02T15:05:42.910Z</time>
      </trkpt>
      <trkpt lat="48.2124599" lon="14.8554860">
        <ele>202.879</ele>
        <time>2019-05-02T15:05:46.249Z</time>
      </trkpt>
      <trkpt lat="48.2126340" lon="14.8555849">
        <ele>213.276</ele>
        <time>2019-05-02T15:05:50.387Z</time>
      </trkpt>
      <trkpt lat="48.2127606" lon="14.8556135">
        <ele>224.168</ele>
        <time>2019-05-02T15:05:53.311Z</time>
      </trkpt>
      <trkpt lat="48.2128377" lon="14.8556864">
        <ele>229.372</ele>
        <time>2019-05-02T15:05:55.693Z</time>
      </trkpt>
      <trkpt lat="48.2129557" lon="14.8557455">
        <ele>230.183</ele>
        <time>2019-05-02T15:05:59.460Z</time>
      </trkpt>
      <trkpt lat="48.2130984" lon="14.8558031">
        <ele>229.338</ele>
        <time>2019-05-02T15:06:03.720Z</time>
      </trkpt>
      <trkpt lat="48.2132661" lon="14.8558691">
        <ele>228.452</ele>
        <time>2019-05-02T15:06:07.713Z</time>
      </trkpt>
      <trkpt lat="48.2134383" lon="14.8558549">
        <ele>227.962</ele>
        <time>2019-05-02T15:06:11.334Z</time>
      </trkpt>
      <trkpt lat="48.2136048" lon="14.8558521">
        <ele>227.885</ele>
        <time>2019-05-02T15:06:14.788Z</time>
      </trkpt>
      <trkpt lat="48.2137656" lon="14.8558590">
        <ele>228.131</ele>
        <time>2019-05-02T15:06:18.121Z</time>
      </trkpt>
      <trkpt lat="48.2139233" lon="14.8558641">
        <ele>228.475</ele>
        <time>2019-05-02T15:06:21.294Z</time>
      </trkpt>
      <trkpt lat="48.2140837" lon="14.8558726">
        <ele>228.703</ele>
        <time>2019-05-02T15:06:24.409Z</time>
      </trkpt>
      <trkpt lat="48.2142515" lon="14.8558953">
        <ele>228.782</ele>
        <time>2019-05-02T15:06:27.638Z</time>
      </trkpt>
      <trkpt lat="48.2144014" lon="14.8559017">
        <ele>228.762</ele>
        <time>2019-05-02T15:06:30.552Z</time>
      </trkpt>
      <trkpt lat="48.2145328" lon="14.8558996">
        <ele>228.684</ele>
        <time>2019-05-02T15:06:33.210Z</time>
      </trkpt>
      <trkpt lat="48.2146635" lon="14.8558990">
        <ele>228.588</ele>
        <time>2019-05-02T15:06:35.933Z</time>
      </trkpt>
      <trkpt lat="48.2148061" lon="14.8558941">
        <ele>228.516</ele>
        <time>2019-05-02T15:06:38.807Z</time>
      </trkpt>
      <trkpt lat="48.2149651" lon="14.8558774">
        <ele>228.485</ele>
        <time>2019-05-02T15:06:41.844Z</time>
      </trkpt>
      <trkpt lat="48.2151145" lon="14.8558497">
        <ele>228.489</ele>
        <time>2019-05-02T15:06:44.554Z</time>
      </trkpt>
      <trkpt lat="48.2152568" lon="14.8557994">
        <ele>228.526</ele>
        <time>2019-05-02T15:06:47.247Z</time>
      </trkpt>
      <trkpt lat="48.2154054" lon="14.8557725">
        <ele>228.626</ele>
        <time>2019-05-02T15:06:50.117Z</time>
      </trkpt>
      <trkpt lat="48.2155608" lon="14.8557600">
        <ele>228.778</ele>
        <time>2019-05-02T15:06:53.007Z</time>
      </trkpt>
      <trkpt lat="48.2157322" lon="14.8557336">
        <ele>228.901</ele>
        <time>2019-05-02T15:06:56.054Z</time>
      </trkpt>
      <trkpt lat="48.2158738" lon="14.8557057">
        <ele>228.910</ele>
        <time>2019-05-02T15:06:58.612Z</time>
      </trkpt>
      <trkpt lat="48.2160353" lon="14.8556851">
        <ele>228.810</ele>
        <time>2019-05-02T15:07:01.612Z</time>
      </trkpt>
      <trkpt lat="48.2161960" lon="14.8556763">
        <ele>228.685</ele>
        <time>2019-05-02T15:07:04.638Z</time>
      </trkpt>
      <trkpt lat="48.2163532" lon="14.8556581">
        <ele>228.565</ele>
        <time>2019-05-02T15:07:07.607Z</time>
      </trkpt>
      <trkpt lat="48.2164905" lon="14.8556276">
        <ele>228.423</ele>
        <time>2019-05-02T15:07:10.187Z</time>
      </trkpt>
      <trkpt lat="48.2169636" lon="14.8555818">
        <ele>228.228</ele>
        <time>2019-05-02T15:07:18.977Z</time>
      </trkpt>
      <trkpt lat="48.2174333" lon="14.8554910">
        <ele>228.208</ele>
        <time>2019-05-02T15:07:28.082Z</time>
      </trkpt>
      <trkpt lat="48.2176454" lon="14.8554392">
        <ele>228.186</ele>
        <time>2019-05-02T15:07:32.208Z</time>
      </trkpt>
      <trkpt lat="48.2178242" lon="14.8554285">
        <ele>228.148</ele>
        <time>2019-05-02T15:07:35.520Z</time>
      </trkpt>
      <trkpt lat="48.2179813" lon="14.8553879">
        <ele>228.178</ele>
        <time>2019-05-02T15:07:38.516Z</time>
      </trkpt>
      <trkpt lat="48.2179813" lon="14.8553879">
        <ele>228.178</ele>
        <time>2019-05-02T15:07:38.516Z</time>
      </trkpt>
      <trkpt lat="48.2206951" lon="14.8544637">
        <ele>228.348</ele>
        <time>2019-05-02T15:08:41.790Z</time>
      </trkpt>
      <trkpt lat="48.2207735" lon="14.8543894">
        <ele>228.243</ele>
        <time>2019-05-02T15:08:45.637Z</time>
      </trkpt>
      <trkpt lat="48.2208668" lon="14.8542808">
        <ele>228.204</ele>
        <time>2019-05-02T15:08:50.383Z</time>
      </trkpt>
      <trkpt lat="48.2209498" lon="14.8542276">
        <ele>228.354</ele>
        <time>2019-05-02T15:08:54.131Z</time>
      </trkpt>
      <trkpt lat="48.2210483" lon="14.8542145">
        <ele>228.913</ele>
        <time>2019-05-02T15:08:59.238Z</time>
      </trkpt>
      <trkpt lat="48.2211414" lon="14.8541737">
        <ele>229.844</ele>
        <time>2019-05-02T15:09:05.489Z</time>
      </trkpt>
      <trkpt lat="48.2212373" lon="14.8541109">
        <ele>230.778</ele>
        <time>2019-05-02T15:09:15.718Z</time>
      </trkpt>
      <trkpt lat="48.2211852" lon="14.8542302">
        <ele>231.377</ele>
        <time>2019-05-02T15:09:26.999Z</time>
      </trkpt>
      <trkpt lat="48.2211852" lon="14.8542302">
        <ele>231.541</ele>
        <time>2019-05-02T15:09:35.999Z</time>
      </trkpt>
      <trkpt lat="48.2211852" lon="14.8542302">
        <ele>231.406</ele>
        <time>2019-05-02T15:09:44.277Z</time>
      </trkpt>
      <trkpt lat="48.2212418" lon="14.8540055">
        <ele>231.233</ele>
        <time>2019-05-02T15:09:54.841Z</time>
      </trkpt>
      <trkpt lat="48.2213095" lon="14.8538488">
        <ele>231.220</ele>
        <time>2019-05-02T15:09:58.272Z</time>
      </trkpt>
      <trkpt lat="48.2213645" lon="14.8537377">
        <ele>231.402</ele>
        <time>2019-05-02T15:10:00.055Z</time>
      </trkpt>
      <trkpt lat="48.2214542" lon="14.8536294">
        <ele>231.678</ele>
        <time>2019-05-02T15:10:02.052Z</time>
      </trkpt>
      <trkpt lat="48.2215616" lon="14.8535435">
        <ele>231.898</ele>
        <time>2019-05-02T15:10:04.244Z</time>
      </trkpt>
      <trkpt lat="48.2216541" lon="14.8534590">
        <ele>231.948</ele>
        <time>2019-05-02T15:10:06.376Z</time>
      </trkpt>
      <trkpt lat="48.2217432" lon="14.8533923">
        <ele>231.792</ele>
        <time>2019-05-02T15:10:08.454Z</time>
      </trkpt>
      <trkpt lat="48.2218724" lon="14.8533461">
        <ele>231.521</ele>
        <time>2019-05-02T15:10:11.612Z</time>
      </trkpt>
      <trkpt lat="48.2219974" lon="14.8533818">
        <ele>231.294</ele>
        <time>2019-05-02T15:10:14.855Z</time>
      </trkpt>
      <trkpt lat="48.2220937" lon="14.8533843">
        <ele>231.111</ele>
        <time>2019-05-02T15:10:17.123Z</time>
      </trkpt>
      <trkpt lat="48.2222696" lon="14.8534259">
        <ele>230.795</ele>
        <time>2019-05-02T15:10:20.778Z</time>
      </trkpt>
      <trkpt lat="48.2223866" lon="14.8534398">
        <ele>230.251</ele>
        <time>2019-05-02T15:10:23.257Z</time>
      </trkpt>
      <trkpt lat="48.2224841" lon="14.8534342">
        <ele>229.577</ele>
        <time>2019-05-02T15:10:25.502Z</time>
      </trkpt>
      <trkpt lat="48.2226168" lon="14.8534541">
        <ele>228.943</ele>
        <time>2019-05-02T15:10:28.932Z</time>
      </trkpt>
      <trkpt lat="48.2227092" lon="14.8534250">
        <ele>228.480</ele>
        <time>2019-05-02T15:10:31.581Z</time>
      </trkpt>
      <trkpt lat="48.2228078" lon="14.8534162">
        <ele>228.232</ele>
        <time>2019-05-02T15:10:34.251Z</time>
      </trkpt>
      <trkpt lat="48.2229013" lon="14.8534153">
        <ele>228.175</ele>
        <time>2019-05-02T15:10:36.632Z</time>
      </trkpt>
      <trkpt lat="48.2230376" lon="14.8534562">
        <ele>228.234</ele>
        <time>2019-05-02T15:10:39.647Z</time>
      </trkpt>
      <trkpt lat="48.2231369" lon="14.8534314">
        <ele>228.312</ele>
        <time>2019-05-02T15:10:41.659Z</time>
      </trkpt>
      <trkpt lat="48.2232575" lon="14.8533949">
        <ele>228.346</ele>
        <time>2019-05-02T15:10:44.190Z</time>
      </trkpt>
      <trkpt lat="48.2233791" lon="14.8533968">
        <ele>228.337</ele>
        <time>2019-05-02T15:10:47.019Z</time>
      </trkpt>
      <trkpt lat="48.2234636" lon="14.8534470">
        <ele>228.312</ele>
        <time>2019-05-02T15:10:49.363Z</time>
      </trkpt>
      <trkpt lat="48.2235805" lon="14.8533810">
        <ele>228.280</ele>
        <time>2019-05-02T15:10:52.629Z</time>
      </trkpt>
      <trkpt lat="48.2236939" lon="14.8533285">
        <ele>228.149</ele>
        <time>2019-05-02T15:10:56.352Z</time>
      </trkpt>
      <trkpt lat="48.2237929" lon="14.8532873">
        <ele>227.854</ele>
        <time>2019-05-02T15:11:00.976Z</time>
      </trkpt>
      <trkpt lat="48.2238840" lon="14.8532899">
        <ele>227.507</ele>
        <time>2019-05-02T15:11:05.033Z</time>
      </trkpt>
      <trkpt lat="48.2239849" lon="14.8533070">
        <ele>227.253</ele>
        <time>2019-05-02T15:11:08.048Z</time>
      </trkpt>
      <trkpt lat="48.2240595" lon="14.8533991">
        <ele>227.126</ele>
        <time>2019-05-02T15:11:10.138Z</time>
      </trkpt>
      <trkpt lat="48.2241818" lon="14.8534938">
        <ele>227.092</ele>
        <time>2019-05-02T15:11:13.166Z</time>
      </trkpt>
      <trkpt lat="48.2242951" lon="14.8535297">
        <ele>227.098</ele>
        <time>2019-05-02T15:11:15.836Z</time>
      </trkpt>
      <trkpt lat="48.2244146" lon="14.8535632">
        <ele>227.106</ele>
        <time>2019-05-02T15:11:18.746Z</time>
      </trkpt>
      <trkpt lat="48.2245160" lon="14.8536084">
        <ele>227.105</ele>
        <time>2019-05-02T15:11:21.357Z</time>
      </trkpt>
      <trkpt lat="48.2246238" lon="14.8536650">
        <ele>227.102</ele>
        <time>2019-05-02T15:11:24.256Z</time>
      </trkpt>
      <trkpt lat="48.2247373" lon="14.8537170">
        <ele>227.100</ele>
        <time>2019-05-02T15:11:27.319Z</time>
      </trkpt>
      <trkpt lat="48.2248335" lon="14.8537382">
        <ele>227.099</ele>
        <time>2019-05-02T15:11:29.807Z</time>
      </trkpt>
      <trkpt lat="48.2249587" lon="14.8537821">
        <ele>227.119</ele>
        <time>2019-05-02T15:11:32.989Z</time>
      </trkpt>
      <trkpt lat="48.2250777" lon="14.8538466">
        <ele>227.207</ele>
        <time>2019-05-02T15:11:35.990Z</time>
      </trkpt>
      <trkpt lat="48.2252007" lon="14.8539056">
        <ele>227.373</ele>
        <time>2019-05-02T15:11:39.014Z</time>
      </trkpt>
      <trkpt lat="48.2253152" lon="14.8539800">
        <ele>227.590</ele>
        <time>2019-05-02T15:11:41.939Z</time>
      </trkpt>
      <trkpt lat="48.2254135" lon="14.8540787">
        <ele>227.860</ele>
        <time>2019-05-02T15:11:44.701Z</time>
      </trkpt>
      <trkpt lat="48.2254976" lon="14.8541789">
        <ele>228.160</ele>
        <time>2019-05-02T15:11:47.219Z</time>
      </trkpt>
      <trkpt lat="48.2255820" lon="14.8542539">
        <ele>228.404</ele>
        <time>2019-05-02T15:11:49.522Z</time>
      </trkpt>
      <trkpt lat="48.2256452" lon="14.8543611">
        <ele>228.530</ele>
        <time>2019-05-02T15:11:51.849Z</time>
      </trkpt>
      <trkpt lat="48.2257152" lon="14.8545025">
        <ele>228.562</ele>
        <time>2019-05-02T15:11:54.864Z</time>
      </trkpt>
      <trkpt lat="48.2257916" lon="14.8546655">
        <ele>228.524</ele>
        <time>2019-05-02T15:11:58.192Z</time>
      </trkpt>
      <trkpt lat="48.2258576" lon="14.8547951">
        <ele>228.372</ele>
        <time>2019-05-02T15:12:00.750Z</time>
      </trkpt>
      <trkpt lat="48.2259406" lon="14.8549109">
        <ele>228.073</ele>
        <time>2019-05-02T15:12:03.370Z</time>
      </trkpt>
      <trkpt lat="48.2260259" lon="14.8550325">
        <ele>227.713</ele>
        <time>2019-05-02T15:12:06.076Z</time>
      </trkpt>
      <trkpt lat="48.2261221" lon="14.8551720">
        <ele>227.437</ele>
        <time>2019-05-02T15:12:09.136Z</time>
      </trkpt>
      <trkpt lat="48.2262117" lon="14.8553328">
        <ele>227.282</ele>
        <time>2019-05-02T15:12:12.338Z</time>
      </trkpt>
      <trkpt lat="48.2263033" lon="14.8554424">
        <ele>227.191</ele>
        <time>2019-05-02T15:12:15.080Z</time>
      </trkpt>
      <trkpt lat="48.2263731" lon="14.8555307">
        <ele>227.133</ele>
        <time>2019-05-02T15:12:17.319Z</time>
      </trkpt>
      <trkpt lat="48.2264568" lon="14.8556326">
        <ele>227.106</ele>
        <time>2019-05-02T15:12:20.308Z</time>
      </trkpt>
      <trkpt lat="48.2265171" lon="14.8557532">
        <ele>227.109</ele>
        <time>2019-05-02T15:12:23.480Z</time>
      </trkpt>
      <trkpt lat="48.2266726" lon="14.8557590">
        <ele>227.156</ele>
        <time>2019-05-02T15:12:28.764Z</time>
      </trkpt>
      <trkpt lat="48.2267564" lon="14.8558169">
        <ele>227.241</ele>
        <time>2019-05-02T15:12:31.998Z</time>
      </trkpt>
      <trkpt lat="48.2267564" lon="14.8558169">
        <ele>227.315</ele>
        <time>2019-05-02T15:12:36.998Z</time>
      </trkpt>
      <trkpt lat="48.2259689" lon="14.8613050">
        <ele>228.124</ele>
        <time>2019-05-03T07:41:49.000Z</time>
      </trkpt>
      <trkpt lat="48.2259689" lon="14.8613050">
        <ele>228.066</ele>
        <time>2019-05-03T07:43:35.260Z</time>
      </trkpt>
      <trkpt lat="48.2259315" lon="14.8610429">
        <ele>228.016</ele>
        <time>2019-05-03T07:44:01.714Z</time>
      </trkpt>
      <trkpt lat="48.2260053" lon="14.8611767">
        <ele>227.974</ele>
        <time>2019-05-03T07:44:09.895Z</time>
      </trkpt>
      <trkpt lat="48.2260339" lon="14.8613221">
        <ele>227.956</ele>
        <time>2019-05-03T07:44:16.729Z</time>
      </trkpt>
      <trkpt lat="48.2260818" lon="14.8614707">
        <ele>227.913</ele>
        <time>2019-05-03T07:44:22.239Z</time>
      </trkpt>
      <trkpt lat="48.2261003" lon="14.8616042">
        <ele>227.778</ele>
        <time>2019-05-03T07:44:26.696Z</time>
      </trkpt>
      <trkpt lat="48.2261176" lon="14.8617628">
        <ele>227.570</ele>
        <time>2019-05-03T07:44:31.989Z</time>
      </trkpt>
      <trkpt lat="48.2261231" lon="14.8619321">
        <ele>227.368</ele>
        <time>2019-05-03T07:44:37.549Z</time>
      </trkpt>
      <trkpt lat="48.2261298" lon="14.8620708">
        <ele>227.213</ele>
        <time>2019-05-03T07:44:42.030Z</time>
      </trkpt>
      <trkpt lat="48.2261650" lon="14.8622125">
        <ele>227.215</ele>
        <time>2019-05-03T07:44:46.830Z</time>
      </trkpt>
      <trkpt lat="48.2261535" lon="14.8623649">
        <ele>227.508</ele>
        <time>2019-05-03T07:44:51.870Z</time>
      </trkpt>
      <trkpt lat="48.2261442" lon="14.8625104">
        <ele>228.010</ele>
        <time>2019-05-03T07:44:56.779Z</time>
      </trkpt>
      <trkpt lat="48.2261392" lon="14.8626454">
        <ele>228.469</ele>
        <time>2019-05-03T07:45:01.108Z</time>
      </trkpt>
      <trkpt lat="48.2261527" lon="14.8627808">
        <ele>228.731</ele>
        <time>2019-05-03T07:45:05.212Z</time>
      </trkpt>
      <trkpt lat="48.2261625" lon="14.8629284">
        <ele>228.816</ele>
        <time>2019-05-03T07:45:09.402Z</time>
      </trkpt>
      <trkpt lat="48.2261519" lon="14.8631435">
        <ele>228.882</ele>
        <time>2019-05-03T07:45:15.130Z</time>
      </trkpt>
      <trkpt lat="48.2261483" lon="14.8632886">
        <ele>229.030</ele>
        <time>2019-05-03T07:45:18.757Z</time>
      </trkpt>
      <trkpt lat="48.2261638" lon="14.8634484">
        <ele>229.184</ele>
        <time>2019-05-03T07:45:23.023Z</time>
      </trkpt>
      <trkpt lat="48.2261836" lon="14.8635922">
        <ele>229.257</ele>
        <time>2019-05-03T07:45:27.120Z</time>
      </trkpt>
      <trkpt lat="48.2261974" lon="14.8637516">
        <ele>229.319</ele>
        <time>2019-05-03T07:45:31.538Z</time>
      </trkpt>
      <trkpt lat="48.2261813" lon="14.8638904">
        <ele>229.447</ele>
        <time>2019-05-03T07:45:35.454Z</time>
      </trkpt>
      <trkpt lat="48.2261931" lon="14.8640390">
        <ele>229.591</ele>
        <time>2019-05-03T07:45:39.568Z</time>
      </trkpt>
      <trkpt lat="48.2261636" lon="14.8641897">
        <ele>229.702</ele>
        <time>2019-05-03T07:45:43.549Z</time>
      </trkpt>
      <trkpt lat="48.2261428" lon="14.8643732">
        <ele>229.818</ele>
        <time>2019-05-03T07:45:47.688Z</time>
      </trkpt>
      <trkpt lat="48.2261533" lon="14.8645304">
        <ele>229.976</ele>
        <time>2019-05-03T07:45:51.017Z</time>
      </trkpt>
      <trkpt lat="48.2261324" lon="14.8646861">
        <ele>230.146</ele>
        <time>2019-05-03T07:45:54.559Z</time>
      </trkpt>
      <trkpt lat="48.2261495" lon="14.8648316">
        <ele>230.280</ele>
        <time>2019-05-03T07:45:58.389Z</time>
      </trkpt>
      <trkpt lat="48.2261427" lon="14.8650067">
        <ele>230.360</ele>
        <time>2019-05-03T07:46:02.799Z</time>
      </trkpt>
      <trkpt lat="48.2261607" lon="14.8651770">
        <ele>230.385</ele>
        <time>2019-05-03T07:46:06.674Z</time>
      </trkpt>
      <trkpt lat="48.2261674" lon="14.8653360">
        <ele>230.357</ele>
        <time>2019-05-03T07:46:09.931Z</time>
      </trkpt>
      <trkpt lat="48.2261501" lon="14.8654878">
        <ele>230.293</ele>
        <time>2019-05-03T07:46:13.124Z</time>
      </trkpt>
      <trkpt lat="48.2261517" lon="14.8656471">
        <ele>230.211</ele>
        <time>2019-05-03T07:46:16.263Z</time>
      </trkpt>
      <trkpt lat="48.2261537" lon="14.8658181">
        <ele>230.159</ele>
        <time>2019-05-03T07:46:19.268Z</time>
      </trkpt>
      <trkpt lat="48.2261382" lon="14.8659828">
        <ele>230.161</ele>
        <time>2019-05-03T07:46:21.999Z</time>
      </trkpt>
      <trkpt lat="48.2261382" lon="14.8659828">
        <ele>230.165</ele>
        <time>2019-05-03T07:46:21.999Z</time>
      </trkpt>
      <trkpt lat="48.2261382" lon="14.8659828">
        <ele>230.104</ele>
        <time>2019-05-03T07:46:22.099Z</time>
      </trkpt>
      <trkpt lat="48.2261223" lon="14.8663324">
        <ele>229.998</ele>
        <time>2019-05-03T07:46:32.519Z</time>
      </trkpt>
      <trkpt lat="48.2261276" lon="14.8665125">
        <ele>229.783</ele>
        <time>2019-05-03T07:46:35.790Z</time>
      </trkpt>
      <trkpt lat="48.2261199" lon="14.8666837">
        <ele>229.407</ele>
        <time>2019-05-03T07:46:38.802Z</time>
      </trkpt>
      <trkpt lat="48.2261370" lon="14.8668633">
        <ele>229.045</ele>
        <time>2019-05-03T07:46:41.786Z</time>
      </trkpt>
      <trkpt lat="48.2261540" lon="14.8670493">
        <ele>228.864</ele>
        <time>2019-05-03T07:46:44.666Z</time>
      </trkpt>
      <trkpt lat="48.2261889" lon="14.8672006">
        <ele>228.827</ele>
        <time>2019-05-03T07:46:46.999Z</time>
      </trkpt>
      <trkpt lat="48.2261889" lon="14.8672006">
        <ele>228.854</ele>
        <time>2019-05-03T07:46:47.999Z</time>
      </trkpt>
      <trkpt lat="48.2261889" lon="14.8672006">
        <ele>228.842</ele>
        <time>2019-05-03T07:46:48.099Z</time>
      </trkpt>
      <trkpt lat="48.2262204" lon="14.8674871">
        <ele>228.747</ele>
        <time>2019-05-03T07:46:56.677Z</time>
      </trkpt>
      <trkpt lat="48.2262467" lon="14.8676711">
        <ele>228.910</ele>
        <time>2019-05-03T07:46:59.998Z</time>
      </trkpt>
      <trkpt lat="48.2262847" lon="14.8678412">
        <ele>229.658</ele>
        <time>2019-05-03T07:47:02.795Z</time>
      </trkpt>
      <trkpt lat="48.2263402" lon="14.8680060">
        <ele>230.618</ele>
        <time>2019-05-03T07:47:05.651Z</time>
      </trkpt>
      <trkpt lat="48.2263741" lon="14.8681719">
        <ele>231.096</ele>
        <time>2019-05-03T07:47:08.653Z</time>
      </trkpt>
      <trkpt lat="48.2264088" lon="14.8683119">
        <ele>230.782</ele>
        <time>2019-05-03T07:47:11.413Z</time>
      </trkpt>
      <trkpt lat="48.2264489" lon="14.8684684">
        <ele>229.963</ele>
        <time>2019-05-03T07:47:14.623Z</time>
      </trkpt>
      <trkpt lat="48.2265004" lon="14.8685977">
        <ele>229.259</ele>
        <time>2019-05-03T07:47:18.178Z</time>
      </trkpt>
      <trkpt lat="48.2265457" lon="14.8687159">
        <ele>229.073</ele>
        <time>2019-05-03T07:47:21.305Z</time>
      </trkpt>
      <trkpt lat="48.2265581" lon="14.8688865">
        <ele>229.344</ele>
        <time>2019-05-03T07:47:24.903Z</time>
      </trkpt>
      <trkpt lat="48.2265689" lon="14.8690211">
        <ele>229.728</ele>
        <time>2019-05-03T07:47:27.185Z</time>
      </trkpt>
      <trkpt lat="48.2265998" lon="14.8691990">
        <ele>229.937</ele>
        <time>2019-05-03T07:47:30.121Z</time>
      </trkpt>
      <trkpt lat="48.2266348" lon="14.8693541">
        <ele>229.928</ele>
        <time>2019-05-03T07:47:32.639Z</time>
      </trkpt>
      <trkpt lat="48.2266459" lon="14.8695213">
        <ele>229.806</ele>
        <time>2019-05-03T07:47:35.190Z</time>
      </trkpt>
      <trkpt lat="48.2266735" lon="14.8696953">
        <ele>229.730</ele>
        <time>2019-05-03T07:47:37.999Z</time>
      </trkpt>
      <trkpt lat="48.2266735" lon="14.8696953">
        <ele>229.756</ele>
        <time>2019-05-03T07:47:38.999Z</time>
      </trkpt>
      <trkpt lat="48.2266735" lon="14.8696953">
        <ele>229.772</ele>
        <time>2019-05-03T07:47:39.099Z</time>
      </trkpt>
      <trkpt lat="48.2267178" lon="14.8699983">
        <ele>229.680</ele>
        <time>2019-05-03T07:47:46.983Z</time>
      </trkpt>
      <trkpt lat="48.2267361" lon="14.8701312">
        <ele>229.775</ele>
        <time>2019-05-03T07:47:49.775Z</time>
      </trkpt>
      <trkpt lat="48.2267937" lon="14.8702477">
        <ele>230.283</ele>
        <time>2019-05-03T07:47:52.782Z</time>
      </trkpt>
      <trkpt lat="48.2267987" lon="14.8704192">
        <ele>230.764</ele>
        <time>2019-05-03T07:47:56.141Z</time>
      </trkpt>
      <trkpt lat="48.2268143" lon="14.8705552">
        <ele>230.805</ele>
        <time>2019-05-03T07:47:58.505Z</time>
      </trkpt>
      <trkpt lat="48.2268203" lon="14.8706945">
        <ele>230.620</ele>
        <time>2019-05-03T07:48:00.668Z</time>
      </trkpt>
      <trkpt lat="48.2268370" lon="14.8708470">
        <ele>230.510</ele>
        <time>2019-05-03T07:48:02.914Z</time>
      </trkpt>
      <trkpt lat="48.2268283" lon="14.8709827">
        <ele>230.519</ele>
        <time>2019-05-03T07:48:04.892Z</time>
      </trkpt>
      <trkpt lat="48.2268313" lon="14.8711628">
        <ele>230.628</ele>
        <time>2019-05-03T07:48:07.757Z</time>
      </trkpt>
      <trkpt lat="48.2268374" lon="14.8713160">
        <ele>230.919</ele>
        <time>2019-05-03T07:48:10.340Z</time>
      </trkpt>
      <trkpt lat="48.2268599" lon="14.8714860">
        <ele>231.384</ele>
        <time>2019-05-03T07:48:13.138Z</time>
      </trkpt>
      <trkpt lat="48.2268890" lon="14.8716146">
        <ele>231.808</ele>
        <time>2019-05-03T07:48:15.288Z</time>
      </trkpt>
      <trkpt lat="48.2269287" lon="14.8717619">
        <ele>232.089</ele>
        <time>2019-05-03T07:48:17.884Z</time>
      </trkpt>
      <trkpt lat="48.2269748" lon="14.8719230">
        <ele>232.368</ele>
        <time>2019-05-03T07:48:20.764Z</time>
      </trkpt>
      <trkpt lat="48.2270113" lon="14.8720837">
        <ele>232.711</ele>
        <time>2019-05-03T07:48:23.643Z</time>
      </trkpt>
      <trkpt lat="48.2270451" lon="14.8722509">
        <ele>233.177</ele>
        <time>2019-05-03T07:48:26.796Z</time>
      </trkpt>
      <trkpt lat="48.2270388" lon="14.8724158">
        <ele>233.864</ele>
        <time>2019-05-03T07:48:29.716Z</time>
      </trkpt>
      <trkpt lat="48.2270791" lon="14.8726005">
        <ele>234.735</ele>
        <time>2019-05-03T07:48:32.981Z</time>
      </trkpt>
      <trkpt lat="48.2271053" lon="14.8727518">
        <ele>235.826</ele>
        <time>2019-05-03T07:48:35.643Z</time>
      </trkpt>
      <trkpt lat="48.2271242" lon="14.8728966">
        <ele>237.221</ele>
        <time>2019-05-03T07:48:38.206Z</time>
      </trkpt>
      <trkpt lat="48.2271376" lon="14.8730624">
        <ele>238.795</ele>
        <time>2019-05-03T07:48:41.148Z</time>
      </trkpt>
      <trkpt lat="48.2271468" lon="14.8732180">
        <ele>240.545</ele>
        <time>2019-05-03T07:48:43.991Z</time>
      </trkpt>
      <trkpt lat="48.2271714" lon="14.8733979">
        <ele>242.724</ele>
        <time>2019-05-03T07:48:47.474Z</time>
      </trkpt>
      <trkpt lat="48.2272491" lon="14.8734787">
        <ele>245.282</ele>
        <time>2019-05-03T07:48:50.199Z</time>
      </trkpt>
      <trkpt lat="48.2273056" lon="14.8735843">
        <ele>247.510</ele>
        <time>2019-05-03T07:48:52.770Z</time>
      </trkpt>
      <trkpt lat="48.2273665" lon="14.8737077">
        <ele>249.009</ele>
        <time>2019-05-03T07:48:55.608Z</time>
      </trkpt>
      <trkpt lat="48.2274315" lon="14.8738555">
        <ele>250.046</ele>
        <time>2019-05-03T07:48:58.748Z</time>
      </trkpt>
      <trkpt lat="48.2275167" lon="14.8739291">
        <ele>250.960</ele>
        <time>2019-05-03T07:49:01.287Z</time>
      </trkpt>
      <trkpt lat="48.2276032" lon="14.8740207">
        <ele>251.849</ele>
        <time>2019-05-03T07:49:04.007Z</time>
      </trkpt>
      <trkpt lat="48.2276788" lon="14.8741264">
        <ele>252.331</ele>
        <time>2019-05-03T07:49:06.662Z</time>
      </trkpt>
      <trkpt lat="48.2277780" lon="14.8742148">
        <ele>252.055</ele>
        <time>2019-05-03T07:49:09.633Z</time>
      </trkpt>
      <trkpt lat="48.2278456" lon="14.8743101">
        <ele>251.372</ele>
        <time>2019-05-03T07:49:11.999Z</time>
      </trkpt>
      <trkpt lat="48.2278456" lon="14.8743101">
        <ele>250.732</ele>
        <time>2019-05-03T07:49:12.999Z</time>
      </trkpt>
      <trkpt lat="48.2278456" lon="14.8743101">
        <ele>250.362</ele>
        <time>2019-05-03T07:49:13.099Z</time>
      </trkpt>
      <trkpt lat="48.2280226" lon="14.8744852">
        <ele>250.376</ele>
        <time>2019-05-03T07:49:19.798Z</time>
      </trkpt>
      <trkpt lat="48.2281134" lon="14.8745315">
        <ele>250.665</ele>
        <time>2019-05-03T07:49:21.976Z</time>
      </trkpt>
      <trkpt lat="48.2282564" lon="14.8745644">
        <ele>250.959</ele>
        <time>2019-05-03T07:49:24.910Z</time>
      </trkpt>
      <trkpt lat="48.2283489" lon="14.8746438">
        <ele>250.798</ele>
        <time>2019-05-03T07:49:26.876Z</time>
      </trkpt>
      <trkpt lat="48.2284493" lon="14.8747329">
        <ele>249.511</ele>
        <time>2019-05-03T07:49:29.000Z</time>
      </trkpt>
      <trkpt lat="48.2285362" lon="14.8748362">
        <ele>247.055</ele>
        <time>2019-05-03T07:49:30.999Z</time>
      </trkpt>
      <trkpt lat="48.2285362" lon="14.8748362">
        <ele>244.576</ele>
        <time>2019-05-03T07:49:30.999Z</time>
      </trkpt>
      <trkpt lat="48.2285362" lon="14.8748362">
        <ele>243.306</ele>
        <time>2019-05-03T07:49:32.379Z</time>
      </trkpt>
      <trkpt lat="48.2286510" lon="14.8749583">
        <ele>243.326</ele>
        <time>2019-05-03T07:49:39.002Z</time>
      </trkpt>
      <trkpt lat="48.2287142" lon="14.8750802">
        <ele>243.559</ele>
        <time>2019-05-03T07:49:42.084Z</time>
      </trkpt>
      <trkpt lat="48.2287831" lon="14.8752209">
        <ele>243.189</ele>
        <time>2019-05-03T07:49:45.443Z</time>
      </trkpt>
      <trkpt lat="48.2288471" lon="14.8753509">
        <ele>242.551</ele>
        <time>2019-05-03T07:49:48.551Z</time>
      </trkpt>
      <trkpt lat="48.2289111" lon="14.8754959">
        <ele>242.107</ele>
        <time>2019-05-03T07:49:52.091Z</time>
      </trkpt>
      <trkpt lat="48.2289675" lon="14.8756261">
        <ele>241.714</ele>
        <time>2019-05-03T07:49:55.186Z</time>
      </trkpt>
      <trkpt lat="48.2290290" lon="14.8757893">
        <ele>241.139</ele>
        <time>2019-05-03T07:49:58.674Z</time>
      </trkpt>
      <trkpt lat="48.2290882" lon="14.8759425">
        <ele>240.440</ele>
        <time>2019-05-03T07:50:01.753Z</time>
      </trkpt>
      <trkpt lat="48.2291646" lon="14.8760893">
        <ele>239.892</ele>
        <time>2019-05-03T07:50:04.955Z</time>
      </trkpt>
      <trkpt lat="48.2292173" lon="14.8761998">
        <ele>239.643</ele>
        <time>2019-05-03T07:50:07.343Z</time>
      </trkpt>
      <trkpt lat="48.2292903" lon="14.8763307">
        <ele>239.608</ele>
        <time>2019-05-03T07:50:10.428Z</time>
      </trkpt>
      <trkpt lat="48.2293415" lon="14.8764554">
        <ele>239.624</ele>
        <time>2019-05-03T07:50:13.162Z</time>
      </trkpt>
      <trkpt lat="48.2293924" lon="14.8765871">
        <ele>239.603</ele>
        <time>2019-05-03T07:50:16.051Z</time>
      </trkpt>
      <trkpt lat="48.2294398" lon="14.8767211">
        <ele>239.611</ele>
        <time>2019-05-03T07:50:18.936Z</time>
      </trkpt>
      <trkpt lat="48.2294988" lon="14.8768533">
        <ele>239.805</ele>
        <time>2019-05-03T07:50:21.931Z</time>
      </trkpt>
      <trkpt lat="48.2295648" lon="14.8769760">
        <ele>240.231</ele>
        <time>2019-05-03T07:50:24.853Z</time>
      </trkpt>
      <trkpt lat="48.2296197" lon="14.8771077">
        <ele>240.741</ele>
        <time>2019-05-03T07:50:27.682Z</time>
      </trkpt>
      <trkpt lat="48.2296956" lon="14.8772218">
        <ele>241.179</ele>
        <time>2019-05-03T07:50:30.545Z</time>
      </trkpt>
      <trkpt lat="48.2297742" lon="14.8773615">
        <ele>241.489</ele>
        <time>2019-05-03T07:50:33.648Z</time>
      </trkpt>
      <trkpt lat="48.2298127" lon="14.8774871">
        <ele>241.555</ele>
        <time>2019-05-03T07:50:35.868Z</time>
      </trkpt>
      <trkpt lat="48.2298419" lon="14.8776250">
        <ele>241.294</ele>
        <time>2019-05-03T07:50:38.115Z</time>
      </trkpt>
      <trkpt lat="48.2298882" lon="14.8778012">
        <ele>240.898</ele>
        <time>2019-05-03T07:50:41.015Z</time>
      </trkpt>
      <trkpt lat="48.2299234" lon="14.8779348">
        <ele>240.695</ele>
        <time>2019-05-03T07:50:43.180Z</time>
      </trkpt>
      <trkpt lat="48.2299467" lon="14.8780721">
        <ele>240.796</ele>
        <time>2019-05-03T07:50:45.321Z</time>
      </trkpt>
      <trkpt lat="48.2299946" lon="14.8782323">
        <ele>241.038</ele>
        <time>2019-05-03T07:50:47.982Z</time>
      </trkpt>
      <trkpt lat="48.2300429" lon="14.8784212">
        <ele>241.302</ele>
        <time>2019-05-03T07:50:51.019Z</time>
      </trkpt>
      <trkpt lat="48.2300860" lon="14.8785539">
        <ele>241.603</ele>
        <time>2019-05-03T07:50:53.242Z</time>
      </trkpt>
      <trkpt lat="48.2301231" lon="14.8786931">
        <ele>241.867</ele>
        <time>2019-05-03T07:50:55.593Z</time>
      </trkpt>
      <trkpt lat="48.2301820" lon="14.8788232">
        <ele>241.860</ele>
        <time>2019-05-03T07:50:58.171Z</time>
      </trkpt>
      <trkpt lat="48.2302046" lon="14.8790065">
        <ele>241.331</ele>
        <time>2019-05-03T07:51:01.324Z</time>
      </trkpt>
      <trkpt lat="48.2302236" lon="14.8791479">
        <ele>240.151</ele>
        <time>2019-05-03T07:51:03.715Z</time>
      </trkpt>
      <trkpt lat="48.2302215" lon="14.8793420">
        <ele>238.573</ele>
        <time>2019-05-03T07:51:06.872Z</time>
      </trkpt>
      <trkpt lat="48.2302347" lon="14.8795044">
        <ele>237.138</ele>
        <time>2019-05-03T07:51:09.479Z</time>
      </trkpt>
      <trkpt lat="48.2302522" lon="14.8796591">
        <ele>236.074</ele>
        <time>2019-05-03T07:51:11.890Z</time>
      </trkpt>
      <trkpt lat="48.2302470" lon="14.8798617">
        <ele>235.160</ele>
        <time>2019-05-03T07:51:14.922Z</time>
      </trkpt>
      <trkpt lat="48.2302293" lon="14.8800155">
        <ele>234.155</ele>
        <time>2019-05-03T07:51:17.182Z</time>
      </trkpt>
      <trkpt lat="48.2302027" lon="14.8801501">
        <ele>233.101</ele>
        <time>2019-05-03T07:51:19.214Z</time>
      </trkpt>
      <trkpt lat="48.2301911" lon="14.8803426">
        <ele>232.316</ele>
        <time>2019-05-03T07:51:22.008Z</time>
      </trkpt>
      <trkpt lat="48.2301725" lon="14.8804923">
        <ele>232.115</ele>
        <time>2019-05-03T07:51:24.187Z</time>
      </trkpt>
      <trkpt lat="48.2301391" lon="14.8806692">
        <ele>232.429</ele>
        <time>2019-05-03T07:51:26.844Z</time>
      </trkpt>
      <trkpt lat="48.2301043" lon="14.8808426">
        <ele>232.888</ele>
        <time>2019-05-03T07:51:29.530Z</time>
      </trkpt>
      <trkpt lat="48.2300656" lon="14.8810042">
        <ele>233.255</ele>
        <time>2019-05-03T07:51:32.148Z</time>
      </trkpt>
      <trkpt lat="48.2300253" lon="14.8811305">
        <ele>233.533</ele>
        <time>2019-05-03T07:51:34.318Z</time>
      </trkpt>
      <trkpt lat="48.2299890" lon="14.8812566">
        <ele>233.695</ele>
        <time>2019-05-03T07:51:36.452Z</time>
      </trkpt>
      <trkpt lat="48.2299526" lon="14.8814441">
        <ele>233.712</ele>
        <time>2019-05-03T07:51:39.473Z</time>
      </trkpt>
      <trkpt lat="48.2298902" lon="14.8816125">
        <ele>233.539</ele>
        <time>2019-05-03T07:51:42.392Z</time>
      </trkpt>
      <trkpt lat="48.2298203" lon="14.8817807">
        <ele>233.207</ele>
        <time>2019-05-03T07:51:45.342Z</time>
      </trkpt>
      <trkpt lat="48.2297146" lon="14.8818860">
        <ele>232.938</ele>
        <time>2019-05-03T07:51:48.175Z</time>
      </trkpt>
      <trkpt lat="48.2296516" lon="14.8819891">
        <ele>232.916</ele>
        <time>2019-05-03T07:51:50.257Z</time>
      </trkpt>
      <trkpt lat="48.2296007" lon="14.8821091">
        <ele>233.080</ele>
        <time>2019-05-03T07:51:52.360Z</time>
      </trkpt>
      <trkpt lat="48.2295218" lon="14.8822480">
        <ele>233.257</ele>
        <time>2019-05-03T07:51:55.055Z</time>
      </trkpt>
      <trkpt lat="48.2294356" lon="14.8824006">
        <ele>233.115</ele>
        <time>2019-05-03T07:51:58.035Z</time>
      </trkpt>
      <trkpt lat="48.2293614" lon="14.8825185">
        <ele>232.411</ele>
        <time>2019-05-03T07:52:00.521Z</time>
      </trkpt>
      <trkpt lat="48.2292717" lon="14.8826023">
        <ele>231.397</ele>
        <time>2019-05-03T07:52:03.063Z</time>
      </trkpt>
      <trkpt lat="48.2291624" lon="14.8826941">
        <ele>230.551</ele>
        <time>2019-05-03T07:52:06.171Z</time>
      </trkpt>
      <trkpt lat="48.2290695" lon="14.8827477">
        <ele>230.092</ele>
        <time>2019-05-03T07:52:08.688Z</time>
      </trkpt>
      <trkpt lat="48.2289709" lon="14.8827765">
        <ele>229.976</ele>
        <time>2019-05-03T07:52:11.354Z</time>
      </trkpt>
      <trkpt lat="48.2288718" lon="14.8828083">
        <ele>230.050</ele>
        <time>2019-05-03T07:52:14.133Z</time>
      </trkpt>
      <trkpt lat="48.2287540" lon="14.8828908">
        <ele>230.220</ele>
        <time>2019-05-03T07:52:17.783Z</time>
      </trkpt>
      <trkpt lat="48.2286718" lon="14.8829673">
        <ele>230.510</ele>
        <time>2019-05-03T07:52:20.488Z</time>
      </trkpt>
      <trkpt lat="48.2285580" lon="14.8830721">
        <ele>230.893</ele>
        <time>2019-05-03T07:52:23.985Z</time>
      </trkpt>
      <trkpt lat="48.2284426" lon="14.8831230">
        <ele>231.188</ele>
        <time>2019-05-03T07:52:26.933Z</time>
      </trkpt>
      <trkpt lat="48.2283374" lon="14.8832528">
        <ele>231.268</ele>
        <time>2019-05-03T07:52:30.191Z</time>
      </trkpt>
      <trkpt lat="48.2282623" lon="14.8833298">
        <ele>231.167</ele>
        <time>2019-05-03T07:52:32.387Z</time>
      </trkpt>
      <trkpt lat="48.2281676" lon="14.8834302">
        <ele>230.883</ele>
        <time>2019-05-03T07:52:35.232Z</time>
      </trkpt>
      <trkpt lat="48.2280896" lon="14.8835448">
        <ele>230.408</ele>
        <time>2019-05-03T07:52:37.876Z</time>
      </trkpt>
      <trkpt lat="48.2280239" lon="14.8836373">
        <ele>229.890</ele>
        <time>2019-05-03T07:52:39.960Z</time>
      </trkpt>
      <trkpt lat="48.2279120" lon="14.8837666">
        <ele>229.502</ele>
        <time>2019-05-03T07:52:43.113Z</time>
      </trkpt>
      <trkpt lat="48.2278268" lon="14.8838831">
        <ele>229.260</ele>
        <time>2019-05-03T07:52:45.565Z</time>
      </trkpt>
      <trkpt lat="48.2277395" lon="14.8839982">
        <ele>229.100</ele>
        <time>2019-05-03T07:52:47.999Z</time>
      </trkpt>
      <trkpt lat="48.2277395" lon="14.8839982">
        <ele>228.976</ele>
        <time>2019-05-03T07:52:48.999Z</time>
      </trkpt>
      <trkpt lat="48.2277395" lon="14.8839982">
        <ele>228.875</ele>
        <time>2019-05-03T07:52:49.099Z</time>
      </trkpt>
      <trkpt lat="48.2276408" lon="14.8842428">
        <ele>228.815</ele>
        <time>2019-05-03T07:52:56.939Z</time>
      </trkpt>
      <trkpt lat="48.2276062" lon="14.8844406">
        <ele>228.871</ele>
        <time>2019-05-03T07:53:01.264Z</time>
      </trkpt>
      <trkpt lat="48.2275711" lon="14.8846317">
        <ele>229.079</ele>
        <time>2019-05-03T07:53:04.951Z</time>
      </trkpt>
      <trkpt lat="48.2275428" lon="14.8848159">
        <ele>229.336</ele>
        <time>2019-05-03T07:53:08.121Z</time>
      </trkpt>
      <trkpt lat="48.2275272" lon="14.8849865">
        <ele>229.553</ele>
        <time>2019-05-03T07:53:11.012Z</time>
      </trkpt>
      <trkpt lat="48.2274847" lon="14.8851638">
        <ele>229.777</ele>
        <time>2019-05-03T07:53:14.588Z</time>
      </trkpt>
      <trkpt lat="48.2274375" lon="14.8853262">
        <ele>230.007</ele>
        <time>2019-05-03T07:53:17.788Z</time>
      </trkpt>
      <trkpt lat="48.2274126" lon="14.8854734">
        <ele>230.154</ele>
        <time>2019-05-03T07:53:20.406Z</time>
      </trkpt>
      <trkpt lat="48.2273850" lon="14.8856035">
        <ele>230.187</ele>
        <time>2019-05-03T07:53:22.688Z</time>
      </trkpt>
      <trkpt lat="48.2273385" lon="14.8857284">
        <ele>230.164</ele>
        <time>2019-05-03T07:53:24.986Z</time>
      </trkpt>
      <trkpt lat="48.2273021" lon="14.8859097">
        <ele>230.137</ele>
        <time>2019-05-03T07:53:28.037Z</time>
      </trkpt>
      <trkpt lat="48.2272500" lon="14.8860862">
        <ele>230.088</ele>
        <time>2019-05-03T07:53:31.133Z</time>
      </trkpt>
      <trkpt lat="48.2271880" lon="14.8862181">
        <ele>229.928</ele>
        <time>2019-05-03T07:53:33.625Z</time>
      </trkpt>
      <trkpt lat="48.2271366" lon="14.8863452">
        <ele>229.667</ele>
        <time>2019-05-03T07:53:35.850Z</time>
      </trkpt>
      <trkpt lat="48.2270826" lon="14.8865346">
        <ele>229.492</ele>
        <time>2019-05-03T07:53:39.017Z</time>
      </trkpt>
      <trkpt lat="48.2270532" lon="14.8866802">
        <ele>229.638</ele>
        <time>2019-05-03T07:53:41.416Z</time>
      </trkpt>
      <trkpt lat="48.2270232" lon="14.8868640">
        <ele>230.136</ele>
        <time>2019-05-03T07:53:44.290Z</time>
      </trkpt>
      <trkpt lat="48.2270257" lon="14.8870576">
        <ele>230.734</ele>
        <time>2019-05-03T07:53:47.166Z</time>
      </trkpt>
      <trkpt lat="48.2270315" lon="14.8872139">
        <ele>231.154</ele>
        <time>2019-05-03T07:53:49.607Z</time>
      </trkpt>
      <trkpt lat="48.2270500" lon="14.8873629">
        <ele>231.307</ele>
        <time>2019-05-03T07:53:52.016Z</time>
      </trkpt>
      <trkpt lat="48.2270555" lon="14.8874998">
        <ele>231.258</ele>
        <time>2019-05-03T07:53:54.115Z</time>
      </trkpt>
      <trkpt lat="48.2270635" lon="14.8876780">
        <ele>231.147</ele>
        <time>2019-05-03T07:53:56.717Z</time>
      </trkpt>
      <trkpt lat="48.2270665" lon="14.8878572">
        <ele>231.106</ele>
        <time>2019-05-03T07:53:59.261Z</time>
      </trkpt>
      <trkpt lat="48.2270695" lon="14.8880506">
        <ele>231.172</ele>
        <time>2019-05-03T07:54:02.102Z</time>
      </trkpt>
      <trkpt lat="48.2270746" lon="14.8881893">
        <ele>231.309</ele>
        <time>2019-05-03T07:54:04.267Z</time>
      </trkpt>
      <trkpt lat="48.2270864" lon="14.8883368">
        <ele>231.484</ele>
        <time>2019-05-03T07:54:06.612Z</time>
      </trkpt>
      <trkpt lat="48.2270761" lon="14.8884794">
        <ele>231.665</ele>
        <time>2019-05-03T07:54:08.828Z</time>
      </trkpt>
      <trkpt lat="48.2270878" lon="14.8886359">
        <ele>231.797</ele>
        <time>2019-05-03T07:54:11.110Z</time>
      </trkpt>
      <trkpt lat="48.2271023" lon="14.8888198">
        <ele>231.920</ele>
        <time>2019-05-03T07:54:13.731Z</time>
      </trkpt>
      <trkpt lat="48.2271111" lon="14.8889700">
        <ele>232.129</ele>
        <time>2019-05-03T07:54:15.889Z</time>
      </trkpt>
      <trkpt lat="48.2271079" lon="14.8891312">
        <ele>232.415</ele>
        <time>2019-05-03T07:54:18.169Z</time>
      </trkpt>
      <trkpt lat="48.2271088" lon="14.8892672">
        <ele>232.682</ele>
        <time>2019-05-03T07:54:20.089Z</time>
      </trkpt>
      <trkpt lat="48.2271051" lon="14.8894118">
        <ele>232.878</ele>
        <time>2019-05-03T07:54:22.127Z</time>
      </trkpt>
      <trkpt lat="48.2271237" lon="14.8895500">
        <ele>232.992</ele>
        <time>2019-05-03T07:54:24.100Z</time>
      </trkpt>
      <trkpt lat="48.2271348" lon="14.8897463">
        <ele>233.029</ele>
        <time>2019-05-03T07:54:26.871Z</time>
      </trkpt>
      <trkpt lat="48.2271384" lon="14.8898876">
        <ele>232.977</ele>
        <time>2019-05-03T07:54:28.943Z</time>
      </trkpt>
      <trkpt lat="48.2271300" lon="14.8900785">
        <ele>232.825</ele>
        <time>2019-05-03T07:54:31.828Z</time>
      </trkpt>
      <trkpt lat="48.2271355" lon="14.8902196">
        <ele>232.582</ele>
        <time>2019-05-03T07:54:33.983Z</time>
      </trkpt>
      <trkpt lat="48.2271271" lon="14.8904001">
        <ele>232.263</ele>
        <time>2019-05-03T07:54:36.771Z</time>
      </trkpt>
      <trkpt lat="48.2271102" lon="14.8905945">
        <ele>231.847</ele>
        <time>2019-05-03T07:54:39.893Z</time>
      </trkpt>
      <trkpt lat="48.2271045" lon="14.8907819">
        <ele>231.378</ele>
        <time>2019-05-03T07:54:42.939Z</time>
      </trkpt>
      <trkpt lat="48.2270712" lon="14.8909370">
        <ele>231.015</ele>
        <time>2019-05-03T07:54:45.426Z</time>
      </trkpt>
      <trkpt lat="48.2270493" lon="14.8911378">
        <ele>230.907</ele>
        <time>2019-05-03T07:54:48.350Z</time>
      </trkpt>
      <trkpt lat="48.2270334" lon="14.8913296">
        <ele>231.054</ele>
        <time>2019-05-03T07:54:51.082Z</time>
      </trkpt>
      <trkpt lat="48.2270147" lon="14.8914735">
        <ele>231.305</ele>
        <time>2019-05-03T07:54:53.122Z</time>
      </trkpt>
      <trkpt lat="48.2270199" lon="14.8916688">
        <ele>231.446</ele>
        <time>2019-05-03T07:54:55.744Z</time>
      </trkpt>
      <trkpt lat="48.2269974" lon="14.8918834">
        <ele>231.328</ele>
        <time>2019-05-03T07:54:58.654Z</time>
      </trkpt>
      <trkpt lat="48.2269923" lon="14.8920516">
        <ele>230.898</ele>
        <time>2019-05-03T07:55:01.054Z</time>
      </trkpt>
      <trkpt lat="48.2269868" lon="14.8921962">
        <ele>230.229</ele>
        <time>2019-05-03T07:55:03.186Z</time>
      </trkpt>
      <trkpt lat="48.2269598" lon="14.8923248">
        <ele>229.526</ele>
        <time>2019-05-03T07:55:05.206Z</time>
      </trkpt>
      <trkpt lat="48.2269339" lon="14.8924721">
        <ele>229.015</ele>
        <time>2019-05-03T07:55:07.583Z</time>
      </trkpt>
      <trkpt lat="48.2269084" lon="14.8926550">
        <ele>228.783</ele>
        <time>2019-05-03T07:55:10.440Z</time>
      </trkpt>
      <trkpt lat="48.2269353" lon="14.8928518">
        <ele>228.753</ele>
        <time>2019-05-03T07:55:13.429Z</time>
      </trkpt>
      <trkpt lat="48.2269343" lon="14.8930254">
        <ele>228.680</ele>
        <time>2019-05-03T07:55:16.078Z</time>
      </trkpt>
      <trkpt lat="48.2269085" lon="14.8932111">
        <ele>228.331</ele>
        <time>2019-05-03T07:55:19.079Z</time>
      </trkpt>
      <trkpt lat="48.2269008" lon="14.8933709">
        <ele>227.811</ele>
        <time>2019-05-03T07:55:21.587Z</time>
      </trkpt>
      <trkpt lat="48.2268768" lon="14.8935573">
        <ele>227.427</ele>
        <time>2019-05-03T07:55:24.505Z</time>
      </trkpt>
      <trkpt lat="48.2268588" lon="14.8937483">
        <ele>227.297</ele>
        <time>2019-05-03T07:55:27.479Z</time>
      </trkpt>
      <trkpt lat="48.2268389" lon="14.8939134">
        <ele>227.333</ele>
        <time>2019-05-03T07:55:30.065Z</time>
      </trkpt>
      <trkpt lat="48.2268502" lon="14.8940775">
        <ele>227.396</ele>
        <time>2019-05-03T07:55:32.488Z</time>
      </trkpt>
      <trkpt lat="48.2268313" lon="14.8942277">
        <ele>227.383</ele>
        <time>2019-05-03T07:55:34.623Z</time>
      </trkpt>
      <trkpt lat="48.2268180" lon="14.8943814">
        <ele>227.294</ele>
        <time>2019-05-03T07:55:36.804Z</time>
      </trkpt>
      <trkpt lat="48.2268119" lon="14.8945267">
        <ele>227.198</ele>
        <time>2019-05-03T07:55:38.891Z</time>
      </trkpt>
      <trkpt lat="48.2268188" lon="14.8946914">
        <ele>227.143</ele>
        <time>2019-05-03T07:55:41.307Z</time>
      </trkpt>
      <trkpt lat="48.2268351" lon="14.8948827">
        <ele>227.125</ele>
        <time>2019-05-03T07:55:44.119Z</time>
      </trkpt>
      <trkpt lat="48.2268435" lon="14.8950190">
        <ele>227.126</ele>
        <time>2019-05-03T07:55:46.091Z</time>
      </trkpt>
      <trkpt lat="48.2268580" lon="14.8951711">
        <ele>227.131</ele>
        <time>2019-05-03T07:55:48.300Z</time>
      </trkpt>
      <trkpt lat="48.2268727" lon="14.8953091">
        <ele>227.135</ele>
        <time>2019-05-03T07:55:50.315Z</time>
      </trkpt>
      <trkpt lat="48.2268984" lon="14.8954902">
        <ele>227.136</ele>
        <time>2019-05-03T07:55:52.994Z</time>
      </trkpt>
      <trkpt lat="48.2269251" lon="14.8956216">
        <ele>227.136</ele>
        <time>2019-05-03T07:55:54.936Z</time>
      </trkpt>
      <trkpt lat="48.2269445" lon="14.8957568">
        <ele>227.135</ele>
        <time>2019-05-03T07:55:56.853Z</time>
      </trkpt>
      <trkpt lat="48.2269567" lon="14.8959148">
        <ele>227.135</ele>
        <time>2019-05-03T07:55:59.044Z</time>
      </trkpt>
      <trkpt lat="48.2269757" lon="14.8960983">
        <ele>227.135</ele>
        <time>2019-05-03T07:56:01.670Z</time>
      </trkpt>
      <trkpt lat="48.2270030" lon="14.8962856">
        <ele>227.135</ele>
        <time>2019-05-03T07:56:04.437Z</time>
      </trkpt>
      <trkpt lat="48.2270135" lon="14.8964261">
        <ele>227.135</ele>
        <time>2019-05-03T07:56:06.514Z</time>
      </trkpt>
      <trkpt lat="48.2270484" lon="14.8965977">
        <ele>227.135</ele>
        <time>2019-05-03T07:56:09.130Z</time>
      </trkpt>
      <trkpt lat="48.2270792" lon="14.8967530">
        <ele>227.135</ele>
        <time>2019-05-03T07:56:11.425Z</time>
      </trkpt>
      <trkpt lat="48.2271028" lon="14.8969331">
        <ele>227.135</ele>
        <time>2019-05-03T07:56:13.998Z</time>
      </trkpt>
      <trkpt lat="48.2271393" lon="14.8970714">
        <ele>227.135</ele>
        <time>2019-05-03T07:56:16.065Z</time>
      </trkpt>
      <trkpt lat="48.2271702" lon="14.8972084">
        <ele>227.135</ele>
        <time>2019-05-03T07:56:18.068Z</time>
      </trkpt>
      <trkpt lat="48.2271893" lon="14.8973455">
        <ele>227.135</ele>
        <time>2019-05-03T07:56:20.043Z</time>
      </trkpt>
      <trkpt lat="48.2272073" lon="14.8975100">
        <ele>227.135</ele>
        <time>2019-05-03T07:56:22.425Z</time>
      </trkpt>
      <trkpt lat="48.2272284" lon="14.8976415">
        <ele>227.135</ele>
        <time>2019-05-03T07:56:24.365Z</time>
      </trkpt>
      <trkpt lat="48.2272729" lon="14.8977744">
        <ele>227.135</ele>
        <time>2019-05-03T07:56:26.489Z</time>
      </trkpt>
      <trkpt lat="48.2273416" lon="14.8979373">
        <ele>227.135</ele>
        <time>2019-05-03T07:56:29.222Z</time>
      </trkpt>
      <trkpt lat="48.2273965" lon="14.8980857">
        <ele>227.135</ele>
        <time>2019-05-03T07:56:31.580Z</time>
      </trkpt>
      <trkpt lat="48.2274367" lon="14.8982114">
        <ele>227.135</ele>
        <time>2019-05-03T07:56:33.505Z</time>
      </trkpt>
      <trkpt lat="48.2274955" lon="14.8983926">
        <ele>227.135</ele>
        <time>2019-05-03T07:56:36.273Z</time>
      </trkpt>
      <trkpt lat="48.2275447" lon="14.8985205">
        <ele>227.135</ele>
        <time>2019-05-03T07:56:38.254Z</time>
      </trkpt>
      <trkpt lat="48.2276188" lon="14.8986379">
        <ele>227.135</ele>
        <time>2019-05-03T07:56:40.365Z</time>
      </trkpt>
      <trkpt lat="48.2276654" lon="14.8987798">
        <ele>227.135</ele>
        <time>2019-05-03T07:56:42.391Z</time>
      </trkpt>
      <trkpt lat="48.2277168" lon="14.8989098">
        <ele>227.135</ele>
        <time>2019-05-03T07:56:44.365Z</time>
      </trkpt>
      <trkpt lat="48.2277707" lon="14.8990183">
        <ele>227.135</ele>
        <time>2019-05-03T07:56:46.208Z</time>
      </trkpt>
      <trkpt lat="48.2278551" lon="14.8991879">
        <ele>227.135</ele>
        <time>2019-05-03T07:56:49.148Z</time>
      </trkpt>
      <trkpt lat="48.2279155" lon="14.8993059">
        <ele>227.135</ele>
        <time>2019-05-03T07:56:51.205Z</time>
      </trkpt>
      <trkpt lat="48.2279875" lon="14.8994671">
        <ele>227.135</ele>
        <time>2019-05-03T07:56:53.852Z</time>
      </trkpt>
      <trkpt lat="48.2280413" lon="14.8995877">
        <ele>227.135</ele>
        <time>2019-05-03T07:56:55.812Z</time>
      </trkpt>
      <trkpt lat="48.2281045" lon="14.8997157">
        <ele>227.135</ele>
        <time>2019-05-03T07:56:58.007Z</time>
      </trkpt>
      <trkpt lat="48.2281928" lon="14.8998625">
        <ele>227.135</ele>
        <time>2019-05-03T07:57:00.762Z</time>
      </trkpt>
      <trkpt lat="48.2282476" lon="14.8999808">
        <ele>227.135</ele>
        <time>2019-05-03T07:57:02.709Z</time>
      </trkpt>
      <trkpt lat="48.2283046" lon="14.9000905">
        <ele>227.135</ele>
        <time>2019-05-03T07:57:04.538Z</time>
      </trkpt>
      <trkpt lat="48.2283708" lon="14.9001819">
        <ele>227.135</ele>
        <time>2019-05-03T07:57:06.309Z</time>
      </trkpt>
      <trkpt lat="48.2284347" lon="14.9003238">
        <ele>227.135</ele>
        <time>2019-05-03T07:57:08.592Z</time>
      </trkpt>
      <trkpt lat="48.2284905" lon="14.9004302">
        <ele>227.135</ele>
        <time>2019-05-03T07:57:10.478Z</time>
      </trkpt>
      <trkpt lat="48.2285836" lon="14.9005506">
        <ele>227.135</ele>
        <time>2019-05-03T07:57:13.204Z</time>
      </trkpt>
      <trkpt lat="48.2286471" lon="14.9006548">
        <ele>227.135</ele>
        <time>2019-05-03T07:57:15.378Z</time>
      </trkpt>
      <trkpt lat="48.2287260" lon="14.9007259">
        <ele>227.135</ele>
        <time>2019-05-03T07:57:17.505Z</time>
      </trkpt>
      <trkpt lat="48.2288319" lon="14.9008302">
        <ele>227.135</ele>
        <time>2019-05-03T07:57:20.331Z</time>
      </trkpt>
      <trkpt lat="48.2289351" lon="14.9009384">
        <ele>227.135</ele>
        <time>2019-05-03T07:57:23.191Z</time>
      </trkpt>
      <trkpt lat="48.2290196" lon="14.9010645">
        <ele>227.135</ele>
        <time>2019-05-03T07:57:25.934Z</time>
      </trkpt>
      <trkpt lat="48.2291056" lon="14.9011882">
        <ele>227.135</ele>
        <time>2019-05-03T07:57:28.682Z</time>
      </trkpt>
      <trkpt lat="48.2291881" lon="14.9012859">
        <ele>227.139</ele>
        <time>2019-05-03T07:57:31.166Z</time>
      </trkpt>
      <trkpt lat="48.2292578" lon="14.9014034">
        <ele>227.148</ele>
        <time>2019-05-03T07:57:33.748Z</time>
      </trkpt>
      <trkpt lat="48.2293437" lon="14.9015373">
        <ele>227.156</ele>
        <time>2019-05-03T07:57:36.849Z</time>
      </trkpt>
      <trkpt lat="48.2294019" lon="14.9016407">
        <ele>227.155</ele>
        <time>2019-05-03T07:57:39.032Z</time>
      </trkpt>
      <trkpt lat="48.2294889" lon="14.9017866">
        <ele>226.826</ele>
        <time>2019-05-03T07:57:42.012Z</time>
      </trkpt>
      <trkpt lat="48.2295498" lon="14.9018870">
        <ele>225.240</ele>
        <time>2019-05-03T07:57:44.050Z</time>
      </trkpt>
      <trkpt lat="48.2296376" lon="14.9020274">
        <ele>222.106</ele>
        <time>2019-05-03T07:57:46.928Z</time>
      </trkpt>
      <trkpt lat="48.2297169" lon="14.9021673">
        <ele>218.826</ele>
        <time>2019-05-03T07:57:49.791Z</time>
      </trkpt>
      <trkpt lat="48.2297961" lon="14.9023066">
        <ele>218.566</ele>
        <time>2019-05-03T07:57:52.781Z</time>
      </trkpt>
      <trkpt lat="48.2298599" lon="14.9024384">
        <ele>223.004</ele>
        <time>2019-05-03T07:57:55.440Z</time>
      </trkpt>
      <trkpt lat="48.2299039" lon="14.9026069">
        <ele>229.702</ele>
        <time>2019-05-03T07:57:58.453Z</time>
      </trkpt>
      <trkpt lat="48.2299323" lon="14.9027687">
        <ele>235.363</ele>
        <time>2019-05-03T07:58:01.390Z</time>
      </trkpt>
      <trkpt lat="48.2299542" lon="14.9029120">
        <ele>239.276</ele>
        <time>2019-05-03T07:58:04.010Z</time>
      </trkpt>
      <trkpt lat="48.2299625" lon="14.9030606">
        <ele>241.998</ele>
        <time>2019-05-03T07:58:06.830Z</time>
      </trkpt>
      <trkpt lat="48.2299986" lon="14.9032313">
        <ele>244.206</ele>
        <time>2019-05-03T07:58:10.377Z</time>
      </trkpt>
      <trkpt lat="48.2300213" lon="14.9034168">
        <ele>246.344</ele>
        <time>2019-05-03T07:58:13.892Z</time>
      </trkpt>
      <trkpt lat="48.2300589" lon="14.9035489">
        <ele>248.533</ele>
        <time>2019-05-03T07:58:16.451Z</time>
      </trkpt>
      <trkpt lat="48.2301183" lon="14.9036805">
        <ele>250.548</ele>
        <time>2019-05-03T07:58:19.308Z</time>
      </trkpt>
      <trkpt lat="48.2301722" lon="14.9038292">
        <ele>252.074</ele>
        <time>2019-05-03T07:58:22.408Z</time>
      </trkpt>
      <trkpt lat="48.2302087" lon="14.9039555">
        <ele>252.964</ele>
        <time>2019-05-03T07:58:25.050Z</time>
      </trkpt>
      <trkpt lat="48.2302591" lon="14.9041282">
        <ele>253.227</ele>
        <time>2019-05-03T07:58:28.777Z</time>
      </trkpt>
      <trkpt lat="48.2303129" lon="14.9042978">
        <ele>252.957</ele>
        <time>2019-05-03T07:58:32.155Z</time>
      </trkpt>
      <trkpt lat="48.2303726" lon="14.9045049">
        <ele>252.259</ele>
        <time>2019-05-03T07:58:36.198Z</time>
      </trkpt>
      <trkpt lat="48.2304265" lon="14.9046174">
        <ele>251.189</ele>
        <time>2019-05-03T07:58:38.684Z</time>
      </trkpt>
      <trkpt lat="48.2304769" lon="14.9047644">
        <ele>249.923</ele>
        <time>2019-05-03T07:58:41.573Z</time>
      </trkpt>
      <trkpt lat="48.2305571" lon="14.9048477">
        <ele>248.599</ele>
        <time>2019-05-03T07:58:44.105Z</time>
      </trkpt>
      <trkpt lat="48.2306050" lon="14.9049959">
        <ele>247.198</ele>
        <time>2019-05-03T07:58:47.000Z</time>
      </trkpt>
      <trkpt lat="48.2306050" lon="14.9049959">
        <ele>245.963</ele>
        <time>2019-05-03T07:58:47.000Z</time>
      </trkpt>
      <trkpt lat="48.2306050" lon="14.9049959">
        <ele>245.327</ele>
        <time>2019-05-03T07:58:47.100Z</time>
      </trkpt>
      <trkpt lat="48.2305596" lon="14.9052424">
        <ele>245.288</ele>
        <time>2019-05-03T07:58:54.907Z</time>
      </trkpt>
      <trkpt lat="48.2305052" lon="14.9053824">
        <ele>244.316</ele>
        <time>2019-05-03T07:58:58.451Z</time>
      </trkpt>
      <trkpt lat="48.2304366" lon="14.9054790">
        <ele>241.210</ele>
        <time>2019-05-03T07:59:01.354Z</time>
      </trkpt>
      <trkpt lat="48.2303644" lon="14.9056089">
        <ele>237.418</ele>
        <time>2019-05-03T07:59:04.416Z</time>
      </trkpt>
      <trkpt lat="48.2302879" lon="14.9057743">
        <ele>234.865</ele>
        <time>2019-05-03T07:59:07.564Z</time>
      </trkpt>
      <trkpt lat="48.2302381" lon="14.9059369">
        <ele>233.677</ele>
        <time>2019-05-03T07:59:10.250Z</time>
      </trkpt>
      <trkpt lat="48.2302359" lon="14.9060984">
        <ele>233.320</ele>
        <time>2019-05-03T07:59:12.662Z</time>
      </trkpt>
      <trkpt lat="48.2302329" lon="14.9062432">
        <ele>233.290</ele>
        <time>2019-05-03T07:59:14.813Z</time>
      </trkpt>
      <trkpt lat="48.2302170" lon="14.9063804">
        <ele>233.325</ele>
        <time>2019-05-03T07:59:16.841Z</time>
      </trkpt>
      <trkpt lat="48.2302158" lon="14.9065219">
        <ele>233.297</ele>
        <time>2019-05-03T07:59:18.849Z</time>
      </trkpt>
      <trkpt lat="48.2302167" lon="14.9066708">
        <ele>233.116</ele>
        <time>2019-05-03T07:59:20.920Z</time>
      </trkpt>
      <trkpt lat="48.2302174" lon="14.9068076">
        <ele>232.768</ele>
        <time>2019-05-03T07:59:22.835Z</time>
      </trkpt>
      <trkpt lat="48.2302303" lon="14.9069427">
        <ele>232.328</ele>
        <time>2019-05-03T07:59:24.788Z</time>
      </trkpt>
      <trkpt lat="48.2302407" lon="14.9071146">
        <ele>231.878</ele>
        <time>2019-05-03T07:59:27.366Z</time>
      </trkpt>
      <trkpt lat="48.2302546" lon="14.9072577">
        <ele>231.440</ele>
        <time>2019-05-03T07:59:29.616Z</time>
      </trkpt>
      <trkpt lat="48.2302719" lon="14.9073905">
        <ele>231.013</ele>
        <time>2019-05-03T07:59:31.714Z</time>
      </trkpt>
      <trkpt lat="48.2303095" lon="14.9075856">
        <ele>230.635</ele>
        <time>2019-05-03T07:59:34.829Z</time>
      </trkpt>
      <trkpt lat="48.2303361" lon="14.9077678">
        <ele>230.324</ele>
        <time>2019-05-03T07:59:37.700Z</time>
      </trkpt>
      <trkpt lat="48.2303520" lon="14.9079277">
        <ele>230.027</ele>
        <time>2019-05-03T07:59:40.241Z</time>
      </trkpt>
      <trkpt lat="48.2303668" lon="14.9081001">
        <ele>229.733</ele>
        <time>2019-05-03T07:59:42.996Z</time>
      </trkpt>
      <trkpt lat="48.2303653" lon="14.9082460">
        <ele>229.510</ele>
        <time>2019-05-03T07:59:45.273Z</time>
      </trkpt>
      <trkpt lat="48.2303741" lon="14.9084451">
        <ele>229.438</ele>
        <time>2019-05-03T07:59:48.353Z</time>
      </trkpt>
      <trkpt lat="48.2303861" lon="14.9086263">
        <ele>229.578</ele>
        <time>2019-05-03T07:59:51.131Z</time>
      </trkpt>
      <trkpt lat="48.2304097" lon="14.9087734">
        <ele>229.958</ele>
        <time>2019-05-03T07:59:53.363Z</time>
      </trkpt>
      <trkpt lat="48.2304401" lon="14.9089699">
        <ele>230.493</ele>
        <time>2019-05-03T07:59:56.236Z</time>
      </trkpt>
      <trkpt lat="48.2304604" lon="14.9091064">
        <ele>231.032</ele>
        <time>2019-05-03T07:59:58.167Z</time>
      </trkpt>
      <trkpt lat="48.2304832" lon="14.9092431">
        <ele>231.471</ele>
        <time>2019-05-03T08:00:00.103Z</time>
      </trkpt>
      <trkpt lat="48.2304970" lon="14.9094388">
        <ele>231.787</ele>
        <time>2019-05-03T08:00:02.839Z</time>
      </trkpt>
      <trkpt lat="48.2305276" lon="14.9096116">
        <ele>232.059</ele>
        <time>2019-05-03T08:00:05.354Z</time>
      </trkpt>
      <trkpt lat="48.2305463" lon="14.9097598">
        <ele>232.432</ele>
        <time>2019-05-03T08:00:07.497Z</time>
      </trkpt>
      <trkpt lat="48.2305598" lon="14.9099408">
        <ele>232.919</ele>
        <time>2019-05-03T08:00:10.104Z</time>
      </trkpt>
      <trkpt lat="48.2306240" lon="14.9101267">
        <ele>233.434</ele>
        <time>2019-05-03T08:00:13.130Z</time>
      </trkpt>
      <trkpt lat="48.2306669" lon="14.9102536">
        <ele>233.943</ele>
        <time>2019-05-03T08:00:15.196Z</time>
      </trkpt>
      <trkpt lat="48.2307395" lon="14.9104167">
        <ele>234.374</ele>
        <time>2019-05-03T08:00:18.072Z</time>
      </trkpt>
      <trkpt lat="48.2307690" lon="14.9105911">
        <ele>234.559</ele>
        <time>2019-05-03T08:00:20.772Z</time>
      </trkpt>
      <trkpt lat="48.2307824" lon="14.9107280">
        <ele>234.328</ele>
        <time>2019-05-03T08:00:22.905Z</time>
      </trkpt>
      <trkpt lat="48.2308053" lon="14.9109140">
        <ele>233.736</ele>
        <time>2019-05-03T08:00:25.823Z</time>
      </trkpt>
      <trkpt lat="48.2308073" lon="14.9110508">
        <ele>233.132</ele>
        <time>2019-05-03T08:00:27.904Z</time>
      </trkpt>
      <trkpt lat="48.2308259" lon="14.9112373">
        <ele>232.820</ele>
        <time>2019-05-03T08:00:30.811Z</time>
      </trkpt>
      <trkpt lat="48.2308575" lon="14.9113882">
        <ele>233.002</ele>
        <time>2019-05-03T08:00:33.357Z</time>
      </trkpt>
      <trkpt lat="48.2308796" lon="14.9115607">
        <ele>233.863</ele>
        <time>2019-05-03T08:00:36.293Z</time>
      </trkpt>
      <trkpt lat="48.2309173" lon="14.9117474">
        <ele>235.330</ele>
        <time>2019-05-03T08:00:39.493Z</time>
      </trkpt>
      <trkpt lat="48.2309605" lon="14.9119270">
        <ele>237.208</ele>
        <time>2019-05-03T08:00:42.512Z</time>
      </trkpt>
      <trkpt lat="48.2310208" lon="14.9120904">
        <ele>239.403</ele>
        <time>2019-05-03T08:00:45.397Z</time>
      </trkpt>
      <trkpt lat="48.2310662" lon="14.9122630">
        <ele>241.682</ele>
        <time>2019-05-03T08:00:48.245Z</time>
      </trkpt>
      <trkpt lat="48.2311082" lon="14.9124287">
        <ele>243.684</ele>
        <time>2019-05-03T08:00:50.996Z</time>
      </trkpt>
      <trkpt lat="48.2311355" lon="14.9125627">
        <ele>245.244</ele>
        <time>2019-05-03T08:00:53.198Z</time>
      </trkpt>
      <trkpt lat="48.2311513" lon="14.9127364">
        <ele>246.414</ele>
        <time>2019-05-03T08:00:55.960Z</time>
      </trkpt>
      <trkpt lat="48.2311887" lon="14.9128684">
        <ele>247.384</ele>
        <time>2019-05-03T08:00:58.218Z</time>
      </trkpt>
      <trkpt lat="48.2312175" lon="14.9130386">
        <ele>248.340</ele>
        <time>2019-05-03T08:01:01.001Z</time>
      </trkpt>
      <trkpt lat="48.2312175" lon="14.9130386">
        <ele>249.185</ele>
        <time>2019-05-03T08:01:02.001Z</time>
      </trkpt>
      <trkpt lat="48.2312175" lon="14.9130386">
        <ele>249.566</ele>
        <time>2019-05-03T08:01:02.101Z</time>
      </trkpt>
      <trkpt lat="48.2311912" lon="14.9133725">
        <ele>249.422</ele>
        <time>2019-05-03T08:01:08.918Z</time>
      </trkpt>
      <trkpt lat="48.2311846" lon="14.9135441">
        <ele>249.582</ele>
        <time>2019-05-03T08:01:11.635Z</time>
      </trkpt>
      <trkpt lat="48.2311829" lon="14.9137102">
        <ele>251.053</ele>
        <time>2019-05-03T08:01:14.185Z</time>
      </trkpt>
      <trkpt lat="48.2311987" lon="14.9138553">
        <ele>253.958</ele>
        <time>2019-05-03T08:01:16.446Z</time>
      </trkpt>
      <trkpt lat="48.2311843" lon="14.9140190">
        <ele>257.230</ele>
        <time>2019-05-03T08:01:19.034Z</time>
      </trkpt>
      <trkpt lat="48.2311971" lon="14.9141728">
        <ele>259.514</ele>
        <time>2019-05-03T08:01:21.548Z</time>
      </trkpt>
      <trkpt lat="48.2312356" lon="14.9143189">
        <ele>261.660</ele>
        <time>2019-05-03T08:01:24.203Z</time>
      </trkpt>
      <trkpt lat="48.2313107" lon="14.9144624">
        <ele>265.378</ele>
        <time>2019-05-03T08:01:27.196Z</time>
      </trkpt>
      <trkpt lat="48.2313857" lon="14.9145989">
        <ele>269.714</ele>
        <time>2019-05-03T08:01:30.084Z</time>
      </trkpt>
      <trkpt lat="48.2314755" lon="14.9147353">
        <ele>272.650</ele>
        <time>2019-05-03T08:01:33.462Z</time>
      </trkpt>
      <trkpt lat="48.2315263" lon="14.9148594">
        <ele>273.662</ele>
        <time>2019-05-03T08:01:35.926Z</time>
      </trkpt>
      <trkpt lat="48.2315842" lon="14.9150048">
        <ele>273.109</ele>
        <time>2019-05-03T08:01:38.772Z</time>
      </trkpt>
      <trkpt lat="48.2316608" lon="14.9151286">
        <ele>271.585</ele>
        <time>2019-05-03T08:01:41.621Z</time>
      </trkpt>
      <trkpt lat="48.2317237" lon="14.9152812">
        <ele>269.476</ele>
        <time>2019-05-03T08:01:44.578Z</time>
      </trkpt>
      <trkpt lat="48.2317534" lon="14.9154228">
        <ele>266.863</ele>
        <time>2019-05-03T08:01:47.015Z</time>
      </trkpt>
      <trkpt lat="48.2317829" lon="14.9156223">
        <ele>263.781</ele>
        <time>2019-05-03T08:01:50.246Z</time>
      </trkpt>
      <trkpt lat="48.2317933" lon="14.9157729">
        <ele>260.516</ele>
        <time>2019-05-03T08:01:52.618Z</time>
      </trkpt>
      <trkpt lat="48.2318043" lon="14.9159611">
        <ele>257.527</ele>
        <time>2019-05-03T08:01:55.634Z</time>
      </trkpt>
      <trkpt lat="48.2317895" lon="14.9161136">
        <ele>254.912</ele>
        <time>2019-05-03T08:01:58.001Z</time>
      </trkpt>
      <trkpt lat="48.2317895" lon="14.9161136">
        <ele>252.752</ele>
        <time>2019-05-03T08:01:59.999Z</time>
      </trkpt>
      <trkpt lat="48.2317895" lon="14.9161136">
        <ele>251.595</ele>
        <time>2019-05-03T08:02:00.099Z</time>
      </trkpt>
      <trkpt lat="48.2317987" lon="14.9164557">
        <ele>251.592</ele>
        <time>2019-05-03T08:02:08.822Z</time>
      </trkpt>
      <trkpt lat="48.2317796" lon="14.9165914">
        <ele>251.440</ele>
        <time>2019-05-03T08:02:11.419Z</time>
      </trkpt>
      <trkpt lat="48.2317525" lon="14.9167728">
        <ele>249.999</ele>
        <time>2019-05-03T08:02:14.739Z</time>
      </trkpt>
      <trkpt lat="48.2317067" lon="14.9169221">
        <ele>247.791</ele>
        <time>2019-05-03T08:02:17.551Z</time>
      </trkpt>
      <trkpt lat="48.2316654" lon="14.9170633">
        <ele>245.744</ele>
        <time>2019-05-03T08:02:20.137Z</time>
      </trkpt>
      <trkpt lat="48.2316147" lon="14.9172500">
        <ele>244.059</ele>
        <time>2019-05-03T08:02:23.373Z</time>
      </trkpt>
      <trkpt lat="48.2315931" lon="14.9173878">
        <ele>242.770</ele>
        <time>2019-05-03T08:02:25.604Z</time>
      </trkpt>
      <trkpt lat="48.2315623" lon="14.9175230">
        <ele>241.882</ele>
        <time>2019-05-03T08:02:27.850Z</time>
      </trkpt>
      <trkpt lat="48.2315009" lon="14.9176956">
        <ele>241.321</ele>
        <time>2019-05-03T08:02:30.931Z</time>
      </trkpt>
      <trkpt lat="48.2314639" lon="14.9178469">
        <ele>240.948</ele>
        <time>2019-05-03T08:02:33.468Z</time>
      </trkpt>
      <trkpt lat="48.2314207" lon="14.9180138">
        <ele>240.629</ele>
        <time>2019-05-03T08:02:36.287Z</time>
      </trkpt>
      <trkpt lat="48.2314202" lon="14.9181630">
        <ele>240.316</ele>
        <time>2019-05-03T08:02:38.626Z</time>
      </trkpt>
      <trkpt lat="48.2313728" lon="14.9183289">
        <ele>239.991</ele>
        <time>2019-05-03T08:02:41.406Z</time>
      </trkpt>
      <trkpt lat="48.2313394" lon="14.9184626">
        <ele>239.525</ele>
        <time>2019-05-03T08:02:43.532Z</time>
      </trkpt>
      <trkpt lat="48.2313129" lon="14.9186107">
        <ele>238.811</ele>
        <time>2019-05-03T08:02:45.712Z</time>
      </trkpt>
      <trkpt lat="48.2313091" lon="14.9187709">
        <ele>237.985</ele>
        <time>2019-05-03T08:02:47.871Z</time>
      </trkpt>
      <trkpt lat="48.2313047" lon="14.9189355">
        <ele>237.173</ele>
        <time>2019-05-03T08:02:49.999Z</time>
      </trkpt>
      <trkpt lat="48.2312987" lon="14.9190949">
        <ele>236.252</ele>
        <time>2019-05-03T08:02:52.036Z</time>
      </trkpt>
      <trkpt lat="48.2312762" lon="14.9192653">
        <ele>235.128</ele>
        <time>2019-05-03T08:02:54.264Z</time>
      </trkpt>
      <trkpt lat="48.2312853" lon="14.9194200">
        <ele>233.903</ele>
        <time>2019-05-03T08:02:56.294Z</time>
      </trkpt>
      <trkpt lat="48.2312887" lon="14.9196168">
        <ele>232.755</ele>
        <time>2019-05-03T08:02:58.909Z</time>
      </trkpt>
      <trkpt lat="48.2313020" lon="14.9197527">
        <ele>231.777</ele>
        <time>2019-05-03T08:03:00.754Z</time>
      </trkpt>
      <trkpt lat="48.2313188" lon="14.9199474">
        <ele>230.988</ele>
        <time>2019-05-03T08:03:03.424Z</time>
      </trkpt>
      <trkpt lat="48.2313322" lon="14.9201677">
        <ele>230.414</ele>
        <time>2019-05-03T08:03:06.466Z</time>
      </trkpt>
      <trkpt lat="48.2313450" lon="14.9203643">
        <ele>230.057</ele>
        <time>2019-05-03T08:03:09.219Z</time>
      </trkpt>
      <trkpt lat="48.2313497" lon="14.9205058">
        <ele>229.874</ele>
        <time>2019-05-03T08:03:11.217Z</time>
      </trkpt>
      <trkpt lat="48.2313621" lon="14.9206967">
        <ele>229.804</ele>
        <time>2019-05-03T08:03:13.915Z</time>
      </trkpt>
      <trkpt lat="48.2313676" lon="14.9208439">
        <ele>229.772</ele>
        <time>2019-05-03T08:03:15.994Z</time>
      </trkpt>
      <trkpt lat="48.2313721" lon="14.9209808">
        <ele>229.742</ele>
        <time>2019-05-03T08:03:17.935Z</time>
      </trkpt>
      <trkpt lat="48.2313913" lon="14.9211738">
        <ele>229.746</ele>
        <time>2019-05-03T08:03:20.688Z</time>
      </trkpt>
      <trkpt lat="48.2314057" lon="14.9213803">
        <ele>229.801</ele>
        <time>2019-05-03T08:03:23.583Z</time>
      </trkpt>
      <trkpt lat="48.2314231" lon="14.9215312">
        <ele>229.829</ele>
        <time>2019-05-03T08:03:25.753Z</time>
      </trkpt>
      <trkpt lat="48.2314219" lon="14.9217237">
        <ele>229.748</ele>
        <time>2019-05-03T08:03:28.518Z</time>
      </trkpt>
      <trkpt lat="48.2314252" lon="14.9219036">
        <ele>229.576</ele>
        <time>2019-05-03T08:03:31.117Z</time>
      </trkpt>
      <trkpt lat="48.2314138" lon="14.9220535">
        <ele>229.377</ele>
        <time>2019-05-03T08:03:33.284Z</time>
      </trkpt>
      <trkpt lat="48.2314038" lon="14.9221988">
        <ele>229.200</ele>
        <time>2019-05-03T08:03:35.373Z</time>
      </trkpt>
      <trkpt lat="48.2313773" lon="14.9223307">
        <ele>229.086</ele>
        <time>2019-05-03T08:03:37.311Z</time>
      </trkpt>
      <trkpt lat="48.2313676" lon="14.9224666">
        <ele>229.041</ele>
        <time>2019-05-03T08:03:39.202Z</time>
      </trkpt>
      <trkpt lat="48.2313698" lon="14.9226205">
        <ele>229.099</ele>
        <time>2019-05-03T08:03:41.316Z</time>
      </trkpt>
      <trkpt lat="48.2313711" lon="14.9227711">
        <ele>229.323</ele>
        <time>2019-05-03T08:03:43.366Z</time>
      </trkpt>
      <trkpt lat="48.2313917" lon="14.9229722">
        <ele>229.684</ele>
        <time>2019-05-03T08:03:46.109Z</time>
      </trkpt>
      <trkpt lat="48.2314060" lon="14.9231152">
        <ele>230.033</ele>
        <time>2019-05-03T08:03:48.064Z</time>
      </trkpt>
      <trkpt lat="48.2314084" lon="14.9233180">
        <ele>230.203</ele>
        <time>2019-05-03T08:03:50.837Z</time>
      </trkpt>
      <trkpt lat="48.2314052" lon="14.9234558">
        <ele>230.125</ele>
        <time>2019-05-03T08:03:52.766Z</time>
      </trkpt>
      <trkpt lat="48.2313913" lon="14.9236007">
        <ele>229.881</ele>
        <time>2019-05-03T08:03:54.826Z</time>
      </trkpt>
      <trkpt lat="48.2313864" lon="14.9238003">
        <ele>229.621</ele>
        <time>2019-05-03T08:03:57.661Z</time>
      </trkpt>
      <trkpt lat="48.2313858" lon="14.9239450">
        <ele>229.435</ele>
        <time>2019-05-03T08:03:59.723Z</time>
      </trkpt>
      <trkpt lat="48.2313646" lon="14.9241168">
        <ele>229.338</ele>
        <time>2019-05-03T08:04:02.240Z</time>
      </trkpt>
      <trkpt lat="48.2313623" lon="14.9242594">
        <ele>229.326</ele>
        <time>2019-05-03T08:04:04.312Z</time>
      </trkpt>
      <trkpt lat="48.2313646" lon="14.9243992">
        <ele>229.407</ele>
        <time>2019-05-03T08:04:06.350Z</time>
      </trkpt>
      <trkpt lat="48.2313609" lon="14.9246173">
        <ele>229.573</ele>
        <time>2019-05-03T08:04:09.566Z</time>
      </trkpt>
      <trkpt lat="48.2313408" lon="14.9248022">
        <ele>229.756</ele>
        <time>2019-05-03T08:04:12.350Z</time>
      </trkpt>
      <trkpt lat="48.2313273" lon="14.9249927">
        <ele>229.856</ele>
        <time>2019-05-03T08:04:15.163Z</time>
      </trkpt>
      <trkpt lat="48.2313177" lon="14.9251320">
        <ele>229.847</ele>
        <time>2019-05-03T08:04:17.200Z</time>
      </trkpt>
      <trkpt lat="48.2313060" lon="14.9253333">
        <ele>229.817</ele>
        <time>2019-05-03T08:04:20.100Z</time>
      </trkpt>
      <trkpt lat="48.2312931" lon="14.9255437">
        <ele>229.872</ele>
        <time>2019-05-03T08:04:23.101Z</time>
      </trkpt>
      <trkpt lat="48.2312756" lon="14.9257347">
        <ele>230.054</ele>
        <time>2019-05-03T08:04:25.860Z</time>
      </trkpt>
      <trkpt lat="48.2312637" lon="14.9259199">
        <ele>230.364</ele>
        <time>2019-05-03T08:04:28.577Z</time>
      </trkpt>
      <trkpt lat="48.2312521" lon="14.9261069">
        <ele>230.785</ele>
        <time>2019-05-03T08:04:31.355Z</time>
      </trkpt>
      <trkpt lat="48.2312234" lon="14.9263129">
        <ele>231.274</ele>
        <time>2019-05-03T08:04:34.475Z</time>
      </trkpt>
      <trkpt lat="48.2312083" lon="14.9265047">
        <ele>231.744</ele>
        <time>2019-05-03T08:04:37.326Z</time>
      </trkpt>
      <trkpt lat="48.2311853" lon="14.9266986">
        <ele>232.114</ele>
        <time>2019-05-03T08:04:40.175Z</time>
      </trkpt>
      <trkpt lat="48.2311674" lon="14.9268609">
        <ele>232.339</ele>
        <time>2019-05-03T08:04:42.473Z</time>
      </trkpt>
      <trkpt lat="48.2311559" lon="14.9270675">
        <ele>232.408</ele>
        <time>2019-05-03T08:04:45.317Z</time>
      </trkpt>
      <trkpt lat="48.2311468" lon="14.9272071">
        <ele>232.312</ele>
        <time>2019-05-03T08:04:47.232Z</time>
      </trkpt>
      <trkpt lat="48.2311264" lon="14.9274001">
        <ele>232.076</ele>
        <time>2019-05-03T08:04:49.922Z</time>
      </trkpt>
      <trkpt lat="48.2311218" lon="14.9275934">
        <ele>231.776</ele>
        <time>2019-05-03T08:04:52.602Z</time>
      </trkpt>
      <trkpt lat="48.2311147" lon="14.9277352">
        <ele>231.432</ele>
        <time>2019-05-03T08:04:54.578Z</time>
      </trkpt>
      <trkpt lat="48.2310956" lon="14.9279279">
        <ele>231.019</ele>
        <time>2019-05-03T08:04:57.292Z</time>
      </trkpt>
      <trkpt lat="48.2310838" lon="14.9280667">
        <ele>230.593</ele>
        <time>2019-05-03T08:04:59.237Z</time>
      </trkpt>
      <trkpt lat="48.2310746" lon="14.9282085">
        <ele>230.268</ele>
        <time>2019-05-03T08:05:01.202Z</time>
      </trkpt>
      <trkpt lat="48.2310677" lon="14.9283520">
        <ele>230.130</ele>
        <time>2019-05-03T08:05:03.192Z</time>
      </trkpt>
      <trkpt lat="48.2310676" lon="14.9285560">
        <ele>230.198</ele>
        <time>2019-05-03T08:05:06.062Z</time>
      </trkpt>
      <trkpt lat="48.2310497" lon="14.9287319">
        <ele>230.381</ele>
        <time>2019-05-03T08:05:08.668Z</time>
      </trkpt>
      <trkpt lat="48.2310326" lon="14.9288730">
        <ele>230.557</ele>
        <time>2019-05-03T08:05:10.898Z</time>
      </trkpt>
      <trkpt lat="48.2310164" lon="14.9290225">
        <ele>230.670</ele>
        <time>2019-05-03T08:05:13.431Z</time>
      </trkpt>
      <trkpt lat="48.2309998" lon="14.9291720">
        <ele>230.754</ele>
        <time>2019-05-03T08:05:15.942Z</time>
      </trkpt>
      <trkpt lat="48.2309859" lon="14.9293660">
        <ele>230.895</ele>
        <time>2019-05-03T08:05:19.047Z</time>
      </trkpt>
      <trkpt lat="48.2309837" lon="14.9295026">
        <ele>231.195</ele>
        <time>2019-05-03T08:05:21.109Z</time>
      </trkpt>
      <trkpt lat="48.2309879" lon="14.9296638">
        <ele>231.647</ele>
        <time>2019-05-03T08:05:23.453Z</time>
      </trkpt>
      <trkpt lat="48.2309835" lon="14.9298096">
        <ele>232.110</ele>
        <time>2019-05-03T08:05:25.521Z</time>
      </trkpt>
      <trkpt lat="48.2309824" lon="14.9299505">
        <ele>232.457</ele>
        <time>2019-05-03T08:05:27.488Z</time>
      </trkpt>
      <trkpt lat="48.2309690" lon="14.9300853">
        <ele>232.670</ele>
        <time>2019-05-03T08:05:29.388Z</time>
      </trkpt>
      <trkpt lat="48.2309601" lon="14.9302243">
        <ele>232.768</ele>
        <time>2019-05-03T08:05:31.362Z</time>
      </trkpt>
      <trkpt lat="48.2309609" lon="14.9304230">
        <ele>232.785</ele>
        <time>2019-05-03T08:05:34.208Z</time>
      </trkpt>
      <trkpt lat="48.2309600" lon="14.9305627">
        <ele>232.735</ele>
        <time>2019-05-03T08:05:36.267Z</time>
      </trkpt>
      <trkpt lat="48.2309551" lon="14.9307295">
        <ele>232.621</ele>
        <time>2019-05-03T08:05:38.802Z</time>
      </trkpt>
      <trkpt lat="48.2309478" lon="14.9308865">
        <ele>232.488</ele>
        <time>2019-05-03T08:05:41.296Z</time>
      </trkpt>
      <trkpt lat="48.2309223" lon="14.9310710">
        <ele>232.395</ele>
        <time>2019-05-03T08:05:44.411Z</time>
      </trkpt>
      <trkpt lat="48.2309281" lon="14.9312523">
        <ele>232.366</ele>
        <time>2019-05-03T08:05:47.402Z</time>
      </trkpt>
      <trkpt lat="48.2309209" lon="14.9314033">
        <ele>232.433</ele>
        <time>2019-05-03T08:05:49.765Z</time>
      </trkpt>
      <trkpt lat="48.2309131" lon="14.9315675">
        <ele>232.596</ele>
        <time>2019-05-03T08:05:52.144Z</time>
      </trkpt>
      <trkpt lat="48.2309097" lon="14.9317233">
        <ele>232.767</ele>
        <time>2019-05-03T08:05:54.252Z</time>
      </trkpt>
      <trkpt lat="48.2309046" lon="14.9318837">
        <ele>232.861</ele>
        <time>2019-05-03T08:05:56.346Z</time>
      </trkpt>
      <trkpt lat="48.2308915" lon="14.9320816">
        <ele>232.836</ele>
        <time>2019-05-03T08:05:58.919Z</time>
      </trkpt>
      <trkpt lat="48.2308880" lon="14.9322415">
        <ele>232.635</ele>
        <time>2019-05-03T08:06:00.976Z</time>
      </trkpt>
      <trkpt lat="48.2308784" lon="14.9324012">
        <ele>232.263</ele>
        <time>2019-05-03T08:06:03.016Z</time>
      </trkpt>
      <trkpt lat="48.2308774" lon="14.9325573">
        <ele>231.888</ele>
        <time>2019-05-03T08:06:05.002Z</time>
      </trkpt>
      <trkpt lat="48.2308828" lon="14.9327591">
        <ele>231.681</ele>
        <time>2019-05-03T08:06:07.636Z</time>
      </trkpt>
      <trkpt lat="48.2308820" lon="14.9329288">
        <ele>231.694</ele>
        <time>2019-05-03T08:06:09.972Z</time>
      </trkpt>
      <trkpt lat="48.2308654" lon="14.9331223">
        <ele>231.895</ele>
        <time>2019-05-03T08:06:12.890Z</time>
      </trkpt>
      <trkpt lat="48.2308538" lon="14.9333153">
        <ele>232.253</ele>
        <time>2019-05-03T08:06:15.912Z</time>
      </trkpt>
      <trkpt lat="48.2308535" lon="14.9335046">
        <ele>232.777</ele>
        <time>2019-05-03T08:06:18.915Z</time>
      </trkpt>
      <trkpt lat="48.2308183" lon="14.9336921">
        <ele>233.415</ele>
        <time>2019-05-03T08:06:21.991Z</time>
      </trkpt>
      <trkpt lat="48.2307890" lon="14.9338827">
        <ele>233.970</ele>
        <time>2019-05-03T08:06:25.013Z</time>
      </trkpt>
      <trkpt lat="48.2307507" lon="14.9340605">
        <ele>234.299</ele>
        <time>2019-05-03T08:06:27.909Z</time>
      </trkpt>
      <trkpt lat="48.2307277" lon="14.9342067">
        <ele>234.470</ele>
        <time>2019-05-03T08:06:30.222Z</time>
      </trkpt>
      <trkpt lat="48.2306909" lon="14.9343664">
        <ele>234.607</ele>
        <time>2019-05-03T08:06:32.636Z</time>
      </trkpt>
      <trkpt lat="48.2306534" lon="14.9344955">
        <ele>234.734</ele>
        <time>2019-05-03T08:06:34.536Z</time>
      </trkpt>
      <trkpt lat="48.2306178" lon="14.9346265">
        <ele>234.881</ele>
        <time>2019-05-03T08:06:36.410Z</time>
      </trkpt>
      <trkpt lat="48.2305896" lon="14.9347550">
        <ele>235.127</ele>
        <time>2019-05-03T08:06:38.204Z</time>
      </trkpt>
      <trkpt lat="48.2305568" lon="14.9348961">
        <ele>235.494</ele>
        <time>2019-05-03T08:06:40.240Z</time>
      </trkpt>
      <trkpt lat="48.2305254" lon="14.9350588">
        <ele>235.871</ele>
        <time>2019-05-03T08:06:42.635Z</time>
      </trkpt>
      <trkpt lat="48.2304918" lon="14.9352103">
        <ele>236.129</ele>
        <time>2019-05-03T08:06:45.059Z</time>
      </trkpt>
      <trkpt lat="48.2304579" lon="14.9353985">
        <ele>236.242</ele>
        <time>2019-05-03T08:06:48.227Z</time>
      </trkpt>
      <trkpt lat="48.2304350" lon="14.9355750">
        <ele>236.276</ele>
        <time>2019-05-03T08:06:51.233Z</time>
      </trkpt>
      <trkpt lat="48.2304120" lon="14.9357194">
        <ele>236.288</ele>
        <time>2019-05-03T08:06:53.682Z</time>
      </trkpt>
      <trkpt lat="48.2303622" lon="14.9358676">
        <ele>236.230</ele>
        <time>2019-05-03T08:06:56.289Z</time>
      </trkpt>
      <trkpt lat="48.2303090" lon="14.9360259">
        <ele>236.015</ele>
        <time>2019-05-03T08:06:58.871Z</time>
      </trkpt>
      <trkpt lat="48.2302503" lon="14.9362018">
        <ele>235.704</ele>
        <time>2019-05-03T08:07:01.648Z</time>
      </trkpt>
      <trkpt lat="48.2301760" lon="14.9363030">
        <ele>235.403</ele>
        <time>2019-05-03T08:07:03.780Z</time>
      </trkpt>
      <trkpt lat="48.2301082" lon="14.9363927">
        <ele>235.147</ele>
        <time>2019-05-03T08:07:05.740Z</time>
      </trkpt>
      <trkpt lat="48.2300221" lon="14.9364737">
        <ele>234.987</ele>
        <time>2019-05-03T08:07:08.000Z</time>
      </trkpt>
      <trkpt lat="48.2300221" lon="14.9364737">
        <ele>234.941</ele>
        <time>2019-05-03T08:07:08.000Z</time>
      </trkpt>
      <trkpt lat="48.2300221" lon="14.9364737">
        <ele>234.916</ele>
        <time>2019-05-03T08:07:08.100Z</time>
      </trkpt>
      <trkpt lat="48.2299219" lon="14.9366150">
        <ele>234.840</ele>
        <time>2019-05-03T08:07:14.256Z</time>
      </trkpt>
      <trkpt lat="48.2298603" lon="14.9367981">
        <ele>235.138</ele>
        <time>2019-05-03T08:07:18.503Z</time>
      </trkpt>
      <trkpt lat="48.2298162" lon="14.9369442">
        <ele>236.210</ele>
        <time>2019-05-03T08:07:21.559Z</time>
      </trkpt>
      <trkpt lat="48.2297654" lon="14.9371628">
        <ele>237.528</ele>
        <time>2019-05-03T08:07:25.799Z</time>
      </trkpt>
      <trkpt lat="48.2297180" lon="14.9373597">
        <ele>238.237</ele>
        <time>2019-05-03T08:07:29.337Z</time>
      </trkpt>
      <trkpt lat="48.2296664" lon="14.9374800">
        <ele>237.939</ele>
        <time>2019-05-03T08:07:31.627Z</time>
      </trkpt>
      <trkpt lat="48.2296157" lon="14.9376537">
        <ele>236.736</ele>
        <time>2019-05-03T08:07:34.710Z</time>
      </trkpt>
      <trkpt lat="48.2295515" lon="14.9377596">
        <ele>235.192</ele>
        <time>2019-05-03T08:07:37.113Z</time>
      </trkpt>
      <trkpt lat="48.2294894" lon="14.9379436">
        <ele>233.859</ele>
        <time>2019-05-03T08:07:40.636Z</time>
      </trkpt>
      <trkpt lat="48.2294288" lon="14.9381094">
        <ele>232.953</ele>
        <time>2019-05-03T08:07:43.956Z</time>
      </trkpt>
      <trkpt lat="48.2293604" lon="14.9382671">
        <ele>232.450</ele>
        <time>2019-05-03T08:07:47.250Z</time>
      </trkpt>
      <trkpt lat="48.2293023" lon="14.9384218">
        <ele>232.204</ele>
        <time>2019-05-03T08:07:50.311Z</time>
      </trkpt>
      <trkpt lat="48.2292512" lon="14.9385509">
        <ele>232.100</ele>
        <time>2019-05-03T08:07:53.022Z</time>
      </trkpt>
      <trkpt lat="48.2291640" lon="14.9386745">
        <ele>232.051</ele>
        <time>2019-05-03T08:07:56.331Z</time>
      </trkpt>
      <trkpt lat="48.2290702" lon="14.9387580">
        <ele>231.963</ele>
        <time>2019-05-03T08:07:59.137Z</time>
      </trkpt>
      <trkpt lat="48.2289973" lon="14.9388690">
        <ele>231.780</ele>
        <time>2019-05-03T08:08:01.357Z</time>
      </trkpt>
      <trkpt lat="48.2289135" lon="14.9390174">
        <ele>231.552</ele>
        <time>2019-05-03T08:08:03.751Z</time>
      </trkpt>
      <trkpt lat="48.2288542" lon="14.9391227">
        <ele>231.326</ele>
        <time>2019-05-03T08:08:05.347Z</time>
      </trkpt>
      <trkpt lat="48.2287719" lon="14.9393165">
        <ele>231.092</ele>
        <time>2019-05-03T08:08:07.970Z</time>
      </trkpt>
      <trkpt lat="48.2286851" lon="14.9394723">
        <ele>230.854</ele>
        <time>2019-05-03T08:08:10.272Z</time>
      </trkpt>
      <trkpt lat="48.2286112" lon="14.9396037">
        <ele>230.630</ele>
        <time>2019-05-03T08:08:12.252Z</time>
      </trkpt>
      <trkpt lat="48.2285394" lon="14.9397200">
        <ele>230.438</ele>
        <time>2019-05-03T08:08:14.107Z</time>
      </trkpt>
      <trkpt lat="48.2284596" lon="14.9398371">
        <ele>230.308</ele>
        <time>2019-05-03T08:08:16.070Z</time>
      </trkpt>
      <trkpt lat="48.2283814" lon="14.9399401">
        <ele>230.229</ele>
        <time>2019-05-03T08:08:17.893Z</time>
      </trkpt>
      <trkpt lat="48.2283028" lon="14.9400457">
        <ele>230.149</ele>
        <time>2019-05-03T08:08:19.725Z</time>
      </trkpt>
      <trkpt lat="48.2282249" lon="14.9401428">
        <ele>230.031</ele>
        <time>2019-05-03T08:08:21.445Z</time>
      </trkpt>
      <trkpt lat="48.2281393" lon="14.9402215">
        <ele>229.875</ele>
        <time>2019-05-03T08:08:23.096Z</time>
      </trkpt>
      <trkpt lat="48.2280502" lon="14.9403021">
        <ele>229.697</ele>
        <time>2019-05-03T08:08:24.759Z</time>
      </trkpt>
      <trkpt lat="48.2279615" lon="14.9403874">
        <ele>229.524</ele>
        <time>2019-05-03T08:08:26.405Z</time>
      </trkpt>
      <trkpt lat="48.2278685" lon="14.9405014">
        <ele>229.378</ele>
        <time>2019-05-03T08:08:28.266Z</time>
      </trkpt>
      <trkpt lat="48.2277754" lon="14.9406328">
        <ele>229.269</ele>
        <time>2019-05-03T08:08:30.262Z</time>
      </trkpt>
      <trkpt lat="48.2276899" lon="14.9407366">
        <ele>229.186</ele>
        <time>2019-05-03T08:08:32.007Z</time>
      </trkpt>
      <trkpt lat="48.2275976" lon="14.9408459">
        <ele>229.100</ele>
        <time>2019-05-03T08:08:33.964Z</time>
      </trkpt>
      <trkpt lat="48.2275096" lon="14.9409432">
        <ele>228.987</ele>
        <time>2019-05-03T08:08:35.828Z</time>
      </trkpt>
      <trkpt lat="48.2274202" lon="14.9410296">
        <ele>228.847</ele>
        <time>2019-05-03T08:08:37.718Z</time>
      </trkpt>
      <trkpt lat="48.2273198" lon="14.9411558">
        <ele>228.701</ele>
        <time>2019-05-03T08:08:40.085Z</time>
      </trkpt>
      <trkpt lat="48.2272456" lon="14.9412519">
        <ele>228.557</ele>
        <time>2019-05-03T08:08:41.863Z</time>
      </trkpt>
      <trkpt lat="48.2271564" lon="14.9413464">
        <ele>228.417</ele>
        <time>2019-05-03T08:08:43.845Z</time>
      </trkpt>
      <trkpt lat="48.2270691" lon="14.9414300">
        <ele>228.287</ele>
        <time>2019-05-03T08:08:45.718Z</time>
      </trkpt>
      <trkpt lat="48.2269873" lon="14.9415232">
        <ele>228.164</ele>
        <time>2019-05-03T08:08:47.567Z</time>
      </trkpt>
      <trkpt lat="48.2269026" lon="14.9416210">
        <ele>228.053</ele>
        <time>2019-05-03T08:08:49.477Z</time>
      </trkpt>
      <trkpt lat="48.2268192" lon="14.9417001">
        <ele>227.962</ele>
        <time>2019-05-03T08:08:51.231Z</time>
      </trkpt>
      <trkpt lat="48.2267390" lon="14.9417857">
        <ele>227.883</ele>
        <time>2019-05-03T08:08:52.972Z</time>
      </trkpt>
      <trkpt lat="48.2266597" lon="14.9418611">
        <ele>227.806</ele>
        <time>2019-05-03T08:08:54.626Z</time>
      </trkpt>
      <trkpt lat="48.2265657" lon="14.9419546">
        <ele>227.741</ele>
        <time>2019-05-03T08:08:56.611Z</time>
      </trkpt>
      <trkpt lat="48.2264842" lon="14.9420510">
        <ele>227.691</ele>
        <time>2019-05-03T08:08:58.430Z</time>
      </trkpt>
      <trkpt lat="48.2264010" lon="14.9421277">
        <ele>227.652</ele>
        <time>2019-05-03T08:09:00.131Z</time>
      </trkpt>
      <trkpt lat="48.2263144" lon="14.9422081">
        <ele>227.648</ele>
        <time>2019-05-03T08:09:01.893Z</time>
      </trkpt>
      <trkpt lat="48.2262288" lon="14.9422919">
        <ele>227.732</ele>
        <time>2019-05-03T08:09:03.652Z</time>
      </trkpt>
      <trkpt lat="48.2261363" lon="14.9423793">
        <ele>227.939</ele>
        <time>2019-05-03T08:09:05.525Z</time>
      </trkpt>
      <trkpt lat="48.2260491" lon="14.9424707">
        <ele>228.243</ele>
        <time>2019-05-03T08:09:07.349Z</time>
      </trkpt>
      <trkpt lat="48.2259297" lon="14.9425647">
        <ele>228.575</ele>
        <time>2019-05-03T08:09:09.693Z</time>
      </trkpt>
      <trkpt lat="48.2258407" lon="14.9426056">
        <ele>228.879</ele>
        <time>2019-05-03T08:09:11.341Z</time>
      </trkpt>
      <trkpt lat="48.2257592" lon="14.9426650">
        <ele>229.132</ele>
        <time>2019-05-03T08:09:12.960Z</time>
      </trkpt>
      <trkpt lat="48.2256954" lon="14.9427614">
        <ele>229.302</ele>
        <time>2019-05-03T08:09:14.586Z</time>
      </trkpt>
      <trkpt lat="48.2256117" lon="14.9428534">
        <ele>229.360</ele>
        <time>2019-05-03T08:09:16.452Z</time>
      </trkpt>
      <trkpt lat="48.2255200" lon="14.9429255">
        <ele>229.296</ele>
        <time>2019-05-03T08:09:18.304Z</time>
      </trkpt>
      <trkpt lat="48.2254291" lon="14.9430366">
        <ele>229.126</ele>
        <time>2019-05-03T08:09:20.372Z</time>
      </trkpt>
      <trkpt lat="48.2253377" lon="14.9431360">
        <ele>228.907</ele>
        <time>2019-05-03T08:09:22.323Z</time>
      </trkpt>
      <trkpt lat="48.2252454" lon="14.9432340">
        <ele>228.701</ele>
        <time>2019-05-03T08:09:24.223Z</time>
      </trkpt>
      <trkpt lat="48.2251615" lon="14.9433370">
        <ele>228.532</ele>
        <time>2019-05-03T08:09:25.998Z</time>
      </trkpt>
      <trkpt lat="48.2251615" lon="14.9433370">
        <ele>228.398</ele>
        <time>2019-05-03T08:09:26.998Z</time>
      </trkpt>
      <trkpt lat="48.2251615" lon="14.9433370">
        <ele>228.299</ele>
        <time>2019-05-03T08:09:27.098Z</time>
      </trkpt>
      <trkpt lat="48.2249894" lon="14.9435000">
        <ele>228.226</ele>
        <time>2019-05-03T08:09:33.236Z</time>
      </trkpt>
      <trkpt lat="48.2248792" lon="14.9435730">
        <ele>228.160</ele>
        <time>2019-05-03T08:09:35.751Z</time>
      </trkpt>
      <trkpt lat="48.2247894" lon="14.9436374">
        <ele>228.100</ele>
        <time>2019-05-03T08:09:37.858Z</time>
      </trkpt>
      <trkpt lat="48.2247128" lon="14.9437089">
        <ele>228.099</ele>
        <time>2019-05-03T08:09:39.796Z</time>
      </trkpt>
      <trkpt lat="48.2245922" lon="14.9437659">
        <ele>228.254</ele>
        <time>2019-05-03T08:09:42.590Z</time>
      </trkpt>
      <trkpt lat="48.2245078" lon="14.9438660">
        <ele>228.584</ele>
        <time>2019-05-03T08:09:45.110Z</time>
      </trkpt>
      <trkpt lat="48.2244242" lon="14.9439697">
        <ele>229.011</ele>
        <time>2019-05-03T08:09:47.808Z</time>
      </trkpt>
      <trkpt lat="48.2243165" lon="14.9440217">
        <ele>229.437</ele>
        <time>2019-05-03T08:09:50.461Z</time>
      </trkpt>
      <trkpt lat="48.2242370" lon="14.9440947">
        <ele>229.791</ele>
        <time>2019-05-03T08:09:52.504Z</time>
      </trkpt>
      <trkpt lat="48.2241574" lon="14.9441602">
        <ele>230.019</ele>
        <time>2019-05-03T08:09:54.382Z</time>
      </trkpt>
      <trkpt lat="48.2240414" lon="14.9442425">
        <ele>230.106</ele>
        <time>2019-05-03T08:09:56.949Z</time>
      </trkpt>
      <trkpt lat="48.2239625" lon="14.9443071">
        <ele>230.090</ele>
        <time>2019-05-03T08:09:58.732Z</time>
      </trkpt>
      <trkpt lat="48.2238422" lon="14.9443833">
        <ele>230.051</ele>
        <time>2019-05-03T08:10:01.292Z</time>
      </trkpt>
      <trkpt lat="48.2237593" lon="14.9444500">
        <ele>230.063</ele>
        <time>2019-05-03T08:10:03.111Z</time>
      </trkpt>
      <trkpt lat="48.2236800" lon="14.9445178">
        <ele>230.162</ele>
        <time>2019-05-03T08:10:04.830Z</time>
      </trkpt>
      <trkpt lat="48.2235559" lon="14.9445794">
        <ele>230.331</ele>
        <time>2019-05-03T08:10:07.359Z</time>
      </trkpt>
      <trkpt lat="48.2234417" lon="14.9446890">
        <ele>230.564</ele>
        <time>2019-05-03T08:10:10.110Z</time>
      </trkpt>
      <trkpt lat="48.2233299" lon="14.9447613">
        <ele>230.894</ele>
        <time>2019-05-03T08:10:12.585Z</time>
      </trkpt>
      <trkpt lat="48.2232470" lon="14.9448272">
        <ele>231.312</ele>
        <time>2019-05-03T08:10:14.462Z</time>
      </trkpt>
      <trkpt lat="48.2231604" lon="14.9449124">
        <ele>231.723</ele>
        <time>2019-05-03T08:10:16.509Z</time>
      </trkpt>
      <trkpt lat="48.2230895" lon="14.9450169">
        <ele>232.025</ele>
        <time>2019-05-03T08:10:18.396Z</time>
      </trkpt>
      <trkpt lat="48.2230064" lon="14.9450853">
        <ele>232.178</ele>
        <time>2019-05-03T08:10:20.067Z</time>
      </trkpt>
      <trkpt lat="48.2229028" lon="14.9451684">
        <ele>232.175</ele>
        <time>2019-05-03T08:10:22.012Z</time>
      </trkpt>
      <trkpt lat="48.2228051" lon="14.9452410">
        <ele>232.050</ele>
        <time>2019-05-03T08:10:23.818Z</time>
      </trkpt>
      <trkpt lat="48.2227184" lon="14.9453078">
        <ele>231.902</ele>
        <time>2019-05-03T08:10:25.449Z</time>
      </trkpt>
      <trkpt lat="48.2225990" lon="14.9454020">
        <ele>231.826</ele>
        <time>2019-05-03T08:10:27.697Z</time>
      </trkpt>
      <trkpt lat="48.2225032" lon="14.9454406">
        <ele>231.833</ele>
        <time>2019-05-03T08:10:29.335Z</time>
      </trkpt>
      <trkpt lat="48.2224007" lon="14.9454999">
        <ele>231.889</ele>
        <time>2019-05-03T08:10:31.142Z</time>
      </trkpt>
      <trkpt lat="48.2222918" lon="14.9455890">
        <ele>231.952</ele>
        <time>2019-05-03T08:10:33.178Z</time>
      </trkpt>
      <trkpt lat="48.2221767" lon="14.9456522">
        <ele>232.014</ele>
        <time>2019-05-03T08:10:35.164Z</time>
      </trkpt>
      <trkpt lat="48.2220793" lon="14.9457142">
        <ele>232.073</ele>
        <time>2019-05-03T08:10:36.909Z</time>
      </trkpt>
      <trkpt lat="48.2219452" lon="14.9458085">
        <ele>232.138</ele>
        <time>2019-05-03T08:10:39.400Z</time>
      </trkpt>
      <trkpt lat="48.2218404" lon="14.9458729">
        <ele>232.287</ele>
        <time>2019-05-03T08:10:41.233Z</time>
      </trkpt>
      <trkpt lat="48.2217496" lon="14.9459169">
        <ele>232.590</ele>
        <time>2019-05-03T08:10:42.748Z</time>
      </trkpt>
      <trkpt lat="48.2216587" lon="14.9459673">
        <ele>232.970</ele>
        <time>2019-05-03T08:10:44.453Z</time>
      </trkpt>
      <trkpt lat="48.2215469" lon="14.9460508">
        <ele>233.295</ele>
        <time>2019-05-03T08:10:46.748Z</time>
      </trkpt>
      <trkpt lat="48.2214528" lon="14.9461511">
        <ele>233.525</ele>
        <time>2019-05-03T08:10:48.943Z</time>
      </trkpt>
      <trkpt lat="48.2213573" lon="14.9462191">
        <ele>233.670</ele>
        <time>2019-05-03T08:10:50.904Z</time>
      </trkpt>
      <trkpt lat="48.2212659" lon="14.9462958">
        <ele>233.710</ele>
        <time>2019-05-03T08:10:52.794Z</time>
      </trkpt>
      <trkpt lat="48.2211670" lon="14.9463877">
        <ele>233.619</ele>
        <time>2019-05-03T08:10:54.786Z</time>
      </trkpt>
      <trkpt lat="48.2210601" lon="14.9464794">
        <ele>233.408</ele>
        <time>2019-05-03T08:10:56.864Z</time>
      </trkpt>
      <trkpt lat="48.2209654" lon="14.9465662">
        <ele>233.106</ele>
        <time>2019-05-03T08:10:58.792Z</time>
      </trkpt>
      <trkpt lat="48.2208778" lon="14.9466352">
        <ele>232.734</ele>
        <time>2019-05-03T08:11:00.524Z</time>
      </trkpt>
      <trkpt lat="48.2207741" lon="14.9466930">
        <ele>232.323</ele>
        <time>2019-05-03T08:11:02.431Z</time>
      </trkpt>
      <trkpt lat="48.2206892" lon="14.9467425">
        <ele>231.889</ele>
        <time>2019-05-03T08:11:03.970Z</time>
      </trkpt>
      <trkpt lat="48.2205959" lon="14.9467968">
        <ele>231.464</ele>
        <time>2019-05-03T08:11:05.598Z</time>
      </trkpt>
      <trkpt lat="48.2204983" lon="14.9468659">
        <ele>231.138</ele>
        <time>2019-05-03T08:11:07.344Z</time>
      </trkpt>
      <trkpt lat="48.2204045" lon="14.9469216">
        <ele>230.980</ele>
        <time>2019-05-03T08:11:08.996Z</time>
      </trkpt>
      <trkpt lat="48.2203211" lon="14.9469887">
        <ele>230.957</ele>
        <time>2019-05-03T08:11:10.575Z</time>
      </trkpt>
      <trkpt lat="48.2202405" lon="14.9470563">
        <ele>230.980</ele>
        <time>2019-05-03T08:11:12.140Z</time>
      </trkpt>
      <trkpt lat="48.2201521" lon="14.9471144">
        <ele>230.976</ele>
        <time>2019-05-03T08:11:13.797Z</time>
      </trkpt>
      <trkpt lat="48.2200644" lon="14.9471777">
        <ele>230.890</ele>
        <time>2019-05-03T08:11:15.423Z</time>
      </trkpt>
      <trkpt lat="48.2199821" lon="14.9472475">
        <ele>230.699</ele>
        <time>2019-05-03T08:11:16.990Z</time>
      </trkpt>
      <trkpt lat="48.2198883" lon="14.9473095">
        <ele>230.432</ele>
        <time>2019-05-03T08:11:18.733Z</time>
      </trkpt>
      <trkpt lat="48.2197899" lon="14.9473628">
        <ele>230.149</ele>
        <time>2019-05-03T08:11:20.624Z</time>
      </trkpt>
      <trkpt lat="48.2197007" lon="14.9473998">
        <ele>229.916</ele>
        <time>2019-05-03T08:11:22.426Z</time>
      </trkpt>
      <trkpt lat="48.2195849" lon="14.9474692">
        <ele>229.778</ele>
        <time>2019-05-03T08:11:25.091Z</time>
      </trkpt>
      <trkpt lat="48.2194841" lon="14.9475219">
        <ele>229.754</ele>
        <time>2019-05-03T08:11:27.425Z</time>
      </trkpt>
      <trkpt lat="48.2193656" lon="14.9476066">
        <ele>229.838</ele>
        <time>2019-05-03T08:11:30.147Z</time>
      </trkpt>
      <trkpt lat="48.2192758" lon="14.9476893">
        <ele>229.997</ele>
        <time>2019-05-03T08:11:32.217Z</time>
      </trkpt>
      <trkpt lat="48.2191945" lon="14.9477591">
        <ele>230.166</ele>
        <time>2019-05-03T08:11:34.018Z</time>
      </trkpt>
      <trkpt lat="48.2191107" lon="14.9478366">
        <ele>230.257</ele>
        <time>2019-05-03T08:11:36.029Z</time>
      </trkpt>
      <trkpt lat="48.2189994" lon="14.9479390">
        <ele>230.219</ele>
        <time>2019-05-03T08:11:38.813Z</time>
      </trkpt>
      <trkpt lat="48.2189188" lon="14.9480027">
        <ele>230.108</ele>
        <time>2019-05-03T08:11:40.739Z</time>
      </trkpt>
      <trkpt lat="48.2188243" lon="14.9481171">
        <ele>230.023</ele>
        <time>2019-05-03T08:11:43.255Z</time>
      </trkpt>
      <trkpt lat="48.2187180" lon="14.9482285">
        <ele>230.007</ele>
        <time>2019-05-03T08:11:45.883Z</time>
      </trkpt>
      <trkpt lat="48.2186385" lon="14.9483141">
        <ele>230.073</ele>
        <time>2019-05-03T08:11:47.789Z</time>
      </trkpt>
      <trkpt lat="48.2185621" lon="14.9484096">
        <ele>230.241</ele>
        <time>2019-05-03T08:11:49.687Z</time>
      </trkpt>
      <trkpt lat="48.2184613" lon="14.9485500">
        <ele>230.492</ele>
        <time>2019-05-03T08:11:52.362Z</time>
      </trkpt>
      <trkpt lat="48.2184024" lon="14.9486570">
        <ele>230.774</ele>
        <time>2019-05-03T08:11:54.249Z</time>
      </trkpt>
      <trkpt lat="48.2183325" lon="14.9487507">
        <ele>231.050</ele>
        <time>2019-05-03T08:11:56.184Z</time>
      </trkpt>
      <trkpt lat="48.2182569" lon="14.9488383">
        <ele>231.268</ele>
        <time>2019-05-03T08:11:58.119Z</time>
      </trkpt>
      <trkpt lat="48.2181522" lon="14.9489379">
        <ele>231.394</ele>
        <time>2019-05-03T08:12:00.565Z</time>
      </trkpt>
      <trkpt lat="48.2180488" lon="14.9490319">
        <ele>231.444</ele>
        <time>2019-05-03T08:12:02.914Z</time>
      </trkpt>
      <trkpt lat="48.2179689" lon="14.9491109">
        <ele>231.444</ele>
        <time>2019-05-03T08:12:04.874Z</time>
      </trkpt>
      <trkpt lat="48.2178812" lon="14.9491773">
        <ele>231.387</ele>
        <time>2019-05-03T08:12:06.890Z</time>
      </trkpt>
      <trkpt lat="48.2177739" lon="14.9492105">
        <ele>231.234</ele>
        <time>2019-05-03T08:12:09.074Z</time>
      </trkpt>
      <trkpt lat="48.2176524" lon="14.9492700">
        <ele>231.010</ele>
        <time>2019-05-03T08:12:11.617Z</time>
      </trkpt>
      <trkpt lat="48.2175641" lon="14.9493004">
        <ele>230.820</ele>
        <time>2019-05-03T08:12:13.597Z</time>
      </trkpt>
      <trkpt lat="48.2174740" lon="14.9493631">
        <ele>230.758</ele>
        <time>2019-05-03T08:12:15.845Z</time>
      </trkpt>
      <trkpt lat="48.2173807" lon="14.9494108">
        <ele>230.850</ele>
        <time>2019-05-03T08:12:18.125Z</time>
      </trkpt>
      <trkpt lat="48.2172876" lon="14.9494790">
        <ele>231.060</ele>
        <time>2019-05-03T08:12:20.512Z</time>
      </trkpt>
      <trkpt lat="48.2172013" lon="14.9495582">
        <ele>231.348</ele>
        <time>2019-05-03T08:12:22.863Z</time>
      </trkpt>
      <trkpt lat="48.2171079" lon="14.9496152">
        <ele>231.711</ele>
        <time>2019-05-03T08:12:25.276Z</time>
      </trkpt>
      <trkpt lat="48.2170174" lon="14.9496631">
        <ele>232.126</ele>
        <time>2019-05-03T08:12:27.712Z</time>
      </trkpt>
      <trkpt lat="48.2169320" lon="14.9497276">
        <ele>232.548</ele>
        <time>2019-05-03T08:12:30.046Z</time>
      </trkpt>
      <trkpt lat="48.2168077" lon="14.9498154">
        <ele>232.951</ele>
        <time>2019-05-03T08:12:33.181Z</time>
      </trkpt>
      <trkpt lat="48.2167039" lon="14.9498652">
        <ele>233.310</ele>
        <time>2019-05-03T08:12:35.691Z</time>
      </trkpt>
      <trkpt lat="48.2165971" lon="14.9499085">
        <ele>233.560</ele>
        <time>2019-05-03T08:12:38.326Z</time>
      </trkpt>
      <trkpt lat="48.2165103" lon="14.9499571">
        <ele>233.666</ele>
        <time>2019-05-03T08:12:40.545Z</time>
      </trkpt>
      <trkpt lat="48.2164210" lon="14.9499875">
        <ele>233.672</ele>
        <time>2019-05-03T08:12:42.800Z</time>
      </trkpt>
      <trkpt lat="48.2163249" lon="14.9500326">
        <ele>233.646</ele>
        <time>2019-05-03T08:12:45.296Z</time>
      </trkpt>
      <trkpt lat="48.2162321" lon="14.9500668">
        <ele>233.635</ele>
        <time>2019-05-03T08:12:47.581Z</time>
      </trkpt>
      <trkpt lat="48.2161351" lon="14.9500962">
        <ele>233.652</ele>
        <time>2019-05-03T08:12:49.700Z</time>
      </trkpt>
      <trkpt lat="48.2160474" lon="14.9501320">
        <ele>233.683</ele>
        <time>2019-05-03T08:12:51.524Z</time>
      </trkpt>
      <trkpt lat="48.2159332" lon="14.9502256">
        <ele>233.711</ele>
        <time>2019-05-03T08:12:54.214Z</time>
      </trkpt>
      <trkpt lat="48.2158258" lon="14.9503337">
        <ele>233.732</ele>
        <time>2019-05-03T08:12:56.990Z</time>
      </trkpt>
      <trkpt lat="48.2157122" lon="14.9503904">
        <ele>233.695</ele>
        <time>2019-05-03T08:12:59.615Z</time>
      </trkpt>
      <trkpt lat="48.2156108" lon="14.9504288">
        <ele>233.500</ele>
        <time>2019-05-03T08:13:01.961Z</time>
      </trkpt>
      <trkpt lat="48.2155237" lon="14.9504666">
        <ele>233.146</ele>
        <time>2019-05-03T08:13:03.932Z</time>
      </trkpt>
      <trkpt lat="48.2153907" lon="14.9505228">
        <ele>232.777</ele>
        <time>2019-05-03T08:13:06.647Z</time>
      </trkpt>
      <trkpt lat="48.2152627" lon="14.9505971">
        <ele>232.530</ele>
        <time>2019-05-03T08:13:09.124Z</time>
      </trkpt>
      <trkpt lat="48.2151574" lon="14.9506378">
        <ele>232.468</ele>
        <time>2019-05-03T08:13:11.016Z</time>
      </trkpt>
      <trkpt lat="48.2150441" lon="14.9507062">
        <ele>232.565</ele>
        <time>2019-05-03T08:13:13.207Z</time>
      </trkpt>
      <trkpt lat="48.2149400" lon="14.9507444">
        <ele>232.717</ele>
        <time>2019-05-03T08:13:15.231Z</time>
      </trkpt>
      <trkpt lat="48.2148505" lon="14.9507962">
        <ele>232.805</ele>
        <time>2019-05-03T08:13:17.199Z</time>
      </trkpt>
      <trkpt lat="48.2147586" lon="14.9508549">
        <ele>232.804</ele>
        <time>2019-05-03T08:13:19.384Z</time>
      </trkpt>
      <trkpt lat="48.2146593" lon="14.9509132">
        <ele>232.767</ele>
        <time>2019-05-03T08:13:21.770Z</time>
      </trkpt>
      <trkpt lat="48.2145594" lon="14.9509981">
        <ele>232.757</ele>
        <time>2019-05-03T08:13:24.150Z</time>
      </trkpt>
      <trkpt lat="48.2144600" lon="14.9510567">
        <ele>232.810</ele>
        <time>2019-05-03T08:13:26.265Z</time>
      </trkpt>
      <trkpt lat="48.2143696" lon="14.9511547">
        <ele>232.904</ele>
        <time>2019-05-03T08:13:28.515Z</time>
      </trkpt>
      <trkpt lat="48.2142774" lon="14.9512418">
        <ele>232.977</ele>
        <time>2019-05-03T08:13:30.847Z</time>
      </trkpt>
      <trkpt lat="48.2141939" lon="14.9512939">
        <ele>232.968</ele>
        <time>2019-05-03T08:13:32.707Z</time>
      </trkpt>
      <trkpt lat="48.2140926" lon="14.9513508">
        <ele>232.849</ele>
        <time>2019-05-03T08:13:34.756Z</time>
      </trkpt>
      <trkpt lat="48.2139815" lon="14.9513749">
        <ele>232.624</ele>
        <time>2019-05-03T08:13:36.920Z</time>
      </trkpt>
      <trkpt lat="48.2138880" lon="14.9513843">
        <ele>232.366</ele>
        <time>2019-05-03T08:13:38.864Z</time>
      </trkpt>
      <trkpt lat="48.2137917" lon="14.9514092">
        <ele>232.215</ele>
        <time>2019-05-03T08:13:40.906Z</time>
      </trkpt>
      <trkpt lat="48.2136908" lon="14.9514223">
        <ele>232.284</ele>
        <time>2019-05-03T08:13:43.228Z</time>
      </trkpt>
      <trkpt lat="48.2135968" lon="14.9514733">
        <ele>232.604</ele>
        <time>2019-05-03T08:13:45.688Z</time>
      </trkpt>
      <trkpt lat="48.2134936" lon="14.9515055">
        <ele>233.143</ele>
        <time>2019-05-03T08:13:48.308Z</time>
      </trkpt>
      <trkpt lat="48.2133828" lon="14.9515474">
        <ele>233.801</ele>
        <time>2019-05-03T08:13:51.040Z</time>
      </trkpt>
      <trkpt lat="48.2132703" lon="14.9516199">
        <ele>234.445</ele>
        <time>2019-05-03T08:13:53.827Z</time>
      </trkpt>
      <trkpt lat="48.2131637" lon="14.9516430">
        <ele>234.927</ele>
        <time>2019-05-03T08:13:56.161Z</time>
      </trkpt>
      <trkpt lat="48.2130539" lon="14.9517109">
        <ele>235.131</ele>
        <time>2019-05-03T08:13:58.631Z</time>
      </trkpt>
      <trkpt lat="48.2129217" lon="14.9517530">
        <ele>235.055</ele>
        <time>2019-05-03T08:14:01.288Z</time>
      </trkpt>
      <trkpt lat="48.2128119" lon="14.9518107">
        <ele>234.829</ele>
        <time>2019-05-03T08:14:03.507Z</time>
      </trkpt>
      <trkpt lat="48.2127149" lon="14.9518947">
        <ele>234.624</ele>
        <time>2019-05-03T08:14:05.688Z</time>
      </trkpt>
      <trkpt lat="48.2126496" lon="14.9520077">
        <ele>234.523</ele>
        <time>2019-05-03T08:14:07.743Z</time>
      </trkpt>
      <trkpt lat="48.2125624" lon="14.9520952">
        <ele>234.500</ele>
        <time>2019-05-03T08:14:10.210Z</time>
      </trkpt>
      <trkpt lat="48.2124817" lon="14.9521622">
        <ele>234.454</ele>
        <time>2019-05-03T08:14:12.619Z</time>
      </trkpt>
      <trkpt lat="48.2123858" lon="14.9521956">
        <ele>234.294</ele>
        <time>2019-05-03T08:14:15.402Z</time>
      </trkpt>
      <trkpt lat="48.2122688" lon="14.9523120">
        <ele>234.067</ele>
        <time>2019-05-03T08:14:19.216Z</time>
      </trkpt>
      <trkpt lat="48.2121637" lon="14.9524172">
        <ele>233.890</ele>
        <time>2019-05-03T08:14:22.652Z</time>
      </trkpt>
      <trkpt lat="48.2120676" lon="14.9525115">
        <ele>233.799</ele>
        <time>2019-05-03T08:14:26.172Z</time>
      </trkpt>
      <trkpt lat="48.2119941" lon="14.9525980">
        <ele>233.766</ele>
        <time>2019-05-03T08:14:29.068Z</time>
      </trkpt>
      <trkpt lat="48.2118948" lon="14.9526694">
        <ele>233.796</ele>
        <time>2019-05-03T08:14:32.504Z</time>
      </trkpt>
      <trkpt lat="48.2117800" lon="14.9527516">
        <ele>233.895</ele>
        <time>2019-05-03T08:14:36.757Z</time>
      </trkpt>
      <trkpt lat="48.2116773" lon="14.9528695">
        <ele>234.037</ele>
        <time>2019-05-03T08:14:40.931Z</time>
      </trkpt>
      <trkpt lat="48.2115941" lon="14.9529350">
        <ele>234.171</ele>
        <time>2019-05-03T08:14:43.549Z</time>
      </trkpt>
      <trkpt lat="48.2115091" lon="14.9529902">
        <ele>234.253</ele>
        <time>2019-05-03T08:14:45.966Z</time>
      </trkpt>
      <trkpt lat="48.2113942" lon="14.9530623">
        <ele>234.277</ele>
        <time>2019-05-03T08:14:49.273Z</time>
      </trkpt>
      <trkpt lat="48.2112852" lon="14.9531433">
        <ele>234.273</ele>
        <time>2019-05-03T08:14:52.627Z</time>
      </trkpt>
      <trkpt lat="48.2111853" lon="14.9532029">
        <ele>234.261</ele>
        <time>2019-05-03T08:14:55.874Z</time>
      </trkpt>
      <trkpt lat="48.2110612" lon="14.9532330">
        <ele>234.251</ele>
        <time>2019-05-03T08:14:59.527Z</time>
      </trkpt>
      <trkpt lat="48.2109436" lon="14.9532870">
        <ele>234.291</ele>
        <time>2019-05-03T08:15:02.628Z</time>
      </trkpt>
      <trkpt lat="48.2108431" lon="14.9533244">
        <ele>234.445</ele>
        <time>2019-05-03T08:15:05.065Z</time>
      </trkpt>
      <trkpt lat="48.2107199" lon="14.9533688">
        <ele>234.670</ele>
        <time>2019-05-03T08:15:08.018Z</time>
      </trkpt>
      <trkpt lat="48.2105962" lon="14.9534101">
        <ele>234.853</ele>
        <time>2019-05-03T08:15:11.002Z</time>
      </trkpt>
      <trkpt lat="48.2105962" lon="14.9534101">
        <ele>234.940</ele>
        <time>2019-05-03T08:15:11.002Z</time>
      </trkpt>
      <trkpt lat="48.2105962" lon="14.9534101">
        <ele>234.917</ele>
        <time>2019-05-03T08:15:11.102Z</time>
      </trkpt>
      <trkpt lat="48.2104539" lon="14.9534836">
        <ele>234.810</ele>
        <time>2019-05-03T08:15:17.545Z</time>
      </trkpt>
      <trkpt lat="48.2103533" lon="14.9535443">
        <ele>234.837</ele>
        <time>2019-05-03T08:15:21.942Z</time>
      </trkpt>
      <trkpt lat="48.2102527" lon="14.9536001">
        <ele>235.152</ele>
        <time>2019-05-03T08:15:27.438Z</time>
      </trkpt>
      <trkpt lat="48.2101587" lon="14.9536868">
        <ele>235.554</ele>
        <time>2019-05-03T08:15:33.962Z</time>
      </trkpt>
      <trkpt lat="48.2100778" lon="14.9537647">
        <ele>235.706</ele>
        <time>2019-05-03T08:15:40.161Z</time>
      </trkpt>
      <trkpt lat="48.2100756" lon="14.9539007">
        <ele>235.159</ele>
        <time>2019-05-03T08:15:46.002Z</time>
      </trkpt>
      <trkpt lat="48.2100756" lon="14.9539007">
        <ele>233.891</ele>
        <time>2019-05-03T08:15:53.002Z</time>
      </trkpt>
      <trkpt lat="48.2100756" lon="14.9539007">
        <ele>232.878</ele>
        <time>2019-05-03T08:26:56.476Z</time>
      </trkpt>
      <trkpt lat="48.2098909" lon="14.9539792">
        <ele>232.807</ele>
        <time>2019-05-03T08:27:13.095Z</time>
      </trkpt>
      <trkpt lat="48.2097971" lon="14.9539629">
        <ele>232.647</ele>
        <time>2019-05-03T08:27:16.136Z</time>
      </trkpt>
      <trkpt lat="48.2096779" lon="14.9539826">
        <ele>231.484</ele>
        <time>2019-05-03T08:27:19.611Z</time>
      </trkpt>
      <trkpt lat="48.2095735" lon="14.9540154">
        <ele>230.152</ele>
        <time>2019-05-03T08:27:22.596Z</time>
      </trkpt>
      <trkpt lat="48.2094823" lon="14.9540320">
        <ele>229.626</ele>
        <time>2019-05-03T08:27:25.236Z</time>
      </trkpt>
      <trkpt lat="48.2093745" lon="14.9540124">
        <ele>229.703</ele>
        <time>2019-05-03T08:27:28.486Z</time>
      </trkpt>
      <trkpt lat="48.2092776" lon="14.9539929">
        <ele>230.024</ele>
        <time>2019-05-03T08:27:31.509Z</time>
      </trkpt>
      <trkpt lat="48.2091602" lon="14.9539554">
        <ele>230.591</ele>
        <time>2019-05-03T08:27:35.008Z</time>
      </trkpt>
      <trkpt lat="48.2090668" lon="14.9539859">
        <ele>231.641</ele>
        <time>2019-05-03T08:27:37.582Z</time>
      </trkpt>
      <trkpt lat="48.2089412" lon="14.9540613">
        <ele>233.088</ele>
        <time>2019-05-03T08:27:40.880Z</time>
      </trkpt>
      <trkpt lat="48.2088524" lon="14.9541212">
        <ele>234.315</ele>
        <time>2019-05-03T08:27:43.000Z</time>
      </trkpt>
      <trkpt lat="48.2088524" lon="14.9541212">
        <ele>234.794</ele>
        <time>2019-05-03T08:27:44.000Z</time>
      </trkpt>
      <trkpt lat="48.2088524" lon="14.9541212">
        <ele>234.627</ele>
        <time>2019-05-03T08:27:44.100Z</time>
      </trkpt>
      <trkpt lat="48.2086098" lon="14.9542760">
        <ele>234.270</ele>
        <time>2019-05-03T08:27:52.109Z</time>
      </trkpt>
      <trkpt lat="48.2085194" lon="14.9543090">
        <ele>233.901</ele>
        <time>2019-05-03T08:27:54.263Z</time>
      </trkpt>
      <trkpt lat="48.2084215" lon="14.9543592">
        <ele>233.418</ele>
        <time>2019-05-03T08:27:56.585Z</time>
      </trkpt>
      <trkpt lat="48.2083236" lon="14.9543853">
        <ele>232.918</ele>
        <time>2019-05-03T08:27:58.820Z</time>
      </trkpt>
      <trkpt lat="48.2082319" lon="14.9544173">
        <ele>232.539</ele>
        <time>2019-05-03T08:28:00.964Z</time>
      </trkpt>
      <trkpt lat="48.2081423" lon="14.9544526">
        <ele>232.238</ele>
        <time>2019-05-03T08:28:03.062Z</time>
      </trkpt>
      <trkpt lat="48.2080263" lon="14.9545111">
        <ele>231.966</ele>
        <time>2019-05-03T08:28:05.722Z</time>
      </trkpt>
      <trkpt lat="48.2079335" lon="14.9545576">
        <ele>231.712</ele>
        <time>2019-05-03T08:28:07.701Z</time>
      </trkpt>
      <trkpt lat="48.2078283" lon="14.9545983">
        <ele>231.478</ele>
        <time>2019-05-03T08:28:09.792Z</time>
      </trkpt>
      <trkpt lat="48.2077253" lon="14.9546529">
        <ele>231.284</ele>
        <time>2019-05-03T08:28:11.860Z</time>
      </trkpt>
      <trkpt lat="48.2076185" lon="14.9547241">
        <ele>231.149</ele>
        <time>2019-05-03T08:28:14.046Z</time>
      </trkpt>
      <trkpt lat="48.2075165" lon="14.9547832">
        <ele>231.045</ele>
        <time>2019-05-03T08:28:16.069Z</time>
      </trkpt>
      <trkpt lat="48.2074236" lon="14.9548653">
        <ele>230.889</ele>
        <time>2019-05-03T08:28:18.042Z</time>
      </trkpt>
      <trkpt lat="48.2073213" lon="14.9549387">
        <ele>230.615</ele>
        <time>2019-05-03T08:28:20.111Z</time>
      </trkpt>
      <trkpt lat="48.2072225" lon="14.9550032">
        <ele>230.240</ele>
        <time>2019-05-03T08:28:22.072Z</time>
      </trkpt>
      <trkpt lat="48.2071199" lon="14.9550713">
        <ele>229.847</ele>
        <time>2019-05-03T08:28:24.114Z</time>
      </trkpt>
      <trkpt lat="48.2070235" lon="14.9551308">
        <ele>229.528</ele>
        <time>2019-05-03T08:28:26.047Z</time>
      </trkpt>
      <trkpt lat="48.2069160" lon="14.9551841">
        <ele>229.309</ele>
        <time>2019-05-03T08:28:28.188Z</time>
      </trkpt>
      <trkpt lat="48.2068269" lon="14.9552397">
        <ele>229.130</ele>
        <time>2019-05-03T08:28:30.030Z</time>
      </trkpt>
      <trkpt lat="48.2067312" lon="14.9553093">
        <ele>228.924</ele>
        <time>2019-05-03T08:28:32.098Z</time>
      </trkpt>
      <trkpt lat="48.2066363" lon="14.9553695">
        <ele>228.698</ele>
        <time>2019-05-03T08:28:34.158Z</time>
      </trkpt>
      <trkpt lat="48.2065415" lon="14.9554358">
        <ele>228.516</ele>
        <time>2019-05-03T08:28:36.289Z</time>
      </trkpt>
      <trkpt lat="48.2064460" lon="14.9554876">
        <ele>228.408</ele>
        <time>2019-05-03T08:28:38.469Z</time>
      </trkpt>
      <trkpt lat="48.2063600" lon="14.9555278">
        <ele>228.336</ele>
        <time>2019-05-03T08:28:40.524Z</time>
      </trkpt>
      <trkpt lat="48.2062752" lon="14.9555839">
        <ele>228.228</ele>
        <time>2019-05-03T08:28:42.913Z</time>
      </trkpt>
      <trkpt lat="48.2061470" lon="14.9555827">
        <ele>228.062</ele>
        <time>2019-05-03T08:28:46.784Z</time>
      </trkpt>
      <trkpt lat="48.2060473" lon="14.9554947">
        <ele>227.893</ele>
        <time>2019-05-03T08:28:50.285Z</time>
      </trkpt>
      <trkpt lat="48.2059727" lon="14.9555834">
        <ele>227.831</ele>
        <time>2019-05-03T08:28:52.885Z</time>
      </trkpt>
      <trkpt lat="48.2059085" lon="14.9556795">
        <ele>227.952</ele>
        <time>2019-05-03T08:28:55.140Z</time>
      </trkpt>
      <trkpt lat="48.2058130" lon="14.9557506">
        <ele>228.194</ele>
        <time>2019-05-03T08:28:57.539Z</time>
      </trkpt>
      <trkpt lat="48.2057126" lon="14.9558514">
        <ele>228.431</ele>
        <time>2019-05-03T08:29:00.156Z</time>
      </trkpt>
      <trkpt lat="48.2056040" lon="14.9559726">
        <ele>228.603</ele>
        <time>2019-05-03T08:29:02.807Z</time>
      </trkpt>
      <trkpt lat="48.2055167" lon="14.9560366">
        <ele>228.716</ele>
        <time>2019-05-03T08:29:04.616Z</time>
      </trkpt>
      <trkpt lat="48.2054029" lon="14.9560841">
        <ele>228.779</ele>
        <time>2019-05-03T08:29:06.825Z</time>
      </trkpt>
      <trkpt lat="48.2052967" lon="14.9561103">
        <ele>228.814</ele>
        <time>2019-05-03T08:29:08.838Z</time>
      </trkpt>
      <trkpt lat="48.2052113" lon="14.9561565">
        <ele>228.847</ele>
        <time>2019-05-03T08:29:10.522Z</time>
      </trkpt>
      <trkpt lat="48.2050845" lon="14.9562478">
        <ele>228.881</ele>
        <time>2019-05-03T08:29:13.182Z</time>
      </trkpt>
      <trkpt lat="48.2049975" lon="14.9563390">
        <ele>228.897</ele>
        <time>2019-05-03T08:29:15.264Z</time>
      </trkpt>
      <trkpt lat="48.2049143" lon="14.9564228">
        <ele>228.886</ele>
        <time>2019-05-03T08:29:17.259Z</time>
      </trkpt>
      <trkpt lat="48.2047926" lon="14.9564900">
        <ele>228.867</ele>
        <time>2019-05-03T08:29:19.871Z</time>
      </trkpt>
      <trkpt lat="48.2046851" lon="14.9566223">
        <ele>228.858</ele>
        <time>2019-05-03T08:29:22.709Z</time>
      </trkpt>
      <trkpt lat="48.2045954" lon="14.9567097">
        <ele>228.864</ele>
        <time>2019-05-03T08:29:24.876Z</time>
      </trkpt>
      <trkpt lat="48.2045171" lon="14.9567785">
        <ele>228.878</ele>
        <time>2019-05-03T08:29:26.686Z</time>
      </trkpt>
      <trkpt lat="48.2044107" lon="14.9568865">
        <ele>228.895</ele>
        <time>2019-05-03T08:29:29.193Z</time>
      </trkpt>
      <trkpt lat="48.2043403" lon="14.9569955">
        <ele>228.908</ele>
        <time>2019-05-03T08:29:31.225Z</time>
      </trkpt>
      <trkpt lat="48.2042720" lon="14.9570915">
        <ele>228.915</ele>
        <time>2019-05-03T08:29:33.171Z</time>
      </trkpt>
      <trkpt lat="48.2042028" lon="14.9571997">
        <ele>228.914</ele>
        <time>2019-05-03T08:29:35.280Z</time>
      </trkpt>
      <trkpt lat="48.2041322" lon="14.9572835">
        <ele>228.899</ele>
        <time>2019-05-03T08:29:37.165Z</time>
      </trkpt>
      <trkpt lat="48.2040602" lon="14.9573671">
        <ele>228.868</ele>
        <time>2019-05-03T08:29:39.055Z</time>
      </trkpt>
      <trkpt lat="48.2039514" lon="14.9575097">
        <ele>228.828</ele>
        <time>2019-05-03T08:29:41.933Z</time>
      </trkpt>
      <trkpt lat="48.2038688" lon="14.9576053">
        <ele>228.770</ele>
        <time>2019-05-03T08:29:43.956Z</time>
      </trkpt>
      <trkpt lat="48.2037883" lon="14.9577216">
        <ele>228.686</ele>
        <time>2019-05-03T08:29:46.070Z</time>
      </trkpt>
      <trkpt lat="48.2037093" lon="14.9578129">
        <ele>228.594</ele>
        <time>2019-05-03T08:29:47.950Z</time>
      </trkpt>
      <trkpt lat="48.2036485" lon="14.9579229">
        <ele>228.497</ele>
        <time>2019-05-03T08:29:49.754Z</time>
      </trkpt>
      <trkpt lat="48.2035432" lon="14.9580667">
        <ele>228.402</ele>
        <time>2019-05-03T08:29:52.430Z</time>
      </trkpt>
      <trkpt lat="48.2034306" lon="14.9581172">
        <ele>228.363</ele>
        <time>2019-05-03T08:29:54.522Z</time>
      </trkpt>
      <trkpt lat="48.2033576" lon="14.9582753">
        <ele>228.420</ele>
        <time>2019-05-03T08:29:56.790Z</time>
      </trkpt>
      <trkpt lat="48.2032806" lon="14.9584044">
        <ele>228.531</ele>
        <time>2019-05-03T08:29:58.917Z</time>
      </trkpt>
      <trkpt lat="48.2031924" lon="14.9584981">
        <ele>228.626</ele>
        <time>2019-05-03T08:30:00.936Z</time>
      </trkpt>
      <trkpt lat="48.2031073" lon="14.9586136">
        <ele>228.674</ele>
        <time>2019-05-03T08:30:03.074Z</time>
      </trkpt>
      <trkpt lat="48.2030199" lon="14.9586941">
        <ele>228.676</ele>
        <time>2019-05-03T08:30:05.001Z</time>
      </trkpt>
      <trkpt lat="48.2029422" lon="14.9588112">
        <ele>228.648</ele>
        <time>2019-05-03T08:30:07.132Z</time>
      </trkpt>
      <trkpt lat="48.2028798" lon="14.9589300">
        <ele>228.609</ele>
        <time>2019-05-03T08:30:09.135Z</time>
      </trkpt>
      <trkpt lat="48.2028143" lon="14.9590265">
        <ele>228.555</ele>
        <time>2019-05-03T08:30:10.975Z</time>
      </trkpt>
      <trkpt lat="48.2027141" lon="14.9591180">
        <ele>228.472</ele>
        <time>2019-05-03T08:30:13.415Z</time>
      </trkpt>
      <trkpt lat="48.2026295" lon="14.9591816">
        <ele>228.348</ele>
        <time>2019-05-03T08:30:15.418Z</time>
      </trkpt>
      <trkpt lat="48.2025466" lon="14.9592760">
        <ele>228.191</ele>
        <time>2019-05-03T08:30:17.697Z</time>
      </trkpt>
      <trkpt lat="48.2024483" lon="14.9593727">
        <ele>228.054</ele>
        <time>2019-05-03T08:30:20.383Z</time>
      </trkpt>
      <trkpt lat="48.2023538" lon="14.9594580">
        <ele>228.019</ele>
        <time>2019-05-03T08:30:22.796Z</time>
      </trkpt>
      <trkpt lat="48.2022662" lon="14.9595465">
        <ele>228.122</ele>
        <time>2019-05-03T08:30:25.067Z</time>
      </trkpt>
      <trkpt lat="48.2021545" lon="14.9596250">
        <ele>228.288</ele>
        <time>2019-05-03T08:30:27.769Z</time>
      </trkpt>
      <trkpt lat="48.2020165" lon="14.9597193">
        <ele>228.395</ele>
        <time>2019-05-03T08:30:31.108Z</time>
      </trkpt>
      <trkpt lat="48.2018914" lon="14.9598489">
        <ele>228.405</ele>
        <time>2019-05-03T08:30:34.351Z</time>
      </trkpt>
      <trkpt lat="48.2017971" lon="14.9600035">
        <ele>228.378</ele>
        <time>2019-05-03T08:30:37.174Z</time>
      </trkpt>
      <trkpt lat="48.2016972" lon="14.9601387">
        <ele>228.410</ele>
        <time>2019-05-03T08:30:39.963Z</time>
      </trkpt>
      <trkpt lat="48.2016051" lon="14.9602241">
        <ele>228.531</ele>
        <time>2019-05-03T08:30:42.266Z</time>
      </trkpt>
      <trkpt lat="48.2015028" lon="14.9603745">
        <ele>228.684</ele>
        <time>2019-05-03T08:30:45.288Z</time>
      </trkpt>
      <trkpt lat="48.2014240" lon="14.9605062">
        <ele>228.800</ele>
        <time>2019-05-03T08:30:47.833Z</time>
      </trkpt>
      <trkpt lat="48.2013314" lon="14.9606811">
        <ele>228.865</ele>
        <time>2019-05-03T08:30:50.977Z</time>
      </trkpt>
      <trkpt lat="48.2012106" lon="14.9608834">
        <ele>228.893</ele>
        <time>2019-05-03T08:30:54.543Z</time>
      </trkpt>
      <trkpt lat="48.2011250" lon="14.9610484">
        <ele>228.921</ele>
        <time>2019-05-03T08:30:57.468Z</time>
      </trkpt>
      <trkpt lat="48.2010634" lon="14.9611716">
        <ele>228.999</ele>
        <time>2019-05-03T08:30:59.746Z</time>
      </trkpt>
      <trkpt lat="48.2010169" lon="14.9612889">
        <ele>229.172</ele>
        <time>2019-05-03T08:31:01.627Z</time>
      </trkpt>
      <trkpt lat="48.2009616" lon="14.9614289">
        <ele>229.522</ele>
        <time>2019-05-03T08:31:03.772Z</time>
      </trkpt>
      <trkpt lat="48.2009155" lon="14.9615795">
        <ele>230.118</ele>
        <time>2019-05-03T08:31:05.953Z</time>
      </trkpt>
      <trkpt lat="48.2008547" lon="14.9617416">
        <ele>230.952</ele>
        <time>2019-05-03T08:31:08.502Z</time>
      </trkpt>
      <trkpt lat="48.2008284" lon="14.9618761">
        <ele>232.012</ele>
        <time>2019-05-03T08:31:10.471Z</time>
      </trkpt>
      <trkpt lat="48.2008170" lon="14.9620105">
        <ele>233.247</ele>
        <time>2019-05-03T08:31:12.453Z</time>
      </trkpt>
      <trkpt lat="48.2008033" lon="14.9621527">
        <ele>234.424</ele>
        <time>2019-05-03T08:31:14.599Z</time>
      </trkpt>
      <trkpt lat="48.2008247" lon="14.9623251">
        <ele>235.241</ele>
        <time>2019-05-03T08:31:17.048Z</time>
      </trkpt>
      <trkpt lat="48.2008051" lon="14.9624607">
        <ele>235.530</ele>
        <time>2019-05-03T08:31:18.926Z</time>
      </trkpt>
      <trkpt lat="48.2007642" lon="14.9626502">
        <ele>235.299</ele>
        <time>2019-05-03T08:31:21.620Z</time>
      </trkpt>
      <trkpt lat="48.2007508" lon="14.9628187">
        <ele>234.686</ele>
        <time>2019-05-03T08:31:23.823Z</time>
      </trkpt>
      <trkpt lat="48.2007272" lon="14.9629573">
        <ele>233.991</ele>
        <time>2019-05-03T08:31:25.649Z</time>
      </trkpt>
      <trkpt lat="48.2007064" lon="14.9631379">
        <ele>233.494</ele>
        <time>2019-05-03T08:31:27.934Z</time>
      </trkpt>
      <trkpt lat="48.2007135" lon="14.9633005">
        <ele>233.252</ele>
        <time>2019-05-03T08:31:29.872Z</time>
      </trkpt>
      <trkpt lat="48.2006868" lon="14.9634913">
        <ele>233.185</ele>
        <time>2019-05-03T08:31:32.172Z</time>
      </trkpt>
      <trkpt lat="48.2006555" lon="14.9636811">
        <ele>233.188</ele>
        <time>2019-05-03T08:31:34.596Z</time>
      </trkpt>
      <trkpt lat="48.2006274" lon="14.9638751">
        <ele>233.187</ele>
        <time>2019-05-03T08:31:37.218Z</time>
      </trkpt>
      <trkpt lat="48.2005907" lon="14.9640493">
        <ele>233.219</ele>
        <time>2019-05-03T08:31:39.601Z</time>
      </trkpt>
      <trkpt lat="48.2005729" lon="14.9641835">
        <ele>233.399</ele>
        <time>2019-05-03T08:31:41.311Z</time>
      </trkpt>
      <trkpt lat="48.2005457" lon="14.9643135">
        <ele>233.771</ele>
        <time>2019-05-03T08:31:42.989Z</time>
      </trkpt>
      <trkpt lat="48.2005254" lon="14.9644928">
        <ele>234.236</ele>
        <time>2019-05-03T08:31:45.217Z</time>
      </trkpt>
      <trkpt lat="48.2005298" lon="14.9646553">
        <ele>234.663</ele>
        <time>2019-05-03T08:31:47.278Z</time>
      </trkpt>
      <trkpt lat="48.2004959" lon="14.9648345">
        <ele>234.967</ele>
        <time>2019-05-03T08:31:49.698Z</time>
      </trkpt>
      <trkpt lat="48.2004603" lon="14.9649943">
        <ele>235.111</ele>
        <time>2019-05-03T08:31:51.842Z</time>
      </trkpt>
      <trkpt lat="48.2004613" lon="14.9651885">
        <ele>235.126</ele>
        <time>2019-05-03T08:31:54.226Z</time>
      </trkpt>
      <trkpt lat="48.2004622" lon="14.9654010">
        <ele>235.092</ele>
        <time>2019-05-03T08:31:56.924Z</time>
      </trkpt>
      <trkpt lat="48.2004455" lon="14.9655631">
        <ele>235.047</ele>
        <time>2019-05-03T08:31:59.119Z</time>
      </trkpt>
      <trkpt lat="48.2004236" lon="14.9657273">
        <ele>234.925</ele>
        <time>2019-05-03T08:32:01.398Z</time>
      </trkpt>
      <trkpt lat="48.2004047" lon="14.9658776">
        <ele>234.684</ele>
        <time>2019-05-03T08:32:03.435Z</time>
      </trkpt>
      <trkpt lat="48.2003707" lon="14.9660247">
        <ele>234.428</ele>
        <time>2019-05-03T08:32:05.436Z</time>
      </trkpt>
      <trkpt lat="48.2003315" lon="14.9661687">
        <ele>234.297</ele>
        <time>2019-05-03T08:32:07.347Z</time>
      </trkpt>
      <trkpt lat="48.2003031" lon="14.9662993">
        <ele>234.338</ele>
        <time>2019-05-03T08:32:08.983Z</time>
      </trkpt>
      <trkpt lat="48.2002708" lon="14.9664397">
        <ele>234.519</ele>
        <time>2019-05-03T08:32:10.744Z</time>
      </trkpt>
      <trkpt lat="48.2002232" lon="14.9665944">
        <ele>234.729</ele>
        <time>2019-05-03T08:32:12.745Z</time>
      </trkpt>
      <trkpt lat="48.2001740" lon="14.9667522">
        <ele>234.821</ele>
        <time>2019-05-03T08:32:14.755Z</time>
      </trkpt>
      <trkpt lat="48.2001014" lon="14.9669071">
        <ele>234.711</ele>
        <time>2019-05-03T08:32:17.022Z</time>
      </trkpt>
      <trkpt lat="48.2000464" lon="14.9670725">
        <ele>234.429</ele>
        <time>2019-05-03T08:32:19.299Z</time>
      </trkpt>
      <trkpt lat="48.2000210" lon="14.9672307">
        <ele>234.065</ele>
        <time>2019-05-03T08:32:21.357Z</time>
      </trkpt>
      <trkpt lat="48.1999731" lon="14.9673929">
        <ele>233.682</ele>
        <time>2019-05-03T08:32:23.755Z</time>
      </trkpt>
      <trkpt lat="48.1998903" lon="14.9675733">
        <ele>233.263</ele>
        <time>2019-05-03T08:32:26.872Z</time>
      </trkpt>
      <trkpt lat="48.1998594" lon="14.9677085">
        <ele>232.775</ele>
        <time>2019-05-03T08:32:28.779Z</time>
      </trkpt>
      <trkpt lat="48.1998144" lon="14.9678375">
        <ele>232.296</ele>
        <time>2019-05-03T08:32:30.688Z</time>
      </trkpt>
      <trkpt lat="48.1997627" lon="14.9679962">
        <ele>231.901</ele>
        <time>2019-05-03T08:32:33.017Z</time>
      </trkpt>
      <trkpt lat="48.1996995" lon="14.9681194">
        <ele>231.552</ele>
        <time>2019-05-03T08:32:35.096Z</time>
      </trkpt>
      <trkpt lat="48.1996387" lon="14.9682624">
        <ele>231.190</ele>
        <time>2019-05-03T08:32:37.373Z</time>
      </trkpt>
      <trkpt lat="48.1995965" lon="14.9683821">
        <ele>230.834</ele>
        <time>2019-05-03T08:32:39.180Z</time>
      </trkpt>
      <trkpt lat="48.1995445" lon="14.9685013">
        <ele>230.559</ele>
        <time>2019-05-03T08:32:41.080Z</time>
      </trkpt>
      <trkpt lat="48.1994918" lon="14.9686367">
        <ele>230.399</ele>
        <time>2019-05-03T08:32:43.247Z</time>
      </trkpt>
      <trkpt lat="48.1994352" lon="14.9687758">
        <ele>230.327</ele>
        <time>2019-05-03T08:32:45.560Z</time>
      </trkpt>
      <trkpt lat="48.1993755" lon="14.9688995">
        <ele>230.308</ele>
        <time>2019-05-03T08:32:47.698Z</time>
      </trkpt>
      <trkpt lat="48.1993265" lon="14.9690608">
        <ele>230.314</ele>
        <time>2019-05-03T08:32:50.066Z</time>
      </trkpt>
      <trkpt lat="48.1992843" lon="14.9692162">
        <ele>230.312</ele>
        <time>2019-05-03T08:32:52.327Z</time>
      </trkpt>
      <trkpt lat="48.1992238" lon="14.9693358">
        <ele>230.263</ele>
        <time>2019-05-03T08:32:54.352Z</time>
      </trkpt>
      <trkpt lat="48.1991535" lon="14.9694544">
        <ele>230.149</ele>
        <time>2019-05-03T08:32:56.443Z</time>
      </trkpt>
      <trkpt lat="48.1990712" lon="14.9695989">
        <ele>229.996</ele>
        <time>2019-05-03T08:32:58.890Z</time>
      </trkpt>
      <trkpt lat="48.1989965" lon="14.9697324">
        <ele>229.838</ele>
        <time>2019-05-03T08:33:01.099Z</time>
      </trkpt>
      <trkpt lat="48.1989325" lon="14.9698503">
        <ele>229.708</ele>
        <time>2019-05-03T08:33:03.064Z</time>
      </trkpt>
      <trkpt lat="48.1988705" lon="14.9699665">
        <ele>229.638</ele>
        <time>2019-05-03T08:33:05.054Z</time>
      </trkpt>
      <trkpt lat="48.1988113" lon="14.9700848">
        <ele>229.667</ele>
        <time>2019-05-03T08:33:07.017Z</time>
      </trkpt>
      <trkpt lat="48.1987626" lon="14.9702014">
        <ele>229.840</ele>
        <time>2019-05-03T08:33:08.796Z</time>
      </trkpt>
      <trkpt lat="48.1986721" lon="14.9703534">
        <ele>230.129</ele>
        <time>2019-05-03T08:33:11.282Z</time>
      </trkpt>
      <trkpt lat="48.1986095" lon="14.9704524">
        <ele>230.408</ele>
        <time>2019-05-03T08:33:12.865Z</time>
      </trkpt>
      <trkpt lat="48.1985316" lon="14.9705761">
        <ele>230.566</ele>
        <time>2019-05-03T08:33:14.814Z</time>
      </trkpt>
      <trkpt lat="48.1984429" lon="14.9707361">
        <ele>230.601</ele>
        <time>2019-05-03T08:33:17.209Z</time>
      </trkpt>
      <trkpt lat="48.1983731" lon="14.9708664">
        <ele>230.574</ele>
        <time>2019-05-03T08:33:19.158Z</time>
      </trkpt>
      <trkpt lat="48.1983056" lon="14.9710061">
        <ele>230.556</ele>
        <time>2019-05-03T08:33:21.229Z</time>
      </trkpt>
      <trkpt lat="48.1982276" lon="14.9711534">
        <ele>230.583</ele>
        <time>2019-05-03T08:33:23.531Z</time>
      </trkpt>
      <trkpt lat="48.1981643" lon="14.9712635">
        <ele>230.562</ele>
        <time>2019-05-03T08:33:25.341Z</time>
      </trkpt>
      <trkpt lat="48.1980674" lon="14.9714062">
        <ele>230.303</ele>
        <time>2019-05-03T08:33:27.849Z</time>
      </trkpt>
      <trkpt lat="48.1979977" lon="14.9715199">
        <ele>229.827</ele>
        <time>2019-05-03T08:33:29.699Z</time>
      </trkpt>
      <trkpt lat="48.1979355" lon="14.9716312">
        <ele>229.597</ele>
        <time>2019-05-03T08:33:31.431Z</time>
      </trkpt>
      <trkpt lat="48.1978615" lon="14.9717435">
        <ele>229.950</ele>
        <time>2019-05-03T08:33:33.355Z</time>
      </trkpt>
      <trkpt lat="48.1977895" lon="14.9718614">
        <ele>230.591</ele>
        <time>2019-05-03T08:33:35.313Z</time>
      </trkpt>
      <trkpt lat="48.1977143" lon="14.9719815">
        <ele>231.049</ele>
        <time>2019-05-03T08:33:37.301Z</time>
      </trkpt>
      <trkpt lat="48.1976417" lon="14.9720951">
        <ele>231.192</ele>
        <time>2019-05-03T08:33:39.199Z</time>
      </trkpt>
      <trkpt lat="48.1975703" lon="14.9722118">
        <ele>231.118</ele>
        <time>2019-05-03T08:33:41.131Z</time>
      </trkpt>
      <trkpt lat="48.1974974" lon="14.9723299">
        <ele>230.974</ele>
        <time>2019-05-03T08:33:43.081Z</time>
      </trkpt>
      <trkpt lat="48.1974306" lon="14.9724577">
        <ele>230.858</ele>
        <time>2019-05-03T08:33:44.991Z</time>
      </trkpt>
      <trkpt lat="48.1973656" lon="14.9725821">
        <ele>230.792</ele>
        <time>2019-05-03T08:33:46.839Z</time>
      </trkpt>
      <trkpt lat="48.1973094" lon="14.9727181">
        <ele>230.821</ele>
        <time>2019-05-03T08:33:48.745Z</time>
      </trkpt>
      <trkpt lat="48.1972428" lon="14.9728458">
        <ele>231.005</ele>
        <time>2019-05-03T08:33:50.706Z</time>
      </trkpt>
      <trkpt lat="48.1971787" lon="14.9729596">
        <ele>231.272</ele>
        <time>2019-05-03T08:33:52.528Z</time>
      </trkpt>
      <trkpt lat="48.1971172" lon="14.9730781">
        <ele>231.470</ele>
        <time>2019-05-03T08:33:54.326Z</time>
      </trkpt>
      <trkpt lat="48.1970608" lon="14.9732126">
        <ele>231.522</ele>
        <time>2019-05-03T08:33:56.208Z</time>
      </trkpt>
      <trkpt lat="48.1969947" lon="14.9733845">
        <ele>231.420</ele>
        <time>2019-05-03T08:33:58.509Z</time>
      </trkpt>
      <trkpt lat="48.1969128" lon="14.9734966">
        <ele>231.119</ele>
        <time>2019-05-03T08:34:00.448Z</time>
      </trkpt>
      <trkpt lat="48.1968601" lon="14.9736510">
        <ele>230.605</ele>
        <time>2019-05-03T08:34:02.511Z</time>
      </trkpt>
      <trkpt lat="48.1968159" lon="14.9737735">
        <ele>230.068</ele>
        <time>2019-05-03T08:34:04.160Z</time>
      </trkpt>
      <trkpt lat="48.1967473" lon="14.9739236">
        <ele>229.785</ele>
        <time>2019-05-03T08:34:06.293Z</time>
      </trkpt>
      <trkpt lat="48.1966928" lon="14.9740480">
        <ele>229.843</ele>
        <time>2019-05-03T08:34:08.139Z</time>
      </trkpt>
      <trkpt lat="48.1966308" lon="14.9741774">
        <ele>230.104</ele>
        <time>2019-05-03T08:34:10.134Z</time>
      </trkpt>
      <trkpt lat="48.1965701" lon="14.9742975">
        <ele>230.391</ele>
        <time>2019-05-03T08:34:11.999Z</time>
      </trkpt>
      <trkpt lat="48.1965105" lon="14.9744112">
        <ele>230.736</ele>
        <time>2019-05-03T08:34:13.772Z</time>
      </trkpt>
      <trkpt lat="48.1964486" lon="14.9745337">
        <ele>231.323</ele>
        <time>2019-05-03T08:34:15.695Z</time>
      </trkpt>
      <trkpt lat="48.1963992" lon="14.9746711">
        <ele>232.165</ele>
        <time>2019-05-03T08:34:17.687Z</time>
      </trkpt>
      <trkpt lat="48.1963369" lon="14.9747949">
        <ele>232.969</ele>
        <time>2019-05-03T08:34:19.638Z</time>
      </trkpt>
      <trkpt lat="48.1962769" lon="14.9749207">
        <ele>233.439</ele>
        <time>2019-05-03T08:34:21.536Z</time>
      </trkpt>
      <trkpt lat="48.1962267" lon="14.9750984">
        <ele>233.605</ele>
        <time>2019-05-03T08:34:23.876Z</time>
      </trkpt>
      <trkpt lat="48.1961999" lon="14.9752435">
        <ele>233.761</ele>
        <time>2019-05-03T08:34:25.691Z</time>
      </trkpt>
      <trkpt lat="48.1961708" lon="14.9753902">
        <ele>234.046</ele>
        <time>2019-05-03T08:34:27.525Z</time>
      </trkpt>
      <trkpt lat="48.1961306" lon="14.9755558">
        <ele>234.225</ele>
        <time>2019-05-03T08:34:29.624Z</time>
      </trkpt>
      <trkpt lat="48.1960998" lon="14.9757303">
        <ele>234.021</ele>
        <time>2019-05-03T08:34:31.753Z</time>
      </trkpt>
      <trkpt lat="48.1960668" lon="14.9759063">
        <ele>233.440</ele>
        <time>2019-05-03T08:34:33.905Z</time>
      </trkpt>
      <trkpt lat="48.1960141" lon="14.9760497">
        <ele>232.674</ele>
        <time>2019-05-03T08:34:35.893Z</time>
      </trkpt>
      <trkpt lat="48.1959897" lon="14.9762080">
        <ele>231.943</ele>
        <time>2019-05-03T08:34:37.916Z</time>
      </trkpt>
      <trkpt lat="48.1959788" lon="14.9763440">
        <ele>231.394</ele>
        <time>2019-05-03T08:34:39.646Z</time>
      </trkpt>
      <trkpt lat="48.1959190" lon="14.9764831">
        <ele>231.023</ele>
        <time>2019-05-03T08:34:41.748Z</time>
      </trkpt>
      <trkpt lat="48.1958862" lon="14.9766575">
        <ele>230.720</ele>
        <time>2019-05-03T08:34:43.998Z</time>
      </trkpt>
      <trkpt lat="48.1958655" lon="14.9768001">
        <ele>230.398</ele>
        <time>2019-05-03T08:34:45.750Z</time>
      </trkpt>
      <trkpt lat="48.1958342" lon="14.9769443">
        <ele>230.040</ele>
        <time>2019-05-03T08:34:47.564Z</time>
      </trkpt>
      <trkpt lat="48.1957942" lon="14.9771054">
        <ele>229.684</ele>
        <time>2019-05-03T08:34:49.599Z</time>
      </trkpt>
      <trkpt lat="48.1957609" lon="14.9772631">
        <ele>229.417</ele>
        <time>2019-05-03T08:34:51.516Z</time>
      </trkpt>
      <trkpt lat="48.1957277" lon="14.9774299">
        <ele>229.305</ele>
        <time>2019-05-03T08:34:53.508Z</time>
      </trkpt>
      <trkpt lat="48.1956899" lon="14.9775859">
        <ele>229.323</ele>
        <time>2019-05-03T08:34:55.418Z</time>
      </trkpt>
      <trkpt lat="48.1956581" lon="14.9777335">
        <ele>229.370</ele>
        <time>2019-05-03T08:34:57.215Z</time>
      </trkpt>
      <trkpt lat="48.1956420" lon="14.9778883">
        <ele>229.370</ele>
        <time>2019-05-03T08:34:59.015Z</time>
      </trkpt>
      <trkpt lat="48.1956341" lon="14.9780260">
        <ele>229.321</ele>
        <time>2019-05-03T08:35:00.590Z</time>
      </trkpt>
      <trkpt lat="48.1956288" lon="14.9781637">
        <ele>229.263</ele>
        <time>2019-05-03T08:35:02.167Z</time>
      </trkpt>
      <trkpt lat="48.1956039" lon="14.9783163">
        <ele>229.225</ele>
        <time>2019-05-03T08:35:03.978Z</time>
      </trkpt>
      <trkpt lat="48.1955849" lon="14.9785021">
        <ele>229.209</ele>
        <time>2019-05-03T08:35:06.147Z</time>
      </trkpt>
      <trkpt lat="48.1955815" lon="14.9786613">
        <ele>229.207</ele>
        <time>2019-05-03T08:35:07.981Z</time>
      </trkpt>
      <trkpt lat="48.1955637" lon="14.9788403">
        <ele>229.210</ele>
        <time>2019-05-03T08:35:10.052Z</time>
      </trkpt>
      <trkpt lat="48.1955468" lon="14.9789959">
        <ele>229.212</ele>
        <time>2019-05-03T08:35:11.850Z</time>
      </trkpt>
      <trkpt lat="48.1955368" lon="14.9791453">
        <ele>229.213</ele>
        <time>2019-05-03T08:35:13.555Z</time>
      </trkpt>
      <trkpt lat="48.1955196" lon="14.9793492">
        <ele>229.213</ele>
        <time>2019-05-03T08:35:15.965Z</time>
      </trkpt>
      <trkpt lat="48.1955175" lon="14.9795103">
        <ele>229.245</ele>
        <time>2019-05-03T08:35:17.996Z</time>
      </trkpt>
      <trkpt lat="48.1954986" lon="14.9797121">
        <ele>229.401</ele>
        <time>2019-05-03T08:35:20.593Z</time>
      </trkpt>
      <trkpt lat="48.1954839" lon="14.9798966">
        <ele>229.672</ele>
        <time>2019-05-03T08:35:22.868Z</time>
      </trkpt>
      <trkpt lat="48.1954614" lon="14.9800662">
        <ele>229.845</ele>
        <time>2019-05-03T08:35:24.843Z</time>
      </trkpt>
      <trkpt lat="48.1954374" lon="14.9802260">
        <ele>229.767</ele>
        <time>2019-05-03T08:35:26.641Z</time>
      </trkpt>
      <trkpt lat="48.1954067" lon="14.9804013">
        <ele>229.558</ele>
        <time>2019-05-03T08:35:28.600Z</time>
      </trkpt>
      <trkpt lat="48.1953762" lon="14.9805521">
        <ele>229.434</ele>
        <time>2019-05-03T08:35:30.293Z</time>
      </trkpt>
      <trkpt lat="48.1953509" lon="14.9807480">
        <ele>229.492</ele>
        <time>2019-05-03T08:35:32.429Z</time>
      </trkpt>
      <trkpt lat="48.1953290" lon="14.9809185">
        <ele>229.681</ele>
        <time>2019-05-03T08:35:34.275Z</time>
      </trkpt>
      <trkpt lat="48.1953019" lon="14.9810875">
        <ele>229.900</ele>
        <time>2019-05-03T08:35:36.103Z</time>
      </trkpt>
      <trkpt lat="48.1952770" lon="14.9812620">
        <ele>230.082</ele>
        <time>2019-05-03T08:35:37.980Z</time>
      </trkpt>
      <trkpt lat="48.1952394" lon="14.9814429">
        <ele>230.209</ele>
        <time>2019-05-03T08:35:39.997Z</time>
      </trkpt>
      <trkpt lat="48.1951876" lon="14.9816263">
        <ele>230.330</ele>
        <time>2019-05-03T08:35:42.114Z</time>
      </trkpt>
      <trkpt lat="48.1951196" lon="14.9817909">
        <ele>230.569</ele>
        <time>2019-05-03T08:35:44.116Z</time>
      </trkpt>
      <trkpt lat="48.1950854" lon="14.9819608">
        <ele>231.102</ele>
        <time>2019-05-03T08:35:45.930Z</time>
      </trkpt>
      <trkpt lat="48.1950512" lon="14.9821383">
        <ele>231.987</ele>
        <time>2019-05-03T08:35:47.852Z</time>
      </trkpt>
      <trkpt lat="48.1950180" lon="14.9823273">
        <ele>233.066</ele>
        <time>2019-05-03T08:35:49.964Z</time>
      </trkpt>
      <trkpt lat="48.1949807" lon="14.9825060">
        <ele>234.067</ele>
        <time>2019-05-03T08:35:52.043Z</time>
      </trkpt>
      <trkpt lat="48.1949485" lon="14.9826586">
        <ele>234.754</ele>
        <time>2019-05-03T08:35:53.908Z</time>
      </trkpt>
      <trkpt lat="48.1949205" lon="14.9828239">
        <ele>235.125</ele>
        <time>2019-05-03T08:35:55.890Z</time>
      </trkpt>
      <trkpt lat="48.1948954" lon="14.9829637">
        <ele>235.457</ele>
        <time>2019-05-03T08:35:57.560Z</time>
      </trkpt>
      <trkpt lat="48.1948661" lon="14.9831481">
        <ele>235.954</ele>
        <time>2019-05-03T08:35:59.731Z</time>
      </trkpt>
      <trkpt lat="48.1948133" lon="14.9833649">
        <ele>236.555</ele>
        <time>2019-05-03T08:36:02.373Z</time>
      </trkpt>
      <trkpt lat="48.1948293" lon="14.9835798">
        <ele>237.140</ele>
        <time>2019-05-03T08:36:04.874Z</time>
      </trkpt>
      <trkpt lat="48.1948060" lon="14.9837787">
        <ele>237.614</ele>
        <time>2019-05-03T08:36:07.202Z</time>
      </trkpt>
      <trkpt lat="48.1947938" lon="14.9839829">
        <ele>237.822</ele>
        <time>2019-05-03T08:36:09.544Z</time>
      </trkpt>
      <trkpt lat="48.1947716" lon="14.9841740">
        <ele>237.646</ele>
        <time>2019-05-03T08:36:11.739Z</time>
      </trkpt>
      <trkpt lat="48.1947586" lon="14.9843601">
        <ele>237.191</ele>
        <time>2019-05-03T08:36:13.845Z</time>
      </trkpt>
      <trkpt lat="48.1947330" lon="14.9845414">
        <ele>236.706</ele>
        <time>2019-05-03T08:36:15.915Z</time>
      </trkpt>
      <trkpt lat="48.1947159" lon="14.9847715">
        <ele>236.291</ele>
        <time>2019-05-03T08:36:18.507Z</time>
      </trkpt>
      <trkpt lat="48.1946949" lon="14.9849221">
        <ele>235.753</ele>
        <time>2019-05-03T08:36:20.243Z</time>
      </trkpt>
      <trkpt lat="48.1946802" lon="14.9850825">
        <ele>234.861</ele>
        <time>2019-05-03T08:36:22.081Z</time>
      </trkpt>
      <trkpt lat="48.1946668" lon="14.9852930">
        <ele>233.746</ele>
        <time>2019-05-03T08:36:24.513Z</time>
      </trkpt>
      <trkpt lat="48.1946512" lon="14.9854633">
        <ele>232.804</ele>
        <time>2019-05-03T08:36:26.475Z</time>
      </trkpt>
      <trkpt lat="48.1946426" lon="14.9856428">
        <ele>232.172</ele>
        <time>2019-05-03T08:36:28.466Z</time>
      </trkpt>
      <trkpt lat="48.1946452" lon="14.9858084">
        <ele>231.682</ele>
        <time>2019-05-03T08:36:30.261Z</time>
      </trkpt>
      <trkpt lat="48.1946352" lon="14.9859690">
        <ele>231.143</ele>
        <time>2019-05-03T08:36:32.006Z</time>
      </trkpt>
      <trkpt lat="48.1946238" lon="14.9861140">
        <ele>230.481</ele>
        <time>2019-05-03T08:36:33.593Z</time>
      </trkpt>
      <trkpt lat="48.1946014" lon="14.9862609">
        <ele>229.835</ele>
        <time>2019-05-03T08:36:35.244Z</time>
      </trkpt>
      <trkpt lat="48.1945965" lon="14.9864630">
        <ele>229.436</ele>
        <time>2019-05-03T08:36:37.479Z</time>
      </trkpt>
      <trkpt lat="48.1945886" lon="14.9866305">
        <ele>229.300</ele>
        <time>2019-05-03T08:36:39.363Z</time>
      </trkpt>
      <trkpt lat="48.1945868" lon="14.9867942">
        <ele>229.252</ele>
        <time>2019-05-03T08:36:41.238Z</time>
      </trkpt>
      <trkpt lat="48.1945629" lon="14.9869683">
        <ele>229.190</ele>
        <time>2019-05-03T08:36:43.298Z</time>
      </trkpt>
      <trkpt lat="48.1945531" lon="14.9871598">
        <ele>229.140</ele>
        <time>2019-05-03T08:36:45.549Z</time>
      </trkpt>
      <trkpt lat="48.1945298" lon="14.9873410">
        <ele>229.176</ele>
        <time>2019-05-03T08:36:47.659Z</time>
      </trkpt>
      <trkpt lat="48.1945168" lon="14.9875323">
        <ele>229.340</ele>
        <time>2019-05-03T08:36:49.778Z</time>
      </trkpt>
      <trkpt lat="48.1945007" lon="14.9877150">
        <ele>229.667</ele>
        <time>2019-05-03T08:36:51.781Z</time>
      </trkpt>
      <trkpt lat="48.1944857" lon="14.9878992">
        <ele>230.207</ele>
        <time>2019-05-03T08:36:53.778Z</time>
      </trkpt>
      <trkpt lat="48.1944614" lon="14.9881136">
        <ele>230.962</ele>
        <time>2019-05-03T08:36:56.090Z</time>
      </trkpt>
      <trkpt lat="48.1944080" lon="14.9883121">
        <ele>231.777</ele>
        <time>2019-05-03T08:36:58.324Z</time>
      </trkpt>
      <trkpt lat="48.1943714" lon="14.9885100">
        <ele>232.439</ele>
        <time>2019-05-03T08:37:00.399Z</time>
      </trkpt>
      <trkpt lat="48.1943445" lon="14.9886935">
        <ele>232.953</ele>
        <time>2019-05-03T08:37:02.255Z</time>
      </trkpt>
      <trkpt lat="48.1943160" lon="14.9888335">
        <ele>233.518</ele>
        <time>2019-05-03T08:37:03.707Z</time>
      </trkpt>
      <trkpt lat="48.1942764" lon="14.9890120">
        <ele>234.146</ele>
        <time>2019-05-03T08:37:05.592Z</time>
      </trkpt>
      <trkpt lat="48.1942435" lon="14.9891983">
        <ele>234.670</ele>
        <time>2019-05-03T08:37:07.566Z</time>
      </trkpt>
      <trkpt lat="48.1942015" lon="14.9894094">
        <ele>235.008</ele>
        <time>2019-05-03T08:37:09.859Z</time>
      </trkpt>
      <trkpt lat="48.1941695" lon="14.9895595">
        <ele>235.176</ele>
        <time>2019-05-03T08:37:11.545Z</time>
      </trkpt>
      <trkpt lat="48.1941328" lon="14.9898000">
        <ele>235.218</ele>
        <time>2019-05-03T08:37:14.246Z</time>
      </trkpt>
      <trkpt lat="48.1940715" lon="14.9899533">
        <ele>235.211</ele>
        <time>2019-05-03T08:37:16.238Z</time>
      </trkpt>
      <trkpt lat="48.1940047" lon="14.9901480">
        <ele>235.270</ele>
        <time>2019-05-03T08:37:18.733Z</time>
      </trkpt>
      <trkpt lat="48.1939937" lon="14.9903420">
        <ele>235.704</ele>
        <time>2019-05-03T08:37:20.942Z</time>
      </trkpt>
      <trkpt lat="48.1939832" lon="14.9905187">
        <ele>236.698</ele>
        <time>2019-05-03T08:37:22.911Z</time>
      </trkpt>
      <trkpt lat="48.1939303" lon="14.9907817">
        <ele>237.838</ele>
        <time>2019-05-03T08:37:25.930Z</time>
      </trkpt>
      <trkpt lat="48.1939125" lon="14.9909759">
        <ele>238.576</ele>
        <time>2019-05-03T08:37:28.069Z</time>
      </trkpt>
      <trkpt lat="48.1938886" lon="14.9911492">
        <ele>238.924</ele>
        <time>2019-05-03T08:37:29.992Z</time>
      </trkpt>
      <trkpt lat="48.1938737" lon="14.9913174">
        <ele>239.150</ele>
        <time>2019-05-03T08:37:31.911Z</time>
      </trkpt>
      <trkpt lat="48.1938922" lon="14.9915266">
        <ele>239.330</ele>
        <time>2019-05-03T08:37:34.412Z</time>
      </trkpt>
      <trkpt lat="48.1938715" lon="14.9916998">
        <ele>239.403</ele>
        <time>2019-05-03T08:37:36.539Z</time>
      </trkpt>
      <trkpt lat="48.1938510" lon="14.9918895">
        <ele>239.164</ele>
        <time>2019-05-03T08:37:38.878Z</time>
      </trkpt>
      <trkpt lat="48.1938501" lon="14.9920639">
        <ele>238.467</ele>
        <time>2019-05-03T08:37:40.927Z</time>
      </trkpt>
      <trkpt lat="48.1938672" lon="14.9922078">
        <ele>237.581</ele>
        <time>2019-05-03T08:37:42.594Z</time>
      </trkpt>
      <trkpt lat="48.1938615" lon="14.9924047">
        <ele>236.812</ele>
        <time>2019-05-03T08:37:44.852Z</time>
      </trkpt>
      <trkpt lat="48.1938593" lon="14.9925940">
        <ele>236.081</ele>
        <time>2019-05-03T08:37:47.053Z</time>
      </trkpt>
      <trkpt lat="48.1938458" lon="14.9927801">
        <ele>235.246</ele>
        <time>2019-05-03T08:37:49.193Z</time>
      </trkpt>
      <trkpt lat="48.1938355" lon="14.9929716">
        <ele>234.451</ele>
        <time>2019-05-03T08:37:51.344Z</time>
      </trkpt>
      <trkpt lat="48.1938354" lon="14.9931422">
        <ele>233.974</ele>
        <time>2019-05-03T08:37:53.223Z</time>
      </trkpt>
      <trkpt lat="48.1938244" lon="14.9933441">
        <ele>233.869</ele>
        <time>2019-05-03T08:37:55.450Z</time>
      </trkpt>
      <trkpt lat="48.1938539" lon="14.9934973">
        <ele>233.956</ele>
        <time>2019-05-03T08:37:57.210Z</time>
      </trkpt>
      <trkpt lat="48.1938562" lon="14.9936869">
        <ele>234.029</ele>
        <time>2019-05-03T08:37:59.308Z</time>
      </trkpt>
      <trkpt lat="48.1938411" lon="14.9938806">
        <ele>233.947</ele>
        <time>2019-05-03T08:38:01.471Z</time>
      </trkpt>
      <trkpt lat="48.1938674" lon="14.9940863">
        <ele>233.713</ele>
        <time>2019-05-03T08:38:03.776Z</time>
      </trkpt>
      <trkpt lat="48.1938648" lon="14.9942757">
        <ele>233.380</ele>
        <time>2019-05-03T08:38:05.840Z</time>
      </trkpt>
      <trkpt lat="48.1938492" lon="14.9944624">
        <ele>232.923</ele>
        <time>2019-05-03T08:38:07.864Z</time>
      </trkpt>
      <trkpt lat="48.1938478" lon="14.9946539">
        <ele>232.410</ele>
        <time>2019-05-03T08:38:09.925Z</time>
      </trkpt>
      <trkpt lat="48.1938346" lon="14.9948602">
        <ele>232.104</ele>
        <time>2019-05-03T08:38:12.125Z</time>
      </trkpt>
      <trkpt lat="48.1938334" lon="14.9950207">
        <ele>232.157</ele>
        <time>2019-05-03T08:38:13.750Z</time>
      </trkpt>
      <trkpt lat="48.1938445" lon="14.9952131">
        <ele>232.517</ele>
        <time>2019-05-03T08:38:15.696Z</time>
      </trkpt>
      <trkpt lat="48.1938472" lon="14.9954323">
        <ele>233.028</ele>
        <time>2019-05-03T08:38:17.973Z</time>
      </trkpt>
      <trkpt lat="48.1938599" lon="14.9956448">
        <ele>233.457</ele>
        <time>2019-05-03T08:38:20.232Z</time>
      </trkpt>
      <trkpt lat="48.1938629" lon="14.9958437">
        <ele>233.627</ele>
        <time>2019-05-03T08:38:22.336Z</time>
      </trkpt>
      <trkpt lat="48.1938580" lon="14.9959897">
        <ele>233.576</ele>
        <time>2019-05-03T08:38:23.892Z</time>
      </trkpt>
      <trkpt lat="48.1938503" lon="14.9962102">
        <ele>233.495</ele>
        <time>2019-05-03T08:38:26.309Z</time>
      </trkpt>
      <trkpt lat="48.1938479" lon="14.9964141">
        <ele>233.578</ele>
        <time>2019-05-03T08:38:28.493Z</time>
      </trkpt>
      <trkpt lat="48.1938465" lon="14.9965633">
        <ele>233.867</ele>
        <time>2019-05-03T08:38:30.035Z</time>
      </trkpt>
      <trkpt lat="48.1938443" lon="14.9967018">
        <ele>234.223</ele>
        <time>2019-05-03T08:38:31.500Z</time>
      </trkpt>
      <trkpt lat="48.1938418" lon="14.9968859">
        <ele>234.432</ele>
        <time>2019-05-03T08:38:33.555Z</time>
      </trkpt>
      <trkpt lat="48.1938232" lon="14.9970678">
        <ele>234.381</ele>
        <time>2019-05-03T08:38:35.722Z</time>
      </trkpt>
      <trkpt lat="48.1938382" lon="14.9972299">
        <ele>234.165</ele>
        <time>2019-05-03T08:38:37.685Z</time>
      </trkpt>
      <trkpt lat="48.1938155" lon="14.9974092">
        <ele>233.965</ele>
        <time>2019-05-03T08:38:39.848Z</time>
      </trkpt>
      <trkpt lat="48.1937918" lon="14.9976013">
        <ele>233.883</ele>
        <time>2019-05-03T08:38:42.096Z</time>
      </trkpt>
      <trkpt lat="48.1937716" lon="14.9978136">
        <ele>233.986</ele>
        <time>2019-05-03T08:38:44.488Z</time>
      </trkpt>
      <trkpt lat="48.1937730" lon="14.9979629">
        <ele>234.393</ele>
        <time>2019-05-03T08:38:46.145Z</time>
      </trkpt>
      <trkpt lat="48.1937763" lon="14.9981374">
        <ele>235.093</ele>
        <time>2019-05-03T08:38:48.136Z</time>
      </trkpt>
      <trkpt lat="48.1937714" lon="14.9983158">
        <ele>235.801</ele>
        <time>2019-05-03T08:38:50.217Z</time>
      </trkpt>
      <trkpt lat="48.1937443" lon="14.9984706">
        <ele>236.178</ele>
        <time>2019-05-03T08:38:52.100Z</time>
      </trkpt>
      <trkpt lat="48.1937324" lon="14.9986192">
        <ele>236.175</ele>
        <time>2019-05-03T08:38:53.859Z</time>
      </trkpt>
      <trkpt lat="48.1937291" lon="14.9988497">
        <ele>236.043</ele>
        <time>2019-05-03T08:38:56.514Z</time>
      </trkpt>
      <trkpt lat="48.1937141" lon="14.9990679">
        <ele>236.003</ele>
        <time>2019-05-03T08:38:58.904Z</time>
      </trkpt>
      <trkpt lat="48.1936983" lon="14.9992671">
        <ele>236.073</ele>
        <time>2019-05-03T08:39:01.018Z</time>
      </trkpt>
      <trkpt lat="48.1936783" lon="14.9994346">
        <ele>236.238</ele>
        <time>2019-05-03T08:39:02.832Z</time>
      </trkpt>
      <trkpt lat="48.1936808" lon="14.9996099">
        <ele>236.514</ele>
        <time>2019-05-03T08:39:04.752Z</time>
      </trkpt>
      <trkpt lat="48.1936565" lon="14.9998195">
        <ele>236.811</ele>
        <time>2019-05-03T08:39:07.191Z</time>
      </trkpt>
      <trkpt lat="48.1936423" lon="14.9999879">
        <ele>236.958</ele>
        <time>2019-05-03T08:39:09.195Z</time>
      </trkpt>
      <trkpt lat="48.1936195" lon="15.0001387">
        <ele>236.876</ele>
        <time>2019-05-03T08:39:11.058Z</time>
      </trkpt>
      <trkpt lat="48.1936127" lon="15.0003210">
        <ele>236.643</ele>
        <time>2019-05-03T08:39:13.311Z</time>
      </trkpt>
      <trkpt lat="48.1935403" lon="15.0004297">
        <ele>236.409</ele>
        <time>2019-05-03T08:39:15.371Z</time>
      </trkpt>
      <trkpt lat="48.1934913" lon="15.0006121">
        <ele>236.264</ele>
        <time>2019-05-03T08:39:18.288Z</time>
      </trkpt>
      <trkpt lat="48.1935542" lon="15.0007156">
        <ele>236.223</ele>
        <time>2019-05-03T08:39:20.632Z</time>
      </trkpt>
      <trkpt lat="48.1935300" lon="15.0008551">
        <ele>236.254</ele>
        <time>2019-05-03T08:39:23.635Z</time>
      </trkpt>
      <trkpt lat="48.1935508" lon="15.0009988">
        <ele>236.280</ele>
        <time>2019-05-03T08:39:28.261Z</time>
      </trkpt>
      <trkpt lat="48.1935343" lon="15.0011739">
        <ele>236.207</ele>
        <time>2019-05-03T08:39:39.999Z</time>
      </trkpt>
      <trkpt lat="48.1935343" lon="15.0011739">
        <ele>236.036</ele>
        <time>2019-05-03T08:39:40.000Z</time>
      </trkpt>
      <trkpt lat="48.1935343" lon="15.0011739">
        <ele>235.879</ele>
        <time>2019-05-03T08:39:40.100Z</time>
      </trkpt>
      <trkpt lat="48.1934997" lon="15.0013745">
        <ele>235.810</ele>
        <time>2019-05-03T08:39:47.351Z</time>
      </trkpt>
      <trkpt lat="48.1934646" lon="15.0015060">
        <ele>235.851</ele>
        <time>2019-05-03T08:39:50.153Z</time>
      </trkpt>
      <trkpt lat="48.1934641" lon="15.0016491">
        <ele>235.992</ele>
        <time>2019-05-03T08:39:52.578Z</time>
      </trkpt>
      <trkpt lat="48.1934585" lon="15.0018480">
        <ele>234.779</ele>
        <time>2019-05-03T08:39:55.719Z</time>
      </trkpt>
      <trkpt lat="48.1934360" lon="15.0019854">
        <ele>230.018</ele>
        <time>2019-05-03T08:39:58.020Z</time>
      </trkpt>
      <trkpt lat="48.1934104" lon="15.0021353">
        <ele>222.507</ele>
        <time>2019-05-03T08:40:00.469Z</time>
      </trkpt>
      <trkpt lat="48.1933519" lon="15.0022715">
        <ele>215.952</ele>
        <time>2019-05-03T08:40:03.201Z</time>
      </trkpt>
      <trkpt lat="48.1933409" lon="15.0024339">
        <ele>215.670</ele>
        <time>2019-05-03T08:40:06.280Z</time>
      </trkpt>
      <trkpt lat="48.1933375" lon="15.0025959">
        <ele>223.269</ele>
        <time>2019-05-03T08:40:09.266Z</time>
      </trkpt>
      <trkpt lat="48.1933241" lon="15.0028028">
        <ele>232.708</ele>
        <time>2019-05-03T08:40:12.869Z</time>
      </trkpt>
      <trkpt lat="48.1933126" lon="15.0029690">
        <ele>237.918</ele>
        <time>2019-05-03T08:40:15.754Z</time>
      </trkpt>
      <trkpt lat="48.1932931" lon="15.0031321">
        <ele>238.969</ele>
        <time>2019-05-03T08:40:18.487Z</time>
      </trkpt>
      <trkpt lat="48.1932703" lon="15.0032723">
        <ele>238.002</ele>
        <time>2019-05-03T08:40:20.796Z</time>
      </trkpt>
      <trkpt lat="48.1932310" lon="15.0034402">
        <ele>236.669</ele>
        <time>2019-05-03T08:40:23.561Z</time>
      </trkpt>
      <trkpt lat="48.1932030" lon="15.0035712">
        <ele>235.556</ele>
        <time>2019-05-03T08:40:25.708Z</time>
      </trkpt>
      <trkpt lat="48.1931878" lon="15.0037570">
        <ele>234.661</ele>
        <time>2019-05-03T08:40:28.697Z</time>
      </trkpt>
      <trkpt lat="48.1931497" lon="15.0038982">
        <ele>233.910</ele>
        <time>2019-05-03T08:40:31.170Z</time>
      </trkpt>
      <trkpt lat="48.1931200" lon="15.0040369">
        <ele>233.253</ele>
        <time>2019-05-03T08:40:33.379Z</time>
      </trkpt>
      <trkpt lat="48.1931058" lon="15.0041753">
        <ele>232.663</ele>
        <time>2019-05-03T08:40:35.522Z</time>
      </trkpt>
      <trkpt lat="48.1930766" lon="15.0043098">
        <ele>232.142</ele>
        <time>2019-05-03T08:40:37.756Z</time>
      </trkpt>
      <trkpt lat="48.1930436" lon="15.0044638">
        <ele>231.684</ele>
        <time>2019-05-03T08:40:40.231Z</time>
      </trkpt>
      <trkpt lat="48.1930184" lon="15.0046372">
        <ele>231.282</ele>
        <time>2019-05-03T08:40:42.727Z</time>
      </trkpt>
      <trkpt lat="48.1929632" lon="15.0047704">
        <ele>230.938</ele>
        <time>2019-05-03T08:40:44.903Z</time>
      </trkpt>
      <trkpt lat="48.1929256" lon="15.0049082">
        <ele>230.673</ele>
        <time>2019-05-03T08:40:46.962Z</time>
      </trkpt>
      <trkpt lat="48.1928932" lon="15.0051045">
        <ele>230.502</ele>
        <time>2019-05-03T08:40:49.747Z</time>
      </trkpt>
      <trkpt lat="48.1928503" lon="15.0052970">
        <ele>230.414</ele>
        <time>2019-05-03T08:40:52.601Z</time>
      </trkpt>
      <trkpt lat="48.1928118" lon="15.0054538">
        <ele>230.375</ele>
        <time>2019-05-03T08:40:55.009Z</time>
      </trkpt>
      <trkpt lat="48.1927763" lon="15.0055779">
        <ele>230.361</ele>
        <time>2019-05-03T08:40:56.914Z</time>
      </trkpt>
      <trkpt lat="48.1927453" lon="15.0057523">
        <ele>230.381</ele>
        <time>2019-05-03T08:40:59.392Z</time>
      </trkpt>
      <trkpt lat="48.1927135" lon="15.0059180">
        <ele>230.466</ele>
        <time>2019-05-03T08:41:01.714Z</time>
      </trkpt>
      <trkpt lat="48.1927162" lon="15.0060698">
        <ele>230.614</ele>
        <time>2019-05-03T08:41:03.693Z</time>
      </trkpt>
      <trkpt lat="48.1926900" lon="15.0062045">
        <ele>230.757</ele>
        <time>2019-05-03T08:41:05.514Z</time>
      </trkpt>
      <trkpt lat="48.1926540" lon="15.0063654">
        <ele>230.816</ele>
        <time>2019-05-03T08:41:07.891Z</time>
      </trkpt>
      <trkpt lat="48.1926124" lon="15.0065352">
        <ele>230.760</ele>
        <time>2019-05-03T08:41:10.808Z</time>
      </trkpt>
      <trkpt lat="48.1925748" lon="15.0067236">
        <ele>230.619</ele>
        <time>2019-05-03T08:41:13.744Z</time>
      </trkpt>
      <trkpt lat="48.1925409" lon="15.0068621">
        <ele>230.458</ele>
        <time>2019-05-03T08:41:15.783Z</time>
      </trkpt>
      <trkpt lat="48.1925028" lon="15.0070252">
        <ele>230.337</ele>
        <time>2019-05-03T08:41:18.168Z</time>
      </trkpt>
      <trkpt lat="48.1924569" lon="15.0071800">
        <ele>230.265</ele>
        <time>2019-05-03T08:41:20.730Z</time>
      </trkpt>
      <trkpt lat="48.1924306" lon="15.0073404">
        <ele>230.210</ele>
        <time>2019-05-03T08:41:23.231Z</time>
      </trkpt>
      <trkpt lat="48.1924211" lon="15.0074969">
        <ele>230.155</ele>
        <time>2019-05-03T08:41:25.546Z</time>
      </trkpt>
      <trkpt lat="48.1923909" lon="15.0076827">
        <ele>230.118</ele>
        <time>2019-05-03T08:41:28.746Z</time>
      </trkpt>
      <trkpt lat="48.1923519" lon="15.0078635">
        <ele>230.111</ele>
        <time>2019-05-03T08:41:32.389Z</time>
      </trkpt>
      <trkpt lat="48.1923071" lon="15.0079889">
        <ele>230.122</ele>
        <time>2019-05-03T08:41:34.932Z</time>
      </trkpt>
      <trkpt lat="48.1923004" lon="15.0081775">
        <ele>230.149</ele>
        <time>2019-05-03T08:41:38.457Z</time>
      </trkpt>
      <trkpt lat="48.1922824" lon="15.0083301">
        <ele>230.223</ele>
        <time>2019-05-03T08:41:41.627Z</time>
      </trkpt>
      <trkpt lat="48.1922692" lon="15.0084914">
        <ele>230.354</ele>
        <time>2019-05-03T08:41:44.646Z</time>
      </trkpt>
      <trkpt lat="48.1922561" lon="15.0086587">
        <ele>230.485</ele>
        <time>2019-05-03T08:41:47.687Z</time>
      </trkpt>
      <trkpt lat="48.1922169" lon="15.0088160">
        <ele>230.567</ele>
        <time>2019-05-03T08:41:50.945Z</time>
      </trkpt>
      <trkpt lat="48.1921709" lon="15.0089857">
        <ele>230.611</ele>
        <time>2019-05-03T08:41:54.428Z</time>
      </trkpt>
      <trkpt lat="48.1921355" lon="15.0091544">
        <ele>230.627</ele>
        <time>2019-05-03T08:41:57.477Z</time>
      </trkpt>
      <trkpt lat="48.1921302" lon="15.0093194">
        <ele>230.612</ele>
        <time>2019-05-03T08:42:00.075Z</time>
      </trkpt>
      <trkpt lat="48.1920996" lon="15.0094538">
        <ele>230.560</ele>
        <time>2019-05-03T08:42:02.338Z</time>
      </trkpt>
      <trkpt lat="48.1920671" lon="15.0096210">
        <ele>230.477</ele>
        <time>2019-05-03T08:42:05.252Z</time>
      </trkpt>
      <trkpt lat="48.1920375" lon="15.0097483">
        <ele>230.399</ele>
        <time>2019-05-03T08:42:07.499Z</time>
      </trkpt>
      <trkpt lat="48.1920112" lon="15.0099070">
        <ele>230.367</ele>
        <time>2019-05-03T08:42:09.958Z</time>
      </trkpt>
      <trkpt lat="48.1919835" lon="15.0100987">
        <ele>230.398</ele>
        <time>2019-05-03T08:42:12.673Z</time>
      </trkpt>
      <trkpt lat="48.1919238" lon="15.0102489">
        <ele>230.465</ele>
        <time>2019-05-03T08:42:15.109Z</time>
      </trkpt>
      <trkpt lat="48.1918851" lon="15.0103933">
        <ele>230.522</ele>
        <time>2019-05-03T08:42:17.303Z</time>
      </trkpt>
      <trkpt lat="48.1918433" lon="15.0105390">
        <ele>230.547</ele>
        <time>2019-05-03T08:42:19.550Z</time>
      </trkpt>
      <trkpt lat="48.1918131" lon="15.0106876">
        <ele>230.540</ele>
        <time>2019-05-03T08:42:21.805Z</time>
      </trkpt>
      <trkpt lat="48.1917602" lon="15.0108877">
        <ele>230.497</ele>
        <time>2019-05-03T08:42:25.092Z</time>
      </trkpt>
      <trkpt lat="48.1917251" lon="15.0110382">
        <ele>230.436</ele>
        <time>2019-05-03T08:42:27.452Z</time>
      </trkpt>
      <trkpt lat="48.1916753" lon="15.0112228">
        <ele>230.403</ele>
        <time>2019-05-03T08:42:30.236Z</time>
      </trkpt>
      <trkpt lat="48.1916353" lon="15.0113868">
        <ele>230.435</ele>
        <time>2019-05-03T08:42:32.563Z</time>
      </trkpt>
      <trkpt lat="48.1916147" lon="15.0115600">
        <ele>230.567</ele>
        <time>2019-05-03T08:42:34.840Z</time>
      </trkpt>
      <trkpt lat="48.1915780" lon="15.0117506">
        <ele>230.555</ele>
        <time>2019-05-03T08:42:37.455Z</time>
      </trkpt>
      <trkpt lat="48.1915524" lon="15.0119228">
        <ele>230.478</ele>
        <time>2019-05-03T08:42:39.869Z</time>
      </trkpt>
      <trkpt lat="48.1915274" lon="15.0120855">
        <ele>230.361</ele>
        <time>2019-05-03T08:42:42.196Z</time>
      </trkpt>
      <trkpt lat="48.1915125" lon="15.0122306">
        <ele>230.196</ele>
        <time>2019-05-03T08:42:44.173Z</time>
      </trkpt>
      <trkpt lat="48.1915056" lon="15.0123758">
        <ele>229.873</ele>
        <time>2019-05-03T08:42:46.073Z</time>
      </trkpt>
      <trkpt lat="48.1915123" lon="15.0125765">
        <ele>229.746</ele>
        <time>2019-05-03T08:42:48.618Z</time>
      </trkpt>
      <trkpt lat="48.1915004" lon="15.0127453">
        <ele>229.596</ele>
        <time>2019-05-03T08:42:50.737Z</time>
      </trkpt>
      <trkpt lat="48.1914829" lon="15.0128871">
        <ele>229.424</ele>
        <time>2019-05-03T08:42:52.552Z</time>
      </trkpt>
      <trkpt lat="48.1914784" lon="15.0130454">
        <ele>229.241</ele>
        <time>2019-05-03T08:42:54.585Z</time>
      </trkpt>
      <trkpt lat="48.1914899" lon="15.0132104">
        <ele>229.057</ele>
        <time>2019-05-03T08:42:56.728Z</time>
      </trkpt>
      <trkpt lat="48.1914933" lon="15.0133635">
        <ele>228.887</ele>
        <time>2019-05-03T08:42:58.731Z</time>
      </trkpt>
      <trkpt lat="48.1914791" lon="15.0135569">
        <ele>228.742</ele>
        <time>2019-05-03T08:43:01.334Z</time>
      </trkpt>
      <trkpt lat="48.1914648" lon="15.0137074">
        <ele>228.620</ele>
        <time>2019-05-03T08:43:03.326Z</time>
      </trkpt>
      <trkpt lat="48.1914480" lon="15.0138938">
        <ele>228.515</ele>
        <time>2019-05-03T08:43:05.684Z</time>
      </trkpt>
      <trkpt lat="48.1914355" lon="15.0140589">
        <ele>228.413</ele>
        <time>2019-05-03T08:43:07.772Z</time>
      </trkpt>
      <trkpt lat="48.1914277" lon="15.0142084">
        <ele>228.282</ele>
        <time>2019-05-03T08:43:09.680Z</time>
      </trkpt>
      <trkpt lat="48.1914317" lon="15.0143719">
        <ele>228.117</ele>
        <time>2019-05-03T08:43:11.807Z</time>
      </trkpt>
      <trkpt lat="48.1914354" lon="15.0145166">
        <ele>227.948</ele>
        <time>2019-05-03T08:43:13.685Z</time>
      </trkpt>
      <trkpt lat="48.1914329" lon="15.0146903">
        <ele>227.802</ele>
        <time>2019-05-03T08:43:15.944Z</time>
      </trkpt>
      <trkpt lat="48.1914182" lon="15.0149068">
        <ele>227.685</ele>
        <time>2019-05-03T08:43:18.872Z</time>
      </trkpt>
      <trkpt lat="48.1914269" lon="15.0150700">
        <ele>227.586</ele>
        <time>2019-05-03T08:43:21.112Z</time>
      </trkpt>
      <trkpt lat="48.1914338" lon="15.0152073">
        <ele>227.504</ele>
        <time>2019-05-03T08:43:22.946Z</time>
      </trkpt>
      <trkpt lat="48.1914278" lon="15.0153574">
        <ele>227.447</ele>
        <time>2019-05-03T08:43:24.870Z</time>
      </trkpt>
      <trkpt lat="48.1913726" lon="15.0155392">
        <ele>227.410</ele>
        <time>2019-05-03T08:43:27.360Z</time>
      </trkpt>
      <trkpt lat="48.1913476" lon="15.0156716">
        <ele>227.376</ele>
        <time>2019-05-03T08:43:28.992Z</time>
      </trkpt>
      <trkpt lat="48.1913198" lon="15.0158091">
        <ele>227.334</ele>
        <time>2019-05-03T08:43:30.621Z</time>
      </trkpt>
      <trkpt lat="48.1912986" lon="15.0159482">
        <ele>227.298</ele>
        <time>2019-05-03T08:43:32.214Z</time>
      </trkpt>
      <trkpt lat="48.1913024" lon="15.0161083">
        <ele>227.281</ele>
        <time>2019-05-03T08:43:33.985Z</time>
      </trkpt>
      <trkpt lat="48.1913107" lon="15.0162548">
        <ele>227.279</ele>
        <time>2019-05-03T08:43:35.622Z</time>
      </trkpt>
      <trkpt lat="48.1913375" lon="15.0164538">
        <ele>227.282</ele>
        <time>2019-05-03T08:43:37.990Z</time>
      </trkpt>
      <trkpt lat="48.1913317" lon="15.0166107">
        <ele>227.285</ele>
        <time>2019-05-03T08:43:39.916Z</time>
      </trkpt>
      <trkpt lat="48.1913388" lon="15.0167660">
        <ele>227.287</ele>
        <time>2019-05-03T08:43:41.883Z</time>
      </trkpt>
      <trkpt lat="48.1913556" lon="15.0169260">
        <ele>227.287</ele>
        <time>2019-05-03T08:43:43.944Z</time>
      </trkpt>
      <trkpt lat="48.1913657" lon="15.0170676">
        <ele>227.286</ele>
        <time>2019-05-03T08:43:45.714Z</time>
      </trkpt>
      <trkpt lat="48.1913602" lon="15.0172414">
        <ele>227.286</ele>
        <time>2019-05-03T08:43:47.802Z</time>
      </trkpt>
      <trkpt lat="48.1913702" lon="15.0174081">
        <ele>227.286</ele>
        <time>2019-05-03T08:43:49.770Z</time>
      </trkpt>
      <trkpt lat="48.1913897" lon="15.0175559">
        <ele>227.286</ele>
        <time>2019-05-03T08:43:51.559Z</time>
      </trkpt>
      <trkpt lat="48.1913783" lon="15.0177307">
        <ele>227.286</ele>
        <time>2019-05-03T08:43:53.704Z</time>
      </trkpt>
      <trkpt lat="48.1913628" lon="15.0178855">
        <ele>227.286</ele>
        <time>2019-05-03T08:43:55.605Z</time>
      </trkpt>
      <trkpt lat="48.1913314" lon="15.0180684">
        <ele>227.286</ele>
        <time>2019-05-03T08:43:57.820Z</time>
      </trkpt>
      <trkpt lat="48.1913213" lon="15.0182228">
        <ele>227.286</ele>
        <time>2019-05-03T08:43:59.584Z</time>
      </trkpt>
      <trkpt lat="48.1913120" lon="15.0183901">
        <ele>227.286</ele>
        <time>2019-05-03T08:44:01.474Z</time>
      </trkpt>
      <trkpt lat="48.1913144" lon="15.0185330">
        <ele>227.286</ele>
        <time>2019-05-03T08:44:03.115Z</time>
      </trkpt>
      <trkpt lat="48.1913273" lon="15.0186998">
        <ele>227.289</ele>
        <time>2019-05-03T08:44:05.093Z</time>
      </trkpt>
      <trkpt lat="48.1913326" lon="15.0188637">
        <ele>227.306</ele>
        <time>2019-05-03T08:44:07.021Z</time>
      </trkpt>
      <trkpt lat="48.1913599" lon="15.0190395">
        <ele>227.342</ele>
        <time>2019-05-03T08:44:09.073Z</time>
      </trkpt>
      <trkpt lat="48.1913606" lon="15.0192134">
        <ele>227.388</ele>
        <time>2019-05-03T08:44:11.037Z</time>
      </trkpt>
      <trkpt lat="48.1913721" lon="15.0193701">
        <ele>227.425</ele>
        <time>2019-05-03T08:44:12.849Z</time>
      </trkpt>
      <trkpt lat="48.1913889" lon="15.0195184">
        <ele>227.443</ele>
        <time>2019-05-03T08:44:14.603Z</time>
      </trkpt>
      <trkpt lat="48.1913983" lon="15.0196800">
        <ele>227.442</ele>
        <time>2019-05-03T08:44:16.532Z</time>
      </trkpt>
      <trkpt lat="48.1914227" lon="15.0198323">
        <ele>227.428</ele>
        <time>2019-05-03T08:44:18.455Z</time>
      </trkpt>
      <trkpt lat="48.1914495" lon="15.0199825">
        <ele>227.408</ele>
        <time>2019-05-03T08:44:20.419Z</time>
      </trkpt>
      <trkpt lat="48.1914533" lon="15.0201354">
        <ele>227.408</ele>
        <time>2019-05-03T08:44:22.353Z</time>
      </trkpt>
      <trkpt lat="48.1914572" lon="15.0203048">
        <ele>227.462</ele>
        <time>2019-05-03T08:44:24.400Z</time>
      </trkpt>
      <trkpt lat="48.1914520" lon="15.0204884">
        <ele>227.579</ele>
        <time>2019-05-03T08:44:26.523Z</time>
      </trkpt>
      <trkpt lat="48.1914486" lon="15.0206771">
        <ele>227.725</ele>
        <time>2019-05-03T08:44:28.743Z</time>
      </trkpt>
      <trkpt lat="48.1914323" lon="15.0208709">
        <ele>227.863</ele>
        <time>2019-05-03T08:44:31.132Z</time>
      </trkpt>
      <trkpt lat="48.1914220" lon="15.0210668">
        <ele>228.015</ele>
        <time>2019-05-03T08:44:33.622Z</time>
      </trkpt>
      <trkpt lat="48.1914301" lon="15.0212120">
        <ele>228.314</ele>
        <time>2019-05-03T08:44:35.407Z</time>
      </trkpt>
      <trkpt lat="48.1914471" lon="15.0214400">
        <ele>228.844</ele>
        <time>2019-05-03T08:44:38.084Z</time>
      </trkpt>
      <trkpt lat="48.1914578" lon="15.0216385">
        <ele>229.574</ele>
        <time>2019-05-03T08:44:40.404Z</time>
      </trkpt>
      <trkpt lat="48.1914783" lon="15.0217825">
        <ele>230.427</ele>
        <time>2019-05-03T08:44:42.099Z</time>
      </trkpt>
      <trkpt lat="48.1915032" lon="15.0219452">
        <ele>231.311</ele>
        <time>2019-05-03T08:44:43.939Z</time>
      </trkpt>
      <trkpt lat="48.1915541" lon="15.0221069">
        <ele>232.131</ele>
        <time>2019-05-03T08:44:46.024Z</time>
      </trkpt>
      <trkpt lat="48.1915794" lon="15.0222465">
        <ele>232.829</ele>
        <time>2019-05-03T08:44:47.925Z</time>
      </trkpt>
      <trkpt lat="48.1916032" lon="15.0223801">
        <ele>233.350</ele>
        <time>2019-05-03T08:44:49.777Z</time>
      </trkpt>
      <trkpt lat="48.1916315" lon="15.0225313">
        <ele>233.666</ele>
        <time>2019-05-03T08:44:51.855Z</time>
      </trkpt>
      <trkpt lat="48.1916615" lon="15.0226816">
        <ele>233.833</ele>
        <time>2019-05-03T08:44:53.971Z</time>
      </trkpt>
      <trkpt lat="48.1916982" lon="15.0228402">
        <ele>233.949</ele>
        <time>2019-05-03T08:44:56.253Z</time>
      </trkpt>
      <trkpt lat="48.1917286" lon="15.0229947">
        <ele>234.069</ele>
        <time>2019-05-03T08:44:58.341Z</time>
      </trkpt>
      <trkpt lat="48.1917623" lon="15.0231579">
        <ele>234.235</ele>
        <time>2019-05-03T08:45:00.465Z</time>
      </trkpt>
      <trkpt lat="48.1917991" lon="15.0233145">
        <ele>234.517</ele>
        <time>2019-05-03T08:45:02.528Z</time>
      </trkpt>
      <trkpt lat="48.1918453" lon="15.0234928">
        <ele>234.941</ele>
        <time>2019-05-03T08:45:04.979Z</time>
      </trkpt>
      <trkpt lat="48.1918831" lon="15.0236444">
        <ele>235.431</ele>
        <time>2019-05-03T08:45:07.089Z</time>
      </trkpt>
      <trkpt lat="48.1919195" lon="15.0237802">
        <ele>235.860</ele>
        <time>2019-05-03T08:45:09.032Z</time>
      </trkpt>
      <trkpt lat="48.1919584" lon="15.0239405">
        <ele>236.149</ele>
        <time>2019-05-03T08:45:11.420Z</time>
      </trkpt>
      <trkpt lat="48.1919936" lon="15.0240719">
        <ele>236.303</ele>
        <time>2019-05-03T08:45:13.533Z</time>
      </trkpt>
      <trkpt lat="48.1920256" lon="15.0242206">
        <ele>236.398</ele>
        <time>2019-05-03T08:45:15.947Z</time>
      </trkpt>
      <trkpt lat="48.1920480" lon="15.0243664">
        <ele>236.517</ele>
        <time>2019-05-03T08:45:18.085Z</time>
      </trkpt>
      <trkpt lat="48.1920597" lon="15.0245034">
        <ele>236.704</ele>
        <time>2019-05-03T08:45:19.921Z</time>
      </trkpt>
      <trkpt lat="48.1920801" lon="15.0246610">
        <ele>236.986</ele>
        <time>2019-05-03T08:45:22.014Z</time>
      </trkpt>
      <trkpt lat="48.1920929" lon="15.0248147">
        <ele>237.399</ele>
        <time>2019-05-03T08:45:24.021Z</time>
      </trkpt>
      <trkpt lat="48.1920961" lon="15.0249718">
        <ele>237.953</ele>
        <time>2019-05-03T08:45:26.042Z</time>
      </trkpt>
      <trkpt lat="48.1921224" lon="15.0251181">
        <ele>238.541</ele>
        <time>2019-05-03T08:45:27.969Z</time>
      </trkpt>
      <trkpt lat="48.1921583" lon="15.0252703">
        <ele>239.110</ele>
        <time>2019-05-03T08:45:30.068Z</time>
      </trkpt>
      <trkpt lat="48.1921855" lon="15.0254350">
        <ele>239.884</ele>
        <time>2019-05-03T08:45:32.352Z</time>
      </trkpt>
      <trkpt lat="48.1922298" lon="15.0255725">
        <ele>240.987</ele>
        <time>2019-05-03T08:45:34.345Z</time>
      </trkpt>
      <trkpt lat="48.1922714" lon="15.0257186">
        <ele>242.066</ele>
        <time>2019-05-03T08:45:36.328Z</time>
      </trkpt>
      <trkpt lat="48.1923343" lon="15.0258870">
        <ele>242.692</ele>
        <time>2019-05-03T08:45:38.713Z</time>
      </trkpt>
      <trkpt lat="48.1923904" lon="15.0260448">
        <ele>242.794</ele>
        <time>2019-05-03T08:45:41.029Z</time>
      </trkpt>
      <trkpt lat="48.1924075" lon="15.0262066">
        <ele>242.562</ele>
        <time>2019-05-03T08:45:43.271Z</time>
      </trkpt>
      <trkpt lat="48.1924361" lon="15.0263641">
        <ele>242.080</ele>
        <time>2019-05-03T08:45:45.536Z</time>
      </trkpt>
      <trkpt lat="48.1924652" lon="15.0265229">
        <ele>241.229</ele>
        <time>2019-05-03T08:45:47.814Z</time>
      </trkpt>
      <trkpt lat="48.1924990" lon="15.0266737">
        <ele>239.992</ele>
        <time>2019-05-03T08:45:49.951Z</time>
      </trkpt>
      <trkpt lat="48.1925302" lon="15.0268192">
        <ele>238.649</ele>
        <time>2019-05-03T08:45:51.914Z</time>
      </trkpt>
      <trkpt lat="48.1925582" lon="15.0269857">
        <ele>237.510</ele>
        <time>2019-05-03T08:45:54.175Z</time>
      </trkpt>
      <trkpt lat="48.1925731" lon="15.0271379">
        <ele>236.684</ele>
        <time>2019-05-03T08:45:56.327Z</time>
      </trkpt>
      <trkpt lat="48.1925906" lon="15.0272896">
        <ele>236.122</ele>
        <time>2019-05-03T08:45:58.570Z</time>
      </trkpt>
      <trkpt lat="48.1926154" lon="15.0274500">
        <ele>235.757</ele>
        <time>2019-05-03T08:46:00.951Z</time>
      </trkpt>
      <trkpt lat="48.1926392" lon="15.0275978">
        <ele>235.559</ele>
        <time>2019-05-03T08:46:03.042Z</time>
      </trkpt>
      <trkpt lat="48.1926729" lon="15.0277388">
        <ele>235.495</ele>
        <time>2019-05-03T08:46:05.038Z</time>
      </trkpt>
      <trkpt lat="48.1926926" lon="15.0278835">
        <ele>235.503</ele>
        <time>2019-05-03T08:46:06.999Z</time>
      </trkpt>
      <trkpt lat="48.1926972" lon="15.0280362">
        <ele>235.528</ele>
        <time>2019-05-03T08:46:09.000Z</time>
      </trkpt>
      <trkpt lat="48.1927134" lon="15.0281903">
        <ele>235.544</ele>
        <time>2019-05-03T08:46:10.985Z</time>
      </trkpt>
      <trkpt lat="48.1927371" lon="15.0283672">
        <ele>235.573</ele>
        <time>2019-05-03T08:46:13.297Z</time>
      </trkpt>
      <trkpt lat="48.1927613" lon="15.0285167">
        <ele>235.662</ele>
        <time>2019-05-03T08:46:15.341Z</time>
      </trkpt>
      <trkpt lat="48.1927861" lon="15.0286926">
        <ele>235.802</ele>
        <time>2019-05-03T08:46:17.804Z</time>
      </trkpt>
      <trkpt lat="48.1928083" lon="15.0288713">
        <ele>235.923</ele>
        <time>2019-05-03T08:46:20.342Z</time>
      </trkpt>
      <trkpt lat="48.1928327" lon="15.0290330">
        <ele>235.978</ele>
        <time>2019-05-03T08:46:22.692Z</time>
      </trkpt>
      <trkpt lat="48.1928649" lon="15.0291712">
        <ele>235.979</ele>
        <time>2019-05-03T08:46:24.741Z</time>
      </trkpt>
      <trkpt lat="48.1928986" lon="15.0293768">
        <ele>235.966</ele>
        <time>2019-05-03T08:46:27.650Z</time>
      </trkpt>
      <trkpt lat="48.1929356" lon="15.0295141">
        <ele>235.967</ele>
        <time>2019-05-03T08:46:29.653Z</time>
      </trkpt>
      <trkpt lat="48.1929880" lon="15.0296472">
        <ele>235.981</ele>
        <time>2019-05-03T08:46:31.734Z</time>
      </trkpt>
      <trkpt lat="48.1930275" lon="15.0298089">
        <ele>235.992</ele>
        <time>2019-05-03T08:46:34.040Z</time>
      </trkpt>
      <trkpt lat="48.1930665" lon="15.0299519">
        <ele>235.942</ele>
        <time>2019-05-03T08:46:36.156Z</time>
      </trkpt>
      <trkpt lat="48.1930883" lon="15.0300946">
        <ele>235.733</ele>
        <time>2019-05-03T08:46:38.209Z</time>
      </trkpt>
      <trkpt lat="48.1931210" lon="15.0302964">
        <ele>235.339</ele>
        <time>2019-05-03T08:46:41.108Z</time>
      </trkpt>
      <trkpt lat="48.1931121" lon="15.0304662">
        <ele>234.841</ele>
        <time>2019-05-03T08:46:43.465Z</time>
      </trkpt>
      <trkpt lat="48.1931132" lon="15.0306255">
        <ele>234.400</ele>
        <time>2019-05-03T08:46:45.603Z</time>
      </trkpt>
      <trkpt lat="48.1931072" lon="15.0307878">
        <ele>234.164</ele>
        <time>2019-05-03T08:46:47.747Z</time>
      </trkpt>
      <trkpt lat="48.1931356" lon="15.0309339">
        <ele>234.172</ele>
        <time>2019-05-03T08:46:49.768Z</time>
      </trkpt>
      <trkpt lat="48.1931533" lon="15.0310846">
        <ele>234.363</ele>
        <time>2019-05-03T08:46:51.840Z</time>
      </trkpt>
      <trkpt lat="48.1931836" lon="15.0312351">
        <ele>234.614</ele>
        <time>2019-05-03T08:46:54.096Z</time>
      </trkpt>
      <trkpt lat="48.1931946" lon="15.0314229">
        <ele>234.778</ele>
        <time>2019-05-03T08:46:56.844Z</time>
      </trkpt>
      <trkpt lat="48.1932195" lon="15.0315852">
        <ele>234.785</ele>
        <time>2019-05-03T08:46:59.189Z</time>
      </trkpt>
      <trkpt lat="48.1932407" lon="15.0317376">
        <ele>234.669</ele>
        <time>2019-05-03T08:47:01.433Z</time>
      </trkpt>
      <trkpt lat="48.1932733" lon="15.0318788">
        <ele>234.531</ele>
        <time>2019-05-03T08:47:03.690Z</time>
      </trkpt>
      <trkpt lat="48.1932924" lon="15.0320153">
        <ele>234.451</ele>
        <time>2019-05-03T08:47:05.744Z</time>
      </trkpt>
      <trkpt lat="48.1932956" lon="15.0321657">
        <ele>234.411</ele>
        <time>2019-05-03T08:47:07.876Z</time>
      </trkpt>
      <trkpt lat="48.1933195" lon="15.0323216">
        <ele>234.366</ele>
        <time>2019-05-03T08:47:10.110Z</time>
      </trkpt>
      <trkpt lat="48.1933411" lon="15.0325037">
        <ele>234.313</ele>
        <time>2019-05-03T08:47:12.691Z</time>
      </trkpt>
      <trkpt lat="48.1933500" lon="15.0326501">
        <ele>234.217</ele>
        <time>2019-05-03T08:47:14.717Z</time>
      </trkpt>
      <trkpt lat="48.1934098" lon="15.0328372">
        <ele>233.971</ele>
        <time>2019-05-03T08:47:17.531Z</time>
      </trkpt>
      <trkpt lat="48.1934424" lon="15.0329869">
        <ele>233.480</ele>
        <time>2019-05-03T08:47:19.641Z</time>
      </trkpt>
      <trkpt lat="48.1934585" lon="15.0331640">
        <ele>232.765</ele>
        <time>2019-05-03T08:47:21.972Z</time>
      </trkpt>
      <trkpt lat="48.1934742" lon="15.0333060">
        <ele>231.964</ele>
        <time>2019-05-03T08:47:23.807Z</time>
      </trkpt>
      <trkpt lat="48.1934995" lon="15.0334664">
        <ele>231.242</ele>
        <time>2019-05-03T08:47:25.914Z</time>
      </trkpt>
      <trkpt lat="48.1935389" lon="15.0335973">
        <ele>230.716</ele>
        <time>2019-05-03T08:47:27.817Z</time>
      </trkpt>
      <trkpt lat="48.1935564" lon="15.0337431">
        <ele>230.403</ele>
        <time>2019-05-03T08:47:29.812Z</time>
      </trkpt>
      <trkpt lat="48.1935973" lon="15.0338906">
        <ele>230.199</ele>
        <time>2019-05-03T08:47:32.003Z</time>
      </trkpt>
      <trkpt lat="48.1936286" lon="15.0340581">
        <ele>229.986</ele>
        <time>2019-05-03T08:47:34.331Z</time>
      </trkpt>
      <trkpt lat="48.1936497" lon="15.0342353">
        <ele>229.711</ele>
        <time>2019-05-03T08:47:36.673Z</time>
      </trkpt>
      <trkpt lat="48.1936715" lon="15.0343864">
        <ele>229.398</ele>
        <time>2019-05-03T08:47:38.691Z</time>
      </trkpt>
      <trkpt lat="48.1937018" lon="15.0346038">
        <ele>229.122</ele>
        <time>2019-05-03T08:47:41.628Z</time>
      </trkpt>
      <trkpt lat="48.1937343" lon="15.0347846">
        <ele>228.927</ele>
        <time>2019-05-03T08:47:44.104Z</time>
      </trkpt>
      <trkpt lat="48.1937620" lon="15.0349319">
        <ele>228.809</ele>
        <time>2019-05-03T08:47:46.039Z</time>
      </trkpt>
      <trkpt lat="48.1937779" lon="15.0350932">
        <ele>228.756</ele>
        <time>2019-05-03T08:47:47.997Z</time>
      </trkpt>
      <trkpt lat="48.1938031" lon="15.0352619">
        <ele>228.751</ele>
        <time>2019-05-03T08:47:50.083Z</time>
      </trkpt>
      <trkpt lat="48.1938515" lon="15.0354424">
        <ele>228.766</ele>
        <time>2019-05-03T08:47:52.423Z</time>
      </trkpt>
      <trkpt lat="48.1938954" lon="15.0355845">
        <ele>228.815</ele>
        <time>2019-05-03T08:47:54.268Z</time>
      </trkpt>
      <trkpt lat="48.1939507" lon="15.0357315">
        <ele>228.911</ele>
        <time>2019-05-03T08:47:56.247Z</time>
      </trkpt>
      <trkpt lat="48.1940348" lon="15.0358607">
        <ele>229.012</ele>
        <time>2019-05-03T08:47:58.339Z</time>
      </trkpt>
      <trkpt lat="48.1940945" lon="15.0360094">
        <ele>229.090</ele>
        <time>2019-05-03T08:48:00.358Z</time>
      </trkpt>
      <trkpt lat="48.1941504" lon="15.0361359">
        <ele>229.158</ele>
        <time>2019-05-03T08:48:02.170Z</time>
      </trkpt>
      <trkpt lat="48.1941839" lon="15.0363256">
        <ele>229.197</ele>
        <time>2019-05-03T08:48:04.646Z</time>
      </trkpt>
      <trkpt lat="48.1942153" lon="15.0364986">
        <ele>229.147</ele>
        <time>2019-05-03T08:48:06.983Z</time>
      </trkpt>
      <trkpt lat="48.1942336" lon="15.0366675">
        <ele>228.967</ele>
        <time>2019-05-03T08:48:09.204Z</time>
      </trkpt>
      <trkpt lat="48.1942493" lon="15.0368504">
        <ele>228.725</ele>
        <time>2019-05-03T08:48:11.565Z</time>
      </trkpt>
      <trkpt lat="48.1942638" lon="15.0370298">
        <ele>228.569</ele>
        <time>2019-05-03T08:48:13.828Z</time>
      </trkpt>
      <trkpt lat="48.1942957" lon="15.0371691">
        <ele>228.659</ele>
        <time>2019-05-03T08:48:15.585Z</time>
      </trkpt>
      <trkpt lat="48.1943323" lon="15.0373299">
        <ele>229.121</ele>
        <time>2019-05-03T08:48:17.535Z</time>
      </trkpt>
      <trkpt lat="48.1943420" lon="15.0374742">
        <ele>229.910</ele>
        <time>2019-05-03T08:48:19.179Z</time>
      </trkpt>
      <trkpt lat="48.1943722" lon="15.0376154">
        <ele>230.802</ele>
        <time>2019-05-03T08:48:20.847Z</time>
      </trkpt>
      <trkpt lat="48.1944044" lon="15.0377486">
        <ele>231.626</ele>
        <time>2019-05-03T08:48:22.422Z</time>
      </trkpt>
      <trkpt lat="48.1944729" lon="15.0379106">
        <ele>232.343</ele>
        <time>2019-05-03T08:48:24.504Z</time>
      </trkpt>
      <trkpt lat="48.1945158" lon="15.0380833">
        <ele>232.954</ele>
        <time>2019-05-03T08:48:26.480Z</time>
      </trkpt>
      <trkpt lat="48.1945563" lon="15.0382519">
        <ele>233.459</ele>
        <time>2019-05-03T08:48:28.399Z</time>
      </trkpt>
      <trkpt lat="48.1945876" lon="15.0384204">
        <ele>233.922</ele>
        <time>2019-05-03T08:48:30.321Z</time>
      </trkpt>
      <trkpt lat="48.1946559" lon="15.0385626">
        <ele>234.419</ele>
        <time>2019-05-03T08:48:32.305Z</time>
      </trkpt>
      <trkpt lat="48.1947115" lon="15.0387097">
        <ele>234.896</ele>
        <time>2019-05-03T08:48:34.226Z</time>
      </trkpt>
      <trkpt lat="48.1947750" lon="15.0388734">
        <ele>235.215</ele>
        <time>2019-05-03T08:48:36.356Z</time>
      </trkpt>
      <trkpt lat="48.1948454" lon="15.0390149">
        <ele>235.273</ele>
        <time>2019-05-03T08:48:38.267Z</time>
      </trkpt>
      <trkpt lat="48.1948910" lon="15.0391671">
        <ele>235.077</ele>
        <time>2019-05-03T08:48:40.024Z</time>
      </trkpt>
      <trkpt lat="48.1949513" lon="15.0393455">
        <ele>234.740</ele>
        <time>2019-05-03T08:48:42.186Z</time>
      </trkpt>
      <trkpt lat="48.1950228" lon="15.0395453">
        <ele>234.354</ele>
        <time>2019-05-03T08:48:44.762Z</time>
      </trkpt>
      <trkpt lat="48.1950839" lon="15.0396719">
        <ele>233.929</ele>
        <time>2019-05-03T08:48:46.600Z</time>
      </trkpt>
      <trkpt lat="48.1951466" lon="15.0398147">
        <ele>233.455</ele>
        <time>2019-05-03T08:48:48.606Z</time>
      </trkpt>
      <trkpt lat="48.1952289" lon="15.0399709">
        <ele>232.931</ele>
        <time>2019-05-03T08:48:50.872Z</time>
      </trkpt>
      <trkpt lat="48.1952841" lon="15.0401308">
        <ele>232.422</ele>
        <time>2019-05-03T08:48:52.904Z</time>
      </trkpt>
      <trkpt lat="48.1953386" lon="15.0402927">
        <ele>231.946</ele>
        <time>2019-05-03T08:48:54.940Z</time>
      </trkpt>
      <trkpt lat="48.1953474" lon="15.0404434">
        <ele>231.407</ele>
        <time>2019-05-03T08:48:56.612Z</time>
      </trkpt>
      <trkpt lat="48.1953486" lon="15.0406182">
        <ele>230.757</ele>
        <time>2019-05-03T08:48:58.512Z</time>
      </trkpt>
      <trkpt lat="48.1953597" lon="15.0407893">
        <ele>230.104</ele>
        <time>2019-05-03T08:49:00.357Z</time>
      </trkpt>
      <trkpt lat="48.1953743" lon="15.0409445">
        <ele>229.622</ele>
        <time>2019-05-03T08:49:02.015Z</time>
      </trkpt>
      <trkpt lat="48.1954086" lon="15.0411025">
        <ele>229.468</ele>
        <time>2019-05-03T08:49:03.751Z</time>
      </trkpt>
      <trkpt lat="48.1954165" lon="15.0412712">
        <ele>229.714</ele>
        <time>2019-05-03T08:49:05.553Z</time>
      </trkpt>
      <trkpt lat="48.1954350" lon="15.0414664">
        <ele>230.254</ele>
        <time>2019-05-03T08:49:07.710Z</time>
      </trkpt>
      <trkpt lat="48.1954280" lon="15.0416617">
        <ele>230.892</ele>
        <time>2019-05-03T08:49:09.830Z</time>
      </trkpt>
      <trkpt lat="48.1954445" lon="15.0418450">
        <ele>231.497</ele>
        <time>2019-05-03T08:49:11.792Z</time>
      </trkpt>
      <trkpt lat="48.1954504" lon="15.0420239">
        <ele>232.035</ele>
        <time>2019-05-03T08:49:13.733Z</time>
      </trkpt>
      <trkpt lat="48.1954651" lon="15.0421986">
        <ele>232.520</ele>
        <time>2019-05-03T08:49:15.699Z</time>
      </trkpt>
      <trkpt lat="48.1954873" lon="15.0423396">
        <ele>232.951</ele>
        <time>2019-05-03T08:49:17.351Z</time>
      </trkpt>
      <trkpt lat="48.1954942" lon="15.0424995">
        <ele>233.272</ele>
        <time>2019-05-03T08:49:19.190Z</time>
      </trkpt>
      <trkpt lat="48.1954948" lon="15.0426870">
        <ele>233.402</ele>
        <time>2019-05-03T08:49:21.311Z</time>
      </trkpt>
      <trkpt lat="48.1954940" lon="15.0428474">
        <ele>233.316</ele>
        <time>2019-05-03T08:49:23.102Z</time>
      </trkpt>
      <trkpt lat="48.1955031" lon="15.0430019">
        <ele>233.088</ele>
        <time>2019-05-03T08:49:24.848Z</time>
      </trkpt>
      <trkpt lat="48.1955132" lon="15.0431688">
        <ele>232.834</ele>
        <time>2019-05-03T08:49:26.774Z</time>
      </trkpt>
      <trkpt lat="48.1955089" lon="15.0433340">
        <ele>232.600</ele>
        <time>2019-05-03T08:49:28.714Z</time>
      </trkpt>
      <trkpt lat="48.1955118" lon="15.0435134">
        <ele>232.347</ele>
        <time>2019-05-03T08:49:30.880Z</time>
      </trkpt>
      <trkpt lat="48.1955093" lon="15.0436875">
        <ele>232.057</ele>
        <time>2019-05-03T08:49:33.118Z</time>
      </trkpt>
      <trkpt lat="48.1955302" lon="15.0438560">
        <ele>231.770</ele>
        <time>2019-05-03T08:49:35.679Z</time>
      </trkpt>
      <trkpt lat="48.1955519" lon="15.0439997">
        <ele>231.511</ele>
        <time>2019-05-03T08:49:38.176Z</time>
      </trkpt>
      <trkpt lat="48.1955439" lon="15.0441348">
        <ele>231.229</ele>
        <time>2019-05-03T08:49:40.750Z</time>
      </trkpt>
      <trkpt lat="48.1955294" lon="15.0442801">
        <ele>230.835</ele>
        <time>2019-05-03T08:49:43.942Z</time>
      </trkpt>
      <trkpt lat="48.1954972" lon="15.0444515">
        <ele>230.327</ele>
        <time>2019-05-03T08:49:48.129Z</time>
      </trkpt>
      <trkpt lat="48.1954720" lon="15.0446119">
        <ele>229.855</ele>
        <time>2019-05-03T08:49:51.615Z</time>
      </trkpt>
      <trkpt lat="48.1954366" lon="15.0447640">
        <ele>229.592</ele>
        <time>2019-05-03T08:49:54.813Z</time>
      </trkpt>
      <trkpt lat="48.1954431" lon="15.0449635">
        <ele>229.614</ele>
        <time>2019-05-03T08:49:58.674Z</time>
      </trkpt>
      <trkpt lat="48.1954160" lon="15.0451060">
        <ele>229.902</ele>
        <time>2019-05-03T08:50:01.612Z</time>
      </trkpt>
      <trkpt lat="48.1954136" lon="15.0452760">
        <ele>230.343</ele>
        <time>2019-05-03T08:50:05.286Z</time>
      </trkpt>
      <trkpt lat="48.1953923" lon="15.0454595">
        <ele>230.763</ele>
        <time>2019-05-03T08:50:09.684Z</time>
      </trkpt>
      <trkpt lat="48.1954029" lon="15.0456281">
        <ele>231.033</ele>
        <time>2019-05-03T08:50:13.648Z</time>
      </trkpt>
      <trkpt lat="48.1953686" lon="15.0457972">
        <ele>231.132</ele>
        <time>2019-05-03T08:50:17.490Z</time>
      </trkpt>
      <trkpt lat="48.1953486" lon="15.0459568">
        <ele>231.243</ele>
        <time>2019-05-03T08:50:20.888Z</time>
      </trkpt>
      <trkpt lat="48.1953000" lon="15.0460753">
        <ele>231.578</ele>
        <time>2019-05-03T08:50:23.255Z</time>
      </trkpt>
      <trkpt lat="48.1952494" lon="15.0462124">
        <ele>232.120</ele>
        <time>2019-05-03T08:50:25.565Z</time>
      </trkpt>
      <trkpt lat="48.1952205" lon="15.0463602">
        <ele>232.801</ele>
        <time>2019-05-03T08:50:27.792Z</time>
      </trkpt>
      <trkpt lat="48.1952237" lon="15.0465173">
        <ele>233.724</ele>
        <time>2019-05-03T08:50:30.036Z</time>
      </trkpt>
      <trkpt lat="48.1952196" lon="15.0466598">
        <ele>234.879</ele>
        <time>2019-05-03T08:50:31.995Z</time>
      </trkpt>
      <trkpt lat="48.1952240" lon="15.0467958">
        <ele>235.985</ele>
        <time>2019-05-03T08:50:33.770Z</time>
      </trkpt>
      <trkpt lat="48.1951976" lon="15.0469781">
        <ele>236.762</ele>
        <time>2019-05-03T08:50:36.179Z</time>
      </trkpt>
      <trkpt lat="48.1951716" lon="15.0471338">
        <ele>237.150</ele>
        <time>2019-05-03T08:50:38.260Z</time>
      </trkpt>
      <trkpt lat="48.1951832" lon="15.0472778">
        <ele>237.261</ele>
        <time>2019-05-03T08:50:40.168Z</time>
      </trkpt>
      <trkpt lat="48.1951710" lon="15.0474577">
        <ele>237.235</ele>
        <time>2019-05-03T08:50:42.545Z</time>
      </trkpt>
      <trkpt lat="48.1951587" lon="15.0476012">
        <ele>237.111</ele>
        <time>2019-05-03T08:50:44.396Z</time>
      </trkpt>
      <trkpt lat="48.1951394" lon="15.0477858">
        <ele>236.865</ele>
        <time>2019-05-03T08:50:46.730Z</time>
      </trkpt>
      <trkpt lat="48.1951108" lon="15.0479573">
        <ele>236.500</ele>
        <time>2019-05-03T08:50:48.986Z</time>
      </trkpt>
      <trkpt lat="48.1950966" lon="15.0481103">
        <ele>236.057</ele>
        <time>2019-05-03T08:50:50.989Z</time>
      </trkpt>
      <trkpt lat="48.1950840" lon="15.0482656">
        <ele>235.558</ele>
        <time>2019-05-03T08:50:53.048Z</time>
      </trkpt>
      <trkpt lat="48.1950928" lon="15.0484294">
        <ele>235.020</ele>
        <time>2019-05-03T08:50:55.208Z</time>
      </trkpt>
      <trkpt lat="48.1950607" lon="15.0485950">
        <ele>234.434</ele>
        <time>2019-05-03T08:50:57.444Z</time>
      </trkpt>
      <trkpt lat="48.1950460" lon="15.0487653">
        <ele>233.811</ele>
        <time>2019-05-03T08:50:59.610Z</time>
      </trkpt>
      <trkpt lat="48.1950390" lon="15.0489109">
        <ele>233.220</ele>
        <time>2019-05-03T08:51:01.437Z</time>
      </trkpt>
      <trkpt lat="48.1950746" lon="15.0490848">
        <ele>232.706</ele>
        <time>2019-05-03T08:51:03.756Z</time>
      </trkpt>
      <trkpt lat="48.1950833" lon="15.0492231">
        <ele>232.210</ele>
        <time>2019-05-03T08:51:05.655Z</time>
      </trkpt>
      <trkpt lat="48.1950872" lon="15.0494217">
        <ele>231.698</ele>
        <time>2019-05-03T08:51:08.599Z</time>
      </trkpt>
      <trkpt lat="48.1950809" lon="15.0496200">
        <ele>231.213</ele>
        <time>2019-05-03T08:51:12.005Z</time>
      </trkpt>
      <trkpt lat="48.1950588" lon="15.0498240">
        <ele>230.798</ele>
        <time>2019-05-03T08:51:16.359Z</time>
      </trkpt>
      <trkpt lat="48.1950242" lon="15.0499719">
        <ele>230.466</ele>
        <time>2019-05-03T08:51:20.002Z</time>
      </trkpt>
      <trkpt lat="48.1950074" lon="15.0501160">
        <ele>230.229</ele>
        <time>2019-05-03T08:51:23.164Z</time>
      </trkpt>
      <trkpt lat="48.1949894" lon="15.0502923">
        <ele>230.088</ele>
        <time>2019-05-03T08:51:28.778Z</time>
      </trkpt>
      <trkpt lat="48.1949871" lon="15.0504315">
        <ele>230.028</ele>
        <time>2019-05-03T08:51:34.639Z</time>
      </trkpt>
      <trkpt lat="48.1949972" lon="15.0505970">
        <ele>230.019</ele>
        <time>2019-05-03T08:51:43.062Z</time>
      </trkpt>
      <trkpt lat="48.1949679" lon="15.0507806">
        <ele>230.036</ele>
        <time>2019-05-03T08:51:49.610Z</time>
      </trkpt>
      <trkpt lat="48.1949468" lon="15.0509249">
        <ele>230.039</ele>
        <time>2019-05-03T08:51:53.428Z</time>
      </trkpt>
      <trkpt lat="48.1949085" lon="15.0510657">
        <ele>229.983</ele>
        <time>2019-05-03T08:51:57.149Z</time>
      </trkpt>
      <trkpt lat="48.1948336" lon="15.0511796">
        <ele>229.846</ele>
        <time>2019-05-03T08:52:00.933Z</time>
      </trkpt>
      <trkpt lat="48.1947843" lon="15.0513084">
        <ele>229.676</ele>
        <time>2019-05-03T08:52:04.235Z</time>
      </trkpt>
      <trkpt lat="48.1947806" lon="15.0514435">
        <ele>229.572</ele>
        <time>2019-05-03T08:52:06.954Z</time>
      </trkpt>
      <trkpt lat="48.1947148" lon="15.0516024">
        <ele>229.600</ele>
        <time>2019-05-03T08:52:10.294Z</time>
      </trkpt>
      <trkpt lat="48.1946549" lon="15.0517206">
        <ele>229.732</ele>
        <time>2019-05-03T08:52:12.708Z</time>
      </trkpt>
      <trkpt lat="48.1946050" lon="15.0518671">
        <ele>229.879</ele>
        <time>2019-05-03T08:52:15.195Z</time>
      </trkpt>
      <trkpt lat="48.1945213" lon="15.0519885">
        <ele>229.979</ele>
        <time>2019-05-03T08:52:17.687Z</time>
      </trkpt>
      <trkpt lat="48.1944587" lon="15.0521291">
        <ele>230.029</ele>
        <time>2019-05-03T08:52:20.068Z</time>
      </trkpt>
      <trkpt lat="48.1943603" lon="15.0522472">
        <ele>230.052</ele>
        <time>2019-05-03T08:52:22.701Z</time>
      </trkpt>
      <trkpt lat="48.1942536" lon="15.0523760">
        <ele>230.064</ele>
        <time>2019-05-03T08:52:25.603Z</time>
      </trkpt>
      <trkpt lat="48.1941359" lon="15.0525014">
        <ele>230.071</ele>
        <time>2019-05-03T08:52:28.844Z</time>
      </trkpt>
      <trkpt lat="48.1940298" lon="15.0525807">
        <ele>230.073</ele>
        <time>2019-05-03T08:52:31.615Z</time>
      </trkpt>
      <trkpt lat="48.1939622" lon="15.0526755">
        <ele>230.072</ele>
        <time>2019-05-03T08:52:33.738Z</time>
      </trkpt>
      <trkpt lat="48.1938901" lon="15.0527739">
        <ele>230.071</ele>
        <time>2019-05-03T08:52:35.916Z</time>
      </trkpt>
      <trkpt lat="48.1937961" lon="15.0528631">
        <ele>230.070</ele>
        <time>2019-05-03T08:52:38.303Z</time>
      </trkpt>
      <trkpt lat="48.1937307" lon="15.0529654">
        <ele>230.082</ele>
        <time>2019-05-03T08:52:40.279Z</time>
      </trkpt>
      <trkpt lat="48.1936438" lon="15.0531202">
        <ele>230.148</ele>
        <time>2019-05-03T08:52:43.057Z</time>
      </trkpt>
      <trkpt lat="48.1935904" lon="15.0532436">
        <ele>230.297</ele>
        <time>2019-05-03T08:52:45.045Z</time>
      </trkpt>
      <trkpt lat="48.1935365" lon="15.0534096">
        <ele>230.499</ele>
        <time>2019-05-03T08:52:47.489Z</time>
      </trkpt>
      <trkpt lat="48.1934948" lon="15.0535393">
        <ele>230.713</ele>
        <time>2019-05-03T08:52:49.391Z</time>
      </trkpt>
      <trkpt lat="48.1934486" lon="15.0537112">
        <ele>230.931</ele>
        <time>2019-05-03T08:52:51.853Z</time>
      </trkpt>
      <trkpt lat="48.1934235" lon="15.0538465">
        <ele>231.151</ele>
        <time>2019-05-03T08:52:53.704Z</time>
      </trkpt>
      <trkpt lat="48.1933908" lon="15.0539726">
        <ele>231.357</ele>
        <time>2019-05-03T08:52:55.444Z</time>
      </trkpt>
      <trkpt lat="48.1933404" lon="15.0541122">
        <ele>231.508</ele>
        <time>2019-05-03T08:52:57.441Z</time>
      </trkpt>
      <trkpt lat="48.1932587" lon="15.0542750">
        <ele>231.574</ele>
        <time>2019-05-03T08:53:00.017Z</time>
      </trkpt>
      <trkpt lat="48.1931565" lon="15.0544650">
        <ele>231.573</ele>
        <time>2019-05-03T08:53:03.265Z</time>
      </trkpt>
      <trkpt lat="48.1930879" lon="15.0546028">
        <ele>231.533</ele>
        <time>2019-05-03T08:53:05.639Z</time>
      </trkpt>
      <trkpt lat="48.1930444" lon="15.0547262">
        <ele>231.460</ele>
        <time>2019-05-03T08:53:07.549Z</time>
      </trkpt>
      <trkpt lat="48.1929920" lon="15.0548808">
        <ele>231.349</ele>
        <time>2019-05-03T08:53:09.836Z</time>
      </trkpt>
      <trkpt lat="48.1929362" lon="15.0550402">
        <ele>231.201</ele>
        <time>2019-05-03T08:53:12.110Z</time>
      </trkpt>
      <trkpt lat="48.1928881" lon="15.0551662">
        <ele>231.048</ele>
        <time>2019-05-03T08:53:13.904Z</time>
      </trkpt>
      <trkpt lat="48.1928319" lon="15.0552817">
        <ele>230.947</ele>
        <time>2019-05-03T08:53:15.673Z</time>
      </trkpt>
      <trkpt lat="48.1927689" lon="15.0554275">
        <ele>230.905</ele>
        <time>2019-05-03T08:53:17.842Z</time>
      </trkpt>
      <trkpt lat="48.1927067" lon="15.0555657">
        <ele>230.865</ele>
        <time>2019-05-03T08:53:19.997Z</time>
      </trkpt>
      <trkpt lat="48.1926496" lon="15.0556979">
        <ele>230.794</ele>
        <time>2019-05-03T08:53:22.111Z</time>
      </trkpt>
      <trkpt lat="48.1926031" lon="15.0558254">
        <ele>230.721</ele>
        <time>2019-05-03T08:53:24.051Z</time>
      </trkpt>
      <trkpt lat="48.1925411" lon="15.0559879">
        <ele>230.692</ele>
        <time>2019-05-03T08:53:26.450Z</time>
      </trkpt>
      <trkpt lat="48.1924693" lon="15.0560744">
        <ele>230.720</ele>
        <time>2019-05-03T08:53:28.144Z</time>
      </trkpt>
      <trkpt lat="48.1924060" lon="15.0562001">
        <ele>230.793</ele>
        <time>2019-05-03T08:53:29.995Z</time>
      </trkpt>
      <trkpt lat="48.1923550" lon="15.0563835">
        <ele>230.905</ele>
        <time>2019-05-03T08:53:32.249Z</time>
      </trkpt>
      <trkpt lat="48.1923124" lon="15.0565426">
        <ele>231.064</ele>
        <time>2019-05-03T08:53:34.162Z</time>
      </trkpt>
      <trkpt lat="48.1922757" lon="15.0567352">
        <ele>231.260</ele>
        <time>2019-05-03T08:53:36.390Z</time>
      </trkpt>
      <trkpt lat="48.1922177" lon="15.0569031">
        <ele>231.437</ele>
        <time>2019-05-03T08:53:38.505Z</time>
      </trkpt>
      <trkpt lat="48.1921521" lon="15.0570598">
        <ele>231.544</ele>
        <time>2019-05-03T08:53:40.595Z</time>
      </trkpt>
      <trkpt lat="48.1921064" lon="15.0572227">
        <ele>231.586</ele>
        <time>2019-05-03T08:53:42.611Z</time>
      </trkpt>
      <trkpt lat="48.1920588" lon="15.0573774">
        <ele>231.613</ele>
        <time>2019-05-03T08:53:44.577Z</time>
      </trkpt>
      <trkpt lat="48.1920139" lon="15.0575271">
        <ele>231.665</ele>
        <time>2019-05-03T08:53:46.490Z</time>
      </trkpt>
      <trkpt lat="48.1919790" lon="15.0576809">
        <ele>231.728</ele>
        <time>2019-05-03T08:53:48.401Z</time>
      </trkpt>
      <trkpt lat="48.1919252" lon="15.0578303">
        <ele>231.760</ele>
        <time>2019-05-03T08:53:50.423Z</time>
      </trkpt>
      <trkpt lat="48.1918890" lon="15.0579782">
        <ele>231.750</ele>
        <time>2019-05-03T08:53:52.325Z</time>
      </trkpt>
      <trkpt lat="48.1918427" lon="15.0581391">
        <ele>231.724</ele>
        <time>2019-05-03T08:53:54.460Z</time>
      </trkpt>
      <trkpt lat="48.1918032" lon="15.0582851">
        <ele>231.721</ele>
        <time>2019-05-03T08:53:56.394Z</time>
      </trkpt>
      <trkpt lat="48.1917734" lon="15.0584196">
        <ele>231.773</ele>
        <time>2019-05-03T08:53:58.125Z</time>
      </trkpt>
      <trkpt lat="48.1917157" lon="15.0586077">
        <ele>231.893</ele>
        <time>2019-05-03T08:54:00.633Z</time>
      </trkpt>
      <trkpt lat="48.1916827" lon="15.0587469">
        <ele>232.067</ele>
        <time>2019-05-03T08:54:02.430Z</time>
      </trkpt>
      <trkpt lat="48.1916406" lon="15.0588946">
        <ele>232.250</ele>
        <time>2019-05-03T08:54:04.420Z</time>
      </trkpt>
      <trkpt lat="48.1915995" lon="15.0590380">
        <ele>232.394</ele>
        <time>2019-05-03T08:54:06.375Z</time>
      </trkpt>
      <trkpt lat="48.1915573" lon="15.0591705">
        <ele>232.502</ele>
        <time>2019-05-03T08:54:08.250Z</time>
      </trkpt>
      <trkpt lat="48.1915335" lon="15.0593074">
        <ele>232.624</ele>
        <time>2019-05-03T08:54:10.091Z</time>
      </trkpt>
      <trkpt lat="48.1914908" lon="15.0595014">
        <ele>232.778</ele>
        <time>2019-05-03T08:54:12.782Z</time>
      </trkpt>
      <trkpt lat="48.1914545" lon="15.0596340">
        <ele>232.963</ele>
        <time>2019-05-03T08:54:14.772Z</time>
      </trkpt>
      <trkpt lat="48.1913906" lon="15.0598039">
        <ele>233.148</ele>
        <time>2019-05-03T08:54:17.518Z</time>
      </trkpt>
      <trkpt lat="48.1913094" lon="15.0599192">
        <ele>233.252</ele>
        <time>2019-05-03T08:54:19.932Z</time>
      </trkpt>
      <trkpt lat="48.1912251" lon="15.0600631">
        <ele>233.230</ele>
        <time>2019-05-03T08:54:22.587Z</time>
      </trkpt>
      <trkpt lat="48.1911359" lon="15.0601635">
        <ele>233.122</ele>
        <time>2019-05-03T08:54:24.824Z</time>
      </trkpt>
      <trkpt lat="48.1910582" lon="15.0602586">
        <ele>233.002</ele>
        <time>2019-05-03T08:54:26.825Z</time>
      </trkpt>
      <trkpt lat="48.1909881" lon="15.0603677">
        <ele>232.937</ele>
        <time>2019-05-03T08:54:28.838Z</time>
      </trkpt>
      <trkpt lat="48.1908647" lon="15.0604755">
        <ele>232.962</ele>
        <time>2019-05-03T08:54:31.678Z</time>
      </trkpt>
      <trkpt lat="48.1907607" lon="15.0605802">
        <ele>233.100</ele>
        <time>2019-05-03T08:54:34.155Z</time>
      </trkpt>
      <trkpt lat="48.1906364" lon="15.0606966">
        <ele>233.361</ele>
        <time>2019-05-03T08:54:36.999Z</time>
      </trkpt>
      <trkpt lat="48.1905592" lon="15.0607695">
        <ele>233.727</ele>
        <time>2019-05-03T08:54:38.746Z</time>
      </trkpt>
      <trkpt lat="48.1904679" lon="15.0608715">
        <ele>234.148</ele>
        <time>2019-05-03T08:54:40.974Z</time>
      </trkpt>
      <trkpt lat="48.1903749" lon="15.0609501">
        <ele>234.560</ele>
        <time>2019-05-03T08:54:43.134Z</time>
      </trkpt>
      <trkpt lat="48.1902917" lon="15.0610136">
        <ele>234.914</ele>
        <time>2019-05-03T08:54:45.183Z</time>
      </trkpt>
      <trkpt lat="48.1902121" lon="15.0611209">
        <ele>235.196</ele>
        <time>2019-05-03T08:54:47.642Z</time>
      </trkpt>
      <trkpt lat="48.1901313" lon="15.0612442">
        <ele>235.438</ele>
        <time>2019-05-03T08:54:50.374Z</time>
      </trkpt>
      <trkpt lat="48.1900673" lon="15.0613856">
        <ele>235.687</ele>
        <time>2019-05-03T08:54:53.029Z</time>
      </trkpt>
      <trkpt lat="48.1899960" lon="15.0614792">
        <ele>235.942</ele>
        <time>2019-05-03T08:54:55.180Z</time>
      </trkpt>
      <trkpt lat="48.1899399" lon="15.0616083">
        <ele>236.150</ele>
        <time>2019-05-03T08:54:57.525Z</time>
      </trkpt>
      <trkpt lat="48.1898941" lon="15.0617556">
        <ele>236.281</ele>
        <time>2019-05-03T08:55:00.006Z</time>
      </trkpt>
      <trkpt lat="48.1898130" lon="15.0618754">
        <ele>236.367</ele>
        <time>2019-05-03T08:55:02.600Z</time>
      </trkpt>
      <trkpt lat="48.1897616" lon="15.0620692">
        <ele>236.491</ele>
        <time>2019-05-03T08:55:05.645Z</time>
      </trkpt>
      <trkpt lat="48.1897266" lon="15.0622105">
        <ele>236.732</ele>
        <time>2019-05-03T08:55:07.773Z</time>
      </trkpt>
      <trkpt lat="48.1897019" lon="15.0623458">
        <ele>237.083</ele>
        <time>2019-05-03T08:55:09.750Z</time>
      </trkpt>
      <trkpt lat="48.1896865" lon="15.0625123">
        <ele>237.439</ele>
        <time>2019-05-03T08:55:12.139Z</time>
      </trkpt>
      <trkpt lat="48.1896698" lon="15.0626467">
        <ele>237.742</ele>
        <time>2019-05-03T08:55:14.100Z</time>
      </trkpt>
      <trkpt lat="48.1896315" lon="15.0628401">
        <ele>238.022</ele>
        <time>2019-05-03T08:55:16.999Z</time>
      </trkpt>
      <trkpt lat="48.1896060" lon="15.0630104">
        <ele>238.296</ele>
        <time>2019-05-03T08:55:19.454Z</time>
      </trkpt>
      <trkpt lat="48.1895403" lon="15.0631310">
        <ele>238.568</ele>
        <time>2019-05-03T08:55:21.595Z</time>
      </trkpt>
      <trkpt lat="48.1894855" lon="15.0632648">
        <ele>238.853</ele>
        <time>2019-05-03T08:55:23.720Z</time>
      </trkpt>
      <trkpt lat="48.1894502" lon="15.0634436">
        <ele>239.155</ele>
        <time>2019-05-03T08:55:26.297Z</time>
      </trkpt>
      <trkpt lat="48.1894123" lon="15.0635819">
        <ele>239.469</ele>
        <time>2019-05-03T08:55:28.481Z</time>
      </trkpt>
      <trkpt lat="48.1893472" lon="15.0636986">
        <ele>239.739</ele>
        <time>2019-05-03T08:55:30.801Z</time>
      </trkpt>
      <trkpt lat="48.1892875" lon="15.0638210">
        <ele>239.878</ele>
        <time>2019-05-03T08:55:33.201Z</time>
      </trkpt>
      <trkpt lat="48.1892244" lon="15.0639390">
        <ele>239.883</ele>
        <time>2019-05-03T08:55:35.609Z</time>
      </trkpt>
      <trkpt lat="48.1891658" lon="15.0640589">
        <ele>239.816</ele>
        <time>2019-05-03T08:55:38.011Z</time>
      </trkpt>
      <trkpt lat="48.1891135" lon="15.0642061">
        <ele>239.715</ele>
        <time>2019-05-03T08:55:40.824Z</time>
      </trkpt>
      <trkpt lat="48.1890703" lon="15.0643276">
        <ele>239.559</ele>
        <time>2019-05-03T08:55:43.226Z</time>
      </trkpt>
      <trkpt lat="48.1889944" lon="15.0644272">
        <ele>239.311</ele>
        <time>2019-05-03T08:55:45.914Z</time>
      </trkpt>
      <trkpt lat="48.1889352" lon="15.0645325">
        <ele>238.991</ele>
        <time>2019-05-03T08:55:48.455Z</time>
      </trkpt>
      <trkpt lat="48.1888891" lon="15.0646957">
        <ele>238.672</ele>
        <time>2019-05-03T08:55:51.917Z</time>
      </trkpt>
      <trkpt lat="48.1888335" lon="15.0648303">
        <ele>238.381</ele>
        <time>2019-05-03T08:55:55.082Z</time>
      </trkpt>
      <trkpt lat="48.1887604" lon="15.0649325">
        <ele>238.048</ele>
        <time>2019-05-03T08:55:57.996Z</time>
      </trkpt>
      <trkpt lat="48.1887130" lon="15.0650494">
        <ele>237.647</ele>
        <time>2019-05-03T08:56:00.552Z</time>
      </trkpt>
      <trkpt lat="48.1886789" lon="15.0652079">
        <ele>237.283</ele>
        <time>2019-05-03T08:56:03.496Z</time>
      </trkpt>
      <trkpt lat="48.1885971" lon="15.0653377">
        <ele>237.043</ele>
        <time>2019-05-03T08:56:06.438Z</time>
      </trkpt>
      <trkpt lat="48.1885067" lon="15.0654384">
        <ele>236.852</ele>
        <time>2019-05-03T08:56:09.115Z</time>
      </trkpt>
      <trkpt lat="48.1884431" lon="15.0655921">
        <ele>236.638</ele>
        <time>2019-05-03T08:56:11.769Z</time>
      </trkpt>
      <trkpt lat="48.1883764" lon="15.0657216">
        <ele>236.494</ele>
        <time>2019-05-03T08:56:14.087Z</time>
      </trkpt>
      <trkpt lat="48.1883064" lon="15.0658777">
        <ele>236.516</ele>
        <time>2019-05-03T08:56:16.775Z</time>
      </trkpt>
      <trkpt lat="48.1882545" lon="15.0660443">
        <ele>236.661</ele>
        <time>2019-05-03T08:56:19.475Z</time>
      </trkpt>
      <trkpt lat="48.1882101" lon="15.0661949">
        <ele>236.888</ele>
        <time>2019-05-03T08:56:22.000Z</time>
      </trkpt>
      <trkpt lat="48.1882101" lon="15.0661949">
        <ele>237.153</ele>
        <time>2019-05-03T08:56:25.000Z</time>
      </trkpt>
      <trkpt lat="48.1882101" lon="15.0661949">
        <ele>237.279</ele>
        <time>2019-05-03T08:56:30.875Z</time>
      </trkpt>
      <trkpt lat="48.1881762" lon="15.0666045">
        <ele>237.171</ele>
        <time>2019-05-03T08:56:56.000Z</time>
      </trkpt>
      <trkpt lat="48.1881762" lon="15.0666045">
        <ele>236.988</ele>
        <time>2019-05-03T08:57:11.001Z</time>
      </trkpt>
      <trkpt lat="48.1881762" lon="15.0666045">
        <ele>236.885</ele>
        <time>2019-05-03T08:58:13.632Z</time>
      </trkpt>
      <trkpt lat="48.1880420" lon="15.0668564">
        <ele>236.863</ele>
        <time>2019-05-03T08:58:34.962Z</time>
      </trkpt>
      <trkpt lat="48.1879488" lon="15.0669533">
        <ele>237.038</ele>
        <time>2019-05-03T08:58:39.086Z</time>
      </trkpt>
      <trkpt lat="48.1878609" lon="15.0670802">
        <ele>237.794</ele>
        <time>2019-05-03T08:58:42.893Z</time>
      </trkpt>
      <trkpt lat="48.1877830" lon="15.0671909">
        <ele>239.239</ele>
        <time>2019-05-03T08:58:45.933Z</time>
      </trkpt>
      <trkpt lat="48.1877040" lon="15.0673130">
        <ele>240.890</ele>
        <time>2019-05-03T08:58:48.999Z</time>
      </trkpt>
      <trkpt lat="48.1877040" lon="15.0673130">
        <ele>242.148</ele>
        <time>2019-05-03T08:58:49.999Z</time>
      </trkpt>
      <trkpt lat="48.1877040" lon="15.0673130">
        <ele>242.655</ele>
        <time>2019-05-03T08:58:50.099Z</time>
      </trkpt>
      <trkpt lat="48.1875339" lon="15.0675698">
        <ele>242.485</ele>
        <time>2019-05-03T08:59:18.964Z</time>
      </trkpt>
      <trkpt lat="48.1875435" lon="15.0677240">
        <ele>242.109</ele>
        <time>2019-05-03T08:59:24.971Z</time>
      </trkpt>
      <trkpt lat="48.1875323" lon="15.0678685">
        <ele>241.686</ele>
        <time>2019-05-03T08:59:30.493Z</time>
      </trkpt>
      <trkpt lat="48.1874853" lon="15.0679973">
        <ele>240.782</ele>
        <time>2019-05-03T08:59:35.999Z</time>
      </trkpt>
      <trkpt lat="48.1874853" lon="15.0679973">
        <ele>239.394</ele>
        <time>2019-05-03T08:59:49.999Z</time>
      </trkpt>
      <trkpt lat="48.1874853" lon="15.0679973">
        <ele>238.416</ele>
        <time>2019-05-03T09:00:14.999Z</time>
      </trkpt>
      <trkpt lat="48.1874812" lon="15.0680957">
        <ele>235.679</ele>
        <time>2019-05-03T09:00:23.999Z</time>
      </trkpt>
      <trkpt lat="48.1874812" lon="15.0680957">
        <ele>235.570</ele>
        <time>2019-05-03T09:00:26.999Z</time>
      </trkpt>
      <trkpt lat="48.1874812" lon="15.0680957">
        <ele>235.510</ele>
        <time>2019-05-03T09:06:45.917Z</time>
      </trkpt>
      <trkpt lat="48.1874654" lon="15.0678252">
        <ele>235.458</ele>
        <time>2019-05-03T09:09:25.001Z</time>
      </trkpt>
      <trkpt lat="48.1874654" lon="15.0678252">
        <ele>235.402</ele>
        <time>2019-05-03T09:09:28.001Z</time>
      </trkpt>
      <trkpt lat="48.1874654" lon="15.0678252">
        <ele>235.330</ele>
        <time>2019-05-03T09:10:14.001Z</time>
      </trkpt>
      <trkpt lat="48.1874304" lon="15.0678469">
        <ele>240.335</ele>
        <time>2019-05-03T09:10:45.106Z</time>
      </trkpt>
      <trkpt lat="48.1874304" lon="15.0678469">
        <ele>240.335</ele>
        <time>2019-05-03T09:10:45.106Z</time>
      </trkpt>
      <trkpt lat="48.1872976" lon="15.0679690">
        <ele>239.979</ele>
        <time>2019-05-03T09:12:35.042Z</time>
      </trkpt>
      <trkpt lat="48.1872976" lon="15.0679690">
        <ele>239.979</ele>
        <time>2019-05-03T09:12:35.042Z</time>
      </trkpt>
      <trkpt lat="48.1873336" lon="15.0679679">
        <ele>232.881</ele>
        <time>2019-05-03T09:12:47.372Z</time>
      </trkpt>
      <trkpt lat="48.1873336" lon="15.0679679">
        <ele>232.881</ele>
        <time>2019-05-03T09:12:47.372Z</time>
      </trkpt>
      <trkpt lat="48.1870881" lon="15.0681522">
        <ele>240.606</ele>
        <time>2019-05-03T09:14:39.006Z</time>
      </trkpt>
      <trkpt lat="48.1870881" lon="15.0681522">
        <ele>240.606</ele>
        <time>2019-05-03T09:14:39.006Z</time>
      </trkpt>
      <trkpt lat="48.1869545" lon="15.0679443">
        <ele>246.750</ele>
        <time>2019-05-03T09:15:58.078Z</time>
      </trkpt>
      <trkpt lat="48.1873918" lon="15.0677581">
        <ele>246.636</ele>
        <time>2019-05-03T09:20:26.999Z</time>
      </trkpt>
      <trkpt lat="48.1873918" lon="15.0677581">
        <ele>246.016</ele>
        <time>2019-05-03T09:20:27.000Z</time>
      </trkpt>
      <trkpt lat="48.1873918" lon="15.0677581">
        <ele>244.512</ele>
        <time>2019-05-03T09:22:54.579Z</time>
      </trkpt>
      <trkpt lat="48.1871189" lon="15.0682949">
        <ele>243.148</ele>
        <time>2019-05-03T09:31:17.999Z</time>
      </trkpt>
      <trkpt lat="48.1871189" lon="15.0682949">
        <ele>230.729</ele>
        <time>2019-05-03T09:31:18.000Z</time>
      </trkpt>
      <trkpt lat="48.1871189" lon="15.0682949">
        <ele>197.377</ele>
        <time>2019-05-03T09:31:18.100Z</time>
      </trkpt>
      <trkpt lat="48.1869755" lon="15.0684373">
        <ele>163.805</ele>
        <time>2019-05-03T09:31:30.049Z</time>
      </trkpt>
      <trkpt lat="48.1869115" lon="15.0685578">
        <ele>150.720</ele>
        <time>2019-05-03T09:31:34.529Z</time>
      </trkpt>
      <trkpt lat="48.1868517" lon="15.0686735">
        <ele>153.077</ele>
        <time>2019-05-03T09:31:38.759Z</time>
      </trkpt>
      <trkpt lat="48.1867989" lon="15.0687863">
        <ele>160.209</ele>
        <time>2019-05-03T09:31:43.905Z</time>
      </trkpt>
      <trkpt lat="48.1867665" lon="15.0689240">
        <ele>166.893</ele>
        <time>2019-05-03T09:31:50.322Z</time>
      </trkpt>
      <trkpt lat="48.1867198" lon="15.0690668">
        <ele>172.648</ele>
        <time>2019-05-03T09:31:54.930Z</time>
      </trkpt>
      <trkpt lat="48.1866846" lon="15.0692069">
        <ele>184.880</ele>
        <time>2019-05-03T09:31:57.325Z</time>
      </trkpt>
      <trkpt lat="48.1866382" lon="15.0693265">
        <ele>208.042</ele>
        <time>2019-05-03T09:31:59.324Z</time>
      </trkpt>
      <trkpt lat="48.1866036" lon="15.0694911">
        <ele>230.793</ele>
        <time>2019-05-03T09:32:02.608Z</time>
      </trkpt>
      <trkpt lat="48.1865622" lon="15.0696495">
        <ele>241.939</ele>
        <time>2019-05-03T09:32:06.749Z</time>
      </trkpt>
      <trkpt lat="48.1865264" lon="15.0697814">
        <ele>243.926</ele>
        <time>2019-05-03T09:32:10.486Z</time>
      </trkpt>
      <trkpt lat="48.1865007" lon="15.0699221">
        <ele>242.406</ele>
        <time>2019-05-03T09:32:13.294Z</time>
      </trkpt>
      <trkpt lat="48.1864680" lon="15.0700773">
        <ele>240.720</ele>
        <time>2019-05-03T09:32:15.760Z</time>
      </trkpt>
      <trkpt lat="48.1864357" lon="15.0702392">
        <ele>239.692</ele>
        <time>2019-05-03T09:32:18.302Z</time>
      </trkpt>
      <trkpt lat="48.1865039" lon="15.0704114">
        <ele>239.117</ele>
        <time>2019-05-03T09:32:21.217Z</time>
      </trkpt>
      <trkpt lat="48.1866037" lon="15.0705133">
        <ele>238.665</ele>
        <time>2019-05-03T09:32:23.936Z</time>
      </trkpt>
      <trkpt lat="48.1866256" lon="15.0706791">
        <ele>238.192</ele>
        <time>2019-05-03T09:32:27.212Z</time>
      </trkpt>
      <trkpt lat="48.1865791" lon="15.0708064">
        <ele>237.544</ele>
        <time>2019-05-03T09:32:30.239Z</time>
      </trkpt>
      <trkpt lat="48.1865351" lon="15.0709370">
        <ele>236.498</ele>
        <time>2019-05-03T09:32:33.238Z</time>
      </trkpt>
      <trkpt lat="48.1865061" lon="15.0710681">
        <ele>235.132</ele>
        <time>2019-05-03T09:32:35.986Z</time>
      </trkpt>
      <trkpt lat="48.1864715" lon="15.0711994">
        <ele>233.794</ele>
        <time>2019-05-03T09:32:38.715Z</time>
      </trkpt>
      <trkpt lat="48.1864403" lon="15.0713453">
        <ele>232.625</ele>
        <time>2019-05-03T09:32:41.799Z</time>
      </trkpt>
      <trkpt lat="48.1864380" lon="15.0715316">
        <ele>231.527</ele>
        <time>2019-05-03T09:32:46.268Z</time>
      </trkpt>
      <trkpt lat="48.1863901" lon="15.0716767">
        <ele>230.162</ele>
        <time>2019-05-03T09:32:50.175Z</time>
      </trkpt>
      <trkpt lat="48.1863633" lon="15.0718409">
        <ele>228.548</ele>
        <time>2019-05-03T09:32:54.052Z</time>
      </trkpt>
      <trkpt lat="48.1863374" lon="15.0719815">
        <ele>227.405</ele>
        <time>2019-05-03T09:32:57.547Z</time>
      </trkpt>
      <trkpt lat="48.1862902" lon="15.0721303">
        <ele>227.169</ele>
        <time>2019-05-03T09:33:01.252Z</time>
      </trkpt>
      <trkpt lat="48.1862277" lon="15.0722577">
        <ele>227.454</ele>
        <time>2019-05-03T09:33:04.453Z</time>
      </trkpt>
      <trkpt lat="48.1861797" lon="15.0723814">
        <ele>227.804</ele>
        <time>2019-05-03T09:33:07.367Z</time>
      </trkpt>
      <trkpt lat="48.1861711" lon="15.0725430">
        <ele>228.023</ele>
        <time>2019-05-03T09:33:10.407Z</time>
      </trkpt>
      <trkpt lat="48.1861334" lon="15.0726899">
        <ele>228.034</ele>
        <time>2019-05-03T09:33:13.096Z</time>
      </trkpt>
      <trkpt lat="48.1861144" lon="15.0728645">
        <ele>227.805</ele>
        <time>2019-05-03T09:33:15.602Z</time>
      </trkpt>
      <trkpt lat="48.1860806" lon="15.0729901">
        <ele>227.413</ele>
        <time>2019-05-03T09:33:17.233Z</time>
      </trkpt>
      <trkpt lat="48.1860314" lon="15.0731458">
        <ele>227.010</ele>
        <time>2019-05-03T09:33:19.219Z</time>
      </trkpt>
      <trkpt lat="48.1859873" lon="15.0732744">
        <ele>226.722</ele>
        <time>2019-05-03T09:33:20.885Z</time>
      </trkpt>
      <trkpt lat="48.1859333" lon="15.0734483">
        <ele>226.569</ele>
        <time>2019-05-03T09:33:23.132Z</time>
      </trkpt>
      <trkpt lat="48.1858876" lon="15.0736051">
        <ele>226.492</ele>
        <time>2019-05-03T09:33:25.176Z</time>
      </trkpt>
      <trkpt lat="48.1858474" lon="15.0737449">
        <ele>226.404</ele>
        <time>2019-05-03T09:33:26.993Z</time>
      </trkpt>
      <trkpt lat="48.1858007" lon="15.0738942">
        <ele>226.210</ele>
        <time>2019-05-03T09:33:28.930Z</time>
      </trkpt>
      <trkpt lat="48.1857461" lon="15.0740232">
        <ele>225.914</ele>
        <time>2019-05-03T09:33:30.709Z</time>
      </trkpt>
      <trkpt lat="48.1856971" lon="15.0741570">
        <ele>225.542</ele>
        <time>2019-05-03T09:33:32.489Z</time>
      </trkpt>
      <trkpt lat="48.1857251" lon="15.0743179">
        <ele>225.113</ele>
        <time>2019-05-03T09:33:34.428Z</time>
      </trkpt>
      <trkpt lat="48.1857270" lon="15.0744800">
        <ele>224.655</ele>
        <time>2019-05-03T09:33:36.382Z</time>
      </trkpt>
      <trkpt lat="48.1856773" lon="15.0746238">
        <ele>223.989</ele>
        <time>2019-05-03T09:33:38.548Z</time>
      </trkpt>
      <trkpt lat="48.1856288" lon="15.0748135">
        <ele>222.944</ele>
        <time>2019-05-03T09:33:41.480Z</time>
      </trkpt>
      <trkpt lat="48.1855854" lon="15.0749419">
        <ele>221.846</ele>
        <time>2019-05-03T09:33:43.649Z</time>
      </trkpt>
      <trkpt lat="48.1855262" lon="15.0750763">
        <ele>221.167</ele>
        <time>2019-05-03T09:33:46.097Z</time>
      </trkpt>
      <trkpt lat="48.1854666" lon="15.0752121">
        <ele>220.971</ele>
        <time>2019-05-03T09:33:48.445Z</time>
      </trkpt>
      <trkpt lat="48.1854134" lon="15.0753652">
        <ele>220.931</ele>
        <time>2019-05-03T09:33:50.737Z</time>
      </trkpt>
      <trkpt lat="48.1853545" lon="15.0754738">
        <ele>220.689</ele>
        <time>2019-05-03T09:33:52.528Z</time>
      </trkpt>
      <trkpt lat="48.1852871" lon="15.0755959">
        <ele>220.233</ele>
        <time>2019-05-03T09:33:54.564Z</time>
      </trkpt>
      <trkpt lat="48.1851955" lon="15.0756997">
        <ele>219.845</ele>
        <time>2019-05-03T09:33:56.917Z</time>
      </trkpt>
      <trkpt lat="48.1851254" lon="15.0758647">
        <ele>219.635</ele>
        <time>2019-05-03T09:33:59.551Z</time>
      </trkpt>
      <trkpt lat="48.1850256" lon="15.0759853">
        <ele>219.494</ele>
        <time>2019-05-03T09:34:01.863Z</time>
      </trkpt>
      <trkpt lat="48.1849312" lon="15.0760844">
        <ele>219.370</ele>
        <time>2019-05-03T09:34:03.855Z</time>
      </trkpt>
      <trkpt lat="48.1848305" lon="15.0762129">
        <ele>219.314</ele>
        <time>2019-05-03T09:34:06.024Z</time>
      </trkpt>
      <trkpt lat="48.1847749" lon="15.0763475">
        <ele>219.359</ele>
        <time>2019-05-03T09:34:07.659Z</time>
      </trkpt>
      <trkpt lat="48.1846978" lon="15.0764861">
        <ele>219.470</ele>
        <time>2019-05-03T09:34:09.518Z</time>
      </trkpt>
      <trkpt lat="48.1846350" lon="15.0766427">
        <ele>219.582</ele>
        <time>2019-05-03T09:34:11.454Z</time>
      </trkpt>
      <trkpt lat="48.1845688" lon="15.0767739">
        <ele>219.648</ele>
        <time>2019-05-03T09:34:13.330Z</time>
      </trkpt>
      <trkpt lat="48.1844785" lon="15.0769018">
        <ele>219.650</ele>
        <time>2019-05-03T09:34:15.687Z</time>
      </trkpt>
      <trkpt lat="48.1844124" lon="15.0769948">
        <ele>219.588</ele>
        <time>2019-05-03T09:34:17.483Z</time>
      </trkpt>
      <trkpt lat="48.1843320" lon="15.0771234">
        <ele>219.481</ele>
        <time>2019-05-03T09:34:19.808Z</time>
      </trkpt>
      <trkpt lat="48.1842670" lon="15.0772351">
        <ele>219.351</ele>
        <time>2019-05-03T09:34:21.577Z</time>
      </trkpt>
      <trkpt lat="48.1841884" lon="15.0773683">
        <ele>219.208</ele>
        <time>2019-05-03T09:34:23.520Z</time>
      </trkpt>
      <trkpt lat="48.1841064" lon="15.0775172">
        <ele>219.089</ele>
        <time>2019-05-03T09:34:25.544Z</time>
      </trkpt>
      <trkpt lat="48.1840279" lon="15.0776426">
        <ele>219.030</ele>
        <time>2019-05-03T09:34:27.290Z</time>
      </trkpt>
      <trkpt lat="48.1839225" lon="15.0777833">
        <ele>219.037</ele>
        <time>2019-05-03T09:34:29.333Z</time>
      </trkpt>
      <trkpt lat="48.1838265" lon="15.0779118">
        <ele>219.084</ele>
        <time>2019-05-03T09:34:31.137Z</time>
      </trkpt>
      <trkpt lat="48.1837229" lon="15.0780803">
        <ele>219.153</ele>
        <time>2019-05-03T09:34:33.305Z</time>
      </trkpt>
      <trkpt lat="48.1836391" lon="15.0782179">
        <ele>219.241</ele>
        <time>2019-05-03T09:34:35.118Z</time>
      </trkpt>
      <trkpt lat="48.1835492" lon="15.0783774">
        <ele>219.342</ele>
        <time>2019-05-03T09:34:37.200Z</time>
      </trkpt>
      <trkpt lat="48.1834551" lon="15.0785169">
        <ele>219.430</ele>
        <time>2019-05-03T09:34:39.214Z</time>
      </trkpt>
      <trkpt lat="48.1833779" lon="15.0786592">
        <ele>219.474</ele>
        <time>2019-05-03T09:34:41.128Z</time>
      </trkpt>
      <trkpt lat="48.1832798" lon="15.0787786">
        <ele>219.463</ele>
        <time>2019-05-03T09:34:43.194Z</time>
      </trkpt>
      <trkpt lat="48.1832136" lon="15.0788724">
        <ele>219.406</ele>
        <time>2019-05-03T09:34:44.698Z</time>
      </trkpt>
      <trkpt lat="48.1831462" lon="15.0789971">
        <ele>219.306</ele>
        <time>2019-05-03T09:34:46.429Z</time>
      </trkpt>
      <trkpt lat="48.1830674" lon="15.0791274">
        <ele>219.165</ele>
        <time>2019-05-03T09:34:48.276Z</time>
      </trkpt>
      <trkpt lat="48.1830009" lon="15.0792476">
        <ele>219.017</ele>
        <time>2019-05-03T09:34:49.878Z</time>
      </trkpt>
      <trkpt lat="48.1829005" lon="15.0793685">
        <ele>218.912</ele>
        <time>2019-05-03T09:34:51.839Z</time>
      </trkpt>
      <trkpt lat="48.1828083" lon="15.0794806">
        <ele>218.869</ele>
        <time>2019-05-03T09:34:53.647Z</time>
      </trkpt>
      <trkpt lat="48.1827233" lon="15.0796129">
        <ele>218.872</ele>
        <time>2019-05-03T09:34:55.510Z</time>
      </trkpt>
      <trkpt lat="48.1826353" lon="15.0797301">
        <ele>218.911</ele>
        <time>2019-05-03T09:34:57.317Z</time>
      </trkpt>
      <trkpt lat="48.1825415" lon="15.0798672">
        <ele>218.970</ele>
        <time>2019-05-03T09:34:59.401Z</time>
      </trkpt>
      <trkpt lat="48.1824675" lon="15.0799940">
        <ele>219.018</ele>
        <time>2019-05-03T09:35:01.220Z</time>
      </trkpt>
      <trkpt lat="48.1823717" lon="15.0801092">
        <ele>219.041</ele>
        <time>2019-05-03T09:35:03.196Z</time>
      </trkpt>
      <trkpt lat="48.1822517" lon="15.0802734">
        <ele>219.059</ele>
        <time>2019-05-03T09:35:05.809Z</time>
      </trkpt>
      <trkpt lat="48.1821649" lon="15.0803836">
        <ele>219.094</ele>
        <time>2019-05-03T09:35:07.709Z</time>
      </trkpt>
      <trkpt lat="48.1820928" lon="15.0805210">
        <ele>219.164</ele>
        <time>2019-05-03T09:35:09.743Z</time>
      </trkpt>
      <trkpt lat="48.1820252" lon="15.0806403">
        <ele>219.256</ele>
        <time>2019-05-03T09:35:11.609Z</time>
      </trkpt>
      <trkpt lat="48.1819323" lon="15.0807598">
        <ele>219.323</ele>
        <time>2019-05-03T09:35:13.647Z</time>
      </trkpt>
      <trkpt lat="48.1818644" lon="15.0808837">
        <ele>219.335</ele>
        <time>2019-05-03T09:35:15.316Z</time>
      </trkpt>
      <trkpt lat="48.1817928" lon="15.0809837">
        <ele>219.310</ele>
        <time>2019-05-03T09:35:16.833Z</time>
      </trkpt>
      <trkpt lat="48.1816918" lon="15.0810828">
        <ele>219.272</ele>
        <time>2019-05-03T09:35:18.742Z</time>
      </trkpt>
      <trkpt lat="48.1816232" lon="15.0811775">
        <ele>219.233</ele>
        <time>2019-05-03T09:35:20.265Z</time>
      </trkpt>
      <trkpt lat="48.1815639" lon="15.0813204">
        <ele>219.229</ele>
        <time>2019-05-03T09:35:22.242Z</time>
      </trkpt>
      <trkpt lat="48.1814880" lon="15.0814617">
        <ele>219.278</ele>
        <time>2019-05-03T09:35:24.586Z</time>
      </trkpt>
      <trkpt lat="48.1813885" lon="15.0815473">
        <ele>219.324</ele>
        <time>2019-05-03T09:35:26.927Z</time>
      </trkpt>
      <trkpt lat="48.1813349" lon="15.0816605">
        <ele>219.315</ele>
        <time>2019-05-03T09:35:28.966Z</time>
      </trkpt>
      <trkpt lat="48.1812578" lon="15.0817864">
        <ele>219.273</ele>
        <time>2019-05-03T09:35:31.508Z</time>
      </trkpt>
      <trkpt lat="48.1811742" lon="15.0818983">
        <ele>219.234</ele>
        <time>2019-05-03T09:35:33.803Z</time>
      </trkpt>
      <trkpt lat="48.1810942" lon="15.0819912">
        <ele>219.197</ele>
        <time>2019-05-03T09:35:35.769Z</time>
      </trkpt>
      <trkpt lat="48.1810094" lon="15.0821051">
        <ele>219.142</ele>
        <time>2019-05-03T09:35:38.021Z</time>
      </trkpt>
      <trkpt lat="48.1809196" lon="15.0822588">
        <ele>219.068</ele>
        <time>2019-05-03T09:35:40.627Z</time>
      </trkpt>
      <trkpt lat="48.1808500" lon="15.0823663">
        <ele>219.007</ele>
        <time>2019-05-03T09:35:42.459Z</time>
      </trkpt>
      <trkpt lat="48.1807784" lon="15.0824662">
        <ele>218.984</ele>
        <time>2019-05-03T09:35:44.327Z</time>
      </trkpt>
      <trkpt lat="48.1806716" lon="15.0826063">
        <ele>219.009</ele>
        <time>2019-05-03T09:35:47.167Z</time>
      </trkpt>
      <trkpt lat="48.1805653" lon="15.0827436">
        <ele>219.060</ele>
        <time>2019-05-03T09:35:49.837Z</time>
      </trkpt>
      <trkpt lat="48.1804712" lon="15.0828284">
        <ele>219.102</ele>
        <time>2019-05-03T09:35:51.857Z</time>
      </trkpt>
      <trkpt lat="48.1803875" lon="15.0829355">
        <ele>219.117</ele>
        <time>2019-05-03T09:35:53.903Z</time>
      </trkpt>
      <trkpt lat="48.1803147" lon="15.0830325">
        <ele>219.111</ele>
        <time>2019-05-03T09:35:55.752Z</time>
      </trkpt>
      <trkpt lat="48.1802469" lon="15.0831308">
        <ele>219.104</ele>
        <time>2019-05-03T09:35:57.525Z</time>
      </trkpt>
      <trkpt lat="48.1801709" lon="15.0832455">
        <ele>219.129</ele>
        <time>2019-05-03T09:35:59.493Z</time>
      </trkpt>
      <trkpt lat="48.1800857" lon="15.0833904">
        <ele>219.193</ele>
        <time>2019-05-03T09:36:01.757Z</time>
      </trkpt>
      <trkpt lat="48.1800016" lon="15.0835412">
        <ele>219.241</ele>
        <time>2019-05-03T09:36:03.958Z</time>
      </trkpt>
      <trkpt lat="48.1798802" lon="15.0837238">
        <ele>219.199</ele>
        <time>2019-05-03T09:36:06.618Z</time>
      </trkpt>
      <trkpt lat="48.1797820" lon="15.0838705">
        <ele>219.051</ele>
        <time>2019-05-03T09:36:08.712Z</time>
      </trkpt>
      <trkpt lat="48.1796958" lon="15.0839698">
        <ele>218.831</ele>
        <time>2019-05-03T09:36:10.422Z</time>
      </trkpt>
      <trkpt lat="48.1796131" lon="15.0840379">
        <ele>218.577</ele>
        <time>2019-05-03T09:36:11.999Z</time>
      </trkpt>
      <trkpt lat="48.1796131" lon="15.0840379">
        <ele>218.344</ele>
        <time>2019-05-03T09:36:18.999Z</time>
      </trkpt>
      <trkpt lat="48.1796131" lon="15.0840379">
        <ele>218.189</ele>
        <time>2019-05-03T09:37:18.045Z</time>
      </trkpt>
      <trkpt lat="48.1794004" lon="15.0842507">
        <ele>218.109</ele>
        <time>2019-05-03T09:37:42.966Z</time>
      </trkpt>
      <trkpt lat="48.1793086" lon="15.0843545">
        <ele>210.146</ele>
        <time>2019-05-03T09:37:47.239Z</time>
      </trkpt>
      <trkpt lat="48.1792263" lon="15.0844446">
        <ele>188.578</ele>
        <time>2019-05-03T09:37:51.028Z</time>
      </trkpt>
      <trkpt lat="48.1791318" lon="15.0844955">
        <ele>164.415</ele>
        <time>2019-05-03T09:37:54.995Z</time>
      </trkpt>
      <trkpt lat="48.1790361" lon="15.0845305">
        <ele>149.821</ele>
        <time>2019-05-03T09:37:59.497Z</time>
      </trkpt>
      <trkpt lat="48.1789413" lon="15.0845726">
        <ele>143.714</ele>
        <time>2019-05-03T09:38:05.179Z</time>
      </trkpt>
      <trkpt lat="48.1788549" lon="15.0846387">
        <ele>141.959</ele>
        <time>2019-05-03T09:38:11.836Z</time>
      </trkpt>
      <trkpt lat="48.1787622" lon="15.0846571">
        <ele>141.921</ele>
        <time>2019-05-03T09:38:19.219Z</time>
      </trkpt>
      <trkpt lat="48.1786703" lon="15.0846053">
        <ele>153.028</ele>
        <time>2019-05-03T09:38:28.995Z</time>
      </trkpt>
      <trkpt lat="48.1785798" lon="15.0845275">
        <ele>181.237</ele>
        <time>2019-05-03T09:38:39.842Z</time>
      </trkpt>
      <trkpt lat="48.1785211" lon="15.0843897">
        <ele>210.197</ele>
        <time>2019-05-03T09:38:47.189Z</time>
      </trkpt>
      <trkpt lat="48.1784825" lon="15.0842641">
        <ele>224.250</ele>
        <time>2019-05-03T09:38:52.999Z</time>
      </trkpt>
      <trkpt lat="48.1784825" lon="15.0842641">
        <ele>226.848</ele>
        <time>2019-05-03T09:38:52.999Z</time>
      </trkpt>
      <trkpt lat="48.1784825" lon="15.0842641">
        <ele>225.253</ele>
        <time>2019-05-03T09:40:20.372Z</time>
      </trkpt>
      <trkpt lat="48.1783479" lon="15.0844764">
        <ele>223.865</ele>
        <time>2019-05-03T09:40:34.224Z</time>
      </trkpt>
      <trkpt lat="48.1782770" lon="15.0845766">
        <ele>215.094</ele>
        <time>2019-05-03T09:40:39.523Z</time>
      </trkpt>
      <trkpt lat="48.1781871" lon="15.0846393">
        <ele>192.433</ele>
        <time>2019-05-03T09:40:44.538Z</time>
      </trkpt>
      <trkpt lat="48.1780998" lon="15.0846884">
        <ele>167.201</ele>
        <time>2019-05-03T09:40:48.964Z</time>
      </trkpt>
      <trkpt lat="48.1779993" lon="15.0847888">
        <ele>152.044</ele>
        <time>2019-05-03T09:40:53.773Z</time>
      </trkpt>
      <trkpt lat="48.1779242" lon="15.0848724">
        <ele>145.974</ele>
        <time>2019-05-03T09:40:56.990Z</time>
      </trkpt>
      <trkpt lat="48.1778220" lon="15.0849656">
        <ele>144.617</ele>
        <time>2019-05-03T09:41:00.787Z</time>
      </trkpt>
      <trkpt lat="48.1777358" lon="15.0850262">
        <ele>144.633</ele>
        <time>2019-05-03T09:41:03.776Z</time>
      </trkpt>
      <trkpt lat="48.1776313" lon="15.0850797">
        <ele>144.610</ele>
        <time>2019-05-03T09:41:08.157Z</time>
      </trkpt>
      <trkpt lat="48.1775527" lon="15.0851611">
        <ele>144.458</ele>
        <time>2019-05-03T09:41:12.000Z</time>
      </trkpt>
      <trkpt lat="48.1775527" lon="15.0851611">
        <ele>144.372</ele>
        <time>2019-05-03T09:41:13.000Z</time>
      </trkpt>
      <trkpt lat="48.1775527" lon="15.0851611">
        <ele>144.347</ele>
        <time>2019-05-03T09:41:13.100Z</time>
      </trkpt>
      <trkpt lat="48.1773807" lon="15.0853257">
        <ele>144.325</ele>
        <time>2019-05-03T09:41:50.483Z</time>
      </trkpt>
      <trkpt lat="48.1772821" lon="15.0853619">
        <ele>154.886</ele>
        <time>2019-05-03T09:41:58.045Z</time>
      </trkpt>
      <trkpt lat="48.1771776" lon="15.0853686">
        <ele>182.465</ele>
        <time>2019-05-03T09:42:02.992Z</time>
      </trkpt>
      <trkpt lat="48.1770897" lon="15.0854777">
        <ele>210.819</ele>
        <time>2019-05-03T09:42:06.793Z</time>
      </trkpt>
      <trkpt lat="48.1770201" lon="15.0855807">
        <ele>224.285</ele>
        <time>2019-05-03T09:42:09.690Z</time>
      </trkpt>
      <trkpt lat="48.1769403" lon="15.0856895">
        <ele>226.239</ele>
        <time>2019-05-03T09:42:12.828Z</time>
      </trkpt>
      <trkpt lat="48.1768824" lon="15.0858171">
        <ele>223.733</ele>
        <time>2019-05-03T09:42:15.803Z</time>
      </trkpt>
      <trkpt lat="48.1768354" lon="15.0859663">
        <ele>221.214</ele>
        <time>2019-05-03T09:42:19.000Z</time>
      </trkpt>
      <trkpt lat="48.1768354" lon="15.0859663">
        <ele>220.022</ele>
        <time>2019-05-03T09:42:21.000Z</time>
      </trkpt>
      <trkpt lat="48.1768354" lon="15.0859663">
        <ele>219.844</ele>
        <time>2019-05-03T09:42:21.100Z</time>
      </trkpt>
      <trkpt lat="48.1767529" lon="15.0861560">
        <ele>220.042</ele>
        <time>2019-05-03T09:42:31.347Z</time>
      </trkpt>
      <trkpt lat="48.1766662" lon="15.0862118">
        <ele>220.226</ele>
        <time>2019-05-03T09:42:35.810Z</time>
      </trkpt>
      <trkpt lat="48.1765794" lon="15.0862606">
        <ele>220.303</ele>
        <time>2019-05-03T09:42:39.939Z</time>
      </trkpt>
      <trkpt lat="48.1764907" lon="15.0863354">
        <ele>220.320</ele>
        <time>2019-05-03T09:42:44.219Z</time>
      </trkpt>
      <trkpt lat="48.1764125" lon="15.0864190">
        <ele>220.322</ele>
        <time>2019-05-03T09:42:48.112Z</time>
      </trkpt>
      <trkpt lat="48.1763294" lon="15.0864937">
        <ele>220.325</ele>
        <time>2019-05-03T09:42:52.000Z</time>
      </trkpt>
      <trkpt lat="48.1763294" lon="15.0864937">
        <ele>220.325</ele>
        <time>2019-05-03T09:42:52.000Z</time>
      </trkpt>
      <trkpt lat="48.1763294" lon="15.0864937">
        <ele>220.288</ele>
        <time>2019-05-03T09:42:52.100Z</time>
      </trkpt>
      <trkpt lat="48.1761590" lon="15.0866336">
        <ele>220.196</ele>
        <time>2019-05-03T09:43:06.850Z</time>
      </trkpt>
      <trkpt lat="48.1760565" lon="15.0866697">
        <ele>220.138</ele>
        <time>2019-05-03T09:43:11.466Z</time>
      </trkpt>
      <trkpt lat="48.1759580" lon="15.0867305">
        <ele>220.186</ele>
        <time>2019-05-03T09:43:16.000Z</time>
      </trkpt>
      <trkpt lat="48.1759580" lon="15.0867305">
        <ele>220.274</ele>
        <time>2019-05-03T09:43:22.000Z</time>
      </trkpt>
      <trkpt lat="48.1759580" lon="15.0867305">
        <ele>220.284</ele>
        <time>2019-05-03T09:43:22.100Z</time>
      </trkpt>
      <trkpt lat="48.1757358" lon="15.0867890">
        <ele>220.189</ele>
        <time>2019-05-03T09:44:24.381Z</time>
      </trkpt>
      <trkpt lat="48.1756503" lon="15.0868643">
        <ele>220.114</ele>
        <time>2019-05-03T09:44:31.027Z</time>
      </trkpt>
      <trkpt lat="48.1755531" lon="15.0868765">
        <ele>220.162</ele>
        <time>2019-05-03T09:44:36.448Z</time>
      </trkpt>
      <trkpt lat="48.1754686" lon="15.0868211">
        <ele>220.262</ele>
        <time>2019-05-03T09:44:41.154Z</time>
      </trkpt>
      <trkpt lat="48.1753715" lon="15.0868209">
        <ele>220.324</ele>
        <time>2019-05-03T09:44:46.000Z</time>
      </trkpt>
      <trkpt lat="48.1753715" lon="15.0868209">
        <ele>220.343</ele>
        <time>2019-05-03T09:44:51.000Z</time>
      </trkpt>
      <trkpt lat="48.1753715" lon="15.0868209">
        <ele>220.306</ele>
        <time>2019-05-03T09:44:54.241Z</time>
      </trkpt>
      <trkpt lat="48.1752927" lon="15.0865089">
        <ele>220.213</ele>
        <time>2019-05-03T09:45:19.947Z</time>
      </trkpt>
      <trkpt lat="48.1752371" lon="15.0866186">
        <ele>220.153</ele>
        <time>2019-05-03T09:45:27.000Z</time>
      </trkpt>
      <trkpt lat="48.1752371" lon="15.0866186">
        <ele>220.195</ele>
        <time>2019-05-03T09:45:45.000Z</time>
      </trkpt>
      <trkpt lat="48.1752371" lon="15.0866186">
        <ele>220.223</ele>
        <time>2019-05-03T09:46:43.768Z</time>
      </trkpt>
      <trkpt lat="48.1750093" lon="15.0864806">
        <ele>220.129</ele>
        <time>2019-05-03T09:47:00.506Z</time>
      </trkpt>
      <trkpt lat="48.1749006" lon="15.0864475">
        <ele>212.349</ele>
        <time>2019-05-03T09:47:04.169Z</time>
      </trkpt>
      <trkpt lat="48.1748058" lon="15.0863928">
        <ele>192.372</ele>
        <time>2019-05-03T09:47:07.372Z</time>
      </trkpt>
      <trkpt lat="48.1747198" lon="15.0863333">
        <ele>172.108</ele>
        <time>2019-05-03T09:47:10.486Z</time>
      </trkpt>
      <trkpt lat="48.1746258" lon="15.0862977">
        <ele>163.053</ele>
        <time>2019-05-03T09:47:13.714Z</time>
      </trkpt>
      <trkpt lat="48.1745191" lon="15.0862651">
        <ele>169.778</ele>
        <time>2019-05-03T09:47:17.221Z</time>
      </trkpt>
      <trkpt lat="48.1744215" lon="15.0862144">
        <ele>191.143</ele>
        <time>2019-05-03T09:47:20.539Z</time>
      </trkpt>
      <trkpt lat="48.1743426" lon="15.0861267">
        <ele>212.710</ele>
        <time>2019-05-03T09:47:23.802Z</time>
      </trkpt>
      <trkpt lat="48.1742588" lon="15.0860766">
        <ele>222.913</ele>
        <time>2019-05-03T09:47:26.893Z</time>
      </trkpt>
      <trkpt lat="48.1741795" lon="15.0859864">
        <ele>224.440</ele>
        <time>2019-05-03T09:47:30.351Z</time>
      </trkpt>
      <trkpt lat="48.1741014" lon="15.0859152">
        <ele>222.664</ele>
        <time>2019-05-03T09:47:33.457Z</time>
      </trkpt>
      <trkpt lat="48.1740074" lon="15.0858155">
        <ele>220.838</ele>
        <time>2019-05-03T09:47:37.256Z</time>
      </trkpt>
      <trkpt lat="48.1739215" lon="15.0857306">
        <ele>219.865</ele>
        <time>2019-05-03T09:47:40.612Z</time>
      </trkpt>
      <trkpt lat="48.1738468" lon="15.0856497">
        <ele>219.507</ele>
        <time>2019-05-03T09:47:43.613Z</time>
      </trkpt>
      <trkpt lat="48.1737619" lon="15.0855639">
        <ele>219.379</ele>
        <time>2019-05-03T09:47:46.841Z</time>
      </trkpt>
      <trkpt lat="48.1736709" lon="15.0854727">
        <ele>219.295</ele>
        <time>2019-05-03T09:47:50.235Z</time>
      </trkpt>
      <trkpt lat="48.1735743" lon="15.0855727">
        <ele>219.213</ele>
        <time>2019-05-03T09:47:54.000Z</time>
      </trkpt>
      <trkpt lat="48.1735743" lon="15.0855727">
        <ele>219.133</ele>
        <time>2019-05-03T09:47:57.000Z</time>
      </trkpt>
      <trkpt lat="48.1735743" lon="15.0855727">
        <ele>219.057</ele>
        <time>2019-05-03T09:47:57.100Z</time>
      </trkpt>
      <trkpt lat="48.1733424" lon="15.0856872">
        <ele>218.992</ele>
        <time>2019-05-03T09:48:17.777Z</time>
      </trkpt>
      <trkpt lat="48.1732368" lon="15.0856779">
        <ele>218.953</ele>
        <time>2019-05-03T09:48:22.459Z</time>
      </trkpt>
      <trkpt lat="48.1731279" lon="15.0856369">
        <ele>218.951</ele>
        <time>2019-05-03T09:48:27.063Z</time>
      </trkpt>
      <trkpt lat="48.1730370" lon="15.0856614">
        <ele>219.017</ele>
        <time>2019-05-03T09:48:30.636Z</time>
      </trkpt>
      <trkpt lat="48.1729432" lon="15.0856318">
        <ele>219.189</ele>
        <time>2019-05-03T09:48:34.188Z</time>
      </trkpt>
      <trkpt lat="48.1728333" lon="15.0855876">
        <ele>219.452</ele>
        <time>2019-05-03T09:48:37.985Z</time>
      </trkpt>
      <trkpt lat="48.1727183" lon="15.0855439">
        <ele>219.740</ele>
        <time>2019-05-03T09:48:41.685Z</time>
      </trkpt>
      <trkpt lat="48.1726087" lon="15.0855822">
        <ele>219.979</ele>
        <time>2019-05-03T09:48:44.935Z</time>
      </trkpt>
      <trkpt lat="48.1724951" lon="15.0855723">
        <ele>220.133</ele>
        <time>2019-05-03T09:48:47.998Z</time>
      </trkpt>
      <trkpt lat="48.1723678" lon="15.0855547">
        <ele>220.213</ele>
        <time>2019-05-03T09:48:51.347Z</time>
      </trkpt>
      <trkpt lat="48.1722716" lon="15.0855256">
        <ele>220.250</ele>
        <time>2019-05-03T09:48:53.971Z</time>
      </trkpt>
      <trkpt lat="48.1721520" lon="15.0855372">
        <ele>220.268</ele>
        <time>2019-05-03T09:48:57.186Z</time>
      </trkpt>
      <trkpt lat="48.1720383" lon="15.0855417">
        <ele>220.281</ele>
        <time>2019-05-03T09:49:00.158Z</time>
      </trkpt>
      <trkpt lat="48.1719179" lon="15.0855099">
        <ele>220.292</ele>
        <time>2019-05-03T09:49:03.252Z</time>
      </trkpt>
      <trkpt lat="48.1718051" lon="15.0854954">
        <ele>220.302</ele>
        <time>2019-05-03T09:49:06.176Z</time>
      </trkpt>
      <trkpt lat="48.1717142" lon="15.0854882">
        <ele>220.310</ele>
        <time>2019-05-03T09:49:08.628Z</time>
      </trkpt>
      <trkpt lat="48.1716187" lon="15.0854402">
        <ele>220.315</ele>
        <time>2019-05-03T09:49:11.421Z</time>
      </trkpt>
      <trkpt lat="48.1715039" lon="15.0855029">
        <ele>220.318</ele>
        <time>2019-05-03T09:49:14.832Z</time>
      </trkpt>
      <trkpt lat="48.1713940" lon="15.0855057">
        <ele>220.320</ele>
        <time>2019-05-03T09:49:18.091Z</time>
      </trkpt>
      <trkpt lat="48.1712917" lon="15.0855152">
        <ele>220.322</ele>
        <time>2019-05-03T09:49:21.842Z</time>
      </trkpt>
      <trkpt lat="48.1711977" lon="15.0854669">
        <ele>220.323</ele>
        <time>2019-05-03T09:49:26.733Z</time>
      </trkpt>
      <trkpt lat="48.1711163" lon="15.0855320">
        <ele>220.323</ele>
        <time>2019-05-03T09:49:31.320Z</time>
      </trkpt>
      <trkpt lat="48.1710119" lon="15.0855295">
        <ele>220.324</ele>
        <time>2019-05-03T09:49:36.509Z</time>
      </trkpt>
      <trkpt lat="48.1708936" lon="15.0855332">
        <ele>220.325</ele>
        <time>2019-05-03T09:49:42.597Z</time>
      </trkpt>
      <trkpt lat="48.1707748" lon="15.0855866">
        <ele>220.325</ele>
        <time>2019-05-03T09:49:46.999Z</time>
      </trkpt>
      <trkpt lat="48.1707748" lon="15.0855866">
        <ele>220.325</ele>
        <time>2019-05-03T09:49:47.999Z</time>
      </trkpt>
      <trkpt lat="48.1707748" lon="15.0855866">
        <ele>220.290</ele>
        <time>2019-05-03T09:49:48.099Z</time>
      </trkpt>
      <trkpt lat="48.1706055" lon="15.0856726">
        <ele>220.199</ele>
        <time>2019-05-03T09:49:56.514Z</time>
      </trkpt>
      <trkpt lat="48.1705161" lon="15.0857241">
        <ele>220.140</ele>
        <time>2019-05-03T09:49:59.617Z</time>
      </trkpt>
      <trkpt lat="48.1704258" lon="15.0857746">
        <ele>220.187</ele>
        <time>2019-05-03T09:50:02.608Z</time>
      </trkpt>
      <trkpt lat="48.1703380" lon="15.0858059">
        <ele>220.274</ele>
        <time>2019-05-03T09:50:05.361Z</time>
      </trkpt>
      <trkpt lat="48.1702522" lon="15.0858760">
        <ele>220.326</ele>
        <time>2019-05-03T09:50:08.298Z</time>
      </trkpt>
      <trkpt lat="48.1701608" lon="15.0859400">
        <ele>220.341</ele>
        <time>2019-05-03T09:50:11.300Z</time>
      </trkpt>
      <trkpt lat="48.1700701" lon="15.0860161">
        <ele>220.336</ele>
        <time>2019-05-03T09:50:14.300Z</time>
      </trkpt>
      <trkpt lat="48.1699791" lon="15.0861071">
        <ele>220.329</ele>
        <time>2019-05-03T09:50:17.340Z</time>
      </trkpt>
      <trkpt lat="48.1698738" lon="15.0861238">
        <ele>220.325</ele>
        <time>2019-05-03T09:50:20.204Z</time>
      </trkpt>
      <trkpt lat="48.1697772" lon="15.0861554">
        <ele>220.324</ele>
        <time>2019-05-03T09:50:22.807Z</time>
      </trkpt>
      <trkpt lat="48.1696717" lon="15.0862471">
        <ele>220.324</ele>
        <time>2019-05-03T09:50:25.864Z</time>
      </trkpt>
      <trkpt lat="48.1695826" lon="15.0863033">
        <ele>220.325</ele>
        <time>2019-05-03T09:50:28.209Z</time>
      </trkpt>
      <trkpt lat="48.1694807" lon="15.0863918">
        <ele>220.325</ele>
        <time>2019-05-03T09:50:30.973Z</time>
      </trkpt>
      <trkpt lat="48.1693616" lon="15.0864783">
        <ele>220.325</ele>
        <time>2019-05-03T09:50:33.832Z</time>
      </trkpt>
      <trkpt lat="48.1692617" lon="15.0865359">
        <ele>220.325</ele>
        <time>2019-05-03T09:50:36.021Z</time>
      </trkpt>
      <trkpt lat="48.1691642" lon="15.0866032">
        <ele>220.325</ele>
        <time>2019-05-03T09:50:38.206Z</time>
      </trkpt>
      <trkpt lat="48.1690675" lon="15.0866807">
        <ele>220.325</ele>
        <time>2019-05-03T09:50:40.482Z</time>
      </trkpt>
      <trkpt lat="48.1689667" lon="15.0867260">
        <ele>220.325</ele>
        <time>2019-05-03T09:50:42.699Z</time>
      </trkpt>
      <trkpt lat="48.1688547" lon="15.0868091">
        <ele>220.325</ele>
        <time>2019-05-03T09:50:45.409Z</time>
      </trkpt>
      <trkpt lat="48.1687228" lon="15.0868312">
        <ele>220.325</ele>
        <time>2019-05-03T09:50:48.325Z</time>
      </trkpt>
      <trkpt lat="48.1686417" lon="15.0868978">
        <ele>220.325</ele>
        <time>2019-05-03T09:50:50.367Z</time>
      </trkpt>
      <trkpt lat="48.1685379" lon="15.0869830">
        <ele>220.325</ele>
        <time>2019-05-03T09:50:53.083Z</time>
      </trkpt>
      <trkpt lat="48.1684196" lon="15.0870386">
        <ele>220.325</ele>
        <time>2019-05-03T09:50:56.014Z</time>
      </trkpt>
      <trkpt lat="48.1683096" lon="15.0871146">
        <ele>220.325</ele>
        <time>2019-05-03T09:50:58.992Z</time>
      </trkpt>
      <trkpt lat="48.1682131" lon="15.0871765">
        <ele>220.325</ele>
        <time>2019-05-03T09:51:01.593Z</time>
      </trkpt>
      <trkpt lat="48.1681259" lon="15.0872587">
        <ele>220.325</ele>
        <time>2019-05-03T09:51:04.147Z</time>
      </trkpt>
      <trkpt lat="48.1680193" lon="15.0873302">
        <ele>220.325</ele>
        <time>2019-05-03T09:51:07.063Z</time>
      </trkpt>
      <trkpt lat="48.1678977" lon="15.0873906">
        <ele>220.325</ele>
        <time>2019-05-03T09:51:10.290Z</time>
      </trkpt>
      <trkpt lat="48.1678076" lon="15.0874387">
        <ele>220.325</ele>
        <time>2019-05-03T09:51:12.716Z</time>
      </trkpt>
      <trkpt lat="48.1677232" lon="15.0874987">
        <ele>219.791</ele>
        <time>2019-05-03T09:51:15.157Z</time>
      </trkpt>
      <trkpt lat="48.1676267" lon="15.0875654">
        <ele>217.210</ele>
        <time>2019-05-03T09:51:18.017Z</time>
      </trkpt>
      <trkpt lat="48.1675457" lon="15.0876596">
        <ele>211.834</ele>
        <time>2019-05-03T09:51:20.790Z</time>
      </trkpt>
      <trkpt lat="48.1674669" lon="15.0877557">
        <ele>204.542</ele>
        <time>2019-05-03T09:51:23.435Z</time>
      </trkpt>
      <trkpt lat="48.1674048" lon="15.0878533">
        <ele>197.276</ele>
        <time>2019-05-03T09:51:25.717Z</time>
      </trkpt>
      <trkpt lat="48.1673168" lon="15.0879758">
        <ele>192.224</ele>
        <time>2019-05-03T09:51:28.712Z</time>
      </trkpt>
      <trkpt lat="48.1672372" lon="15.0881287">
        <ele>190.153</ele>
        <time>2019-05-03T09:51:31.799Z</time>
      </trkpt>
      <trkpt lat="48.1671802" lon="15.0882442">
        <ele>193.635</ele>
        <time>2019-05-03T09:51:33.962Z</time>
      </trkpt>
      <trkpt lat="48.1670850" lon="15.0883785">
        <ele>204.054</ele>
        <time>2019-05-03T09:51:36.833Z</time>
      </trkpt>
      <trkpt lat="48.1669935" lon="15.0884386">
        <ele>215.297</ele>
        <time>2019-05-03T09:51:38.966Z</time>
      </trkpt>
      <trkpt lat="48.1668900" lon="15.0885703">
        <ele>221.177</ele>
        <time>2019-05-03T09:51:41.813Z</time>
      </trkpt>
      <trkpt lat="48.1668220" lon="15.0886764">
        <ele>222.398</ele>
        <time>2019-05-03T09:51:43.830Z</time>
      </trkpt>
      <trkpt lat="48.1667636" lon="15.0887887">
        <ele>221.641</ele>
        <time>2019-05-03T09:51:45.786Z</time>
      </trkpt>
      <trkpt lat="48.1667255" lon="15.0889599">
        <ele>220.724</ele>
        <time>2019-05-03T09:51:48.284Z</time>
      </trkpt>
      <trkpt lat="48.1666974" lon="15.0891049">
        <ele>220.250</ele>
        <time>2019-05-03T09:51:50.390Z</time>
      </trkpt>
      <trkpt lat="48.1666321" lon="15.0892292">
        <ele>220.155</ele>
        <time>2019-05-03T09:51:52.621Z</time>
      </trkpt>
      <trkpt lat="48.1666062" lon="15.0894061">
        <ele>220.219</ele>
        <time>2019-05-03T09:51:55.321Z</time>
      </trkpt>
      <trkpt lat="48.1665774" lon="15.0895492">
        <ele>220.294</ele>
        <time>2019-05-03T09:51:57.600Z</time>
      </trkpt>
      <trkpt lat="48.1665125" lon="15.0897024">
        <ele>220.332</ele>
        <time>2019-05-03T09:52:00.476Z</time>
      </trkpt>
      <trkpt lat="48.1664437" lon="15.0898455">
        <ele>220.339</ele>
        <time>2019-05-03T09:52:03.252Z</time>
      </trkpt>
      <trkpt lat="48.1663951" lon="15.0899642">
        <ele>220.334</ele>
        <time>2019-05-03T09:52:05.369Z</time>
      </trkpt>
      <trkpt lat="48.1663519" lon="15.0900913">
        <ele>220.328</ele>
        <time>2019-05-03T09:52:07.458Z</time>
      </trkpt>
      <trkpt lat="48.1662976" lon="15.0902168">
        <ele>220.325</ele>
        <time>2019-05-03T09:52:09.569Z</time>
      </trkpt>
      <trkpt lat="48.1662430" lon="15.0903378">
        <ele>220.324</ele>
        <time>2019-05-03T09:52:11.556Z</time>
      </trkpt>
      <trkpt lat="48.1661626" lon="15.0904058">
        <ele>220.325</ele>
        <time>2019-05-03T09:52:13.410Z</time>
      </trkpt>
      <trkpt lat="48.1660927" lon="15.0905941">
        <ele>220.325</ele>
        <time>2019-05-03T09:52:16.328Z</time>
      </trkpt>
      <trkpt lat="48.1660088" lon="15.0907628">
        <ele>220.325</ele>
        <time>2019-05-03T09:52:19.236Z</time>
      </trkpt>
      <trkpt lat="48.1659205" lon="15.0909247">
        <ele>220.325</ele>
        <time>2019-05-03T09:52:22.089Z</time>
      </trkpt>
      <trkpt lat="48.1658713" lon="15.0910659">
        <ele>220.325</ele>
        <time>2019-05-03T09:52:24.128Z</time>
      </trkpt>
      <trkpt lat="48.1658141" lon="15.0911887">
        <ele>220.325</ele>
        <time>2019-05-03T09:52:26.000Z</time>
      </trkpt>
      <trkpt lat="48.1658141" lon="15.0911887">
        <ele>220.325</ele>
        <time>2019-05-03T09:52:26.000Z</time>
      </trkpt>
      <trkpt lat="48.1658141" lon="15.0911887">
        <ele>220.290</ele>
        <time>2019-05-03T09:52:26.176Z</time>
      </trkpt>
      <trkpt lat="48.1657181" lon="15.0913617">
        <ele>220.199</ele>
        <time>2019-05-03T09:52:31.624Z</time>
      </trkpt>
      <trkpt lat="48.1656440" lon="15.0914430">
        <ele>220.140</ele>
        <time>2019-05-03T09:52:33.703Z</time>
      </trkpt>
      <trkpt lat="48.1655837" lon="15.0915609">
        <ele>220.187</ele>
        <time>2019-05-03T09:52:35.665Z</time>
      </trkpt>
      <trkpt lat="48.1655266" lon="15.0917421">
        <ele>220.274</ele>
        <time>2019-05-03T09:52:37.881Z</time>
      </trkpt>
      <trkpt lat="48.1654594" lon="15.0919213">
        <ele>220.326</ele>
        <time>2019-05-03T09:52:39.896Z</time>
      </trkpt>
      <trkpt lat="48.1653935" lon="15.0920832">
        <ele>220.341</ele>
        <time>2019-05-03T09:52:41.678Z</time>
      </trkpt>
      <trkpt lat="48.1653275" lon="15.0922567">
        <ele>220.336</ele>
        <time>2019-05-03T09:52:43.529Z</time>
      </trkpt>
      <trkpt lat="48.1652267" lon="15.0924380">
        <ele>220.329</ele>
        <time>2019-05-03T09:52:45.789Z</time>
      </trkpt>
      <trkpt lat="48.1651124" lon="15.0925709">
        <ele>220.325</ele>
        <time>2019-05-03T09:52:48.107Z</time>
      </trkpt>
      <trkpt lat="48.1650237" lon="15.0926890">
        <ele>220.324</ele>
        <time>2019-05-03T09:52:50.473Z</time>
      </trkpt>
      <trkpt lat="48.1649344" lon="15.0927871">
        <ele>220.324</ele>
        <time>2019-05-03T09:52:53.217Z</time>
      </trkpt>
      <trkpt lat="48.1648271" lon="15.0928342">
        <ele>220.325</ele>
        <time>2019-05-03T09:52:56.719Z</time>
      </trkpt>
      <trkpt lat="48.1647727" lon="15.0929499">
        <ele>220.325</ele>
        <time>2019-05-03T09:53:00.126Z</time>
      </trkpt>
      <trkpt lat="48.1647354" lon="15.0930880">
        <ele>220.325</ele>
        <time>2019-05-03T09:53:04.265Z</time>
      </trkpt>
      <trkpt lat="48.1647090" lon="15.0932259">
        <ele>220.325</ele>
        <time>2019-05-03T09:53:08.945Z</time>
      </trkpt>
      <trkpt lat="48.1646126" lon="15.0932705">
        <ele>220.325</ele>
        <time>2019-05-03T09:53:13.858Z</time>
      </trkpt>
      <trkpt lat="48.1645540" lon="15.0934045">
        <ele>220.325</ele>
        <time>2019-05-03T09:53:18.143Z</time>
      </trkpt>
      <trkpt lat="48.1644915" lon="15.0935330">
        <ele>220.325</ele>
        <time>2019-05-03T09:53:21.765Z</time>
      </trkpt>
      <trkpt lat="48.1644076" lon="15.0936585">
        <ele>220.325</ele>
        <time>2019-05-03T09:53:25.442Z</time>
      </trkpt>
      <trkpt lat="48.1643432" lon="15.0937724">
        <ele>220.324</ele>
        <time>2019-05-03T09:53:28.264Z</time>
      </trkpt>
      <trkpt lat="48.1642790" lon="15.0939006">
        <ele>220.278</ele>
        <time>2019-05-03T09:53:31.135Z</time>
      </trkpt>
      <trkpt lat="48.1642050" lon="15.0940182">
        <ele>219.551</ele>
        <time>2019-05-03T09:53:33.955Z</time>
      </trkpt>
      <trkpt lat="48.1641476" lon="15.0941581">
        <ele>217.394</ele>
        <time>2019-05-03T09:53:36.800Z</time>
      </trkpt>
      <trkpt lat="48.1640635" lon="15.0942719">
        <ele>214.316</ele>
        <time>2019-05-03T09:53:39.749Z</time>
      </trkpt>
      <trkpt lat="48.1640136" lon="15.0944036">
        <ele>211.684</ele>
        <time>2019-05-03T09:53:42.395Z</time>
      </trkpt>
      <trkpt lat="48.1639416" lon="15.0945245">
        <ele>210.225</ele>
        <time>2019-05-03T09:53:45.226Z</time>
      </trkpt>
      <trkpt lat="48.1638701" lon="15.0946583">
        <ele>209.817</ele>
        <time>2019-05-03T09:53:48.293Z</time>
      </trkpt>
      <trkpt lat="48.1637999" lon="15.0947726">
        <ele>210.007</ele>
        <time>2019-05-03T09:53:51.182Z</time>
      </trkpt>
      <trkpt lat="48.1637456" lon="15.0948840">
        <ele>210.381</ele>
        <time>2019-05-03T09:53:53.963Z</time>
      </trkpt>
      <trkpt lat="48.1636868" lon="15.0950029">
        <ele>210.433</ele>
        <time>2019-05-03T09:53:57.000Z</time>
      </trkpt>
      <trkpt lat="48.1636868" lon="15.0950029">
        <ele>209.944</ele>
        <time>2019-05-03T09:53:57.000Z</time>
      </trkpt>
      <trkpt lat="48.1636868" lon="15.0950029">
        <ele>209.423</ele>
        <time>2019-05-03T09:53:57.100Z</time>
      </trkpt>
      <trkpt lat="48.1636121" lon="15.0952027">
        <ele>209.335</ele>
        <time>2019-05-03T09:54:03.657Z</time>
      </trkpt>
      <trkpt lat="48.1636010" lon="15.0953466">
        <ele>209.506</ele>
        <time>2019-05-03T09:54:07.182Z</time>
      </trkpt>
      <trkpt lat="48.1636003" lon="15.0954849">
        <ele>210.926</ele>
        <time>2019-05-03T09:54:11.251Z</time>
      </trkpt>
      <trkpt lat="48.1636185" lon="15.0956195">
        <ele>214.487</ele>
        <time>2019-05-03T09:54:16.000Z</time>
      </trkpt>
      <trkpt lat="48.1636185" lon="15.0956195">
        <ele>218.388</ele>
        <time>2019-05-03T09:54:18.000Z</time>
      </trkpt>
      <trkpt lat="48.1636185" lon="15.0956195">
        <ele>220.207</ele>
        <time>2019-05-03T09:54:18.100Z</time>
      </trkpt>
      <trkpt lat="48.1637990" lon="15.0957864">
        <ele>219.917</ele>
        <time>2019-05-03T09:54:26.853Z</time>
      </trkpt>
      <trkpt lat="48.1638811" lon="15.0958791">
        <ele>219.187</ele>
        <time>2019-05-03T09:54:29.653Z</time>
      </trkpt>
      <trkpt lat="48.1639744" lon="15.0959645">
        <ele>219.279</ele>
        <time>2019-05-03T09:54:32.479Z</time>
      </trkpt>
      <trkpt lat="48.1640666" lon="15.0960448">
        <ele>219.855</ele>
        <time>2019-05-03T09:54:35.053Z</time>
      </trkpt>
      <trkpt lat="48.1641669" lon="15.0961188">
        <ele>220.249</ele>
        <time>2019-05-03T09:54:37.538Z</time>
      </trkpt>
      <trkpt lat="48.1642662" lon="15.0962268">
        <ele>220.362</ele>
        <time>2019-05-03T09:54:40.099Z</time>
      </trkpt>
      <trkpt lat="48.1643684" lon="15.0963385">
        <ele>220.329</ele>
        <time>2019-05-03T09:54:42.567Z</time>
      </trkpt>
      <trkpt lat="48.1644601" lon="15.0964161">
        <ele>220.278</ele>
        <time>2019-05-03T09:54:44.500Z</time>
      </trkpt>
      <trkpt lat="48.1645658" lon="15.0965034">
        <ele>220.257</ele>
        <time>2019-05-03T09:54:46.665Z</time>
      </trkpt>
      <trkpt lat="48.1646474" lon="15.0965755">
        <ele>220.264</ele>
        <time>2019-05-03T09:54:48.372Z</time>
      </trkpt>
      <trkpt lat="48.1647317" lon="15.0966723">
        <ele>220.280</ele>
        <time>2019-05-03T09:54:50.320Z</time>
      </trkpt>
      <trkpt lat="48.1648263" lon="15.0967559">
        <ele>220.292</ele>
        <time>2019-05-03T09:54:52.362Z</time>
      </trkpt>
      <trkpt lat="48.1649199" lon="15.0968283">
        <ele>220.296</ele>
        <time>2019-05-03T09:54:54.309Z</time>
      </trkpt>
      <trkpt lat="48.1650171" lon="15.0969205">
        <ele>220.282</ele>
        <time>2019-05-03T09:54:56.405Z</time>
      </trkpt>
      <trkpt lat="48.1651101" lon="15.0969989">
        <ele>220.243</ele>
        <time>2019-05-03T09:54:58.368Z</time>
      </trkpt>
      <trkpt lat="48.1651949" lon="15.0970799">
        <ele>220.192</ele>
        <time>2019-05-03T09:55:00.234Z</time>
      </trkpt>
      <trkpt lat="48.1652840" lon="15.0971732">
        <ele>220.139</ele>
        <time>2019-05-03T09:55:02.231Z</time>
      </trkpt>
      <trkpt lat="48.1653624" lon="15.0972669">
        <ele>220.065</ele>
        <time>2019-05-03T09:55:04.067Z</time>
      </trkpt>
      <trkpt lat="48.1654550" lon="15.0973619">
        <ele>219.943</ele>
        <time>2019-05-03T09:55:06.124Z</time>
      </trkpt>
      <trkpt lat="48.1655529" lon="15.0974657">
        <ele>219.785</ele>
        <time>2019-05-03T09:55:08.371Z</time>
      </trkpt>
      <trkpt lat="48.1656254" lon="15.0975533">
        <ele>219.633</ele>
        <time>2019-05-03T09:55:10.180Z</time>
      </trkpt>
      <trkpt lat="48.1657215" lon="15.0976802">
        <ele>219.511</ele>
        <time>2019-05-03T09:55:12.705Z</time>
      </trkpt>
      <trkpt lat="48.1658028" lon="15.0977684">
        <ele>219.403</ele>
        <time>2019-05-03T09:55:14.635Z</time>
      </trkpt>
      <trkpt lat="48.1658877" lon="15.0978874">
        <ele>219.300</ele>
        <time>2019-05-03T09:55:16.794Z</time>
      </trkpt>
      <trkpt lat="48.1659748" lon="15.0979870">
        <ele>219.212</ele>
        <time>2019-05-03T09:55:18.818Z</time>
      </trkpt>
      <trkpt lat="48.1660611" lon="15.0980658">
        <ele>219.147</ele>
        <time>2019-05-03T09:55:20.754Z</time>
      </trkpt>
      <trkpt lat="48.1661424" lon="15.0981653">
        <ele>219.101</ele>
        <time>2019-05-03T09:55:23.308Z</time>
      </trkpt>
      <trkpt lat="48.1662102" lon="15.0982640">
        <ele>219.071</ele>
        <time>2019-05-03T09:55:26.077Z</time>
      </trkpt>
      <trkpt lat="48.1662697" lon="15.0983806">
        <ele>219.059</ele>
        <time>2019-05-03T09:55:30.000Z</time>
      </trkpt>
      <trkpt lat="48.1662697" lon="15.0983806">
        <ele>219.061</ele>
        <time>2019-05-03T09:55:33.999Z</time>
      </trkpt>
      <trkpt lat="48.1662697" lon="15.0983806">
        <ele>219.032</ele>
        <time>2019-05-03T09:57:20.281Z</time>
      </trkpt>
      <trkpt lat="48.1661335" lon="15.0982271">
        <ele>218.941</ele>
        <time>2019-05-03T09:57:43.000Z</time>
      </trkpt>
      <trkpt lat="48.1661335" lon="15.0982271">
        <ele>218.827</ele>
        <time>2019-05-03T09:57:48.000Z</time>
      </trkpt>
      <trkpt lat="48.1661335" lon="15.0982271">
        <ele>218.722</ele>
        <time>2019-05-03T09:57:57.663Z</time>
      </trkpt>
      <trkpt lat="48.1660191" lon="15.0980773">
        <ele>218.645</ele>
        <time>2019-05-03T09:58:11.232Z</time>
      </trkpt>
      <trkpt lat="48.1659366" lon="15.0979896">
        <ele>218.658</ele>
        <time>2019-05-03T09:58:15.689Z</time>
      </trkpt>
      <trkpt lat="48.1658784" lon="15.0978760">
        <ele>218.762</ele>
        <time>2019-05-03T09:58:18.921Z</time>
      </trkpt>
      <trkpt lat="48.1657681" lon="15.0978386">
        <ele>218.876</ele>
        <time>2019-05-03T09:58:22.046Z</time>
      </trkpt>
      <trkpt lat="48.1656792" lon="15.0977362">
        <ele>218.939</ele>
        <time>2019-05-03T09:58:25.000Z</time>
      </trkpt>
      <trkpt lat="48.1656792" lon="15.0977362">
        <ele>218.954</ele>
        <time>2019-05-03T09:58:25.000Z</time>
      </trkpt>
      <trkpt lat="48.1656792" lon="15.0977362">
        <ele>218.915</ele>
        <time>2019-05-03T09:58:26.252Z</time>
      </trkpt>
      <trkpt lat="48.1655873" lon="15.0975363">
        <ele>218.822</ele>
        <time>2019-05-03T09:58:34.433Z</time>
      </trkpt>
      <trkpt lat="48.1655129" lon="15.0974501">
        <ele>218.764</ele>
        <time>2019-05-03T09:58:37.326Z</time>
      </trkpt>
      <trkpt lat="48.1654245" lon="15.0973388">
        <ele>218.807</ele>
        <time>2019-05-03T09:58:40.705Z</time>
      </trkpt>
      <trkpt lat="48.1653310" lon="15.0972471">
        <ele>218.901</ele>
        <time>2019-05-03T09:58:43.831Z</time>
      </trkpt>
      <trkpt lat="48.1652395" lon="15.0971687">
        <ele>218.984</ele>
        <time>2019-05-03T09:58:46.715Z</time>
      </trkpt>
      <trkpt lat="48.1651528" lon="15.0970818">
        <ele>219.039</ele>
        <time>2019-05-03T09:58:49.491Z</time>
      </trkpt>
      <trkpt lat="48.1650542" lon="15.0969643">
        <ele>219.072</ele>
        <time>2019-05-03T09:58:52.670Z</time>
      </trkpt>
      <trkpt lat="48.1649522" lon="15.0968467">
        <ele>219.120</ele>
        <time>2019-05-03T09:58:55.627Z</time>
      </trkpt>
      <trkpt lat="48.1648727" lon="15.0967434">
        <ele>219.228</ele>
        <time>2019-05-03T09:58:57.836Z</time>
      </trkpt>
      <trkpt lat="48.1647818" lon="15.0966734">
        <ele>219.391</ele>
        <time>2019-05-03T09:58:59.838Z</time>
      </trkpt>
      <trkpt lat="48.1646933" lon="15.0965877">
        <ele>219.540</ele>
        <time>2019-05-03T09:59:01.798Z</time>
      </trkpt>
      <trkpt lat="48.1645977" lon="15.0965111">
        <ele>219.643</ele>
        <time>2019-05-03T09:59:03.740Z</time>
      </trkpt>
      <trkpt lat="48.1645049" lon="15.0964297">
        <ele>219.726</ele>
        <time>2019-05-03T09:59:05.615Z</time>
      </trkpt>
      <trkpt lat="48.1644043" lon="15.0963349">
        <ele>219.817</ele>
        <time>2019-05-03T09:59:07.661Z</time>
      </trkpt>
      <trkpt lat="48.1643163" lon="15.0962480">
        <ele>219.913</ele>
        <time>2019-05-03T09:59:09.486Z</time>
      </trkpt>
      <trkpt lat="48.1642331" lon="15.0961661">
        <ele>220.000</ele>
        <time>2019-05-03T09:59:11.236Z</time>
      </trkpt>
      <trkpt lat="48.1641538" lon="15.0960893">
        <ele>220.071</ele>
        <time>2019-05-03T09:59:12.933Z</time>
      </trkpt>
      <trkpt lat="48.1640718" lon="15.0960143">
        <ele>220.125</ele>
        <time>2019-05-03T09:59:14.733Z</time>
      </trkpt>
      <trkpt lat="48.1639484" lon="15.0959214">
        <ele>220.161</ele>
        <time>2019-05-03T09:59:17.366Z</time>
      </trkpt>
      <trkpt lat="48.1638415" lon="15.0958968">
        <ele>220.174</ele>
        <time>2019-05-03T09:59:19.510Z</time>
      </trkpt>
      <trkpt lat="48.1636964" lon="15.0957817">
        <ele>220.166</ele>
        <time>2019-05-03T09:59:22.910Z</time>
      </trkpt>
      <trkpt lat="48.1636057" lon="15.0957114">
        <ele>220.162</ele>
        <time>2019-05-03T09:59:25.306Z</time>
      </trkpt>
      <trkpt lat="48.1635042" lon="15.0957057">
        <ele>220.182</ele>
        <time>2019-05-03T09:59:28.329Z</time>
      </trkpt>
      <trkpt lat="48.1634066" lon="15.0958007">
        <ele>220.221</ele>
        <time>2019-05-03T09:59:32.454Z</time>
      </trkpt>
      <trkpt lat="48.1633071" lon="15.0965812">
        <ele>220.278</ele>
        <time>2019-05-03T09:59:47.550Z</time>
      </trkpt>
      <trkpt lat="48.1633015" lon="15.0967278">
        <ele>220.294</ele>
        <time>2019-05-03T09:59:49.725Z</time>
      </trkpt>
      <trkpt lat="48.1632947" lon="15.0969099">
        <ele>220.309</ele>
        <time>2019-05-03T09:59:52.403Z</time>
      </trkpt>
      <trkpt lat="48.1632773" lon="15.0970606">
        <ele>220.319</ele>
        <time>2019-05-03T09:59:54.580Z</time>
      </trkpt>
      <trkpt lat="48.1632659" lon="15.0972174">
        <ele>220.326</ele>
        <time>2019-05-03T09:59:56.798Z</time>
      </trkpt>
      <trkpt lat="48.1632469" lon="15.0973668">
        <ele>220.349</ele>
        <time>2019-05-03T09:59:59.001Z</time>
      </trkpt>
      <trkpt lat="48.1632469" lon="15.0973668">
        <ele>220.397</ele>
        <time>2019-05-03T10:00:04.001Z</time>
      </trkpt>
      <trkpt lat="48.1632469" lon="15.0973668">
        <ele>220.399</ele>
        <time>2019-05-03T10:00:07.132Z</time>
      </trkpt>
      <trkpt lat="48.1633121" lon="15.0972208">
        <ele>220.193</ele>
        <time>2019-05-03T10:00:13.510Z</time>
      </trkpt>
      <trkpt lat="48.1633248" lon="15.0970473">
        <ele>220.296</ele>
        <time>2019-05-03T10:00:16.548Z</time>
      </trkpt>
      <trkpt lat="48.1633456" lon="15.0968661">
        <ele>220.706</ele>
        <time>2019-05-03T10:00:19.351Z</time>
      </trkpt>
      <trkpt lat="48.1633801" lon="15.0966870">
        <ele>221.117</ele>
        <time>2019-05-03T10:00:22.001Z</time>
      </trkpt>
      <trkpt lat="48.1633801" lon="15.0966870">
        <ele>221.227</ele>
        <time>2019-05-03T10:00:23.001Z</time>
      </trkpt>
      <trkpt lat="48.1633801" lon="15.0966870">
        <ele>221.109</ele>
        <time>2019-05-03T10:00:23.101Z</time>
      </trkpt>
      <trkpt lat="48.1634242" lon="15.0963784">
        <ele>220.955</ele>
        <time>2019-05-03T10:00:27.001Z</time>
      </trkpt>
      <trkpt lat="48.1634242" lon="15.0963784">
        <ele>220.844</ele>
        <time>2019-05-03T10:00:32.001Z</time>
      </trkpt>
      <trkpt lat="48.1634242" lon="15.0963784">
        <ele>220.751</ele>
        <time>2019-05-03T10:05:24.816Z</time>
      </trkpt>
      <trkpt lat="48.1632990" lon="15.0960530">
        <ele>220.668</ele>
        <time>2019-05-03T10:07:07.000Z</time>
      </trkpt>
      <trkpt lat="48.1632990" lon="15.0960530">
        <ele>220.587</ele>
        <time>2019-05-03T10:07:10.000Z</time>
      </trkpt>
      <trkpt lat="48.1632990" lon="15.0960530">
        <ele>220.485</ele>
        <time>2019-05-03T10:07:22.566Z</time>
      </trkpt>
      <trkpt lat="48.1632507" lon="15.0963366">
        <ele>220.386</ele>
        <time>2019-05-03T10:07:35.342Z</time>
      </trkpt>
      <trkpt lat="48.1632333" lon="15.0965019">
        <ele>212.980</ele>
        <time>2019-05-03T10:07:39.206Z</time>
      </trkpt>
      <trkpt lat="48.1632116" lon="15.0966603">
        <ele>193.825</ele>
        <time>2019-05-03T10:07:42.718Z</time>
      </trkpt>
      <trkpt lat="48.1632101" lon="15.0968369">
        <ele>174.364</ele>
        <time>2019-05-03T10:07:46.261Z</time>
      </trkpt>
      <trkpt lat="48.1632185" lon="15.0970058">
        <ele>165.727</ele>
        <time>2019-05-03T10:07:49.411Z</time>
      </trkpt>
      <trkpt lat="48.1632221" lon="15.0971549">
        <ele>165.689</ele>
        <time>2019-05-03T10:07:52.001Z</time>
      </trkpt>
      <trkpt lat="48.1632149" lon="15.0973032">
        <ele>175.650</ele>
        <time>2019-05-03T10:07:54.505Z</time>
      </trkpt>
      <trkpt lat="48.1631950" lon="15.0974671">
        <ele>195.902</ele>
        <time>2019-05-03T10:07:57.305Z</time>
      </trkpt>
      <trkpt lat="48.1631983" lon="15.0976306">
        <ele>215.041</ele>
        <time>2019-05-03T10:08:00.110Z</time>
      </trkpt>
      <trkpt lat="48.1632050" lon="15.0977833">
        <ele>223.705</ele>
        <time>2019-05-03T10:08:02.777Z</time>
      </trkpt>
      <trkpt lat="48.1632233" lon="15.0979731">
        <ele>224.760</ele>
        <time>2019-05-03T10:08:06.162Z</time>
      </trkpt>
      <trkpt lat="48.1632180" lon="15.0981340">
        <ele>223.044</ele>
        <time>2019-05-03T10:08:09.033Z</time>
      </trkpt>
      <trkpt lat="48.1632314" lon="15.0982964">
        <ele>221.338</ele>
        <time>2019-05-03T10:08:11.952Z</time>
      </trkpt>
      <trkpt lat="48.1632326" lon="15.0984414">
        <ele>220.412</ele>
        <time>2019-05-03T10:08:14.524Z</time>
      </trkpt>
      <trkpt lat="48.1631825" lon="15.0986059">
        <ele>220.139</ele>
        <time>2019-05-03T10:08:17.727Z</time>
      </trkpt>
      <trkpt lat="48.1631694" lon="15.0987627">
        <ele>220.208</ele>
        <time>2019-05-03T10:08:20.534Z</time>
      </trkpt>
      <trkpt lat="48.1631333" lon="15.0988953">
        <ele>220.391</ele>
        <time>2019-05-03T10:08:23.137Z</time>
      </trkpt>
      <trkpt lat="48.1631403" lon="15.0990639">
        <ele>220.570</ele>
        <time>2019-05-03T10:08:26.365Z</time>
      </trkpt>
      <trkpt lat="48.1630961" lon="15.0992263">
        <ele>220.684</ele>
        <time>2019-05-03T10:08:30.294Z</time>
      </trkpt>
      <trkpt lat="48.1631095" lon="15.0994208">
        <ele>220.728</ele>
        <time>2019-05-03T10:08:35.000Z</time>
      </trkpt>
      <trkpt lat="48.1631095" lon="15.0994208">
        <ele>220.729</ele>
        <time>2019-05-03T10:08:36.000Z</time>
      </trkpt>
      <trkpt lat="48.1631095" lon="15.0994208">
        <ele>220.685</ele>
        <time>2019-05-03T10:08:36.100Z</time>
      </trkpt>
      <trkpt lat="48.1631095" lon="15.0994208">
        <ele>220.504</ele>
        <time>2019-05-03T10:08:38.000Z</time>
      </trkpt>
      <trkpt lat="48.1631095" lon="15.0994208">
        <ele>220.444</ele>
        <time>2019-05-03T10:08:38.100Z</time>
      </trkpt>
      <trkpt lat="48.1630788" lon="15.0997536">
        <ele>220.390</ele>
        <time>2019-05-03T10:08:47.478Z</time>
      </trkpt>
      <trkpt lat="48.1630885" lon="15.0999105">
        <ele>220.481</ele>
        <time>2019-05-03T10:08:53.699Z</time>
      </trkpt>
      <trkpt lat="48.1630911" lon="15.1000484">
        <ele>220.875</ele>
        <time>2019-05-03T10:08:59.616Z</time>
      </trkpt>
      <trkpt lat="48.1631348" lon="15.1001704">
        <ele>221.474</ele>
        <time>2019-05-03T10:09:04.650Z</time>
      </trkpt>
      <trkpt lat="48.1632176" lon="15.1002610">
        <ele>222.020</ele>
        <time>2019-05-03T10:09:07.830Z</time>
      </trkpt>
      <trkpt lat="48.1632988" lon="15.1003942">
        <ele>222.305</ele>
        <time>2019-05-03T10:09:10.772Z</time>
      </trkpt>
      <trkpt lat="48.1634028" lon="15.1005172">
        <ele>222.253</ele>
        <time>2019-05-03T10:09:13.684Z</time>
      </trkpt>
      <trkpt lat="48.1634900" lon="15.1006413">
        <ele>221.985</ele>
        <time>2019-05-03T10:09:16.201Z</time>
      </trkpt>
      <trkpt lat="48.1635688" lon="15.1007926">
        <ele>221.689</ele>
        <time>2019-05-03T10:09:18.817Z</time>
      </trkpt>
      <trkpt lat="48.1636435" lon="15.1009092">
        <ele>221.489</ele>
        <time>2019-05-03T10:09:21.001Z</time>
      </trkpt>
      <trkpt lat="48.1636435" lon="15.1009092">
        <ele>221.400</ele>
        <time>2019-05-03T10:09:23.001Z</time>
      </trkpt>
      <trkpt lat="48.1636435" lon="15.1009092">
        <ele>221.353</ele>
        <time>2019-05-03T10:09:23.101Z</time>
      </trkpt>
      <trkpt lat="48.1637463" lon="15.1011791">
        <ele>221.297</ele>
        <time>2019-05-03T10:09:30.572Z</time>
      </trkpt>
      <trkpt lat="48.1638190" lon="15.1013193">
        <ele>221.314</ele>
        <time>2019-05-03T10:09:33.891Z</time>
      </trkpt>
      <trkpt lat="48.1638993" lon="15.1014312">
        <ele>221.467</ele>
        <time>2019-05-03T10:09:36.845Z</time>
      </trkpt>
      <trkpt lat="48.1639643" lon="15.1015410">
        <ele>221.644</ele>
        <time>2019-05-03T10:09:39.267Z</time>
      </trkpt>
      <trkpt lat="48.1640493" lon="15.1016889">
        <ele>221.734</ele>
        <time>2019-05-03T10:09:42.412Z</time>
      </trkpt>
      <trkpt lat="48.1641309" lon="15.1018111">
        <ele>220.431</ele>
        <time>2019-05-03T10:09:45.124Z</time>
      </trkpt>
      <trkpt lat="48.1642304" lon="15.1019451">
        <ele>215.836</ele>
        <time>2019-05-03T10:09:48.282Z</time>
      </trkpt>
      <trkpt lat="48.1643054" lon="15.1021025">
        <ele>209.308</ele>
        <time>2019-05-03T10:09:51.610Z</time>
      </trkpt>
      <trkpt lat="48.1643404" lon="15.1022293">
        <ele>206.775</ele>
        <time>2019-05-03T10:09:55.186Z</time>
      </trkpt>
      <trkpt lat="48.1643971" lon="15.1023377">
        <ele>211.179</ele>
        <time>2019-05-03T10:09:58.999Z</time>
      </trkpt>
      <trkpt lat="48.1643971" lon="15.1023377">
        <ele>218.075</ele>
        <time>2019-05-03T10:10:00.999Z</time>
      </trkpt>
      <trkpt lat="48.1643971" lon="15.1023377">
        <ele>221.721</ele>
        <time>2019-05-03T10:10:10.606Z</time>
      </trkpt>
      <trkpt lat="48.1644848" lon="15.1024356">
        <ele>219.342</ele>
        <time>2019-05-03T10:10:21.063Z</time>
      </trkpt>
      <trkpt lat="48.1645664" lon="15.1025547">
        <ele>218.565</ele>
        <time>2019-05-03T10:10:25.385Z</time>
      </trkpt>
      <trkpt lat="48.1646402" lon="15.1026932">
        <ele>219.664</ele>
        <time>2019-05-03T10:10:28.945Z</time>
      </trkpt>
      <trkpt lat="48.1647267" lon="15.1027947">
        <ele>221.344</ele>
        <time>2019-05-03T10:10:31.999Z</time>
      </trkpt>
      <trkpt lat="48.1647267" lon="15.1027947">
        <ele>222.320</ele>
        <time>2019-05-03T10:10:33.999Z</time>
      </trkpt>
      <trkpt lat="48.1647267" lon="15.1027947">
        <ele>222.551</ele>
        <time>2019-05-03T10:10:34.099Z</time>
      </trkpt>
      <trkpt lat="48.1648726" lon="15.1029124">
        <ele>222.388</ele>
        <time>2019-05-03T10:10:43.722Z</time>
      </trkpt>
      <trkpt lat="48.1649575" lon="15.1029858">
        <ele>222.229</ele>
        <time>2019-05-03T10:10:47.467Z</time>
      </trkpt>
      <trkpt lat="48.1650392" lon="15.1030525">
        <ele>222.297</ele>
        <time>2019-05-03T10:10:51.048Z</time>
      </trkpt>
      <trkpt lat="48.1651079" lon="15.1031931">
        <ele>222.542</ele>
        <time>2019-05-03T10:10:55.196Z</time>
      </trkpt>
      <trkpt lat="48.1651877" lon="15.1032942">
        <ele>222.833</ele>
        <time>2019-05-03T10:10:58.716Z</time>
      </trkpt>
      <trkpt lat="48.1652730" lon="15.1034044">
        <ele>223.109</ele>
        <time>2019-05-03T10:11:02.306Z</time>
      </trkpt>
      <trkpt lat="48.1653327" lon="15.1035078">
        <ele>223.323</ele>
        <time>2019-05-03T10:11:04.999Z</time>
      </trkpt>
      <trkpt lat="48.1653327" lon="15.1035078">
        <ele>223.434</ele>
        <time>2019-05-03T10:11:04.999Z</time>
      </trkpt>
      <trkpt lat="48.1653327" lon="15.1035078">
        <ele>223.421</ele>
        <time>2019-05-03T10:11:05.598Z</time>
      </trkpt>
      <trkpt lat="48.1653958" lon="15.1036869">
        <ele>223.318</ele>
        <time>2019-05-03T10:11:12.016Z</time>
      </trkpt>
      <trkpt lat="48.1654693" lon="15.1037875">
        <ele>223.294</ele>
        <time>2019-05-03T10:11:15.141Z</time>
      </trkpt>
      <trkpt lat="48.1655291" lon="15.1039369">
        <ele>223.464</ele>
        <time>2019-05-03T10:11:18.488Z</time>
      </trkpt>
      <trkpt lat="48.1655981" lon="15.1040785">
        <ele>223.694</ele>
        <time>2019-05-03T10:11:21.569Z</time>
      </trkpt>
      <trkpt lat="48.1656556" lon="15.1042305">
        <ele>223.826</ele>
        <time>2019-05-03T10:11:24.493Z</time>
      </trkpt>
      <trkpt lat="48.1657404" lon="15.1043469">
        <ele>223.776</ele>
        <time>2019-05-03T10:11:27.378Z</time>
      </trkpt>
      <trkpt lat="48.1658173" lon="15.1044447">
        <ele>223.541</ele>
        <time>2019-05-03T10:11:29.964Z</time>
      </trkpt>
      <trkpt lat="48.1658787" lon="15.1045843">
        <ele>223.273</ele>
        <time>2019-05-03T10:11:32.987Z</time>
      </trkpt>
      <trkpt lat="48.1659444" lon="15.1046923">
        <ele>223.119</ele>
        <time>2019-05-03T10:11:35.723Z</time>
      </trkpt>
      <trkpt lat="48.1660166" lon="15.1048487">
        <ele>223.038</ele>
        <time>2019-05-03T10:11:39.320Z</time>
      </trkpt>
      <trkpt lat="48.1660608" lon="15.1049698">
        <ele>222.955</ele>
        <time>2019-05-03T10:11:41.719Z</time>
      </trkpt>
      <trkpt lat="48.1661742" lon="15.1050643">
        <ele>222.892</ele>
        <time>2019-05-03T10:11:44.931Z</time>
      </trkpt>
      <trkpt lat="48.1662678" lon="15.1051698">
        <ele>222.886</ele>
        <time>2019-05-03T10:11:47.758Z</time>
      </trkpt>
      <trkpt lat="48.1663597" lon="15.1052586">
        <ele>222.874</ele>
        <time>2019-05-03T10:11:50.431Z</time>
      </trkpt>
      <trkpt lat="48.1664450" lon="15.1053194">
        <ele>222.762</ele>
        <time>2019-05-03T10:11:52.807Z</time>
      </trkpt>
      <trkpt lat="48.1665324" lon="15.1053954">
        <ele>222.552</ele>
        <time>2019-05-03T10:11:55.426Z</time>
      </trkpt>
      <trkpt lat="48.1666165" lon="15.1054737">
        <ele>222.332</ele>
        <time>2019-05-03T10:11:57.977Z</time>
      </trkpt>
      <trkpt lat="48.1666964" lon="15.1055498">
        <ele>222.169</ele>
        <time>2019-05-03T10:12:00.457Z</time>
      </trkpt>
      <trkpt lat="48.1667657" lon="15.1056468">
        <ele>222.080</ele>
        <time>2019-05-03T10:12:02.999Z</time>
      </trkpt>
      <trkpt lat="48.1667657" lon="15.1056468">
        <ele>222.037</ele>
        <time>2019-05-03T10:12:02.999Z</time>
      </trkpt>
      <trkpt lat="48.1667657" lon="15.1056468">
        <ele>221.984</ele>
        <time>2019-05-03T10:12:03.099Z</time>
      </trkpt>
      <trkpt lat="48.1668326" lon="15.1058059">
        <ele>221.906</ele>
        <time>2019-05-03T10:12:09.626Z</time>
      </trkpt>
      <trkpt lat="48.1668953" lon="15.1059482">
        <ele>221.859</ele>
        <time>2019-05-03T10:12:13.667Z</time>
      </trkpt>
      <trkpt lat="48.1669569" lon="15.1060856">
        <ele>221.901</ele>
        <time>2019-05-03T10:12:17.352Z</time>
      </trkpt>
      <trkpt lat="48.1670361" lon="15.1062241">
        <ele>222.011</ele>
        <time>2019-05-03T10:12:21.042Z</time>
      </trkpt>
      <trkpt lat="48.1670860" lon="15.1063700">
        <ele>222.121</ele>
        <time>2019-05-03T10:12:24.231Z</time>
      </trkpt>
      <trkpt lat="48.1671373" lon="15.1064847">
        <ele>222.228</ele>
        <time>2019-05-03T10:12:27.087Z</time>
      </trkpt>
      <trkpt lat="48.1672015" lon="15.1065861">
        <ele>222.365</ele>
        <time>2019-05-03T10:12:30.250Z</time>
      </trkpt>
      <trkpt lat="48.1672670" lon="15.1066920">
        <ele>222.525</ele>
        <time>2019-05-03T10:12:33.785Z</time>
      </trkpt>
      <trkpt lat="48.1673451" lon="15.1068156">
        <ele>222.701</ele>
        <time>2019-05-03T10:12:38.239Z</time>
      </trkpt>
      <trkpt lat="48.1674154" lon="15.1069146">
        <ele>222.895</ele>
        <time>2019-05-03T10:12:42.143Z</time>
      </trkpt>
      <trkpt lat="48.1674866" lon="15.1070172">
        <ele>223.063</ele>
        <time>2019-05-03T10:12:46.283Z</time>
      </trkpt>
      <trkpt lat="48.1675507" lon="15.1071302">
        <ele>223.163</ele>
        <time>2019-05-03T10:12:50.664Z</time>
      </trkpt>
      <trkpt lat="48.1676426" lon="15.1071230">
        <ele>223.252</ele>
        <time>2019-05-03T10:12:55.808Z</time>
      </trkpt>
      <trkpt lat="48.1677475" lon="15.1071027">
        <ele>223.386</ele>
        <time>2019-05-03T10:13:02.999Z</time>
      </trkpt>
      <trkpt lat="48.1677475" lon="15.1071027">
        <ele>223.471</ele>
        <time>2019-05-03T10:13:02.999Z</time>
      </trkpt>
      <trkpt lat="48.1677475" lon="15.1071027">
        <ele>223.419</ele>
        <time>2019-05-03T10:13:17.618Z</time>
      </trkpt>
      <trkpt lat="48.1679315" lon="15.1070662">
        <ele>223.291</ele>
        <time>2019-05-03T10:13:30.869Z</time>
      </trkpt>
      <trkpt lat="48.1680213" lon="15.1070288">
        <ele>223.146</ele>
        <time>2019-05-03T10:13:34.163Z</time>
      </trkpt>
      <trkpt lat="48.1681285" lon="15.1069883">
        <ele>222.963</ele>
        <time>2019-05-03T10:13:37.424Z</time>
      </trkpt>
      <trkpt lat="48.1682200" lon="15.1069586">
        <ele>222.731</ele>
        <time>2019-05-03T10:13:40.000Z</time>
      </trkpt>
      <trkpt lat="48.1682200" lon="15.1069586">
        <ele>222.502</ele>
        <time>2019-05-03T10:13:44.000Z</time>
      </trkpt>
      <trkpt lat="48.1682200" lon="15.1069586">
        <ele>222.342</ele>
        <time>2019-05-03T10:13:54.477Z</time>
      </trkpt>
      <trkpt lat="48.1681572" lon="15.1070586">
        <ele>222.229</ele>
        <time>2019-05-03T10:14:27.510Z</time>
      </trkpt>
      <trkpt lat="48.1681817" lon="15.1072227">
        <ele>222.245</ele>
        <time>2019-05-03T10:15:05.371Z</time>
      </trkpt>
      <trkpt lat="48.1682221" lon="15.1073662">
        <ele>222.333</ele>
        <time>2019-05-03T10:15:40.001Z</time>
      </trkpt>
      <trkpt lat="48.1682221" lon="15.1073662">
        <ele>222.485</ele>
        <time>2019-05-03T10:15:40.001Z</time>
      </trkpt>
      <trkpt lat="48.1682221" lon="15.1073662">
        <ele>222.557</ele>
        <time>2019-05-03T10:15:40.101Z</time>
      </trkpt>
      <trkpt lat="48.1682165" lon="15.1076427">
        <ele>222.461</ele>
        <time>2019-05-03T10:16:07.105Z</time>
      </trkpt>
      <trkpt lat="48.1681358" lon="15.1075752">
        <ele>222.438</ele>
        <time>2019-05-03T10:16:18.001Z</time>
      </trkpt>
      <trkpt lat="48.1681358" lon="15.1075752">
        <ele>222.685</ele>
        <time>2019-05-03T10:16:31.002Z</time>
      </trkpt>
      <trkpt lat="48.1681358" lon="15.1075752">
        <ele>222.904</ele>
        <time>2019-05-03T10:16:31.117Z</time>
      </trkpt>
      <trkpt lat="48.1680280" lon="15.1077232">
        <ele>222.780</ele>
        <time>2019-05-03T10:16:52.267Z</time>
      </trkpt>
      <trkpt lat="48.1680333" lon="15.1078579">
        <ele>215.340</ele>
        <time>2019-05-03T10:16:55.580Z</time>
      </trkpt>
      <trkpt lat="48.1680670" lon="15.1080136">
        <ele>196.327</ele>
        <time>2019-05-03T10:16:58.683Z</time>
      </trkpt>
      <trkpt lat="48.1680689" lon="15.1081508">
        <ele>176.284</ele>
        <time>2019-05-03T10:17:01.000Z</time>
      </trkpt>
      <trkpt lat="48.1680689" lon="15.1081508">
        <ele>165.815</ele>
        <time>2019-05-03T10:17:03.000Z</time>
      </trkpt>
      <trkpt lat="48.1680689" lon="15.1081508">
        <ele>163.199</ele>
        <time>2019-05-03T10:17:03.100Z</time>
      </trkpt>
      <trkpt lat="48.1681440" lon="15.1084950">
        <ele>163.939</ele>
        <time>2019-05-03T10:17:17.964Z</time>
      </trkpt>
      <trkpt lat="48.1680705" lon="15.1086008">
        <ele>164.538</ele>
        <time>2019-05-03T10:17:23.000Z</time>
      </trkpt>
      <trkpt lat="48.1680705" lon="15.1086008">
        <ele>163.780</ele>
        <time>2019-05-03T10:17:28.000Z</time>
      </trkpt>
      <trkpt lat="48.1680705" lon="15.1086008">
        <ele>162.758</ele>
        <time>2019-05-03T10:17:36.384Z</time>
      </trkpt>
      <trkpt lat="48.1682350" lon="15.1085360">
        <ele>162.664</ele>
        <time>2019-05-03T10:17:48.102Z</time>
      </trkpt>
      <trkpt lat="48.1683251" lon="15.1085029">
        <ele>162.896</ele>
        <time>2019-05-03T10:17:52.185Z</time>
      </trkpt>
      <trkpt lat="48.1684263" lon="15.1084530">
        <ele>162.443</ele>
        <time>2019-05-03T10:17:57.131Z</time>
      </trkpt>
      <trkpt lat="48.1685276" lon="15.1083835">
        <ele>160.468</ele>
        <time>2019-05-03T10:18:02.726Z</time>
      </trkpt>
      <trkpt lat="48.1685988" lon="15.1084698">
        <ele>156.541</ele>
        <time>2019-05-03T10:18:06.192Z</time>
      </trkpt>
      <trkpt lat="48.1686413" lon="15.1085905">
        <ele>151.829</ele>
        <time>2019-05-03T10:18:09.033Z</time>
      </trkpt>
      <trkpt lat="48.1686724" lon="15.1087461">
        <ele>148.200</ele>
        <time>2019-05-03T10:18:12.110Z</time>
      </trkpt>
      <trkpt lat="48.1687034" lon="15.1089166">
        <ele>146.030</ele>
        <time>2019-05-03T10:18:15.359Z</time>
      </trkpt>
      <trkpt lat="48.1687161" lon="15.1090658">
        <ele>144.569</ele>
        <time>2019-05-03T10:18:18.151Z</time>
      </trkpt>
      <trkpt lat="48.1687277" lon="15.1092185">
        <ele>143.278</ele>
        <time>2019-05-03T10:18:21.073Z</time>
      </trkpt>
      <trkpt lat="48.1687600" lon="15.1093596">
        <ele>142.120</ele>
        <time>2019-05-03T10:18:23.830Z</time>
      </trkpt>
      <trkpt lat="48.1687941" lon="15.1095466">
        <ele>141.146</ele>
        <time>2019-05-03T10:18:27.132Z</time>
      </trkpt>
      <trkpt lat="48.1688184" lon="15.1097289">
        <ele>140.306</ele>
        <time>2019-05-03T10:18:30.088Z</time>
      </trkpt>
      <trkpt lat="48.1688292" lon="15.1098782">
        <ele>139.572</ele>
        <time>2019-05-03T10:18:32.305Z</time>
      </trkpt>
      <trkpt lat="48.1688869" lon="15.1100629">
        <ele>139.040</ele>
        <time>2019-05-03T10:18:35.162Z</time>
      </trkpt>
      <trkpt lat="48.1689890" lon="15.1101981">
        <ele>138.875</ele>
        <time>2019-05-03T10:18:37.814Z</time>
      </trkpt>
      <trkpt lat="48.1691149" lon="15.1103543">
        <ele>149.351</ele>
        <time>2019-05-03T10:18:40.807Z</time>
      </trkpt>
      <trkpt lat="48.1692146" lon="15.1104977">
        <ele>177.477</ele>
        <time>2019-05-03T10:18:43.240Z</time>
      </trkpt>
      <trkpt lat="48.1692937" lon="15.1106409">
        <ele>207.883</ele>
        <time>2019-05-03T10:18:45.402Z</time>
      </trkpt>
      <trkpt lat="48.1693673" lon="15.1107823">
        <ele>223.739</ele>
        <time>2019-05-03T10:18:47.492Z</time>
      </trkpt>
      <trkpt lat="48.1694129" lon="15.1109262">
        <ele>226.752</ele>
        <time>2019-05-03T10:18:49.352Z</time>
      </trkpt>
      <trkpt lat="48.1694580" lon="15.1110732">
        <ele>224.147</ele>
        <time>2019-05-03T10:18:51.270Z</time>
      </trkpt>
      <trkpt lat="48.1695121" lon="15.1112198">
        <ele>221.355</ele>
        <time>2019-05-03T10:18:53.307Z</time>
      </trkpt>
      <trkpt lat="48.1695691" lon="15.1113681">
        <ele>220.356</ele>
        <time>2019-05-03T10:18:55.410Z</time>
      </trkpt>
      <trkpt lat="48.1696186" lon="15.1114969">
        <ele>220.607</ele>
        <time>2019-05-03T10:18:57.212Z</time>
      </trkpt>
      <trkpt lat="48.1696681" lon="15.1116265">
        <ele>221.095</ele>
        <time>2019-05-03T10:18:58.992Z</time>
      </trkpt>
      <trkpt lat="48.1697129" lon="15.1117843">
        <ele>221.396</ele>
        <time>2019-05-03T10:19:01.009Z</time>
      </trkpt>
      <trkpt lat="48.1697556" lon="15.1119303">
        <ele>221.479</ele>
        <time>2019-05-03T10:19:02.874Z</time>
      </trkpt>
      <trkpt lat="48.1697931" lon="15.1120692">
        <ele>221.447</ele>
        <time>2019-05-03T10:19:04.635Z</time>
      </trkpt>
      <trkpt lat="48.1698357" lon="15.1122177">
        <ele>221.368</ele>
        <time>2019-05-03T10:19:06.547Z</time>
      </trkpt>
      <trkpt lat="48.1698743" lon="15.1123720">
        <ele>221.234</ele>
        <time>2019-05-03T10:19:08.520Z</time>
      </trkpt>
      <trkpt lat="48.1699158" lon="15.1125246">
        <ele>221.050</ele>
        <time>2019-05-03T10:19:10.542Z</time>
      </trkpt>
      <trkpt lat="48.1699554" lon="15.1126683">
        <ele>220.888</ele>
        <time>2019-05-03T10:19:12.585Z</time>
      </trkpt>
      <trkpt lat="48.1699859" lon="15.1128017">
        <ele>220.823</ele>
        <time>2019-05-03T10:19:14.617Z</time>
      </trkpt>
      <trkpt lat="48.1700346" lon="15.1129772">
        <ele>220.883</ele>
        <time>2019-05-03T10:19:17.840Z</time>
      </trkpt>
      <trkpt lat="48.1700777" lon="15.1131374">
        <ele>221.016</ele>
        <time>2019-05-03T10:19:21.046Z</time>
      </trkpt>
      <trkpt lat="48.1700994" lon="15.1132728">
        <ele>221.129</ele>
        <time>2019-05-03T10:19:23.655Z</time>
      </trkpt>
      <trkpt lat="48.1701556" lon="15.1134114">
        <ele>221.167</ele>
        <time>2019-05-03T10:19:26.520Z</time>
      </trkpt>
      <trkpt lat="48.1702004" lon="15.1135558">
        <ele>221.126</ele>
        <time>2019-05-03T10:19:29.152Z</time>
      </trkpt>
      <trkpt lat="48.1702605" lon="15.1137153">
        <ele>221.016</ele>
        <time>2019-05-03T10:19:32.018Z</time>
      </trkpt>
      <trkpt lat="48.1703044" lon="15.1138412">
        <ele>220.863</ele>
        <time>2019-05-03T10:19:34.187Z</time>
      </trkpt>
      <trkpt lat="48.1703397" lon="15.1139907">
        <ele>220.695</ele>
        <time>2019-05-03T10:19:36.681Z</time>
      </trkpt>
      <trkpt lat="48.1704105" lon="15.1141127">
        <ele>220.554</ele>
        <time>2019-05-03T10:19:39.452Z</time>
      </trkpt>
      <trkpt lat="48.1705000" lon="15.1141961">
        <ele>220.484</ele>
        <time>2019-05-03T10:19:42.687Z</time>
      </trkpt>
      <trkpt lat="48.1705782" lon="15.1143019">
        <ele>220.507</ele>
        <time>2019-05-03T10:19:46.337Z</time>
      </trkpt>
      <trkpt lat="48.1706485" lon="15.1144395">
        <ele>220.651</ele>
        <time>2019-05-03T10:19:49.785Z</time>
      </trkpt>
      <trkpt lat="48.1709619" lon="15.1149763">
        <ele>221.150</ele>
        <time>2019-05-03T10:20:02.934Z</time>
      </trkpt>
      <trkpt lat="48.1710749" lon="15.1150976">
        <ele>221.346</ele>
        <time>2019-05-03T10:20:06.705Z</time>
      </trkpt>
      <trkpt lat="48.1711545" lon="15.1151923">
        <ele>221.397</ele>
        <time>2019-05-03T10:20:09.133Z</time>
      </trkpt>
      <trkpt lat="48.1712477" lon="15.1153196">
        <ele>221.334</ele>
        <time>2019-05-03T10:20:11.957Z</time>
      </trkpt>
      <trkpt lat="48.1713404" lon="15.1154269">
        <ele>221.301</ele>
        <time>2019-05-03T10:20:14.594Z</time>
      </trkpt>
      <trkpt lat="48.1714165" lon="15.1155415">
        <ele>221.501</ele>
        <time>2019-05-03T10:20:17.050Z</time>
      </trkpt>
      <trkpt lat="48.1715318" lon="15.1156111">
        <ele>222.086</ele>
        <time>2019-05-03T10:20:19.867Z</time>
      </trkpt>
      <trkpt lat="48.1715942" lon="15.1157172">
        <ele>222.901</ele>
        <time>2019-05-03T10:20:22.046Z</time>
      </trkpt>
      <trkpt lat="48.1716718" lon="15.1158278">
        <ele>223.614</ele>
        <time>2019-05-03T10:20:24.678Z</time>
      </trkpt>
      <trkpt lat="48.1717625" lon="15.1158917">
        <ele>224.040</ele>
        <time>2019-05-03T10:20:27.366Z</time>
      </trkpt>
      <trkpt lat="48.1718385" lon="15.1159814">
        <ele>224.204</ele>
        <time>2019-05-03T10:20:29.904Z</time>
      </trkpt>
      <trkpt lat="48.1719124" lon="15.1161119">
        <ele>224.220</ele>
        <time>2019-05-03T10:20:32.693Z</time>
      </trkpt>
      <trkpt lat="48.1719751" lon="15.1162458">
        <ele>224.178</ele>
        <time>2019-05-03T10:20:35.271Z</time>
      </trkpt>
      <trkpt lat="48.1720422" lon="15.1163606">
        <ele>224.181</ele>
        <time>2019-05-03T10:20:37.835Z</time>
      </trkpt>
      <trkpt lat="48.1721331" lon="15.1164478">
        <ele>224.308</ele>
        <time>2019-05-03T10:20:40.716Z</time>
      </trkpt>
      <trkpt lat="48.1722241" lon="15.1165282">
        <ele>224.527</ele>
        <time>2019-05-03T10:20:43.465Z</time>
      </trkpt>
      <trkpt lat="48.1723239" lon="15.1166178">
        <ele>224.727</ele>
        <time>2019-05-03T10:20:46.541Z</time>
      </trkpt>
      <trkpt lat="48.1724250" lon="15.1166844">
        <ele>224.811</ele>
        <time>2019-05-03T10:20:49.630Z</time>
      </trkpt>
      <trkpt lat="48.1725227" lon="15.1167599">
        <ele>224.768</ele>
        <time>2019-05-03T10:20:52.781Z</time>
      </trkpt>
      <trkpt lat="48.1726230" lon="15.1168443">
        <ele>224.662</ele>
        <time>2019-05-03T10:20:55.961Z</time>
      </trkpt>
      <trkpt lat="48.1727108" lon="15.1169672">
        <ele>224.490</ele>
        <time>2019-05-03T10:20:58.926Z</time>
      </trkpt>
      <trkpt lat="48.1728077" lon="15.1170952">
        <ele>224.245</ele>
        <time>2019-05-03T10:21:01.897Z</time>
      </trkpt>
      <trkpt lat="48.1729168" lon="15.1172165">
        <ele>224.071</ele>
        <time>2019-05-03T10:21:05.001Z</time>
      </trkpt>
      <trkpt lat="48.1729168" lon="15.1172165">
        <ele>224.068</ele>
        <time>2019-05-03T10:21:05.001Z</time>
      </trkpt>
      <trkpt lat="48.1729168" lon="15.1172165">
        <ele>224.090</ele>
        <time>2019-05-03T10:21:05.274Z</time>
      </trkpt>
      <trkpt lat="48.1730384" lon="15.1173123">
        <ele>224.004</ele>
        <time>2019-05-03T10:21:10.143Z</time>
      </trkpt>
      <trkpt lat="48.1731355" lon="15.1174023">
        <ele>223.838</ele>
        <time>2019-05-03T10:21:12.589Z</time>
      </trkpt>
      <trkpt lat="48.1732245" lon="15.1175317">
        <ele>223.600</ele>
        <time>2019-05-03T10:21:15.164Z</time>
      </trkpt>
      <trkpt lat="48.1733417" lon="15.1176528">
        <ele>223.310</ele>
        <time>2019-05-03T10:21:17.943Z</time>
      </trkpt>
      <trkpt lat="48.1734466" lon="15.1177163">
        <ele>223.105</ele>
        <time>2019-05-03T10:21:20.001Z</time>
      </trkpt>
      <trkpt lat="48.1734466" lon="15.1177163">
        <ele>223.049</ele>
        <time>2019-05-03T10:21:21.001Z</time>
      </trkpt>
      <trkpt lat="48.1734466" lon="15.1177163">
        <ele>223.036</ele>
        <time>2019-05-03T10:21:21.101Z</time>
      </trkpt>
      <trkpt lat="48.1736162" lon="15.1178667">
        <ele>222.963</ele>
        <time>2019-05-03T10:21:26.978Z</time>
      </trkpt>
      <trkpt lat="48.1737011" lon="15.1179764">
        <ele>222.805</ele>
        <time>2019-05-03T10:21:29.624Z</time>
      </trkpt>
      <trkpt lat="48.1737590" lon="15.1181420">
        <ele>222.600</ele>
        <time>2019-05-03T10:21:32.380Z</time>
      </trkpt>
      <trkpt lat="48.1738672" lon="15.1182439">
        <ele>222.484</ele>
        <time>2019-05-03T10:21:35.176Z</time>
      </trkpt>
      <trkpt lat="48.1739440" lon="15.1183185">
        <ele>222.615</ele>
        <time>2019-05-03T10:21:37.220Z</time>
      </trkpt>
      <trkpt lat="48.1740613" lon="15.1183834">
        <ele>222.930</ele>
        <time>2019-05-03T10:21:39.970Z</time>
      </trkpt>
      <trkpt lat="48.1741360" lon="15.1184897">
        <ele>223.199</ele>
        <time>2019-05-03T10:21:42.186Z</time>
      </trkpt>
      <trkpt lat="48.1742326" lon="15.1186184">
        <ele>223.263</ele>
        <time>2019-05-03T10:21:45.012Z</time>
      </trkpt>
      <trkpt lat="48.1743246" lon="15.1187145">
        <ele>223.149</ele>
        <time>2019-05-03T10:21:47.484Z</time>
      </trkpt>
      <trkpt lat="48.1743977" lon="15.1188062">
        <ele>222.989</ele>
        <time>2019-05-03T10:21:49.590Z</time>
      </trkpt>
      <trkpt lat="48.1745000" lon="15.1189421">
        <ele>222.904</ele>
        <time>2019-05-03T10:21:52.583Z</time>
      </trkpt>
      <trkpt lat="48.1746044" lon="15.1190637">
        <ele>222.930</ele>
        <time>2019-05-03T10:21:55.370Z</time>
      </trkpt>
      <trkpt lat="48.1746679" lon="15.1191709">
        <ele>223.052</ele>
        <time>2019-05-03T10:21:57.288Z</time>
      </trkpt>
      <trkpt lat="48.1747517" lon="15.1192458">
        <ele>223.226</ele>
        <time>2019-05-03T10:21:59.246Z</time>
      </trkpt>
      <trkpt lat="48.1748202" lon="15.1193346">
        <ele>223.412</ele>
        <time>2019-05-03T10:22:01.062Z</time>
      </trkpt>
      <trkpt lat="48.1749277" lon="15.1194153">
        <ele>223.574</ele>
        <time>2019-05-03T10:22:03.454Z</time>
      </trkpt>
      <trkpt lat="48.1750179" lon="15.1194625">
        <ele>223.678</ele>
        <time>2019-05-03T10:22:05.323Z</time>
      </trkpt>
      <trkpt lat="48.1751048" lon="15.1195083">
        <ele>223.713</ele>
        <time>2019-05-03T10:22:07.160Z</time>
      </trkpt>
      <trkpt lat="48.1751923" lon="15.1195445">
        <ele>223.654</ele>
        <time>2019-05-03T10:22:09.059Z</time>
      </trkpt>
      <trkpt lat="48.1752784" lon="15.1195942">
        <ele>223.439</ele>
        <time>2019-05-03T10:22:11.043Z</time>
      </trkpt>
      <trkpt lat="48.1753820" lon="15.1196889">
        <ele>223.055</ele>
        <time>2019-05-03T10:22:13.679Z</time>
      </trkpt>
      <trkpt lat="48.1754934" lon="15.1197791">
        <ele>222.541</ele>
        <time>2019-05-03T10:22:16.494Z</time>
      </trkpt>
      <trkpt lat="48.1755945" lon="15.1198463">
        <ele>221.880</ele>
        <time>2019-05-03T10:22:19.036Z</time>
      </trkpt>
      <trkpt lat="48.1757068" lon="15.1199152">
        <ele>221.024</ele>
        <time>2019-05-03T10:22:21.949Z</time>
      </trkpt>
      <trkpt lat="48.1758044" lon="15.1199681">
        <ele>220.094</ele>
        <time>2019-05-03T10:22:24.551Z</time>
      </trkpt>
      <trkpt lat="48.1759256" lon="15.1199729">
        <ele>219.368</ele>
        <time>2019-05-03T10:22:27.806Z</time>
      </trkpt>
      <trkpt lat="48.1760355" lon="15.1200323">
        <ele>218.944</ele>
        <time>2019-05-03T10:22:31.262Z</time>
      </trkpt>
      <trkpt lat="48.1761474" lon="15.1200864">
        <ele>218.653</ele>
        <time>2019-05-03T10:22:34.585Z</time>
      </trkpt>
      <trkpt lat="48.1762821" lon="15.1201803">
        <ele>218.376</ele>
        <time>2019-05-03T10:22:38.209Z</time>
      </trkpt>
      <trkpt lat="48.1763930" lon="15.1202516">
        <ele>218.167</ele>
        <time>2019-05-03T10:22:40.760Z</time>
      </trkpt>
      <trkpt lat="48.1765081" lon="15.1203128">
        <ele>218.149</ele>
        <time>2019-05-03T10:22:43.117Z</time>
      </trkpt>
      <trkpt lat="48.1766251" lon="15.1203503">
        <ele>218.427</ele>
        <time>2019-05-03T10:22:45.475Z</time>
      </trkpt>
      <trkpt lat="48.1767125" lon="15.1203859">
        <ele>218.883</ele>
        <time>2019-05-03T10:22:47.487Z</time>
      </trkpt>
      <trkpt lat="48.1768131" lon="15.1204293">
        <ele>219.220</ele>
        <time>2019-05-03T10:22:49.981Z</time>
      </trkpt>
      <trkpt lat="48.1769346" lon="15.1204987">
        <ele>219.312</ele>
        <time>2019-05-03T10:22:53.196Z</time>
      </trkpt>
      <trkpt lat="48.1770363" lon="15.1205174">
        <ele>219.294</ele>
        <time>2019-05-03T10:22:55.518Z</time>
      </trkpt>
      <trkpt lat="48.1771393" lon="15.1205529">
        <ele>219.328</ele>
        <time>2019-05-03T10:22:57.838Z</time>
      </trkpt>
      <trkpt lat="48.1772451" lon="15.1205524">
        <ele>219.436</ele>
        <time>2019-05-03T10:23:00.060Z</time>
      </trkpt>
      <trkpt lat="48.1773579" lon="15.1205821">
        <ele>219.478</ele>
        <time>2019-05-03T10:23:02.206Z</time>
      </trkpt>
      <trkpt lat="48.1774928" lon="15.1206343">
        <ele>219.260</ele>
        <time>2019-05-03T10:23:04.699Z</time>
      </trkpt>
      <trkpt lat="48.1776013" lon="15.1206823">
        <ele>218.728</ele>
        <time>2019-05-03T10:23:06.784Z</time>
      </trkpt>
      <trkpt lat="48.1776874" lon="15.1207217">
        <ele>218.102</ele>
        <time>2019-05-03T10:23:08.503Z</time>
      </trkpt>
      <trkpt lat="48.1777914" lon="15.1207667">
        <ele>217.677</ele>
        <time>2019-05-03T10:23:10.747Z</time>
      </trkpt>
      <trkpt lat="48.1778864" lon="15.1208190">
        <ele>217.576</ele>
        <time>2019-05-03T10:23:13.105Z</time>
      </trkpt>
      <trkpt lat="48.1779847" lon="15.1208790">
        <ele>217.778</ele>
        <time>2019-05-03T10:23:15.780Z</time>
      </trkpt>
      <trkpt lat="48.1781200" lon="15.1209118">
        <ele>218.226</ele>
        <time>2019-05-03T10:23:18.553Z</time>
      </trkpt>
      <trkpt lat="48.1782374" lon="15.1209424">
        <ele>218.754</ele>
        <time>2019-05-03T10:23:20.730Z</time>
      </trkpt>
      <trkpt lat="48.1783632" lon="15.1209495">
        <ele>219.098</ele>
        <time>2019-05-03T10:23:23.247Z</time>
      </trkpt>
      <trkpt lat="48.1784627" lon="15.1209523">
        <ele>219.104</ele>
        <time>2019-05-03T10:23:25.257Z</time>
      </trkpt>
      <trkpt lat="48.1785704" lon="15.1209926">
        <ele>218.807</ele>
        <time>2019-05-03T10:23:27.308Z</time>
      </trkpt>
      <trkpt lat="48.1786942" lon="15.1210146">
        <ele>218.377</ele>
        <time>2019-05-03T10:23:29.515Z</time>
      </trkpt>
      <trkpt lat="48.1788223" lon="15.1210366">
        <ele>218.031</ele>
        <time>2019-05-03T10:23:31.885Z</time>
      </trkpt>
      <trkpt lat="48.1789327" lon="15.1210701">
        <ele>217.872</ele>
        <time>2019-05-03T10:23:34.191Z</time>
      </trkpt>
      <trkpt lat="48.1790328" lon="15.1210924">
        <ele>217.859</ele>
        <time>2019-05-03T10:23:36.357Z</time>
      </trkpt>
      <trkpt lat="48.1791529" lon="15.1211263">
        <ele>217.956</ele>
        <time>2019-05-03T10:23:38.958Z</time>
      </trkpt>
      <trkpt lat="48.1792438" lon="15.1211292">
        <ele>218.234</ele>
        <time>2019-05-03T10:23:40.667Z</time>
      </trkpt>
      <trkpt lat="48.1793354" lon="15.1211017">
        <ele>218.679</ele>
        <time>2019-05-03T10:23:42.241Z</time>
      </trkpt>
      <trkpt lat="48.1794626" lon="15.1210773">
        <ele>219.076</ele>
        <time>2019-05-03T10:23:44.379Z</time>
      </trkpt>
      <trkpt lat="48.1795930" lon="15.1210477">
        <ele>219.188</ele>
        <time>2019-05-03T10:23:46.765Z</time>
      </trkpt>
      <trkpt lat="48.1796988" lon="15.1210062">
        <ele>218.931</ele>
        <time>2019-05-03T10:23:48.752Z</time>
      </trkpt>
      <trkpt lat="48.1798018" lon="15.1209423">
        <ele>218.391</ele>
        <time>2019-05-03T10:23:50.679Z</time>
      </trkpt>
      <trkpt lat="48.1799120" lon="15.1208649">
        <ele>217.735</ele>
        <time>2019-05-03T10:23:52.819Z</time>
      </trkpt>
      <trkpt lat="48.1800322" lon="15.1208160">
        <ele>217.085</ele>
        <time>2019-05-03T10:23:55.042Z</time>
      </trkpt>
      <trkpt lat="48.1801661" lon="15.1207719">
        <ele>216.576</ele>
        <time>2019-05-03T10:23:57.525Z</time>
      </trkpt>
      <trkpt lat="48.1803438" lon="15.1207757">
        <ele>216.320</ele>
        <time>2019-05-03T10:24:00.754Z</time>
      </trkpt>
      <trkpt lat="48.1804996" lon="15.1207655">
        <ele>216.341</ele>
        <time>2019-05-03T10:24:03.598Z</time>
      </trkpt>
      <trkpt lat="48.1806232" lon="15.1207766">
        <ele>216.591</ele>
        <time>2019-05-03T10:24:05.929Z</time>
      </trkpt>
      <trkpt lat="48.1807246" lon="15.1207444">
        <ele>216.911</ele>
        <time>2019-05-03T10:24:08.158Z</time>
      </trkpt>
      <trkpt lat="48.1808181" lon="15.1207228">
        <ele>217.134</ele>
        <time>2019-05-03T10:24:10.274Z</time>
      </trkpt>
      <trkpt lat="48.1809311" lon="15.1206951">
        <ele>217.234</ele>
        <time>2019-05-03T10:24:12.703Z</time>
      </trkpt>
      <trkpt lat="48.1810239" lon="15.1206459">
        <ele>217.206</ele>
        <time>2019-05-03T10:24:14.657Z</time>
      </trkpt>
      <trkpt lat="48.1811937" lon="15.1206013">
        <ele>216.999</ele>
        <time>2019-05-03T10:24:17.878Z</time>
      </trkpt>
      <trkpt lat="48.1812909" lon="15.1205628">
        <ele>216.550</ele>
        <time>2019-05-03T10:24:19.798Z</time>
      </trkpt>
      <trkpt lat="48.1814112" lon="15.1205110">
        <ele>215.912</ele>
        <time>2019-05-03T10:24:22.226Z</time>
      </trkpt>
      <trkpt lat="48.1815115" lon="15.1204724">
        <ele>215.336</ele>
        <time>2019-05-03T10:24:24.200Z</time>
      </trkpt>
      <trkpt lat="48.1816095" lon="15.1204286">
        <ele>215.057</ele>
        <time>2019-05-03T10:24:26.133Z</time>
      </trkpt>
      <trkpt lat="48.1817235" lon="15.1203995">
        <ele>215.092</ele>
        <time>2019-05-03T10:24:28.331Z</time>
      </trkpt>
      <trkpt lat="48.1818385" lon="15.1203629">
        <ele>215.321</ele>
        <time>2019-05-03T10:24:30.625Z</time>
      </trkpt>
      <trkpt lat="48.1819401" lon="15.1203204">
        <ele>215.568</ele>
        <time>2019-05-03T10:24:32.714Z</time>
      </trkpt>
      <trkpt lat="48.1820272" lon="15.1202615">
        <ele>215.705</ele>
        <time>2019-05-03T10:24:34.573Z</time>
      </trkpt>
      <trkpt lat="48.1821376" lon="15.1202171">
        <ele>215.692</ele>
        <time>2019-05-03T10:24:36.789Z</time>
      </trkpt>
      <trkpt lat="48.1822522" lon="15.1201845">
        <ele>215.566</ele>
        <time>2019-05-03T10:24:39.088Z</time>
      </trkpt>
      <trkpt lat="48.1823548" lon="15.1201250">
        <ele>215.472</ele>
        <time>2019-05-03T10:24:41.234Z</time>
      </trkpt>
      <trkpt lat="48.1824472" lon="15.1200524">
        <ele>215.517</ele>
        <time>2019-05-03T10:24:43.172Z</time>
      </trkpt>
      <trkpt lat="48.1825364" lon="15.1200007">
        <ele>215.640</ele>
        <time>2019-05-03T10:24:44.860Z</time>
      </trkpt>
      <trkpt lat="48.1826418" lon="15.1199114">
        <ele>215.663</ele>
        <time>2019-05-03T10:24:46.892Z</time>
      </trkpt>
      <trkpt lat="48.1827409" lon="15.1198426">
        <ele>215.490</ele>
        <time>2019-05-03T10:24:48.622Z</time>
      </trkpt>
      <trkpt lat="48.1828579" lon="15.1197954">
        <ele>215.231</ele>
        <time>2019-05-03T10:24:50.575Z</time>
      </trkpt>
      <trkpt lat="48.1829793" lon="15.1197575">
        <ele>215.058</ele>
        <time>2019-05-03T10:24:52.805Z</time>
      </trkpt>
      <trkpt lat="48.1830742" lon="15.1196955">
        <ele>215.005</ele>
        <time>2019-05-03T10:24:54.789Z</time>
      </trkpt>
      <trkpt lat="48.1831842" lon="15.1195866">
        <ele>215.041</ele>
        <time>2019-05-03T10:24:57.481Z</time>
      </trkpt>
      <trkpt lat="48.1832724" lon="15.1194978">
        <ele>215.126</ele>
        <time>2019-05-03T10:24:59.523Z</time>
      </trkpt>
      <trkpt lat="48.1833600" lon="15.1194012">
        <ele>215.213</ele>
        <time>2019-05-03T10:25:01.575Z</time>
      </trkpt>
      <trkpt lat="48.1834695" lon="15.1193295">
        <ele>215.204</ele>
        <time>2019-05-03T10:25:04.124Z</time>
      </trkpt>
      <trkpt lat="48.1835583" lon="15.1192775">
        <ele>215.049</ele>
        <time>2019-05-03T10:25:06.233Z</time>
      </trkpt>
      <trkpt lat="48.1836508" lon="15.1193559">
        <ele>214.845</ele>
        <time>2019-05-03T10:25:08.590Z</time>
      </trkpt>
      <trkpt lat="48.1837310" lon="15.1194774">
        <ele>214.743</ele>
        <time>2019-05-03T10:25:11.076Z</time>
      </trkpt>
      <trkpt lat="48.1838641" lon="15.1194873">
        <ele>214.845</ele>
        <time>2019-05-03T10:25:13.600Z</time>
      </trkpt>
      <trkpt lat="48.1839451" lon="15.1193681">
        <ele>215.750</ele>
        <time>2019-05-03T10:25:15.539Z</time>
      </trkpt>
      <trkpt lat="48.1840276" lon="15.1192780">
        <ele>217.659</ele>
        <time>2019-05-03T10:25:17.182Z</time>
      </trkpt>
      <trkpt lat="48.1841215" lon="15.1191694">
        <ele>219.394</ele>
        <time>2019-05-03T10:25:19.107Z</time>
      </trkpt>
      <trkpt lat="48.1842221" lon="15.1190800">
        <ele>219.932</ele>
        <time>2019-05-03T10:25:21.131Z</time>
      </trkpt>
      <trkpt lat="48.1843217" lon="15.1189851">
        <ele>219.590</ele>
        <time>2019-05-03T10:25:23.299Z</time>
      </trkpt>
      <trkpt lat="48.1844039" lon="15.1188995">
        <ele>219.012</ele>
        <time>2019-05-03T10:25:25.195Z</time>
      </trkpt>
      <trkpt lat="48.1844927" lon="15.1188591">
        <ele>218.556</ele>
        <time>2019-05-03T10:25:27.028Z</time>
      </trkpt>
      <trkpt lat="48.1845690" lon="15.1187824">
        <ele>218.288</ele>
        <time>2019-05-03T10:25:29.026Z</time>
      </trkpt>
      <trkpt lat="48.1846567" lon="15.1187191">
        <ele>218.189</ele>
        <time>2019-05-03T10:25:31.178Z</time>
      </trkpt>
      <trkpt lat="48.1847861" lon="15.1186488">
        <ele>218.229</ele>
        <time>2019-05-03T10:25:34.120Z</time>
      </trkpt>
      <trkpt lat="48.1848766" lon="15.1185863">
        <ele>218.357</ele>
        <time>2019-05-03T10:25:36.146Z</time>
      </trkpt>
      <trkpt lat="48.1849693" lon="15.1185175">
        <ele>218.530</ele>
        <time>2019-05-03T10:25:38.264Z</time>
      </trkpt>
      <trkpt lat="48.1850565" lon="15.1184491">
        <ele>218.739</ele>
        <time>2019-05-03T10:25:40.375Z</time>
      </trkpt>
      <trkpt lat="48.1851443" lon="15.1183946">
        <ele>218.995</ele>
        <time>2019-05-03T10:25:42.541Z</time>
      </trkpt>
      <trkpt lat="48.1852264" lon="15.1183228">
        <ele>219.287</ele>
        <time>2019-05-03T10:25:44.673Z</time>
      </trkpt>
      <trkpt lat="48.1853519" lon="15.1182543">
        <ele>219.603</ele>
        <time>2019-05-03T10:25:47.476Z</time>
      </trkpt>
      <trkpt lat="48.1854688" lon="15.1181868">
        <ele>219.925</ele>
        <time>2019-05-03T10:25:49.811Z</time>
      </trkpt>
      <trkpt lat="48.1855676" lon="15.1181304">
        <ele>220.259</ele>
        <time>2019-05-03T10:25:51.638Z</time>
      </trkpt>
      <trkpt lat="48.1856808" lon="15.1180734">
        <ele>220.616</ele>
        <time>2019-05-03T10:25:53.702Z</time>
      </trkpt>
      <trkpt lat="48.1857807" lon="15.1180062">
        <ele>220.982</ele>
        <time>2019-05-03T10:25:55.728Z</time>
      </trkpt>
      <trkpt lat="48.1858677" lon="15.1179449">
        <ele>221.334</ele>
        <time>2019-05-03T10:25:57.591Z</time>
      </trkpt>
      <trkpt lat="48.1859471" lon="15.1178631">
        <ele>221.644</ele>
        <time>2019-05-03T10:25:59.463Z</time>
      </trkpt>
      <trkpt lat="48.1860637" lon="15.1177617">
        <ele>221.859</ele>
        <time>2019-05-03T10:26:02.037Z</time>
      </trkpt>
      <trkpt lat="48.1861544" lon="15.1177021">
        <ele>221.930</ele>
        <time>2019-05-03T10:26:03.895Z</time>
      </trkpt>
      <trkpt lat="48.1862564" lon="15.1176598">
        <ele>221.875</ele>
        <time>2019-05-03T10:26:05.890Z</time>
      </trkpt>
      <trkpt lat="48.1863544" lon="15.1175965">
        <ele>221.807</ele>
        <time>2019-05-03T10:26:07.894Z</time>
      </trkpt>
      <trkpt lat="48.1864542" lon="15.1175335">
        <ele>221.851</ele>
        <time>2019-05-03T10:26:09.899Z</time>
      </trkpt>
      <trkpt lat="48.1865453" lon="15.1174641">
        <ele>222.059</ele>
        <time>2019-05-03T10:26:11.802Z</time>
      </trkpt>
      <trkpt lat="48.1866271" lon="15.1174044">
        <ele>222.348</ele>
        <time>2019-05-03T10:26:13.510Z</time>
      </trkpt>
      <trkpt lat="48.1867127" lon="15.1173408">
        <ele>222.555</ele>
        <time>2019-05-03T10:26:15.279Z</time>
      </trkpt>
      <trkpt lat="48.1868095" lon="15.1172841">
        <ele>222.606</ele>
        <time>2019-05-03T10:26:17.150Z</time>
      </trkpt>
      <trkpt lat="48.1869006" lon="15.1171988">
        <ele>222.555</ele>
        <time>2019-05-03T10:26:19.159Z</time>
      </trkpt>
      <trkpt lat="48.1869900" lon="15.1171008">
        <ele>222.462</ele>
        <time>2019-05-03T10:26:21.686Z</time>
      </trkpt>
      <trkpt lat="48.1870736" lon="15.1170505">
        <ele>222.326</ele>
        <time>2019-05-03T10:26:23.999Z</time>
      </trkpt>
      <trkpt lat="48.1870736" lon="15.1170505">
        <ele>222.156</ele>
        <time>2019-05-03T10:26:26.999Z</time>
      </trkpt>
      <trkpt lat="48.1870736" lon="15.1170505">
        <ele>222.012</ele>
        <time>2019-05-03T10:26:36.382Z</time>
      </trkpt>
      <trkpt lat="48.1871885" lon="15.1168283">
        <ele>221.926</ele>
        <time>2019-05-03T10:26:45.498Z</time>
      </trkpt>
      <trkpt lat="48.1872474" lon="15.1167190">
        <ele>221.642</ele>
        <time>2019-05-03T10:26:47.630Z</time>
      </trkpt>
      <trkpt lat="48.1872783" lon="15.1165143">
        <ele>220.925</ele>
        <time>2019-05-03T10:26:50.253Z</time>
      </trkpt>
      <trkpt lat="48.1873555" lon="15.1163603">
        <ele>219.840</ele>
        <time>2019-05-03T10:26:52.542Z</time>
      </trkpt>
      <trkpt lat="48.1874447" lon="15.1162774">
        <ele>218.336</ele>
        <time>2019-05-03T10:26:54.381Z</time>
      </trkpt>
      <trkpt lat="48.1875541" lon="15.1161988">
        <ele>216.535</ele>
        <time>2019-05-03T10:26:56.374Z</time>
      </trkpt>
      <trkpt lat="48.1876712" lon="15.1161228">
        <ele>215.134</ele>
        <time>2019-05-03T10:26:58.386Z</time>
      </trkpt>
      <trkpt lat="48.1877848" lon="15.1160412">
        <ele>214.505</ele>
        <time>2019-05-03T10:27:00.373Z</time>
      </trkpt>
      <trkpt lat="48.1878856" lon="15.1160024">
        <ele>214.351</ele>
        <time>2019-05-03T10:27:02.009Z</time>
      </trkpt>
      <trkpt lat="48.1880052" lon="15.1159335">
        <ele>214.336</ele>
        <time>2019-05-03T10:27:03.977Z</time>
      </trkpt>
      <trkpt lat="48.1881204" lon="15.1158573">
        <ele>214.389</ele>
        <time>2019-05-03T10:27:05.880Z</time>
      </trkpt>
      <trkpt lat="48.1882298" lon="15.1157735">
        <ele>214.525</ele>
        <time>2019-05-03T10:27:07.722Z</time>
      </trkpt>
      <trkpt lat="48.1883240" lon="15.1156974">
        <ele>214.663</ele>
        <time>2019-05-03T10:27:09.308Z</time>
      </trkpt>
      <trkpt lat="48.1884575" lon="15.1155938">
        <ele>214.732</ele>
        <time>2019-05-03T10:27:11.483Z</time>
      </trkpt>
      <trkpt lat="48.1885911" lon="15.1155169">
        <ele>214.756</ele>
        <time>2019-05-03T10:27:13.524Z</time>
      </trkpt>
      <trkpt lat="48.1887079" lon="15.1154402">
        <ele>214.767</ele>
        <time>2019-05-03T10:27:15.369Z</time>
      </trkpt>
      <trkpt lat="48.1888131" lon="15.1153618">
        <ele>214.805</ele>
        <time>2019-05-03T10:27:17.067Z</time>
      </trkpt>
      <trkpt lat="48.1889557" lon="15.1152733">
        <ele>214.924</ele>
        <time>2019-05-03T10:27:19.278Z</time>
      </trkpt>
      <trkpt lat="48.1890785" lon="15.1151880">
        <ele>215.100</ele>
        <time>2019-05-03T10:27:21.214Z</time>
      </trkpt>
      <trkpt lat="48.1892186" lon="15.1150926">
        <ele>215.266</ele>
        <time>2019-05-03T10:27:23.453Z</time>
      </trkpt>
      <trkpt lat="48.1893305" lon="15.1150064">
        <ele>215.451</ele>
        <time>2019-05-03T10:27:25.378Z</time>
      </trkpt>
      <trkpt lat="48.1894332" lon="15.1149175">
        <ele>215.704</ele>
        <time>2019-05-03T10:27:27.316Z</time>
      </trkpt>
      <trkpt lat="48.1895257" lon="15.1148402">
        <ele>215.952</ele>
        <time>2019-05-03T10:27:29.319Z</time>
      </trkpt>
      <trkpt lat="48.1896345" lon="15.1147719">
        <ele>216.090</ele>
        <time>2019-05-03T10:27:31.910Z</time>
      </trkpt>
      <trkpt lat="48.1897103" lon="15.1146955">
        <ele>216.104</ele>
        <time>2019-05-03T10:27:34.254Z</time>
      </trkpt>
      <trkpt lat="48.1898175" lon="15.1146115">
        <ele>216.047</ele>
        <time>2019-05-03T10:27:36.928Z</time>
      </trkpt>
      <trkpt lat="48.1899250" lon="15.1145529">
        <ele>215.979</ele>
        <time>2019-05-03T10:27:39.241Z</time>
      </trkpt>
      <trkpt lat="48.1900432" lon="15.1144871">
        <ele>215.936</ele>
        <time>2019-05-03T10:27:41.929Z</time>
      </trkpt>
      <trkpt lat="48.1901522" lon="15.1144439">
        <ele>215.900</ele>
        <time>2019-05-03T10:27:44.541Z</time>
      </trkpt>
      <trkpt lat="48.1902692" lon="15.1143943">
        <ele>215.843</ele>
        <time>2019-05-03T10:27:47.795Z</time>
      </trkpt>
      <trkpt lat="48.1904085" lon="15.1143519">
        <ele>215.836</ele>
        <time>2019-05-03T10:27:51.494Z</time>
      </trkpt>
      <trkpt lat="48.1905493" lon="15.1143512">
        <ele>215.978</ele>
        <time>2019-05-03T10:27:54.429Z</time>
      </trkpt>
      <trkpt lat="48.1906529" lon="15.1143430">
        <ele>216.242</ele>
        <time>2019-05-03T10:27:56.539Z</time>
      </trkpt>
      <trkpt lat="48.1907613" lon="15.1143085">
        <ele>216.552</ele>
        <time>2019-05-03T10:27:58.888Z</time>
      </trkpt>
      <trkpt lat="48.1908491" lon="15.1142367">
        <ele>216.852</ele>
        <time>2019-05-03T10:28:01.195Z</time>
      </trkpt>
      <trkpt lat="48.1909435" lon="15.1141274">
        <ele>217.049</ele>
        <time>2019-05-03T10:28:04.511Z</time>
      </trkpt>
      <trkpt lat="48.1910380" lon="15.1140360">
        <ele>216.962</ele>
        <time>2019-05-03T10:28:09.512Z</time>
      </trkpt>
      <trkpt lat="48.1911411" lon="15.1140557">
        <ele>216.568</ele>
        <time>2019-05-03T10:28:16.052Z</time>
      </trkpt>
      <trkpt lat="48.1912323" lon="15.1140313">
        <ele>216.149</ele>
        <time>2019-05-03T10:28:21.147Z</time>
      </trkpt>
      <trkpt lat="48.1913247" lon="15.1140422">
        <ele>216.054</ele>
        <time>2019-05-03T10:28:25.114Z</time>
      </trkpt>
      <trkpt lat="48.1914346" lon="15.1140395">
        <ele>216.360</ele>
        <time>2019-05-03T10:28:29.067Z</time>
      </trkpt>
      <trkpt lat="48.1915372" lon="15.1139654">
        <ele>216.996</ele>
        <time>2019-05-03T10:28:32.433Z</time>
      </trkpt>
      <trkpt lat="48.1916305" lon="15.1138935">
        <ele>217.749</ele>
        <time>2019-05-03T10:28:35.139Z</time>
      </trkpt>
      <trkpt lat="48.1917120" lon="15.1138252">
        <ele>218.160</ele>
        <time>2019-05-03T10:28:37.656Z</time>
      </trkpt>
      <trkpt lat="48.1918350" lon="15.1137688">
        <ele>217.927</ele>
        <time>2019-05-03T10:28:40.989Z</time>
      </trkpt>
      <trkpt lat="48.1919289" lon="15.1137329">
        <ele>217.335</ele>
        <time>2019-05-03T10:28:43.349Z</time>
      </trkpt>
      <trkpt lat="48.1920469" lon="15.1136707">
        <ele>216.832</ele>
        <time>2019-05-03T10:28:46.213Z</time>
      </trkpt>
      <trkpt lat="48.1921481" lon="15.1136636">
        <ele>216.522</ele>
        <time>2019-05-03T10:28:48.451Z</time>
      </trkpt>
      <trkpt lat="48.1922420" lon="15.1136673">
        <ele>216.242</ele>
        <time>2019-05-03T10:28:50.493Z</time>
      </trkpt>
      <trkpt lat="48.1923349" lon="15.1136534">
        <ele>215.938</ele>
        <time>2019-05-03T10:28:52.500Z</time>
      </trkpt>
      <trkpt lat="48.1924311" lon="15.1136183">
        <ele>215.771</ele>
        <time>2019-05-03T10:28:54.621Z</time>
      </trkpt>
      <trkpt lat="48.1925591" lon="15.1135644">
        <ele>215.820</ele>
        <time>2019-05-03T10:28:57.440Z</time>
      </trkpt>
      <trkpt lat="48.1926497" lon="15.1135498">
        <ele>215.969</ele>
        <time>2019-05-03T10:28:59.332Z</time>
      </trkpt>
      <trkpt lat="48.1927425" lon="15.1135411">
        <ele>216.057</ele>
        <time>2019-05-03T10:29:01.196Z</time>
      </trkpt>
      <trkpt lat="48.1928322" lon="15.1135184">
        <ele>216.017</ele>
        <time>2019-05-03T10:29:02.953Z</time>
      </trkpt>
      <trkpt lat="48.1929273" lon="15.1134750">
        <ele>215.898</ele>
        <time>2019-05-03T10:29:04.804Z</time>
      </trkpt>
      <trkpt lat="48.1930355" lon="15.1134235">
        <ele>215.821</ele>
        <time>2019-05-03T10:29:06.882Z</time>
      </trkpt>
      <trkpt lat="48.1931418" lon="15.1133483">
        <ele>215.840</ele>
        <time>2019-05-03T10:29:09.048Z</time>
      </trkpt>
      <trkpt lat="48.1932321" lon="15.1132979">
        <ele>215.875</ele>
        <time>2019-05-03T10:29:10.874Z</time>
      </trkpt>
      <trkpt lat="48.1933290" lon="15.1132377">
        <ele>215.731</ele>
        <time>2019-05-03T10:29:12.968Z</time>
      </trkpt>
      <trkpt lat="48.1934150" lon="15.1131769">
        <ele>215.343</ele>
        <time>2019-05-03T10:29:14.923Z</time>
      </trkpt>
      <trkpt lat="48.1934993" lon="15.1131283">
        <ele>214.925</ele>
        <time>2019-05-03T10:29:16.757Z</time>
      </trkpt>
      <trkpt lat="48.1935983" lon="15.1130849">
        <ele>214.695</ele>
        <time>2019-05-03T10:29:18.835Z</time>
      </trkpt>
      <trkpt lat="48.1936948" lon="15.1130285">
        <ele>214.611</ele>
        <time>2019-05-03T10:29:20.977Z</time>
      </trkpt>
      <trkpt lat="48.1937865" lon="15.1129915">
        <ele>214.529</ele>
        <time>2019-05-03T10:29:22.969Z</time>
      </trkpt>
      <trkpt lat="48.1938848" lon="15.1129590">
        <ele>214.401</ele>
        <time>2019-05-03T10:29:25.070Z</time>
      </trkpt>
      <trkpt lat="48.1940143" lon="15.1129073">
        <ele>214.356</ele>
        <time>2019-05-03T10:29:28.002Z</time>
      </trkpt>
      <trkpt lat="48.1941381" lon="15.1128407">
        <ele>214.536</ele>
        <time>2019-05-03T10:29:31.157Z</time>
      </trkpt>
      <trkpt lat="48.1942624" lon="15.1128124">
        <ele>214.865</ele>
        <time>2019-05-03T10:29:34.204Z</time>
      </trkpt>
      <trkpt lat="48.1943880" lon="15.1127543">
        <ele>215.116</ele>
        <time>2019-05-03T10:29:37.178Z</time>
      </trkpt>
      <trkpt lat="48.1944775" lon="15.1127158">
        <ele>215.187</ele>
        <time>2019-05-03T10:29:39.191Z</time>
      </trkpt>
      <trkpt lat="48.1945711" lon="15.1126774">
        <ele>215.203</ele>
        <time>2019-05-03T10:29:41.256Z</time>
      </trkpt>
      <trkpt lat="48.1946635" lon="15.1126496">
        <ele>215.318</ele>
        <time>2019-05-03T10:29:43.290Z</time>
      </trkpt>
      <trkpt lat="48.1947527" lon="15.1126116">
        <ele>215.524</ele>
        <time>2019-05-03T10:29:45.327Z</time>
      </trkpt>
      <trkpt lat="48.1948743" lon="15.1125927">
        <ele>215.696</ele>
        <time>2019-05-03T10:29:48.109Z</time>
      </trkpt>
      <trkpt lat="48.1949596" lon="15.1125358">
        <ele>215.756</ele>
        <time>2019-05-03T10:29:50.204Z</time>
      </trkpt>
      <trkpt lat="48.1950552" lon="15.1125269">
        <ele>215.715</ele>
        <time>2019-05-03T10:29:52.295Z</time>
      </trkpt>
      <trkpt lat="48.1951610" lon="15.1125108">
        <ele>215.595</ele>
        <time>2019-05-03T10:29:54.547Z</time>
      </trkpt>
      <trkpt lat="48.1952665" lon="15.1124822">
        <ele>215.418</ele>
        <time>2019-05-03T10:29:56.779Z</time>
      </trkpt>
      <trkpt lat="48.1953671" lon="15.1124624">
        <ele>215.251</ele>
        <time>2019-05-03T10:29:58.874Z</time>
      </trkpt>
      <trkpt lat="48.1954676" lon="15.1124628">
        <ele>215.157</ele>
        <time>2019-05-03T10:30:00.964Z</time>
      </trkpt>
      <trkpt lat="48.1955678" lon="15.1124641">
        <ele>215.123</ele>
        <time>2019-05-03T10:30:03.074Z</time>
      </trkpt>
      <trkpt lat="48.1957077" lon="15.1124659">
        <ele>215.112</ele>
        <time>2019-05-03T10:30:06.066Z</time>
      </trkpt>
      <trkpt lat="48.1958051" lon="15.1124555">
        <ele>215.106</ele>
        <time>2019-05-03T10:30:08.053Z</time>
      </trkpt>
      <trkpt lat="48.1959032" lon="15.1124543">
        <ele>215.102</ele>
        <time>2019-05-03T10:30:09.918Z</time>
      </trkpt>
      <trkpt lat="48.1960210" lon="15.1124702">
        <ele>215.091</ele>
        <time>2019-05-03T10:30:12.120Z</time>
      </trkpt>
      <trkpt lat="48.1961346" lon="15.1124866">
        <ele>215.044</ele>
        <time>2019-05-03T10:30:14.285Z</time>
      </trkpt>
      <trkpt lat="48.1962346" lon="15.1124987">
        <ele>214.923</ele>
        <time>2019-05-03T10:30:16.287Z</time>
      </trkpt>
      <trkpt lat="48.1963364" lon="15.1125025">
        <ele>214.735</ele>
        <time>2019-05-03T10:30:18.384Z</time>
      </trkpt>
      <trkpt lat="48.1964326" lon="15.1125160">
        <ele>214.549</ele>
        <time>2019-05-03T10:30:20.275Z</time>
      </trkpt>
      <trkpt lat="48.1965373" lon="15.1125295">
        <ele>214.436</ele>
        <time>2019-05-03T10:30:22.208Z</time>
      </trkpt>
      <trkpt lat="48.1966528" lon="15.1125496">
        <ele>214.426</ele>
        <time>2019-05-03T10:30:24.264Z</time>
      </trkpt>
      <trkpt lat="48.1967703" lon="15.1125685">
        <ele>214.529</ele>
        <time>2019-05-03T10:30:26.359Z</time>
      </trkpt>
      <trkpt lat="48.1968817" lon="15.1125968">
        <ele>214.727</ele>
        <time>2019-05-03T10:30:28.374Z</time>
      </trkpt>
      <trkpt lat="48.1969850" lon="15.1126094">
        <ele>214.954</ele>
        <time>2019-05-03T10:30:30.172Z</time>
      </trkpt>
      <trkpt lat="48.1970999" lon="15.1126265">
        <ele>215.131</ele>
        <time>2019-05-03T10:30:32.139Z</time>
      </trkpt>
      <trkpt lat="48.1972173" lon="15.1126439">
        <ele>215.221</ele>
        <time>2019-05-03T10:30:34.163Z</time>
      </trkpt>
      <trkpt lat="48.1973314" lon="15.1126642">
        <ele>215.233</ele>
        <time>2019-05-03T10:30:36.198Z</time>
      </trkpt>
      <trkpt lat="48.1974461" lon="15.1127059">
        <ele>215.178</ele>
        <time>2019-05-03T10:30:38.322Z</time>
      </trkpt>
      <trkpt lat="48.1975502" lon="15.1127434">
        <ele>215.083</ele>
        <time>2019-05-03T10:30:40.236Z</time>
      </trkpt>
      <trkpt lat="48.1976687" lon="15.1127880">
        <ele>214.996</ele>
        <time>2019-05-03T10:30:42.496Z</time>
      </trkpt>
      <trkpt lat="48.1977809" lon="15.1128474">
        <ele>214.922</ele>
        <time>2019-05-03T10:30:44.875Z</time>
      </trkpt>
      <trkpt lat="48.1978816" lon="15.1129005">
        <ele>214.828</ele>
        <time>2019-05-03T10:30:47.080Z</time>
      </trkpt>
      <trkpt lat="48.1979722" lon="15.1129582">
        <ele>214.724</ele>
        <time>2019-05-03T10:30:49.065Z</time>
      </trkpt>
      <trkpt lat="48.1980947" lon="15.1130219">
        <ele>214.721</ele>
        <time>2019-05-03T10:30:51.612Z</time>
      </trkpt>
      <trkpt lat="48.1981947" lon="15.1130442">
        <ele>214.939</ele>
        <time>2019-05-03T10:30:53.586Z</time>
      </trkpt>
      <trkpt lat="48.1983024" lon="15.1130970">
        <ele>215.306</ele>
        <time>2019-05-03T10:30:55.725Z</time>
      </trkpt>
      <trkpt lat="48.1984046" lon="15.1131438">
        <ele>215.558</ele>
        <time>2019-05-03T10:30:57.687Z</time>
      </trkpt>
      <trkpt lat="48.1985075" lon="15.1131817">
        <ele>215.562</ele>
        <time>2019-05-03T10:30:59.618Z</time>
      </trkpt>
      <trkpt lat="48.1986033" lon="15.1132429">
        <ele>215.433</ele>
        <time>2019-05-03T10:31:01.485Z</time>
      </trkpt>
      <trkpt lat="48.1986978" lon="15.1133064">
        <ele>215.326</ele>
        <time>2019-05-03T10:31:03.301Z</time>
      </trkpt>
      <trkpt lat="48.1988779" lon="15.1134118">
        <ele>215.304</ele>
        <time>2019-05-03T10:31:06.645Z</time>
      </trkpt>
      <trkpt lat="48.1989778" lon="15.1134764">
        <ele>215.359</ele>
        <time>2019-05-03T10:31:08.548Z</time>
      </trkpt>
      <trkpt lat="48.1990879" lon="15.1135487">
        <ele>215.451</ele>
        <time>2019-05-03T10:31:10.684Z</time>
      </trkpt>
      <trkpt lat="48.1991976" lon="15.1135989">
        <ele>215.533</ele>
        <time>2019-05-03T10:31:12.763Z</time>
      </trkpt>
      <trkpt lat="48.1993016" lon="15.1136651">
        <ele>215.576</ele>
        <time>2019-05-03T10:31:14.856Z</time>
      </trkpt>
      <trkpt lat="48.1993940" lon="15.1137429">
        <ele>215.538</ele>
        <time>2019-05-03T10:31:16.848Z</time>
      </trkpt>
      <trkpt lat="48.1994814" lon="15.1138231">
        <ele>215.405</ele>
        <time>2019-05-03T10:31:18.785Z</time>
      </trkpt>
      <trkpt lat="48.1995761" lon="15.1139020">
        <ele>215.253</ele>
        <time>2019-05-03T10:31:20.793Z</time>
      </trkpt>
      <trkpt lat="48.1996657" lon="15.1139888">
        <ele>215.167</ele>
        <time>2019-05-03T10:31:22.705Z</time>
      </trkpt>
      <trkpt lat="48.1997602" lon="15.1140681">
        <ele>215.139</ele>
        <time>2019-05-03T10:31:24.590Z</time>
      </trkpt>
      <trkpt lat="48.1998609" lon="15.1141614">
        <ele>215.133</ele>
        <time>2019-05-03T10:31:26.626Z</time>
      </trkpt>
      <trkpt lat="48.1999637" lon="15.1142331">
        <ele>215.136</ele>
        <time>2019-05-03T10:31:28.600Z</time>
      </trkpt>
      <trkpt lat="48.2000674" lon="15.1143023">
        <ele>215.161</ele>
        <time>2019-05-03T10:31:30.612Z</time>
      </trkpt>
      <trkpt lat="48.2001615" lon="15.1143852">
        <ele>215.215</ele>
        <time>2019-05-03T10:31:32.601Z</time>
      </trkpt>
      <trkpt lat="48.2002535" lon="15.1144797">
        <ele>215.276</ele>
        <time>2019-05-03T10:31:34.681Z</time>
      </trkpt>
      <trkpt lat="48.2003448" lon="15.1145679">
        <ele>215.303</ele>
        <time>2019-05-03T10:31:36.702Z</time>
      </trkpt>
      <trkpt lat="48.2004331" lon="15.1146481">
        <ele>215.286</ele>
        <time>2019-05-03T10:31:38.620Z</time>
      </trkpt>
      <trkpt lat="48.2005245" lon="15.1147355">
        <ele>215.278</ele>
        <time>2019-05-03T10:31:40.663Z</time>
      </trkpt>
      <trkpt lat="48.2006183" lon="15.1148255">
        <ele>215.321</ele>
        <time>2019-05-03T10:31:42.873Z</time>
      </trkpt>
      <trkpt lat="48.2007066" lon="15.1149132">
        <ele>215.380</ele>
        <time>2019-05-03T10:31:45.117Z</time>
      </trkpt>
      <trkpt lat="48.2007870" lon="15.1149917">
        <ele>215.413</ele>
        <time>2019-05-03T10:31:47.566Z</time>
      </trkpt>
      <trkpt lat="48.2008844" lon="15.1151306">
        <ele>215.456</ele>
        <time>2019-05-03T10:31:51.398Z</time>
      </trkpt>
      <trkpt lat="48.2008722" lon="15.1152720">
        <ele>215.557</ele>
        <time>2019-05-03T10:31:54.053Z</time>
      </trkpt>
      <trkpt lat="48.2008291" lon="15.1154219">
        <ele>215.760</ele>
        <time>2019-05-03T10:31:57.152Z</time>
      </trkpt>
      <trkpt lat="48.2007778" lon="15.1155876">
        <ele>216.252</ele>
        <time>2019-05-03T10:32:00.801Z</time>
      </trkpt>
      <trkpt lat="48.2007126" lon="15.1157319">
        <ele>217.172</ele>
        <time>2019-05-03T10:32:04.181Z</time>
      </trkpt>
      <trkpt lat="48.2006499" lon="15.1158978">
        <ele>218.298</ele>
        <time>2019-05-03T10:32:07.719Z</time>
      </trkpt>
      <trkpt lat="48.2006002" lon="15.1160644">
        <ele>219.299</ele>
        <time>2019-05-03T10:32:11.269Z</time>
      </trkpt>
      <trkpt lat="48.2005440" lon="15.1162096">
        <ele>220.037</ele>
        <time>2019-05-03T10:32:14.505Z</time>
      </trkpt>
      <trkpt lat="48.2005139" lon="15.1163573">
        <ele>220.562</ele>
        <time>2019-05-03T10:32:17.164Z</time>
      </trkpt>
      <trkpt lat="48.2005841" lon="15.1164877">
        <ele>221.033</ele>
        <time>2019-05-03T10:32:19.809Z</time>
      </trkpt>
      <trkpt lat="48.2006810" lon="15.1166114">
        <ele>221.591</ele>
        <time>2019-05-03T10:32:22.788Z</time>
      </trkpt>
      <trkpt lat="48.2007691" lon="15.1167258">
        <ele>222.217</ele>
        <time>2019-05-03T10:32:25.524Z</time>
      </trkpt>
      <trkpt lat="48.2008759" lon="15.1168367">
        <ele>222.731</ele>
        <time>2019-05-03T10:32:28.496Z</time>
      </trkpt>
      <trkpt lat="48.2009875" lon="15.1169673">
        <ele>223.013</ele>
        <time>2019-05-03T10:32:31.550Z</time>
      </trkpt>
      <trkpt lat="48.2010591" lon="15.1170678">
        <ele>223.116</ele>
        <time>2019-05-03T10:32:33.595Z</time>
      </trkpt>
      <trkpt lat="48.2011333" lon="15.1171540">
        <ele>223.163</ele>
        <time>2019-05-03T10:32:35.558Z</time>
      </trkpt>
      <trkpt lat="48.2012065" lon="15.1172482">
        <ele>223.236</ele>
        <time>2019-05-03T10:32:37.572Z</time>
      </trkpt>
      <trkpt lat="48.2012846" lon="15.1173477">
        <ele>223.327</ele>
        <time>2019-05-03T10:32:39.668Z</time>
      </trkpt>
      <trkpt lat="48.2013826" lon="15.1174569">
        <ele>223.392</ele>
        <time>2019-05-03T10:32:42.136Z</time>
      </trkpt>
      <trkpt lat="48.2014575" lon="15.1175460">
        <ele>223.425</ele>
        <time>2019-05-03T10:32:44.089Z</time>
      </trkpt>
      <trkpt lat="48.2015275" lon="15.1176362">
        <ele>223.432</ele>
        <time>2019-05-03T10:32:45.997Z</time>
      </trkpt>
      <trkpt lat="48.2015964" lon="15.1177264">
        <ele>223.419</ele>
        <time>2019-05-03T10:32:47.848Z</time>
      </trkpt>
      <trkpt lat="48.2016741" lon="15.1178127">
        <ele>223.394</ele>
        <time>2019-05-03T10:32:49.671Z</time>
      </trkpt>
      <trkpt lat="48.2017579" lon="15.1178658">
        <ele>223.118</ele>
        <time>2019-05-03T10:32:51.368Z</time>
      </trkpt>
      <trkpt lat="48.2018600" lon="15.1178853">
        <ele>222.092</ele>
        <time>2019-05-03T10:32:53.301Z</time>
      </trkpt>
      <trkpt lat="48.2019753" lon="15.1179120">
        <ele>220.285</ele>
        <time>2019-05-03T10:32:55.571Z</time>
      </trkpt>
      <trkpt lat="48.2021058" lon="15.1179844">
        <ele>218.480</ele>
        <time>2019-05-03T10:32:58.262Z</time>
      </trkpt>
      <trkpt lat="48.2021848" lon="15.1180690">
        <ele>218.142</ele>
        <time>2019-05-03T10:33:00.147Z</time>
      </trkpt>
      <trkpt lat="48.2022658" lon="15.1181393">
        <ele>219.735</ele>
        <time>2019-05-03T10:33:01.968Z</time>
      </trkpt>
      <trkpt lat="48.2023503" lon="15.1182327">
        <ele>221.763</ele>
        <time>2019-05-03T10:33:03.960Z</time>
      </trkpt>
      <trkpt lat="48.2024283" lon="15.1183321">
        <ele>222.812</ele>
        <time>2019-05-03T10:33:05.789Z</time>
      </trkpt>
      <trkpt lat="48.2025063" lon="15.1184428">
        <ele>222.939</ele>
        <time>2019-05-03T10:33:07.659Z</time>
      </trkpt>
      <trkpt lat="48.2025957" lon="15.1185300">
        <ele>222.656</ele>
        <time>2019-05-03T10:33:09.639Z</time>
      </trkpt>
      <trkpt lat="48.2026936" lon="15.1186174">
        <ele>222.397</ele>
        <time>2019-05-03T10:33:11.897Z</time>
      </trkpt>
      <trkpt lat="48.2028015" lon="15.1186625">
        <ele>222.358</ele>
        <time>2019-05-03T10:33:14.089Z</time>
      </trkpt>
      <trkpt lat="48.2029112" lon="15.1186933">
        <ele>222.568</ele>
        <time>2019-05-03T10:33:16.264Z</time>
      </trkpt>
      <trkpt lat="48.2030079" lon="15.1187408">
        <ele>222.918</ele>
        <time>2019-05-03T10:33:18.237Z</time>
      </trkpt>
      <trkpt lat="48.2031037" lon="15.1187894">
        <ele>223.222</ele>
        <time>2019-05-03T10:33:20.157Z</time>
      </trkpt>
      <trkpt lat="48.2031941" lon="15.1188290">
        <ele>223.332</ele>
        <time>2019-05-03T10:33:21.915Z</time>
      </trkpt>
      <trkpt lat="48.2032761" lon="15.1189214">
        <ele>223.215</ele>
        <time>2019-05-03T10:33:23.864Z</time>
      </trkpt>
      <trkpt lat="48.2033629" lon="15.1190157">
        <ele>222.946</ele>
        <time>2019-05-03T10:33:26.186Z</time>
      </trkpt>
      <trkpt lat="48.2034557" lon="15.1190871">
        <ele>222.653</ele>
        <time>2019-05-03T10:33:28.925Z</time>
      </trkpt>
      <trkpt lat="48.2035238" lon="15.1191883">
        <ele>222.410</ele>
        <time>2019-05-03T10:33:31.925Z</time>
      </trkpt>
      <trkpt lat="48.2035966" lon="15.1192725">
        <ele>222.236</ele>
        <time>2019-05-03T10:33:34.557Z</time>
      </trkpt>
      <trkpt lat="48.2036639" lon="15.1191414">
        <ele>222.133</ele>
        <time>2019-05-03T10:33:37.640Z</time>
      </trkpt>
      <trkpt lat="48.2037452" lon="15.1189961">
        <ele>222.094</ele>
        <time>2019-05-03T10:33:41.381Z</time>
      </trkpt>
      <trkpt lat="48.2038437" lon="15.1190482">
        <ele>222.033</ele>
        <time>2019-05-03T10:33:44.470Z</time>
      </trkpt>
      <trkpt lat="48.2039207" lon="15.1191588">
        <ele>221.752</ele>
        <time>2019-05-03T10:33:47.868Z</time>
      </trkpt>
      <trkpt lat="48.2040039" lon="15.1192767">
        <ele>221.134</ele>
        <time>2019-05-03T10:33:51.357Z</time>
      </trkpt>
      <trkpt lat="48.2040712" lon="15.1193755">
        <ele>220.316</ele>
        <time>2019-05-03T10:33:53.663Z</time>
      </trkpt>
      <trkpt lat="48.2041293" lon="15.1194872">
        <ele>219.539</ele>
        <time>2019-05-03T10:33:55.627Z</time>
      </trkpt>
      <trkpt lat="48.2041843" lon="15.1196005">
        <ele>218.898</ele>
        <time>2019-05-03T10:33:57.408Z</time>
      </trkpt>
      <trkpt lat="48.2042604" lon="15.1197328">
        <ele>218.407</ele>
        <time>2019-05-03T10:33:59.521Z</time>
      </trkpt>
      <trkpt lat="48.2043383" lon="15.1198498">
        <ele>218.117</ele>
        <time>2019-05-03T10:34:01.462Z</time>
      </trkpt>
      <trkpt lat="48.2044159" lon="15.1199541">
        <ele>218.059</ele>
        <time>2019-05-03T10:34:03.302Z</time>
      </trkpt>
      <trkpt lat="48.2045146" lon="15.1200676">
        <ele>218.155</ele>
        <time>2019-05-03T10:34:05.571Z</time>
      </trkpt>
      <trkpt lat="48.2046221" lon="15.1201742">
        <ele>218.272</ele>
        <time>2019-05-03T10:34:08.013Z</time>
      </trkpt>
      <trkpt lat="48.2047041" lon="15.1202918">
        <ele>218.319</ele>
        <time>2019-05-03T10:34:10.047Z</time>
      </trkpt>
      <trkpt lat="48.2047696" lon="15.1204132">
        <ele>218.252</ele>
        <time>2019-05-03T10:34:11.703Z</time>
      </trkpt>
      <trkpt lat="48.2048327" lon="15.1205111">
        <ele>218.035</ele>
        <time>2019-05-03T10:34:13.033Z</time>
      </trkpt>
      <trkpt lat="48.2049247" lon="15.1206180">
        <ele>217.705</ele>
        <time>2019-05-03T10:34:14.695Z</time>
      </trkpt>
      <trkpt lat="48.2050427" lon="15.1207510">
        <ele>217.389</ele>
        <time>2019-05-03T10:34:16.818Z</time>
      </trkpt>
      <trkpt lat="48.2051754" lon="15.1208226">
        <ele>217.171</ele>
        <time>2019-05-03T10:34:18.912Z</time>
      </trkpt>
      <trkpt lat="48.2052562" lon="15.1209679">
        <ele>217.049</ele>
        <time>2019-05-03T10:34:20.824Z</time>
      </trkpt>
      <trkpt lat="48.2053418" lon="15.1211147">
        <ele>216.981</ele>
        <time>2019-05-03T10:34:22.805Z</time>
      </trkpt>
      <trkpt lat="48.2054318" lon="15.1212703">
        <ele>216.933</ele>
        <time>2019-05-03T10:34:24.864Z</time>
      </trkpt>
      <trkpt lat="48.2055075" lon="15.1214245">
        <ele>216.922</ele>
        <time>2019-05-03T10:34:26.797Z</time>
      </trkpt>
      <trkpt lat="48.2055846" lon="15.1215732">
        <ele>216.963</ele>
        <time>2019-05-03T10:34:28.831Z</time>
      </trkpt>
      <trkpt lat="48.2056674" lon="15.1217359">
        <ele>217.018</ele>
        <time>2019-05-03T10:34:31.170Z</time>
      </trkpt>
      <trkpt lat="48.2057220" lon="15.1218735">
        <ele>217.004</ele>
        <time>2019-05-03T10:34:32.999Z</time>
      </trkpt>
      <trkpt lat="48.2057861" lon="15.1220130">
        <ele>216.890</ele>
        <time>2019-05-03T10:34:34.855Z</time>
      </trkpt>
      <trkpt lat="48.2058499" lon="15.1221964">
        <ele>216.762</ele>
        <time>2019-05-03T10:34:37.124Z</time>
      </trkpt>
      <trkpt lat="48.2059232" lon="15.1223758">
        <ele>216.764</ele>
        <time>2019-05-03T10:34:39.477Z</time>
      </trkpt>
      <trkpt lat="48.2059730" lon="15.1225208">
        <ele>216.956</ele>
        <time>2019-05-03T10:34:41.261Z</time>
      </trkpt>
      <trkpt lat="48.2060296" lon="15.1226653">
        <ele>217.224</ele>
        <time>2019-05-03T10:34:43.020Z</time>
      </trkpt>
      <trkpt lat="48.2061019" lon="15.1228228">
        <ele>217.401</ele>
        <time>2019-05-03T10:34:44.950Z</time>
      </trkpt>
      <trkpt lat="48.2061752" lon="15.1229594">
        <ele>217.480</ele>
        <time>2019-05-03T10:34:46.713Z</time>
      </trkpt>
      <trkpt lat="48.2062615" lon="15.1230819">
        <ele>217.543</ele>
        <time>2019-05-03T10:34:48.524Z</time>
      </trkpt>
      <trkpt lat="48.2063497" lon="15.1232626">
        <ele>217.609</ele>
        <time>2019-05-03T10:34:50.880Z</time>
      </trkpt>
      <trkpt lat="48.2064370" lon="15.1234285">
        <ele>217.610</ele>
        <time>2019-05-03T10:34:53.276Z</time>
      </trkpt>
      <trkpt lat="48.2065341" lon="15.1235450">
        <ele>217.458</ele>
        <time>2019-05-03T10:34:55.446Z</time>
      </trkpt>
      <trkpt lat="48.2065932" lon="15.1236511">
        <ele>217.166</ele>
        <time>2019-05-03T10:34:57.024Z</time>
      </trkpt>
      <trkpt lat="48.2066701" lon="15.1238019">
        <ele>216.867</ele>
        <time>2019-05-03T10:34:59.084Z</time>
      </trkpt>
      <trkpt lat="48.2067173" lon="15.1239345">
        <ele>216.644</ele>
        <time>2019-05-03T10:35:00.697Z</time>
      </trkpt>
      <trkpt lat="48.2067847" lon="15.1241239">
        <ele>216.459</ele>
        <time>2019-05-03T10:35:03.045Z</time>
      </trkpt>
      <trkpt lat="48.2068569" lon="15.1242820">
        <ele>216.283</ele>
        <time>2019-05-03T10:35:05.125Z</time>
      </trkpt>
      <trkpt lat="48.2069216" lon="15.1244248">
        <ele>216.170</ele>
        <time>2019-05-03T10:35:06.961Z</time>
      </trkpt>
      <trkpt lat="48.2069900" lon="15.1246033">
        <ele>216.174</ele>
        <time>2019-05-03T10:35:09.213Z</time>
      </trkpt>
      <trkpt lat="48.2070574" lon="15.1248076">
        <ele>216.315</ele>
        <time>2019-05-03T10:35:11.861Z</time>
      </trkpt>
      <trkpt lat="48.2071057" lon="15.1249679">
        <ele>216.563</ele>
        <time>2019-05-03T10:35:13.959Z</time>
      </trkpt>
      <trkpt lat="48.2071838" lon="15.1251521">
        <ele>216.817</ele>
        <time>2019-05-03T10:35:16.395Z</time>
      </trkpt>
      <trkpt lat="48.2072753" lon="15.1253395">
        <ele>217.039</ele>
        <time>2019-05-03T10:35:18.803Z</time>
      </trkpt>
      <trkpt lat="48.2073399" lon="15.1255143">
        <ele>217.263</ele>
        <time>2019-05-03T10:35:20.844Z</time>
      </trkpt>
      <trkpt lat="48.2073958" lon="15.1257018">
        <ele>217.460</ele>
        <time>2019-05-03T10:35:22.979Z</time>
      </trkpt>
      <trkpt lat="48.2074530" lon="15.1258840">
        <ele>217.557</ele>
        <time>2019-05-03T10:35:25.143Z</time>
      </trkpt>
      <trkpt lat="48.2075006" lon="15.1260590">
        <ele>217.551</ele>
        <time>2019-05-03T10:35:27.160Z</time>
      </trkpt>
      <trkpt lat="48.2075446" lon="15.1262254">
        <ele>217.529</ele>
        <time>2019-05-03T10:35:28.947Z</time>
      </trkpt>
      <trkpt lat="48.2076031" lon="15.1263940">
        <ele>217.573</ele>
        <time>2019-05-03T10:35:30.732Z</time>
      </trkpt>
      <trkpt lat="48.2076738" lon="15.1266083">
        <ele>217.671</ele>
        <time>2019-05-03T10:35:32.901Z</time>
      </trkpt>
      <trkpt lat="48.2077433" lon="15.1268150">
        <ele>217.777</ele>
        <time>2019-05-03T10:35:34.996Z</time>
      </trkpt>
      <trkpt lat="48.2077918" lon="15.1269953">
        <ele>217.873</ele>
        <time>2019-05-03T10:35:36.775Z</time>
      </trkpt>
      <trkpt lat="48.2078773" lon="15.1271992">
        <ele>217.957</ele>
        <time>2019-05-03T10:35:39.000Z</time>
      </trkpt>
      <trkpt lat="48.2079615" lon="15.1274106">
        <ele>218.015</ele>
        <time>2019-05-03T10:35:41.273Z</time>
      </trkpt>
      <trkpt lat="48.2080378" lon="15.1276105">
        <ele>218.018</ele>
        <time>2019-05-03T10:35:43.510Z</time>
      </trkpt>
      <trkpt lat="48.2081061" lon="15.1278048">
        <ele>217.966</ele>
        <time>2019-05-03T10:35:45.858Z</time>
      </trkpt>
      <trkpt lat="48.2081536" lon="15.1279927">
        <ele>217.904</ele>
        <time>2019-05-03T10:35:47.989Z</time>
      </trkpt>
      <trkpt lat="48.2081830" lon="15.1281589">
        <ele>217.810</ele>
        <time>2019-05-03T10:35:49.722Z</time>
      </trkpt>
      <trkpt lat="48.2082059" lon="15.1283236">
        <ele>217.576</ele>
        <time>2019-05-03T10:35:51.403Z</time>
      </trkpt>
      <trkpt lat="48.2082573" lon="15.1285237">
        <ele>217.213</ele>
        <time>2019-05-03T10:35:53.567Z</time>
      </trkpt>
      <trkpt lat="48.2082899" lon="15.1287189">
        <ele>216.818</ele>
        <time>2019-05-03T10:35:55.637Z</time>
      </trkpt>
      <trkpt lat="48.2083222" lon="15.1289305">
        <ele>216.470</ele>
        <time>2019-05-03T10:35:57.819Z</time>
      </trkpt>
      <trkpt lat="48.2083612" lon="15.1291093">
        <ele>216.370</ele>
        <time>2019-05-03T10:35:59.602Z</time>
      </trkpt>
      <trkpt lat="48.2083998" lon="15.1292670">
        <ele>216.697</ele>
        <time>2019-05-03T10:36:01.162Z</time>
      </trkpt>
      <trkpt lat="48.2084488" lon="15.1294497">
        <ele>217.246</ele>
        <time>2019-05-03T10:36:02.968Z</time>
      </trkpt>
      <trkpt lat="48.2084796" lon="15.1296605">
        <ele>217.645</ele>
        <time>2019-05-03T10:36:04.913Z</time>
      </trkpt>
      <trkpt lat="48.2085072" lon="15.1298262">
        <ele>217.752</ele>
        <time>2019-05-03T10:36:06.437Z</time>
      </trkpt>
      <trkpt lat="48.2085452" lon="15.1300542">
        <ele>217.631</ele>
        <time>2019-05-03T10:36:08.561Z</time>
      </trkpt>
      <trkpt lat="48.2085740" lon="15.1302845">
        <ele>217.391</ele>
        <time>2019-05-03T10:36:10.738Z</time>
      </trkpt>
      <trkpt lat="48.2085995" lon="15.1304888">
        <ele>217.114</ele>
        <time>2019-05-03T10:36:12.714Z</time>
      </trkpt>
      <trkpt lat="48.2086295" lon="15.1306986">
        <ele>216.871</ele>
        <time>2019-05-03T10:36:14.784Z</time>
      </trkpt>
      <trkpt lat="48.2086517" lon="15.1309070">
        <ele>216.903</ele>
        <time>2019-05-03T10:36:16.826Z</time>
      </trkpt>
      <trkpt lat="48.2086702" lon="15.1311120">
        <ele>217.322</ele>
        <time>2019-05-03T10:36:18.800Z</time>
      </trkpt>
      <trkpt lat="48.2087019" lon="15.1313069">
        <ele>217.769</ele>
        <time>2019-05-03T10:36:20.655Z</time>
      </trkpt>
      <trkpt lat="48.2087213" lon="15.1315067">
        <ele>217.879</ele>
        <time>2019-05-03T10:36:22.491Z</time>
      </trkpt>
      <trkpt lat="48.2087438" lon="15.1317145">
        <ele>217.670</ele>
        <time>2019-05-03T10:36:24.426Z</time>
      </trkpt>
      <trkpt lat="48.2087680" lon="15.1319319">
        <ele>217.328</ele>
        <time>2019-05-03T10:36:26.473Z</time>
      </trkpt>
      <trkpt lat="48.2088011" lon="15.1321249">
        <ele>217.011</ele>
        <time>2019-05-03T10:36:28.326Z</time>
      </trkpt>
      <trkpt lat="48.2088278" lon="15.1323279">
        <ele>216.726</ele>
        <time>2019-05-03T10:36:30.262Z</time>
      </trkpt>
      <trkpt lat="48.2088475" lon="15.1325454">
        <ele>216.408</ele>
        <time>2019-05-03T10:36:32.301Z</time>
      </trkpt>
      <trkpt lat="48.2088510" lon="15.1327323">
        <ele>216.074</ele>
        <time>2019-05-03T10:36:34.017Z</time>
      </trkpt>
      <trkpt lat="48.2088649" lon="15.1329422">
        <ele>215.781</ele>
        <time>2019-05-03T10:36:36.079Z</time>
      </trkpt>
      <trkpt lat="48.2088917" lon="15.1331364">
        <ele>215.563</ele>
        <time>2019-05-03T10:36:38.453Z</time>
      </trkpt>
      <trkpt lat="48.2089062" lon="15.1333118">
        <ele>215.403</ele>
        <time>2019-05-03T10:36:40.831Z</time>
      </trkpt>
      <trkpt lat="48.2088566" lon="15.1334330">
        <ele>215.269</ele>
        <time>2019-05-03T10:36:42.672Z</time>
      </trkpt>
      <trkpt lat="48.2087490" lon="15.1334513">
        <ele>215.231</ele>
        <time>2019-05-03T10:36:44.741Z</time>
      </trkpt>
      <trkpt lat="48.2086067" lon="15.1334360">
        <ele>215.539</ele>
        <time>2019-05-03T10:36:47.699Z</time>
      </trkpt>
      <trkpt lat="48.2084609" lon="15.1334562">
        <ele>216.301</ele>
        <time>2019-05-03T10:36:51.202Z</time>
      </trkpt>
      <trkpt lat="48.2083639" lon="15.1334729">
        <ele>217.262</ele>
        <time>2019-05-03T10:36:53.881Z</time>
      </trkpt>
      <trkpt lat="48.2082417" lon="15.1335113">
        <ele>218.020</ele>
        <time>2019-05-03T10:36:57.968Z</time>
      </trkpt>
      <trkpt lat="48.2081214" lon="15.1335424">
        <ele>218.402</ele>
        <time>2019-05-03T10:37:01.864Z</time>
      </trkpt>
      <trkpt lat="48.2080269" lon="15.1336027">
        <ele>218.553</ele>
        <time>2019-05-03T10:37:04.869Z</time>
      </trkpt>
      <trkpt lat="48.2080549" lon="15.1337560">
        <ele>218.788</ele>
        <time>2019-05-03T10:37:07.676Z</time>
      </trkpt>
      <trkpt lat="48.2080993" lon="15.1338912">
        <ele>219.260</ele>
        <time>2019-05-03T10:37:10.019Z</time>
      </trkpt>
      <trkpt lat="48.2081688" lon="15.1340296">
        <ele>219.855</ele>
        <time>2019-05-03T10:37:12.403Z</time>
      </trkpt>
      <trkpt lat="48.2082139" lon="15.1342047">
        <ele>220.346</ele>
        <time>2019-05-03T10:37:14.899Z</time>
      </trkpt>
      <trkpt lat="48.2082285" lon="15.1343763">
        <ele>220.585</ele>
        <time>2019-05-03T10:37:17.009Z</time>
      </trkpt>
      <trkpt lat="48.2082492" lon="15.1345150">
        <ele>220.583</ele>
        <time>2019-05-03T10:37:18.606Z</time>
      </trkpt>
      <trkpt lat="48.2082426" lon="15.1346654">
        <ele>220.441</ele>
        <time>2019-05-03T10:37:20.263Z</time>
      </trkpt>
      <trkpt lat="48.2082545" lon="15.1348382">
        <ele>220.249</ele>
        <time>2019-05-03T10:37:22.109Z</time>
      </trkpt>
      <trkpt lat="48.2082633" lon="15.1350234">
        <ele>220.063</ele>
        <time>2019-05-03T10:37:24.002Z</time>
      </trkpt>
      <trkpt lat="48.2083046" lon="15.1351954">
        <ele>219.887</ele>
        <time>2019-05-03T10:37:25.796Z</time>
      </trkpt>
      <trkpt lat="48.2083517" lon="15.1353719">
        <ele>219.696</ele>
        <time>2019-05-03T10:37:27.618Z</time>
      </trkpt>
      <trkpt lat="48.2083660" lon="15.1355918">
        <ele>219.485</ele>
        <time>2019-05-03T10:37:29.735Z</time>
      </trkpt>
      <trkpt lat="48.2083799" lon="15.1357981">
        <ele>219.278</ele>
        <time>2019-05-03T10:37:31.767Z</time>
      </trkpt>
      <trkpt lat="48.2083963" lon="15.1360020">
        <ele>219.116</ele>
        <time>2019-05-03T10:37:33.831Z</time>
      </trkpt>
      <trkpt lat="48.2084276" lon="15.1361933">
        <ele>219.080</ele>
        <time>2019-05-03T10:37:35.861Z</time>
      </trkpt>
      <trkpt lat="48.2084851" lon="15.1363515">
        <ele>219.226</ele>
        <time>2019-05-03T10:37:37.749Z</time>
      </trkpt>
      <trkpt lat="48.2085550" lon="15.1364943">
        <ele>219.480</ele>
        <time>2019-05-03T10:37:39.680Z</time>
      </trkpt>
      <trkpt lat="48.2085942" lon="15.1366822">
        <ele>219.695</ele>
        <time>2019-05-03T10:37:42.049Z</time>
      </trkpt>
      <trkpt lat="48.2086252" lon="15.1368406">
        <ele>219.773</ele>
        <time>2019-05-03T10:37:43.966Z</time>
      </trkpt>
      <trkpt lat="48.2086825" lon="15.1369576">
        <ele>219.693</ele>
        <time>2019-05-03T10:37:45.563Z</time>
      </trkpt>
      <trkpt lat="48.2088376" lon="15.1369419">
        <ele>219.497</ele>
        <time>2019-05-03T10:37:48.186Z</time>
      </trkpt>
      <trkpt lat="48.2089841" lon="15.1369673">
        <ele>219.261</ele>
        <time>2019-05-03T10:37:50.555Z</time>
      </trkpt>
      <trkpt lat="48.2090326" lon="15.1371749">
        <ele>219.049</ele>
        <time>2019-05-03T10:37:52.846Z</time>
      </trkpt>
      <trkpt lat="48.2090372" lon="15.1373857">
        <ele>218.883</ele>
        <time>2019-05-03T10:37:55.066Z</time>
      </trkpt>
      <trkpt lat="48.2090401" lon="15.1375930">
        <ele>218.761</ele>
        <time>2019-05-03T10:37:57.207Z</time>
      </trkpt>
      <trkpt lat="48.2090403" lon="15.1377570">
        <ele>218.671</ele>
        <time>2019-05-03T10:37:58.858Z</time>
      </trkpt>
      <trkpt lat="48.2090477" lon="15.1379514">
        <ele>218.600</ele>
        <time>2019-05-03T10:38:00.762Z</time>
      </trkpt>
      <trkpt lat="48.2090450" lon="15.1381380">
        <ele>218.544</ele>
        <time>2019-05-03T10:38:02.555Z</time>
      </trkpt>
      <trkpt lat="48.2090479" lon="15.1383144">
        <ele>218.499</ele>
        <time>2019-05-03T10:38:04.222Z</time>
      </trkpt>
      <trkpt lat="48.2090558" lon="15.1385324">
        <ele>218.462</ele>
        <time>2019-05-03T10:38:06.256Z</time>
      </trkpt>
      <trkpt lat="48.2090206" lon="15.1387161">
        <ele>218.432</ele>
        <time>2019-05-03T10:38:08.024Z</time>
      </trkpt>
      <trkpt lat="48.2090245" lon="15.1389195">
        <ele>218.409</ele>
        <time>2019-05-03T10:38:09.897Z</time>
      </trkpt>
      <trkpt lat="48.2090569" lon="15.1392642">
        <ele>218.390</ele>
        <time>2019-05-03T10:38:13.103Z</time>
      </trkpt>
      <trkpt lat="48.2091202" lon="15.1395598">
        <ele>218.375</ele>
        <time>2019-05-03T10:38:16.004Z</time>
      </trkpt>
      <trkpt lat="48.2092030" lon="15.1398731">
        <ele>218.361</ele>
        <time>2019-05-03T10:38:19.196Z</time>
      </trkpt>
      <trkpt lat="48.2092444" lon="15.1401632">
        <ele>218.349</ele>
        <time>2019-05-03T10:38:21.965Z</time>
      </trkpt>
      <trkpt lat="48.2093117" lon="15.1404645">
        <ele>218.340</ele>
        <time>2019-05-03T10:38:24.829Z</time>
      </trkpt>
      <trkpt lat="48.2093616" lon="15.1407812">
        <ele>218.333</ele>
        <time>2019-05-03T10:38:27.812Z</time>
      </trkpt>
      <trkpt lat="48.2094414" lon="15.1410849">
        <ele>218.328</ele>
        <time>2019-05-03T10:38:31.757Z</time>
      </trkpt>
      <trkpt lat="48.2094790" lon="15.1412626">
        <ele>218.325</ele>
        <time>2019-05-03T10:38:34.731Z</time>
      </trkpt>
      <trkpt lat="48.2094627" lon="15.1414174">
        <ele>218.323</ele>
        <time>2019-05-03T10:38:37.614Z</time>
      </trkpt>
      <trkpt lat="48.2093726" lon="15.1415156">
        <ele>218.322</ele>
        <time>2019-05-03T10:38:40.478Z</time>
      </trkpt>
      <trkpt lat="48.2092789" lon="15.1415122">
        <ele>218.321</ele>
        <time>2019-05-03T10:38:42.548Z</time>
      </trkpt>
      <trkpt lat="48.2091868" lon="15.1415936">
        <ele>218.319</ele>
        <time>2019-05-03T10:38:44.559Z</time>
      </trkpt>
      <trkpt lat="48.2091549" lon="15.1417390">
        <ele>218.318</ele>
        <time>2019-05-03T10:38:46.417Z</time>
      </trkpt>
      <trkpt lat="48.2091680" lon="15.1419501">
        <ele>218.319</ele>
        <time>2019-05-03T10:38:48.842Z</time>
      </trkpt>
      <trkpt lat="48.2091852" lon="15.1421392">
        <ele>218.325</ele>
        <time>2019-05-03T10:38:50.919Z</time>
      </trkpt>
      <trkpt lat="48.2091995" lon="15.1422946">
        <ele>218.336</ele>
        <time>2019-05-03T10:38:52.653Z</time>
      </trkpt>
      <trkpt lat="48.2092304" lon="15.1424596">
        <ele>218.346</ele>
        <time>2019-05-03T10:38:54.605Z</time>
      </trkpt>
      <trkpt lat="48.2092747" lon="15.1426292">
        <ele>218.377</ele>
        <time>2019-05-03T10:38:56.766Z</time>
      </trkpt>
      <trkpt lat="48.2093029" lon="15.1427885">
        <ele>218.500</ele>
        <time>2019-05-03T10:38:58.818Z</time>
      </trkpt>
      <trkpt lat="48.2093206" lon="15.1429617">
        <ele>218.746</ele>
        <time>2019-05-03T10:39:01.004Z</time>
      </trkpt>
      <trkpt lat="48.2093510" lon="15.1431519">
        <ele>219.040</ele>
        <time>2019-05-03T10:39:03.428Z</time>
      </trkpt>
      <trkpt lat="48.2093742" lon="15.1433053">
        <ele>219.276</ele>
        <time>2019-05-03T10:39:05.319Z</time>
      </trkpt>
      <trkpt lat="48.2093926" lon="15.1434543">
        <ele>219.406</ele>
        <time>2019-05-03T10:39:06.997Z</time>
      </trkpt>
      <trkpt lat="48.2094147" lon="15.1436177">
        <ele>219.436</ele>
        <time>2019-05-03T10:39:08.695Z</time>
      </trkpt>
      <trkpt lat="48.2094366" lon="15.1438658">
        <ele>219.392</ele>
        <time>2019-05-03T10:39:11.107Z</time>
      </trkpt>
      <trkpt lat="48.2094514" lon="15.1440628">
        <ele>219.299</ele>
        <time>2019-05-03T10:39:13.023Z</time>
      </trkpt>
      <trkpt lat="48.2094731" lon="15.1442933">
        <ele>219.175</ele>
        <time>2019-05-03T10:39:15.321Z</time>
      </trkpt>
      <trkpt lat="48.2094883" lon="15.1444866">
        <ele>219.050</ele>
        <time>2019-05-03T10:39:17.318Z</time>
      </trkpt>
      <trkpt lat="48.2095103" lon="15.1446753">
        <ele>218.974</ele>
        <time>2019-05-03T10:39:19.320Z</time>
      </trkpt>
      <trkpt lat="48.2095419" lon="15.1448960">
        <ele>218.998</ele>
        <time>2019-05-03T10:39:21.677Z</time>
      </trkpt>
      <trkpt lat="48.2095712" lon="15.1451088">
        <ele>219.126</ele>
        <time>2019-05-03T10:39:23.956Z</time>
      </trkpt>
      <trkpt lat="48.2096031" lon="15.1453178">
        <ele>219.277</ele>
        <time>2019-05-03T10:39:26.263Z</time>
      </trkpt>
      <trkpt lat="48.2096303" lon="15.1454928">
        <ele>219.364</ele>
        <time>2019-05-03T10:39:28.335Z</time>
      </trkpt>
      <trkpt lat="48.2096618" lon="15.1456804">
        <ele>219.393</ele>
        <time>2019-05-03T10:39:30.831Z</time>
      </trkpt>
      <trkpt lat="48.2096901" lon="15.1458711">
        <ele>219.400</ele>
        <time>2019-05-03T10:39:33.542Z</time>
      </trkpt>
      <trkpt lat="48.2097093" lon="15.1460432">
        <ele>219.397</ele>
        <time>2019-05-03T10:39:35.560Z</time>
      </trkpt>
      <trkpt lat="48.2097449" lon="15.1462651">
        <ele>219.380</ele>
        <time>2019-05-03T10:39:37.809Z</time>
      </trkpt>
      <trkpt lat="48.2097475" lon="15.1464520">
        <ele>219.410</ele>
        <time>2019-05-03T10:39:39.655Z</time>
      </trkpt>
      <trkpt lat="48.2098386" lon="15.1464720">
        <ele>219.571</ele>
        <time>2019-05-03T10:39:41.107Z</time>
      </trkpt>
      <trkpt lat="48.2099356" lon="15.1465556">
        <ele>219.849</ele>
        <time>2019-05-03T10:39:42.905Z</time>
      </trkpt>
      <trkpt lat="48.2100684" lon="15.1466586">
        <ele>220.127</ele>
        <time>2019-05-03T10:39:45.403Z</time>
      </trkpt>
      <trkpt lat="48.2098598" lon="15.1469954">
        <ele>220.308</ele>
        <time>2019-05-03T10:39:50.023Z</time>
      </trkpt>
      <trkpt lat="48.2099405" lon="15.1470985">
        <ele>220.357</ele>
        <time>2019-05-03T10:39:51.621Z</time>
      </trkpt>
      <trkpt lat="48.2100439" lon="15.1472345">
        <ele>220.215</ele>
        <time>2019-05-03T10:39:53.694Z</time>
      </trkpt>
      <trkpt lat="48.2101127" lon="15.1473528">
        <ele>219.811</ele>
        <time>2019-05-03T10:39:55.207Z</time>
      </trkpt>
      <trkpt lat="48.2105122" lon="15.1480766">
        <ele>218.897</ele>
        <time>2019-05-03T10:40:04.161Z</time>
      </trkpt>
      <trkpt lat="48.2105122" lon="15.1480766">
        <ele>218.897</ele>
        <time>2019-05-03T10:40:04.161Z</time>
      </trkpt>
      <trkpt lat="48.2111525" lon="15.1513714">
        <ele>218.057</ele>
        <time>2019-05-03T10:40:38.769Z</time>
      </trkpt>
      <trkpt lat="48.2111533" lon="15.1515502">
        <ele>217.957</ele>
        <time>2019-05-03T10:40:40.803Z</time>
      </trkpt>
      <trkpt lat="48.2111529" lon="15.1517249">
        <ele>217.916</ele>
        <time>2019-05-03T10:40:42.687Z</time>
      </trkpt>
      <trkpt lat="48.2111366" lon="15.1518856">
        <ele>217.904</ele>
        <time>2019-05-03T10:40:44.428Z</time>
      </trkpt>
      <trkpt lat="48.2111527" lon="15.1520426">
        <ele>217.898</ele>
        <time>2019-05-03T10:40:46.143Z</time>
      </trkpt>
      <trkpt lat="48.2111566" lon="15.1527326">
        <ele>217.878</ele>
        <time>2019-05-03T10:40:53.423Z</time>
      </trkpt>
      <trkpt lat="48.2111640" lon="15.1529309">
        <ele>217.842</ele>
        <time>2019-05-03T10:40:55.481Z</time>
      </trkpt>
      <trkpt lat="48.2111752" lon="15.1530932">
        <ele>217.804</ele>
        <time>2019-05-03T10:40:57.306Z</time>
      </trkpt>
      <trkpt lat="48.2111701" lon="15.1532511">
        <ele>217.780</ele>
        <time>2019-05-03T10:40:59.204Z</time>
      </trkpt>
      <trkpt lat="48.2111619" lon="15.1534494">
        <ele>217.759</ele>
        <time>2019-05-03T10:41:01.652Z</time>
      </trkpt>
      <trkpt lat="48.2111617" lon="15.1536309">
        <ele>217.734</ele>
        <time>2019-05-03T10:41:03.802Z</time>
      </trkpt>
      <trkpt lat="48.2111829" lon="15.1538653">
        <ele>217.713</ele>
        <time>2019-05-03T10:41:06.462Z</time>
      </trkpt>
      <trkpt lat="48.2112009" lon="15.1540212">
        <ele>217.719</ele>
        <time>2019-05-03T10:41:08.142Z</time>
      </trkpt>
      <trkpt lat="48.2112150" lon="15.1541839">
        <ele>217.796</ele>
        <time>2019-05-03T10:41:09.837Z</time>
      </trkpt>
      <trkpt lat="48.2112354" lon="15.1543607">
        <ele>217.937</ele>
        <time>2019-05-03T10:41:11.725Z</time>
      </trkpt>
      <trkpt lat="48.2112704" lon="15.1545305">
        <ele>218.045</ele>
        <time>2019-05-03T10:41:13.641Z</time>
      </trkpt>
      <trkpt lat="48.2112811" lon="15.1547034">
        <ele>218.057</ele>
        <time>2019-05-03T10:41:15.507Z</time>
      </trkpt>
      <trkpt lat="48.2112668" lon="15.1548545">
        <ele>218.011</ele>
        <time>2019-05-03T10:41:17.099Z</time>
      </trkpt>
      <trkpt lat="48.2112814" lon="15.1550523">
        <ele>217.958</ele>
        <time>2019-05-03T10:41:19.137Z</time>
      </trkpt>
      <trkpt lat="48.2112847" lon="15.1552482">
        <ele>217.888</ele>
        <time>2019-05-03T10:41:21.146Z</time>
      </trkpt>
      <trkpt lat="48.2112995" lon="15.1554117">
        <ele>217.755</ele>
        <time>2019-05-03T10:41:22.877Z</time>
      </trkpt>
      <trkpt lat="48.2113113" lon="15.1556147">
        <ele>217.544</ele>
        <time>2019-05-03T10:41:25.056Z</time>
      </trkpt>
      <trkpt lat="48.2113343" lon="15.1558023">
        <ele>217.290</ele>
        <time>2019-05-03T10:41:27.142Z</time>
      </trkpt>
      <trkpt lat="48.2113458" lon="15.1559912">
        <ele>217.038</ele>
        <time>2019-05-03T10:41:29.148Z</time>
      </trkpt>
      <trkpt lat="48.2113650" lon="15.1561392">
        <ele>216.802</ele>
        <time>2019-05-03T10:41:30.686Z</time>
      </trkpt>
      <trkpt lat="48.2113809" lon="15.1563605">
        <ele>216.582</ele>
        <time>2019-05-03T10:41:32.894Z</time>
      </trkpt>
      <trkpt lat="48.2113946" lon="15.1565636">
        <ele>216.370</ele>
        <time>2019-05-03T10:41:34.890Z</time>
      </trkpt>
      <trkpt lat="48.2114036" lon="15.1567605">
        <ele>216.192</ele>
        <time>2019-05-03T10:41:36.838Z</time>
      </trkpt>
      <trkpt lat="48.2114056" lon="15.1569694">
        <ele>216.115</ele>
        <time>2019-05-03T10:41:38.911Z</time>
      </trkpt>
      <trkpt lat="48.2114313" lon="15.1571966">
        <ele>216.209</ele>
        <time>2019-05-03T10:41:41.144Z</time>
      </trkpt>
      <trkpt lat="48.2114456" lon="15.1573957">
        <ele>216.464</ele>
        <time>2019-05-03T10:41:43.043Z</time>
      </trkpt>
      <trkpt lat="48.2114605" lon="15.1575761">
        <ele>216.778</ele>
        <time>2019-05-03T10:41:44.768Z</time>
      </trkpt>
      <trkpt lat="48.2114700" lon="15.1577624">
        <ele>217.038</ele>
        <time>2019-05-03T10:41:46.555Z</time>
      </trkpt>
      <trkpt lat="48.2114862" lon="15.1579828">
        <ele>217.198</ele>
        <time>2019-05-03T10:41:48.715Z</time>
      </trkpt>
      <trkpt lat="48.2115061" lon="15.1581816">
        <ele>217.268</ele>
        <time>2019-05-03T10:41:50.698Z</time>
      </trkpt>
      <trkpt lat="48.2115348" lon="15.1584052">
        <ele>217.278</ele>
        <time>2019-05-03T10:41:52.963Z</time>
      </trkpt>
      <trkpt lat="48.2115655" lon="15.1586224">
        <ele>217.251</ele>
        <time>2019-05-03T10:41:55.255Z</time>
      </trkpt>
      <trkpt lat="48.2115718" lon="15.1588118">
        <ele>217.186</ele>
        <time>2019-05-03T10:41:57.305Z</time>
      </trkpt>
      <trkpt lat="48.2115956" lon="15.1590107">
        <ele>217.079</ele>
        <time>2019-05-03T10:41:59.517Z</time>
      </trkpt>
      <trkpt lat="48.2116194" lon="15.1592161">
        <ele>216.935</ele>
        <time>2019-05-03T10:42:01.720Z</time>
      </trkpt>
      <trkpt lat="48.2116225" lon="15.1594087">
        <ele>216.768</ele>
        <time>2019-05-03T10:42:03.723Z</time>
      </trkpt>
      <trkpt lat="48.2116321" lon="15.1595893">
        <ele>216.615</ele>
        <time>2019-05-03T10:42:05.656Z</time>
      </trkpt>
      <trkpt lat="48.2116443" lon="15.1597342">
        <ele>216.564</ele>
        <time>2019-05-03T10:42:07.255Z</time>
      </trkpt>
      <trkpt lat="48.2116526" lon="15.1599383">
        <ele>216.692</ele>
        <time>2019-05-03T10:42:09.467Z</time>
      </trkpt>
      <trkpt lat="48.2116571" lon="15.1600989">
        <ele>216.957</ele>
        <time>2019-05-03T10:42:11.167Z</time>
      </trkpt>
      <trkpt lat="48.2116529" lon="15.1602783">
        <ele>217.250</ele>
        <time>2019-05-03T10:42:13.048Z</time>
      </trkpt>
      <trkpt lat="48.2116665" lon="15.1604520">
        <ele>217.498</ele>
        <time>2019-05-03T10:42:14.814Z</time>
      </trkpt>
      <trkpt lat="48.2116850" lon="15.1606276">
        <ele>217.683</ele>
        <time>2019-05-03T10:42:16.507Z</time>
      </trkpt>
      <trkpt lat="48.2116921" lon="15.1608220">
        <ele>217.817</ele>
        <time>2019-05-03T10:42:18.305Z</time>
      </trkpt>
      <trkpt lat="48.2117088" lon="15.1610066">
        <ele>217.908</ele>
        <time>2019-05-03T10:42:20.031Z</time>
      </trkpt>
      <trkpt lat="48.2117324" lon="15.1611789">
        <ele>217.958</ele>
        <time>2019-05-03T10:42:21.678Z</time>
      </trkpt>
      <trkpt lat="48.2117559" lon="15.1613923">
        <ele>217.969</ele>
        <time>2019-05-03T10:42:23.727Z</time>
      </trkpt>
      <trkpt lat="48.2117690" lon="15.1616303">
        <ele>217.940</ele>
        <time>2019-05-03T10:42:26.089Z</time>
      </trkpt>
      <trkpt lat="48.2117836" lon="15.1618135">
        <ele>217.867</ele>
        <time>2019-05-03T10:42:28.016Z</time>
      </trkpt>
      <trkpt lat="48.2117963" lon="15.1620061">
        <ele>217.756</ele>
        <time>2019-05-03T10:42:30.074Z</time>
      </trkpt>
      <trkpt lat="48.2118122" lon="15.1622355">
        <ele>217.622</ele>
        <time>2019-05-03T10:42:32.512Z</time>
      </trkpt>
      <trkpt lat="48.2118245" lon="15.1624556">
        <ele>217.481</ele>
        <time>2019-05-03T10:42:34.862Z</time>
      </trkpt>
      <trkpt lat="48.2118331" lon="15.1626638">
        <ele>217.359</ele>
        <time>2019-05-03T10:42:37.148Z</time>
      </trkpt>
      <trkpt lat="48.2118556" lon="15.1628344">
        <ele>217.278</ele>
        <time>2019-05-03T10:42:39.090Z</time>
      </trkpt>
      <trkpt lat="48.2118686" lon="15.1630297">
        <ele>217.121</ele>
        <time>2019-05-03T10:42:41.235Z</time>
      </trkpt>
      <trkpt lat="48.2118816" lon="15.1631900">
        <ele>216.770</ele>
        <time>2019-05-03T10:42:42.957Z</time>
      </trkpt>
      <trkpt lat="48.2119130" lon="15.1633583">
        <ele>216.370</ele>
        <time>2019-05-03T10:42:44.810Z</time>
      </trkpt>
      <trkpt lat="48.2119395" lon="15.1635381">
        <ele>216.185</ele>
        <time>2019-05-03T10:42:46.767Z</time>
      </trkpt>
      <trkpt lat="48.2119391" lon="15.1637157">
        <ele>216.325</ele>
        <time>2019-05-03T10:42:48.665Z</time>
      </trkpt>
      <trkpt lat="48.2119432" lon="15.1639062">
        <ele>216.704</ele>
        <time>2019-05-03T10:42:50.736Z</time>
      </trkpt>
      <trkpt lat="48.2119588" lon="15.1640429">
        <ele>217.130</ele>
        <time>2019-05-03T10:42:52.255Z</time>
      </trkpt>
      <trkpt lat="48.2119776" lon="15.1642431">
        <ele>217.468</ele>
        <time>2019-05-03T10:42:54.551Z</time>
      </trkpt>
      <trkpt lat="48.2119995" lon="15.1644128">
        <ele>217.684</ele>
        <time>2019-05-03T10:42:56.555Z</time>
      </trkpt>
      <trkpt lat="48.2120318" lon="15.1645962">
        <ele>217.793</ele>
        <time>2019-05-03T10:42:58.736Z</time>
      </trkpt>
      <trkpt lat="48.2120568" lon="15.1648113">
        <ele>217.819</ele>
        <time>2019-05-03T10:43:01.131Z</time>
      </trkpt>
      <trkpt lat="48.2120802" lon="15.1649453">
        <ele>217.777</ele>
        <time>2019-05-03T10:43:02.576Z</time>
      </trkpt>
      <trkpt lat="48.2121093" lon="15.1651136">
        <ele>217.675</ele>
        <time>2019-05-03T10:43:04.349Z</time>
      </trkpt>
      <trkpt lat="48.2121374" lon="15.1652941">
        <ele>217.529</ele>
        <time>2019-05-03T10:43:06.320Z</time>
      </trkpt>
      <trkpt lat="48.2121401" lon="15.1654754">
        <ele>217.358</ele>
        <time>2019-05-03T10:43:08.411Z</time>
      </trkpt>
      <trkpt lat="48.2121634" lon="15.1656908">
        <ele>217.164</ele>
        <time>2019-05-03T10:43:11.017Z</time>
      </trkpt>
      <trkpt lat="48.2122018" lon="15.1659191">
        <ele>216.959</ele>
        <time>2019-05-03T10:43:13.672Z</time>
      </trkpt>
      <trkpt lat="48.2122414" lon="15.1660781">
        <ele>216.753</ele>
        <time>2019-05-03T10:43:15.440Z</time>
      </trkpt>
      <trkpt lat="48.2122659" lon="15.1662157">
        <ele>216.579</ele>
        <time>2019-05-03T10:43:16.895Z</time>
      </trkpt>
      <trkpt lat="48.2122882" lon="15.1663857">
        <ele>216.514</ele>
        <time>2019-05-03T10:43:18.653Z</time>
      </trkpt>
      <trkpt lat="48.2123159" lon="15.1665647">
        <ele>216.612</ele>
        <time>2019-05-03T10:43:20.519Z</time>
      </trkpt>
      <trkpt lat="48.2123611" lon="15.1667731">
        <ele>216.819</ele>
        <time>2019-05-03T10:43:22.785Z</time>
      </trkpt>
      <trkpt lat="48.2124045" lon="15.1669721">
        <ele>217.064</ele>
        <time>2019-05-03T10:43:24.973Z</time>
      </trkpt>
      <trkpt lat="48.2124303" lon="15.1671615">
        <ele>217.290</ele>
        <time>2019-05-03T10:43:27.030Z</time>
      </trkpt>
      <trkpt lat="48.2124513" lon="15.1673149">
        <ele>217.401</ele>
        <time>2019-05-03T10:43:28.705Z</time>
      </trkpt>
      <trkpt lat="48.2124842" lon="15.1674965">
        <ele>217.348</ele>
        <time>2019-05-03T10:43:30.656Z</time>
      </trkpt>
      <trkpt lat="48.2125249" lon="15.1676952">
        <ele>217.214</ele>
        <time>2019-05-03T10:43:32.731Z</time>
      </trkpt>
      <trkpt lat="48.2125532" lon="15.1678516">
        <ele>217.143</ele>
        <time>2019-05-03T10:43:34.353Z</time>
      </trkpt>
      <trkpt lat="48.2125840" lon="15.1679974">
        <ele>217.205</ele>
        <time>2019-05-03T10:43:35.909Z</time>
      </trkpt>
      <trkpt lat="48.2126255" lon="15.1682020">
        <ele>217.339</ele>
        <time>2019-05-03T10:43:38.173Z</time>
      </trkpt>
      <trkpt lat="48.2126608" lon="15.1684311">
        <ele>217.448</ele>
        <time>2019-05-03T10:43:40.776Z</time>
      </trkpt>
      <trkpt lat="48.2126848" lon="15.1686285">
        <ele>217.496</ele>
        <time>2019-05-03T10:43:43.017Z</time>
      </trkpt>
      <trkpt lat="48.2127350" lon="15.1687988">
        <ele>217.498</ele>
        <time>2019-05-03T10:43:45.018Z</time>
      </trkpt>
      <trkpt lat="48.2127723" lon="15.1689501">
        <ele>217.440</ele>
        <time>2019-05-03T10:43:46.629Z</time>
      </trkpt>
      <trkpt lat="48.2127943" lon="15.1690965">
        <ele>217.272</ele>
        <time>2019-05-03T10:43:48.045Z</time>
      </trkpt>
      <trkpt lat="48.2128241" lon="15.1692570">
        <ele>217.032</ele>
        <time>2019-05-03T10:43:49.609Z</time>
      </trkpt>
      <trkpt lat="48.2128576" lon="15.1694129">
        <ele>216.858</ele>
        <time>2019-05-03T10:43:51.229Z</time>
      </trkpt>
      <trkpt lat="48.2129030" lon="15.1696353">
        <ele>216.831</ele>
        <time>2019-05-03T10:43:53.632Z</time>
      </trkpt>
      <trkpt lat="48.2129438" lon="15.1698821">
        <ele>216.910</ele>
        <time>2019-05-03T10:43:56.225Z</time>
      </trkpt>
      <trkpt lat="48.2129788" lon="15.1700802">
        <ele>216.995</ele>
        <time>2019-05-03T10:43:58.279Z</time>
      </trkpt>
      <trkpt lat="48.2130137" lon="15.1702339">
        <ele>217.008</ele>
        <time>2019-05-03T10:43:59.922Z</time>
      </trkpt>
      <trkpt lat="48.2130485" lon="15.1704337">
        <ele>216.923</ele>
        <time>2019-05-03T10:44:01.993Z</time>
      </trkpt>
      <trkpt lat="48.2130956" lon="15.1706606">
        <ele>216.782</ele>
        <time>2019-05-03T10:44:04.362Z</time>
      </trkpt>
      <trkpt lat="48.2131228" lon="15.1708480">
        <ele>216.672</ele>
        <time>2019-05-03T10:44:06.327Z</time>
      </trkpt>
      <trkpt lat="48.2131485" lon="15.1710014">
        <ele>216.664</ele>
        <time>2019-05-03T10:44:08.042Z</time>
      </trkpt>
      <trkpt lat="48.2131870" lon="15.1712107">
        <ele>216.766</ele>
        <time>2019-05-03T10:44:10.466Z</time>
      </trkpt>
      <trkpt lat="48.2132245" lon="15.1713974">
        <ele>216.911</ele>
        <time>2019-05-03T10:44:12.655Z</time>
      </trkpt>
      <trkpt lat="48.2132637" lon="15.1715645">
        <ele>217.001</ele>
        <time>2019-05-03T10:44:14.565Z</time>
      </trkpt>
      <trkpt lat="48.2132933" lon="15.1717816">
        <ele>217.015</ele>
        <time>2019-05-03T10:44:16.923Z</time>
      </trkpt>
      <trkpt lat="48.2133054" lon="15.1720111">
        <ele>217.021</ele>
        <time>2019-05-03T10:44:19.427Z</time>
      </trkpt>
      <trkpt lat="48.2133332" lon="15.1722162">
        <ele>217.121</ele>
        <time>2019-05-03T10:44:21.718Z</time>
      </trkpt>
      <trkpt lat="48.2133501" lon="15.1723602">
        <ele>217.331</ele>
        <time>2019-05-03T10:44:23.341Z</time>
      </trkpt>
      <trkpt lat="48.2133902" lon="15.1725214">
        <ele>217.566</ele>
        <time>2019-05-03T10:44:25.277Z</time>
      </trkpt>
      <trkpt lat="48.2134515" lon="15.1726782">
        <ele>217.738</ele>
        <time>2019-05-03T10:44:27.280Z</time>
      </trkpt>
      <trkpt lat="48.2134754" lon="15.1728289">
        <ele>217.816</ele>
        <time>2019-05-03T10:44:28.892Z</time>
      </trkpt>
      <trkpt lat="48.2135078" lon="15.1730091">
        <ele>217.794</ele>
        <time>2019-05-03T10:44:30.738Z</time>
      </trkpt>
      <trkpt lat="48.2135375" lon="15.1732179">
        <ele>217.676</ele>
        <time>2019-05-03T10:44:32.789Z</time>
      </trkpt>
      <trkpt lat="48.2135669" lon="15.1734518">
        <ele>217.480</ele>
        <time>2019-05-03T10:44:35.061Z</time>
      </trkpt>
      <trkpt lat="48.2135892" lon="15.1736052">
        <ele>217.237</ele>
        <time>2019-05-03T10:44:36.549Z</time>
      </trkpt>
      <trkpt lat="48.2136118" lon="15.1738071">
        <ele>216.969</ele>
        <time>2019-05-03T10:44:38.475Z</time>
      </trkpt>
      <trkpt lat="48.2136392" lon="15.1739922">
        <ele>216.728</ele>
        <time>2019-05-03T10:44:40.258Z</time>
      </trkpt>
      <trkpt lat="48.2136627" lon="15.1742433">
        <ele>216.594</ele>
        <time>2019-05-03T10:44:42.659Z</time>
      </trkpt>
      <trkpt lat="48.2136855" lon="15.1744845">
        <ele>216.617</ele>
        <time>2019-05-03T10:44:45.022Z</time>
      </trkpt>
      <trkpt lat="48.2137027" lon="15.1746846">
        <ele>216.768</ele>
        <time>2019-05-03T10:44:47.035Z</time>
      </trkpt>
      <trkpt lat="48.2137251" lon="15.1749013">
        <ele>216.959</ele>
        <time>2019-05-03T10:44:49.254Z</time>
      </trkpt>
      <trkpt lat="48.2137516" lon="15.1750927">
        <ele>217.099</ele>
        <time>2019-05-03T10:44:51.263Z</time>
      </trkpt>
      <trkpt lat="48.2137775" lon="15.1752653">
        <ele>217.154</ele>
        <time>2019-05-03T10:44:53.076Z</time>
      </trkpt>
      <trkpt lat="48.2138059" lon="15.1754489">
        <ele>217.131</ele>
        <time>2019-05-03T10:44:54.964Z</time>
      </trkpt>
      <trkpt lat="48.2138338" lon="15.1756272">
        <ele>217.046</ele>
        <time>2019-05-03T10:44:56.771Z</time>
      </trkpt>
      <trkpt lat="48.2138542" lon="15.1757985">
        <ele>216.912</ele>
        <time>2019-05-03T10:44:58.493Z</time>
      </trkpt>
      <trkpt lat="48.2138756" lon="15.1759764">
        <ele>216.741</ele>
        <time>2019-05-03T10:45:00.323Z</time>
      </trkpt>
      <trkpt lat="48.2138969" lon="15.1761930">
        <ele>216.570</ele>
        <time>2019-05-03T10:45:02.569Z</time>
      </trkpt>
      <trkpt lat="48.2139037" lon="15.1764247">
        <ele>216.467</ele>
        <time>2019-05-03T10:45:04.934Z</time>
      </trkpt>
      <trkpt lat="48.2139238" lon="15.1766278">
        <ele>216.518</ele>
        <time>2019-05-03T10:45:07.012Z</time>
      </trkpt>
      <trkpt lat="48.2139455" lon="15.1768347">
        <ele>216.750</ele>
        <time>2019-05-03T10:45:09.148Z</time>
      </trkpt>
      <trkpt lat="48.2139555" lon="15.1769894">
        <ele>217.055</ele>
        <time>2019-05-03T10:45:10.765Z</time>
      </trkpt>
      <trkpt lat="48.2139690" lon="15.1771987">
        <ele>217.288</ele>
        <time>2019-05-03T10:45:13.125Z</time>
      </trkpt>
      <trkpt lat="48.2139781" lon="15.1774190">
        <ele>217.409</ele>
        <time>2019-05-03T10:45:15.765Z</time>
      </trkpt>
      <trkpt lat="48.2139955" lon="15.1775694">
        <ele>217.442</ele>
        <time>2019-05-03T10:45:17.572Z</time>
      </trkpt>
      <trkpt lat="48.2140172" lon="15.1778247">
        <ele>217.428</ele>
        <time>2019-05-03T10:45:20.343Z</time>
      </trkpt>
      <trkpt lat="48.2140397" lon="15.1780567">
        <ele>217.381</ele>
        <time>2019-05-03T10:45:22.632Z</time>
      </trkpt>
      <trkpt lat="48.2140378" lon="15.1783500">
        <ele>217.293</ele>
        <time>2019-05-03T10:45:25.567Z</time>
      </trkpt>
      <trkpt lat="48.2140421" lon="15.1786519">
        <ele>217.188</ele>
        <time>2019-05-03T10:45:28.734Z</time>
      </trkpt>
      <trkpt lat="48.2140571" lon="15.1789296">
        <ele>217.146</ele>
        <time>2019-05-03T10:45:31.735Z</time>
      </trkpt>
      <trkpt lat="48.2140641" lon="15.1791597">
        <ele>217.203</ele>
        <time>2019-05-03T10:45:34.213Z</time>
      </trkpt>
      <trkpt lat="48.2140802" lon="15.1794169">
        <ele>217.248</ele>
        <time>2019-05-03T10:45:36.991Z</time>
      </trkpt>
      <trkpt lat="48.2140972" lon="15.1795710">
        <ele>217.155</ele>
        <time>2019-05-03T10:45:38.663Z</time>
      </trkpt>
      <trkpt lat="48.2141051" lon="15.1797678">
        <ele>216.948</ele>
        <time>2019-05-03T10:45:40.715Z</time>
      </trkpt>
      <trkpt lat="48.2141133" lon="15.1799286">
        <ele>216.723</ele>
        <time>2019-05-03T10:45:42.315Z</time>
      </trkpt>
      <trkpt lat="48.2141334" lon="15.1801353">
        <ele>216.529</ele>
        <time>2019-05-03T10:45:44.303Z</time>
      </trkpt>
      <trkpt lat="48.2141332" lon="15.1803530">
        <ele>216.365</ele>
        <time>2019-05-03T10:45:46.394Z</time>
      </trkpt>
      <trkpt lat="48.2141292" lon="15.1805570">
        <ele>216.217</ele>
        <time>2019-05-03T10:45:48.412Z</time>
      </trkpt>
      <trkpt lat="48.2141319" lon="15.1807480">
        <ele>216.078</ele>
        <time>2019-05-03T10:45:50.313Z</time>
      </trkpt>
      <trkpt lat="48.2141290" lon="15.1809384">
        <ele>215.954</ele>
        <time>2019-05-03T10:45:52.213Z</time>
      </trkpt>
      <trkpt lat="48.2141321" lon="15.1811545">
        <ele>215.848</ele>
        <time>2019-05-03T10:45:54.384Z</time>
      </trkpt>
      <trkpt lat="48.2141425" lon="15.1813396">
        <ele>215.772</ele>
        <time>2019-05-03T10:45:56.254Z</time>
      </trkpt>
      <trkpt lat="48.2141357" lon="15.1815238">
        <ele>215.744</ele>
        <time>2019-05-03T10:45:58.135Z</time>
      </trkpt>
      <trkpt lat="48.2141307" lon="15.1817197">
        <ele>215.821</ele>
        <time>2019-05-03T10:46:00.174Z</time>
      </trkpt>
      <trkpt lat="48.2141301" lon="15.1819007">
        <ele>216.001</ele>
        <time>2019-05-03T10:46:02.089Z</time>
      </trkpt>
      <trkpt lat="48.2141273" lon="15.1820805">
        <ele>216.154</ele>
        <time>2019-05-03T10:46:04.024Z</time>
      </trkpt>
      <trkpt lat="48.2141243" lon="15.1822317">
        <ele>216.171</ele>
        <time>2019-05-03T10:46:05.645Z</time>
      </trkpt>
      <trkpt lat="48.2141321" lon="15.1824189">
        <ele>216.078</ele>
        <time>2019-05-03T10:46:07.701Z</time>
      </trkpt>
      <trkpt lat="48.2141373" lon="15.1826222">
        <ele>215.949</ele>
        <time>2019-05-03T10:46:09.958Z</time>
      </trkpt>
      <trkpt lat="48.2141190" lon="15.1828301">
        <ele>215.836</ele>
        <time>2019-05-03T10:46:12.287Z</time>
      </trkpt>
      <trkpt lat="48.2141045" lon="15.1829994">
        <ele>215.747</ele>
        <time>2019-05-03T10:46:14.113Z</time>
      </trkpt>
      <trkpt lat="48.2140960" lon="15.1831667">
        <ele>215.683</ele>
        <time>2019-05-03T10:46:15.833Z</time>
      </trkpt>
      <trkpt lat="48.2140822" lon="15.1833930">
        <ele>215.653</ele>
        <time>2019-05-03T10:46:18.098Z</time>
      </trkpt>
      <trkpt lat="48.2140633" lon="15.1835893">
        <ele>215.662</ele>
        <time>2019-05-03T10:46:20.133Z</time>
      </trkpt>
      <trkpt lat="48.2140643" lon="15.1837839">
        <ele>215.701</ele>
        <time>2019-05-03T10:46:22.249Z</time>
      </trkpt>
      <trkpt lat="48.2140711" lon="15.1839654">
        <ele>215.767</ele>
        <time>2019-05-03T10:46:24.297Z</time>
      </trkpt>
      <trkpt lat="48.2140830" lon="15.1841358">
        <ele>215.852</ele>
        <time>2019-05-03T10:46:26.178Z</time>
      </trkpt>
      <trkpt lat="48.2140748" lon="15.1843021">
        <ele>215.935</ele>
        <time>2019-05-03T10:46:27.914Z</time>
      </trkpt>
      <trkpt lat="48.2140579" lon="15.1844928">
        <ele>215.991</ele>
        <time>2019-05-03T10:46:29.860Z</time>
      </trkpt>
      <trkpt lat="48.2140557" lon="15.1846597">
        <ele>216.020</ele>
        <time>2019-05-03T10:46:31.565Z</time>
      </trkpt>
      <trkpt lat="48.2140467" lon="15.1848512">
        <ele>216.043</ele>
        <time>2019-05-03T10:46:33.552Z</time>
      </trkpt>
      <trkpt lat="48.2140530" lon="15.1850403">
        <ele>216.080</ele>
        <time>2019-05-03T10:46:35.506Z</time>
      </trkpt>
      <trkpt lat="48.2140482" lon="15.1852562">
        <ele>216.132</ele>
        <time>2019-05-03T10:46:37.730Z</time>
      </trkpt>
      <trkpt lat="48.2140359" lon="15.1854588">
        <ele>216.187</ele>
        <time>2019-05-03T10:46:39.817Z</time>
      </trkpt>
      <trkpt lat="48.2140138" lon="15.1856584">
        <ele>216.237</ele>
        <time>2019-05-03T10:46:41.884Z</time>
      </trkpt>
      <trkpt lat="48.2139941" lon="15.1858261">
        <ele>216.283</ele>
        <time>2019-05-03T10:46:43.606Z</time>
      </trkpt>
      <trkpt lat="48.2139840" lon="15.1860422">
        <ele>216.341</ele>
        <time>2019-05-03T10:46:45.763Z</time>
      </trkpt>
      <trkpt lat="48.2139621" lon="15.1862483">
        <ele>216.428</ele>
        <time>2019-05-03T10:46:47.829Z</time>
      </trkpt>
      <trkpt lat="48.2139440" lon="15.1864161">
        <ele>216.545</ele>
        <time>2019-05-03T10:46:49.509Z</time>
      </trkpt>
      <trkpt lat="48.2139463" lon="15.1866246">
        <ele>216.683</ele>
        <time>2019-05-03T10:46:51.577Z</time>
      </trkpt>
      <trkpt lat="48.2139214" lon="15.1868276">
        <ele>216.835</ele>
        <time>2019-05-03T10:46:53.628Z</time>
      </trkpt>
      <trkpt lat="48.2139090" lon="15.1870314">
        <ele>216.992</ele>
        <time>2019-05-03T10:46:55.671Z</time>
      </trkpt>
      <trkpt lat="48.2138937" lon="15.1872335">
        <ele>217.143</ele>
        <time>2019-05-03T10:46:57.728Z</time>
      </trkpt>
      <trkpt lat="48.2138782" lon="15.1874409">
        <ele>217.291</ele>
        <time>2019-05-03T10:46:59.880Z</time>
      </trkpt>
      <trkpt lat="48.2138683" lon="15.1876635">
        <ele>217.421</ele>
        <time>2019-05-03T10:47:02.261Z</time>
      </trkpt>
      <trkpt lat="48.2138570" lon="15.1878235">
        <ele>217.448</ele>
        <time>2019-05-03T10:47:04.043Z</time>
      </trkpt>
      <trkpt lat="48.2138373" lon="15.1879877">
        <ele>217.286</ele>
        <time>2019-05-03T10:47:05.899Z</time>
      </trkpt>
      <trkpt lat="48.2138193" lon="15.1881717">
        <ele>216.976</ele>
        <time>2019-05-03T10:47:07.898Z</time>
      </trkpt>
      <trkpt lat="48.2137914" lon="15.1883729">
        <ele>216.648</ele>
        <time>2019-05-03T10:47:10.006Z</time>
      </trkpt>
      <trkpt lat="48.2137572" lon="15.1885694">
        <ele>216.400</ele>
        <time>2019-05-03T10:47:12.064Z</time>
      </trkpt>
      <trkpt lat="48.2137378" lon="15.1887542">
        <ele>216.264</ele>
        <time>2019-05-03T10:47:13.991Z</time>
      </trkpt>
      <trkpt lat="48.2137421" lon="15.1889404">
        <ele>216.233</ele>
        <time>2019-05-03T10:47:15.940Z</time>
      </trkpt>
      <trkpt lat="48.2137360" lon="15.1891267">
        <ele>216.284</ele>
        <time>2019-05-03T10:47:17.900Z</time>
      </trkpt>
      <trkpt lat="48.2137285" lon="15.1893006">
        <ele>216.377</ele>
        <time>2019-05-03T10:47:19.728Z</time>
      </trkpt>
      <trkpt lat="48.2137142" lon="15.1894813">
        <ele>216.473</ele>
        <time>2019-05-03T10:47:21.624Z</time>
      </trkpt>
      <trkpt lat="48.2136993" lon="15.1896746">
        <ele>216.558</ele>
        <time>2019-05-03T10:47:23.612Z</time>
      </trkpt>
      <trkpt lat="48.2136884" lon="15.1898700">
        <ele>216.639</ele>
        <time>2019-05-03T10:47:25.576Z</time>
      </trkpt>
      <trkpt lat="48.2136922" lon="15.1900386">
        <ele>216.728</ele>
        <time>2019-05-03T10:47:27.251Z</time>
      </trkpt>
      <trkpt lat="48.2136997" lon="15.1902197">
        <ele>216.830</ele>
        <time>2019-05-03T10:47:29.029Z</time>
      </trkpt>
      <trkpt lat="48.2136945" lon="15.1904378">
        <ele>216.936</ele>
        <time>2019-05-03T10:47:31.130Z</time>
      </trkpt>
      <trkpt lat="48.2136905" lon="15.1906616">
        <ele>217.028</ele>
        <time>2019-05-03T10:47:33.273Z</time>
      </trkpt>
      <trkpt lat="48.2136883" lon="15.1908966">
        <ele>217.096</ele>
        <time>2019-05-03T10:47:35.465Z</time>
      </trkpt>
      <trkpt lat="48.2136780" lon="15.1911150">
        <ele>217.145</ele>
        <time>2019-05-03T10:47:37.442Z</time>
      </trkpt>
      <trkpt lat="48.2136671" lon="15.1913536">
        <ele>217.185</ele>
        <time>2019-05-03T10:47:39.569Z</time>
      </trkpt>
      <trkpt lat="48.2136644" lon="15.1915733">
        <ele>217.228</ele>
        <time>2019-05-03T10:47:41.609Z</time>
      </trkpt>
      <trkpt lat="48.2136619" lon="15.1917731">
        <ele>217.282</ele>
        <time>2019-05-03T10:47:43.698Z</time>
      </trkpt>
      <trkpt lat="48.2136599" lon="15.1919405">
        <ele>217.346</ele>
        <time>2019-05-03T10:47:45.579Z</time>
      </trkpt>
      <trkpt lat="48.2136463" lon="15.1921319">
        <ele>217.445</ele>
        <time>2019-05-03T10:47:47.726Z</time>
      </trkpt>
      <trkpt lat="48.2136400" lon="15.1923162">
        <ele>217.594</ele>
        <time>2019-05-03T10:47:49.738Z</time>
      </trkpt>
      <trkpt lat="48.2136304" lon="15.1924911">
        <ele>217.752</ele>
        <time>2019-05-03T10:47:51.621Z</time>
      </trkpt>
      <trkpt lat="48.2136293" lon="15.1926786">
        <ele>217.870</ele>
        <time>2019-05-03T10:47:53.653Z</time>
      </trkpt>
      <trkpt lat="48.2136383" lon="15.1928338">
        <ele>217.902</ele>
        <time>2019-05-03T10:47:55.412Z</time>
      </trkpt>
      <trkpt lat="48.2136454" lon="15.1929925">
        <ele>217.731</ele>
        <time>2019-05-03T10:47:57.309Z</time>
      </trkpt>
      <trkpt lat="48.2136461" lon="15.1931434">
        <ele>217.346</ele>
        <time>2019-05-03T10:47:59.259Z</time>
      </trkpt>
      <trkpt lat="48.2136340" lon="15.1932850">
        <ele>216.970</ele>
        <time>2019-05-03T10:48:01.320Z</time>
      </trkpt>
      <trkpt lat="48.2136096" lon="15.1934602">
        <ele>216.781</ele>
        <time>2019-05-03T10:48:04.157Z</time>
      </trkpt>
      <trkpt lat="48.2135411" lon="15.1936249">
        <ele>216.674</ele>
        <time>2019-05-03T10:48:07.402Z</time>
      </trkpt>
      <trkpt lat="48.2134655" lon="15.1937724">
        <ele>216.477</ele>
        <time>2019-05-03T10:48:10.388Z</time>
      </trkpt>
      <trkpt lat="48.2133451" lon="15.1938115">
        <ele>216.202</ele>
        <time>2019-05-03T10:48:13.147Z</time>
      </trkpt>
      <trkpt lat="48.2132143" lon="15.1938002">
        <ele>215.989</ele>
        <time>2019-05-03T10:48:16.038Z</time>
      </trkpt>
      <trkpt lat="48.2131046" lon="15.1938023">
        <ele>215.886</ele>
        <time>2019-05-03T10:48:18.516Z</time>
      </trkpt>
      <trkpt lat="48.2129900" lon="15.1937996">
        <ele>215.868</ele>
        <time>2019-05-03T10:48:21.147Z</time>
      </trkpt>
      <trkpt lat="48.2128633" lon="15.1937692">
        <ele>215.901</ele>
        <time>2019-05-03T10:48:24.093Z</time>
      </trkpt>
      <trkpt lat="48.2127517" lon="15.1937751">
        <ele>215.956</ele>
        <time>2019-05-03T10:48:26.663Z</time>
      </trkpt>
      <trkpt lat="48.2126294" lon="15.1937541">
        <ele>216.028</ele>
        <time>2019-05-03T10:48:29.564Z</time>
      </trkpt>
      <trkpt lat="48.2125201" lon="15.1937038">
        <ele>216.117</ele>
        <time>2019-05-03T10:48:32.415Z</time>
      </trkpt>
      <trkpt lat="48.2124024" lon="15.1936706">
        <ele>216.228</ele>
        <time>2019-05-03T10:48:35.530Z</time>
      </trkpt>
      <trkpt lat="48.2122810" lon="15.1936765">
        <ele>216.384</ele>
        <time>2019-05-03T10:48:39.057Z</time>
      </trkpt>
      <trkpt lat="48.2121711" lon="15.1936719">
        <ele>216.602</ele>
        <time>2019-05-03T10:48:42.767Z</time>
      </trkpt>
      <trkpt lat="48.2120732" lon="15.1936130">
        <ele>216.854</ele>
        <time>2019-05-03T10:48:46.638Z</time>
      </trkpt>
      <trkpt lat="48.2119846" lon="15.1935809">
        <ele>217.103</ele>
        <time>2019-05-03T10:48:50.067Z</time>
      </trkpt>
      <trkpt lat="48.2118947" lon="15.1935409">
        <ele>217.346</ele>
        <time>2019-05-03T10:48:54.093Z</time>
      </trkpt>
      <trkpt lat="48.2118034" lon="15.1935306">
        <ele>217.597</ele>
        <time>2019-05-03T10:49:00.001Z</time>
      </trkpt>
      <trkpt lat="48.2118034" lon="15.1935306">
        <ele>217.823</ele>
        <time>2019-05-03T10:49:03.001Z</time>
      </trkpt>
      <trkpt lat="48.2118034" lon="15.1935306">
        <ele>217.906</ele>
        <time>2019-05-03T10:50:36.024Z</time>
      </trkpt>
      <trkpt lat="48.2116094" lon="15.1934889">
        <ele>217.805</ele>
        <time>2019-05-03T10:50:49.085Z</time>
      </trkpt>
      <trkpt lat="48.2114897" lon="15.1934840">
        <ele>217.755</ele>
        <time>2019-05-03T10:50:52.952Z</time>
      </trkpt>
      <trkpt lat="48.2113806" lon="15.1934962">
        <ele>217.938</ele>
        <time>2019-05-03T10:50:55.957Z</time>
      </trkpt>
      <trkpt lat="48.2112605" lon="15.1934894">
        <ele>218.192</ele>
        <time>2019-05-03T10:50:59.039Z</time>
      </trkpt>
      <trkpt lat="48.2111614" lon="15.1934740">
        <ele>218.332</ele>
        <time>2019-05-03T10:51:01.515Z</time>
      </trkpt>
      <trkpt lat="48.2110438" lon="15.1934637">
        <ele>218.364</ele>
        <time>2019-05-03T10:51:04.270Z</time>
      </trkpt>
      <trkpt lat="48.2109416" lon="15.1934505">
        <ele>218.345</ele>
        <time>2019-05-03T10:51:06.651Z</time>
      </trkpt>
      <trkpt lat="48.2108462" lon="15.1934678">
        <ele>218.293</ele>
        <time>2019-05-03T10:51:09.318Z</time>
      </trkpt>
      <trkpt lat="48.2108089" lon="15.1936127">
        <ele>218.170</ele>
        <time>2019-05-03T10:51:12.373Z</time>
      </trkpt>
      <trkpt lat="48.2108317" lon="15.1937503">
        <ele>217.507</ele>
        <time>2019-05-03T10:51:16.001Z</time>
      </trkpt>
      <trkpt lat="48.2108317" lon="15.1937503">
        <ele>216.110</ele>
        <time>2019-05-03T10:51:16.001Z</time>
      </trkpt>
      <trkpt lat="48.2108317" lon="15.1937503">
        <ele>214.978</ele>
        <time>2019-05-03T10:51:16.101Z</time>
      </trkpt>
      <trkpt lat="48.2108696" lon="15.1939622">
        <ele>214.916</ele>
        <time>2019-05-03T10:51:24.330Z</time>
      </trkpt>
      <trkpt lat="48.2108948" lon="15.1941380">
        <ele>215.150</ele>
        <time>2019-05-03T10:51:28.508Z</time>
      </trkpt>
      <trkpt lat="48.2108993" lon="15.1942958">
        <ele>214.877</ele>
        <time>2019-05-03T10:51:31.785Z</time>
      </trkpt>
      <trkpt lat="48.2109224" lon="15.1944300">
        <ele>214.365</ele>
        <time>2019-05-03T10:51:34.605Z</time>
      </trkpt>
      <trkpt lat="48.2109234" lon="15.1945959">
        <ele>214.128</ele>
        <time>2019-05-03T10:51:38.087Z</time>
      </trkpt>
      <trkpt lat="48.2109329" lon="15.1947408">
        <ele>214.243</ele>
        <time>2019-05-03T10:51:41.459Z</time>
      </trkpt>
      <trkpt lat="48.2110438" lon="15.1947610">
        <ele>214.531</ele>
        <time>2019-05-03T10:51:45.192Z</time>
      </trkpt>
      <trkpt lat="48.2111403" lon="15.1947624">
        <ele>214.742</ele>
        <time>2019-05-03T10:51:47.728Z</time>
      </trkpt>
      <trkpt lat="48.2112326" lon="15.1947561">
        <ele>214.783</ele>
        <time>2019-05-03T10:51:49.899Z</time>
      </trkpt>
      <trkpt lat="48.2113326" lon="15.1947648">
        <ele>214.797</ele>
        <time>2019-05-03T10:51:52.092Z</time>
      </trkpt>
      <trkpt lat="48.2114245" lon="15.1947693">
        <ele>214.925</ele>
        <time>2019-05-03T10:51:54.021Z</time>
      </trkpt>
      <trkpt lat="48.2115286" lon="15.1947718">
        <ele>215.131</ele>
        <time>2019-05-03T10:51:56.148Z</time>
      </trkpt>
      <trkpt lat="48.2116280" lon="15.1947802">
        <ele>215.438</ele>
        <time>2019-05-03T10:51:58.166Z</time>
      </trkpt>
      <trkpt lat="48.2117324" lon="15.1947878">
        <ele>215.949</ele>
        <time>2019-05-03T10:52:00.296Z</time>
      </trkpt>
      <trkpt lat="48.2118242" lon="15.1947774">
        <ele>216.676</ele>
        <time>2019-05-03T10:52:02.169Z</time>
      </trkpt>
      <trkpt lat="48.2119216" lon="15.1947712">
        <ele>217.466</ele>
        <time>2019-05-03T10:52:04.122Z</time>
      </trkpt>
      <trkpt lat="48.2120203" lon="15.1947771">
        <ele>218.046</ele>
        <time>2019-05-03T10:52:06.075Z</time>
      </trkpt>
      <trkpt lat="48.2121260" lon="15.1947904">
        <ele>218.293</ele>
        <time>2019-05-03T10:52:08.156Z</time>
      </trkpt>
      <trkpt lat="48.2122341" lon="15.1947879">
        <ele>218.332</ele>
        <time>2019-05-03T10:52:10.266Z</time>
      </trkpt>
      <trkpt lat="48.2123319" lon="15.1948035">
        <ele>218.299</ele>
        <time>2019-05-03T10:52:12.178Z</time>
      </trkpt>
      <trkpt lat="48.2124348" lon="15.1948155">
        <ele>218.261</ele>
        <time>2019-05-03T10:52:14.179Z</time>
      </trkpt>
      <trkpt lat="48.2125338" lon="15.1948197">
        <ele>218.202</ele>
        <time>2019-05-03T10:52:16.089Z</time>
      </trkpt>
      <trkpt lat="48.2126358" lon="15.1948392">
        <ele>218.067</ele>
        <time>2019-05-03T10:52:18.056Z</time>
      </trkpt>
      <trkpt lat="48.2127392" lon="15.1948599">
        <ele>217.830</ele>
        <time>2019-05-03T10:52:20.044Z</time>
      </trkpt>
      <trkpt lat="48.2128504" lon="15.1948750">
        <ele>217.544</ele>
        <time>2019-05-03T10:52:22.141Z</time>
      </trkpt>
      <trkpt lat="48.2130168" lon="15.1949126">
        <ele>217.290</ele>
        <time>2019-05-03T10:52:25.294Z</time>
      </trkpt>
      <trkpt lat="48.2131801" lon="15.1949118">
        <ele>217.127</ele>
        <time>2019-05-03T10:52:28.442Z</time>
      </trkpt>
      <trkpt lat="48.2133456" lon="15.1950915">
        <ele>217.054</ele>
        <time>2019-05-03T10:52:32.224Z</time>
      </trkpt>
      <trkpt lat="48.2133548" lon="15.1954083">
        <ele>217.039</ele>
        <time>2019-05-03T10:52:36.107Z</time>
      </trkpt>
      <trkpt lat="48.2132668" lon="15.1962059">
        <ele>216.985</ele>
        <time>2019-05-03T10:52:45.196Z</time>
      </trkpt>
      <trkpt lat="48.2132465" lon="15.1963699">
        <ele>217.153</ele>
        <time>2019-05-03T10:52:46.998Z</time>
      </trkpt>
      <trkpt lat="48.2132260" lon="15.1965474">
        <ele>217.566</ele>
        <time>2019-05-03T10:52:48.944Z</time>
      </trkpt>
      <trkpt lat="48.2132140" lon="15.1967331">
        <ele>217.956</ele>
        <time>2019-05-03T10:52:50.953Z</time>
      </trkpt>
      <trkpt lat="48.2131964" lon="15.1969151">
        <ele>218.104</ele>
        <time>2019-05-03T10:52:52.917Z</time>
      </trkpt>
      <trkpt lat="48.2131676" lon="15.1971010">
        <ele>218.004</ele>
        <time>2019-05-03T10:52:54.938Z</time>
      </trkpt>
      <trkpt lat="48.2131442" lon="15.1972906">
        <ele>217.758</ele>
        <time>2019-05-03T10:52:56.946Z</time>
      </trkpt>
      <trkpt lat="48.2131301" lon="15.1974721">
        <ele>217.510</ele>
        <time>2019-05-03T10:52:58.807Z</time>
      </trkpt>
      <trkpt lat="48.2131109" lon="15.1976461">
        <ele>217.354</ele>
        <time>2019-05-03T10:53:00.575Z</time>
      </trkpt>
      <trkpt lat="48.2130976" lon="15.1978410">
        <ele>217.300</ele>
        <time>2019-05-03T10:53:02.519Z</time>
      </trkpt>
      <trkpt lat="48.2130761" lon="15.1980551">
        <ele>217.320</ele>
        <time>2019-05-03T10:53:04.641Z</time>
      </trkpt>
      <trkpt lat="48.2130567" lon="15.1982702">
        <ele>217.384</ele>
        <time>2019-05-03T10:53:06.766Z</time>
      </trkpt>
      <trkpt lat="48.2130388" lon="15.1984575">
        <ele>217.475</ele>
        <time>2019-05-03T10:53:08.597Z</time>
      </trkpt>
      <trkpt lat="48.2130175" lon="15.1986629">
        <ele>217.589</ele>
        <time>2019-05-03T10:53:10.595Z</time>
      </trkpt>
      <trkpt lat="48.2130128" lon="15.1988657">
        <ele>217.715</ele>
        <time>2019-05-03T10:53:12.570Z</time>
      </trkpt>
      <trkpt lat="48.2130011" lon="15.1990772">
        <ele>217.838</ele>
        <time>2019-05-03T10:53:14.662Z</time>
      </trkpt>
      <trkpt lat="48.2129965" lon="15.1992845">
        <ele>217.975</ele>
        <time>2019-05-03T10:53:16.700Z</time>
      </trkpt>
      <trkpt lat="48.2129816" lon="15.1995004">
        <ele>218.141</ele>
        <time>2019-05-03T10:53:18.830Z</time>
      </trkpt>
      <trkpt lat="48.2129712" lon="15.1996835">
        <ele>218.278</ele>
        <time>2019-05-03T10:53:20.676Z</time>
      </trkpt>
      <trkpt lat="48.2129443" lon="15.1998819">
        <ele>218.338</ele>
        <time>2019-05-03T10:53:22.716Z</time>
      </trkpt>
      <trkpt lat="48.2129259" lon="15.2000779">
        <ele>218.344</ele>
        <time>2019-05-03T10:53:24.661Z</time>
      </trkpt>
      <trkpt lat="48.2129256" lon="15.2002577">
        <ele>218.332</ele>
        <time>2019-05-03T10:53:26.402Z</time>
      </trkpt>
      <trkpt lat="48.2129162" lon="15.2004462">
        <ele>218.321</ele>
        <time>2019-05-03T10:53:28.224Z</time>
      </trkpt>
      <trkpt lat="48.2128990" lon="15.2006649">
        <ele>218.257</ele>
        <time>2019-05-03T10:53:30.343Z</time>
      </trkpt>
      <trkpt lat="48.2128872" lon="15.2008657">
        <ele>217.970</ele>
        <time>2019-05-03T10:53:32.317Z</time>
      </trkpt>
      <trkpt lat="48.2128856" lon="15.2010735">
        <ele>217.468</ele>
        <time>2019-05-03T10:53:34.408Z</time>
      </trkpt>
      <trkpt lat="48.2128827" lon="15.2012742">
        <ele>217.053</ele>
        <time>2019-05-03T10:53:36.428Z</time>
      </trkpt>
      <trkpt lat="48.2128708" lon="15.2014693">
        <ele>216.916</ele>
        <time>2019-05-03T10:53:38.365Z</time>
      </trkpt>
      <trkpt lat="48.2128620" lon="15.2016547">
        <ele>216.969</ele>
        <time>2019-05-03T10:53:40.197Z</time>
      </trkpt>
      <trkpt lat="48.2128482" lon="15.2018728">
        <ele>217.074</ele>
        <time>2019-05-03T10:53:42.362Z</time>
      </trkpt>
      <trkpt lat="48.2128385" lon="15.2020844">
        <ele>216.979</ele>
        <time>2019-05-03T10:53:44.470Z</time>
      </trkpt>
      <trkpt lat="48.2128313" lon="15.2022794">
        <ele>216.423</ele>
        <time>2019-05-03T10:53:46.438Z</time>
      </trkpt>
      <trkpt lat="48.2128232" lon="15.2024846">
        <ele>215.468</ele>
        <time>2019-05-03T10:53:48.536Z</time>
      </trkpt>
      <trkpt lat="48.2128202" lon="15.2026725">
        <ele>214.516</ele>
        <time>2019-05-03T10:53:50.475Z</time>
      </trkpt>
      <trkpt lat="48.2128199" lon="15.2028713">
        <ele>214.392</ele>
        <time>2019-05-03T10:53:52.502Z</time>
      </trkpt>
      <trkpt lat="48.2128200" lon="15.2030640">
        <ele>215.411</ele>
        <time>2019-05-03T10:53:54.433Z</time>
      </trkpt>
      <trkpt lat="48.2128135" lon="15.2032506">
        <ele>216.575</ele>
        <time>2019-05-03T10:53:56.319Z</time>
      </trkpt>
      <trkpt lat="48.2128090" lon="15.2034742">
        <ele>216.989</ele>
        <time>2019-05-03T10:53:58.613Z</time>
      </trkpt>
      <trkpt lat="48.2128222" lon="15.2036646">
        <ele>217.049</ele>
        <time>2019-05-03T10:54:00.602Z</time>
      </trkpt>
      <trkpt lat="48.2128102" lon="15.2038309">
        <ele>217.294</ele>
        <time>2019-05-03T10:54:02.360Z</time>
      </trkpt>
      <trkpt lat="48.2128100" lon="15.2040288">
        <ele>217.638</ele>
        <time>2019-05-03T10:54:04.417Z</time>
      </trkpt>
      <trkpt lat="48.2128174" lon="15.2042343">
        <ele>217.837</ele>
        <time>2019-05-03T10:54:06.553Z</time>
      </trkpt>
      <trkpt lat="48.2128253" lon="15.2044265">
        <ele>217.894</ele>
        <time>2019-05-03T10:54:08.616Z</time>
      </trkpt>
      <trkpt lat="48.2128282" lon="15.2046329">
        <ele>217.875</ele>
        <time>2019-05-03T10:54:10.893Z</time>
      </trkpt>
      <trkpt lat="48.2128274" lon="15.2048110">
        <ele>217.820</ele>
        <time>2019-05-03T10:54:12.927Z</time>
      </trkpt>
      <trkpt lat="48.2128225" lon="15.2049945">
        <ele>217.746</ele>
        <time>2019-05-03T10:54:15.063Z</time>
      </trkpt>
      <trkpt lat="48.2128348" lon="15.2051992">
        <ele>217.674</ele>
        <time>2019-05-03T10:54:17.452Z</time>
      </trkpt>
      <trkpt lat="48.2128371" lon="15.2053390">
        <ele>217.627</ele>
        <time>2019-05-03T10:54:19.115Z</time>
      </trkpt>
      <trkpt lat="48.2128531" lon="15.2055049">
        <ele>217.598</ele>
        <time>2019-05-03T10:54:21.148Z</time>
      </trkpt>
      <trkpt lat="48.2128751" lon="15.2056684">
        <ele>217.509</ele>
        <time>2019-05-03T10:54:23.168Z</time>
      </trkpt>
      <trkpt lat="48.2128313" lon="15.2058542">
        <ele>217.210</ele>
        <time>2019-05-03T10:54:25.535Z</time>
      </trkpt>
      <trkpt lat="48.2127704" lon="15.2060019">
        <ele>216.686</ele>
        <time>2019-05-03T10:54:27.645Z</time>
      </trkpt>
      <trkpt lat="48.2127206" lon="15.2061704">
        <ele>216.173</ele>
        <time>2019-05-03T10:54:29.929Z</time>
      </trkpt>
      <trkpt lat="48.2126692" lon="15.2063331">
        <ele>215.894</ele>
        <time>2019-05-03T10:54:32.128Z</time>
      </trkpt>
      <trkpt lat="48.2126538" lon="15.2065176">
        <ele>215.850</ele>
        <time>2019-05-03T10:54:34.322Z</time>
      </trkpt>
      <trkpt lat="48.2126341" lon="15.2066606">
        <ele>215.927</ele>
        <time>2019-05-03T10:54:36.040Z</time>
      </trkpt>
      <trkpt lat="48.2126287" lon="15.2068391">
        <ele>216.037</ele>
        <time>2019-05-03T10:54:38.142Z</time>
      </trkpt>
      <trkpt lat="48.2126359" lon="15.2070024">
        <ele>216.139</ele>
        <time>2019-05-03T10:54:40.014Z</time>
      </trkpt>
      <trkpt lat="48.2126363" lon="15.2071883">
        <ele>216.209</ele>
        <time>2019-05-03T10:54:42.107Z</time>
      </trkpt>
      <trkpt lat="48.2126365" lon="15.2073472">
        <ele>216.244</ele>
        <time>2019-05-03T10:54:43.950Z</time>
      </trkpt>
      <trkpt lat="48.2126580" lon="15.2075143">
        <ele>216.253</ele>
        <time>2019-05-03T10:54:45.971Z</time>
      </trkpt>
      <trkpt lat="48.2126724" lon="15.2076957">
        <ele>216.252</ele>
        <time>2019-05-03T10:54:48.184Z</time>
      </trkpt>
      <trkpt lat="48.2126653" lon="15.2078459">
        <ele>216.249</ele>
        <time>2019-05-03T10:54:50.127Z</time>
      </trkpt>
      <trkpt lat="48.2126467" lon="15.2079896">
        <ele>216.248</ele>
        <time>2019-05-03T10:54:52.068Z</time>
      </trkpt>
      <trkpt lat="48.2126077" lon="15.2081480">
        <ele>216.247</ele>
        <time>2019-05-03T10:54:54.373Z</time>
      </trkpt>
      <trkpt lat="48.2125748" lon="15.2083218">
        <ele>216.248</ele>
        <time>2019-05-03T10:54:57.108Z</time>
      </trkpt>
      <trkpt lat="48.2125260" lon="15.2085139">
        <ele>216.248</ele>
        <time>2019-05-03T10:55:00.760Z</time>
      </trkpt>
      <trkpt lat="48.2124728" lon="15.2086634">
        <ele>216.248</ele>
        <time>2019-05-03T10:55:03.938Z</time>
      </trkpt>
      <trkpt lat="48.2124467" lon="15.2088000">
        <ele>216.248</ele>
        <time>2019-05-03T10:55:06.528Z</time>
      </trkpt>
      <trkpt lat="48.2124314" lon="15.2089333">
        <ele>216.248</ele>
        <time>2019-05-03T10:55:08.895Z</time>
      </trkpt>
      <trkpt lat="48.2124855" lon="15.2090424">
        <ele>216.248</ele>
        <time>2019-05-03T10:55:11.261Z</time>
      </trkpt>
      <trkpt lat="48.2125278" lon="15.2091942">
        <ele>216.248</ele>
        <time>2019-05-03T10:55:14.186Z</time>
      </trkpt>
      <trkpt lat="48.2125670" lon="15.2093230">
        <ele>216.248</ele>
        <time>2019-05-03T10:55:16.499Z</time>
      </trkpt>
      <trkpt lat="48.2126161" lon="15.2094885">
        <ele>216.248</ele>
        <time>2019-05-03T10:55:19.399Z</time>
      </trkpt>
      <trkpt lat="48.2126352" lon="15.2096221">
        <ele>216.248</ele>
        <time>2019-05-03T10:55:21.539Z</time>
      </trkpt>
      <trkpt lat="48.2126411" lon="15.2098270">
        <ele>216.248</ele>
        <time>2019-05-03T10:55:24.673Z</time>
      </trkpt>
      <trkpt lat="48.2126611" lon="15.2099973">
        <ele>216.248</ele>
        <time>2019-05-03T10:55:27.207Z</time>
      </trkpt>
      <trkpt lat="48.2126544" lon="15.2101652">
        <ele>216.248</ele>
        <time>2019-05-03T10:55:29.587Z</time>
      </trkpt>
      <trkpt lat="48.2126401" lon="15.2103554">
        <ele>216.248</ele>
        <time>2019-05-03T10:55:32.141Z</time>
      </trkpt>
      <trkpt lat="48.2126475" lon="15.2104992">
        <ele>216.248</ele>
        <time>2019-05-03T10:55:33.960Z</time>
      </trkpt>
      <trkpt lat="48.2126556" lon="15.2106382">
        <ele>216.248</ele>
        <time>2019-05-03T10:55:35.649Z</time>
      </trkpt>
      <trkpt lat="48.2126792" lon="15.2107776">
        <ele>216.248</ele>
        <time>2019-05-03T10:55:37.341Z</time>
      </trkpt>
      <trkpt lat="48.2127318" lon="15.2109279">
        <ele>216.248</ele>
        <time>2019-05-03T10:55:39.329Z</time>
      </trkpt>
      <trkpt lat="48.2127718" lon="15.2110725">
        <ele>216.248</ele>
        <time>2019-05-03T10:55:41.164Z</time>
      </trkpt>
      <trkpt lat="48.2128136" lon="15.2112126">
        <ele>216.248</ele>
        <time>2019-05-03T10:55:42.874Z</time>
      </trkpt>
      <trkpt lat="48.2128657" lon="15.2113823">
        <ele>216.241</ele>
        <time>2019-05-03T10:55:44.955Z</time>
      </trkpt>
      <trkpt lat="48.2129022" lon="15.2115296">
        <ele>216.197</ele>
        <time>2019-05-03T10:55:46.705Z</time>
      </trkpt>
      <trkpt lat="48.2129325" lon="15.2117140">
        <ele>216.067</ele>
        <time>2019-05-03T10:55:48.821Z</time>
      </trkpt>
      <trkpt lat="48.2131028" lon="15.2123860">
        <ele>215.743</ele>
        <time>2019-05-03T10:55:56.373Z</time>
      </trkpt>
      <trkpt lat="48.2131265" lon="15.2125666">
        <ele>215.745</ele>
        <time>2019-05-03T10:55:58.242Z</time>
      </trkpt>
      <trkpt lat="48.2131758" lon="15.2127583">
        <ele>215.855</ele>
        <time>2019-05-03T10:56:00.300Z</time>
      </trkpt>
      <trkpt lat="48.2132098" lon="15.2129283">
        <ele>215.996</ele>
        <time>2019-05-03T10:56:02.065Z</time>
      </trkpt>
      <trkpt lat="48.2132430" lon="15.2131207">
        <ele>216.126</ele>
        <time>2019-05-03T10:56:04.042Z</time>
      </trkpt>
      <trkpt lat="48.2132633" lon="15.2133099">
        <ele>216.283</ele>
        <time>2019-05-03T10:56:05.950Z</time>
      </trkpt>
      <trkpt lat="48.2133318" lon="15.2141127">
        <ele>216.673</ele>
        <time>2019-05-03T10:56:13.630Z</time>
      </trkpt>
      <trkpt lat="48.2133474" lon="15.2143181">
        <ele>217.079</ele>
        <time>2019-05-03T10:56:15.554Z</time>
      </trkpt>
      <trkpt lat="48.2133464" lon="15.2145059">
        <ele>217.703</ele>
        <time>2019-05-03T10:56:17.322Z</time>
      </trkpt>
      <trkpt lat="48.2133522" lon="15.2147236">
        <ele>218.202</ele>
        <time>2019-05-03T10:56:19.421Z</time>
      </trkpt>
      <trkpt lat="48.2133367" lon="15.2149307">
        <ele>218.353</ele>
        <time>2019-05-03T10:56:21.499Z</time>
      </trkpt>
      <trkpt lat="48.2133206" lon="15.2151311">
        <ele>218.281</ele>
        <time>2019-05-03T10:56:23.558Z</time>
      </trkpt>
      <trkpt lat="48.2133053" lon="15.2153188">
        <ele>218.171</ele>
        <time>2019-05-03T10:56:25.499Z</time>
      </trkpt>
      <trkpt lat="48.2133069" lon="15.2154974">
        <ele>217.972</ele>
        <time>2019-05-03T10:56:27.330Z</time>
      </trkpt>
      <trkpt lat="48.2133143" lon="15.2156997">
        <ele>217.601</ele>
        <time>2019-05-03T10:56:29.418Z</time>
      </trkpt>
      <trkpt lat="48.2133251" lon="15.2159094">
        <ele>217.408</ele>
        <time>2019-05-03T10:56:31.667Z</time>
      </trkpt>
      <trkpt lat="48.2133250" lon="15.2161095">
        <ele>217.682</ele>
        <time>2019-05-03T10:56:33.847Z</time>
      </trkpt>
      <trkpt lat="48.2133247" lon="15.2163119">
        <ele>218.123</ele>
        <time>2019-05-03T10:56:35.978Z</time>
      </trkpt>
      <trkpt lat="48.2133342" lon="15.2164852">
        <ele>218.383</ele>
        <time>2019-05-03T10:56:37.685Z</time>
      </trkpt>
      <trkpt lat="48.2131674" lon="15.2166354">
        <ele>218.454</ele>
        <time>2019-05-03T10:56:40.321Z</time>
      </trkpt>
      <trkpt lat="48.2132072" lon="15.2168142">
        <ele>218.432</ele>
        <time>2019-05-03T10:56:41.978Z</time>
      </trkpt>
      <trkpt lat="48.2132151" lon="15.2170584">
        <ele>218.373</ele>
        <time>2019-05-03T10:56:44.144Z</time>
      </trkpt>
      <trkpt lat="48.2132340" lon="15.2172914">
        <ele>218.171</ele>
        <time>2019-05-03T10:56:46.238Z</time>
      </trkpt>
      <trkpt lat="48.2132733" lon="15.2175361">
        <ele>217.696</ele>
        <time>2019-05-03T10:56:48.485Z</time>
      </trkpt>
      <trkpt lat="48.2133097" lon="15.2177437">
        <ele>217.071</ele>
        <time>2019-05-03T10:56:50.435Z</time>
      </trkpt>
      <trkpt lat="48.2130857" lon="15.2184019">
        <ele>216.336</ele>
        <time>2019-05-03T10:56:57.202Z</time>
      </trkpt>
      <trkpt lat="48.2130838" lon="15.2192534">
        <ele>216.292</ele>
        <time>2019-05-03T10:57:05.422Z</time>
      </trkpt>
      <trkpt lat="48.2131180" lon="15.2194578">
        <ele>216.358</ele>
        <time>2019-05-03T10:57:07.605Z</time>
      </trkpt>
      <trkpt lat="48.2131577" lon="15.2196707">
        <ele>216.454</ele>
        <time>2019-05-03T10:57:09.930Z</time>
      </trkpt>
      <trkpt lat="48.2131899" lon="15.2198434">
        <ele>216.575</ele>
        <time>2019-05-03T10:57:11.804Z</time>
      </trkpt>
      <trkpt lat="48.2132274" lon="15.2200193">
        <ele>216.774</ele>
        <time>2019-05-03T10:57:13.740Z</time>
      </trkpt>
      <trkpt lat="48.2132787" lon="15.2202032">
        <ele>217.016</ele>
        <time>2019-05-03T10:57:15.896Z</time>
      </trkpt>
      <trkpt lat="48.2132996" lon="15.2203971">
        <ele>217.192</ele>
        <time>2019-05-03T10:57:18.070Z</time>
      </trkpt>
      <trkpt lat="48.2133086" lon="15.2206000">
        <ele>217.262</ele>
        <time>2019-05-03T10:57:20.324Z</time>
      </trkpt>
      <trkpt lat="48.2133309" lon="15.2207873">
        <ele>217.273</ele>
        <time>2019-05-03T10:57:22.391Z</time>
      </trkpt>
      <trkpt lat="48.2133396" lon="15.2209675">
        <ele>217.280</ele>
        <time>2019-05-03T10:57:24.359Z</time>
      </trkpt>
      <trkpt lat="48.2133305" lon="15.2212279">
        <ele>217.149</ele>
        <time>2019-05-03T10:57:27.218Z</time>
      </trkpt>
      <trkpt lat="48.2133109" lon="15.2213981">
        <ele>216.781</ele>
        <time>2019-05-03T10:57:29.121Z</time>
      </trkpt>
      <trkpt lat="48.2132708" lon="15.2215742">
        <ele>216.393</ele>
        <time>2019-05-03T10:57:31.240Z</time>
      </trkpt>
      <trkpt lat="48.2132286" lon="15.2217329">
        <ele>216.168</ele>
        <time>2019-05-03T10:57:33.225Z</time>
      </trkpt>
      <trkpt lat="48.2131844" lon="15.2219231">
        <ele>215.958</ele>
        <time>2019-05-03T10:57:35.533Z</time>
      </trkpt>
      <trkpt lat="48.2131434" lon="15.2220727">
        <ele>215.658</ele>
        <time>2019-05-03T10:57:37.293Z</time>
      </trkpt>
      <trkpt lat="48.2131050" lon="15.2222139">
        <ele>215.380</ele>
        <time>2019-05-03T10:57:38.929Z</time>
      </trkpt>
      <trkpt lat="48.2130714" lon="15.2224468">
        <ele>215.274</ele>
        <time>2019-05-03T10:57:41.505Z</time>
      </trkpt>
      <trkpt lat="48.2130883" lon="15.2226732">
        <ele>215.330</ele>
        <time>2019-05-03T10:57:43.936Z</time>
      </trkpt>
      <trkpt lat="48.2130851" lon="15.2228743">
        <ele>215.412</ele>
        <time>2019-05-03T10:57:46.063Z</time>
      </trkpt>
      <trkpt lat="48.2130778" lon="15.2230313">
        <ele>215.417</ele>
        <time>2019-05-03T10:57:47.737Z</time>
      </trkpt>
      <trkpt lat="48.2130722" lon="15.2232012">
        <ele>215.434</ele>
        <time>2019-05-03T10:57:49.551Z</time>
      </trkpt>
      <trkpt lat="48.2130726" lon="15.2233853">
        <ele>215.582</ele>
        <time>2019-05-03T10:57:51.490Z</time>
      </trkpt>
      <trkpt lat="48.2130732" lon="15.2235831">
        <ele>215.809</ele>
        <time>2019-05-03T10:57:53.550Z</time>
      </trkpt>
      <trkpt lat="48.2130895" lon="15.2237899">
        <ele>215.990</ele>
        <time>2019-05-03T10:57:55.679Z</time>
      </trkpt>
      <trkpt lat="48.2130883" lon="15.2239749">
        <ele>216.051</ele>
        <time>2019-05-03T10:57:57.523Z</time>
      </trkpt>
      <trkpt lat="48.2130795" lon="15.2241604">
        <ele>215.883</ele>
        <time>2019-05-03T10:57:59.350Z</time>
      </trkpt>
      <trkpt lat="48.2130801" lon="15.2243681">
        <ele>215.497</ele>
        <time>2019-05-03T10:58:01.383Z</time>
      </trkpt>
      <trkpt lat="48.2130865" lon="15.2245817">
        <ele>215.219</ele>
        <time>2019-05-03T10:58:03.471Z</time>
      </trkpt>
      <trkpt lat="48.2131034" lon="15.2247960">
        <ele>215.309</ele>
        <time>2019-05-03T10:58:05.574Z</time>
      </trkpt>
      <trkpt lat="48.2131229" lon="15.2250059">
        <ele>215.609</ele>
        <time>2019-05-03T10:58:07.666Z</time>
      </trkpt>
      <trkpt lat="48.2131491" lon="15.2252131">
        <ele>215.854</ele>
        <time>2019-05-03T10:58:09.899Z</time>
      </trkpt>
      <trkpt lat="48.2131627" lon="15.2254278">
        <ele>215.969</ele>
        <time>2019-05-03T10:58:12.655Z</time>
      </trkpt>
      <trkpt lat="48.2131776" lon="15.2256369">
        <ele>216.056</ele>
        <time>2019-05-03T10:58:15.644Z</time>
      </trkpt>
      <trkpt lat="48.2132039" lon="15.2258328">
        <ele>216.205</ele>
        <time>2019-05-03T10:58:18.271Z</time>
      </trkpt>
      <trkpt lat="48.2131829" lon="15.2260275">
        <ele>216.343</ele>
        <time>2019-05-03T10:58:20.701Z</time>
      </trkpt>
      <trkpt lat="48.2131835" lon="15.2261785">
        <ele>216.380</ele>
        <time>2019-05-03T10:58:22.542Z</time>
      </trkpt>
      <trkpt lat="48.2131619" lon="15.2263600">
        <ele>216.389</ele>
        <time>2019-05-03T10:58:24.730Z</time>
      </trkpt>
      <trkpt lat="48.2131545" lon="15.2265195">
        <ele>216.451</ele>
        <time>2019-05-03T10:58:26.538Z</time>
      </trkpt>
      <trkpt lat="48.2131704" lon="15.2266822">
        <ele>216.534</ele>
        <time>2019-05-03T10:58:28.320Z</time>
      </trkpt>
      <trkpt lat="48.2131620" lon="15.2268403">
        <ele>216.470</ele>
        <time>2019-05-03T10:58:29.997Z</time>
      </trkpt>
      <trkpt lat="48.2131552" lon="15.2269905">
        <ele>216.187</ele>
        <time>2019-05-03T10:58:31.592Z</time>
      </trkpt>
      <trkpt lat="48.2131618" lon="15.2271744">
        <ele>215.933</ele>
        <time>2019-05-03T10:58:33.510Z</time>
      </trkpt>
      <trkpt lat="48.2131666" lon="15.2273738">
        <ele>215.920</ele>
        <time>2019-05-03T10:58:35.537Z</time>
      </trkpt>
      <trkpt lat="48.2131802" lon="15.2275632">
        <ele>216.033</ele>
        <time>2019-05-03T10:58:37.454Z</time>
      </trkpt>
      <trkpt lat="48.2131815" lon="15.2277405">
        <ele>216.118</ele>
        <time>2019-05-03T10:58:39.228Z</time>
      </trkpt>
      <trkpt lat="48.2131809" lon="15.2279005">
        <ele>216.174</ele>
        <time>2019-05-03T10:58:40.822Z</time>
      </trkpt>
      <trkpt lat="48.2131926" lon="15.2280997">
        <ele>216.257</ele>
        <time>2019-05-03T10:58:42.826Z</time>
      </trkpt>
      <trkpt lat="48.2131927" lon="15.2282933">
        <ele>216.354</ele>
        <time>2019-05-03T10:58:44.792Z</time>
      </trkpt>
      <trkpt lat="48.2132022" lon="15.2284991">
        <ele>216.375</ele>
        <time>2019-05-03T10:58:46.896Z</time>
      </trkpt>
      <trkpt lat="48.2132205" lon="15.2286960">
        <ele>216.215</ele>
        <time>2019-05-03T10:58:48.916Z</time>
      </trkpt>
      <trkpt lat="48.2132245" lon="15.2288753">
        <ele>215.877</ele>
        <time>2019-05-03T10:58:50.738Z</time>
      </trkpt>
      <trkpt lat="48.2132453" lon="15.2290936">
        <ele>215.532</ele>
        <time>2019-05-03T10:58:52.983Z</time>
      </trkpt>
      <trkpt lat="48.2132628" lon="15.2292884">
        <ele>215.370</ele>
        <time>2019-05-03T10:58:54.971Z</time>
      </trkpt>
      <trkpt lat="48.2132850" lon="15.2294942">
        <ele>215.417</ele>
        <time>2019-05-03T10:58:57.095Z</time>
      </trkpt>
      <trkpt lat="48.2133094" lon="15.2296968">
        <ele>215.518</ele>
        <time>2019-05-03T10:58:59.216Z</time>
      </trkpt>
      <trkpt lat="48.2133351" lon="15.2298818">
        <ele>215.550</ele>
        <time>2019-05-03T10:59:01.151Z</time>
      </trkpt>
      <trkpt lat="48.2133554" lon="15.2300607">
        <ele>215.571</ele>
        <time>2019-05-03T10:59:02.997Z</time>
      </trkpt>
      <trkpt lat="48.2133724" lon="15.2302687">
        <ele>215.693</ele>
        <time>2019-05-03T10:59:05.120Z</time>
      </trkpt>
      <trkpt lat="48.2133931" lon="15.2304609">
        <ele>215.951</ele>
        <time>2019-05-03T10:59:07.076Z</time>
      </trkpt>
      <trkpt lat="48.2134384" lon="15.2306466">
        <ele>216.346</ele>
        <time>2019-05-03T10:59:09.057Z</time>
      </trkpt>
      <trkpt lat="48.2134635" lon="15.2308355">
        <ele>216.796</ele>
        <time>2019-05-03T10:59:10.988Z</time>
      </trkpt>
      <trkpt lat="48.2134990" lon="15.2310360">
        <ele>217.170</ele>
        <time>2019-05-03T10:59:13.107Z</time>
      </trkpt>
      <trkpt lat="48.2135373" lon="15.2311917">
        <ele>217.444</ele>
        <time>2019-05-03T10:59:14.815Z</time>
      </trkpt>
      <trkpt lat="48.2135716" lon="15.2314122">
        <ele>217.652</ele>
        <time>2019-05-03T10:59:17.137Z</time>
      </trkpt>
      <trkpt lat="48.2136287" lon="15.2316940">
        <ele>217.792</ele>
        <time>2019-05-03T10:59:20.247Z</time>
      </trkpt>
      <trkpt lat="48.2136605" lon="15.2318783">
        <ele>217.870</ele>
        <time>2019-05-03T10:59:22.327Z</time>
      </trkpt>
      <trkpt lat="48.2137018" lon="15.2320676">
        <ele>217.892</ele>
        <time>2019-05-03T10:59:24.470Z</time>
      </trkpt>
      <trkpt lat="48.2137404" lon="15.2322500">
        <ele>217.787</ele>
        <time>2019-05-03T10:59:26.491Z</time>
      </trkpt>
      <trkpt lat="48.2137721" lon="15.2324319">
        <ele>217.335</ele>
        <time>2019-05-03T10:59:28.439Z</time>
      </trkpt>
      <trkpt lat="48.2137944" lon="15.2325755">
        <ele>216.570</ele>
        <time>2019-05-03T10:59:29.960Z</time>
      </trkpt>
      <trkpt lat="48.2138389" lon="15.2327797">
        <ele>215.955</ele>
        <time>2019-05-03T10:59:32.171Z</time>
      </trkpt>
      <trkpt lat="48.2138956" lon="15.2330402">
        <ele>215.846</ele>
        <time>2019-05-03T10:59:34.983Z</time>
      </trkpt>
      <trkpt lat="48.2139916" lon="15.2332983">
        <ele>216.236</ele>
        <time>2019-05-03T10:59:37.993Z</time>
      </trkpt>
      <trkpt lat="48.2140928" lon="15.2335482">
        <ele>216.864</ele>
        <time>2019-05-03T10:59:40.892Z</time>
      </trkpt>
      <trkpt lat="48.2141795" lon="15.2338174">
        <ele>217.347</ele>
        <time>2019-05-03T10:59:43.823Z</time>
      </trkpt>
      <trkpt lat="48.2142776" lon="15.2340809">
        <ele>217.564</ele>
        <time>2019-05-03T10:59:46.812Z</time>
      </trkpt>
      <trkpt lat="48.2143686" lon="15.2343411">
        <ele>217.650</ele>
        <time>2019-05-03T10:59:49.726Z</time>
      </trkpt>
      <trkpt lat="48.2144513" lon="15.2345855">
        <ele>217.686</ele>
        <time>2019-05-03T10:59:52.441Z</time>
      </trkpt>
      <trkpt lat="48.2145329" lon="15.2348475">
        <ele>217.703</ele>
        <time>2019-05-03T10:59:55.296Z</time>
      </trkpt>
      <trkpt lat="48.2146190" lon="15.2351133">
        <ele>217.732</ele>
        <time>2019-05-03T10:59:58.231Z</time>
      </trkpt>
      <trkpt lat="48.2147118" lon="15.2353878">
        <ele>217.690</ele>
        <time>2019-05-03T11:00:01.333Z</time>
      </trkpt>
      <trkpt lat="48.2148174" lon="15.2356520">
        <ele>217.513</ele>
        <time>2019-05-03T11:00:04.508Z</time>
      </trkpt>
      <trkpt lat="48.2148769" lon="15.2358227">
        <ele>217.319</ele>
        <time>2019-05-03T11:00:06.531Z</time>
      </trkpt>
      <trkpt lat="48.2149282" lon="15.2360095">
        <ele>217.140</ele>
        <time>2019-05-03T11:00:08.659Z</time>
      </trkpt>
      <trkpt lat="48.2149893" lon="15.2361776">
        <ele>216.908</ele>
        <time>2019-05-03T11:00:10.652Z</time>
      </trkpt>
      <trkpt lat="48.2150479" lon="15.2363424">
        <ele>216.873</ele>
        <time>2019-05-03T11:00:12.544Z</time>
      </trkpt>
      <trkpt lat="48.2150949" lon="15.2365064">
        <ele>217.229</ele>
        <time>2019-05-03T11:00:14.322Z</time>
      </trkpt>
      <trkpt lat="48.2151455" lon="15.2366774">
        <ele>217.587</ele>
        <time>2019-05-03T11:00:16.191Z</time>
      </trkpt>
      <trkpt lat="48.2152085" lon="15.2368406">
        <ele>217.505</ele>
        <time>2019-05-03T11:00:18.073Z</time>
      </trkpt>
      <trkpt lat="48.2152889" lon="15.2370135">
        <ele>217.100</ele>
        <time>2019-05-03T11:00:20.197Z</time>
      </trkpt>
      <trkpt lat="48.2153558" lon="15.2371647">
        <ele>216.882</ele>
        <time>2019-05-03T11:00:22.047Z</time>
      </trkpt>
      <trkpt lat="48.2154264" lon="15.2373426">
        <ele>217.103</ele>
        <time>2019-05-03T11:00:24.124Z</time>
      </trkpt>
      <trkpt lat="48.2155020" lon="15.2375153">
        <ele>217.420</ele>
        <time>2019-05-03T11:00:26.160Z</time>
      </trkpt>
      <trkpt lat="48.2155725" lon="15.2376854">
        <ele>217.489</ele>
        <time>2019-05-03T11:00:28.119Z</time>
      </trkpt>
      <trkpt lat="48.2156408" lon="15.2378499">
        <ele>217.447</ele>
        <time>2019-05-03T11:00:30.005Z</time>
      </trkpt>
      <trkpt lat="48.2157103" lon="15.2380235">
        <ele>217.493</ele>
        <time>2019-05-03T11:00:32.007Z</time>
      </trkpt>
      <trkpt lat="48.2157748" lon="15.2382059">
        <ele>217.356</ele>
        <time>2019-05-03T11:00:34.047Z</time>
      </trkpt>
      <trkpt lat="48.2158443" lon="15.2383747">
        <ele>216.802</ele>
        <time>2019-05-03T11:00:35.964Z</time>
      </trkpt>
      <trkpt lat="48.2159032" lon="15.2385340">
        <ele>216.341</ele>
        <time>2019-05-03T11:00:37.729Z</time>
      </trkpt>
      <trkpt lat="48.2159657" lon="15.2387068">
        <ele>216.440</ele>
        <time>2019-05-03T11:00:39.659Z</time>
      </trkpt>
      <trkpt lat="48.2160274" lon="15.2389041">
        <ele>216.635</ele>
        <time>2019-05-03T11:00:41.801Z</time>
      </trkpt>
      <trkpt lat="48.2160894" lon="15.2390713">
        <ele>216.448</ele>
        <time>2019-05-03T11:00:43.659Z</time>
      </trkpt>
      <trkpt lat="48.2161447" lon="15.2392613">
        <ele>216.129</ele>
        <time>2019-05-03T11:00:45.665Z</time>
      </trkpt>
      <trkpt lat="48.2161959" lon="15.2394235">
        <ele>216.019</ele>
        <time>2019-05-03T11:00:47.425Z</time>
      </trkpt>
      <trkpt lat="48.2162682" lon="15.2396035">
        <ele>216.022</ele>
        <time>2019-05-03T11:00:49.514Z</time>
      </trkpt>
      <trkpt lat="48.2163323" lon="15.2397786">
        <ele>215.969</ele>
        <time>2019-05-03T11:00:51.455Z</time>
      </trkpt>
      <trkpt lat="48.2163815" lon="15.2399643">
        <ele>215.912</ele>
        <time>2019-05-03T11:00:53.319Z</time>
      </trkpt>
      <trkpt lat="48.2164312" lon="15.2401576">
        <ele>215.951</ele>
        <time>2019-05-03T11:00:55.250Z</time>
      </trkpt>
      <trkpt lat="48.2164822" lon="15.2403435">
        <ele>216.043</ele>
        <time>2019-05-03T11:00:57.177Z</time>
      </trkpt>
      <trkpt lat="48.2165491" lon="15.2405348">
        <ele>216.071</ele>
        <time>2019-05-03T11:00:59.263Z</time>
      </trkpt>
      <trkpt lat="48.2166351" lon="15.2407237">
        <ele>215.994</ele>
        <time>2019-05-03T11:01:01.424Z</time>
      </trkpt>
      <trkpt lat="48.2166882" lon="15.2408914">
        <ele>215.998</ele>
        <time>2019-05-03T11:01:03.140Z</time>
      </trkpt>
      <trkpt lat="48.2167494" lon="15.2410689">
        <ele>216.252</ele>
        <time>2019-05-03T11:01:04.968Z</time>
      </trkpt>
      <trkpt lat="48.2168096" lon="15.2412999">
        <ele>216.599</ele>
        <time>2019-05-03T11:01:07.248Z</time>
      </trkpt>
      <trkpt lat="48.2168779" lon="15.2415004">
        <ele>216.730</ele>
        <time>2019-05-03T11:01:09.353Z</time>
      </trkpt>
      <trkpt lat="48.2169537" lon="15.2417105">
        <ele>216.574</ele>
        <time>2019-05-03T11:01:11.613Z</time>
      </trkpt>
      <trkpt lat="48.2170092" lon="15.2418913">
        <ele>216.336</ele>
        <time>2019-05-03T11:01:13.513Z</time>
      </trkpt>
      <trkpt lat="48.2170634" lon="15.2420762">
        <ele>216.172</ele>
        <time>2019-05-03T11:01:15.429Z</time>
      </trkpt>
      <trkpt lat="48.2171195" lon="15.2422659">
        <ele>215.998</ele>
        <time>2019-05-03T11:01:17.365Z</time>
      </trkpt>
      <trkpt lat="48.2171812" lon="15.2424549">
        <ele>215.756</ele>
        <time>2019-05-03T11:01:19.316Z</time>
      </trkpt>
      <trkpt lat="48.2172301" lon="15.2426422">
        <ele>215.538</ele>
        <time>2019-05-03T11:01:21.188Z</time>
      </trkpt>
      <trkpt lat="48.2172844" lon="15.2428498">
        <ele>215.506</ele>
        <time>2019-05-03T11:01:23.251Z</time>
      </trkpt>
      <trkpt lat="48.2173339" lon="15.2430313">
        <ele>215.681</ele>
        <time>2019-05-03T11:01:25.038Z</time>
      </trkpt>
      <trkpt lat="48.2173800" lon="15.2432339">
        <ele>215.841</ele>
        <time>2019-05-03T11:01:26.968Z</time>
      </trkpt>
      <trkpt lat="48.2174421" lon="15.2434337">
        <ele>215.807</ele>
        <time>2019-05-03T11:01:28.937Z</time>
      </trkpt>
      <trkpt lat="48.2174955" lon="15.2436344">
        <ele>215.749</ele>
        <time>2019-05-03T11:01:30.848Z</time>
      </trkpt>
      <trkpt lat="48.2175440" lon="15.2438580">
        <ele>215.847</ele>
        <time>2019-05-03T11:01:32.914Z</time>
      </trkpt>
      <trkpt lat="48.2176026" lon="15.2440686">
        <ele>216.011</ele>
        <time>2019-05-03T11:01:34.911Z</time>
      </trkpt>
      <trkpt lat="48.2176568" lon="15.2442784">
        <ele>216.046</ele>
        <time>2019-05-03T11:01:36.868Z</time>
      </trkpt>
      <trkpt lat="48.2177131" lon="15.2444935">
        <ele>215.875</ele>
        <time>2019-05-03T11:01:38.868Z</time>
      </trkpt>
      <trkpt lat="48.2177672" lon="15.2447166">
        <ele>215.599</ele>
        <time>2019-05-03T11:01:40.930Z</time>
      </trkpt>
      <trkpt lat="48.2178247" lon="15.2449210">
        <ele>215.473</ele>
        <time>2019-05-03T11:01:42.872Z</time>
      </trkpt>
      <trkpt lat="48.2178737" lon="15.2451503">
        <ele>215.601</ele>
        <time>2019-05-03T11:01:44.978Z</time>
      </trkpt>
      <trkpt lat="48.2179031" lon="15.2453572">
        <ele>215.776</ele>
        <time>2019-05-03T11:01:46.816Z</time>
      </trkpt>
      <trkpt lat="48.2179615" lon="15.2455630">
        <ele>215.774</ele>
        <time>2019-05-03T11:01:48.759Z</time>
      </trkpt>
      <trkpt lat="48.2180085" lon="15.2457626">
        <ele>215.618</ele>
        <time>2019-05-03T11:01:50.602Z</time>
      </trkpt>
      <trkpt lat="48.2180453" lon="15.2459950">
        <ele>215.505</ele>
        <time>2019-05-03T11:01:52.660Z</time>
      </trkpt>
      <trkpt lat="48.2181024" lon="15.2462120">
        <ele>215.581</ele>
        <time>2019-05-03T11:01:54.625Z</time>
      </trkpt>
      <trkpt lat="48.2181585" lon="15.2464228">
        <ele>215.791</ele>
        <time>2019-05-03T11:01:56.519Z</time>
      </trkpt>
      <trkpt lat="48.2181973" lon="15.2466425">
        <ele>215.922</ele>
        <time>2019-05-03T11:01:58.427Z</time>
      </trkpt>
      <trkpt lat="48.2182408" lon="15.2468838">
        <ele>215.823</ele>
        <time>2019-05-03T11:02:00.543Z</time>
      </trkpt>
      <trkpt lat="48.2182893" lon="15.2471093">
        <ele>215.574</ele>
        <time>2019-05-03T11:02:02.544Z</time>
      </trkpt>
      <trkpt lat="48.2183345" lon="15.2473294">
        <ele>215.417</ele>
        <time>2019-05-03T11:02:04.480Z</time>
      </trkpt>
      <trkpt lat="48.2183742" lon="15.2475557">
        <ele>215.520</ele>
        <time>2019-05-03T11:02:06.473Z</time>
      </trkpt>
      <trkpt lat="48.2184285" lon="15.2477928">
        <ele>215.794</ele>
        <time>2019-05-03T11:02:08.639Z</time>
      </trkpt>
      <trkpt lat="48.2184741" lon="15.2480367">
        <ele>215.983</ele>
        <time>2019-05-03T11:02:10.794Z</time>
      </trkpt>
      <trkpt lat="48.2185342" lon="15.2482500">
        <ele>215.967</ele>
        <time>2019-05-03T11:02:12.726Z</time>
      </trkpt>
      <trkpt lat="48.2185773" lon="15.2484526">
        <ele>215.866</ele>
        <time>2019-05-03T11:02:14.512Z</time>
      </trkpt>
      <trkpt lat="48.2186275" lon="15.2486758">
        <ele>215.834</ele>
        <time>2019-05-03T11:02:16.563Z</time>
      </trkpt>
      <trkpt lat="48.2186909" lon="15.2488815">
        <ele>215.879</ele>
        <time>2019-05-03T11:02:18.603Z</time>
      </trkpt>
      <trkpt lat="48.2187409" lon="15.2491055">
        <ele>215.918</ele>
        <time>2019-05-03T11:02:20.721Z</time>
      </trkpt>
      <trkpt lat="48.2187893" lon="15.2493164">
        <ele>215.863</ele>
        <time>2019-05-03T11:02:22.716Z</time>
      </trkpt>
      <trkpt lat="48.2188273" lon="15.2495293">
        <ele>215.703</ele>
        <time>2019-05-03T11:02:24.752Z</time>
      </trkpt>
      <trkpt lat="48.2188613" lon="15.2497545">
        <ele>215.542</ele>
        <time>2019-05-03T11:02:26.927Z</time>
      </trkpt>
      <trkpt lat="48.2189032" lon="15.2499688">
        <ele>215.696</ele>
        <time>2019-05-03T11:02:28.951Z</time>
      </trkpt>
      <trkpt lat="48.2189454" lon="15.2501715">
        <ele>216.329</ele>
        <time>2019-05-03T11:02:30.835Z</time>
      </trkpt>
      <trkpt lat="48.2189914" lon="15.2503615">
        <ele>217.084</ele>
        <time>2019-05-03T11:02:32.678Z</time>
      </trkpt>
      <trkpt lat="48.2190457" lon="15.2505777">
        <ele>217.301</ele>
        <time>2019-05-03T11:02:34.872Z</time>
      </trkpt>
      <trkpt lat="48.2191104" lon="15.2507863">
        <ele>216.835</ele>
        <time>2019-05-03T11:02:37.057Z</time>
      </trkpt>
      <trkpt lat="48.2191536" lon="15.2509857">
        <ele>216.333</ele>
        <time>2019-05-03T11:02:38.999Z</time>
      </trkpt>
      <trkpt lat="48.2191901" lon="15.2511777">
        <ele>216.496</ele>
        <time>2019-05-03T11:02:40.816Z</time>
      </trkpt>
      <trkpt lat="48.2192370" lon="15.2513754">
        <ele>217.191</ele>
        <time>2019-05-03T11:02:42.718Z</time>
      </trkpt>
      <trkpt lat="48.2192778" lon="15.2515780">
        <ele>217.818</ele>
        <time>2019-05-03T11:02:44.659Z</time>
      </trkpt>
      <trkpt lat="48.2193383" lon="15.2517727">
        <ele>217.889</ele>
        <time>2019-05-03T11:02:46.644Z</time>
      </trkpt>
      <trkpt lat="48.2193652" lon="15.2519811">
        <ele>217.234</ele>
        <time>2019-05-03T11:02:48.585Z</time>
      </trkpt>
      <trkpt lat="48.2194115" lon="15.2521762">
        <ele>216.208</ele>
        <time>2019-05-03T11:02:50.462Z</time>
      </trkpt>
      <trkpt lat="48.2194541" lon="15.2523708">
        <ele>215.510</ele>
        <time>2019-05-03T11:02:52.345Z</time>
      </trkpt>
      <trkpt lat="48.2194891" lon="15.2525998">
        <ele>215.434</ele>
        <time>2019-05-03T11:02:54.569Z</time>
      </trkpt>
      <trkpt lat="48.2195190" lon="15.2528124">
        <ele>215.703</ele>
        <time>2019-05-03T11:02:56.639Z</time>
      </trkpt>
      <trkpt lat="48.2195531" lon="15.2530185">
        <ele>215.929</ele>
        <time>2019-05-03T11:02:58.642Z</time>
      </trkpt>
      <trkpt lat="48.2195930" lon="15.2532079">
        <ele>215.930</ele>
        <time>2019-05-03T11:03:00.508Z</time>
      </trkpt>
      <trkpt lat="48.2196337" lon="15.2534076">
        <ele>215.743</ele>
        <time>2019-05-03T11:03:02.474Z</time>
      </trkpt>
      <trkpt lat="48.2196849" lon="15.2536169">
        <ele>215.514</ele>
        <time>2019-05-03T11:03:04.555Z</time>
      </trkpt>
      <trkpt lat="48.2197438" lon="15.2538031">
        <ele>215.417</ele>
        <time>2019-05-03T11:03:06.466Z</time>
      </trkpt>
      <trkpt lat="48.2197943" lon="15.2540003">
        <ele>215.537</ele>
        <time>2019-05-03T11:03:08.443Z</time>
      </trkpt>
      <trkpt lat="48.2198334" lon="15.2542185">
        <ele>215.767</ele>
        <time>2019-05-03T11:03:10.543Z</time>
      </trkpt>
      <trkpt lat="48.2198788" lon="15.2544324">
        <ele>215.887</ele>
        <time>2019-05-03T11:03:12.555Z</time>
      </trkpt>
      <trkpt lat="48.2199016" lon="15.2546359">
        <ele>215.687</ele>
        <time>2019-05-03T11:03:14.359Z</time>
      </trkpt>
      <trkpt lat="48.2199403" lon="15.2548600">
        <ele>215.206</ele>
        <time>2019-05-03T11:03:16.376Z</time>
      </trkpt>
      <trkpt lat="48.2199882" lon="15.2550655">
        <ele>214.893</ele>
        <time>2019-05-03T11:03:18.278Z</time>
      </trkpt>
      <trkpt lat="48.2200370" lon="15.2552902">
        <ele>215.078</ele>
        <time>2019-05-03T11:03:20.330Z</time>
      </trkpt>
      <trkpt lat="48.2200855" lon="15.2555121">
        <ele>215.532</ele>
        <time>2019-05-03T11:03:22.360Z</time>
      </trkpt>
      <trkpt lat="48.2201394" lon="15.2557194">
        <ele>215.859</ele>
        <time>2019-05-03T11:03:24.353Z</time>
      </trkpt>
      <trkpt lat="48.2201922" lon="15.2559317">
        <ele>215.851</ele>
        <time>2019-05-03T11:03:26.451Z</time>
      </trkpt>
      <trkpt lat="48.2202347" lon="15.2561338">
        <ele>215.564</ele>
        <time>2019-05-03T11:03:28.439Z</time>
      </trkpt>
      <trkpt lat="48.2202764" lon="15.2563421">
        <ele>215.273</ele>
        <time>2019-05-03T11:03:30.548Z</time>
      </trkpt>
      <trkpt lat="48.2203202" lon="15.2565463">
        <ele>215.374</ele>
        <time>2019-05-03T11:03:32.789Z</time>
      </trkpt>
      <trkpt lat="48.2203580" lon="15.2567635">
        <ele>215.942</ele>
        <time>2019-05-03T11:03:35.221Z</time>
      </trkpt>
      <trkpt lat="48.2204098" lon="15.2569336">
        <ele>216.444</ele>
        <time>2019-05-03T11:03:37.145Z</time>
      </trkpt>
      <trkpt lat="48.2204319" lon="15.2570984">
        <ele>216.457</ele>
        <time>2019-05-03T11:03:38.768Z</time>
      </trkpt>
      <trkpt lat="48.2204593" lon="15.2572747">
        <ele>216.283</ele>
        <time>2019-05-03T11:03:40.439Z</time>
      </trkpt>
      <trkpt lat="48.2204894" lon="15.2574616">
        <ele>216.392</ele>
        <time>2019-05-03T11:03:42.182Z</time>
      </trkpt>
      <trkpt lat="48.2205315" lon="15.2576757">
        <ele>216.861</ele>
        <time>2019-05-03T11:03:44.262Z</time>
      </trkpt>
      <trkpt lat="48.2205833" lon="15.2578791">
        <ele>217.423</ele>
        <time>2019-05-03T11:03:46.360Z</time>
      </trkpt>
      <trkpt lat="48.2206322" lon="15.2580892">
        <ele>217.833</ele>
        <time>2019-05-03T11:03:48.502Z</time>
      </trkpt>
      <trkpt lat="48.2206668" lon="15.2582929">
        <ele>218.043</ele>
        <time>2019-05-03T11:03:50.554Z</time>
      </trkpt>
      <trkpt lat="48.2207089" lon="15.2584942">
        <ele>218.106</ele>
        <time>2019-05-03T11:03:52.802Z</time>
      </trkpt>
      <trkpt lat="48.2207466" lon="15.2587050">
        <ele>218.084</ele>
        <time>2019-05-03T11:03:55.635Z</time>
      </trkpt>
      <trkpt lat="48.2207808" lon="15.2589131">
        <ele>218.019</ele>
        <time>2019-05-03T11:03:58.710Z</time>
      </trkpt>
      <trkpt lat="48.2208132" lon="15.2590872">
        <ele>217.942</ele>
        <time>2019-05-03T11:04:01.058Z</time>
      </trkpt>
      <trkpt lat="48.2208421" lon="15.2592214">
        <ele>217.943</ele>
        <time>2019-05-03T11:04:02.604Z</time>
      </trkpt>
      <trkpt lat="48.2208905" lon="15.2594167">
        <ele>218.211</ele>
        <time>2019-05-03T11:04:04.704Z</time>
      </trkpt>
      <trkpt lat="48.2209326" lon="15.2596274">
        <ele>218.739</ele>
        <time>2019-05-03T11:04:06.895Z</time>
      </trkpt>
      <trkpt lat="48.2209485" lon="15.2598306">
        <ele>219.129</ele>
        <time>2019-05-03T11:04:08.901Z</time>
      </trkpt>
      <trkpt lat="48.2209882" lon="15.2599960">
        <ele>218.979</ele>
        <time>2019-05-03T11:04:10.587Z</time>
      </trkpt>
      <trkpt lat="48.2210031" lon="15.2602004">
        <ele>218.302</ele>
        <time>2019-05-03T11:04:12.536Z</time>
      </trkpt>
      <trkpt lat="48.2210369" lon="15.2604007">
        <ele>217.413</ele>
        <time>2019-05-03T11:04:14.513Z</time>
      </trkpt>
      <trkpt lat="48.2210664" lon="15.2606279">
        <ele>216.678</ele>
        <time>2019-05-03T11:04:16.791Z</time>
      </trkpt>
      <trkpt lat="48.2211052" lon="15.2608292">
        <ele>216.358</ele>
        <time>2019-05-03T11:04:18.921Z</time>
      </trkpt>
      <trkpt lat="48.2211289" lon="15.2610294">
        <ele>216.649</ele>
        <time>2019-05-03T11:04:21.018Z</time>
      </trkpt>
      <trkpt lat="48.2211632" lon="15.2612217">
        <ele>217.597</ele>
        <time>2019-05-03T11:04:23.092Z</time>
      </trkpt>
      <trkpt lat="48.2211888" lon="15.2614043">
        <ele>218.804</ele>
        <time>2019-05-03T11:04:25.062Z</time>
      </trkpt>
      <trkpt lat="48.2212122" lon="15.2615891">
        <ele>219.555</ele>
        <time>2019-05-03T11:04:27.052Z</time>
      </trkpt>
      <trkpt lat="48.2212255" lon="15.2617848">
        <ele>219.449</ele>
        <time>2019-05-03T11:04:29.112Z</time>
      </trkpt>
      <trkpt lat="48.2212427" lon="15.2619567">
        <ele>218.602</ele>
        <time>2019-05-03T11:04:30.917Z</time>
      </trkpt>
      <trkpt lat="48.2212675" lon="15.2621616">
        <ele>217.498</ele>
        <time>2019-05-03T11:04:33.067Z</time>
      </trkpt>
      <trkpt lat="48.2212920" lon="15.2623367">
        <ele>216.648</ele>
        <time>2019-05-03T11:04:34.902Z</time>
      </trkpt>
      <trkpt lat="48.2213174" lon="15.2625099">
        <ele>216.218</ele>
        <time>2019-05-03T11:04:36.689Z</time>
      </trkpt>
      <trkpt lat="48.2213342" lon="15.2626702">
        <ele>216.136</ele>
        <time>2019-05-03T11:04:38.287Z</time>
      </trkpt>
      <trkpt lat="48.2213709" lon="15.2628565">
        <ele>216.323</ele>
        <time>2019-05-03T11:04:40.165Z</time>
      </trkpt>
      <trkpt lat="48.2214072" lon="15.2630668">
        <ele>216.734</ele>
        <time>2019-05-03T11:04:42.276Z</time>
      </trkpt>
      <trkpt lat="48.2214385" lon="15.2632740">
        <ele>217.283</ele>
        <time>2019-05-03T11:04:44.368Z</time>
      </trkpt>
      <trkpt lat="48.2214619" lon="15.2634765">
        <ele>217.778</ele>
        <time>2019-05-03T11:04:46.418Z</time>
      </trkpt>
      <trkpt lat="48.2214916" lon="15.2636775">
        <ele>218.010</ele>
        <time>2019-05-03T11:04:48.490Z</time>
      </trkpt>
      <trkpt lat="48.2215279" lon="15.2638708">
        <ele>217.921</ele>
        <time>2019-05-03T11:04:50.547Z</time>
      </trkpt>
      <trkpt lat="48.2215479" lon="15.2640705">
        <ele>217.539</ele>
        <time>2019-05-03T11:04:52.612Z</time>
      </trkpt>
      <trkpt lat="48.2215628" lon="15.2642623">
        <ele>216.955</ele>
        <time>2019-05-03T11:04:54.537Z</time>
      </trkpt>
      <trkpt lat="48.2215763" lon="15.2644369">
        <ele>216.402</ele>
        <time>2019-05-03T11:04:56.238Z</time>
      </trkpt>
      <trkpt lat="48.2215936" lon="15.2646400">
        <ele>216.146</ele>
        <time>2019-05-03T11:04:58.167Z</time>
      </trkpt>
      <trkpt lat="48.2216224" lon="15.2648336">
        <ele>216.249</ele>
        <time>2019-05-03T11:05:00.028Z</time>
      </trkpt>
      <trkpt lat="48.2216622" lon="15.2650451">
        <ele>216.540</ele>
        <time>2019-05-03T11:05:02.104Z</time>
      </trkpt>
      <trkpt lat="48.2216797" lon="15.2652554">
        <ele>216.932</ele>
        <time>2019-05-03T11:05:04.133Z</time>
      </trkpt>
      <trkpt lat="48.2217020" lon="15.2654440">
        <ele>217.437</ele>
        <time>2019-05-03T11:05:06.001Z</time>
      </trkpt>
      <trkpt lat="48.2217284" lon="15.2656363">
        <ele>217.888</ele>
        <time>2019-05-03T11:05:07.925Z</time>
      </trkpt>
      <trkpt lat="48.2217402" lon="15.2658282">
        <ele>218.049</ele>
        <time>2019-05-03T11:05:09.800Z</time>
      </trkpt>
      <trkpt lat="48.2217451" lon="15.2660435">
        <ele>217.895</ele>
        <time>2019-05-03T11:05:11.888Z</time>
      </trkpt>
      <trkpt lat="48.2217620" lon="15.2662393">
        <ele>217.578</ele>
        <time>2019-05-03T11:05:13.794Z</time>
      </trkpt>
      <trkpt lat="48.2217854" lon="15.2664267">
        <ele>217.282</ele>
        <time>2019-05-03T11:05:15.621Z</time>
      </trkpt>
      <trkpt lat="48.2218079" lon="15.2666294">
        <ele>217.054</ele>
        <time>2019-05-03T11:05:17.578Z</time>
      </trkpt>
      <trkpt lat="48.2218331" lon="15.2668367">
        <ele>216.820</ele>
        <time>2019-05-03T11:05:19.565Z</time>
      </trkpt>
      <trkpt lat="48.2218583" lon="15.2670414">
        <ele>216.563</ele>
        <time>2019-05-03T11:05:21.489Z</time>
      </trkpt>
      <trkpt lat="48.2218830" lon="15.2672550">
        <ele>216.444</ele>
        <time>2019-05-03T11:05:23.468Z</time>
      </trkpt>
      <trkpt lat="48.2219016" lon="15.2674576">
        <ele>216.565</ele>
        <time>2019-05-03T11:05:25.344Z</time>
      </trkpt>
      <trkpt lat="48.2219123" lon="15.2677016">
        <ele>216.848</ele>
        <time>2019-05-03T11:05:27.611Z</time>
      </trkpt>
      <trkpt lat="48.2219214" lon="15.2679335">
        <ele>217.258</ele>
        <time>2019-05-03T11:05:29.739Z</time>
      </trkpt>
      <trkpt lat="48.2219551" lon="15.2681487">
        <ele>217.753</ele>
        <time>2019-05-03T11:05:31.736Z</time>
      </trkpt>
      <trkpt lat="48.2219773" lon="15.2683374">
        <ele>218.127</ele>
        <time>2019-05-03T11:05:33.490Z</time>
      </trkpt>
      <trkpt lat="48.2219996" lon="15.2685543">
        <ele>218.241</ele>
        <time>2019-05-03T11:05:35.513Z</time>
      </trkpt>
      <trkpt lat="48.2220108" lon="15.2687777">
        <ele>218.136</ele>
        <time>2019-05-03T11:05:37.581Z</time>
      </trkpt>
      <trkpt lat="48.2220346" lon="15.2689905">
        <ele>217.888</ele>
        <time>2019-05-03T11:05:39.608Z</time>
      </trkpt>
      <trkpt lat="48.2220579" lon="15.2692076">
        <ele>217.583</ele>
        <time>2019-05-03T11:05:41.741Z</time>
      </trkpt>
      <trkpt lat="48.2220702" lon="15.2694035">
        <ele>217.277</ele>
        <time>2019-05-03T11:05:43.672Z</time>
      </trkpt>
      <trkpt lat="48.2220777" lon="15.2696187">
        <ele>216.970</ele>
        <time>2019-05-03T11:05:45.769Z</time>
      </trkpt>
      <trkpt lat="48.2220934" lon="15.2698024">
        <ele>216.715</ele>
        <time>2019-05-03T11:05:47.594Z</time>
      </trkpt>
      <trkpt lat="48.2221114" lon="15.2700105">
        <ele>216.664</ele>
        <time>2019-05-03T11:05:49.727Z</time>
      </trkpt>
      <trkpt lat="48.2221320" lon="15.2702102">
        <ele>216.850</ele>
        <time>2019-05-03T11:05:51.798Z</time>
      </trkpt>
      <trkpt lat="48.2221551" lon="15.2703977">
        <ele>217.061</ele>
        <time>2019-05-03T11:05:53.736Z</time>
      </trkpt>
      <trkpt lat="48.2221740" lon="15.2705918">
        <ele>217.099</ele>
        <time>2019-05-03T11:05:55.786Z</time>
      </trkpt>
      <trkpt lat="48.2221878" lon="15.2707841">
        <ele>216.999</ele>
        <time>2019-05-03T11:05:57.895Z</time>
      </trkpt>
      <trkpt lat="48.2221916" lon="15.2709700">
        <ele>216.955</ele>
        <time>2019-05-03T11:05:59.953Z</time>
      </trkpt>
      <trkpt lat="48.2222014" lon="15.2711378">
        <ele>217.211</ele>
        <time>2019-05-03T11:06:01.818Z</time>
      </trkpt>
      <trkpt lat="48.2222152" lon="15.2713263">
        <ele>217.742</ele>
        <time>2019-05-03T11:06:03.863Z</time>
      </trkpt>
      <trkpt lat="48.2222152" lon="15.2714905">
        <ele>218.211</ele>
        <time>2019-05-03T11:06:05.569Z</time>
      </trkpt>
      <trkpt lat="48.2222169" lon="15.2716675">
        <ele>218.413</ele>
        <time>2019-05-03T11:06:07.368Z</time>
      </trkpt>
      <trkpt lat="48.2222135" lon="15.2718602">
        <ele>218.433</ele>
        <time>2019-05-03T11:06:09.284Z</time>
      </trkpt>
      <trkpt lat="48.2222231" lon="15.2720643">
        <ele>218.394</ele>
        <time>2019-05-03T11:06:11.320Z</time>
      </trkpt>
      <trkpt lat="48.2222255" lon="15.2722513">
        <ele>218.356</ele>
        <time>2019-05-03T11:06:13.187Z</time>
      </trkpt>
      <trkpt lat="48.2222391" lon="15.2724529">
        <ele>218.221</ele>
        <time>2019-05-03T11:06:15.197Z</time>
      </trkpt>
      <trkpt lat="48.2222629" lon="15.2726435">
        <ele>217.809</ele>
        <time>2019-05-03T11:06:17.124Z</time>
      </trkpt>
      <trkpt lat="48.2222875" lon="15.2728361">
        <ele>217.168</ele>
        <time>2019-05-03T11:06:19.093Z</time>
      </trkpt>
      <trkpt lat="48.2222903" lon="15.2730448">
        <ele>216.554</ele>
        <time>2019-05-03T11:06:21.195Z</time>
      </trkpt>
      <trkpt lat="48.2223031" lon="15.2732351">
        <ele>216.124</ele>
        <time>2019-05-03T11:06:23.124Z</time>
      </trkpt>
      <trkpt lat="48.2223116" lon="15.2734217">
        <ele>215.870</ele>
        <time>2019-05-03T11:06:24.999Z</time>
      </trkpt>
      <trkpt lat="48.2223104" lon="15.2736172">
        <ele>215.747</ele>
        <time>2019-05-03T11:06:26.934Z</time>
      </trkpt>
      <trkpt lat="48.2223270" lon="15.2738160">
        <ele>215.806</ele>
        <time>2019-05-03T11:06:28.897Z</time>
      </trkpt>
      <trkpt lat="48.2223431" lon="15.2740386">
        <ele>216.079</ele>
        <time>2019-05-03T11:06:31.087Z</time>
      </trkpt>
      <trkpt lat="48.2223317" lon="15.2742352">
        <ele>216.400</ele>
        <time>2019-05-03T11:06:33.006Z</time>
      </trkpt>
      <trkpt lat="48.2223387" lon="15.2745466">
        <ele>216.583</ele>
        <time>2019-05-03T11:06:36.025Z</time>
      </trkpt>
      <trkpt lat="48.2223579" lon="15.2748513">
        <ele>216.628</ele>
        <time>2019-05-03T11:06:38.994Z</time>
      </trkpt>
      <trkpt lat="48.2223620" lon="15.2751501">
        <ele>216.581</ele>
        <time>2019-05-03T11:06:41.879Z</time>
      </trkpt>
      <trkpt lat="48.2223869" lon="15.2754505">
        <ele>216.479</ele>
        <time>2019-05-03T11:06:44.755Z</time>
      </trkpt>
      <trkpt lat="48.2223736" lon="15.2757571">
        <ele>216.330</ele>
        <time>2019-05-03T11:06:47.634Z</time>
      </trkpt>
      <trkpt lat="48.2223729" lon="15.2760726">
        <ele>216.146</ele>
        <time>2019-05-03T11:06:50.581Z</time>
      </trkpt>
      <trkpt lat="48.2223697" lon="15.2763685">
        <ele>216.014</ele>
        <time>2019-05-03T11:06:53.402Z</time>
      </trkpt>
      <trkpt lat="48.2223676" lon="15.2765811">
        <ele>215.998</ele>
        <time>2019-05-03T11:06:55.458Z</time>
      </trkpt>
      <trkpt lat="48.2223584" lon="15.2767861">
        <ele>216.048</ele>
        <time>2019-05-03T11:06:57.404Z</time>
      </trkpt>
      <trkpt lat="48.2223506" lon="15.2769935">
        <ele>216.116</ele>
        <time>2019-05-03T11:06:59.342Z</time>
      </trkpt>
      <trkpt lat="48.2223640" lon="15.2772128">
        <ele>216.194</ele>
        <time>2019-05-03T11:07:01.403Z</time>
      </trkpt>
      <trkpt lat="48.2223712" lon="15.2774274">
        <ele>216.266</ele>
        <time>2019-05-03T11:07:03.401Z</time>
      </trkpt>
      <trkpt lat="48.2223681" lon="15.2776337">
        <ele>216.282</ele>
        <time>2019-05-03T11:07:05.309Z</time>
      </trkpt>
      <trkpt lat="48.2223632" lon="15.2778505">
        <ele>216.231</ele>
        <time>2019-05-03T11:07:07.328Z</time>
      </trkpt>
      <trkpt lat="48.2223744" lon="15.2780570">
        <ele>216.170</ele>
        <time>2019-05-03T11:07:09.308Z</time>
      </trkpt>
      <trkpt lat="48.2223791" lon="15.2782693">
        <ele>216.149</ele>
        <time>2019-05-03T11:07:11.392Z</time>
      </trkpt>
      <trkpt lat="48.2223776" lon="15.2784699">
        <ele>216.130</ele>
        <time>2019-05-03T11:07:13.310Z</time>
      </trkpt>
      <trkpt lat="48.2223661" lon="15.2786534">
        <ele>216.075</ele>
        <time>2019-05-03T11:07:15.024Z</time>
      </trkpt>
      <trkpt lat="48.2223520" lon="15.2788704">
        <ele>216.017</ele>
        <time>2019-05-03T11:07:17.034Z</time>
      </trkpt>
      <trkpt lat="48.2223419" lon="15.2790803">
        <ele>216.035</ele>
        <time>2019-05-03T11:07:18.958Z</time>
      </trkpt>
      <trkpt lat="48.2223327" lon="15.2793012">
        <ele>216.156</ele>
        <time>2019-05-03T11:07:20.993Z</time>
      </trkpt>
      <trkpt lat="48.2223317" lon="15.2795182">
        <ele>216.342</ele>
        <time>2019-05-03T11:07:23.000Z</time>
      </trkpt>
      <trkpt lat="48.2223313" lon="15.2797338">
        <ele>216.533</ele>
        <time>2019-05-03T11:07:24.984Z</time>
      </trkpt>
      <trkpt lat="48.2223237" lon="15.2799442">
        <ele>216.682</ele>
        <time>2019-05-03T11:07:26.911Z</time>
      </trkpt>
      <trkpt lat="48.2223108" lon="15.2801665">
        <ele>216.757</ele>
        <time>2019-05-03T11:07:28.946Z</time>
      </trkpt>
      <trkpt lat="48.2223034" lon="15.2803844">
        <ele>216.797</ele>
        <time>2019-05-03T11:07:30.972Z</time>
      </trkpt>
      <trkpt lat="48.2223068" lon="15.2806011">
        <ele>216.875</ele>
        <time>2019-05-03T11:07:33.033Z</time>
      </trkpt>
      <trkpt lat="48.2222870" lon="15.2807958">
        <ele>217.127</ele>
        <time>2019-05-03T11:07:34.913Z</time>
      </trkpt>
      <trkpt lat="48.2222663" lon="15.2809985">
        <ele>217.569</ele>
        <time>2019-05-03T11:07:36.890Z</time>
      </trkpt>
      <trkpt lat="48.2222575" lon="15.2812041">
        <ele>217.922</ele>
        <time>2019-05-03T11:07:38.894Z</time>
      </trkpt>
      <trkpt lat="48.2222629" lon="15.2814012">
        <ele>217.986</ele>
        <time>2019-05-03T11:07:40.837Z</time>
      </trkpt>
      <trkpt lat="48.2222668" lon="15.2815823">
        <ele>217.893</ele>
        <time>2019-05-03T11:07:42.629Z</time>
      </trkpt>
      <trkpt lat="48.2222457" lon="15.2817661">
        <ele>217.807</ele>
        <time>2019-05-03T11:07:44.431Z</time>
      </trkpt>
      <trkpt lat="48.2222374" lon="15.2819582">
        <ele>217.783</ele>
        <time>2019-05-03T11:07:46.253Z</time>
      </trkpt>
      <trkpt lat="48.2222297" lon="15.2821788">
        <ele>217.843</ele>
        <time>2019-05-03T11:07:48.371Z</time>
      </trkpt>
      <trkpt lat="48.2222310" lon="15.2823864">
        <ele>217.981</ele>
        <time>2019-05-03T11:07:50.423Z</time>
      </trkpt>
      <trkpt lat="48.2222249" lon="15.2825813">
        <ele>218.135</ele>
        <time>2019-05-03T11:07:52.334Z</time>
      </trkpt>
      <trkpt lat="48.2222133" lon="15.2827751">
        <ele>218.241</ele>
        <time>2019-05-03T11:07:54.187Z</time>
      </trkpt>
      <trkpt lat="48.2222012" lon="15.2829946">
        <ele>218.299</ele>
        <time>2019-05-03T11:07:56.264Z</time>
      </trkpt>
      <trkpt lat="48.2221875" lon="15.2831976">
        <ele>218.341</ele>
        <time>2019-05-03T11:07:58.184Z</time>
      </trkpt>
      <trkpt lat="48.2221607" lon="15.2834067">
        <ele>218.371</ele>
        <time>2019-05-03T11:08:00.200Z</time>
      </trkpt>
      <trkpt lat="48.2221387" lon="15.2836309">
        <ele>218.382</ele>
        <time>2019-05-03T11:08:02.393Z</time>
      </trkpt>
      <trkpt lat="48.2221242" lon="15.2838301">
        <ele>218.245</ele>
        <time>2019-05-03T11:08:04.329Z</time>
      </trkpt>
      <trkpt lat="48.2221073" lon="15.2840303">
        <ele>217.840</ele>
        <time>2019-05-03T11:08:06.245Z</time>
      </trkpt>
      <trkpt lat="48.2221033" lon="15.2842425">
        <ele>217.356</ele>
        <time>2019-05-03T11:08:08.281Z</time>
      </trkpt>
      <trkpt lat="48.2220919" lon="15.2844455">
        <ele>217.064</ele>
        <time>2019-05-03T11:08:10.312Z</time>
      </trkpt>
      <trkpt lat="48.2220833" lon="15.2846429">
        <ele>216.905</ele>
        <time>2019-05-03T11:08:12.333Z</time>
      </trkpt>
      <trkpt lat="48.2220564" lon="15.2848278">
        <ele>216.717</ele>
        <time>2019-05-03T11:08:14.234Z</time>
      </trkpt>
      <trkpt lat="48.2220278" lon="15.2850051">
        <ele>216.524</ele>
        <time>2019-05-03T11:08:16.013Z</time>
      </trkpt>
      <trkpt lat="48.2219991" lon="15.2852100">
        <ele>216.481</ele>
        <time>2019-05-03T11:08:18.029Z</time>
      </trkpt>
      <trkpt lat="48.2219577" lon="15.2854193">
        <ele>216.674</ele>
        <time>2019-05-03T11:08:20.235Z</time>
      </trkpt>
      <trkpt lat="48.2219272" lon="15.2856047">
        <ele>217.077</ele>
        <time>2019-05-03T11:08:22.334Z</time>
      </trkpt>
      <trkpt lat="48.2219174" lon="15.2857596">
        <ele>217.547</ele>
        <time>2019-05-03T11:08:24.111Z</time>
      </trkpt>
      <trkpt lat="48.2219110" lon="15.2859252">
        <ele>217.903</ele>
        <time>2019-05-03T11:08:26.037Z</time>
      </trkpt>
      <trkpt lat="48.2219083" lon="15.2861017">
        <ele>218.045</ele>
        <time>2019-05-03T11:08:28.113Z</time>
      </trkpt>
      <trkpt lat="48.2219168" lon="15.2862594">
        <ele>218.020</ele>
        <time>2019-05-03T11:08:29.975Z</time>
      </trkpt>
      <trkpt lat="48.2219132" lon="15.2864156">
        <ele>217.943</ele>
        <time>2019-05-03T11:08:31.775Z</time>
      </trkpt>
      <trkpt lat="48.2218952" lon="15.2865820">
        <ele>217.892</ele>
        <time>2019-05-03T11:08:33.647Z</time>
      </trkpt>
      <trkpt lat="48.2218789" lon="15.2867882">
        <ele>217.787</ele>
        <time>2019-05-03T11:08:35.925Z</time>
      </trkpt>
      <trkpt lat="48.2218649" lon="15.2869874">
        <ele>217.475</ele>
        <time>2019-05-03T11:08:38.136Z</time>
      </trkpt>
      <trkpt lat="48.2218532" lon="15.2871511">
        <ele>216.993</ele>
        <time>2019-05-03T11:08:39.905Z</time>
      </trkpt>
      <trkpt lat="48.2218438" lon="15.2873398">
        <ele>216.559</ele>
        <time>2019-05-03T11:08:41.900Z</time>
      </trkpt>
      <trkpt lat="48.2218250" lon="15.2875801">
        <ele>216.313</ele>
        <time>2019-05-03T11:08:44.534Z</time>
      </trkpt>
      <trkpt lat="48.2218092" lon="15.2877192">
        <ele>216.273</ele>
        <time>2019-05-03T11:08:46.111Z</time>
      </trkpt>
      <trkpt lat="48.2217999" lon="15.2878685">
        <ele>216.378</ele>
        <time>2019-05-03T11:08:47.783Z</time>
      </trkpt>
      <trkpt lat="48.2217650" lon="15.2880878">
        <ele>216.494</ele>
        <time>2019-05-03T11:08:50.311Z</time>
      </trkpt>
      <trkpt lat="48.2217590" lon="15.2882489">
        <ele>216.535</ele>
        <time>2019-05-03T11:08:52.131Z</time>
      </trkpt>
      <trkpt lat="48.2217383" lon="15.2883810">
        <ele>216.554</ele>
        <time>2019-05-03T11:08:53.638Z</time>
      </trkpt>
      <trkpt lat="48.2217269" lon="15.2885725">
        <ele>216.641</ele>
        <time>2019-05-03T11:08:55.727Z</time>
      </trkpt>
      <trkpt lat="48.2217074" lon="15.2887609">
        <ele>216.863</ele>
        <time>2019-05-03T11:08:57.776Z</time>
      </trkpt>
      <trkpt lat="48.2217018" lon="15.2889465">
        <ele>217.287</ele>
        <time>2019-05-03T11:08:59.747Z</time>
      </trkpt>
      <trkpt lat="48.2216864" lon="15.2891396">
        <ele>217.816</ele>
        <time>2019-05-03T11:09:01.766Z</time>
      </trkpt>
      <trkpt lat="48.2216655" lon="15.2893422">
        <ele>218.174</ele>
        <time>2019-05-03T11:09:03.907Z</time>
      </trkpt>
      <trkpt lat="48.2216345" lon="15.2895222">
        <ele>218.255</ele>
        <time>2019-05-03T11:09:05.919Z</time>
      </trkpt>
      <trkpt lat="48.2216252" lon="15.2896797">
        <ele>218.209</ele>
        <time>2019-05-03T11:09:07.675Z</time>
      </trkpt>
      <trkpt lat="48.2216213" lon="15.2898553">
        <ele>218.181</ele>
        <time>2019-05-03T11:09:09.672Z</time>
      </trkpt>
      <trkpt lat="48.2216147" lon="15.2900127">
        <ele>218.187</ele>
        <time>2019-05-03T11:09:11.496Z</time>
      </trkpt>
      <trkpt lat="48.2216020" lon="15.2901654">
        <ele>218.121</ele>
        <time>2019-05-03T11:09:13.233Z</time>
      </trkpt>
      <trkpt lat="48.2215731" lon="15.2903600">
        <ele>217.843</ele>
        <time>2019-05-03T11:09:15.387Z</time>
      </trkpt>
      <trkpt lat="48.2215543" lon="15.2905690">
        <ele>217.406</ele>
        <time>2019-05-03T11:09:17.695Z</time>
      </trkpt>
      <trkpt lat="48.2215405" lon="15.2907408">
        <ele>216.988</ele>
        <time>2019-05-03T11:09:19.639Z</time>
      </trkpt>
      <trkpt lat="48.2215254" lon="15.2908897">
        <ele>216.687</ele>
        <time>2019-05-03T11:09:21.325Z</time>
      </trkpt>
      <trkpt lat="48.2215158" lon="15.2910599">
        <ele>216.556</ele>
        <time>2019-05-03T11:09:23.194Z</time>
      </trkpt>
      <trkpt lat="48.2214940" lon="15.2912487">
        <ele>216.591</ele>
        <time>2019-05-03T11:09:25.328Z</time>
      </trkpt>
      <trkpt lat="48.2214918" lon="15.2914246">
        <ele>216.688</ele>
        <time>2019-05-03T11:09:27.356Z</time>
      </trkpt>
      <trkpt lat="48.2214920" lon="15.2915819">
        <ele>216.763</ele>
        <time>2019-05-03T11:09:29.179Z</time>
      </trkpt>
      <trkpt lat="48.2214820" lon="15.2917437">
        <ele>216.835</ele>
        <time>2019-05-03T11:09:31.042Z</time>
      </trkpt>
      <trkpt lat="48.2214552" lon="15.2919196">
        <ele>217.010</ele>
        <time>2019-05-03T11:09:33.046Z</time>
      </trkpt>
      <trkpt lat="48.2214512" lon="15.2921030">
        <ele>217.375</ele>
        <time>2019-05-03T11:09:35.034Z</time>
      </trkpt>
      <trkpt lat="48.2214615" lon="15.2922672">
        <ele>217.889</ele>
        <time>2019-05-03T11:09:36.839Z</time>
      </trkpt>
      <trkpt lat="48.2214648" lon="15.2924438">
        <ele>218.394</ele>
        <time>2019-05-03T11:09:38.821Z</time>
      </trkpt>
      <trkpt lat="48.2214521" lon="15.2926261">
        <ele>218.729</ele>
        <time>2019-05-03T11:09:40.888Z</time>
      </trkpt>
      <trkpt lat="48.2214365" lon="15.2928012">
        <ele>218.857</ele>
        <time>2019-05-03T11:09:42.870Z</time>
      </trkpt>
      <trkpt lat="48.2214466" lon="15.2929916">
        <ele>218.889</ele>
        <time>2019-05-03T11:09:45.021Z</time>
      </trkpt>
      <trkpt lat="48.2214448" lon="15.2931521">
        <ele>218.967</ele>
        <time>2019-05-03T11:09:46.853Z</time>
      </trkpt>
      <trkpt lat="48.2214522" lon="15.2933192">
        <ele>219.112</ele>
        <time>2019-05-03T11:09:48.733Z</time>
      </trkpt>
      <trkpt lat="48.2214368" lon="15.2935410">
        <ele>219.223</ele>
        <time>2019-05-03T11:09:51.223Z</time>
      </trkpt>
      <trkpt lat="48.2214432" lon="15.2937095">
        <ele>219.248</ele>
        <time>2019-05-03T11:09:53.111Z</time>
      </trkpt>
      <trkpt lat="48.2214365" lon="15.2938877">
        <ele>219.243</ele>
        <time>2019-05-03T11:09:55.082Z</time>
      </trkpt>
      <trkpt lat="48.2214402" lon="15.2940474">
        <ele>219.272</ele>
        <time>2019-05-03T11:09:56.870Z</time>
      </trkpt>
      <trkpt lat="48.2214330" lon="15.2942214">
        <ele>219.323</ele>
        <time>2019-05-03T11:09:58.825Z</time>
      </trkpt>
      <trkpt lat="48.2214248" lon="15.2943988">
        <ele>219.362</ele>
        <time>2019-05-03T11:10:00.823Z</time>
      </trkpt>
      <trkpt lat="48.2214290" lon="15.2945663">
        <ele>219.394</ele>
        <time>2019-05-03T11:10:02.704Z</time>
      </trkpt>
      <trkpt lat="48.2214146" lon="15.2947120">
        <ele>219.445</ele>
        <time>2019-05-03T11:10:04.347Z</time>
      </trkpt>
      <trkpt lat="48.2214039" lon="15.2948573">
        <ele>219.519</ele>
        <time>2019-05-03T11:10:05.955Z</time>
      </trkpt>
      <trkpt lat="48.2214109" lon="15.2950816">
        <ele>219.626</ele>
        <time>2019-05-03T11:10:08.341Z</time>
      </trkpt>
      <trkpt lat="48.2214187" lon="15.2953101">
        <ele>219.778</ele>
        <time>2019-05-03T11:10:10.670Z</time>
      </trkpt>
      <trkpt lat="48.2214284" lon="15.2954932">
        <ele>219.934</ele>
        <time>2019-05-03T11:10:12.526Z</time>
      </trkpt>
      <trkpt lat="48.2214318" lon="15.2956945">
        <ele>220.006</ele>
        <time>2019-05-03T11:10:14.579Z</time>
      </trkpt>
      <trkpt lat="48.2214487" lon="15.2958855">
        <ele>219.952</ele>
        <time>2019-05-03T11:10:16.569Z</time>
      </trkpt>
      <trkpt lat="48.2214633" lon="15.2960612">
        <ele>219.801</ele>
        <time>2019-05-03T11:10:18.412Z</time>
      </trkpt>
      <trkpt lat="48.2214788" lon="15.2962429">
        <ele>219.599</ele>
        <time>2019-05-03T11:10:20.321Z</time>
      </trkpt>
      <trkpt lat="48.2214816" lon="15.2964215">
        <ele>219.346</ele>
        <time>2019-05-03T11:10:22.166Z</time>
      </trkpt>
      <trkpt lat="48.2214868" lon="15.2966656">
        <ele>219.045</ele>
        <time>2019-05-03T11:10:24.644Z</time>
      </trkpt>
      <trkpt lat="48.2215037" lon="15.2968369">
        <ele>218.749</ele>
        <time>2019-05-03T11:10:26.386Z</time>
      </trkpt>
      <trkpt lat="48.2215065" lon="15.2970196">
        <ele>218.506</ele>
        <time>2019-05-03T11:10:28.218Z</time>
      </trkpt>
      <trkpt lat="48.2215168" lon="15.2972172">
        <ele>218.300</ele>
        <time>2019-05-03T11:10:30.216Z</time>
      </trkpt>
      <trkpt lat="48.2215143" lon="15.2974130">
        <ele>218.099</ele>
        <time>2019-05-03T11:10:32.218Z</time>
      </trkpt>
      <trkpt lat="48.2215300" lon="15.2976006">
        <ele>217.911</ele>
        <time>2019-05-03T11:10:34.156Z</time>
      </trkpt>
      <trkpt lat="48.2215452" lon="15.2978117">
        <ele>217.761</ele>
        <time>2019-05-03T11:10:36.337Z</time>
      </trkpt>
      <trkpt lat="48.2215668" lon="15.2979937">
        <ele>217.618</ele>
        <time>2019-05-03T11:10:38.267Z</time>
      </trkpt>
      <trkpt lat="48.2215778" lon="15.2981713">
        <ele>217.380</ele>
        <time>2019-05-03T11:10:40.168Z</time>
      </trkpt>
      <trkpt lat="48.2215913" lon="15.2983315">
        <ele>217.039</ele>
        <time>2019-05-03T11:10:41.915Z</time>
      </trkpt>
      <trkpt lat="48.2216183" lon="15.2985104">
        <ele>216.769</ele>
        <time>2019-05-03T11:10:43.938Z</time>
      </trkpt>
      <trkpt lat="48.2216234" lon="15.2986490">
        <ele>216.713</ele>
        <time>2019-05-03T11:10:45.519Z</time>
      </trkpt>
      <trkpt lat="48.2216188" lon="15.2988300">
        <ele>216.814</ele>
        <time>2019-05-03T11:10:47.698Z</time>
      </trkpt>
      <trkpt lat="48.2216318" lon="15.2989857">
        <ele>216.937</ele>
        <time>2019-05-03T11:10:49.707Z</time>
      </trkpt>
      <trkpt lat="48.2216199" lon="15.2991939">
        <ele>217.003</ele>
        <time>2019-05-03T11:10:52.534Z</time>
      </trkpt>
      <trkpt lat="48.2216379" lon="15.2993693">
        <ele>217.195</ele>
        <time>2019-05-03T11:10:55.048Z</time>
      </trkpt>
      <trkpt lat="48.2216593" lon="15.2995537">
        <ele>217.680</ele>
        <time>2019-05-03T11:10:57.850Z</time>
      </trkpt>
      <trkpt lat="48.2216583" lon="15.2996901">
        <ele>218.231</ele>
        <time>2019-05-03T11:11:00.049Z</time>
      </trkpt>
      <trkpt lat="48.2216774" lon="15.2998501">
        <ele>218.545</ele>
        <time>2019-05-03T11:11:02.923Z</time>
      </trkpt>
      <trkpt lat="48.2216962" lon="15.3000132">
        <ele>218.672</ele>
        <time>2019-05-03T11:11:06.349Z</time>
      </trkpt>
      <trkpt lat="48.2216959" lon="15.3001564">
        <ele>218.876</ele>
        <time>2019-05-03T11:11:10.000Z</time>
      </trkpt>
      <trkpt lat="48.2216959" lon="15.3001564">
        <ele>219.245</ele>
        <time>2019-05-03T11:11:14.001Z</time>
      </trkpt>
      <trkpt lat="48.2216959" lon="15.3001564">
        <ele>219.482</ele>
        <time>2019-05-03T11:11:25.583Z</time>
      </trkpt>
      <trkpt lat="48.2216104" lon="15.3002337">
        <ele>219.382</ele>
        <time>2019-05-03T11:11:31.443Z</time>
      </trkpt>
      <trkpt lat="48.2214812" lon="15.3002613">
        <ele>219.349</ele>
        <time>2019-05-03T11:11:35.001Z</time>
      </trkpt>
      <trkpt lat="48.2214812" lon="15.3002613">
        <ele>219.731</ele>
        <time>2019-05-03T11:11:37.001Z</time>
      </trkpt>
      <trkpt lat="48.2214812" lon="15.3002613">
        <ele>220.094</ele>
        <time>2019-05-03T11:11:37.101Z</time>
      </trkpt>
      <trkpt lat="48.2212746" lon="15.3002759">
        <ele>220.005</ele>
        <time>2019-05-03T11:11:41.001Z</time>
      </trkpt>
      <trkpt lat="48.2212746" lon="15.3002759">
        <ele>219.737</ele>
        <time>2019-05-03T11:11:55.001Z</time>
      </trkpt>
      <trkpt lat="48.2212746" lon="15.3002759">
        <ele>219.631</ele>
        <time>2019-05-03T11:11:55.101Z</time>
      </trkpt>
      <trkpt lat="48.2210608" lon="15.3003265">
        <ele>219.665</ele>
        <time>2019-05-03T11:12:03.926Z</time>
      </trkpt>
      <trkpt lat="48.2209604" lon="15.3003337">
        <ele>219.832</ele>
        <time>2019-05-03T11:12:06.155Z</time>
      </trkpt>
      <trkpt lat="48.2208565" lon="15.3003500">
        <ele>220.247</ele>
        <time>2019-05-03T11:12:08.735Z</time>
      </trkpt>
      <trkpt lat="48.2207627" lon="15.3003963">
        <ele>220.903</ele>
        <time>2019-05-03T11:12:11.175Z</time>
      </trkpt>
      <trkpt lat="48.2207627" lon="15.3003963">
        <ele>220.903</ele>
        <time>2019-05-03T11:12:11.175Z</time>
      </trkpt>
      <trkpt lat="48.2202134" lon="15.3005431">
        <ele>221.017</ele>
        <time>2019-05-03T11:12:25.629Z</time>
      </trkpt>
      <trkpt lat="48.2201044" lon="15.3005707">
        <ele>220.915</ele>
        <time>2019-05-03T11:12:28.191Z</time>
      </trkpt>
      <trkpt lat="48.2199871" lon="15.3006585">
        <ele>220.833</ele>
        <time>2019-05-03T11:12:30.970Z</time>
      </trkpt>
      <trkpt lat="48.2199068" lon="15.3007722">
        <ele>220.711</ele>
        <time>2019-05-03T11:12:33.285Z</time>
      </trkpt>
      <trkpt lat="48.2198578" lon="15.3009156">
        <ele>220.560</ele>
        <time>2019-05-03T11:12:35.507Z</time>
      </trkpt>
      <trkpt lat="48.2198409" lon="15.3010590">
        <ele>220.370</ele>
        <time>2019-05-03T11:12:37.479Z</time>
      </trkpt>
      <trkpt lat="48.2198294" lon="15.3012007">
        <ele>220.095</ele>
        <time>2019-05-03T11:12:39.406Z</time>
      </trkpt>
      <trkpt lat="48.2198169" lon="15.3013522">
        <ele>219.773</ele>
        <time>2019-05-03T11:12:41.442Z</time>
      </trkpt>
      <trkpt lat="48.2198140" lon="15.3014910">
        <ele>219.491</ele>
        <time>2019-05-03T11:12:43.209Z</time>
      </trkpt>
      <trkpt lat="48.2198308" lon="15.3016283">
        <ele>219.292</ele>
        <time>2019-05-03T11:12:44.946Z</time>
      </trkpt>
      <trkpt lat="48.2198628" lon="15.3017922">
        <ele>219.174</ele>
        <time>2019-05-03T11:12:47.107Z</time>
      </trkpt>
      <trkpt lat="48.2198702" lon="15.3019741">
        <ele>218.481</ele>
        <time>2019-05-03T11:12:49.442Z</time>
      </trkpt>
      <trkpt lat="48.2198806" lon="15.3021298">
        <ele>216.349</ele>
        <time>2019-05-03T11:12:51.466Z</time>
      </trkpt>
      <trkpt lat="48.2198833" lon="15.3022747">
        <ele>213.156</ele>
        <time>2019-05-03T11:12:53.410Z</time>
      </trkpt>
      <trkpt lat="48.2198817" lon="15.3024288">
        <ele>210.335</ele>
        <time>2019-05-03T11:12:55.460Z</time>
      </trkpt>
      <trkpt lat="48.2198883" lon="15.3025641">
        <ele>210.029</ele>
        <time>2019-05-03T11:12:57.175Z</time>
      </trkpt>
      <trkpt lat="48.2198916" lon="15.3027095">
        <ele>213.047</ele>
        <time>2019-05-03T11:12:58.955Z</time>
      </trkpt>
      <trkpt lat="48.2198950" lon="15.3028742">
        <ele>216.983</ele>
        <time>2019-05-03T11:13:00.932Z</time>
      </trkpt>
      <trkpt lat="48.2199063" lon="15.3030541">
        <ele>219.309</ele>
        <time>2019-05-03T11:13:03.068Z</time>
      </trkpt>
      <trkpt lat="48.2199215" lon="15.3032143">
        <ele>219.982</ele>
        <time>2019-05-03T11:13:05.011Z</time>
      </trkpt>
      <trkpt lat="48.2199487" lon="15.3034076">
        <ele>219.870</ele>
        <time>2019-05-03T11:13:07.449Z</time>
      </trkpt>
      <trkpt lat="48.2199677" lon="15.3035779">
        <ele>219.646</ele>
        <time>2019-05-03T11:13:09.676Z</time>
      </trkpt>
      <trkpt lat="48.2199800" lon="15.3037763">
        <ele>219.574</ele>
        <time>2019-05-03T11:13:12.371Z</time>
      </trkpt>
      <trkpt lat="48.2199927" lon="15.3039162">
        <ele>219.669</ele>
        <time>2019-05-03T11:13:14.495Z</time>
      </trkpt>
      <trkpt lat="48.2199954" lon="15.3041173">
        <ele>219.857</ele>
        <time>2019-05-03T11:13:17.901Z</time>
      </trkpt>
      <trkpt lat="48.2199927" lon="15.3042714">
        <ele>220.075</ele>
        <time>2019-05-03T11:13:20.952Z</time>
      </trkpt>
      <trkpt lat="48.2199927" lon="15.3044542">
        <ele>220.268</ele>
        <time>2019-05-03T11:13:24.816Z</time>
      </trkpt>
      <trkpt lat="48.2200081" lon="15.3045934">
        <ele>220.347</ele>
        <time>2019-05-03T11:13:27.677Z</time>
      </trkpt>
      <trkpt lat="48.2199891" lon="15.3047399">
        <ele>220.168</ele>
        <time>2019-05-03T11:13:31.304Z</time>
      </trkpt>
      <trkpt lat="48.2199913" lon="15.3049377">
        <ele>219.681</ele>
        <time>2019-05-03T11:13:36.794Z</time>
      </trkpt>
      <trkpt lat="48.2199729" lon="15.3050923">
        <ele>219.037</ele>
        <time>2019-05-03T11:13:41.239Z</time>
      </trkpt>
      <trkpt lat="48.2200655" lon="15.3050300">
        <ele>218.461</ele>
        <time>2019-05-03T11:13:44.442Z</time>
      </trkpt>
      <trkpt lat="48.2201577" lon="15.3049338">
        <ele>218.092</ele>
        <time>2019-05-03T11:13:48.255Z</time>
      </trkpt>
      <trkpt lat="48.2202696" lon="15.3049220">
        <ele>218.053</ele>
        <time>2019-05-03T11:13:52.078Z</time>
      </trkpt>
      <trkpt lat="48.2203897" lon="15.3049291">
        <ele>218.365</ele>
        <time>2019-05-03T11:13:55.502Z</time>
      </trkpt>
      <trkpt lat="48.2204669" lon="15.3050584">
        <ele>219.096</ele>
        <time>2019-05-03T11:13:58.598Z</time>
      </trkpt>
      <trkpt lat="48.2204973" lon="15.3052240">
        <ele>220.214</ele>
        <time>2019-05-03T11:14:01.603Z</time>
      </trkpt>
      <trkpt lat="48.2204694" lon="15.3053926">
        <ele>221.257</ele>
        <time>2019-05-03T11:14:04.535Z</time>
      </trkpt>
      <trkpt lat="48.2204570" lon="15.3055436">
        <ele>221.744</ele>
        <time>2019-05-03T11:14:06.929Z</time>
      </trkpt>
      <trkpt lat="48.2204430" lon="15.3057289">
        <ele>221.724</ele>
        <time>2019-05-03T11:14:09.793Z</time>
      </trkpt>
      <trkpt lat="48.2204376" lon="15.3058693">
        <ele>221.499</ele>
        <time>2019-05-03T11:14:11.891Z</time>
      </trkpt>
      <trkpt lat="48.2204257" lon="15.3060457">
        <ele>221.326</ele>
        <time>2019-05-03T11:14:14.468Z</time>
      </trkpt>
      <trkpt lat="48.2204288" lon="15.3061858">
        <ele>221.286</ele>
        <time>2019-05-03T11:14:16.416Z</time>
      </trkpt>
      <trkpt lat="48.2204109" lon="15.3063970">
        <ele>221.343</ele>
        <time>2019-05-03T11:14:19.183Z</time>
      </trkpt>
      <trkpt lat="48.2203953" lon="15.3065326">
        <ele>221.422</ele>
        <time>2019-05-03T11:14:20.864Z</time>
      </trkpt>
      <trkpt lat="48.2203684" lon="15.3067058">
        <ele>221.465</ele>
        <time>2019-05-03T11:14:22.944Z</time>
      </trkpt>
      <trkpt lat="48.2203442" lon="15.3068762">
        <ele>221.464</ele>
        <time>2019-05-03T11:14:24.927Z</time>
      </trkpt>
      <trkpt lat="48.2203319" lon="15.3070660">
        <ele>221.445</ele>
        <time>2019-05-03T11:14:27.064Z</time>
      </trkpt>
      <trkpt lat="48.2203238" lon="15.3072316">
        <ele>221.415</ele>
        <time>2019-05-03T11:14:28.895Z</time>
      </trkpt>
      <trkpt lat="48.2202975" lon="15.3073827">
        <ele>221.352</ele>
        <time>2019-05-03T11:14:30.586Z</time>
      </trkpt>
      <trkpt lat="48.2202814" lon="15.3075764">
        <ele>221.257</ele>
        <time>2019-05-03T11:14:32.629Z</time>
      </trkpt>
      <trkpt lat="48.2202705" lon="15.3077505">
        <ele>221.167</ele>
        <time>2019-05-03T11:14:34.363Z</time>
      </trkpt>
      <trkpt lat="48.2202785" lon="15.3079453">
        <ele>221.090</ele>
        <time>2019-05-03T11:14:36.174Z</time>
      </trkpt>
      <trkpt lat="48.2202876" lon="15.3081661">
        <ele>220.975</ele>
        <time>2019-05-03T11:14:38.134Z</time>
      </trkpt>
      <trkpt lat="48.2203177" lon="15.3083904">
        <ele>220.770</ele>
        <time>2019-05-03T11:14:40.200Z</time>
      </trkpt>
      <trkpt lat="48.2203431" lon="15.3085981">
        <ele>220.502</ele>
        <time>2019-05-03T11:14:42.231Z</time>
      </trkpt>
      <trkpt lat="48.2203729" lon="15.3088030">
        <ele>220.236</ele>
        <time>2019-05-03T11:14:44.432Z</time>
      </trkpt>
      <trkpt lat="48.2204084" lon="15.3089969">
        <ele>220.009</ele>
        <time>2019-05-03T11:14:46.700Z</time>
      </trkpt>
      <trkpt lat="48.2204446" lon="15.3091880">
        <ele>219.800</ele>
        <time>2019-05-03T11:14:49.042Z</time>
      </trkpt>
      <trkpt lat="48.2204960" lon="15.3093397">
        <ele>219.573</ele>
        <time>2019-05-03T11:14:51.216Z</time>
      </trkpt>
      <trkpt lat="48.2205331" lon="15.3095902">
        <ele>219.342</ele>
        <time>2019-05-03T11:14:54.637Z</time>
      </trkpt>
      <trkpt lat="48.2205358" lon="15.3097503">
        <ele>219.159</ele>
        <time>2019-05-03T11:14:56.850Z</time>
      </trkpt>
      <trkpt lat="48.2206719" lon="15.3097416">
        <ele>219.054</ele>
        <time>2019-05-03T11:15:00.013Z</time>
      </trkpt>
      <trkpt lat="48.2208000" lon="15.3097112">
        <ele>219.025</ele>
        <time>2019-05-03T11:15:03.180Z</time>
      </trkpt>
      <trkpt lat="48.2209152" lon="15.3096637">
        <ele>219.070</ele>
        <time>2019-05-03T11:15:06.002Z</time>
      </trkpt>
      <trkpt lat="48.2210376" lon="15.3095994">
        <ele>219.244</ele>
        <time>2019-05-03T11:15:09.015Z</time>
      </trkpt>
      <trkpt lat="48.2211585" lon="15.3095572">
        <ele>219.571</ele>
        <time>2019-05-03T11:15:11.977Z</time>
      </trkpt>
      <trkpt lat="48.2212668" lon="15.3095352">
        <ele>219.966</ele>
        <time>2019-05-03T11:15:14.497Z</time>
      </trkpt>
      <trkpt lat="48.2213894" lon="15.3095097">
        <ele>220.323</ele>
        <time>2019-05-03T11:15:17.391Z</time>
      </trkpt>
      <trkpt lat="48.2215089" lon="15.3094648">
        <ele>220.642</ele>
        <time>2019-05-03T11:15:20.346Z</time>
      </trkpt>
      <trkpt lat="48.2216066" lon="15.3094451">
        <ele>221.011</ele>
        <time>2019-05-03T11:15:22.639Z</time>
      </trkpt>
      <trkpt lat="48.2217343" lon="15.3094177">
        <ele>221.431</ele>
        <time>2019-05-03T11:15:25.477Z</time>
      </trkpt>
      <trkpt lat="48.2218530" lon="15.3094410">
        <ele>221.817</ele>
        <time>2019-05-03T11:15:28.004Z</time>
      </trkpt>
      <trkpt lat="48.2219399" lon="15.3094941">
        <ele>222.124</ele>
        <time>2019-05-03T11:15:29.966Z</time>
      </trkpt>
      <trkpt lat="48.2220365" lon="15.3095658">
        <ele>222.352</ele>
        <time>2019-05-03T11:15:32.259Z</time>
      </trkpt>
      <trkpt lat="48.2221700" lon="15.3096197">
        <ele>222.501</ele>
        <time>2019-05-03T11:15:35.325Z</time>
      </trkpt>
      <trkpt lat="48.2222771" lon="15.3096407">
        <ele>222.596</ele>
        <time>2019-05-03T11:15:37.764Z</time>
      </trkpt>
      <trkpt lat="48.2224036" lon="15.3096122">
        <ele>222.666</ele>
        <time>2019-05-03T11:15:40.611Z</time>
      </trkpt>
      <trkpt lat="48.2225207" lon="15.3095451">
        <ele>222.724</ele>
        <time>2019-05-03T11:15:43.406Z</time>
      </trkpt>
      <trkpt lat="48.2226494" lon="15.3094713">
        <ele>222.767</ele>
        <time>2019-05-03T11:15:46.195Z</time>
      </trkpt>
      <trkpt lat="48.2227852" lon="15.3094896">
        <ele>222.783</ele>
        <time>2019-05-03T11:15:48.706Z</time>
      </trkpt>
      <trkpt lat="48.2228499" lon="15.3096067">
        <ele>222.728</ele>
        <time>2019-05-03T11:15:50.527Z</time>
      </trkpt>
      <trkpt lat="48.2228918" lon="15.3097432">
        <ele>222.549</ele>
        <time>2019-05-03T11:15:52.350Z</time>
      </trkpt>
      <trkpt lat="48.2229412" lon="15.3098982">
        <ele>222.233</ele>
        <time>2019-05-03T11:15:54.454Z</time>
      </trkpt>
      <trkpt lat="48.2229944" lon="15.3100455">
        <ele>221.830</ele>
        <time>2019-05-03T11:15:56.387Z</time>
      </trkpt>
      <trkpt lat="48.2230462" lon="15.3102019">
        <ele>221.438</ele>
        <time>2019-05-03T11:15:58.226Z</time>
      </trkpt>
      <trkpt lat="48.2230918" lon="15.3103504">
        <ele>221.165</ele>
        <time>2019-05-03T11:15:59.869Z</time>
      </trkpt>
      <trkpt lat="48.2231470" lon="15.3105027">
        <ele>221.042</ele>
        <time>2019-05-03T11:16:01.588Z</time>
      </trkpt>
      <trkpt lat="48.2232070" lon="15.3106731">
        <ele>220.980</ele>
        <time>2019-05-03T11:16:03.504Z</time>
      </trkpt>
      <trkpt lat="48.2232632" lon="15.3108463">
        <ele>220.844</ele>
        <time>2019-05-03T11:16:05.421Z</time>
      </trkpt>
      <trkpt lat="48.2233154" lon="15.3110378">
        <ele>220.592</ele>
        <time>2019-05-03T11:16:07.489Z</time>
      </trkpt>
      <trkpt lat="48.2233661" lon="15.3112021">
        <ele>220.304</ele>
        <time>2019-05-03T11:16:09.344Z</time>
      </trkpt>
      <trkpt lat="48.2234238" lon="15.3113673">
        <ele>220.072</ele>
        <time>2019-05-03T11:16:11.307Z</time>
      </trkpt>
      <trkpt lat="48.2234973" lon="15.3115480">
        <ele>219.883</ele>
        <time>2019-05-03T11:16:13.583Z</time>
      </trkpt>
      <trkpt lat="48.2235546" lon="15.3116953">
        <ele>219.662</ele>
        <time>2019-05-03T11:16:15.433Z</time>
      </trkpt>
      <trkpt lat="48.2236140" lon="15.3118710">
        <ele>219.405</ele>
        <time>2019-05-03T11:16:17.576Z</time>
      </trkpt>
      <trkpt lat="48.2236710" lon="15.3120320">
        <ele>219.194</ele>
        <time>2019-05-03T11:16:19.575Z</time>
      </trkpt>
      <trkpt lat="48.2237315" lon="15.3121918">
        <ele>219.078</ele>
        <time>2019-05-03T11:16:21.631Z</time>
      </trkpt>
      <trkpt lat="48.2237951" lon="15.3123418">
        <ele>219.009</ele>
        <time>2019-05-03T11:16:23.639Z</time>
      </trkpt>
      <trkpt lat="48.2238568" lon="15.3124874">
        <ele>218.912</ele>
        <time>2019-05-03T11:16:25.591Z</time>
      </trkpt>
      <trkpt lat="48.2239098" lon="15.3126255">
        <ele>218.772</ele>
        <time>2019-05-03T11:16:27.407Z</time>
      </trkpt>
      <trkpt lat="48.2239730" lon="15.3127840">
        <ele>218.606</ele>
        <time>2019-05-03T11:16:29.519Z</time>
      </trkpt>
      <trkpt lat="48.2240220" lon="15.3129117">
        <ele>218.402</ele>
        <time>2019-05-03T11:16:31.225Z</time>
      </trkpt>
      <trkpt lat="48.2240907" lon="15.3130682">
        <ele>218.142</ele>
        <time>2019-05-03T11:16:33.409Z</time>
      </trkpt>
      <trkpt lat="48.2241718" lon="15.3132521">
        <ele>217.872</ele>
        <time>2019-05-03T11:16:35.995Z</time>
      </trkpt>
      <trkpt lat="48.2242404" lon="15.3134067">
        <ele>217.677</ele>
        <time>2019-05-03T11:16:38.248Z</time>
      </trkpt>
      <trkpt lat="48.2242930" lon="15.3135387">
        <ele>217.577</ele>
        <time>2019-05-03T11:16:40.141Z</time>
      </trkpt>
      <trkpt lat="48.2243522" lon="15.3136589">
        <ele>217.505</ele>
        <time>2019-05-03T11:16:42.004Z</time>
      </trkpt>
      <trkpt lat="48.2244073" lon="15.3138063">
        <ele>217.411</ele>
        <time>2019-05-03T11:16:44.121Z</time>
      </trkpt>
      <trkpt lat="48.2244631" lon="15.3139291">
        <ele>217.312</ele>
        <time>2019-05-03T11:16:46.011Z</time>
      </trkpt>
      <trkpt lat="48.2245189" lon="15.3140600">
        <ele>217.241</ele>
        <time>2019-05-03T11:16:48.010Z</time>
      </trkpt>
      <trkpt lat="48.2245804" lon="15.3141882">
        <ele>217.200</ele>
        <time>2019-05-03T11:16:49.969Z</time>
      </trkpt>
      <trkpt lat="48.2246606" lon="15.3143338">
        <ele>217.155</ele>
        <time>2019-05-03T11:16:52.319Z</time>
      </trkpt>
      <trkpt lat="48.2247104" lon="15.3144549">
        <ele>217.090</ele>
        <time>2019-05-03T11:16:54.140Z</time>
      </trkpt>
      <trkpt lat="48.2247819" lon="15.3146009">
        <ele>217.032</ele>
        <time>2019-05-03T11:16:56.469Z</time>
      </trkpt>
      <trkpt lat="48.2248390" lon="15.3147201">
        <ele>217.004</ele>
        <time>2019-05-03T11:16:58.347Z</time>
      </trkpt>
      <trkpt lat="48.2249003" lon="15.3148382">
        <ele>216.980</ele>
        <time>2019-05-03T11:17:00.240Z</time>
      </trkpt>
      <trkpt lat="48.2249571" lon="15.3149556">
        <ele>216.902</ele>
        <time>2019-05-03T11:17:02.077Z</time>
      </trkpt>
      <trkpt lat="48.2250097" lon="15.3150673">
        <ele>216.742</ele>
        <time>2019-05-03T11:17:03.813Z</time>
      </trkpt>
      <trkpt lat="48.2250727" lon="15.3152094">
        <ele>216.535</ele>
        <time>2019-05-03T11:17:05.985Z</time>
      </trkpt>
      <trkpt lat="48.2251475" lon="15.3153796">
        <ele>216.341</ele>
        <time>2019-05-03T11:17:08.592Z</time>
      </trkpt>
      <trkpt lat="48.2252177" lon="15.3155142">
        <ele>216.199</ele>
        <time>2019-05-03T11:17:10.784Z</time>
      </trkpt>
      <trkpt lat="48.2252754" lon="15.3156499">
        <ele>216.108</ele>
        <time>2019-05-03T11:17:12.710Z</time>
      </trkpt>
      <trkpt lat="48.2253464" lon="15.3157867">
        <ele>216.054</ele>
        <time>2019-05-03T11:17:14.659Z</time>
      </trkpt>
      <trkpt lat="48.2254028" lon="15.3159181">
        <ele>216.028</ele>
        <time>2019-05-03T11:17:16.196Z</time>
      </trkpt>
      <trkpt lat="48.2255196" lon="15.3160565">
        <ele>216.024</ele>
        <time>2019-05-03T11:17:17.977Z</time>
      </trkpt>
      <trkpt lat="48.2256589" lon="15.3162001">
        <ele>216.024</ele>
        <time>2019-05-03T11:17:19.646Z</time>
      </trkpt>
      <trkpt lat="48.2258341" lon="15.3163779">
        <ele>216.002</ele>
        <time>2019-05-03T11:17:21.652Z</time>
      </trkpt>
      <trkpt lat="48.2260055" lon="15.3165629">
        <ele>215.928</ele>
        <time>2019-05-03T11:17:23.674Z</time>
      </trkpt>
      <trkpt lat="48.2261656" lon="15.3167781">
        <ele>215.783</ele>
        <time>2019-05-03T11:17:25.817Z</time>
      </trkpt>
      <trkpt lat="48.2262870" lon="15.3169943">
        <ele>215.524</ele>
        <time>2019-05-03T11:17:27.791Z</time>
      </trkpt>
      <trkpt lat="48.2264108" lon="15.3172225">
        <ele>215.099</ele>
        <time>2019-05-03T11:17:29.933Z</time>
      </trkpt>
      <trkpt lat="48.2265364" lon="15.3174050">
        <ele>214.558</ele>
        <time>2019-05-03T11:17:31.928Z</time>
      </trkpt>
      <trkpt lat="48.2266598" lon="15.3175960">
        <ele>214.046</ele>
        <time>2019-05-03T11:17:34.031Z</time>
      </trkpt>
      <trkpt lat="48.2267762" lon="15.3177686">
        <ele>213.640</ele>
        <time>2019-05-03T11:17:36.048Z</time>
      </trkpt>
      <trkpt lat="48.2268861" lon="15.3179187">
        <ele>213.294</ele>
        <time>2019-05-03T11:17:37.959Z</time>
      </trkpt>
      <trkpt lat="48.2269882" lon="15.3180716">
        <ele>212.933</ele>
        <time>2019-05-03T11:17:39.904Z</time>
      </trkpt>
      <trkpt lat="48.2270836" lon="15.3182121">
        <ele>212.540</ele>
        <time>2019-05-03T11:17:41.766Z</time>
      </trkpt>
      <trkpt lat="48.2271905" lon="15.3183729">
        <ele>212.161</ele>
        <time>2019-05-03T11:17:43.890Z</time>
      </trkpt>
      <trkpt lat="48.2272841" lon="15.3185136">
        <ele>211.856</ele>
        <time>2019-05-03T11:17:45.832Z</time>
      </trkpt>
      <trkpt lat="48.2273808" lon="15.3186753">
        <ele>211.636</ele>
        <time>2019-05-03T11:17:48.042Z</time>
      </trkpt>
      <trkpt lat="48.2274690" lon="15.3188086">
        <ele>211.483</ele>
        <time>2019-05-03T11:17:49.923Z</time>
      </trkpt>
      <trkpt lat="48.2275670" lon="15.3189447">
        <ele>211.353</ele>
        <time>2019-05-03T11:17:51.910Z</time>
      </trkpt>
      <trkpt lat="48.2276658" lon="15.3190776">
        <ele>211.220</ele>
        <time>2019-05-03T11:17:53.855Z</time>
      </trkpt>
      <trkpt lat="48.2277641" lon="15.3192112">
        <ele>211.114</ele>
        <time>2019-05-03T11:17:55.775Z</time>
      </trkpt>
      <trkpt lat="48.2278555" lon="15.3193473">
        <ele>211.045</ele>
        <time>2019-05-03T11:17:57.657Z</time>
      </trkpt>
      <trkpt lat="48.2279676" lon="15.3194929">
        <ele>210.981</ele>
        <time>2019-05-03T11:17:59.834Z</time>
      </trkpt>
      <trkpt lat="48.2280607" lon="15.3196079">
        <ele>210.912</ele>
        <time>2019-05-03T11:18:01.606Z</time>
      </trkpt>
      <trkpt lat="48.2281534" lon="15.3197333">
        <ele>210.819</ele>
        <time>2019-05-03T11:18:03.462Z</time>
      </trkpt>
      <trkpt lat="48.2282526" lon="15.3198801">
        <ele>210.682</ele>
        <time>2019-05-03T11:18:05.529Z</time>
      </trkpt>
      <trkpt lat="48.2283419" lon="15.3199999">
        <ele>210.520</ele>
        <time>2019-05-03T11:18:07.285Z</time>
      </trkpt>
      <trkpt lat="48.2284386" lon="15.3201282">
        <ele>210.367</ele>
        <time>2019-05-03T11:18:09.154Z</time>
      </trkpt>
      <trkpt lat="48.2285488" lon="15.3202793">
        <ele>210.228</ele>
        <time>2019-05-03T11:18:11.310Z</time>
      </trkpt>
      <trkpt lat="48.2286460" lon="15.3204139">
        <ele>210.089</ele>
        <time>2019-05-03T11:18:13.236Z</time>
      </trkpt>
      <trkpt lat="48.2287471" lon="15.3205613">
        <ele>209.932</ele>
        <time>2019-05-03T11:18:15.307Z</time>
      </trkpt>
      <trkpt lat="48.2288391" lon="15.3206986">
        <ele>209.777</ele>
        <time>2019-05-03T11:18:17.211Z</time>
      </trkpt>
      <trkpt lat="48.2289377" lon="15.3208229">
        <ele>209.657</ele>
        <time>2019-05-03T11:18:19.138Z</time>
      </trkpt>
      <trkpt lat="48.2290233" lon="15.3209492">
        <ele>209.558</ele>
        <time>2019-05-03T11:18:20.998Z</time>
      </trkpt>
      <trkpt lat="48.2291250" lon="15.3210749">
        <ele>209.454</ele>
        <time>2019-05-03T11:18:23.051Z</time>
      </trkpt>
      <trkpt lat="48.2292166" lon="15.3212087">
        <ele>209.329</ele>
        <time>2019-05-03T11:18:24.990Z</time>
      </trkpt>
      <trkpt lat="48.2293241" lon="15.3213527">
        <ele>209.180</ele>
        <time>2019-05-03T11:18:27.167Z</time>
      </trkpt>
      <trkpt lat="48.2294123" lon="15.3214923">
        <ele>209.023</ele>
        <time>2019-05-03T11:18:29.163Z</time>
      </trkpt>
      <trkpt lat="48.2295141" lon="15.3216212">
        <ele>208.894</ele>
        <time>2019-05-03T11:18:31.261Z</time>
      </trkpt>
      <trkpt lat="48.2295988" lon="15.3217497">
        <ele>208.827</ele>
        <time>2019-05-03T11:18:33.127Z</time>
      </trkpt>
      <trkpt lat="48.2296899" lon="15.3219051">
        <ele>208.817</ele>
        <time>2019-05-03T11:18:35.232Z</time>
      </trkpt>
      <trkpt lat="48.2297765" lon="15.3220283">
        <ele>208.830</ele>
        <time>2019-05-03T11:18:37.012Z</time>
      </trkpt>
      <trkpt lat="48.2298678" lon="15.3221527">
        <ele>208.864</ele>
        <time>2019-05-03T11:18:38.815Z</time>
      </trkpt>
      <trkpt lat="48.2299706" lon="15.3222894">
        <ele>208.925</ele>
        <time>2019-05-03T11:18:40.814Z</time>
      </trkpt>
      <trkpt lat="48.2300727" lon="15.3224286">
        <ele>208.974</ele>
        <time>2019-05-03T11:18:42.817Z</time>
      </trkpt>
      <trkpt lat="48.2301765" lon="15.3225632">
        <ele>208.978</ele>
        <time>2019-05-03T11:18:44.779Z</time>
      </trkpt>
      <trkpt lat="48.2302803" lon="15.3227123">
        <ele>208.944</ele>
        <time>2019-05-03T11:18:46.821Z</time>
      </trkpt>
      <trkpt lat="48.2303767" lon="15.3228580">
        <ele>208.893</ele>
        <time>2019-05-03T11:18:48.743Z</time>
      </trkpt>
      <trkpt lat="48.2304788" lon="15.3229932">
        <ele>208.852</ele>
        <time>2019-05-03T11:18:50.601Z</time>
      </trkpt>
      <trkpt lat="48.2305901" lon="15.3231370">
        <ele>208.835</ele>
        <time>2019-05-03T11:18:52.562Z</time>
      </trkpt>
      <trkpt lat="48.2307021" lon="15.3232904">
        <ele>208.822</ele>
        <time>2019-05-03T11:18:54.632Z</time>
      </trkpt>
      <trkpt lat="48.2308081" lon="15.3234392">
        <ele>208.713</ele>
        <time>2019-05-03T11:18:56.676Z</time>
      </trkpt>
      <trkpt lat="48.2309059" lon="15.3235793">
        <ele>208.468</ele>
        <time>2019-05-03T11:18:58.590Z</time>
      </trkpt>
      <trkpt lat="48.2310154" lon="15.3237266">
        <ele>208.255</ele>
        <time>2019-05-03T11:19:00.667Z</time>
      </trkpt>
      <trkpt lat="48.2311158" lon="15.3238518">
        <ele>208.253</ele>
        <time>2019-05-03T11:19:02.510Z</time>
      </trkpt>
      <trkpt lat="48.2312155" lon="15.3239898">
        <ele>208.465</ele>
        <time>2019-05-03T11:19:04.414Z</time>
      </trkpt>
      <trkpt lat="48.2313178" lon="15.3241308">
        <ele>208.751</ele>
        <time>2019-05-03T11:19:06.347Z</time>
      </trkpt>
      <trkpt lat="48.2314228" lon="15.3242668">
        <ele>208.889</ele>
        <time>2019-05-03T11:19:08.266Z</time>
      </trkpt>
      <trkpt lat="48.2315228" lon="15.3244188">
        <ele>208.771</ele>
        <time>2019-05-03T11:19:10.244Z</time>
      </trkpt>
      <trkpt lat="48.2316236" lon="15.3245578">
        <ele>208.528</ele>
        <time>2019-05-03T11:19:12.159Z</time>
      </trkpt>
      <trkpt lat="48.2317243" lon="15.3247173">
        <ele>208.349</ele>
        <time>2019-05-03T11:19:14.206Z</time>
      </trkpt>
      <trkpt lat="48.2318278" lon="15.3248494">
        <ele>208.285</ele>
        <time>2019-05-03T11:19:16.108Z</time>
      </trkpt>
      <trkpt lat="48.2319207" lon="15.3249936">
        <ele>208.291</ele>
        <time>2019-05-03T11:19:17.945Z</time>
      </trkpt>
      <trkpt lat="48.2320297" lon="15.3251427">
        <ele>208.303</ele>
        <time>2019-05-03T11:19:19.979Z</time>
      </trkpt>
      <trkpt lat="48.2321226" lon="15.3252736">
        <ele>208.242</ele>
        <time>2019-05-03T11:19:21.751Z</time>
      </trkpt>
      <trkpt lat="48.2322147" lon="15.3254159">
        <ele>208.090</ele>
        <time>2019-05-03T11:19:23.570Z</time>
      </trkpt>
      <trkpt lat="48.2323233" lon="15.3255613">
        <ele>207.935</ele>
        <time>2019-05-03T11:19:25.562Z</time>
      </trkpt>
      <trkpt lat="48.2324237" lon="15.3257101">
        <ele>207.954</ele>
        <time>2019-05-03T11:19:27.546Z</time>
      </trkpt>
      <trkpt lat="48.2325041" lon="15.3258356">
        <ele>208.203</ele>
        <time>2019-05-03T11:19:29.241Z</time>
      </trkpt>
      <trkpt lat="48.2326058" lon="15.3259971">
        <ele>208.589</ele>
        <time>2019-05-03T11:19:31.435Z</time>
      </trkpt>
      <trkpt lat="48.2326981" lon="15.3261528">
        <ele>208.993</ele>
        <time>2019-05-03T11:19:33.487Z</time>
      </trkpt>
      <trkpt lat="48.2327832" lon="15.3262793">
        <ele>209.204</ele>
        <time>2019-05-03T11:19:35.235Z</time>
      </trkpt>
      <trkpt lat="48.2328846" lon="15.3264434">
        <ele>209.086</ele>
        <time>2019-05-03T11:19:37.409Z</time>
      </trkpt>
      <trkpt lat="48.2329674" lon="15.3265681">
        <ele>208.791</ele>
        <time>2019-05-03T11:19:39.115Z</time>
      </trkpt>
      <trkpt lat="48.2330564" lon="15.3267605">
        <ele>208.524</ele>
        <time>2019-05-03T11:19:41.406Z</time>
      </trkpt>
      <trkpt lat="48.2330983" lon="15.3269185">
        <ele>208.383</ele>
        <time>2019-05-03T11:19:43.128Z</time>
      </trkpt>
      <trkpt lat="48.2331600" lon="15.3270822">
        <ele>208.437</ele>
        <time>2019-05-03T11:19:45.066Z</time>
      </trkpt>
      <trkpt lat="48.2332201" lon="15.3272533">
        <ele>208.720</ele>
        <time>2019-05-03T11:19:47.106Z</time>
      </trkpt>
      <trkpt lat="48.2332703" lon="15.3274008">
        <ele>209.121</ele>
        <time>2019-05-03T11:19:48.930Z</time>
      </trkpt>
      <trkpt lat="48.2333264" lon="15.3275922">
        <ele>209.443</ele>
        <time>2019-05-03T11:19:51.412Z</time>
      </trkpt>
      <trkpt lat="48.2333849" lon="15.3277747">
        <ele>209.625</ele>
        <time>2019-05-03T11:19:54.084Z</time>
      </trkpt>
      <trkpt lat="48.2334313" lon="15.3279350">
        <ele>209.712</ele>
        <time>2019-05-03T11:19:56.731Z</time>
      </trkpt>
      <trkpt lat="48.2334869" lon="15.3280561">
        <ele>209.708</ele>
        <time>2019-05-03T11:19:59.206Z</time>
      </trkpt>
      <trkpt lat="48.2335112" lon="15.3282029">
        <ele>209.571</ele>
        <time>2019-05-03T11:20:02.000Z</time>
      </trkpt>
      <trkpt lat="48.2335112" lon="15.3282029">
        <ele>209.348</ele>
        <time>2019-05-03T11:20:07.000Z</time>
      </trkpt>
      <trkpt lat="48.2335112" lon="15.3282029">
        <ele>209.168</ele>
        <time>2019-05-03T11:21:39.206Z</time>
      </trkpt>
      <trkpt lat="48.2336311" lon="15.3284491">
        <ele>209.088</ele>
        <time>2019-05-03T11:22:04.999Z</time>
      </trkpt>
      <trkpt lat="48.2336311" lon="15.3284491">
        <ele>209.040</ele>
        <time>2019-05-03T11:22:23.999Z</time>
      </trkpt>
      <trkpt lat="48.2336311" lon="15.3284491">
        <ele>208.953</ele>
        <time>2019-05-03T11:24:10.000Z</time>
      </trkpt>
      <trkpt lat="48.2336311" lon="15.3284491">
        <ele>208.853</ele>
        <time>2019-05-03T11:24:13.000Z</time>
      </trkpt>
      <trkpt lat="48.2334907" lon="15.3283241">
        <ele>208.979</ele>
        <time>2019-05-03T11:27:52.000Z</time>
      </trkpt>
      <trkpt lat="48.227267" lon="15.335499">
        <ele>225.217</ele>
        <time>2019-05-04T09:57:33Z</time>
      </trkpt>
      <trkpt lat="48.227266" lon="15.335499">
        <ele>225.187</ele>
        <time>2019-05-04T09:57:34Z</time>
      </trkpt>
      <trkpt lat="48.227277" lon="15.335549">
        <ele>225.415</ele>
        <time>2019-05-04T09:57:48Z</time>
      </trkpt>
      <trkpt lat="48.227251" lon="15.335622">
        <ele>225.408</ele>
        <time>2019-05-04T09:57:51Z</time>
      </trkpt>
      <trkpt lat="48.227236" lon="15.335666">
        <ele>225.594</ele>
        <time>2019-05-04T09:57:53Z</time>
      </trkpt>
      <trkpt lat="48.227208" lon="15.335783">
        <ele>225.777</ele>
        <time>2019-05-04T09:57:57Z</time>
      </trkpt>
      <trkpt lat="48.227191" lon="15.335819">
        <ele>225.721</ele>
        <time>2019-05-04T09:57:58Z</time>
      </trkpt>
      <trkpt lat="48.227178" lon="15.335855">
        <ele>225.736</ele>
        <time>2019-05-04T09:57:59Z</time>
      </trkpt>
      <trkpt lat="48.227167" lon="15.335889">
        <ele>225.680</ele>
        <time>2019-05-04T09:58:00Z</time>
      </trkpt>
      <trkpt lat="48.227156" lon="15.335949">
        <ele>225.666</ele>
        <time>2019-05-04T09:58:02Z</time>
      </trkpt>
      <trkpt lat="48.227162" lon="15.335974">
        <ele>225.749</ele>
        <time>2019-05-04T09:58:03Z</time>
      </trkpt>
      <trkpt lat="48.227166" lon="15.335984">
        <ele>225.717</ele>
        <time>2019-05-04T09:58:04Z</time>
      </trkpt>
      <trkpt lat="48.227169" lon="15.335983">
        <ele>225.753</ele>
        <time>2019-05-04T09:58:05Z</time>
      </trkpt>
      <trkpt lat="48.227171" lon="15.335978">
        <ele>225.704</ele>
        <time>2019-05-04T09:58:06Z</time>
      </trkpt>
      <trkpt lat="48.227230" lon="15.335979">
        <ele>226.014</ele>
        <time>2019-05-04T09:59:09Z</time>
      </trkpt>
      <trkpt lat="48.227257" lon="15.335994">
        <ele>226.108</ele>
        <time>2019-05-04T09:59:11Z</time>
      </trkpt>
      <trkpt lat="48.227316" lon="15.336026">
        <ele>226.328</ele>
        <time>2019-05-04T09:59:14Z</time>
      </trkpt>
      <trkpt lat="48.227335" lon="15.336043">
        <ele>226.421</ele>
        <time>2019-05-04T09:59:15Z</time>
      </trkpt>
      <trkpt lat="48.227393" lon="15.336073">
        <ele>226.645</ele>
        <time>2019-05-04T09:59:18Z</time>
      </trkpt>
      <trkpt lat="48.227441" lon="15.336076">
        <ele>226.830</ele>
        <time>2019-05-04T09:59:20Z</time>
      </trkpt>
      <trkpt lat="48.227459" lon="15.336077">
        <ele>226.914</ele>
        <time>2019-05-04T09:59:21Z</time>
      </trkpt>
      <trkpt lat="48.227474" lon="15.336069">
        <ele>226.940</ele>
        <time>2019-05-04T09:59:22Z</time>
      </trkpt>
      <trkpt lat="48.227515" lon="15.336043">
        <ele>227.233</ele>
        <time>2019-05-04T09:59:25Z</time>
      </trkpt>
      <trkpt lat="48.227533" lon="15.336037">
        <ele>227.421</ele>
        <time>2019-05-04T09:59:26Z</time>
      </trkpt>
      <trkpt lat="48.227616" lon="15.336013">
        <ele>228.353</ele>
        <time>2019-05-04T09:59:30Z</time>
      </trkpt>
      <trkpt lat="48.227675" lon="15.335986">
        <ele>228.904</ele>
        <time>2019-05-04T09:59:33Z</time>
      </trkpt>
      <trkpt lat="48.227705" lon="15.335963">
        <ele>229.214</ele>
        <time>2019-05-04T09:59:35Z</time>
      </trkpt>
      <trkpt lat="48.227730" lon="15.335928">
        <ele>229.508</ele>
        <time>2019-05-04T09:59:38Z</time>
      </trkpt>
      <trkpt lat="48.227736" lon="15.335918">
        <ele>229.538</ele>
        <time>2019-05-04T09:59:39Z</time>
      </trkpt>
      <trkpt lat="48.227737" lon="15.335907">
        <ele>229.691</ele>
        <time>2019-05-04T09:59:40Z</time>
      </trkpt>
      <trkpt lat="48.227738" lon="15.335880">
        <ele>229.625</ele>
        <time>2019-05-04T09:59:42Z</time>
      </trkpt>
      <trkpt lat="48.227741" lon="15.335871">
        <ele>229.610</ele>
        <time>2019-05-04T09:59:43Z</time>
      </trkpt>
      <trkpt lat="48.227744" lon="15.335872">
        <ele>229.654</ele>
        <time>2019-05-04T09:59:44Z</time>
      </trkpt>
      <trkpt lat="48.227738" lon="15.335787">
        <ele>229.770</ele>
        <time>2019-05-04T10:00:25Z</time>
      </trkpt>
      <trkpt lat="48.227730" lon="15.335728">
        <ele>229.893</ele>
        <time>2019-05-04T10:00:28Z</time>
      </trkpt>
      <trkpt lat="48.227710" lon="15.335597">
        <ele>229.921</ele>
        <time>2019-05-04T10:00:33Z</time>
      </trkpt>
      <trkpt lat="48.227698" lon="15.335501">
        <ele>230.055</ele>
        <time>2019-05-04T10:00:36Z</time>
      </trkpt>
      <trkpt lat="48.227697" lon="15.335467">
        <ele>230.107</ele>
        <time>2019-05-04T10:00:37Z</time>
      </trkpt>
      <trkpt lat="48.227694" lon="15.335432">
        <ele>230.117</ele>
        <time>2019-05-04T10:00:38Z</time>
      </trkpt>
      <trkpt lat="48.227678" lon="15.335269">
        <ele>230.208</ele>
        <time>2019-05-04T10:00:42Z</time>
      </trkpt>
      <trkpt lat="48.227666" lon="15.335172">
        <ele>230.048</ele>
        <time>2019-05-04T10:00:44Z</time>
      </trkpt>
      <trkpt lat="48.227661" lon="15.335081">
        <ele>229.971</ele>
        <time>2019-05-04T10:00:46Z</time>
      </trkpt>
      <trkpt lat="48.227656" lon="15.335002">
        <ele>229.835</ele>
        <time>2019-05-04T10:00:48Z</time>
      </trkpt>
      <trkpt lat="48.227648" lon="15.334873">
        <ele>229.410</ele>
        <time>2019-05-04T10:00:51Z</time>
      </trkpt>
      <trkpt lat="48.227642" lon="15.334726">
        <ele>229.194</ele>
        <time>2019-05-04T10:00:54Z</time>
      </trkpt>
      <trkpt lat="48.227639" lon="15.334676">
        <ele>228.840</ele>
        <time>2019-05-04T10:00:55Z</time>
      </trkpt>
      <trkpt lat="48.227620" lon="15.334445">
        <ele>227.653</ele>
        <time>2019-05-04T10:01:00Z</time>
      </trkpt>
      <trkpt lat="48.227608" lon="15.334354">
        <ele>227.031</ele>
        <time>2019-05-04T10:01:02Z</time>
      </trkpt>
      <trkpt lat="48.227594" lon="15.334219">
        <ele>226.259</ele>
        <time>2019-05-04T10:01:05Z</time>
      </trkpt>
      <trkpt lat="48.227579" lon="15.334098">
        <ele>225.603</ele>
        <time>2019-05-04T10:01:08Z</time>
      </trkpt>
      <trkpt lat="48.227565" lon="15.334020">
        <ele>225.323</ele>
        <time>2019-05-04T10:01:10Z</time>
      </trkpt>
      <trkpt lat="48.227557" lon="15.333981">
        <ele>225.108</ele>
        <time>2019-05-04T10:01:11Z</time>
      </trkpt>
      <trkpt lat="48.227519" lon="15.333807">
        <ele>224.698</ele>
        <time>2019-05-04T10:01:15Z</time>
      </trkpt>
      <trkpt lat="48.227499" lon="15.333707">
        <ele>224.631</ele>
        <time>2019-05-04T10:01:17Z</time>
      </trkpt>
      <trkpt lat="48.227489" lon="15.333660">
        <ele>224.745</ele>
        <time>2019-05-04T10:01:18Z</time>
      </trkpt>
      <trkpt lat="48.227434" lon="15.333464">
        <ele>223.660</ele>
        <time>2019-05-04T10:01:23Z</time>
      </trkpt>
      <trkpt lat="48.227424" lon="15.333428">
        <ele>223.334</ele>
        <time>2019-05-04T10:01:24Z</time>
      </trkpt>
      <trkpt lat="48.227407" lon="15.333356">
        <ele>222.810</ele>
        <time>2019-05-04T10:01:26Z</time>
      </trkpt>
      <trkpt lat="48.227378" lon="15.333266">
        <ele>222.153</ele>
        <time>2019-05-04T10:01:29Z</time>
      </trkpt>
      <trkpt lat="48.227370" lon="15.333235">
        <ele>221.911</ele>
        <time>2019-05-04T10:01:30Z</time>
      </trkpt>
      <trkpt lat="48.227328" lon="15.333073">
        <ele>221.228</ele>
        <time>2019-05-04T10:01:35Z</time>
      </trkpt>
      <trkpt lat="48.227306" lon="15.332911">
        <ele>220.589</ele>
        <time>2019-05-04T10:01:40Z</time>
      </trkpt>
      <trkpt lat="48.227309" lon="15.332834">
        <ele>220.417</ele>
        <time>2019-05-04T10:01:42Z</time>
      </trkpt>
      <trkpt lat="48.227321" lon="15.332691">
        <ele>220.408</ele>
        <time>2019-05-04T10:01:46Z</time>
      </trkpt>
      <trkpt lat="48.227311" lon="15.332578">
        <ele>220.365</ele>
        <time>2019-05-04T10:01:49Z</time>
      </trkpt>
      <trkpt lat="48.227294" lon="15.332504">
        <ele>220.058</ele>
        <time>2019-05-04T10:01:51Z</time>
      </trkpt>
      <trkpt lat="48.227282" lon="15.332368">
        <ele>219.792</ele>
        <time>2019-05-04T10:01:55Z</time>
      </trkpt>
      <trkpt lat="48.227289" lon="15.332333">
        <ele>219.797</ele>
        <time>2019-05-04T10:01:56Z</time>
      </trkpt>
      <trkpt lat="48.227290" lon="15.332294">
        <ele>219.681</ele>
        <time>2019-05-04T10:01:57Z</time>
      </trkpt>
      <trkpt lat="48.227306" lon="15.332089">
        <ele>219.187</ele>
        <time>2019-05-04T10:02:02Z</time>
      </trkpt>
      <trkpt lat="48.227328" lon="15.331956">
        <ele>218.820</ele>
        <time>2019-05-04T10:02:05Z</time>
      </trkpt>
      <trkpt lat="48.227357" lon="15.331803">
        <ele>218.278</ele>
        <time>2019-05-04T10:02:09Z</time>
      </trkpt>
      <trkpt lat="48.227349" lon="15.331695">
        <ele>217.426</ele>
        <time>2019-05-04T10:02:12Z</time>
      </trkpt>
      <trkpt lat="48.227337" lon="15.331604">
        <ele>216.947</ele>
        <time>2019-05-04T10:02:15Z</time>
      </trkpt>
      <trkpt lat="48.227324" lon="15.331531">
        <ele>216.511</ele>
        <time>2019-05-04T10:02:18Z</time>
      </trkpt>
      <trkpt lat="48.227320" lon="15.331447">
        <ele>216.208</ele>
        <time>2019-05-04T10:02:21Z</time>
      </trkpt>
      <trkpt lat="48.227320" lon="15.331393">
        <ele>216.115</ele>
        <time>2019-05-04T10:02:23Z</time>
      </trkpt>
      <trkpt lat="48.227332" lon="15.331309">
        <ele>216.498</ele>
        <time>2019-05-04T10:02:26Z</time>
      </trkpt>
      <trkpt lat="48.227337" lon="15.331217">
        <ele>216.682</ele>
        <time>2019-05-04T10:02:29Z</time>
      </trkpt>
      <trkpt lat="48.227338" lon="15.331183">
        <ele>216.747</ele>
        <time>2019-05-04T10:02:30Z</time>
      </trkpt>
      <trkpt lat="48.227340" lon="15.331062">
        <ele>217.071</ele>
        <time>2019-05-04T10:02:34Z</time>
      </trkpt>
      <trkpt lat="48.227331" lon="15.330979">
        <ele>217.167</ele>
        <time>2019-05-04T10:02:37Z</time>
      </trkpt>
      <trkpt lat="48.227325" lon="15.330949">
        <ele>217.020</ele>
        <time>2019-05-04T10:02:38Z</time>
      </trkpt>
      <trkpt lat="48.227323" lon="15.330892">
        <ele>217.148</ele>
        <time>2019-05-04T10:02:40Z</time>
      </trkpt>
      <trkpt lat="48.227318" lon="15.330793">
        <ele>217.417</ele>
        <time>2019-05-04T10:02:43Z</time>
      </trkpt>
      <trkpt lat="48.227296" lon="15.330637">
        <ele>217.487</ele>
        <time>2019-05-04T10:02:48Z</time>
      </trkpt>
      <trkpt lat="48.227295" lon="15.330566">
        <ele>217.815</ele>
        <time>2019-05-04T10:02:50Z</time>
      </trkpt>
      <trkpt lat="48.227287" lon="15.330387">
        <ele>217.408</ele>
        <time>2019-05-04T10:02:55Z</time>
      </trkpt>
      <trkpt lat="48.227289" lon="15.330324">
        <ele>217.484</ele>
        <time>2019-05-04T10:02:57Z</time>
      </trkpt>
      <trkpt lat="48.227287" lon="15.330261">
        <ele>217.387</ele>
        <time>2019-05-04T10:02:59Z</time>
      </trkpt>
      <trkpt lat="48.227278" lon="15.330093">
        <ele>216.621</ele>
        <time>2019-05-04T10:03:05Z</time>
      </trkpt>
      <trkpt lat="48.227247" lon="15.329956">
        <ele>215.316</ele>
        <time>2019-05-04T10:03:10Z</time>
      </trkpt>
      <trkpt lat="48.227226" lon="15.329895">
        <ele>214.330</ele>
        <time>2019-05-04T10:03:12Z</time>
      </trkpt>
      <trkpt lat="48.227207" lon="15.329824">
        <ele>213.826</ele>
        <time>2019-05-04T10:03:14Z</time>
      </trkpt>
      <trkpt lat="48.227205" lon="15.329792">
        <ele>213.649</ele>
        <time>2019-05-04T10:03:15Z</time>
      </trkpt>
      <trkpt lat="48.227199" lon="15.329718">
        <ele>213.147</ele>
        <time>2019-05-04T10:03:17Z</time>
      </trkpt>
      <trkpt lat="48.227195" lon="15.329531">
        <ele>212.059</ele>
        <time>2019-05-04T10:03:22Z</time>
      </trkpt>
      <trkpt lat="48.227226" lon="15.329335">
        <ele>211.103</ele>
        <time>2019-05-04T10:03:27Z</time>
      </trkpt>
      <trkpt lat="48.227239" lon="15.329306">
        <ele>211.223</ele>
        <time>2019-05-04T10:03:28Z</time>
      </trkpt>
      <trkpt lat="48.227276" lon="15.329218">
        <ele>211.508</ele>
        <time>2019-05-04T10:03:31Z</time>
      </trkpt>
      <trkpt lat="48.227309" lon="15.329109">
        <ele>211.718</ele>
        <time>2019-05-04T10:03:34Z</time>
      </trkpt>
      <trkpt lat="48.227320" lon="15.329070">
        <ele>211.811</ele>
        <time>2019-05-04T10:03:35Z</time>
      </trkpt>
      <trkpt lat="48.227371" lon="15.328912">
        <ele>212.025</ele>
        <time>2019-05-04T10:03:39Z</time>
      </trkpt>
      <trkpt lat="48.227460" lon="15.328675">
        <ele>212.220</ele>
        <time>2019-05-04T10:03:45Z</time>
      </trkpt>
      <trkpt lat="48.227482" lon="15.328642">
        <ele>212.114</ele>
        <time>2019-05-04T10:03:46Z</time>
      </trkpt>
      <trkpt lat="48.227555" lon="15.328534">
        <ele>211.460</ele>
        <time>2019-05-04T10:03:50Z</time>
      </trkpt>
      <trkpt lat="48.227575" lon="15.328520">
        <ele>211.373</ele>
        <time>2019-05-04T10:03:51Z</time>
      </trkpt>
      <trkpt lat="48.227610" lon="15.328504">
        <ele>211.271</ele>
        <time>2019-05-04T10:03:53Z</time>
      </trkpt>
      <trkpt lat="48.227639" lon="15.328506">
        <ele>211.254</ele>
        <time>2019-05-04T10:03:54Z</time>
      </trkpt>
      <trkpt lat="48.227689" lon="15.328522">
        <ele>211.456</ele>
        <time>2019-05-04T10:03:56Z</time>
      </trkpt>
      <trkpt lat="48.227776" lon="15.328602">
        <ele>211.911</ele>
        <time>2019-05-04T10:03:59Z</time>
      </trkpt>
      <trkpt lat="48.227832" lon="15.328641">
        <ele>212.808</ele>
        <time>2019-05-04T10:04:01Z</time>
      </trkpt>
      <trkpt lat="48.227858" lon="15.328627">
        <ele>212.628</ele>
        <time>2019-05-04T10:04:02Z</time>
      </trkpt>
      <trkpt lat="48.227878" lon="15.328599">
        <ele>212.231</ele>
        <time>2019-05-04T10:04:03Z</time>
      </trkpt>
      <trkpt lat="48.227906" lon="15.328504">
        <ele>211.275</ele>
        <time>2019-05-04T10:04:06Z</time>
      </trkpt>
      <trkpt lat="48.227903" lon="15.328475">
        <ele>210.890</ele>
        <time>2019-05-04T10:04:07Z</time>
      </trkpt>
      <trkpt lat="48.227885" lon="15.328429">
        <ele>210.364</ele>
        <time>2019-05-04T10:04:09Z</time>
      </trkpt>
      <trkpt lat="48.227887" lon="15.328401">
        <ele>210.090</ele>
        <time>2019-05-04T10:04:10Z</time>
      </trkpt>
      <trkpt lat="48.227887" lon="15.328374">
        <ele>209.743</ele>
        <time>2019-05-04T10:04:11Z</time>
      </trkpt>
      <trkpt lat="48.227867" lon="15.328332">
        <ele>209.361</ele>
        <time>2019-05-04T10:04:13Z</time>
      </trkpt>
      <trkpt lat="48.227855" lon="15.328317">
        <ele>209.313</ele>
        <time>2019-05-04T10:04:14Z</time>
      </trkpt>
      <trkpt lat="48.227844" lon="15.328315">
        <ele>209.443</ele>
        <time>2019-05-04T10:04:15Z</time>
      </trkpt>
      <trkpt lat="48.227834" lon="15.328315">
        <ele>209.507</ele>
        <time>2019-05-04T10:04:18Z</time>
      </trkpt>
      <trkpt lat="48.227753" lon="15.328232">
        <ele>209.308</ele>
        <time>2019-05-04T10:04:33Z</time>
      </trkpt>
      <trkpt lat="48.227711" lon="15.328178">
        <ele>209.084</ele>
        <time>2019-05-04T10:04:36Z</time>
      </trkpt>
      <trkpt lat="48.227692" lon="15.328165">
        <ele>209.087</ele>
        <time>2019-05-04T10:04:37Z</time>
      </trkpt>
      <trkpt lat="48.227674" lon="15.328156">
        <ele>209.041</ele>
        <time>2019-05-04T10:04:38Z</time>
      </trkpt>
      <trkpt lat="48.227647" lon="15.328124">
        <ele>208.816</ele>
        <time>2019-05-04T10:04:41Z</time>
      </trkpt>
      <trkpt lat="48.227645" lon="15.328122">
        <ele>208.840</ele>
        <time>2019-05-04T10:04:43Z</time>
      </trkpt>
      <trkpt lat="48.227634" lon="15.328117">
        <ele>208.826</ele>
        <time>2019-05-04T10:06:14Z</time>
      </trkpt>
      <trkpt lat="48.227622" lon="15.328106">
        <ele>208.819</ele>
        <time>2019-05-04T10:06:15Z</time>
      </trkpt>
      <trkpt lat="48.227614" lon="15.328097">
        <ele>208.897</ele>
        <time>2019-05-04T10:06:16Z</time>
      </trkpt>
      <trkpt lat="48.227606" lon="15.328095">
        <ele>208.819</ele>
        <time>2019-05-04T10:06:19Z</time>
      </trkpt>
      <trkpt lat="48.227677" lon="15.328144">
        <ele>208.909</ele>
        <time>2019-05-04T10:06:44Z</time>
      </trkpt>
      <trkpt lat="48.227690" lon="15.328147">
        <ele>208.919</ele>
        <time>2019-05-04T10:06:45Z</time>
      </trkpt>
      <trkpt lat="48.227702" lon="15.328156">
        <ele>208.908</ele>
        <time>2019-05-04T10:06:46Z</time>
      </trkpt>
      <trkpt lat="48.227709" lon="15.328166">
        <ele>208.934</ele>
        <time>2019-05-04T10:06:47Z</time>
      </trkpt>
      <trkpt lat="48.227732" lon="15.328194">
        <ele>209.147</ele>
        <time>2019-05-04T10:06:51Z</time>
      </trkpt>
      <trkpt lat="48.227747" lon="15.328208">
        <ele>209.161</ele>
        <time>2019-05-04T10:06:54Z</time>
      </trkpt>
      <trkpt lat="48.227752" lon="15.328216">
        <ele>209.266</ele>
        <time>2019-05-04T10:06:56Z</time>
      </trkpt>
      <trkpt lat="48.227830" lon="15.328330">
        <ele>209.680</ele>
        <time>2019-05-04T10:07:06Z</time>
      </trkpt>
      <trkpt lat="48.227841" lon="15.328344">
        <ele>209.626</ele>
        <time>2019-05-04T10:07:07Z</time>
      </trkpt>
      <trkpt lat="48.227850" lon="15.328356">
        <ele>209.759</ele>
        <time>2019-05-04T10:07:08Z</time>
      </trkpt>
      <trkpt lat="48.227865" lon="15.328376">
        <ele>209.857</ele>
        <time>2019-05-04T10:07:10Z</time>
      </trkpt>
      <trkpt lat="48.227878" lon="15.328392">
        <ele>209.949</ele>
        <time>2019-05-04T10:07:12Z</time>
      </trkpt>
      <trkpt lat="48.227890" lon="15.328405">
        <ele>210.002</ele>
        <time>2019-05-04T10:07:14Z</time>
      </trkpt>
      <trkpt lat="48.227894" lon="15.328410">
        <ele>210.122</ele>
        <time>2019-05-04T10:07:15Z</time>
      </trkpt>
      <trkpt lat="48.227902" lon="15.328415">
        <ele>210.108</ele>
        <time>2019-05-04T10:07:17Z</time>
      </trkpt>
      <trkpt lat="48.227927" lon="15.328426">
        <ele>210.157</ele>
        <time>2019-05-04T10:07:20Z</time>
      </trkpt>
      <trkpt lat="48.227958" lon="15.328419">
        <ele>209.930</ele>
        <time>2019-05-04T10:07:22Z</time>
      </trkpt>
      <trkpt lat="48.227983" lon="15.328384">
        <ele>209.394</ele>
        <time>2019-05-04T10:07:24Z</time>
      </trkpt>
      <trkpt lat="48.227977" lon="15.328355">
        <ele>208.989</ele>
        <time>2019-05-04T10:07:25Z</time>
      </trkpt>
      <trkpt lat="48.227959" lon="15.328331">
        <ele>208.733</ele>
        <time>2019-05-04T10:07:26Z</time>
      </trkpt>
      <trkpt lat="48.227937" lon="15.328317">
        <ele>208.789</ele>
        <time>2019-05-04T10:07:27Z</time>
      </trkpt>
      <trkpt lat="48.227839" lon="15.328264">
        <ele>209.142</ele>
        <time>2019-05-04T10:07:32Z</time>
      </trkpt>
      <trkpt lat="48.227767" lon="15.328194">
        <ele>209.030</ele>
        <time>2019-05-04T10:07:36Z</time>
      </trkpt>
      <trkpt lat="48.227737" lon="15.328152">
        <ele>208.843</ele>
        <time>2019-05-04T10:07:38Z</time>
      </trkpt>
      <trkpt lat="48.227731" lon="15.328132">
        <ele>208.764</ele>
        <time>2019-05-04T10:07:39Z</time>
      </trkpt>
      <trkpt lat="48.227735" lon="15.328098">
        <ele>208.410</ele>
        <time>2019-05-04T10:07:41Z</time>
      </trkpt>
      <trkpt lat="48.227740" lon="15.328085">
        <ele>208.308</ele>
        <time>2019-05-04T10:07:42Z</time>
      </trkpt>
      <trkpt lat="48.227758" lon="15.328049">
        <ele>208.037</ele>
        <time>2019-05-04T10:07:45Z</time>
      </trkpt>
      <trkpt lat="48.227763" lon="15.328035">
        <ele>208.070</ele>
        <time>2019-05-04T10:07:48Z</time>
      </trkpt>
      <trkpt lat="48.227769" lon="15.328044">
        <ele>208.094</ele>
        <time>2019-05-04T10:10:07Z</time>
      </trkpt>
      <trkpt lat="48.227720" lon="15.328149">
        <ele>208.869</ele>
        <time>2019-05-04T10:10:11Z</time>
      </trkpt>
      <trkpt lat="48.227728" lon="15.328185">
        <ele>209.023</ele>
        <time>2019-05-04T10:10:12Z</time>
      </trkpt>
      <trkpt lat="48.227797" lon="15.328266">
        <ele>209.469</ele>
        <time>2019-05-04T10:10:15Z</time>
      </trkpt>
      <trkpt lat="48.227855" lon="15.328357">
        <ele>209.742</ele>
        <time>2019-05-04T10:10:18Z</time>
      </trkpt>
      <trkpt lat="48.227872" lon="15.328384">
        <ele>209.990</ele>
        <time>2019-05-04T10:10:19Z</time>
      </trkpt>
      <trkpt lat="48.227886" lon="15.328414">
        <ele>210.148</ele>
        <time>2019-05-04T10:10:20Z</time>
      </trkpt>
      <trkpt lat="48.227897" lon="15.328442">
        <ele>210.461</ele>
        <time>2019-05-04T10:10:21Z</time>
      </trkpt>
      <trkpt lat="48.227910" lon="15.328467">
        <ele>210.717</ele>
        <time>2019-05-04T10:10:22Z</time>
      </trkpt>
      <trkpt lat="48.227922" lon="15.328484">
        <ele>210.908</ele>
        <time>2019-05-04T10:10:23Z</time>
      </trkpt>
      <trkpt lat="48.227928" lon="15.328491">
        <ele>211.067</ele>
        <time>2019-05-04T10:10:24Z</time>
      </trkpt>
      <trkpt lat="48.227930" lon="15.328491">
        <ele>211.080</ele>
        <time>2019-05-04T10:10:25Z</time>
      </trkpt>
      <trkpt lat="48.228020" lon="15.328534">
        <ele>211.694</ele>
        <time>2019-05-04T10:12:02Z</time>
      </trkpt>
      <trkpt lat="48.228033" lon="15.328549">
        <ele>211.949</ele>
        <time>2019-05-04T10:12:03Z</time>
      </trkpt>
      <trkpt lat="48.228045" lon="15.328562">
        <ele>212.133</ele>
        <time>2019-05-04T10:12:04Z</time>
      </trkpt>
      <trkpt lat="48.228050" lon="15.328567">
        <ele>212.219</ele>
        <time>2019-05-04T10:12:05Z</time>
      </trkpt>
      <trkpt lat="48.228045" lon="15.328559">
        <ele>212.012</ele>
        <time>2019-05-04T10:12:07Z</time>
      </trkpt>
      <trkpt lat="48.228043" lon="15.328553">
        <ele>211.980</ele>
        <time>2019-05-04T10:12:08Z</time>
      </trkpt>
      <trkpt lat="48.228023" lon="15.328536">
        <ele>211.674</ele>
        <time>2019-05-04T10:12:10Z</time>
      </trkpt>
      <trkpt lat="48.228001" lon="15.328566">
        <ele>212.156</ele>
        <time>2019-05-04T10:12:12Z</time>
      </trkpt>
      <trkpt lat="48.228022" lon="15.328614">
        <ele>212.921</ele>
        <time>2019-05-04T10:12:14Z</time>
      </trkpt>
      <trkpt lat="48.228038" lon="15.328635">
        <ele>213.508</ele>
        <time>2019-05-04T10:12:15Z</time>
      </trkpt>
      <trkpt lat="48.228057" lon="15.328649">
        <ele>214.060</ele>
        <time>2019-05-04T10:12:16Z</time>
      </trkpt>
      <trkpt lat="48.228073" lon="15.328665">
        <ele>214.473</ele>
        <time>2019-05-04T10:12:17Z</time>
      </trkpt>
      <trkpt lat="48.228125" lon="15.328719">
        <ele>215.777</ele>
        <time>2019-05-04T10:12:21Z</time>
      </trkpt>
      <trkpt lat="48.228133" lon="15.328722">
        <ele>215.882</ele>
        <time>2019-05-04T10:12:22Z</time>
      </trkpt>
      <trkpt lat="48.228118" lon="15.328686">
        <ele>214.936</ele>
        <time>2019-05-04T10:12:25Z</time>
      </trkpt>
      <trkpt lat="48.228097" lon="15.328645">
        <ele>213.962</ele>
        <time>2019-05-04T10:12:27Z</time>
      </trkpt>
      <trkpt lat="48.228085" lon="15.328623">
        <ele>213.335</ele>
        <time>2019-05-04T10:12:28Z</time>
      </trkpt>
      <trkpt lat="48.228071" lon="15.328600">
        <ele>212.883</ele>
        <time>2019-05-04T10:12:29Z</time>
      </trkpt>
      <trkpt lat="48.228056" lon="15.328576">
        <ele>212.478</ele>
        <time>2019-05-04T10:12:30Z</time>
      </trkpt>
      <trkpt lat="48.228043" lon="15.328563">
        <ele>212.133</ele>
        <time>2019-05-04T10:12:31Z</time>
      </trkpt>
      <trkpt lat="48.228036" lon="15.328562">
        <ele>212.126</ele>
        <time>2019-05-04T10:12:32Z</time>
      </trkpt>
      <trkpt lat="48.228034" lon="15.328562">
        <ele>212.108</ele>
        <time>2019-05-04T10:12:33Z</time>
      </trkpt>
      <trkpt lat="48.228034" lon="15.328560">
        <ele>212.040</ele>
        <time>2019-05-04T10:12:34Z</time>
      </trkpt>
      <trkpt lat="48.228025" lon="15.328470">
        <ele>210.513</ele>
        <time>2019-05-04T10:12:45Z</time>
      </trkpt>
      <trkpt lat="48.228021" lon="15.328421">
        <ele>209.767</ele>
        <time>2019-05-04T10:12:47Z</time>
      </trkpt>
      <trkpt lat="48.228000" lon="15.328378">
        <ele>209.112</ele>
        <time>2019-05-04T10:12:49Z</time>
      </trkpt>
      <trkpt lat="48.227970" lon="15.328353">
        <ele>208.946</ele>
        <time>2019-05-04T10:12:51Z</time>
      </trkpt>
      <trkpt lat="48.227955" lon="15.328351">
        <ele>209.072</ele>
        <time>2019-05-04T10:12:52Z</time>
      </trkpt>
      <trkpt lat="48.227949" lon="15.328363">
        <ele>209.255</ele>
        <time>2019-05-04T10:12:53Z</time>
      </trkpt>
      <trkpt lat="48.227962" lon="15.328406">
        <ele>209.793</ele>
        <time>2019-05-04T10:12:56Z</time>
      </trkpt>
      <trkpt lat="48.227967" lon="15.328408">
        <ele>209.726</ele>
        <time>2019-05-04T10:12:59Z</time>
      </trkpt>
      <trkpt lat="48.227981" lon="15.328404">
        <ele>209.647</ele>
        <time>2019-05-04T10:14:15Z</time>
      </trkpt>
      <trkpt lat="48.227981" lon="15.328460">
        <ele>210.411</ele>
        <time>2019-05-04T10:14:17Z</time>
      </trkpt>
      <trkpt lat="48.227982" lon="15.328489">
        <ele>210.908</ele>
        <time>2019-05-04T10:14:19Z</time>
      </trkpt>
      <trkpt lat="48.227982" lon="15.328490">
        <ele>210.995</ele>
        <time>2019-05-04T10:14:20Z</time>
      </trkpt>
      <trkpt lat="48.227990" lon="15.328429">
        <ele>209.928</ele>
        <time>2019-05-04T10:14:29Z</time>
      </trkpt>
      <trkpt lat="48.227990" lon="15.328371">
        <ele>209.142</ele>
        <time>2019-05-04T10:14:31Z</time>
      </trkpt>
      <trkpt lat="48.227992" lon="15.328353">
        <ele>208.837</ele>
        <time>2019-05-04T10:14:33Z</time>
      </trkpt>
      <trkpt lat="48.227991" lon="15.328352">
        <ele>208.831</ele>
        <time>2019-05-04T10:14:34Z</time>
      </trkpt>
      <trkpt lat="48.227991" lon="15.328408">
        <ele>209.627</ele>
        <time>2019-05-04T10:14:39Z</time>
      </trkpt>
      <trkpt lat="48.227995" lon="15.328432">
        <ele>210.030</ele>
        <time>2019-05-04T10:14:40Z</time>
      </trkpt>
      <trkpt lat="48.227997" lon="15.328450">
        <ele>210.378</ele>
        <time>2019-05-04T10:14:41Z</time>
      </trkpt>
      <trkpt lat="48.227999" lon="15.328456">
        <ele>210.393</ele>
        <time>2019-05-04T10:14:43Z</time>
      </trkpt>
      <trkpt lat="48.228019" lon="15.328549">
        <ele>211.865</ele>
        <time>2019-05-04T10:15:13Z</time>
      </trkpt>
      <trkpt lat="48.228054" lon="15.328596">
        <ele>212.721</ele>
        <time>2019-05-04T10:15:15Z</time>
      </trkpt>
      <trkpt lat="48.228104" lon="15.328694">
        <ele>215.108</ele>
        <time>2019-05-04T10:15:18Z</time>
      </trkpt>
      <trkpt lat="48.228146" lon="15.328762">
        <ele>216.872</ele>
        <time>2019-05-04T10:15:20Z</time>
      </trkpt>
      <trkpt lat="48.228256" lon="15.328891">
        <ele>220.165</ele>
        <time>2019-05-04T10:15:24Z</time>
      </trkpt>
      <trkpt lat="48.228365" lon="15.328958">
        <ele>222.279</ele>
        <time>2019-05-04T10:15:27Z</time>
      </trkpt>
      <trkpt lat="48.228402" lon="15.328981">
        <ele>222.964</ele>
        <time>2019-05-04T10:15:28Z</time>
      </trkpt>
      <trkpt lat="48.228531" lon="15.329090">
        <ele>225.218</ele>
        <time>2019-05-04T10:15:32Z</time>
      </trkpt>
      <trkpt lat="48.228558" lon="15.329107">
        <ele>225.364</ele>
        <time>2019-05-04T10:15:33Z</time>
      </trkpt>
      <trkpt lat="48.228578" lon="15.329137">
        <ele>225.827</ele>
        <time>2019-05-04T10:15:34Z</time>
      </trkpt>
      <trkpt lat="48.228591" lon="15.329157">
        <ele>226.095</ele>
        <time>2019-05-04T10:15:35Z</time>
      </trkpt>
      <trkpt lat="48.228616" lon="15.329178">
        <ele>225.942</ele>
        <time>2019-05-04T10:15:37Z</time>
      </trkpt>
      <trkpt lat="48.228648" lon="15.329236">
        <ele>225.322</ele>
        <time>2019-05-04T10:15:39Z</time>
      </trkpt>
      <trkpt lat="48.228696" lon="15.329286">
        <ele>223.714</ele>
        <time>2019-05-04T10:15:41Z</time>
      </trkpt>
      <trkpt lat="48.228809" lon="15.329382">
        <ele>219.008</ele>
        <time>2019-05-04T10:15:45Z</time>
      </trkpt>
      <trkpt lat="48.228841" lon="15.329409">
        <ele>217.547</ele>
        <time>2019-05-04T10:15:46Z</time>
      </trkpt>
      <trkpt lat="48.228870" lon="15.329438">
        <ele>216.070</ele>
        <time>2019-05-04T10:15:47Z</time>
      </trkpt>
      <trkpt lat="48.228931" lon="15.329531">
        <ele>214.324</ele>
        <time>2019-05-04T10:15:50Z</time>
      </trkpt>
      <trkpt lat="48.228947" lon="15.329560">
        <ele>214.019</ele>
        <time>2019-05-04T10:15:51Z</time>
      </trkpt>
      <trkpt lat="48.228995" lon="15.329591">
        <ele>212.663</ele>
        <time>2019-05-04T10:15:53Z</time>
      </trkpt>
      <trkpt lat="48.229007" lon="15.329623">
        <ele>212.349</ele>
        <time>2019-05-04T10:15:54Z</time>
      </trkpt>
      <trkpt lat="48.228998" lon="15.329692">
        <ele>212.922</ele>
        <time>2019-05-04T10:15:56Z</time>
      </trkpt>
      <trkpt lat="48.228988" lon="15.329748">
        <ele>214.030</ele>
        <time>2019-05-04T10:15:58Z</time>
      </trkpt>
      <trkpt lat="48.229028" lon="15.329782">
        <ele>213.343</ele>
        <time>2019-05-04T10:16:00Z</time>
      </trkpt>
      <trkpt lat="48.229090" lon="15.329815">
        <ele>211.564</ele>
        <time>2019-05-04T10:16:02Z</time>
      </trkpt>
      <trkpt lat="48.229147" lon="15.329863">
        <ele>209.910</ele>
        <time>2019-05-04T10:16:04Z</time>
      </trkpt>
      <trkpt lat="48.229300" lon="15.329996">
        <ele>209.508</ele>
        <time>2019-05-04T10:16:10Z</time>
      </trkpt>
      <trkpt lat="48.229451" lon="15.330116">
        <ele>209.647</ele>
        <time>2019-05-04T10:16:16Z</time>
      </trkpt>
      <trkpt lat="48.229506" lon="15.330159">
        <ele>209.830</ele>
        <time>2019-05-04T10:16:18Z</time>
      </trkpt>
      <trkpt lat="48.229666" lon="15.330281">
        <ele>209.614</ele>
        <time>2019-05-04T10:16:24Z</time>
      </trkpt>
      <trkpt lat="48.229892" lon="15.330414">
        <ele>209.189</ele>
        <time>2019-05-04T10:16:31Z</time>
      </trkpt>
      <trkpt lat="48.230043" lon="15.330463">
        <ele>208.633</ele>
        <time>2019-05-04T10:16:37Z</time>
      </trkpt>
      <trkpt lat="48.230190" lon="15.330515">
        <ele>208.389</ele>
        <time>2019-05-04T10:16:42Z</time>
      </trkpt>
      <trkpt lat="48.230319" lon="15.330575">
        <ele>207.882</ele>
        <time>2019-05-04T10:16:46Z</time>
      </trkpt>
      <trkpt lat="48.230456" lon="15.330625">
        <ele>207.250</ele>
        <time>2019-05-04T10:16:50Z</time>
      </trkpt>
      <trkpt lat="48.230687" lon="15.330723">
        <ele>206.758</ele>
        <time>2019-05-04T10:16:57Z</time>
      </trkpt>
      <trkpt lat="48.230849" lon="15.330805">
        <ele>207.052</ele>
        <time>2019-05-04T10:17:02Z</time>
      </trkpt>
      <trkpt lat="48.230901" lon="15.330828">
        <ele>207.017</ele>
        <time>2019-05-04T10:17:04Z</time>
      </trkpt>
      <trkpt lat="48.230978" lon="15.330860">
        <ele>207.108</ele>
        <time>2019-05-04T10:17:07Z</time>
      </trkpt>
      <trkpt lat="48.231029" lon="15.330880">
        <ele>207.278</ele>
        <time>2019-05-04T10:17:10Z</time>
      </trkpt>
      <trkpt lat="48.231028" lon="15.330888">
        <ele>207.231</ele>
        <time>2019-05-04T10:17:12Z</time>
      </trkpt>
      <trkpt lat="48.231064" lon="15.330908">
        <ele>207.395</ele>
        <time>2019-05-04T10:17:19Z</time>
      </trkpt>
      <trkpt lat="48.231088" lon="15.330919">
        <ele>207.340</ele>
        <time>2019-05-04T10:17:20Z</time>
      </trkpt>
      <trkpt lat="48.231173" lon="15.330952">
        <ele>207.754</ele>
        <time>2019-05-04T10:17:23Z</time>
      </trkpt>
      <trkpt lat="48.231290" lon="15.331009">
        <ele>208.370</ele>
        <time>2019-05-04T10:17:27Z</time>
      </trkpt>
      <trkpt lat="48.231315" lon="15.331062">
        <ele>208.663</ele>
        <time>2019-05-04T10:17:29Z</time>
      </trkpt>
      <trkpt lat="48.231318" lon="15.331096">
        <ele>208.741</ele>
        <time>2019-05-04T10:17:30Z</time>
      </trkpt>
      <trkpt lat="48.231307" lon="15.331135">
        <ele>208.931</ele>
        <time>2019-05-04T10:17:31Z</time>
      </trkpt>
      <trkpt lat="48.231208" lon="15.331234">
        <ele>209.261</ele>
        <time>2019-05-04T10:17:35Z</time>
      </trkpt>
      <trkpt lat="48.231147" lon="15.331251">
        <ele>209.107</ele>
        <time>2019-05-04T10:17:37Z</time>
      </trkpt>
      <trkpt lat="48.231028" lon="15.331290">
        <ele>209.108</ele>
        <time>2019-05-04T10:17:41Z</time>
      </trkpt>
      <trkpt lat="48.230934" lon="15.331334">
        <ele>209.136</ele>
        <time>2019-05-04T10:17:44Z</time>
      </trkpt>
      <trkpt lat="48.230810" lon="15.331401">
        <ele>209.069</ele>
        <time>2019-05-04T10:17:48Z</time>
      </trkpt>
      <trkpt lat="48.230778" lon="15.331425">
        <ele>209.143</ele>
        <time>2019-05-04T10:17:49Z</time>
      </trkpt>
      <trkpt lat="48.230574" lon="15.331573">
        <ele>209.448</ele>
        <time>2019-05-04T10:17:55Z</time>
      </trkpt>
      <trkpt lat="48.230539" lon="15.331599">
        <ele>209.762</ele>
        <time>2019-05-04T10:17:56Z</time>
      </trkpt>
      <trkpt lat="48.230439" lon="15.331675">
        <ele>211.438</ele>
        <time>2019-05-04T10:17:59Z</time>
      </trkpt>
      <trkpt lat="48.230354" lon="15.331757">
        <ele>213.571</ele>
        <time>2019-05-04T10:18:02Z</time>
      </trkpt>
      <trkpt lat="48.230292" lon="15.331932">
        <ele>217.579</ele>
        <time>2019-05-04T10:18:07Z</time>
      </trkpt>
      <trkpt lat="48.230299" lon="15.332003">
        <ele>219.066</ele>
        <time>2019-05-04T10:18:09Z</time>
      </trkpt>
      <trkpt lat="48.230325" lon="15.332065">
        <ele>219.829</ele>
        <time>2019-05-04T10:18:11Z</time>
      </trkpt>
      <trkpt lat="48.230395" lon="15.332226">
        <ele>221.321</ele>
        <time>2019-05-04T10:18:16Z</time>
      </trkpt>
      <trkpt lat="48.230512" lon="15.332513">
        <ele>222.108</ele>
        <time>2019-05-04T10:18:24Z</time>
      </trkpt>
      <trkpt lat="48.230554" lon="15.332633">
        <ele>222.099</ele>
        <time>2019-05-04T10:18:27Z</time>
      </trkpt>
      <trkpt lat="48.230620" lon="15.332811">
        <ele>222.692</ele>
        <time>2019-05-04T10:18:31Z</time>
      </trkpt>
      <trkpt lat="48.230731" lon="15.333114">
        <ele>223.366</ele>
        <time>2019-05-04T10:18:38Z</time>
      </trkpt>
      <trkpt lat="48.230823" lon="15.333432">
        <ele>224.851</ele>
        <time>2019-05-04T10:18:45Z</time>
      </trkpt>
      <trkpt lat="48.230842" lon="15.333468">
        <ele>224.785</ele>
        <time>2019-05-04T10:18:46Z</time>
      </trkpt>
      <trkpt lat="48.230941" lon="15.333561">
        <ele>223.651</ele>
        <time>2019-05-04T10:18:50Z</time>
      </trkpt>
      <trkpt lat="48.230967" lon="15.333572">
        <ele>223.144</ele>
        <time>2019-05-04T10:18:51Z</time>
      </trkpt>
      <trkpt lat="48.231132" lon="15.333631">
        <ele>219.972</ele>
        <time>2019-05-04T10:18:56Z</time>
      </trkpt>
      <trkpt lat="48.231175" lon="15.333661">
        <ele>219.527</ele>
        <time>2019-05-04T10:18:57Z</time>
      </trkpt>
      <trkpt lat="48.231257" lon="15.333746">
        <ele>218.868</ele>
        <time>2019-05-04T10:18:59Z</time>
      </trkpt>
      <trkpt lat="48.231291" lon="15.333800">
        <ele>218.614</ele>
        <time>2019-05-04T10:19:00Z</time>
      </trkpt>
      <trkpt lat="48.231371" lon="15.333979">
        <ele>217.408</ele>
        <time>2019-05-04T10:19:03Z</time>
      </trkpt>
      <trkpt lat="48.231409" lon="15.334105">
        <ele>216.845</ele>
        <time>2019-05-04T10:19:05Z</time>
      </trkpt>
      <trkpt lat="48.231420" lon="15.334172">
        <ele>216.798</ele>
        <time>2019-05-04T10:19:06Z</time>
      </trkpt>
      <trkpt lat="48.231425" lon="15.334239">
        <ele>217.112</ele>
        <time>2019-05-04T10:19:07Z</time>
      </trkpt>
      <trkpt lat="48.231428" lon="15.334307">
        <ele>217.437</ele>
        <time>2019-05-04T10:19:08Z</time>
      </trkpt>
      <trkpt lat="48.231433" lon="15.334444">
        <ele>218.271</ele>
        <time>2019-05-04T10:19:10Z</time>
      </trkpt>
      <trkpt lat="48.231434" lon="15.334515">
        <ele>218.427</ele>
        <time>2019-05-04T10:19:11Z</time>
      </trkpt>
      <trkpt lat="48.231434" lon="15.334588">
        <ele>218.720</ele>
        <time>2019-05-04T10:19:12Z</time>
      </trkpt>
      <trkpt lat="48.231435" lon="15.334739">
        <ele>219.288</ele>
        <time>2019-05-04T10:19:14Z</time>
      </trkpt>
      <trkpt lat="48.231434" lon="15.334817">
        <ele>219.511</ele>
        <time>2019-05-04T10:19:15Z</time>
      </trkpt>
      <trkpt lat="48.231445" lon="15.335125">
        <ele>219.921</ele>
        <time>2019-05-04T10:19:19Z</time>
      </trkpt>
      <trkpt lat="48.231450" lon="15.335201">
        <ele>219.703</ele>
        <time>2019-05-04T10:19:20Z</time>
      </trkpt>
      <trkpt lat="48.231468" lon="15.335353">
        <ele>219.108</ele>
        <time>2019-05-04T10:19:22Z</time>
      </trkpt>
      <trkpt lat="48.231479" lon="15.335428">
        <ele>218.774</ele>
        <time>2019-05-04T10:19:23Z</time>
      </trkpt>
      <trkpt lat="48.231503" lon="15.335579">
        <ele>217.927</ele>
        <time>2019-05-04T10:19:25Z</time>
      </trkpt>
      <trkpt lat="48.231558" lon="15.335889">
        <ele>218.331</ele>
        <time>2019-05-04T10:19:29Z</time>
      </trkpt>
      <trkpt lat="48.231562" lon="15.335974">
        <ele>219.016</ele>
        <time>2019-05-04T10:19:30Z</time>
      </trkpt>
      <trkpt lat="48.231571" lon="15.336060">
        <ele>219.450</ele>
        <time>2019-05-04T10:19:31Z</time>
      </trkpt>
      <trkpt lat="48.231624" lon="15.336310">
        <ele>219.316</ele>
        <time>2019-05-04T10:19:34Z</time>
      </trkpt>
      <trkpt lat="48.231732" lon="15.336754">
        <ele>222.579</ele>
        <time>2019-05-04T10:19:40Z</time>
      </trkpt>
      <trkpt lat="48.231770" lon="15.336896">
        <ele>224.687</ele>
        <time>2019-05-04T10:19:42Z</time>
      </trkpt>
      <trkpt lat="48.231884" lon="15.337343">
        <ele>227.976</ele>
        <time>2019-05-04T10:19:48Z</time>
      </trkpt>
      <trkpt lat="48.231991" lon="15.337780">
        <ele>229.090</ele>
        <time>2019-05-04T10:19:54Z</time>
      </trkpt>
      <trkpt lat="48.232029" lon="15.337910">
        <ele>228.619</ele>
        <time>2019-05-04T10:19:56Z</time>
      </trkpt>
      <trkpt lat="48.232110" lon="15.338200">
        <ele>227.708</ele>
        <time>2019-05-04T10:20:01Z</time>
      </trkpt>
      <trkpt lat="48.232243" lon="15.338604">
        <ele>226.220</ele>
        <time>2019-05-04T10:20:08Z</time>
      </trkpt>
      <trkpt lat="48.232476" lon="15.339138">
        <ele>222.063</ele>
        <time>2019-05-04T10:20:17Z</time>
      </trkpt>
      <trkpt lat="48.232506" lon="15.339187">
        <ele>221.277</ele>
        <time>2019-05-04T10:20:18Z</time>
      </trkpt>
      <trkpt lat="48.232561" lon="15.339278">
        <ele>221.112</ele>
        <time>2019-05-04T10:20:20Z</time>
      </trkpt>
      <trkpt lat="48.232579" lon="15.339332">
        <ele>221.496</ele>
        <time>2019-05-04T10:20:21Z</time>
      </trkpt>
      <trkpt lat="48.232592" lon="15.339392">
        <ele>221.992</ele>
        <time>2019-05-04T10:20:22Z</time>
      </trkpt>
      <trkpt lat="48.232600" lon="15.339457">
        <ele>222.745</ele>
        <time>2019-05-04T10:20:23Z</time>
      </trkpt>
      <trkpt lat="48.232626" lon="15.339702">
        <ele>226.753</ele>
        <time>2019-05-04T10:20:27Z</time>
      </trkpt>
      <trkpt lat="48.232661" lon="15.339796">
        <ele>227.359</ele>
        <time>2019-05-04T10:20:29Z</time>
      </trkpt>
      <trkpt lat="48.232700" lon="15.339864">
        <ele>227.203</ele>
        <time>2019-05-04T10:20:31Z</time>
      </trkpt>
      <trkpt lat="48.232800" lon="15.340041">
        <ele>227.223</ele>
        <time>2019-05-04T10:20:37Z</time>
      </trkpt>
      <trkpt lat="48.232923" lon="15.340230">
        <ele>227.508</ele>
        <time>2019-05-04T10:20:43Z</time>
      </trkpt>
      <trkpt lat="48.233037" lon="15.340396">
        <ele>227.298</ele>
        <time>2019-05-04T10:20:47Z</time>
      </trkpt>
      <trkpt lat="48.233092" lon="15.340489">
        <ele>227.351</ele>
        <time>2019-05-04T10:20:49Z</time>
      </trkpt>
      <trkpt lat="48.233116" lon="15.340538">
        <ele>227.685</ele>
        <time>2019-05-04T10:20:50Z</time>
      </trkpt>
      <trkpt lat="48.233255" lon="15.340787">
        <ele>228.560</ele>
        <time>2019-05-04T10:20:55Z</time>
      </trkpt>
      <trkpt lat="48.233393" lon="15.341040">
        <ele>227.644</ele>
        <time>2019-05-04T10:21:00Z</time>
      </trkpt>
      <trkpt lat="48.233451" lon="15.341142">
        <ele>226.760</ele>
        <time>2019-05-04T10:21:02Z</time>
      </trkpt>
      <trkpt lat="48.233643" lon="15.341497">
        <ele>224.173</ele>
        <time>2019-05-04T10:21:09Z</time>
      </trkpt>
      <trkpt lat="48.233668" lon="15.341544">
        <ele>224.261</ele>
        <time>2019-05-04T10:21:10Z</time>
      </trkpt>
      <trkpt lat="48.233829" lon="15.341854">
        <ele>225.258</ele>
        <time>2019-05-04T10:21:16Z</time>
      </trkpt>
      <trkpt lat="48.233857" lon="15.341904">
        <ele>225.352</ele>
        <time>2019-05-04T10:21:17Z</time>
      </trkpt>
      <trkpt lat="48.233908" lon="15.342009">
        <ele>225.717</ele>
        <time>2019-05-04T10:21:19Z</time>
      </trkpt>
      <trkpt lat="48.233961" lon="15.342112">
        <ele>226.008</ele>
        <time>2019-05-04T10:21:21Z</time>
      </trkpt>
      <trkpt lat="48.234107" lon="15.342466">
        <ele>228.338</ele>
        <time>2019-05-04T10:21:27Z</time>
      </trkpt>
      <trkpt lat="48.234134" lon="15.342524">
        <ele>228.691</ele>
        <time>2019-05-04T10:21:28Z</time>
      </trkpt>
      <trkpt lat="48.234302" lon="15.342862">
        <ele>230.665</ele>
        <time>2019-05-04T10:21:34Z</time>
      </trkpt>
      <trkpt lat="48.234384" lon="15.343031">
        <ele>231.870</ele>
        <time>2019-05-04T10:21:37Z</time>
      </trkpt>
      <trkpt lat="48.234489" lon="15.343246">
        <ele>231.364</ele>
        <time>2019-05-04T10:21:41Z</time>
      </trkpt>
      <trkpt lat="48.234550" lon="15.343407">
        <ele>230.950</ele>
        <time>2019-05-04T10:21:44Z</time>
      </trkpt>
      <trkpt lat="48.234621" lon="15.343564">
        <ele>230.283</ele>
        <time>2019-05-04T10:21:47Z</time>
      </trkpt>
      <trkpt lat="48.234769" lon="15.343880">
        <ele>229.611</ele>
        <time>2019-05-04T10:21:53Z</time>
      </trkpt>
      <trkpt lat="48.234956" lon="15.344246">
        <ele>230.375</ele>
        <time>2019-05-04T10:22:00Z</time>
      </trkpt>
      <trkpt lat="48.235057" lon="15.344459">
        <ele>231.828</ele>
        <time>2019-05-04T10:22:04Z</time>
      </trkpt>
      <trkpt lat="48.235103" lon="15.344559">
        <ele>232.220</ele>
        <time>2019-05-04T10:22:06Z</time>
      </trkpt>
      <trkpt lat="48.235275" lon="15.344850">
        <ele>231.508</ele>
        <time>2019-05-04T10:22:12Z</time>
      </trkpt>
      <trkpt lat="48.235488" lon="15.345172">
        <ele>226.930</ele>
        <time>2019-05-04T10:22:19Z</time>
      </trkpt>
      <trkpt lat="48.235649" lon="15.345395">
        <ele>226.183</ele>
        <time>2019-05-04T10:22:24Z</time>
      </trkpt>
      <trkpt lat="48.235718" lon="15.345475">
        <ele>226.877</ele>
        <time>2019-05-04T10:22:26Z</time>
      </trkpt>
      <trkpt lat="48.235933" lon="15.345734">
        <ele>228.422</ele>
        <time>2019-05-04T10:22:32Z</time>
      </trkpt>
      <trkpt lat="48.236047" lon="15.345866">
        <ele>227.686</ele>
        <time>2019-05-04T10:22:35Z</time>
      </trkpt>
      <trkpt lat="48.236113" lon="15.345940">
        <ele>227.352</ele>
        <time>2019-05-04T10:22:37Z</time>
      </trkpt>
      <trkpt lat="48.236284" lon="15.346144">
        <ele>226.875</ele>
        <time>2019-05-04T10:22:42Z</time>
      </trkpt>
      <trkpt lat="48.236360" lon="15.346227">
        <ele>226.853</ele>
        <time>2019-05-04T10:22:44Z</time>
      </trkpt>
      <trkpt lat="48.236398" lon="15.346274">
        <ele>226.987</ele>
        <time>2019-05-04T10:22:45Z</time>
      </trkpt>
      <trkpt lat="48.236477" lon="15.346375">
        <ele>227.842</ele>
        <time>2019-05-04T10:22:47Z</time>
      </trkpt>
      <trkpt lat="48.236728" lon="15.346645">
        <ele>228.526</ele>
        <time>2019-05-04T10:22:53Z</time>
      </trkpt>
      <trkpt lat="48.237002" lon="15.346842">
        <ele>224.708</ele>
        <time>2019-05-04T10:22:59Z</time>
      </trkpt>
      <trkpt lat="48.237249" lon="15.347004">
        <ele>220.681</ele>
        <time>2019-05-04T10:23:05Z</time>
      </trkpt>
      <trkpt lat="48.237526" lon="15.347120">
        <ele>219.214</ele>
        <time>2019-05-04T10:23:11Z</time>
      </trkpt>
      <trkpt lat="48.237625" lon="15.347163">
        <ele>218.868</ele>
        <time>2019-05-04T10:23:13Z</time>
      </trkpt>
      <trkpt lat="48.237761" lon="15.347214">
        <ele>218.193</ele>
        <time>2019-05-04T10:23:16Z</time>
      </trkpt>
      <trkpt lat="48.237858" lon="15.347243">
        <ele>218.347</ele>
        <time>2019-05-04T10:23:18Z</time>
      </trkpt>
      <trkpt lat="48.237950" lon="15.347276">
        <ele>218.923</ele>
        <time>2019-05-04T10:23:20Z</time>
      </trkpt>
      <trkpt lat="48.237997" lon="15.347289">
        <ele>219.146</ele>
        <time>2019-05-04T10:23:21Z</time>
      </trkpt>
      <trkpt lat="48.238091" lon="15.347306">
        <ele>219.234</ele>
        <time>2019-05-04T10:23:23Z</time>
      </trkpt>
      <trkpt lat="48.238138" lon="15.347323">
        <ele>219.318</ele>
        <time>2019-05-04T10:23:24Z</time>
      </trkpt>
      <trkpt lat="48.238276" lon="15.347370">
        <ele>219.298</ele>
        <time>2019-05-04T10:23:27Z</time>
      </trkpt>
      <trkpt lat="48.238546" lon="15.347475">
        <ele>217.617</ele>
        <time>2019-05-04T10:23:33Z</time>
      </trkpt>
      <trkpt lat="48.238817" lon="15.347577">
        <ele>217.708</ele>
        <time>2019-05-04T10:23:39Z</time>
      </trkpt>
      <trkpt lat="48.239067" lon="15.347688">
        <ele>217.744</ele>
        <time>2019-05-04T10:23:45Z</time>
      </trkpt>
      <trkpt lat="48.239188" lon="15.347741">
        <ele>217.247</ele>
        <time>2019-05-04T10:23:48Z</time>
      </trkpt>
      <trkpt lat="48.239343" lon="15.347835">
        <ele>216.541</ele>
        <time>2019-05-04T10:23:52Z</time>
      </trkpt>
      <trkpt lat="48.239535" lon="15.348015">
        <ele>214.366</ele>
        <time>2019-05-04T10:23:58Z</time>
      </trkpt>
      <trkpt lat="48.239617" lon="15.348117">
        <ele>212.940</ele>
        <time>2019-05-04T10:24:02Z</time>
      </trkpt>
      <trkpt lat="48.239648" lon="15.348163">
        <ele>212.396</ele>
        <time>2019-05-04T10:24:04Z</time>
      </trkpt>
      <trkpt lat="48.239717" lon="15.348239">
        <ele>211.119</ele>
        <time>2019-05-04T10:24:08Z</time>
      </trkpt>
      <trkpt lat="48.239761" lon="15.348289">
        <ele>210.887</ele>
        <time>2019-05-04T10:24:11Z</time>
      </trkpt>
      <trkpt lat="48.239801" lon="15.348332">
        <ele>210.454</ele>
        <time>2019-05-04T10:24:15Z</time>
      </trkpt>
      <trkpt lat="48.239783" lon="15.348344">
        <ele>210.656</ele>
        <time>2019-05-04T10:24:17Z</time>
      </trkpt>
      <trkpt lat="48.239722" lon="15.348330">
        <ele>211.011</ele>
        <time>2019-05-04T10:24:20Z</time>
      </trkpt>
      <trkpt lat="48.239692" lon="15.348339">
        <ele>211.508</ele>
        <time>2019-05-04T10:24:21Z</time>
      </trkpt>
      <trkpt lat="48.239577" lon="15.348476">
        <ele>213.678</ele>
        <time>2019-05-04T10:24:25Z</time>
      </trkpt>
      <trkpt lat="48.239460" lon="15.348706">
        <ele>215.151</ele>
        <time>2019-05-04T10:24:30Z</time>
      </trkpt>
      <trkpt lat="48.239440" lon="15.348750">
        <ele>215.165</ele>
        <time>2019-05-04T10:24:31Z</time>
      </trkpt>
      <trkpt lat="48.239397" lon="15.348832">
        <ele>215.820</ele>
        <time>2019-05-04T10:24:33Z</time>
      </trkpt>
      <trkpt lat="48.239284" lon="15.349029">
        <ele>217.024</ele>
        <time>2019-05-04T10:24:38Z</time>
      </trkpt>
      <trkpt lat="48.239150" lon="15.349264">
        <ele>218.020</ele>
        <time>2019-05-04T10:24:44Z</time>
      </trkpt>
      <trkpt lat="48.239054" lon="15.349448">
        <ele>219.663</ele>
        <time>2019-05-04T10:24:49Z</time>
      </trkpt>
      <trkpt lat="48.239036" lon="15.349478">
        <ele>219.961</ele>
        <time>2019-05-04T10:24:50Z</time>
      </trkpt>
      <trkpt lat="48.238940" lon="15.349582">
        <ele>221.932</ele>
        <time>2019-05-04T10:24:54Z</time>
      </trkpt>
      <trkpt lat="48.238846" lon="15.349711">
        <ele>223.592</ele>
        <time>2019-05-04T10:24:59Z</time>
      </trkpt>
      <trkpt lat="48.238834" lon="15.349721">
        <ele>223.811</ele>
        <time>2019-05-04T10:25:00Z</time>
      </trkpt>
      <trkpt lat="48.238812" lon="15.349742">
        <ele>224.408</ele>
        <time>2019-05-04T10:25:04Z</time>
      </trkpt>
      <trkpt lat="48.238806" lon="15.349747">
        <ele>224.676</ele>
        <time>2019-05-04T10:25:05Z</time>
      </trkpt>
      <trkpt lat="48.238741" lon="15.349796">
        <ele>226.499</ele>
        <time>2019-05-04T10:25:15Z</time>
      </trkpt>
      <trkpt lat="48.238716" lon="15.349816">
        <ele>227.173</ele>
        <time>2019-05-04T10:25:22Z</time>
      </trkpt>
      <trkpt lat="48.238768" lon="15.349244">
        <ele>231.078</ele>
        <time>2019-05-04T10:27:07Z</time>
      </trkpt>
      <trkpt lat="48.238778" lon="15.349228">
        <ele>230.982</ele>
        <time>2019-05-04T10:27:08Z</time>
      </trkpt>
      <trkpt lat="48.238822" lon="15.349117">
        <ele>231.168</ele>
        <time>2019-05-04T10:27:14Z</time>
      </trkpt>
      <trkpt lat="48.238839" lon="15.349038">
        <ele>231.291</ele>
        <time>2019-05-04T10:27:18Z</time>
      </trkpt>
      <trkpt lat="48.238842" lon="15.348993">
        <ele>231.349</ele>
        <time>2019-05-04T10:27:20Z</time>
      </trkpt>
      <trkpt lat="48.238835" lon="15.348820">
        <ele>231.899</ele>
        <time>2019-05-04T10:27:28Z</time>
      </trkpt>
      <trkpt lat="48.238832" lon="15.348789">
        <ele>231.807</ele>
        <time>2019-05-04T10:27:29Z</time>
      </trkpt>
      <trkpt lat="48.238830" lon="15.348759">
        <ele>231.827</ele>
        <time>2019-05-04T10:27:30Z</time>
      </trkpt>
      <trkpt lat="48.238828" lon="15.348629">
        <ele>231.908</ele>
        <time>2019-05-04T10:27:35Z</time>
      </trkpt>
      <trkpt lat="48.238822" lon="15.348604">
        <ele>231.972</ele>
        <time>2019-05-04T10:27:36Z</time>
      </trkpt>
      <trkpt lat="48.238815" lon="15.348583">
        <ele>231.875</ele>
        <time>2019-05-04T10:27:39Z</time>
      </trkpt>
      <trkpt lat="48.238869" lon="15.348556">
        <ele>230.779</ele>
        <time>2019-05-04T10:28:05Z</time>
      </trkpt>
      <trkpt lat="48.238919" lon="15.348518">
        <ele>229.364</ele>
        <time>2019-05-04T10:28:07Z</time>
      </trkpt>
      <trkpt lat="48.238982" lon="15.348470">
        <ele>227.528</ele>
        <time>2019-05-04T10:28:09Z</time>
      </trkpt>
      <trkpt lat="48.239015" lon="15.348444">
        <ele>226.654</ele>
        <time>2019-05-04T10:28:10Z</time>
      </trkpt>
      <trkpt lat="48.239134" lon="15.348353">
        <ele>223.727</ele>
        <time>2019-05-04T10:28:13Z</time>
      </trkpt>
      <trkpt lat="48.239339" lon="15.348167">
        <ele>218.485</ele>
        <time>2019-05-04T10:28:18Z</time>
      </trkpt>
      <trkpt lat="48.239432" lon="15.348094">
        <ele>216.318</ele>
        <time>2019-05-04T10:28:20Z</time>
      </trkpt>
      <trkpt lat="48.239695" lon="15.347891">
        <ele>211.498</ele>
        <time>2019-05-04T10:28:25Z</time>
      </trkpt>
      <trkpt lat="48.240073" lon="15.347582">
        <ele>212.317</ele>
        <time>2019-05-04T10:28:32Z</time>
      </trkpt>
      <trkpt lat="48.240125" lon="15.347538">
        <ele>212.408</ele>
        <time>2019-05-04T10:28:33Z</time>
      </trkpt>
      <trkpt lat="48.240329" lon="15.347368">
        <ele>213.224</ele>
        <time>2019-05-04T10:28:37Z</time>
      </trkpt>
      <trkpt lat="48.240377" lon="15.347327">
        <ele>213.457</ele>
        <time>2019-05-04T10:28:38Z</time>
      </trkpt>
      <trkpt lat="48.240426" lon="15.347286">
        <ele>213.841</ele>
        <time>2019-05-04T10:28:39Z</time>
      </trkpt>
      <trkpt lat="48.240524" lon="15.347203">
        <ele>214.836</ele>
        <time>2019-05-04T10:28:41Z</time>
      </trkpt>
      <trkpt lat="48.240620" lon="15.347124">
        <ele>215.450</ele>
        <time>2019-05-04T10:28:43Z</time>
      </trkpt>
      <trkpt lat="48.240893" lon="15.346894">
        <ele>215.276</ele>
        <time>2019-05-04T10:28:49Z</time>
      </trkpt>
      <trkpt lat="48.241024" lon="15.346786">
        <ele>213.659</ele>
        <time>2019-05-04T10:28:52Z</time>
      </trkpt>
      <trkpt lat="48.241188" lon="15.346652">
        <ele>211.347</ele>
        <time>2019-05-04T10:28:56Z</time>
      </trkpt>
      <trkpt lat="48.241331" lon="15.346549">
        <ele>208.275</ele>
        <time>2019-05-04T10:29:00Z</time>
      </trkpt>
      <trkpt lat="48.241421" lon="15.346480">
        <ele>207.028</ele>
        <time>2019-05-04T10:29:03Z</time>
      </trkpt>
      <trkpt lat="48.241511" lon="15.346400">
        <ele>207.020</ele>
        <time>2019-05-04T10:29:06Z</time>
      </trkpt>
      <trkpt lat="48.241648" lon="15.346276">
        <ele>207.008</ele>
        <time>2019-05-04T10:29:10Z</time>
      </trkpt>
      <trkpt lat="48.241927" lon="15.346046">
        <ele>207.070</ele>
        <time>2019-05-04T10:29:17Z</time>
      </trkpt>
      <trkpt lat="48.241968" lon="15.346015">
        <ele>207.013</ele>
        <time>2019-05-04T10:29:18Z</time>
      </trkpt>
      <trkpt lat="48.242129" lon="15.345884">
        <ele>207.067</ele>
        <time>2019-05-04T10:29:22Z</time>
      </trkpt>
      <trkpt lat="48.242169" lon="15.345854">
        <ele>207.022</ele>
        <time>2019-05-04T10:29:23Z</time>
      </trkpt>
      <trkpt lat="48.242208" lon="15.345824">
        <ele>207.056</ele>
        <time>2019-05-04T10:29:24Z</time>
      </trkpt>
      <trkpt lat="48.242471" lon="15.345608">
        <ele>207.052</ele>
        <time>2019-05-04T10:29:31Z</time>
      </trkpt>
      <trkpt lat="48.242726" lon="15.345401">
        <ele>207.025</ele>
        <time>2019-05-04T10:29:38Z</time>
      </trkpt>
      <trkpt lat="48.243003" lon="15.345188">
        <ele>207.083</ele>
        <time>2019-05-04T10:29:45Z</time>
      </trkpt>
      <trkpt lat="48.243043" lon="15.345156">
        <ele>207.068</ele>
        <time>2019-05-04T10:29:46Z</time>
      </trkpt>
      <trkpt lat="48.243123" lon="15.345092">
        <ele>207.042</ele>
        <time>2019-05-04T10:29:48Z</time>
      </trkpt>
      <trkpt lat="48.243162" lon="15.345062">
        <ele>207.026</ele>
        <time>2019-05-04T10:29:49Z</time>
      </trkpt>
      <trkpt lat="48.243201" lon="15.345031">
        <ele>207.008</ele>
        <time>2019-05-04T10:29:50Z</time>
      </trkpt>
      <trkpt lat="48.243434" lon="15.344844">
        <ele>207.599</ele>
        <time>2019-05-04T10:29:56Z</time>
      </trkpt>
      <trkpt lat="48.243510" lon="15.344784">
        <ele>207.812</ele>
        <time>2019-05-04T10:29:58Z</time>
      </trkpt>
      <trkpt lat="48.243759" lon="15.344582">
        <ele>209.356</ele>
        <time>2019-05-04T10:30:05Z</time>
      </trkpt>
      <trkpt lat="48.243890" lon="15.344482">
        <ele>210.961</ele>
        <time>2019-05-04T10:30:09Z</time>
      </trkpt>
      <trkpt lat="48.243952" lon="15.344432">
        <ele>212.295</ele>
        <time>2019-05-04T10:30:11Z</time>
      </trkpt>
      <trkpt lat="48.243984" lon="15.344405">
        <ele>212.931</ele>
        <time>2019-05-04T10:30:12Z</time>
      </trkpt>
      <trkpt lat="48.244013" lon="15.344377">
        <ele>213.554</ele>
        <time>2019-05-04T10:30:13Z</time>
      </trkpt>
      <trkpt lat="48.244178" lon="15.344229">
        <ele>216.132</ele>
        <time>2019-05-04T10:30:19Z</time>
      </trkpt>
      <trkpt lat="48.244207" lon="15.344205">
        <ele>216.316</ele>
        <time>2019-05-04T10:30:20Z</time>
      </trkpt>
      <trkpt lat="48.244370" lon="15.344081">
        <ele>217.976</ele>
        <time>2019-05-04T10:30:25Z</time>
      </trkpt>
      <trkpt lat="48.244482" lon="15.343984">
        <ele>218.513</ele>
        <time>2019-05-04T10:30:28Z</time>
      </trkpt>
      <trkpt lat="48.244651" lon="15.343840">
        <ele>217.508</ele>
        <time>2019-05-04T10:30:32Z</time>
      </trkpt>
      <trkpt lat="48.244788" lon="15.343718">
        <ele>216.984</ele>
        <time>2019-05-04T10:30:35Z</time>
      </trkpt>
      <trkpt lat="48.244884" lon="15.343636">
        <ele>216.587</ele>
        <time>2019-05-04T10:30:37Z</time>
      </trkpt>
      <trkpt lat="48.244978" lon="15.343543">
        <ele>216.131</ele>
        <time>2019-05-04T10:30:39Z</time>
      </trkpt>
      <trkpt lat="48.245307" lon="15.343172">
        <ele>215.426</ele>
        <time>2019-05-04T10:30:46Z</time>
      </trkpt>
      <trkpt lat="48.245354" lon="15.343111">
        <ele>215.230</ele>
        <time>2019-05-04T10:30:47Z</time>
      </trkpt>
      <trkpt lat="48.245594" lon="15.342722">
        <ele>214.296</ele>
        <time>2019-05-04T10:30:53Z</time>
      </trkpt>
      <trkpt lat="48.245631" lon="15.342652">
        <ele>214.459</ele>
        <time>2019-05-04T10:30:54Z</time>
      </trkpt>
      <trkpt lat="48.245783" lon="15.342238">
        <ele>217.297</ele>
        <time>2019-05-04T10:30:59Z</time>
      </trkpt>
      <trkpt lat="48.245806" lon="15.342144">
        <ele>217.946</ele>
        <time>2019-05-04T10:31:00Z</time>
      </trkpt>
      <trkpt lat="48.245836" lon="15.341957">
        <ele>219.088</ele>
        <time>2019-05-04T10:31:02Z</time>
      </trkpt>
      <trkpt lat="48.245842" lon="15.341867">
        <ele>219.416</ele>
        <time>2019-05-04T10:31:03Z</time>
      </trkpt>
      <trkpt lat="48.245807" lon="15.341429">
        <ele>220.308</ele>
        <time>2019-05-04T10:31:08Z</time>
      </trkpt>
      <trkpt lat="48.245762" lon="15.341264">
        <ele>220.577</ele>
        <time>2019-05-04T10:31:10Z</time>
      </trkpt>
      <trkpt lat="48.245730" lon="15.341188">
        <ele>220.530</ele>
        <time>2019-05-04T10:31:11Z</time>
      </trkpt>
      <trkpt lat="48.245689" lon="15.341119">
        <ele>220.334</ele>
        <time>2019-05-04T10:31:12Z</time>
      </trkpt>
      <trkpt lat="48.245593" lon="15.340998">
        <ele>220.129</ele>
        <time>2019-05-04T10:31:14Z</time>
      </trkpt>
      <trkpt lat="48.245473" lon="15.340905">
        <ele>219.633</ele>
        <time>2019-05-04T10:31:16Z</time>
      </trkpt>
      <trkpt lat="48.245412" lon="15.340870">
        <ele>219.039</ele>
        <time>2019-05-04T10:31:17Z</time>
      </trkpt>
      <trkpt lat="48.245288" lon="15.340834">
        <ele>217.282</ele>
        <time>2019-05-04T10:31:19Z</time>
      </trkpt>
      <trkpt lat="48.245226" lon="15.340833">
        <ele>216.460</ele>
        <time>2019-05-04T10:31:20Z</time>
      </trkpt>
      <trkpt lat="48.245168" lon="15.340840">
        <ele>215.878</ele>
        <time>2019-05-04T10:31:21Z</time>
      </trkpt>
      <trkpt lat="48.245007" lon="15.340906">
        <ele>213.533</ele>
        <time>2019-05-04T10:31:24Z</time>
      </trkpt>
      <trkpt lat="48.244793" lon="15.341096">
        <ele>212.826</ele>
        <time>2019-05-04T10:31:29Z</time>
      </trkpt>
      <trkpt lat="48.244688" lon="15.341251">
        <ele>212.208</ele>
        <time>2019-05-04T10:31:32Z</time>
      </trkpt>
      <trkpt lat="48.244615" lon="15.341329">
        <ele>212.150</ele>
        <time>2019-05-04T10:31:34Z</time>
      </trkpt>
      <trkpt lat="48.244576" lon="15.341350">
        <ele>212.373</ele>
        <time>2019-05-04T10:31:35Z</time>
      </trkpt>
      <trkpt lat="48.244539" lon="15.341352">
        <ele>212.597</ele>
        <time>2019-05-04T10:31:36Z</time>
      </trkpt>
      <trkpt lat="48.244507" lon="15.341337">
        <ele>212.882</ele>
        <time>2019-05-04T10:31:37Z</time>
      </trkpt>
      <trkpt lat="48.244484" lon="15.341310">
        <ele>213.076</ele>
        <time>2019-05-04T10:31:38Z</time>
      </trkpt>
      <trkpt lat="48.244464" lon="15.341297">
        <ele>213.212</ele>
        <time>2019-05-04T10:31:39Z</time>
      </trkpt>
      <trkpt lat="48.244443" lon="15.341304">
        <ele>213.395</ele>
        <time>2019-05-04T10:31:41Z</time>
      </trkpt>
      <trkpt lat="48.244446" lon="15.341314">
        <ele>213.393</ele>
        <time>2019-05-04T10:31:44Z</time>
      </trkpt>
      <trkpt lat="48.244420" lon="15.341377">
        <ele>213.023</ele>
        <time>2019-05-04T10:33:09Z</time>
      </trkpt>
      <trkpt lat="48.244411" lon="15.341399">
        <ele>213.183</ele>
        <time>2019-05-04T10:33:10Z</time>
      </trkpt>
      <trkpt lat="48.244346" lon="15.341541">
        <ele>214.611</ele>
        <time>2019-05-04T10:33:15Z</time>
      </trkpt>
      <trkpt lat="48.244337" lon="15.341631">
        <ele>215.608</ele>
        <time>2019-05-04T10:33:17Z</time>
      </trkpt>
      <trkpt lat="48.244357" lon="15.341756">
        <ele>217.045</ele>
        <time>2019-05-04T10:33:20Z</time>
      </trkpt>
      <trkpt lat="48.244481" lon="15.341872">
        <ele>217.748</ele>
        <time>2019-05-04T10:33:25Z</time>
      </trkpt>
      <trkpt lat="48.244709" lon="15.341958">
        <ele>215.312</ele>
        <time>2019-05-04T10:33:31Z</time>
      </trkpt>
      <trkpt lat="48.244748" lon="15.341994">
        <ele>215.067</ele>
        <time>2019-05-04T10:33:32Z</time>
      </trkpt>
      <trkpt lat="48.244785" lon="15.342032">
        <ele>214.711</ele>
        <time>2019-05-04T10:33:33Z</time>
      </trkpt>
      <trkpt lat="48.244861" lon="15.342114">
        <ele>213.927</ele>
        <time>2019-05-04T10:33:35Z</time>
      </trkpt>
      <trkpt lat="48.244896" lon="15.342160">
        <ele>213.630</ele>
        <time>2019-05-04T10:33:36Z</time>
      </trkpt>
      <trkpt lat="48.244933" lon="15.342204">
        <ele>213.198</ele>
        <time>2019-05-04T10:33:37Z</time>
      </trkpt>
      <trkpt lat="48.245198" lon="15.342500">
        <ele>213.332</ele>
        <time>2019-05-04T10:33:44Z</time>
      </trkpt>
      <trkpt lat="48.245300" lon="15.342621">
        <ele>213.992</ele>
        <time>2019-05-04T10:33:47Z</time>
      </trkpt>
      <trkpt lat="48.245446" lon="15.342790">
        <ele>214.411</ele>
        <time>2019-05-04T10:33:51Z</time>
      </trkpt>
      <trkpt lat="48.245620" lon="15.342986">
        <ele>214.808</ele>
        <time>2019-05-04T10:33:56Z</time>
      </trkpt>
      <trkpt lat="48.245658" lon="15.343030">
        <ele>214.966</ele>
        <time>2019-05-04T10:33:57Z</time>
      </trkpt>
      <trkpt lat="48.245896" lon="15.343301">
        <ele>214.669</ele>
        <time>2019-05-04T10:34:03Z</time>
      </trkpt>
      <trkpt lat="48.246204" lon="15.343683">
        <ele>212.593</ele>
        <time>2019-05-04T10:34:11Z</time>
      </trkpt>
      <trkpt lat="48.246234" lon="15.343729">
        <ele>212.478</ele>
        <time>2019-05-04T10:34:12Z</time>
      </trkpt>
      <trkpt lat="48.246390" lon="15.343938">
        <ele>211.442</ele>
        <time>2019-05-04T10:34:17Z</time>
      </trkpt>
      <trkpt lat="48.246492" lon="15.344065">
        <ele>212.538</ele>
        <time>2019-05-04T10:34:20Z</time>
      </trkpt>
      <trkpt lat="48.246736" lon="15.344389">
        <ele>213.911</ele>
        <time>2019-05-04T10:34:27Z</time>
      </trkpt>
      <trkpt lat="48.246773" lon="15.344441">
        <ele>214.019</ele>
        <time>2019-05-04T10:34:28Z</time>
      </trkpt>
      <trkpt lat="48.247046" lon="15.344835">
        <ele>214.858</ele>
        <time>2019-05-04T10:34:35Z</time>
      </trkpt>
      <trkpt lat="48.247242" lon="15.345122">
        <ele>215.152</ele>
        <time>2019-05-04T10:34:40Z</time>
      </trkpt>
      <trkpt lat="48.247320" lon="15.345237">
        <ele>215.417</ele>
        <time>2019-05-04T10:34:42Z</time>
      </trkpt>
      <trkpt lat="48.247591" lon="15.345668">
        <ele>217.708</ele>
        <time>2019-05-04T10:34:49Z</time>
      </trkpt>
      <trkpt lat="48.247661" lon="15.345792">
        <ele>218.278</ele>
        <time>2019-05-04T10:34:51Z</time>
      </trkpt>
      <trkpt lat="48.247766" lon="15.345990">
        <ele>218.331</ele>
        <time>2019-05-04T10:34:54Z</time>
      </trkpt>
      <trkpt lat="48.248029" lon="15.346467">
        <ele>218.835</ele>
        <time>2019-05-04T10:35:01Z</time>
      </trkpt>
      <trkpt lat="48.248227" lon="15.346800">
        <ele>220.660</ele>
        <time>2019-05-04T10:35:06Z</time>
      </trkpt>
      <trkpt lat="48.248459" lon="15.347199">
        <ele>220.124</ele>
        <time>2019-05-04T10:35:12Z</time>
      </trkpt>
      <trkpt lat="48.248651" lon="15.347530">
        <ele>219.050</ele>
        <time>2019-05-04T10:35:17Z</time>
      </trkpt>
      <trkpt lat="48.248736" lon="15.347660">
        <ele>218.733</ele>
        <time>2019-05-04T10:35:19Z</time>
      </trkpt>
      <trkpt lat="48.248983" lon="15.348031">
        <ele>217.721</ele>
        <time>2019-05-04T10:35:25Z</time>
      </trkpt>
      <trkpt lat="48.249021" lon="15.348093">
        <ele>217.615</ele>
        <time>2019-05-04T10:35:26Z</time>
      </trkpt>
      <trkpt lat="48.249334" lon="15.348569">
        <ele>218.065</ele>
        <time>2019-05-04T10:35:34Z</time>
      </trkpt>
      <trkpt lat="48.249492" lon="15.348819">
        <ele>217.311</ele>
        <time>2019-05-04T10:35:38Z</time>
      </trkpt>
      <trkpt lat="48.249576" lon="15.348939">
        <ele>216.908</ele>
        <time>2019-05-04T10:35:40Z</time>
      </trkpt>
      <trkpt lat="48.249808" lon="15.349302">
        <ele>216.684</ele>
        <time>2019-05-04T10:35:46Z</time>
      </trkpt>
      <trkpt lat="48.250075" lon="15.349719">
        <ele>217.357</ele>
        <time>2019-05-04T10:35:53Z</time>
      </trkpt>
      <trkpt lat="48.250151" lon="15.349835">
        <ele>217.341</ele>
        <time>2019-05-04T10:35:55Z</time>
      </trkpt>
      <trkpt lat="48.250229" lon="15.349949">
        <ele>217.286</ele>
        <time>2019-05-04T10:35:57Z</time>
      </trkpt>
      <trkpt lat="48.250309" lon="15.350067">
        <ele>217.360</ele>
        <time>2019-05-04T10:35:59Z</time>
      </trkpt>
      <trkpt lat="48.250457" lon="15.350308">
        <ele>217.466</ele>
        <time>2019-05-04T10:36:03Z</time>
      </trkpt>
      <trkpt lat="48.250576" lon="15.350482">
        <ele>217.069</ele>
        <time>2019-05-04T10:36:06Z</time>
      </trkpt>
      <trkpt lat="48.250846" lon="15.350897">
        <ele>213.967</ele>
        <time>2019-05-04T10:36:13Z</time>
      </trkpt>
      <trkpt lat="48.250920" lon="15.351019">
        <ele>213.535</ele>
        <time>2019-05-04T10:36:15Z</time>
      </trkpt>
      <trkpt lat="48.251116" lon="15.351307">
        <ele>212.086</ele>
        <time>2019-05-04T10:36:20Z</time>
      </trkpt>
      <trkpt lat="48.251384" lon="15.351715">
        <ele>211.914</ele>
        <time>2019-05-04T10:36:27Z</time>
      </trkpt>
      <trkpt lat="48.251553" lon="15.351987">
        <ele>210.308</ele>
        <time>2019-05-04T10:36:32Z</time>
      </trkpt>
      <trkpt lat="48.251584" lon="15.352036">
        <ele>209.976</ele>
        <time>2019-05-04T10:36:33Z</time>
      </trkpt>
      <trkpt lat="48.251658" lon="15.352156">
        <ele>208.619</ele>
        <time>2019-05-04T10:36:36Z</time>
      </trkpt>
      <trkpt lat="48.251699" lon="15.352224">
        <ele>208.053</ele>
        <time>2019-05-04T10:36:38Z</time>
      </trkpt>
      <trkpt lat="48.251840" lon="15.352493">
        <ele>208.478</ele>
        <time>2019-05-04T10:36:44Z</time>
      </trkpt>
      <trkpt lat="48.252007" lon="15.352805">
        <ele>208.992</ele>
        <time>2019-05-04T10:36:50Z</time>
      </trkpt>
      <trkpt lat="48.252084" lon="15.352962">
        <ele>209.538</ele>
        <time>2019-05-04T10:36:53Z</time>
      </trkpt>
      <trkpt lat="48.252114" lon="15.353072">
        <ele>209.931</ele>
        <time>2019-05-04T10:36:55Z</time>
      </trkpt>
      <trkpt lat="48.252124" lon="15.353123">
        <ele>210.159</ele>
        <time>2019-05-04T10:36:56Z</time>
      </trkpt>
      <trkpt lat="48.252142" lon="15.353169">
        <ele>210.262</ele>
        <time>2019-05-04T10:36:57Z</time>
      </trkpt>
      <trkpt lat="48.252169" lon="15.353197">
        <ele>210.183</ele>
        <time>2019-05-04T10:36:58Z</time>
      </trkpt>
      <trkpt lat="48.252197" lon="15.353205">
        <ele>209.811</ele>
        <time>2019-05-04T10:36:59Z</time>
      </trkpt>
      <trkpt lat="48.252224" lon="15.353200">
        <ele>209.508</ele>
        <time>2019-05-04T10:37:00Z</time>
      </trkpt>
      <trkpt lat="48.252327" lon="15.353178">
        <ele>209.539</ele>
        <time>2019-05-04T10:37:04Z</time>
      </trkpt>
      <trkpt lat="48.252354" lon="15.353192">
        <ele>209.522</ele>
        <time>2019-05-04T10:37:05Z</time>
      </trkpt>
      <trkpt lat="48.252377" lon="15.353217">
        <ele>209.556</ele>
        <time>2019-05-04T10:37:06Z</time>
      </trkpt>
      <trkpt lat="48.252421" lon="15.353279">
        <ele>209.491</ele>
        <time>2019-05-04T10:37:08Z</time>
      </trkpt>
      <trkpt lat="48.252525" lon="15.353482">
        <ele>209.185</ele>
        <time>2019-05-04T10:37:13Z</time>
      </trkpt>
      <trkpt lat="48.252654" lon="15.353739">
        <ele>208.531</ele>
        <time>2019-05-04T10:37:19Z</time>
      </trkpt>
      <trkpt lat="48.252778" lon="15.354097">
        <ele>207.384</ele>
        <time>2019-05-04T10:37:26Z</time>
      </trkpt>
      <trkpt lat="48.252899" lon="15.354455">
        <ele>206.942</ele>
        <time>2019-05-04T10:37:33Z</time>
      </trkpt>
      <trkpt lat="48.252916" lon="15.354499">
        <ele>206.948</ele>
        <time>2019-05-04T10:37:34Z</time>
      </trkpt>
      <trkpt lat="48.253036" lon="15.354773">
        <ele>206.961</ele>
        <time>2019-05-04T10:37:40Z</time>
      </trkpt>
      <trkpt lat="48.253173" lon="15.354953">
        <ele>207.517</ele>
        <time>2019-05-04T10:37:45Z</time>
      </trkpt>
      <trkpt lat="48.253256" lon="15.355021">
        <ele>207.608</ele>
        <time>2019-05-04T10:37:48Z</time>
      </trkpt>
      <trkpt lat="48.253323" lon="15.355100">
        <ele>207.677</ele>
        <time>2019-05-04T10:37:51Z</time>
      </trkpt>
      <trkpt lat="48.253347" lon="15.355124">
        <ele>207.640</ele>
        <time>2019-05-04T10:37:52Z</time>
      </trkpt>
      <trkpt lat="48.253443" lon="15.355176">
        <ele>207.814</ele>
        <time>2019-05-04T10:37:55Z</time>
      </trkpt>
      <trkpt lat="48.253581" lon="15.355293">
        <ele>207.989</ele>
        <time>2019-05-04T10:38:00Z</time>
      </trkpt>
      <trkpt lat="48.253620" lon="15.355375">
        <ele>208.143</ele>
        <time>2019-05-04T10:38:03Z</time>
      </trkpt>
      <trkpt lat="48.253612" lon="15.355413">
        <ele>208.039</ele>
        <time>2019-05-04T10:38:04Z</time>
      </trkpt>
      <trkpt lat="48.253522" lon="15.355564">
        <ele>207.332</ele>
        <time>2019-05-04T10:38:08Z</time>
      </trkpt>
      <trkpt lat="48.253512" lon="15.355622">
        <ele>207.190</ele>
        <time>2019-05-04T10:38:09Z</time>
      </trkpt>
      <trkpt lat="48.253523" lon="15.355683">
        <ele>207.185</ele>
        <time>2019-05-04T10:38:10Z</time>
      </trkpt>
      <trkpt lat="48.253546" lon="15.355738">
        <ele>207.089</ele>
        <time>2019-05-04T10:38:11Z</time>
      </trkpt>
      <trkpt lat="48.253575" lon="15.355788">
        <ele>207.017</ele>
        <time>2019-05-04T10:38:12Z</time>
      </trkpt>
      <trkpt lat="48.253638" lon="15.355887">
        <ele>207.408</ele>
        <time>2019-05-04T10:38:14Z</time>
      </trkpt>
      <trkpt lat="48.253672" lon="15.355940">
        <ele>207.771</ele>
        <time>2019-05-04T10:38:15Z</time>
      </trkpt>
      <trkpt lat="48.253771" lon="15.356110">
        <ele>208.664</ele>
        <time>2019-05-04T10:38:18Z</time>
      </trkpt>
      <trkpt lat="48.253808" lon="15.356161">
        <ele>208.728</ele>
        <time>2019-05-04T10:38:19Z</time>
      </trkpt>
      <trkpt lat="48.253842" lon="15.356212">
        <ele>208.883</ele>
        <time>2019-05-04T10:38:20Z</time>
      </trkpt>
      <trkpt lat="48.253907" lon="15.356313">
        <ele>209.067</ele>
        <time>2019-05-04T10:38:22Z</time>
      </trkpt>
      <trkpt lat="48.254108" lon="15.356597">
        <ele>208.833</ele>
        <time>2019-05-04T10:38:28Z</time>
      </trkpt>
      <trkpt lat="48.254214" lon="15.356732">
        <ele>208.626</ele>
        <time>2019-05-04T10:38:31Z</time>
      </trkpt>
      <trkpt lat="48.254318" lon="15.356876">
        <ele>208.114</ele>
        <time>2019-05-04T10:38:34Z</time>
      </trkpt>
      <trkpt lat="48.254504" lon="15.357102">
        <ele>207.116</ele>
        <time>2019-05-04T10:38:39Z</time>
      </trkpt>
      <trkpt lat="48.254578" lon="15.357195">
        <ele>206.676</ele>
        <time>2019-05-04T10:38:41Z</time>
      </trkpt>
      <trkpt lat="48.254821" lon="15.357463">
        <ele>206.013</ele>
        <time>2019-05-04T10:38:47Z</time>
      </trkpt>
      <trkpt lat="48.254865" lon="15.357507">
        <ele>206.008</ele>
        <time>2019-05-04T10:38:48Z</time>
      </trkpt>
      <trkpt lat="48.255041" lon="15.357683">
        <ele>206.484</ele>
        <time>2019-05-04T10:38:52Z</time>
      </trkpt>
      <trkpt lat="48.255132" lon="15.357770">
        <ele>207.477</ele>
        <time>2019-05-04T10:38:54Z</time>
      </trkpt>
      <trkpt lat="48.255364" lon="15.357986">
        <ele>209.321</ele>
        <time>2019-05-04T10:38:59Z</time>
      </trkpt>
      <trkpt lat="48.255511" lon="15.358112">
        <ele>210.166</ele>
        <time>2019-05-04T10:39:02Z</time>
      </trkpt>
      <trkpt lat="48.255561" lon="15.358156">
        <ele>210.380</ele>
        <time>2019-05-04T10:39:03Z</time>
      </trkpt>
      <trkpt lat="48.255763" lon="15.358327">
        <ele>209.816</ele>
        <time>2019-05-04T10:39:07Z</time>
      </trkpt>
      <trkpt lat="48.255865" lon="15.358412">
        <ele>209.669</ele>
        <time>2019-05-04T10:39:09Z</time>
      </trkpt>
      <trkpt lat="48.256015" lon="15.358542">
        <ele>209.377</ele>
        <time>2019-05-04T10:39:12Z</time>
      </trkpt>
      <trkpt lat="48.256119" lon="15.358616">
        <ele>209.095</ele>
        <time>2019-05-04T10:39:14Z</time>
      </trkpt>
      <trkpt lat="48.256278" lon="15.358718">
        <ele>209.449</ele>
        <time>2019-05-04T10:39:17Z</time>
      </trkpt>
      <trkpt lat="48.256380" lon="15.358793">
        <ele>209.623</ele>
        <time>2019-05-04T10:39:19Z</time>
      </trkpt>
      <trkpt lat="48.256619" lon="15.358982">
        <ele>209.708</ele>
        <time>2019-05-04T10:39:24Z</time>
      </trkpt>
      <trkpt lat="48.256665" lon="15.359020">
        <ele>209.642</ele>
        <time>2019-05-04T10:39:25Z</time>
      </trkpt>
      <trkpt lat="48.256856" lon="15.359176">
        <ele>210.015</ele>
        <time>2019-05-04T10:39:29Z</time>
      </trkpt>
      <trkpt lat="48.256903" lon="15.359214">
        <ele>210.259</ele>
        <time>2019-05-04T10:39:30Z</time>
      </trkpt>
      <trkpt lat="48.256998" lon="15.359287">
        <ele>210.544</ele>
        <time>2019-05-04T10:39:32Z</time>
      </trkpt>
      <trkpt lat="48.257140" lon="15.359396">
        <ele>210.848</ele>
        <time>2019-05-04T10:39:35Z</time>
      </trkpt>
      <trkpt lat="48.257385" lon="15.359562">
        <ele>212.684</ele>
        <time>2019-05-04T10:39:40Z</time>
      </trkpt>
      <trkpt lat="48.257434" lon="15.359596">
        <ele>212.977</ele>
        <time>2019-05-04T10:39:41Z</time>
      </trkpt>
      <trkpt lat="48.257532" lon="15.359668">
        <ele>213.225</ele>
        <time>2019-05-04T10:39:43Z</time>
      </trkpt>
      <trkpt lat="48.257630" lon="15.359745">
        <ele>213.564</ele>
        <time>2019-05-04T10:39:45Z</time>
      </trkpt>
      <trkpt lat="48.257774" lon="15.359870">
        <ele>213.806</ele>
        <time>2019-05-04T10:39:48Z</time>
      </trkpt>
      <trkpt lat="48.257822" lon="15.359915">
        <ele>213.516</ele>
        <time>2019-05-04T10:39:49Z</time>
      </trkpt>
      <trkpt lat="48.257869" lon="15.359961">
        <ele>213.208</ele>
        <time>2019-05-04T10:39:50Z</time>
      </trkpt>
      <trkpt lat="48.257964" lon="15.360052">
        <ele>212.939</ele>
        <time>2019-05-04T10:39:52Z</time>
      </trkpt>
      <trkpt lat="48.258059" lon="15.360144">
        <ele>213.092</ele>
        <time>2019-05-04T10:39:54Z</time>
      </trkpt>
      <trkpt lat="48.258156" lon="15.360236">
        <ele>213.156</ele>
        <time>2019-05-04T10:39:56Z</time>
      </trkpt>
      <trkpt lat="48.258204" lon="15.360285">
        <ele>213.081</ele>
        <time>2019-05-04T10:39:57Z</time>
      </trkpt>
      <trkpt lat="48.258349" lon="15.360434">
        <ele>211.915</ele>
        <time>2019-05-04T10:40:00Z</time>
      </trkpt>
      <trkpt lat="48.258442" lon="15.360535">
        <ele>211.511</ele>
        <time>2019-05-04T10:40:02Z</time>
      </trkpt>
      <trkpt lat="48.258534" lon="15.360640">
        <ele>210.884</ele>
        <time>2019-05-04T10:40:04Z</time>
      </trkpt>
      <trkpt lat="48.258629" lon="15.360738">
        <ele>209.872</ele>
        <time>2019-05-04T10:40:06Z</time>
      </trkpt>
      <trkpt lat="48.258719" lon="15.360836">
        <ele>208.842</ele>
        <time>2019-05-04T10:40:08Z</time>
      </trkpt>
      <trkpt lat="48.258809" lon="15.360924">
        <ele>208.922</ele>
        <time>2019-05-04T10:40:10Z</time>
      </trkpt>
      <trkpt lat="48.258985" lon="15.361080">
        <ele>209.314</ele>
        <time>2019-05-04T10:40:14Z</time>
      </trkpt>
      <trkpt lat="48.259076" lon="15.361154">
        <ele>209.808</ele>
        <time>2019-05-04T10:40:16Z</time>
      </trkpt>
      <trkpt lat="48.259122" lon="15.361190">
        <ele>210.037</ele>
        <time>2019-05-04T10:40:17Z</time>
      </trkpt>
      <trkpt lat="48.259170" lon="15.361225">
        <ele>210.270</ele>
        <time>2019-05-04T10:40:18Z</time>
      </trkpt>
      <trkpt lat="48.259264" lon="15.361309">
        <ele>210.764</ele>
        <time>2019-05-04T10:40:20Z</time>
      </trkpt>
      <trkpt lat="48.259409" lon="15.361435">
        <ele>211.319</ele>
        <time>2019-05-04T10:40:23Z</time>
      </trkpt>
      <trkpt lat="48.259506" lon="15.361519">
        <ele>212.043</ele>
        <time>2019-05-04T10:40:25Z</time>
      </trkpt>
      <trkpt lat="48.259603" lon="15.361603">
        <ele>212.439</ele>
        <time>2019-05-04T10:40:27Z</time>
      </trkpt>
      <trkpt lat="48.259653" lon="15.361643">
        <ele>212.682</ele>
        <time>2019-05-04T10:40:28Z</time>
      </trkpt>
      <trkpt lat="48.259944" lon="15.361924">
        <ele>211.010</ele>
        <time>2019-05-04T10:40:34Z</time>
      </trkpt>
      <trkpt lat="48.260040" lon="15.362025">
        <ele>210.148</ele>
        <time>2019-05-04T10:40:36Z</time>
      </trkpt>
      <trkpt lat="48.260365" lon="15.362421">
        <ele>209.161</ele>
        <time>2019-05-04T10:40:43Z</time>
      </trkpt>
      <trkpt lat="48.260542" lon="15.362662">
        <ele>209.617</ele>
        <time>2019-05-04T10:40:47Z</time>
      </trkpt>
      <trkpt lat="48.260585" lon="15.362722">
        <ele>209.608</ele>
        <time>2019-05-04T10:40:48Z</time>
      </trkpt>
      <trkpt lat="48.260669" lon="15.362848">
        <ele>208.957</ele>
        <time>2019-05-04T10:40:50Z</time>
      </trkpt>
      <trkpt lat="48.260750" lon="15.362976">
        <ele>208.370</ele>
        <time>2019-05-04T10:40:52Z</time>
      </trkpt>
      <trkpt lat="48.260977" lon="15.363376">
        <ele>207.154</ele>
        <time>2019-05-04T10:40:58Z</time>
      </trkpt>
      <trkpt lat="48.261013" lon="15.363447">
        <ele>207.339</ele>
        <time>2019-05-04T10:40:59Z</time>
      </trkpt>
      <trkpt lat="48.261049" lon="15.363518">
        <ele>207.533</ele>
        <time>2019-05-04T10:41:00Z</time>
      </trkpt>
      <trkpt lat="48.261121" lon="15.363662">
        <ele>208.199</ele>
        <time>2019-05-04T10:41:02Z</time>
      </trkpt>
      <trkpt lat="48.261197" lon="15.363799">
        <ele>208.462</ele>
        <time>2019-05-04T10:41:04Z</time>
      </trkpt>
      <trkpt lat="48.261273" lon="15.363922">
        <ele>208.540</ele>
        <time>2019-05-04T10:41:06Z</time>
      </trkpt>
      <trkpt lat="48.261351" lon="15.364028">
        <ele>208.464</ele>
        <time>2019-05-04T10:41:08Z</time>
      </trkpt>
      <trkpt lat="48.261430" lon="15.364119">
        <ele>208.306</ele>
        <time>2019-05-04T10:41:10Z</time>
      </trkpt>
      <trkpt lat="48.261547" lon="15.364235">
        <ele>208.416</ele>
        <time>2019-05-04T10:41:13Z</time>
      </trkpt>
      <trkpt lat="48.261666" lon="15.364319">
        <ele>208.508</ele>
        <time>2019-05-04T10:41:16Z</time>
      </trkpt>
      <trkpt lat="48.261896" lon="15.364468">
        <ele>208.869</ele>
        <time>2019-05-04T10:41:22Z</time>
      </trkpt>
      <trkpt lat="48.262008" lon="15.364543">
        <ele>209.482</ele>
        <time>2019-05-04T10:41:25Z</time>
      </trkpt>
      <trkpt lat="48.262080" lon="15.364593">
        <ele>209.776</ele>
        <time>2019-05-04T10:41:27Z</time>
      </trkpt>
      <trkpt lat="48.262117" lon="15.364611">
        <ele>209.941</ele>
        <time>2019-05-04T10:41:28Z</time>
      </trkpt>
      <trkpt lat="48.262325" lon="15.364750">
        <ele>210.395</ele>
        <time>2019-05-04T10:41:34Z</time>
      </trkpt>
      <trkpt lat="48.262395" lon="15.364801">
        <ele>210.471</ele>
        <time>2019-05-04T10:41:36Z</time>
      </trkpt>
      <trkpt lat="48.262431" lon="15.364827">
        <ele>210.594</ele>
        <time>2019-05-04T10:41:37Z</time>
      </trkpt>
      <trkpt lat="48.262501" lon="15.364879">
        <ele>210.492</ele>
        <time>2019-05-04T10:41:39Z</time>
      </trkpt>
      <trkpt lat="48.262657" lon="15.365022">
        <ele>210.091</ele>
        <time>2019-05-04T10:41:44Z</time>
      </trkpt>
      <trkpt lat="48.262784" lon="15.365245">
        <ele>210.081</ele>
        <time>2019-05-04T10:41:49Z</time>
      </trkpt>
      <trkpt lat="48.262852" lon="15.365432">
        <ele>209.719</ele>
        <time>2019-05-04T10:41:52Z</time>
      </trkpt>
      <trkpt lat="48.262894" lon="15.365563">
        <ele>209.508</ele>
        <time>2019-05-04T10:41:54Z</time>
      </trkpt>
      <trkpt lat="48.263018" lon="15.365950">
        <ele>206.772</ele>
        <time>2019-05-04T10:42:00Z</time>
      </trkpt>
      <trkpt lat="48.263060" lon="15.366076">
        <ele>206.115</ele>
        <time>2019-05-04T10:42:02Z</time>
      </trkpt>
      <trkpt lat="48.263166" lon="15.366306">
        <ele>205.649</ele>
        <time>2019-05-04T10:42:06Z</time>
      </trkpt>
      <trkpt lat="48.263234" lon="15.366397">
        <ele>205.664</ele>
        <time>2019-05-04T10:42:08Z</time>
      </trkpt>
      <trkpt lat="48.263348" lon="15.366496">
        <ele>205.788</ele>
        <time>2019-05-04T10:42:11Z</time>
      </trkpt>
      <trkpt lat="48.263462" lon="15.366575">
        <ele>205.824</ele>
        <time>2019-05-04T10:42:14Z</time>
      </trkpt>
      <trkpt lat="48.263502" lon="15.366599">
        <ele>205.957</ele>
        <time>2019-05-04T10:42:15Z</time>
      </trkpt>
      <trkpt lat="48.263671" lon="15.366688">
        <ele>206.235</ele>
        <time>2019-05-04T10:42:19Z</time>
      </trkpt>
      <trkpt lat="48.263715" lon="15.366706">
        <ele>206.447</ele>
        <time>2019-05-04T10:42:20Z</time>
      </trkpt>
      <trkpt lat="48.263804" lon="15.366734">
        <ele>206.729</ele>
        <time>2019-05-04T10:42:22Z</time>
      </trkpt>
      <trkpt lat="48.263893" lon="15.366757">
        <ele>207.021</ele>
        <time>2019-05-04T10:42:24Z</time>
      </trkpt>
      <trkpt lat="48.263938" lon="15.366764">
        <ele>207.108</ele>
        <time>2019-05-04T10:42:25Z</time>
      </trkpt>
      <trkpt lat="48.264081" lon="15.366787">
        <ele>207.357</ele>
        <time>2019-05-04T10:42:28Z</time>
      </trkpt>
      <trkpt lat="48.264230" lon="15.366811">
        <ele>207.520</ele>
        <time>2019-05-04T10:42:31Z</time>
      </trkpt>
      <trkpt lat="48.264560" lon="15.366911">
        <ele>207.594</ele>
        <time>2019-05-04T10:42:38Z</time>
      </trkpt>
      <trkpt lat="48.264650" lon="15.366943">
        <ele>207.329</ele>
        <time>2019-05-04T10:42:40Z</time>
      </trkpt>
      <trkpt lat="48.264694" lon="15.366962">
        <ele>207.113</ele>
        <time>2019-05-04T10:42:41Z</time>
      </trkpt>
      <trkpt lat="48.264831" lon="15.367018">
        <ele>206.719</ele>
        <time>2019-05-04T10:42:44Z</time>
      </trkpt>
      <trkpt lat="48.265058" lon="15.367132">
        <ele>206.582</ele>
        <time>2019-05-04T10:42:49Z</time>
      </trkpt>
      <trkpt lat="48.265104" lon="15.367158">
        <ele>206.430</ele>
        <time>2019-05-04T10:42:50Z</time>
      </trkpt>
      <trkpt lat="48.265289" lon="15.367267">
        <ele>205.965</ele>
        <time>2019-05-04T10:42:54Z</time>
      </trkpt>
      <trkpt lat="48.265381" lon="15.367328">
        <ele>205.368</ele>
        <time>2019-05-04T10:42:56Z</time>
      </trkpt>
      <trkpt lat="48.265511" lon="15.367422">
        <ele>204.314</ele>
        <time>2019-05-04T10:42:59Z</time>
      </trkpt>
      <trkpt lat="48.265555" lon="15.367456">
        <ele>204.008</ele>
        <time>2019-05-04T10:43:00Z</time>
      </trkpt>
      <trkpt lat="48.265639" lon="15.367524">
        <ele>203.879</ele>
        <time>2019-05-04T10:43:02Z</time>
      </trkpt>
      <trkpt lat="48.265927" lon="15.367789">
        <ele>204.712</ele>
        <time>2019-05-04T10:43:09Z</time>
      </trkpt>
      <trkpt lat="48.266129" lon="15.367979">
        <ele>206.946</ele>
        <time>2019-05-04T10:43:14Z</time>
      </trkpt>
      <trkpt lat="48.266170" lon="15.368017">
        <ele>207.311</ele>
        <time>2019-05-04T10:43:15Z</time>
      </trkpt>
      <trkpt lat="48.266394" lon="15.368230">
        <ele>209.045</ele>
        <time>2019-05-04T10:43:21Z</time>
      </trkpt>
      <trkpt lat="48.266466" lon="15.368301">
        <ele>208.851</ele>
        <time>2019-05-04T10:43:23Z</time>
      </trkpt>
      <trkpt lat="48.266534" lon="15.368373">
        <ele>208.364</ele>
        <time>2019-05-04T10:43:25Z</time>
      </trkpt>
      <trkpt lat="48.266643" lon="15.368482">
        <ele>207.692</ele>
        <time>2019-05-04T10:43:28Z</time>
      </trkpt>
      <trkpt lat="48.266926" lon="15.368765">
        <ele>208.351</ele>
        <time>2019-05-04T10:43:35Z</time>
      </trkpt>
      <trkpt lat="48.267198" lon="15.369037">
        <ele>209.701</ele>
        <time>2019-05-04T10:43:41Z</time>
      </trkpt>
      <trkpt lat="48.267330" lon="15.369186">
        <ele>210.811</ele>
        <time>2019-05-04T10:43:44Z</time>
      </trkpt>
      <trkpt lat="48.267449" lon="15.369349">
        <ele>211.908</ele>
        <time>2019-05-04T10:43:47Z</time>
      </trkpt>
      <trkpt lat="48.267485" lon="15.369406">
        <ele>212.168</ele>
        <time>2019-05-04T10:43:48Z</time>
      </trkpt>
      <trkpt lat="48.267621" lon="15.369640">
        <ele>212.771</ele>
        <time>2019-05-04T10:43:52Z</time>
      </trkpt>
      <trkpt lat="48.267688" lon="15.369754">
        <ele>212.885</ele>
        <time>2019-05-04T10:43:54Z</time>
      </trkpt>
      <trkpt lat="48.267781" lon="15.369922">
        <ele>212.660</ele>
        <time>2019-05-04T10:43:57Z</time>
      </trkpt>
      <trkpt lat="48.267841" lon="15.370032">
        <ele>212.584</ele>
        <time>2019-05-04T10:43:59Z</time>
      </trkpt>
      <trkpt lat="48.267965" lon="15.370255">
        <ele>212.360</ele>
        <time>2019-05-04T10:44:03Z</time>
      </trkpt>
      <trkpt lat="48.267998" lon="15.370307">
        <ele>212.443</ele>
        <time>2019-05-04T10:44:04Z</time>
      </trkpt>
      <trkpt lat="48.268059" lon="15.370412">
        <ele>212.121</ele>
        <time>2019-05-04T10:44:06Z</time>
      </trkpt>
      <trkpt lat="48.268175" lon="15.370615">
        <ele>212.615</ele>
        <time>2019-05-04T10:44:10Z</time>
      </trkpt>
      <trkpt lat="48.268231" lon="15.370715">
        <ele>213.165</ele>
        <time>2019-05-04T10:44:12Z</time>
      </trkpt>
      <trkpt lat="48.268319" lon="15.370868">
        <ele>213.411</ele>
        <time>2019-05-04T10:44:15Z</time>
      </trkpt>
      <trkpt lat="48.268351" lon="15.370918">
        <ele>213.608</ele>
        <time>2019-05-04T10:44:16Z</time>
      </trkpt>
      <trkpt lat="48.268409" lon="15.371020">
        <ele>213.874</ele>
        <time>2019-05-04T10:44:18Z</time>
      </trkpt>
      <trkpt lat="48.268440" lon="15.371069">
        <ele>213.917</ele>
        <time>2019-05-04T10:44:19Z</time>
      </trkpt>
      <trkpt lat="48.268499" lon="15.371169">
        <ele>213.661</ele>
        <time>2019-05-04T10:44:21Z</time>
      </trkpt>
      <trkpt lat="48.268561" lon="15.371267">
        <ele>212.926</ele>
        <time>2019-05-04T10:44:23Z</time>
      </trkpt>
      <trkpt lat="48.268652" lon="15.371412">
        <ele>211.610</ele>
        <time>2019-05-04T10:44:26Z</time>
      </trkpt>
      <trkpt lat="48.268682" lon="15.371462">
        <ele>211.536</ele>
        <time>2019-05-04T10:44:27Z</time>
      </trkpt>
      <trkpt lat="48.268779" lon="15.371606">
        <ele>210.989</ele>
        <time>2019-05-04T10:44:30Z</time>
      </trkpt>
      <trkpt lat="48.268813" lon="15.371651">
        <ele>210.597</ele>
        <time>2019-05-04T10:44:31Z</time>
      </trkpt>
      <trkpt lat="48.268846" lon="15.371697">
        <ele>210.237</ele>
        <time>2019-05-04T10:44:32Z</time>
      </trkpt>
      <trkpt lat="48.268878" lon="15.371747">
        <ele>210.049</ele>
        <time>2019-05-04T10:44:33Z</time>
      </trkpt>
      <trkpt lat="48.269081" lon="15.372026">
        <ele>210.513</ele>
        <time>2019-05-04T10:44:39Z</time>
      </trkpt>
      <trkpt lat="48.269115" lon="15.372070">
        <ele>210.408</ele>
        <time>2019-05-04T10:44:40Z</time>
      </trkpt>
      <trkpt lat="48.269180" lon="15.372154">
        <ele>210.386</ele>
        <time>2019-05-04T10:44:42Z</time>
      </trkpt>
      <trkpt lat="48.269277" lon="15.372281">
        <ele>211.249</ele>
        <time>2019-05-04T10:44:45Z</time>
      </trkpt>
      <trkpt lat="48.269578" lon="15.372656">
        <ele>213.463</ele>
        <time>2019-05-04T10:44:54Z</time>
      </trkpt>
      <trkpt lat="48.269647" lon="15.372736">
        <ele>213.488</ele>
        <time>2019-05-04T10:44:56Z</time>
      </trkpt>
      <trkpt lat="48.269754" lon="15.372866">
        <ele>212.982</ele>
        <time>2019-05-04T10:44:59Z</time>
      </trkpt>
      <trkpt lat="48.269791" lon="15.372914">
        <ele>212.868</ele>
        <time>2019-05-04T10:45:00Z</time>
      </trkpt>
      <trkpt lat="48.269827" lon="15.372964">
        <ele>212.571</ele>
        <time>2019-05-04T10:45:01Z</time>
      </trkpt>
      <trkpt lat="48.269932" lon="15.373119">
        <ele>211.349</ele>
        <time>2019-05-04T10:45:04Z</time>
      </trkpt>
      <trkpt lat="48.269968" lon="15.373172">
        <ele>210.976</ele>
        <time>2019-05-04T10:45:05Z</time>
      </trkpt>
      <trkpt lat="48.270039" lon="15.373274">
        <ele>210.690</ele>
        <time>2019-05-04T10:45:07Z</time>
      </trkpt>
      <trkpt lat="48.270143" lon="15.373420">
        <ele>211.519</ele>
        <time>2019-05-04T10:45:10Z</time>
      </trkpt>
      <trkpt lat="48.270331" lon="15.373676">
        <ele>212.908</ele>
        <time>2019-05-04T10:45:15Z</time>
      </trkpt>
      <trkpt lat="48.270369" lon="15.373732">
        <ele>213.330</ele>
        <time>2019-05-04T10:45:16Z</time>
      </trkpt>
      <trkpt lat="48.270513" lon="15.373967">
        <ele>213.533</ele>
        <time>2019-05-04T10:45:20Z</time>
      </trkpt>
      <trkpt lat="48.270583" lon="15.374089">
        <ele>213.347</ele>
        <time>2019-05-04T10:45:22Z</time>
      </trkpt>
      <trkpt lat="48.270651" lon="15.374208">
        <ele>213.122</ele>
        <time>2019-05-04T10:45:24Z</time>
      </trkpt>
      <trkpt lat="48.270766" lon="15.374389">
        <ele>212.286</ele>
        <time>2019-05-04T10:45:27Z</time>
      </trkpt>
      <trkpt lat="48.270849" lon="15.374520">
        <ele>211.682</ele>
        <time>2019-05-04T10:45:29Z</time>
      </trkpt>
      <trkpt lat="48.270983" lon="15.374712">
        <ele>212.445</ele>
        <time>2019-05-04T10:45:32Z</time>
      </trkpt>
      <trkpt lat="48.271077" lon="15.374835">
        <ele>212.853</ele>
        <time>2019-05-04T10:45:34Z</time>
      </trkpt>
      <trkpt lat="48.271264" lon="15.375084">
        <ele>213.451</ele>
        <time>2019-05-04T10:45:38Z</time>
      </trkpt>
      <trkpt lat="48.271583" lon="15.375497">
        <ele>213.701</ele>
        <time>2019-05-04T10:45:45Z</time>
      </trkpt>
      <trkpt lat="48.271626" lon="15.375556">
        <ele>213.311</ele>
        <time>2019-05-04T10:45:46Z</time>
      </trkpt>
      <trkpt lat="48.271829" lon="15.375844">
        <ele>216.008</ele>
        <time>2019-05-04T10:45:51Z</time>
      </trkpt>
      <trkpt lat="48.271939" lon="15.375999">
        <ele>217.148</ele>
        <time>2019-05-04T10:45:54Z</time>
      </trkpt>
      <trkpt lat="48.272010" lon="15.376084">
        <ele>217.361</ele>
        <time>2019-05-04T10:45:56Z</time>
      </trkpt>
      <trkpt lat="48.272047" lon="15.376119">
        <ele>217.435</ele>
        <time>2019-05-04T10:45:57Z</time>
      </trkpt>
      <trkpt lat="48.272086" lon="15.376148">
        <ele>217.760</ele>
        <time>2019-05-04T10:45:58Z</time>
      </trkpt>
      <trkpt lat="48.272278" lon="15.376297">
        <ele>218.914</ele>
        <time>2019-05-04T10:46:03Z</time>
      </trkpt>
      <trkpt lat="48.272355" lon="15.376372">
        <ele>219.110</ele>
        <time>2019-05-04T10:46:05Z</time>
      </trkpt>
      <trkpt lat="48.272493" lon="15.376552">
        <ele>219.253</ele>
        <time>2019-05-04T10:46:09Z</time>
      </trkpt>
      <trkpt lat="48.272527" lon="15.376598">
        <ele>219.771</ele>
        <time>2019-05-04T10:46:10Z</time>
      </trkpt>
      <trkpt lat="48.272689" lon="15.376870">
        <ele>222.866</ele>
        <time>2019-05-04T10:46:15Z</time>
      </trkpt>
      <trkpt lat="48.272856" lon="15.377155">
        <ele>224.429</ele>
        <time>2019-05-04T10:46:20Z</time>
      </trkpt>
      <trkpt lat="48.273057" lon="15.377548">
        <ele>223.221</ele>
        <time>2019-05-04T10:46:26Z</time>
      </trkpt>
      <trkpt lat="48.273088" lon="15.377624">
        <ele>223.708</ele>
        <time>2019-05-04T10:46:27Z</time>
      </trkpt>
      <trkpt lat="48.273117" lon="15.377702">
        <ele>224.049</ele>
        <time>2019-05-04T10:46:28Z</time>
      </trkpt>
      <trkpt lat="48.273198" lon="15.377952">
        <ele>225.042</ele>
        <time>2019-05-04T10:46:31Z</time>
      </trkpt>
      <trkpt lat="48.273226" lon="15.378039">
        <ele>225.286</ele>
        <time>2019-05-04T10:46:32Z</time>
      </trkpt>
      <trkpt lat="48.273255" lon="15.378125">
        <ele>225.671</ele>
        <time>2019-05-04T10:46:33Z</time>
      </trkpt>
      <trkpt lat="48.273313" lon="15.378297">
        <ele>225.825</ele>
        <time>2019-05-04T10:46:35Z</time>
      </trkpt>
      <trkpt lat="48.273343" lon="15.378383">
        <ele>225.931</ele>
        <time>2019-05-04T10:46:36Z</time>
      </trkpt>
      <trkpt lat="48.273372" lon="15.378468">
        <ele>226.444</ele>
        <time>2019-05-04T10:46:37Z</time>
      </trkpt>
      <trkpt lat="48.273436" lon="15.378635">
        <ele>226.982</ele>
        <time>2019-05-04T10:46:39Z</time>
      </trkpt>
      <trkpt lat="48.273475" lon="15.378713">
        <ele>226.759</ele>
        <time>2019-05-04T10:46:40Z</time>
      </trkpt>
      <trkpt lat="48.273516" lon="15.378791">
        <ele>226.403</ele>
        <time>2019-05-04T10:46:41Z</time>
      </trkpt>
      <trkpt lat="48.273629" lon="15.379035">
        <ele>224.423</ele>
        <time>2019-05-04T10:46:44Z</time>
      </trkpt>
      <trkpt lat="48.273665" lon="15.379118">
        <ele>223.508</ele>
        <time>2019-05-04T10:46:45Z</time>
      </trkpt>
      <trkpt lat="48.273700" lon="15.379203">
        <ele>222.978</ele>
        <time>2019-05-04T10:46:46Z</time>
      </trkpt>
      <trkpt lat="48.273792" lon="15.379471">
        <ele>221.351</ele>
        <time>2019-05-04T10:46:49Z</time>
      </trkpt>
      <trkpt lat="48.273890" lon="15.379958">
        <ele>218.365</ele>
        <time>2019-05-04T10:46:54Z</time>
      </trkpt>
      <trkpt lat="48.273969" lon="15.380246">
        <ele>217.760</ele>
        <time>2019-05-04T10:46:57Z</time>
      </trkpt>
      <trkpt lat="48.273998" lon="15.380345">
        <ele>217.244</ele>
        <time>2019-05-04T10:46:58Z</time>
      </trkpt>
      <trkpt lat="48.274135" lon="15.380749">
        <ele>215.540</ele>
        <time>2019-05-04T10:47:02Z</time>
      </trkpt>
      <trkpt lat="48.274325" lon="15.381216">
        <ele>216.753</ele>
        <time>2019-05-04T10:47:07Z</time>
      </trkpt>
      <trkpt lat="48.274451" lon="15.381476">
        <ele>217.761</ele>
        <time>2019-05-04T10:47:10Z</time>
      </trkpt>
      <trkpt lat="48.274555" lon="15.381626">
        <ele>221.717</ele>
        <time>2019-05-04T10:47:12Z</time>
      </trkpt>
      <trkpt lat="48.274647" lon="15.381792">
        <ele>223.487</ele>
        <time>2019-05-04T10:47:14Z</time>
      </trkpt>
      <trkpt lat="48.274691" lon="15.381878">
        <ele>223.415</ele>
        <time>2019-05-04T10:47:15Z</time>
      </trkpt>
      <trkpt lat="48.274732" lon="15.381966">
        <ele>223.208</ele>
        <time>2019-05-04T10:47:16Z</time>
      </trkpt>
      <trkpt lat="48.274805" lon="15.382151">
        <ele>223.424</ele>
        <time>2019-05-04T10:47:18Z</time>
      </trkpt>
      <trkpt lat="48.274940" lon="15.382514">
        <ele>221.797</ele>
        <time>2019-05-04T10:47:22Z</time>
      </trkpt>
      <trkpt lat="48.275221" lon="15.383065">
        <ele>225.711</ele>
        <time>2019-05-04T10:47:29Z</time>
      </trkpt>
      <trkpt lat="48.275307" lon="15.383214">
        <ele>225.646</ele>
        <time>2019-05-04T10:47:31Z</time>
      </trkpt>
      <trkpt lat="48.275436" lon="15.383451">
        <ele>224.810</ele>
        <time>2019-05-04T10:47:34Z</time>
      </trkpt>
      <trkpt lat="48.275705" lon="15.383948">
        <ele>218.826</ele>
        <time>2019-05-04T10:47:40Z</time>
      </trkpt>
      <trkpt lat="48.275930" lon="15.384375">
        <ele>216.149</ele>
        <time>2019-05-04T10:47:45Z</time>
      </trkpt>
      <trkpt lat="48.276019" lon="15.384537">
        <ele>216.767</ele>
        <time>2019-05-04T10:47:47Z</time>
      </trkpt>
      <trkpt lat="48.276192" lon="15.384876">
        <ele>219.063</ele>
        <time>2019-05-04T10:47:51Z</time>
      </trkpt>
      <trkpt lat="48.276453" lon="15.385392">
        <ele>219.144</ele>
        <time>2019-05-04T10:47:57Z</time>
      </trkpt>
      <trkpt lat="48.276498" lon="15.385479">
        <ele>219.018</ele>
        <time>2019-05-04T10:47:58Z</time>
      </trkpt>
      <trkpt lat="48.276544" lon="15.385566">
        <ele>218.708</ele>
        <time>2019-05-04T10:47:59Z</time>
      </trkpt>
      <trkpt lat="48.276630" lon="15.385746">
        <ele>217.669</ele>
        <time>2019-05-04T10:48:01Z</time>
      </trkpt>
      <trkpt lat="48.276674" lon="15.385834">
        <ele>217.232</ele>
        <time>2019-05-04T10:48:02Z</time>
      </trkpt>
      <trkpt lat="48.276717" lon="15.385919">
        <ele>216.576</ele>
        <time>2019-05-04T10:48:03Z</time>
      </trkpt>
      <trkpt lat="48.276800" lon="15.386097">
        <ele>215.131</ele>
        <time>2019-05-04T10:48:05Z</time>
      </trkpt>
      <trkpt lat="48.276839" lon="15.386188">
        <ele>215.525</ele>
        <time>2019-05-04T10:48:06Z</time>
      </trkpt>
      <trkpt lat="48.276920" lon="15.386365">
        <ele>215.711</ele>
        <time>2019-05-04T10:48:08Z</time>
      </trkpt>
      <trkpt lat="48.276961" lon="15.386453">
        <ele>216.464</ele>
        <time>2019-05-04T10:48:09Z</time>
      </trkpt>
      <trkpt lat="48.277041" lon="15.386630">
        <ele>218.912</ele>
        <time>2019-05-04T10:48:11Z</time>
      </trkpt>
      <trkpt lat="48.277120" lon="15.386808">
        <ele>221.287</ele>
        <time>2019-05-04T10:48:13Z</time>
      </trkpt>
      <trkpt lat="48.277160" lon="15.386897">
        <ele>222.442</ele>
        <time>2019-05-04T10:48:14Z</time>
      </trkpt>
      <trkpt lat="48.277197" lon="15.386987">
        <ele>223.426</ele>
        <time>2019-05-04T10:48:15Z</time>
      </trkpt>
      <trkpt lat="48.277309" lon="15.387250">
        <ele>224.908</ele>
        <time>2019-05-04T10:48:18Z</time>
      </trkpt>
      <trkpt lat="48.277387" lon="15.387425">
        <ele>223.811</ele>
        <time>2019-05-04T10:48:20Z</time>
      </trkpt>
      <trkpt lat="48.277466" lon="15.387598">
        <ele>221.574</ele>
        <time>2019-05-04T10:48:22Z</time>
      </trkpt>
      <trkpt lat="48.277548" lon="15.387770">
        <ele>222.148</ele>
        <time>2019-05-04T10:48:24Z</time>
      </trkpt>
      <trkpt lat="48.277766" lon="15.388184">
        <ele>216.493</ele>
        <time>2019-05-04T10:48:29Z</time>
      </trkpt>
      <trkpt lat="48.277852" lon="15.388345">
        <ele>216.567</ele>
        <time>2019-05-04T10:48:31Z</time>
      </trkpt>
      <trkpt lat="48.278015" lon="15.388675">
        <ele>217.963</ele>
        <time>2019-05-04T10:48:35Z</time>
      </trkpt>
      <trkpt lat="48.278097" lon="15.388843">
        <ele>218.636</ele>
        <time>2019-05-04T10:48:37Z</time>
      </trkpt>
      <trkpt lat="48.278257" lon="15.389177">
        <ele>221.264</ele>
        <time>2019-05-04T10:48:41Z</time>
      </trkpt>
      <trkpt lat="48.278337" lon="15.389348">
        <ele>219.973</ele>
        <time>2019-05-04T10:48:43Z</time>
      </trkpt>
      <trkpt lat="48.278378" lon="15.389434">
        <ele>220.385</ele>
        <time>2019-05-04T10:48:44Z</time>
      </trkpt>
      <trkpt lat="48.278459" lon="15.389604">
        <ele>219.313</ele>
        <time>2019-05-04T10:48:46Z</time>
      </trkpt>
      <trkpt lat="48.278501" lon="15.389688">
        <ele>218.708</ele>
        <time>2019-05-04T10:48:47Z</time>
      </trkpt>
      <trkpt lat="48.278742" lon="15.390181">
        <ele>221.430</ele>
        <time>2019-05-04T10:48:53Z</time>
      </trkpt>
      <trkpt lat="48.278904" lon="15.390508">
        <ele>218.993</ele>
        <time>2019-05-04T10:48:57Z</time>
      </trkpt>
      <trkpt lat="48.278987" lon="15.390671">
        <ele>217.137</ele>
        <time>2019-05-04T10:48:59Z</time>
      </trkpt>
      <trkpt lat="48.279029" lon="15.390751">
        <ele>216.342</ele>
        <time>2019-05-04T10:49:00Z</time>
      </trkpt>
      <trkpt lat="48.279112" lon="15.390909">
        <ele>214.986</ele>
        <time>2019-05-04T10:49:02Z</time>
      </trkpt>
      <trkpt lat="48.279275" lon="15.391218">
        <ele>213.292</ele>
        <time>2019-05-04T10:49:06Z</time>
      </trkpt>
      <trkpt lat="48.279360" lon="15.391367">
        <ele>213.035</ele>
        <time>2019-05-04T10:49:08Z</time>
      </trkpt>
      <trkpt lat="48.279449" lon="15.391524">
        <ele>214.283</ele>
        <time>2019-05-04T10:49:10Z</time>
      </trkpt>
      <trkpt lat="48.279673" lon="15.391925">
        <ele>216.393</ele>
        <time>2019-05-04T10:49:15Z</time>
      </trkpt>
      <trkpt lat="48.279765" lon="15.392087">
        <ele>216.265</ele>
        <time>2019-05-04T10:49:17Z</time>
      </trkpt>
      <trkpt lat="48.279857" lon="15.392250">
        <ele>215.421</ele>
        <time>2019-05-04T10:49:19Z</time>
      </trkpt>
      <trkpt lat="48.280137" lon="15.392724">
        <ele>214.408</ele>
        <time>2019-05-04T10:49:25Z</time>
      </trkpt>
      <trkpt lat="48.280372" lon="15.393123">
        <ele>218.082</ele>
        <time>2019-05-04T10:49:30Z</time>
      </trkpt>
      <trkpt lat="48.280460" lon="15.393279">
        <ele>218.135</ele>
        <time>2019-05-04T10:49:32Z</time>
      </trkpt>
      <trkpt lat="48.280600" lon="15.393499">
        <ele>217.589</ele>
        <time>2019-05-04T10:49:35Z</time>
      </trkpt>
      <trkpt lat="48.280694" lon="15.393649">
        <ele>216.294</ele>
        <time>2019-05-04T10:49:37Z</time>
      </trkpt>
      <trkpt lat="48.280789" lon="15.393800">
        <ele>213.828</ele>
        <time>2019-05-04T10:49:39Z</time>
      </trkpt>
      <trkpt lat="48.281092" lon="15.394242">
        <ele>213.124</ele>
        <time>2019-05-04T10:49:45Z</time>
      </trkpt>
      <trkpt lat="48.281249" lon="15.394463">
        <ele>212.647</ele>
        <time>2019-05-04T10:49:48Z</time>
      </trkpt>
      <trkpt lat="48.281353" lon="15.394611">
        <ele>211.685</ele>
        <time>2019-05-04T10:49:50Z</time>
      </trkpt>
      <trkpt lat="48.281405" lon="15.394684">
        <ele>210.654</ele>
        <time>2019-05-04T10:49:51Z</time>
      </trkpt>
      <trkpt lat="48.281508" lon="15.394832">
        <ele>211.456</ele>
        <time>2019-05-04T10:49:53Z</time>
      </trkpt>
      <trkpt lat="48.281560" lon="15.394907">
        <ele>211.511</ele>
        <time>2019-05-04T10:49:54Z</time>
      </trkpt>
      <trkpt lat="48.281610" lon="15.394983">
        <ele>210.908</ele>
        <time>2019-05-04T10:49:55Z</time>
      </trkpt>
      <trkpt lat="48.281818" lon="15.395282">
        <ele>211.638</ele>
        <time>2019-05-04T10:49:59Z</time>
      </trkpt>
      <trkpt lat="48.281919" lon="15.395437">
        <ele>211.011</ele>
        <time>2019-05-04T10:50:01Z</time>
      </trkpt>
      <trkpt lat="48.282016" lon="15.395600">
        <ele>210.975</ele>
        <time>2019-05-04T10:50:03Z</time>
      </trkpt>
      <trkpt lat="48.282316" lon="15.396081">
        <ele>209.820</ele>
        <time>2019-05-04T10:50:09Z</time>
      </trkpt>
      <trkpt lat="48.282365" lon="15.396161">
        <ele>209.524</ele>
        <time>2019-05-04T10:50:10Z</time>
      </trkpt>
      <trkpt lat="48.282505" lon="15.396399">
        <ele>208.030</ele>
        <time>2019-05-04T10:50:13Z</time>
      </trkpt>
      <trkpt lat="48.282554" lon="15.396471">
        <ele>208.453</ele>
        <time>2019-05-04T10:50:14Z</time>
      </trkpt>
      <trkpt lat="48.282656" lon="15.396612">
        <ele>208.491</ele>
        <time>2019-05-04T10:50:16Z</time>
      </trkpt>
      <trkpt lat="48.282710" lon="15.396678">
        <ele>208.244</ele>
        <time>2019-05-04T10:50:17Z</time>
      </trkpt>
      <trkpt lat="48.282819" lon="15.396807">
        <ele>208.205</ele>
        <time>2019-05-04T10:50:19Z</time>
      </trkpt>
      <trkpt lat="48.282931" lon="15.396934">
        <ele>207.915</ele>
        <time>2019-05-04T10:50:21Z</time>
      </trkpt>
      <trkpt lat="48.282990" lon="15.396995">
        <ele>207.908</ele>
        <time>2019-05-04T10:50:22Z</time>
      </trkpt>
      <trkpt lat="48.283335" lon="15.397345">
        <ele>207.287</ele>
        <time>2019-05-04T10:50:28Z</time>
      </trkpt>
      <trkpt lat="48.283394" lon="15.397398">
        <ele>207.890</ele>
        <time>2019-05-04T10:50:29Z</time>
      </trkpt>
      <trkpt lat="48.283509" lon="15.397511">
        <ele>208.424</ele>
        <time>2019-05-04T10:50:31Z</time>
      </trkpt>
      <trkpt lat="48.283624" lon="15.397620">
        <ele>208.559</ele>
        <time>2019-05-04T10:50:33Z</time>
      </trkpt>
      <trkpt lat="48.283904" lon="15.397874">
        <ele>209.883</ele>
        <time>2019-05-04T10:50:38Z</time>
      </trkpt>
      <trkpt lat="48.284241" lon="15.398134">
        <ele>208.799</ele>
        <time>2019-05-04T10:50:44Z</time>
      </trkpt>
      <trkpt lat="48.284467" lon="15.398297">
        <ele>208.512</ele>
        <time>2019-05-04T10:50:48Z</time>
      </trkpt>
      <trkpt lat="48.284583" lon="15.398375">
        <ele>208.350</ele>
        <time>2019-05-04T10:50:50Z</time>
      </trkpt>
      <trkpt lat="48.284756" lon="15.398491">
        <ele>208.573</ele>
        <time>2019-05-04T10:50:53Z</time>
      </trkpt>
      <trkpt lat="48.284874" lon="15.398571">
        <ele>208.285</ele>
        <time>2019-05-04T10:50:55Z</time>
      </trkpt>
      <trkpt lat="48.284992" lon="15.398643">
        <ele>207.913</ele>
        <time>2019-05-04T10:50:57Z</time>
      </trkpt>
      <trkpt lat="48.285171" lon="15.398750">
        <ele>207.808</ele>
        <time>2019-05-04T10:51:00Z</time>
      </trkpt>
      <trkpt lat="48.285292" lon="15.398823">
        <ele>207.170</ele>
        <time>2019-05-04T10:51:02Z</time>
      </trkpt>
      <trkpt lat="48.285475" lon="15.398929">
        <ele>207.253</ele>
        <time>2019-05-04T10:51:05Z</time>
      </trkpt>
      <trkpt lat="48.285599" lon="15.399002">
        <ele>207.217</ele>
        <time>2019-05-04T10:51:07Z</time>
      </trkpt>
      <trkpt lat="48.285727" lon="15.399066">
        <ele>207.922</ele>
        <time>2019-05-04T10:51:09Z</time>
      </trkpt>
      <trkpt lat="48.286046" lon="15.399224">
        <ele>209.836</ele>
        <time>2019-05-04T10:51:14Z</time>
      </trkpt>
      <trkpt lat="48.286176" lon="15.399281">
        <ele>210.052</ele>
        <time>2019-05-04T10:51:16Z</time>
      </trkpt>
      <trkpt lat="48.286376" lon="15.399365">
        <ele>209.825</ele>
        <time>2019-05-04T10:51:19Z</time>
      </trkpt>
      <trkpt lat="48.286790" lon="15.399504">
        <ele>209.763</ele>
        <time>2019-05-04T10:51:25Z</time>
      </trkpt>
      <trkpt lat="48.287199" lon="15.399634">
        <ele>208.347</ele>
        <time>2019-05-04T10:51:31Z</time>
      </trkpt>
      <trkpt lat="48.287542" lon="15.399723">
        <ele>206.129</ele>
        <time>2019-05-04T10:51:36Z</time>
      </trkpt>
      <trkpt lat="48.287609" lon="15.399740">
        <ele>206.221</ele>
        <time>2019-05-04T10:51:37Z</time>
      </trkpt>
      <trkpt lat="48.287955" lon="15.399812">
        <ele>207.008</ele>
        <time>2019-05-04T10:51:42Z</time>
      </trkpt>
      <trkpt lat="48.288161" lon="15.399857">
        <ele>207.867</ele>
        <time>2019-05-04T10:51:45Z</time>
      </trkpt>
      <trkpt lat="48.288298" lon="15.399885">
        <ele>208.670</ele>
        <time>2019-05-04T10:51:47Z</time>
      </trkpt>
      <trkpt lat="48.288504" lon="15.399923">
        <ele>210.284</ele>
        <time>2019-05-04T10:51:50Z</time>
      </trkpt>
      <trkpt lat="48.288714" lon="15.399959">
        <ele>211.239</ele>
        <time>2019-05-04T10:51:53Z</time>
      </trkpt>
      <trkpt lat="48.289136" lon="15.400039">
        <ele>210.063</ele>
        <time>2019-05-04T10:51:59Z</time>
      </trkpt>
      <trkpt lat="48.289418" lon="15.400112">
        <ele>210.139</ele>
        <time>2019-05-04T10:52:03Z</time>
      </trkpt>
      <trkpt lat="48.289489" lon="15.400135">
        <ele>210.012</ele>
        <time>2019-05-04T10:52:04Z</time>
      </trkpt>
      <trkpt lat="48.289916" lon="15.400305">
        <ele>209.610</ele>
        <time>2019-05-04T10:52:10Z</time>
      </trkpt>
      <trkpt lat="48.290184" lon="15.400462">
        <ele>210.719</ele>
        <time>2019-05-04T10:52:14Z</time>
      </trkpt>
      <trkpt lat="48.290245" lon="15.400510">
        <ele>210.909</ele>
        <time>2019-05-04T10:52:15Z</time>
      </trkpt>
      <trkpt lat="48.290479" lon="15.400705">
        <ele>210.819</ele>
        <time>2019-05-04T10:52:19Z</time>
      </trkpt>
      <trkpt lat="48.290688" lon="15.400920">
        <ele>209.408</ele>
        <time>2019-05-04T10:52:23Z</time>
      </trkpt>
      <trkpt lat="48.290780" lon="15.401009">
        <ele>208.784</ele>
        <time>2019-05-04T10:52:25Z</time>
      </trkpt>
      <trkpt lat="48.290867" lon="15.401057">
        <ele>208.447</ele>
        <time>2019-05-04T10:52:27Z</time>
      </trkpt>
      <trkpt lat="48.290960" lon="15.401132">
        <ele>207.961</ele>
        <time>2019-05-04T10:52:30Z</time>
      </trkpt>
      <trkpt lat="48.290964" lon="15.401171">
        <ele>207.876</ele>
        <time>2019-05-04T10:52:31Z</time>
      </trkpt>
      <trkpt lat="48.290916" lon="15.401179">
        <ele>207.870</ele>
        <time>2019-05-04T10:52:34Z</time>
      </trkpt>
      <trkpt lat="48.290923" lon="15.401165">
        <ele>207.816</ele>
        <time>2019-05-04T10:52:35Z</time>
      </trkpt>
      <trkpt lat="48.290939" lon="15.401159">
        <ele>207.899</ele>
        <time>2019-05-04T10:52:36Z</time>
      </trkpt>
      <trkpt lat="48.290949" lon="15.401151">
        <ele>207.917</ele>
        <time>2019-05-04T10:52:37Z</time>
      </trkpt>
      <trkpt lat="48.290919" lon="15.401133">
        <ele>207.998</ele>
        <time>2019-05-04T10:52:42Z</time>
      </trkpt>
      <trkpt lat="48.290911" lon="15.401129">
        <ele>207.915</ele>
        <time>2019-05-04T10:52:44Z</time>
      </trkpt>
      <trkpt lat="48.290881" lon="15.401118">
        <ele>208.026</ele>
        <time>2019-05-04T11:15:20Z</time>
      </trkpt>
      <trkpt lat="48.290920" lon="15.401149">
        <ele>207.908</ele>
        <time>2019-05-04T11:15:22Z</time>
      </trkpt>
      <trkpt lat="48.291039" lon="15.401226">
        <ele>207.662</ele>
        <time>2019-05-04T11:15:27Z</time>
      </trkpt>
      <trkpt lat="48.291062" lon="15.401243">
        <ele>207.595</ele>
        <time>2019-05-04T11:15:28Z</time>
      </trkpt>
      <trkpt lat="48.291105" lon="15.401275">
        <ele>207.499</ele>
        <time>2019-05-04T11:15:30Z</time>
      </trkpt>
      <trkpt lat="48.291125" lon="15.401293">
        <ele>207.494</ele>
        <time>2019-05-04T11:15:31Z</time>
      </trkpt>
      <trkpt lat="48.291196" lon="15.401353">
        <ele>207.248</ele>
        <time>2019-05-04T11:15:34Z</time>
      </trkpt>
      <trkpt lat="48.291354" lon="15.401469">
        <ele>207.054</ele>
        <time>2019-05-04T11:15:40Z</time>
      </trkpt>
      <trkpt lat="48.291405" lon="15.401509">
        <ele>207.167</ele>
        <time>2019-05-04T11:15:42Z</time>
      </trkpt>
      <trkpt lat="48.291503" lon="15.401589">
        <ele>207.565</ele>
        <time>2019-05-04T11:15:46Z</time>
      </trkpt>
      <trkpt lat="48.291527" lon="15.401606">
        <ele>207.654</ele>
        <time>2019-05-04T11:15:47Z</time>
      </trkpt>
      <trkpt lat="48.291634" lon="15.401680">
        <ele>207.956</ele>
        <time>2019-05-04T11:15:51Z</time>
      </trkpt>
      <trkpt lat="48.291791" lon="15.401812">
        <ele>208.311</ele>
        <time>2019-05-04T11:15:57Z</time>
      </trkpt>
      <trkpt lat="48.291943" lon="15.401961">
        <ele>208.008</ele>
        <time>2019-05-04T11:16:03Z</time>
      </trkpt>
      <trkpt lat="48.292122" lon="15.402162">
        <ele>208.678</ele>
        <time>2019-05-04T11:16:10Z</time>
      </trkpt>
      <trkpt lat="48.292263" lon="15.402341">
        <ele>209.161</ele>
        <time>2019-05-04T11:16:16Z</time>
      </trkpt>
      <trkpt lat="48.292311" lon="15.402397">
        <ele>209.155</ele>
        <time>2019-05-04T11:16:18Z</time>
      </trkpt>
      <trkpt lat="48.292407" lon="15.402501">
        <ele>209.010</ele>
        <time>2019-05-04T11:16:22Z</time>
      </trkpt>
      <trkpt lat="48.292537" lon="15.402633">
        <ele>209.174</ele>
        <time>2019-05-04T11:16:27Z</time>
      </trkpt>
      <trkpt lat="48.292672" lon="15.402795">
        <ele>209.610</ele>
        <time>2019-05-04T11:16:33Z</time>
      </trkpt>
      <trkpt lat="48.292766" lon="15.402909">
        <ele>210.043</ele>
        <time>2019-05-04T11:16:38Z</time>
      </trkpt>
      <trkpt lat="48.292852" lon="15.403043">
        <ele>210.091</ele>
        <time>2019-05-04T11:16:42Z</time>
      </trkpt>
      <trkpt lat="48.292875" lon="15.403078">
        <ele>209.944</ele>
        <time>2019-05-04T11:16:43Z</time>
      </trkpt>
      <trkpt lat="48.293043" lon="15.403266">
        <ele>210.005</ele>
        <time>2019-05-04T11:16:49Z</time>
      </trkpt>
      <trkpt lat="48.293099" lon="15.403328">
        <ele>210.015</ele>
        <time>2019-05-04T11:16:51Z</time>
      </trkpt>
      <trkpt lat="48.293298" lon="15.403476">
        <ele>210.008</ele>
        <time>2019-05-04T11:16:57Z</time>
      </trkpt>
      <trkpt lat="48.293502" lon="15.403600">
        <ele>210.037</ele>
        <time>2019-05-04T11:17:03Z</time>
      </trkpt>
      <trkpt lat="48.293642" lon="15.403682">
        <ele>210.110</ele>
        <time>2019-05-04T11:17:08Z</time>
      </trkpt>
      <trkpt lat="48.293679" lon="15.403683">
        <ele>210.234</ele>
        <time>2019-05-04T11:17:09Z</time>
      </trkpt>
      <trkpt lat="48.293744" lon="15.403690">
        <ele>210.379</ele>
        <time>2019-05-04T11:17:11Z</time>
      </trkpt>
      <trkpt lat="48.293834" lon="15.403676">
        <ele>210.653</ele>
        <time>2019-05-04T11:17:14Z</time>
      </trkpt>
      <trkpt lat="48.293948" lon="15.403749">
        <ele>210.619</ele>
        <time>2019-05-04T11:17:19Z</time>
      </trkpt>
      <trkpt lat="48.294020" lon="15.403824">
        <ele>210.622</ele>
        <time>2019-05-04T11:17:22Z</time>
      </trkpt>
      <trkpt lat="48.294068" lon="15.403881">
        <ele>210.790</ele>
        <time>2019-05-04T11:17:24Z</time>
      </trkpt>
      <trkpt lat="48.294241" lon="15.404049">
        <ele>209.745</ele>
        <time>2019-05-04T11:17:30Z</time>
      </trkpt>
      <trkpt lat="48.294375" lon="15.404132">
        <ele>209.247</ele>
        <time>2019-05-04T11:17:34Z</time>
      </trkpt>
      <trkpt lat="48.294453" lon="15.404158">
        <ele>209.011</ele>
        <time>2019-05-04T11:17:36Z</time>
      </trkpt>
      <trkpt lat="48.294494" lon="15.404171">
        <ele>209.008</ele>
        <time>2019-05-04T11:17:37Z</time>
      </trkpt>
      <trkpt lat="48.294536" lon="15.404181">
        <ele>208.937</ele>
        <time>2019-05-04T11:17:38Z</time>
      </trkpt>
      <trkpt lat="48.294580" lon="15.404187">
        <ele>208.940</ele>
        <time>2019-05-04T11:17:39Z</time>
      </trkpt>
      <trkpt lat="48.294622" lon="15.404195">
        <ele>208.954</ele>
        <time>2019-05-04T11:17:40Z</time>
      </trkpt>
      <trkpt lat="48.294815" lon="15.404198">
        <ele>208.989</ele>
        <time>2019-05-04T11:17:45Z</time>
      </trkpt>
      <trkpt lat="48.294852" lon="15.404198">
        <ele>208.983</ele>
        <time>2019-05-04T11:17:46Z</time>
      </trkpt>
      <trkpt lat="48.294999" lon="15.404183">
        <ele>208.949</ele>
        <time>2019-05-04T11:17:50Z</time>
      </trkpt>
      <trkpt lat="48.295169" lon="15.404196">
        <ele>208.862</ele>
        <time>2019-05-04T11:17:55Z</time>
      </trkpt>
      <trkpt lat="48.295231" lon="15.404204">
        <ele>208.840</ele>
        <time>2019-05-04T11:17:57Z</time>
      </trkpt>
      <trkpt lat="48.295369" lon="15.404247">
        <ele>208.497</ele>
        <time>2019-05-04T11:18:01Z</time>
      </trkpt>
      <trkpt lat="48.295516" lon="15.404279">
        <ele>208.223</ele>
        <time>2019-05-04T11:18:05Z</time>
      </trkpt>
      <trkpt lat="48.295633" lon="15.404302">
        <ele>208.225</ele>
        <time>2019-05-04T11:18:08Z</time>
      </trkpt>
      <trkpt lat="48.295672" lon="15.404310">
        <ele>208.208</ele>
        <time>2019-05-04T11:18:09Z</time>
      </trkpt>
      <trkpt lat="48.295709" lon="15.404319">
        <ele>208.232</ele>
        <time>2019-05-04T11:18:10Z</time>
      </trkpt>
      <trkpt lat="48.295815" lon="15.404344">
        <ele>208.355</ele>
        <time>2019-05-04T11:18:13Z</time>
      </trkpt>
      <trkpt lat="48.295944" lon="15.404380">
        <ele>208.679</ele>
        <time>2019-05-04T11:18:17Z</time>
      </trkpt>
      <trkpt lat="48.296143" lon="15.404417">
        <ele>209.214</ele>
        <time>2019-05-04T11:18:23Z</time>
      </trkpt>
      <trkpt lat="48.296354" lon="15.404434">
        <ele>209.968</ele>
        <time>2019-05-04T11:18:29Z</time>
      </trkpt>
      <trkpt lat="48.296388" lon="15.404429">
        <ele>210.174</ele>
        <time>2019-05-04T11:18:30Z</time>
      </trkpt>
      <trkpt lat="48.296567" lon="15.404428">
        <ele>210.797</ele>
        <time>2019-05-04T11:18:35Z</time>
      </trkpt>
      <trkpt lat="48.296714" lon="15.404441">
        <ele>210.855</ele>
        <time>2019-05-04T11:18:39Z</time>
      </trkpt>
      <trkpt lat="48.296751" lon="15.404441">
        <ele>210.783</ele>
        <time>2019-05-04T11:18:40Z</time>
      </trkpt>
      <trkpt lat="48.296998" lon="15.404446">
        <ele>210.025</ele>
        <time>2019-05-04T11:18:47Z</time>
      </trkpt>
      <trkpt lat="48.297165" lon="15.404445">
        <ele>210.017</ele>
        <time>2019-05-04T11:18:52Z</time>
      </trkpt>
      <trkpt lat="48.297311" lon="15.404450">
        <ele>210.308</ele>
        <time>2019-05-04T11:18:56Z</time>
      </trkpt>
      <trkpt lat="48.297349" lon="15.404451">
        <ele>210.431</ele>
        <time>2019-05-04T11:18:57Z</time>
      </trkpt>
      <trkpt lat="48.297529" lon="15.404422">
        <ele>211.144</ele>
        <time>2019-05-04T11:19:02Z</time>
      </trkpt>
      <trkpt lat="48.297715" lon="15.404377">
        <ele>211.198</ele>
        <time>2019-05-04T11:19:07Z</time>
      </trkpt>
      <trkpt lat="48.297904" lon="15.404316">
        <ele>211.253</ele>
        <time>2019-05-04T11:19:12Z</time>
      </trkpt>
      <trkpt lat="48.298014" lon="15.404310">
        <ele>211.457</ele>
        <time>2019-05-04T11:19:15Z</time>
      </trkpt>
      <trkpt lat="48.298122" lon="15.404311">
        <ele>211.523</ele>
        <time>2019-05-04T11:19:18Z</time>
      </trkpt>
      <trkpt lat="48.298158" lon="15.404303">
        <ele>211.516</ele>
        <time>2019-05-04T11:19:19Z</time>
      </trkpt>
      <trkpt lat="48.298266" lon="15.404287">
        <ele>211.414</ele>
        <time>2019-05-04T11:19:22Z</time>
      </trkpt>
      <trkpt lat="48.298418" lon="15.404280">
        <ele>211.265</ele>
        <time>2019-05-04T11:19:26Z</time>
      </trkpt>
      <trkpt lat="48.298457" lon="15.404278">
        <ele>211.068</ele>
        <time>2019-05-04T11:19:27Z</time>
      </trkpt>
      <trkpt lat="48.298578" lon="15.404273">
        <ele>210.714</ele>
        <time>2019-05-04T11:19:30Z</time>
      </trkpt>
      <trkpt lat="48.298659" lon="15.404273">
        <ele>210.608</ele>
        <time>2019-05-04T11:19:32Z</time>
      </trkpt>
      <trkpt lat="48.298739" lon="15.404281">
        <ele>210.629</ele>
        <time>2019-05-04T11:19:34Z</time>
      </trkpt>
      <trkpt lat="48.298854" lon="15.404294">
        <ele>210.512</ele>
        <time>2019-05-04T11:19:37Z</time>
      </trkpt>
      <trkpt lat="48.299042" lon="15.404325">
        <ele>210.716</ele>
        <time>2019-05-04T11:19:42Z</time>
      </trkpt>
      <trkpt lat="48.299080" lon="15.404331">
        <ele>210.711</ele>
        <time>2019-05-04T11:19:43Z</time>
      </trkpt>
      <trkpt lat="48.299268" lon="15.404386">
        <ele>211.725</ele>
        <time>2019-05-04T11:19:48Z</time>
      </trkpt>
      <trkpt lat="48.299456" lon="15.404445">
        <ele>213.261</ele>
        <time>2019-05-04T11:19:53Z</time>
      </trkpt>
      <trkpt lat="48.299645" lon="15.404514">
        <ele>214.534</ele>
        <time>2019-05-04T11:19:58Z</time>
      </trkpt>
      <trkpt lat="48.299722" lon="15.404548">
        <ele>214.852</ele>
        <time>2019-05-04T11:20:00Z</time>
      </trkpt>
      <trkpt lat="48.299911" lon="15.404638">
        <ele>215.118</ele>
        <time>2019-05-04T11:20:05Z</time>
      </trkpt>
      <trkpt lat="48.300163" lon="15.404772">
        <ele>213.798</ele>
        <time>2019-05-04T11:20:12Z</time>
      </trkpt>
      <trkpt lat="48.300273" lon="15.404841">
        <ele>212.817</ele>
        <time>2019-05-04T11:20:15Z</time>
      </trkpt>
      <trkpt lat="48.300347" lon="15.404887">
        <ele>212.708</ele>
        <time>2019-05-04T11:20:17Z</time>
      </trkpt>
      <trkpt lat="48.300382" lon="15.404910">
        <ele>212.694</ele>
        <time>2019-05-04T11:20:18Z</time>
      </trkpt>
      <trkpt lat="48.300558" lon="15.405025">
        <ele>211.977</ele>
        <time>2019-05-04T11:20:23Z</time>
      </trkpt>
      <trkpt lat="48.300743" lon="15.405149">
        <ele>214.851</ele>
        <time>2019-05-04T11:20:28Z</time>
      </trkpt>
      <trkpt lat="48.300781" lon="15.405174">
        <ele>215.086</ele>
        <time>2019-05-04T11:20:29Z</time>
      </trkpt>
      <trkpt lat="48.300892" lon="15.405248">
        <ele>216.410</ele>
        <time>2019-05-04T11:20:32Z</time>
      </trkpt>
      <trkpt lat="48.300963" lon="15.405296">
        <ele>218.216</ele>
        <time>2019-05-04T11:20:34Z</time>
      </trkpt>
      <trkpt lat="48.300999" lon="15.405319">
        <ele>219.259</ele>
        <time>2019-05-04T11:20:35Z</time>
      </trkpt>
      <trkpt lat="48.301144" lon="15.405412">
        <ele>221.317</ele>
        <time>2019-05-04T11:20:39Z</time>
      </trkpt>
      <trkpt lat="48.301213" lon="15.405456">
        <ele>221.144</ele>
        <time>2019-05-04T11:20:41Z</time>
      </trkpt>
      <trkpt lat="48.301430" lon="15.405581">
        <ele>219.905</ele>
        <time>2019-05-04T11:20:47Z</time>
      </trkpt>
      <trkpt lat="48.301573" lon="15.405665">
        <ele>218.715</ele>
        <time>2019-05-04T11:20:51Z</time>
      </trkpt>
      <trkpt lat="48.301612" lon="15.405685">
        <ele>218.308</ele>
        <time>2019-05-04T11:20:52Z</time>
      </trkpt>
      <trkpt lat="48.301806" lon="15.405780">
        <ele>216.437</ele>
        <time>2019-05-04T11:20:57Z</time>
      </trkpt>
      <trkpt lat="48.301887" lon="15.405822">
        <ele>215.060</ele>
        <time>2019-05-04T11:20:59Z</time>
      </trkpt>
      <trkpt lat="48.301969" lon="15.405863">
        <ele>214.784</ele>
        <time>2019-05-04T11:21:01Z</time>
      </trkpt>
      <trkpt lat="48.302052" lon="15.405903">
        <ele>215.389</ele>
        <time>2019-05-04T11:21:03Z</time>
      </trkpt>
      <trkpt lat="48.302252" lon="15.405998">
        <ele>215.553</ele>
        <time>2019-05-04T11:21:08Z</time>
      </trkpt>
      <trkpt lat="48.302295" lon="15.406016">
        <ele>215.519</ele>
        <time>2019-05-04T11:21:09Z</time>
      </trkpt>
      <trkpt lat="48.302340" lon="15.406031">
        <ele>215.632</ele>
        <time>2019-05-04T11:21:10Z</time>
      </trkpt>
      <trkpt lat="48.302383" lon="15.406046">
        <ele>215.780</ele>
        <time>2019-05-04T11:21:11Z</time>
      </trkpt>
      <trkpt lat="48.302426" lon="15.406061">
        <ele>215.646</ele>
        <time>2019-05-04T11:21:12Z</time>
      </trkpt>
      <trkpt lat="48.302467" lon="15.406076">
        <ele>215.588</ele>
        <time>2019-05-04T11:21:13Z</time>
      </trkpt>
      <trkpt lat="48.302673" lon="15.406166">
        <ele>213.916</ele>
        <time>2019-05-04T11:21:18Z</time>
      </trkpt>
      <trkpt lat="48.302715" lon="15.406183">
        <ele>213.708</ele>
        <time>2019-05-04T11:21:19Z</time>
      </trkpt>
      <trkpt lat="48.303048" lon="15.406298">
        <ele>215.897</ele>
        <time>2019-05-04T11:21:27Z</time>
      </trkpt>
      <trkpt lat="48.303176" lon="15.406340">
        <ele>216.540</ele>
        <time>2019-05-04T11:21:30Z</time>
      </trkpt>
      <trkpt lat="48.303308" lon="15.406384">
        <ele>216.814</ele>
        <time>2019-05-04T11:21:33Z</time>
      </trkpt>
      <trkpt lat="48.303399" lon="15.406412">
        <ele>217.269</ele>
        <time>2019-05-04T11:21:35Z</time>
      </trkpt>
      <trkpt lat="48.303488" lon="15.406435">
        <ele>217.563</ele>
        <time>2019-05-04T11:21:37Z</time>
      </trkpt>
      <trkpt lat="48.303533" lon="15.406446">
        <ele>217.629</ele>
        <time>2019-05-04T11:21:38Z</time>
      </trkpt>
      <trkpt lat="48.303701" lon="15.406498">
        <ele>217.292</ele>
        <time>2019-05-04T11:21:42Z</time>
      </trkpt>
      <trkpt lat="48.303788" lon="15.406523">
        <ele>216.880</ele>
        <time>2019-05-04T11:21:44Z</time>
      </trkpt>
      <trkpt lat="48.303875" lon="15.406547">
        <ele>216.493</ele>
        <time>2019-05-04T11:21:46Z</time>
      </trkpt>
      <trkpt lat="48.303964" lon="15.406572">
        <ele>216.565</ele>
        <time>2019-05-04T11:21:48Z</time>
      </trkpt>
      <trkpt lat="48.304055" lon="15.406593">
        <ele>216.621</ele>
        <time>2019-05-04T11:21:50Z</time>
      </trkpt>
      <trkpt lat="48.304146" lon="15.406616">
        <ele>216.608</ele>
        <time>2019-05-04T11:21:52Z</time>
      </trkpt>
      <trkpt lat="48.304235" lon="15.406637">
        <ele>216.912</ele>
        <time>2019-05-04T11:21:54Z</time>
      </trkpt>
      <trkpt lat="48.304323" lon="15.406656">
        <ele>217.125</ele>
        <time>2019-05-04T11:21:56Z</time>
      </trkpt>
      <trkpt lat="48.304366" lon="15.406668">
        <ele>217.179</ele>
        <time>2019-05-04T11:21:57Z</time>
      </trkpt>
      <trkpt lat="48.304541" lon="15.406716">
        <ele>217.974</ele>
        <time>2019-05-04T11:22:01Z</time>
      </trkpt>
      <trkpt lat="48.304585" lon="15.406726">
        <ele>218.158</ele>
        <time>2019-05-04T11:22:02Z</time>
      </trkpt>
      <trkpt lat="48.304812" lon="15.406771">
        <ele>218.764</ele>
        <time>2019-05-04T11:22:07Z</time>
      </trkpt>
      <trkpt lat="48.304903" lon="15.406790">
        <ele>218.387</ele>
        <time>2019-05-04T11:22:09Z</time>
      </trkpt>
      <trkpt lat="48.304994" lon="15.406808">
        <ele>217.955</ele>
        <time>2019-05-04T11:22:11Z</time>
      </trkpt>
      <trkpt lat="48.305041" lon="15.406817">
        <ele>217.732</ele>
        <time>2019-05-04T11:22:12Z</time>
      </trkpt>
      <trkpt lat="48.305268" lon="15.406865">
        <ele>216.092</ele>
        <time>2019-05-04T11:22:17Z</time>
      </trkpt>
      <trkpt lat="48.305362" lon="15.406877">
        <ele>214.711</ele>
        <time>2019-05-04T11:22:19Z</time>
      </trkpt>
      <trkpt lat="48.305602" lon="15.406910">
        <ele>212.308</ele>
        <time>2019-05-04T11:22:24Z</time>
      </trkpt>
      <trkpt lat="48.305833" lon="15.406949">
        <ele>211.916</ele>
        <time>2019-05-04T11:22:29Z</time>
      </trkpt>
      <trkpt lat="48.305878" lon="15.406955">
        <ele>212.649</ele>
        <time>2019-05-04T11:22:30Z</time>
      </trkpt>
      <trkpt lat="48.305970" lon="15.406967">
        <ele>214.063</ele>
        <time>2019-05-04T11:22:32Z</time>
      </trkpt>
      <trkpt lat="48.306058" lon="15.406986">
        <ele>215.178</ele>
        <time>2019-05-04T11:22:34Z</time>
      </trkpt>
      <trkpt lat="48.306145" lon="15.407001">
        <ele>215.822</ele>
        <time>2019-05-04T11:22:36Z</time>
      </trkpt>
      <trkpt lat="48.306279" lon="15.407021">
        <ele>215.978</ele>
        <time>2019-05-04T11:22:39Z</time>
      </trkpt>
      <trkpt lat="48.306589" lon="15.407067">
        <ele>213.641</ele>
        <time>2019-05-04T11:22:46Z</time>
      </trkpt>
      <trkpt lat="48.306675" lon="15.407082">
        <ele>212.589</ele>
        <time>2019-05-04T11:22:48Z</time>
      </trkpt>
      <trkpt lat="48.306806" lon="15.407093">
        <ele>212.035</ele>
        <time>2019-05-04T11:22:51Z</time>
      </trkpt>
      <trkpt lat="48.306892" lon="15.407103">
        <ele>211.686</ele>
        <time>2019-05-04T11:22:53Z</time>
      </trkpt>
      <trkpt lat="48.306977" lon="15.407104">
        <ele>211.914</ele>
        <time>2019-05-04T11:22:55Z</time>
      </trkpt>
      <trkpt lat="48.307192" lon="15.407109">
        <ele>213.808</ele>
        <time>2019-05-04T11:23:00Z</time>
      </trkpt>
      <trkpt lat="48.307283" lon="15.407112">
        <ele>214.446</ele>
        <time>2019-05-04T11:23:02Z</time>
      </trkpt>
      <trkpt lat="48.307515" lon="15.407103">
        <ele>216.149</ele>
        <time>2019-05-04T11:23:07Z</time>
      </trkpt>
      <trkpt lat="48.307562" lon="15.407102">
        <ele>216.463</ele>
        <time>2019-05-04T11:23:08Z</time>
      </trkpt>
      <trkpt lat="48.307608" lon="15.407102">
        <ele>216.878</ele>
        <time>2019-05-04T11:23:09Z</time>
      </trkpt>
      <trkpt lat="48.307755" lon="15.407093">
        <ele>218.092</ele>
        <time>2019-05-04T11:23:12Z</time>
      </trkpt>
      <trkpt lat="48.307804" lon="15.407091">
        <ele>218.278</ele>
        <time>2019-05-04T11:23:13Z</time>
      </trkpt>
      <trkpt lat="48.307854" lon="15.407090">
        <ele>218.041</ele>
        <time>2019-05-04T11:23:14Z</time>
      </trkpt>
      <trkpt lat="48.308041" lon="15.407080">
        <ele>217.769</ele>
        <time>2019-05-04T11:23:18Z</time>
      </trkpt>
      <trkpt lat="48.308210" lon="15.407062">
        <ele>217.436</ele>
        <time>2019-05-04T11:23:22Z</time>
      </trkpt>
      <trkpt lat="48.308250" lon="15.407060">
        <ele>217.317</ele>
        <time>2019-05-04T11:23:23Z</time>
      </trkpt>
      <trkpt lat="48.308426" lon="15.407048">
        <ele>216.718</ele>
        <time>2019-05-04T11:23:27Z</time>
      </trkpt>
      <trkpt lat="48.308669" lon="15.407029">
        <ele>216.408</ele>
        <time>2019-05-04T11:23:32Z</time>
      </trkpt>
      <trkpt lat="48.308718" lon="15.407024">
        <ele>216.676</ele>
        <time>2019-05-04T11:23:33Z</time>
      </trkpt>
      <trkpt lat="48.308816" lon="15.407021">
        <ele>216.919</ele>
        <time>2019-05-04T11:23:35Z</time>
      </trkpt>
      <trkpt lat="48.308963" lon="15.407016">
        <ele>216.813</ele>
        <time>2019-05-04T11:23:38Z</time>
      </trkpt>
      <trkpt lat="48.309113" lon="15.407010">
        <ele>216.158</ele>
        <time>2019-05-04T11:23:41Z</time>
      </trkpt>
      <trkpt lat="48.309214" lon="15.407011">
        <ele>216.082</ele>
        <time>2019-05-04T11:23:43Z</time>
      </trkpt>
      <trkpt lat="48.309318" lon="15.407009">
        <ele>216.538</ele>
        <time>2019-05-04T11:23:45Z</time>
      </trkpt>
      <trkpt lat="48.309469" lon="15.407011">
        <ele>217.041</ele>
        <time>2019-05-04T11:23:48Z</time>
      </trkpt>
      <trkpt lat="48.309668" lon="15.407014">
        <ele>216.469</ele>
        <time>2019-05-04T11:23:52Z</time>
      </trkpt>
      <trkpt lat="48.309769" lon="15.407014">
        <ele>216.617</ele>
        <time>2019-05-04T11:23:54Z</time>
      </trkpt>
      <trkpt lat="48.309922" lon="15.407027">
        <ele>217.487</ele>
        <time>2019-05-04T11:23:57Z</time>
      </trkpt>
      <trkpt lat="48.310020" lon="15.407029">
        <ele>217.915</ele>
        <time>2019-05-04T11:23:59Z</time>
      </trkpt>
      <trkpt lat="48.310116" lon="15.407030">
        <ele>218.308</ele>
        <time>2019-05-04T11:24:01Z</time>
      </trkpt>
      <trkpt lat="48.310162" lon="15.407039">
        <ele>218.234</ele>
        <time>2019-05-04T11:24:02Z</time>
      </trkpt>
      <trkpt lat="48.310209" lon="15.407044">
        <ele>218.277</ele>
        <time>2019-05-04T11:24:03Z</time>
      </trkpt>
      <trkpt lat="48.310309" lon="15.407048">
        <ele>218.651</ele>
        <time>2019-05-04T11:24:05Z</time>
      </trkpt>
      <trkpt lat="48.310361" lon="15.407052">
        <ele>218.866</ele>
        <time>2019-05-04T11:24:06Z</time>
      </trkpt>
      <trkpt lat="48.310413" lon="15.407059">
        <ele>218.920</ele>
        <time>2019-05-04T11:24:07Z</time>
      </trkpt>
      <trkpt lat="48.310466" lon="15.407065">
        <ele>219.046</ele>
        <time>2019-05-04T11:24:08Z</time>
      </trkpt>
      <trkpt lat="48.310519" lon="15.407072">
        <ele>219.129</ele>
        <time>2019-05-04T11:24:09Z</time>
      </trkpt>
      <trkpt lat="48.310625" lon="15.407089">
        <ele>219.797</ele>
        <time>2019-05-04T11:24:11Z</time>
      </trkpt>
      <trkpt lat="48.310785" lon="15.407115">
        <ele>221.116</ele>
        <time>2019-05-04T11:24:14Z</time>
      </trkpt>
      <trkpt lat="48.310893" lon="15.407131">
        <ele>221.476</ele>
        <time>2019-05-04T11:24:16Z</time>
      </trkpt>
      <trkpt lat="48.310947" lon="15.407141">
        <ele>221.313</ele>
        <time>2019-05-04T11:24:17Z</time>
      </trkpt>
      <trkpt lat="48.311002" lon="15.407152">
        <ele>221.208</ele>
        <time>2019-05-04T11:24:18Z</time>
      </trkpt>
      <trkpt lat="48.311113" lon="15.407177">
        <ele>221.014</ele>
        <time>2019-05-04T11:24:20Z</time>
      </trkpt>
      <trkpt lat="48.311169" lon="15.407193">
        <ele>220.357</ele>
        <time>2019-05-04T11:24:21Z</time>
      </trkpt>
      <trkpt lat="48.311225" lon="15.407201">
        <ele>219.791</ele>
        <time>2019-05-04T11:24:22Z</time>
      </trkpt>
      <trkpt lat="48.311389" lon="15.407239">
        <ele>217.696</ele>
        <time>2019-05-04T11:24:25Z</time>
      </trkpt>
      <trkpt lat="48.311444" lon="15.407251">
        <ele>217.570</ele>
        <time>2019-05-04T11:24:26Z</time>
      </trkpt>
      <trkpt lat="48.311659" lon="15.407311">
        <ele>216.786</ele>
        <time>2019-05-04T11:24:30Z</time>
      </trkpt>
      <trkpt lat="48.311823" lon="15.407355">
        <ele>217.979</ele>
        <time>2019-05-04T11:24:33Z</time>
      </trkpt>
      <trkpt lat="48.311932" lon="15.407390">
        <ele>218.697</ele>
        <time>2019-05-04T11:24:35Z</time>
      </trkpt>
      <trkpt lat="48.311987" lon="15.407404">
        <ele>218.621</ele>
        <time>2019-05-04T11:24:36Z</time>
      </trkpt>
      <trkpt lat="48.312154" lon="15.407454">
        <ele>217.941</ele>
        <time>2019-05-04T11:24:39Z</time>
      </trkpt>
      <trkpt lat="48.312211" lon="15.407473">
        <ele>217.605</ele>
        <time>2019-05-04T11:24:40Z</time>
      </trkpt>
      <trkpt lat="48.312327" lon="15.407509">
        <ele>216.808</ele>
        <time>2019-05-04T11:24:42Z</time>
      </trkpt>
      <trkpt lat="48.312442" lon="15.407546">
        <ele>215.945</ele>
        <time>2019-05-04T11:24:44Z</time>
      </trkpt>
      <trkpt lat="48.312499" lon="15.407561">
        <ele>215.598</ele>
        <time>2019-05-04T11:24:45Z</time>
      </trkpt>
      <trkpt lat="48.312660" lon="15.407600">
        <ele>214.182</ele>
        <time>2019-05-04T11:24:48Z</time>
      </trkpt>
      <trkpt lat="48.312766" lon="15.407598">
        <ele>213.937</ele>
        <time>2019-05-04T11:24:50Z</time>
      </trkpt>
      <trkpt lat="48.312811" lon="15.407585">
        <ele>214.341</ele>
        <time>2019-05-04T11:24:51Z</time>
      </trkpt>
      <trkpt lat="48.312909" lon="15.407551">
        <ele>215.447</ele>
        <time>2019-05-04T11:24:54Z</time>
      </trkpt>
      <trkpt lat="48.312931" lon="15.407543">
        <ele>215.760</ele>
        <time>2019-05-04T11:24:55Z</time>
      </trkpt>
      <trkpt lat="48.313050" lon="15.407481">
        <ele>217.728</ele>
        <time>2019-05-04T11:25:00Z</time>
      </trkpt>
      <trkpt lat="48.313092" lon="15.407471">
        <ele>218.131</ele>
        <time>2019-05-04T11:25:02Z</time>
      </trkpt>
      <trkpt lat="48.313172" lon="15.407471">
        <ele>218.161</ele>
        <time>2019-05-04T11:25:06Z</time>
      </trkpt>
      <trkpt lat="48.313207" lon="15.407472">
        <ele>218.107</ele>
        <time>2019-05-04T11:25:08Z</time>
      </trkpt>
      <trkpt lat="48.313258" lon="15.407454">
        <ele>218.808</ele>
        <time>2019-05-04T11:25:11Z</time>
      </trkpt>
      <trkpt lat="48.313371" lon="15.407416">
        <ele>220.036</ele>
        <time>2019-05-04T11:25:16Z</time>
      </trkpt>
      <trkpt lat="48.313503" lon="15.407378">
        <ele>220.119</ele>
        <time>2019-05-04T11:25:21Z</time>
      </trkpt>
      <trkpt lat="48.313633" lon="15.407321">
        <ele>220.673</ele>
        <time>2019-05-04T11:25:26Z</time>
      </trkpt>
      <trkpt lat="48.313745" lon="15.407249">
        <ele>221.868</ele>
        <time>2019-05-04T11:25:31Z</time>
      </trkpt>
      <trkpt lat="48.313786" lon="15.407222">
        <ele>222.192</ele>
        <time>2019-05-04T11:25:33Z</time>
      </trkpt>
      <trkpt lat="48.313837" lon="15.407195">
        <ele>222.458</ele>
        <time>2019-05-04T11:25:36Z</time>
      </trkpt>
      <trkpt lat="48.313852" lon="15.407187">
        <ele>222.561</ele>
        <time>2019-05-04T11:25:37Z</time>
      </trkpt>
      <trkpt lat="48.313870" lon="15.407169">
        <ele>222.989</ele>
        <time>2019-05-04T11:25:38Z</time>
      </trkpt>
      <trkpt lat="48.313909" lon="15.407132">
        <ele>223.659</ele>
        <time>2019-05-04T11:25:40Z</time>
      </trkpt>
      <trkpt lat="48.314026" lon="15.407045">
        <ele>224.303</ele>
        <time>2019-05-04T11:25:45Z</time>
      </trkpt>
      <trkpt lat="48.314168" lon="15.406962">
        <ele>223.623</ele>
        <time>2019-05-04T11:25:50Z</time>
      </trkpt>
      <trkpt lat="48.314272" lon="15.406896">
        <ele>223.308</ele>
        <time>2019-05-04T11:25:54Z</time>
      </trkpt>
      <trkpt lat="48.314410" lon="15.406802">
        <ele>222.458</ele>
        <time>2019-05-04T11:25:59Z</time>
      </trkpt>
      <trkpt lat="48.314564" lon="15.406675">
        <ele>221.741</ele>
        <time>2019-05-04T11:26:04Z</time>
      </trkpt>
      <trkpt lat="48.314726" lon="15.406564">
        <ele>221.275</ele>
        <time>2019-05-04T11:26:10Z</time>
      </trkpt>
      <trkpt lat="48.314835" lon="15.406490">
        <ele>222.240</ele>
        <time>2019-05-04T11:26:14Z</time>
      </trkpt>
      <trkpt lat="48.314864" lon="15.406473">
        <ele>222.324</ele>
        <time>2019-05-04T11:26:15Z</time>
      </trkpt>
      <trkpt lat="48.315032" lon="15.406444">
        <ele>222.080</ele>
        <time>2019-05-04T11:26:20Z</time>
      </trkpt>
      <trkpt lat="48.315261" lon="15.406454">
        <ele>222.023</ele>
        <time>2019-05-04T11:26:26Z</time>
      </trkpt>
      <trkpt lat="48.315499" lon="15.406531">
        <ele>220.541</ele>
        <time>2019-05-04T11:26:31Z</time>
      </trkpt>
      <trkpt lat="48.315555" lon="15.406552">
        <ele>220.115</ele>
        <time>2019-05-04T11:26:32Z</time>
      </trkpt>
      <trkpt lat="48.315612" lon="15.406568">
        <ele>219.565</ele>
        <time>2019-05-04T11:26:33Z</time>
      </trkpt>
      <trkpt lat="48.315729" lon="15.406577">
        <ele>218.811</ele>
        <time>2019-05-04T11:26:35Z</time>
      </trkpt>
      <trkpt lat="48.315841" lon="15.406579">
        <ele>218.308</ele>
        <time>2019-05-04T11:26:37Z</time>
      </trkpt>
      <trkpt lat="48.315895" lon="15.406582">
        <ele>218.254</ele>
        <time>2019-05-04T11:26:38Z</time>
      </trkpt>
      <trkpt lat="48.315997" lon="15.406590">
        <ele>218.127</ele>
        <time>2019-05-04T11:26:40Z</time>
      </trkpt>
      <trkpt lat="48.316047" lon="15.406590">
        <ele>218.111</ele>
        <time>2019-05-04T11:26:41Z</time>
      </trkpt>
      <trkpt lat="48.316098" lon="15.406594">
        <ele>218.046</ele>
        <time>2019-05-04T11:26:42Z</time>
      </trkpt>
      <trkpt lat="48.316151" lon="15.406601">
        <ele>217.910</ele>
        <time>2019-05-04T11:26:43Z</time>
      </trkpt>
      <trkpt lat="48.316257" lon="15.406612">
        <ele>217.596</ele>
        <time>2019-05-04T11:26:45Z</time>
      </trkpt>
      <trkpt lat="48.316539" lon="15.406628">
        <ele>216.079</ele>
        <time>2019-05-04T11:26:50Z</time>
      </trkpt>
      <trkpt lat="48.316847" lon="15.406568">
        <ele>215.267</ele>
        <time>2019-05-04T11:26:56Z</time>
      </trkpt>
      <trkpt lat="48.316892" lon="15.406554">
        <ele>215.073</ele>
        <time>2019-05-04T11:26:57Z</time>
      </trkpt>
      <trkpt lat="48.317083" lon="15.406475">
        <ele>215.585</ele>
        <time>2019-05-04T11:27:01Z</time>
      </trkpt>
      <trkpt lat="48.317133" lon="15.406457">
        <ele>215.513</ele>
        <time>2019-05-04T11:27:02Z</time>
      </trkpt>
      <trkpt lat="48.317177" lon="15.406436">
        <ele>215.608</ele>
        <time>2019-05-04T11:27:03Z</time>
      </trkpt>
      <trkpt lat="48.317224" lon="15.406410">
        <ele>215.730</ele>
        <time>2019-05-04T11:27:04Z</time>
      </trkpt>
      <trkpt lat="48.317308" lon="15.406351">
        <ele>216.433</ele>
        <time>2019-05-04T11:27:06Z</time>
      </trkpt>
      <trkpt lat="48.317349" lon="15.406319">
        <ele>216.997</ele>
        <time>2019-05-04T11:27:07Z</time>
      </trkpt>
      <trkpt lat="48.317519" lon="15.406195">
        <ele>218.022</ele>
        <time>2019-05-04T11:27:11Z</time>
      </trkpt>
      <trkpt lat="48.317745" lon="15.406034">
        <ele>218.456</ele>
        <time>2019-05-04T11:27:17Z</time>
      </trkpt>
      <trkpt lat="48.317818" lon="15.406003">
        <ele>218.572</ele>
        <time>2019-05-04T11:27:19Z</time>
      </trkpt>
      <trkpt lat="48.317977" lon="15.405923">
        <ele>219.525</ele>
        <time>2019-05-04T11:27:23Z</time>
      </trkpt>
      <trkpt lat="48.318063" lon="15.405891">
        <ele>219.733</ele>
        <time>2019-05-04T11:27:25Z</time>
      </trkpt>
      <trkpt lat="48.318199" lon="15.405843">
        <ele>219.835</ele>
        <time>2019-05-04T11:27:28Z</time>
      </trkpt>
      <trkpt lat="48.318528" lon="15.405760">
        <ele>220.886</ele>
        <time>2019-05-04T11:27:35Z</time>
      </trkpt>
      <trkpt lat="48.318576" lon="15.405758">
        <ele>220.914</ele>
        <time>2019-05-04T11:27:36Z</time>
      </trkpt>
      <trkpt lat="48.318961" lon="15.405722">
        <ele>220.408</ele>
        <time>2019-05-04T11:27:44Z</time>
      </trkpt>
      <trkpt lat="48.319008" lon="15.405719">
        <ele>220.246</ele>
        <time>2019-05-04T11:27:45Z</time>
      </trkpt>
      <trkpt lat="48.319098" lon="15.405703">
        <ele>220.169</ele>
        <time>2019-05-04T11:27:47Z</time>
      </trkpt>
      <trkpt lat="48.319142" lon="15.405691">
        <ele>220.283</ele>
        <time>2019-05-04T11:27:48Z</time>
      </trkpt>
      <trkpt lat="48.319229" lon="15.405657">
        <ele>220.098</ele>
        <time>2019-05-04T11:27:50Z</time>
      </trkpt>
      <trkpt lat="48.319307" lon="15.405614">
        <ele>219.662</ele>
        <time>2019-05-04T11:27:52Z</time>
      </trkpt>
      <trkpt lat="48.319346" lon="15.405589">
        <ele>219.468</ele>
        <time>2019-05-04T11:27:53Z</time>
      </trkpt>
      <trkpt lat="48.319423" lon="15.405541">
        <ele>218.731</ele>
        <time>2019-05-04T11:27:55Z</time>
      </trkpt>
      <trkpt lat="48.319554" lon="15.405463">
        <ele>218.479</ele>
        <time>2019-05-04T11:27:59Z</time>
      </trkpt>
      <trkpt lat="48.319593" lon="15.405446">
        <ele>218.253</ele>
        <time>2019-05-04T11:28:03Z</time>
      </trkpt>
      <trkpt lat="48.319566" lon="15.405454">
        <ele>218.404</ele>
        <time>2019-05-04T11:28:09Z</time>
      </trkpt>
      <trkpt lat="48.319597" lon="15.405414">
        <ele>218.614</ele>
        <time>2019-05-04T11:28:30Z</time>
      </trkpt>
      <trkpt lat="48.319681" lon="15.405361">
        <ele>218.408</ele>
        <time>2019-05-04T11:28:35Z</time>
      </trkpt>
      <trkpt lat="48.319773" lon="15.405283">
        <ele>218.478</ele>
        <time>2019-05-04T11:28:40Z</time>
      </trkpt>
      <trkpt lat="48.319791" lon="15.405271">
        <ele>218.461</ele>
        <time>2019-05-04T11:28:41Z</time>
      </trkpt>
      <trkpt lat="48.319860" lon="15.405232">
        <ele>218.265</ele>
        <time>2019-05-04T11:28:44Z</time>
      </trkpt>
      <trkpt lat="48.319924" lon="15.405179">
        <ele>218.180</ele>
        <time>2019-05-04T11:28:47Z</time>
      </trkpt>
      <trkpt lat="48.319950" lon="15.405155">
        <ele>218.044</ele>
        <time>2019-05-04T11:28:48Z</time>
      </trkpt>
      <trkpt lat="48.320060" lon="15.405063">
        <ele>218.310</ele>
        <time>2019-05-04T11:28:53Z</time>
      </trkpt>
      <trkpt lat="48.320209" lon="15.404962">
        <ele>219.563</ele>
        <time>2019-05-04T11:29:00Z</time>
      </trkpt>
      <trkpt lat="48.320261" lon="15.404942">
        <ele>219.851</ele>
        <time>2019-05-04T11:29:03Z</time>
      </trkpt>
      <trkpt lat="48.320301" lon="15.404918">
        <ele>220.259</ele>
        <time>2019-05-04T11:29:06Z</time>
      </trkpt>
      <trkpt lat="48.320311" lon="15.404907">
        <ele>220.403</ele>
        <time>2019-05-04T11:29:07Z</time>
      </trkpt>
      <trkpt lat="48.320322" lon="15.404903">
        <ele>220.523</ele>
        <time>2019-05-04T11:29:08Z</time>
      </trkpt>
      <trkpt lat="48.320380" lon="15.404886">
        <ele>220.808</ele>
        <time>2019-05-04T11:29:11Z</time>
      </trkpt>
      <trkpt lat="48.320528" lon="15.404837">
        <ele>221.928</ele>
        <time>2019-05-04T11:29:16Z</time>
      </trkpt>
      <trkpt lat="48.320679" lon="15.404785">
        <ele>222.141</ele>
        <time>2019-05-04T11:29:20Z</time>
      </trkpt>
      <trkpt lat="48.321006" lon="15.404684">
        <ele>222.595</ele>
        <time>2019-05-04T11:29:28Z</time>
      </trkpt>
      <trkpt lat="48.321185" lon="15.404660">
        <ele>222.210</ele>
        <time>2019-05-04T11:29:32Z</time>
      </trkpt>
      <trkpt lat="48.321232" lon="15.404663">
        <ele>221.994</ele>
        <time>2019-05-04T11:29:33Z</time>
      </trkpt>
      <trkpt lat="48.321332" lon="15.404671">
        <ele>221.190</ele>
        <time>2019-05-04T11:29:35Z</time>
      </trkpt>
      <trkpt lat="48.321485" lon="15.404694">
        <ele>220.393</ele>
        <time>2019-05-04T11:29:38Z</time>
      </trkpt>
      <trkpt lat="48.321739" lon="15.404777">
        <ele>219.711</ele>
        <time>2019-05-04T11:29:43Z</time>
      </trkpt>
      <trkpt lat="48.321846" lon="15.404817">
        <ele>219.896</ele>
        <time>2019-05-04T11:29:45Z</time>
      </trkpt>
      <trkpt lat="48.321952" lon="15.404858">
        <ele>220.031</ele>
        <time>2019-05-04T11:29:47Z</time>
      </trkpt>
      <trkpt lat="48.322004" lon="15.404878">
        <ele>220.024</ele>
        <time>2019-05-04T11:29:48Z</time>
      </trkpt>
      <trkpt lat="48.322055" lon="15.404901">
        <ele>219.908</ele>
        <time>2019-05-04T11:29:49Z</time>
      </trkpt>
      <trkpt lat="48.322206" lon="15.404957">
        <ele>219.552</ele>
        <time>2019-05-04T11:29:52Z</time>
      </trkpt>
      <trkpt lat="48.322296" lon="15.404984">
        <ele>219.245</ele>
        <time>2019-05-04T11:29:54Z</time>
      </trkpt>
      <trkpt lat="48.322339" lon="15.404996">
        <ele>219.039</ele>
        <time>2019-05-04T11:29:55Z</time>
      </trkpt>
      <trkpt lat="48.322534" lon="15.405067">
        <ele>218.524</ele>
        <time>2019-05-04T11:30:00Z</time>
      </trkpt>
      <trkpt lat="48.322711" lon="15.405086">
        <ele>218.638</ele>
        <time>2019-05-04T11:30:05Z</time>
      </trkpt>
      <trkpt lat="48.322803" lon="15.405079">
        <ele>218.764</ele>
        <time>2019-05-04T11:30:09Z</time>
      </trkpt>
      <trkpt lat="48.322808" lon="15.405056">
        <ele>218.877</ele>
        <time>2019-05-04T11:30:10Z</time>
      </trkpt>
      <trkpt lat="48.322804" lon="15.405026">
        <ele>218.915</ele>
        <time>2019-05-04T11:30:11Z</time>
      </trkpt>
      <trkpt lat="48.322788" lon="15.404911">
        <ele>219.678</ele>
        <time>2019-05-04T11:30:15Z</time>
      </trkpt>
      <trkpt lat="48.322770" lon="15.404783">
        <ele>220.633</ele>
        <time>2019-05-04T11:30:20Z</time>
      </trkpt>
      <trkpt lat="48.322764" lon="15.404761">
        <ele>220.826</ele>
        <time>2019-05-04T11:30:21Z</time>
      </trkpt>
      <trkpt lat="48.322747" lon="15.404714">
        <ele>221.208</ele>
        <time>2019-05-04T11:30:23Z</time>
      </trkpt>
      <trkpt lat="48.322729" lon="15.404657">
        <ele>221.650</ele>
        <time>2019-05-04T11:30:25Z</time>
      </trkpt>
      <trkpt lat="48.322689" lon="15.404579">
        <ele>222.233</ele>
        <time>2019-05-04T11:30:28Z</time>
      </trkpt>
      <trkpt lat="48.322668" lon="15.404538">
        <ele>222.577</ele>
        <time>2019-05-04T11:30:30Z</time>
      </trkpt>
      <trkpt lat="48.322659" lon="15.404504">
        <ele>222.732</ele>
        <time>2019-05-04T11:30:32Z</time>
      </trkpt>
      <trkpt lat="48.322648" lon="15.404483">
        <ele>222.866</ele>
        <time>2019-05-04T11:30:35Z</time>
      </trkpt>
      <trkpt lat="48.322645" lon="15.404482">
        <ele>222.872</ele>
        <time>2019-05-04T11:30:37Z</time>
      </trkpt>
      <trkpt lat="48.322706" lon="15.404392">
        <ele>223.375</ele>
        <time>2019-05-04T11:30:56Z</time>
      </trkpt>
      <trkpt lat="48.322727" lon="15.404387">
        <ele>223.463</ele>
        <time>2019-05-04T11:30:57Z</time>
      </trkpt>
      <trkpt lat="48.322860" lon="15.404373">
        <ele>223.992</ele>
        <time>2019-05-04T11:31:02Z</time>
      </trkpt>
      <trkpt lat="48.322920" lon="15.404363">
        <ele>224.273</ele>
        <time>2019-05-04T11:31:05Z</time>
      </trkpt>
      <trkpt lat="48.322935" lon="15.404369">
        <ele>224.320</ele>
        <time>2019-05-04T11:31:07Z</time>
      </trkpt>
      <trkpt lat="48.322946" lon="15.404369">
        <ele>224.308</ele>
        <time>2019-05-04T11:31:09Z</time>
      </trkpt>
      <trkpt lat="48.322989" lon="15.404353">
        <ele>224.772</ele>
        <time>2019-05-04T11:31:14Z</time>
      </trkpt>
      <trkpt lat="48.323048" lon="15.404367">
        <ele>224.865</ele>
        <time>2019-05-04T11:31:24Z</time>
      </trkpt>
      <trkpt lat="48.323061" lon="15.404356">
        <ele>224.969</ele>
        <time>2019-05-04T11:31:28Z</time>
      </trkpt>
      <trkpt lat="48.323061" lon="15.404355">
        <ele>225.034</ele>
        <time>2019-05-04T11:31:30Z</time>
      </trkpt>
      <trkpt lat="48.322863" lon="15.404375">
        <ele>223.938</ele>
        <time>2019-05-04T11:40:39Z</time>
      </trkpt>
      <trkpt lat="48.322757" lon="15.404404">
        <ele>223.394</ele>
        <time>2019-05-04T11:40:45Z</time>
      </trkpt>
      <trkpt lat="48.322710" lon="15.404412">
        <ele>223.247</ele>
        <time>2019-05-04T11:40:49Z</time>
      </trkpt>
      <trkpt lat="48.322700" lon="15.404413">
        <ele>223.295</ele>
        <time>2019-05-04T11:40:50Z</time>
      </trkpt>
      <trkpt lat="48.322693" lon="15.404418">
        <ele>223.249</ele>
        <time>2019-05-04T11:40:51Z</time>
      </trkpt>
      <trkpt lat="48.322679" lon="15.404420">
        <ele>223.102</ele>
        <time>2019-05-04T11:40:54Z</time>
      </trkpt>
      <trkpt lat="48.322672" lon="15.404507">
        <ele>222.622</ele>
        <time>2019-05-04T11:41:03Z</time>
      </trkpt>
      <trkpt lat="48.322685" lon="15.404533">
        <ele>222.508</ele>
        <time>2019-05-04T11:41:04Z</time>
      </trkpt>
      <trkpt lat="48.322741" lon="15.404659">
        <ele>221.657</ele>
        <time>2019-05-04T11:41:09Z</time>
      </trkpt>
      <trkpt lat="48.322722" lon="15.404707">
        <ele>221.350</ele>
        <time>2019-05-04T11:41:11Z</time>
      </trkpt>
      <trkpt lat="48.322697" lon="15.404729">
        <ele>221.294</ele>
        <time>2019-05-04T11:41:15Z</time>
      </trkpt>
      <trkpt lat="48.322689" lon="15.404733">
        <ele>221.239</ele>
        <time>2019-05-04T11:41:18Z</time>
      </trkpt>
      <trkpt lat="48.322807" lon="15.404895">
        <ele>219.873</ele>
        <time>2019-05-04T11:50:38Z</time>
      </trkpt>
      <trkpt lat="48.322836" lon="15.404975">
        <ele>219.259</ele>
        <time>2019-05-04T11:50:40Z</time>
      </trkpt>
      <trkpt lat="48.322861" lon="15.405007">
        <ele>219.082</ele>
        <time>2019-05-04T11:50:41Z</time>
      </trkpt>
      <trkpt lat="48.322894" lon="15.405026">
        <ele>218.960</ele>
        <time>2019-05-04T11:50:42Z</time>
      </trkpt>
      <trkpt lat="48.322928" lon="15.405037">
        <ele>218.979</ele>
        <time>2019-05-04T11:50:43Z</time>
      </trkpt>
      <trkpt lat="48.323047" lon="15.405053">
        <ele>218.805</ele>
        <time>2019-05-04T11:50:46Z</time>
      </trkpt>
      <trkpt lat="48.323168" lon="15.405054">
        <ele>218.025</ele>
        <time>2019-05-04T11:50:49Z</time>
      </trkpt>
      <trkpt lat="48.323321" lon="15.405049">
        <ele>216.908</ele>
        <time>2019-05-04T11:50:52Z</time>
      </trkpt>
      <trkpt lat="48.323429" lon="15.405020">
        <ele>216.950</ele>
        <time>2019-05-04T11:50:54Z</time>
      </trkpt>
      <trkpt lat="48.323767" lon="15.404917">
        <ele>217.073</ele>
        <time>2019-05-04T11:51:01Z</time>
      </trkpt>
      <trkpt lat="48.323934" lon="15.404836">
        <ele>217.087</ele>
        <time>2019-05-04T11:51:05Z</time>
      </trkpt>
      <trkpt lat="48.324013" lon="15.404796">
        <ele>217.252</ele>
        <time>2019-05-04T11:51:07Z</time>
      </trkpt>
      <trkpt lat="48.324048" lon="15.404770">
        <ele>217.586</ele>
        <time>2019-05-04T11:51:08Z</time>
      </trkpt>
      <trkpt lat="48.324212" lon="15.404663">
        <ele>218.362</ele>
        <time>2019-05-04T11:51:14Z</time>
      </trkpt>
      <trkpt lat="48.324368" lon="15.404594">
        <ele>218.365</ele>
        <time>2019-05-04T11:51:20Z</time>
      </trkpt>
      <trkpt lat="48.324516" lon="15.404557">
        <ele>217.923</ele>
        <time>2019-05-04T11:51:25Z</time>
      </trkpt>
      <trkpt lat="48.324694" lon="15.404519">
        <ele>217.113</ele>
        <time>2019-05-04T11:51:31Z</time>
      </trkpt>
      <trkpt lat="48.324908" lon="15.404505">
        <ele>216.643</ele>
        <time>2019-05-04T11:51:37Z</time>
      </trkpt>
      <trkpt lat="48.324949" lon="15.404505">
        <ele>216.507</ele>
        <time>2019-05-04T11:51:38Z</time>
      </trkpt>
      <trkpt lat="48.324992" lon="15.404503">
        <ele>216.408</ele>
        <time>2019-05-04T11:51:39Z</time>
      </trkpt>
      <trkpt lat="48.325083" lon="15.404496">
        <ele>216.194</ele>
        <time>2019-05-04T11:51:41Z</time>
      </trkpt>
      <trkpt lat="48.325225" lon="15.404490">
        <ele>215.717</ele>
        <time>2019-05-04T11:51:44Z</time>
      </trkpt>
      <trkpt lat="48.325594" lon="15.404466">
        <ele>214.011</ele>
        <time>2019-05-04T11:51:52Z</time>
      </trkpt>
      <trkpt lat="48.325637" lon="15.404466">
        <ele>214.136</ele>
        <time>2019-05-04T11:51:53Z</time>
      </trkpt>
      <trkpt lat="48.325948" lon="15.404437">
        <ele>215.150</ele>
        <time>2019-05-04T11:52:00Z</time>
      </trkpt>
      <trkpt lat="48.326268" lon="15.404389">
        <ele>215.426</ele>
        <time>2019-05-04T11:52:07Z</time>
      </trkpt>
      <trkpt lat="48.326541" lon="15.404355">
        <ele>215.569</ele>
        <time>2019-05-04T11:52:13Z</time>
      </trkpt>
      <trkpt lat="48.326753" lon="15.404345">
        <ele>215.077</ele>
        <time>2019-05-04T11:52:18Z</time>
      </trkpt>
      <trkpt lat="48.326794" lon="15.404340">
        <ele>214.952</ele>
        <time>2019-05-04T11:52:19Z</time>
      </trkpt>
      <trkpt lat="48.327016" lon="15.404319">
        <ele>214.353</ele>
        <time>2019-05-04T11:52:25Z</time>
      </trkpt>
      <trkpt lat="48.327287" lon="15.404237">
        <ele>214.308</ele>
        <time>2019-05-04T11:52:32Z</time>
      </trkpt>
      <trkpt lat="48.327332" lon="15.404224">
        <ele>214.208</ele>
        <time>2019-05-04T11:52:33Z</time>
      </trkpt>
      <trkpt lat="48.327660" lon="15.404149">
        <ele>214.228</ele>
        <time>2019-05-04T11:52:40Z</time>
      </trkpt>
      <trkpt lat="48.327867" lon="15.404121">
        <ele>214.251</ele>
        <time>2019-05-04T11:52:44Z</time>
      </trkpt>
      <trkpt lat="48.328035" lon="15.404105">
        <ele>213.795</ele>
        <time>2019-05-04T11:52:47Z</time>
      </trkpt>
      <trkpt lat="48.328486" lon="15.404071">
        <ele>212.740</ele>
        <time>2019-05-04T11:52:55Z</time>
      </trkpt>
      <trkpt lat="48.328864" lon="15.404044">
        <ele>212.474</ele>
        <time>2019-05-04T11:53:02Z</time>
      </trkpt>
      <trkpt lat="48.329182" lon="15.404026">
        <ele>211.550</ele>
        <time>2019-05-04T11:53:08Z</time>
      </trkpt>
      <trkpt lat="48.329496" lon="15.403937">
        <ele>210.773</ele>
        <time>2019-05-04T11:53:14Z</time>
      </trkpt>
      <trkpt lat="48.329720" lon="15.403878">
        <ele>210.031</ele>
        <time>2019-05-04T11:53:18Z</time>
      </trkpt>
      <trkpt lat="48.329779" lon="15.403871">
        <ele>210.029</ele>
        <time>2019-05-04T11:53:19Z</time>
      </trkpt>
      <trkpt lat="48.329839" lon="15.403866">
        <ele>210.000</ele>
        <time>2019-05-04T11:53:20Z</time>
      </trkpt>
      <trkpt lat="48.329899" lon="15.403854">
        <ele>210.120</ele>
        <time>2019-05-04T11:53:21Z</time>
      </trkpt>
      <trkpt lat="48.330069" lon="15.403830">
        <ele>210.208</ele>
        <time>2019-05-04T11:53:24Z</time>
      </trkpt>
      <trkpt lat="48.330235" lon="15.403822">
        <ele>210.265</ele>
        <time>2019-05-04T11:53:27Z</time>
      </trkpt>
      <trkpt lat="48.330395" lon="15.403818">
        <ele>210.328</ele>
        <time>2019-05-04T11:53:30Z</time>
      </trkpt>
      <trkpt lat="48.330697" lon="15.403788">
        <ele>209.742</ele>
        <time>2019-05-04T11:53:36Z</time>
      </trkpt>
      <trkpt lat="48.330891" lon="15.403761">
        <ele>209.437</ele>
        <time>2019-05-04T11:53:40Z</time>
      </trkpt>
      <trkpt lat="48.330937" lon="15.403755">
        <ele>209.761</ele>
        <time>2019-05-04T11:53:41Z</time>
      </trkpt>
      <trkpt lat="48.331019" lon="15.403741">
        <ele>210.447</ele>
        <time>2019-05-04T11:53:43Z</time>
      </trkpt>
      <trkpt lat="48.331128" lon="15.403696">
        <ele>211.480</ele>
        <time>2019-05-04T11:53:46Z</time>
      </trkpt>
      <trkpt lat="48.331248" lon="15.403655">
        <ele>211.828</ele>
        <time>2019-05-04T11:53:49Z</time>
      </trkpt>
      <trkpt lat="48.331381" lon="15.403624">
        <ele>212.068</ele>
        <time>2019-05-04T11:53:52Z</time>
      </trkpt>
      <trkpt lat="48.331591" lon="15.403572">
        <ele>211.442</ele>
        <time>2019-05-04T11:53:56Z</time>
      </trkpt>
      <trkpt lat="48.331643" lon="15.403556">
        <ele>211.326</ele>
        <time>2019-05-04T11:53:57Z</time>
      </trkpt>
      <trkpt lat="48.331909" lon="15.403488">
        <ele>209.708</ele>
        <time>2019-05-04T11:54:02Z</time>
      </trkpt>
      <trkpt lat="48.331959" lon="15.403478">
        <ele>209.519</ele>
        <time>2019-05-04T11:54:03Z</time>
      </trkpt>
      <trkpt lat="48.332270" lon="15.403410">
        <ele>210.142</ele>
        <time>2019-05-04T11:54:10Z</time>
      </trkpt>
      <trkpt lat="48.332480" lon="15.403379">
        <ele>211.716</ele>
        <time>2019-05-04T11:54:16Z</time>
      </trkpt>
      <trkpt lat="48.332584" lon="15.403369">
        <ele>211.911</ele>
        <time>2019-05-04T11:54:19Z</time>
      </trkpt>
      <trkpt lat="48.332656" lon="15.403357">
        <ele>211.995</ele>
        <time>2019-05-04T11:54:21Z</time>
      </trkpt>
      <trkpt lat="48.332724" lon="15.403348">
        <ele>211.911</ele>
        <time>2019-05-04T11:54:23Z</time>
      </trkpt>
      <trkpt lat="48.332888" lon="15.403327">
        <ele>211.294</ele>
        <time>2019-05-04T11:54:28Z</time>
      </trkpt>
      <trkpt lat="48.332926" lon="15.403321">
        <ele>211.012</ele>
        <time>2019-05-04T11:54:29Z</time>
      </trkpt>
      <trkpt lat="48.333192" lon="15.403278">
        <ele>210.882</ele>
        <time>2019-05-04T11:54:35Z</time>
      </trkpt>
      <trkpt lat="48.333334" lon="15.403244">
        <ele>211.343</ele>
        <time>2019-05-04T11:54:38Z</time>
      </trkpt>
      <trkpt lat="48.333521" lon="15.403207">
        <ele>211.817</ele>
        <time>2019-05-04T11:54:42Z</time>
      </trkpt>
      <trkpt lat="48.333910" lon="15.403130">
        <ele>212.408</ele>
        <time>2019-05-04T11:54:50Z</time>
      </trkpt>
      <trkpt lat="48.334280" lon="15.403043">
        <ele>211.381</ele>
        <time>2019-05-04T11:54:57Z</time>
      </trkpt>
      <trkpt lat="48.334427" lon="15.403037">
        <ele>210.374</ele>
        <time>2019-05-04T11:55:00Z</time>
      </trkpt>
      <trkpt lat="48.334578" lon="15.403029">
        <ele>210.768</ele>
        <time>2019-05-04T11:55:03Z</time>
      </trkpt>
      <trkpt lat="48.334922" lon="15.403002">
        <ele>212.173</ele>
        <time>2019-05-04T11:55:10Z</time>
      </trkpt>
      <trkpt lat="48.335220" lon="15.402995">
        <ele>211.887</ele>
        <time>2019-05-04T11:55:16Z</time>
      </trkpt>
      <trkpt lat="48.335461" lon="15.402993">
        <ele>211.743</ele>
        <time>2019-05-04T11:55:21Z</time>
      </trkpt>
      <trkpt lat="48.335508" lon="15.402995">
        <ele>211.756</ele>
        <time>2019-05-04T11:55:22Z</time>
      </trkpt>
      <trkpt lat="48.335649" lon="15.402990">
        <ele>212.034</ele>
        <time>2019-05-04T11:55:25Z</time>
      </trkpt>
      <trkpt lat="48.335751" lon="15.402985">
        <ele>212.318</ele>
        <time>2019-05-04T11:55:27Z</time>
      </trkpt>
      <trkpt lat="48.335970" lon="15.402964">
        <ele>213.598</ele>
        <time>2019-05-04T11:55:31Z</time>
      </trkpt>
      <trkpt lat="48.336082" lon="15.402961">
        <ele>214.217</ele>
        <time>2019-05-04T11:55:33Z</time>
      </trkpt>
      <trkpt lat="48.336507" lon="15.403006">
        <ele>213.108</ele>
        <time>2019-05-04T11:55:41Z</time>
      </trkpt>
      <trkpt lat="48.336707" lon="15.403046">
        <ele>212.274</ele>
        <time>2019-05-04T11:55:45Z</time>
      </trkpt>
      <trkpt lat="48.336848" lon="15.403065">
        <ele>212.627</ele>
        <time>2019-05-04T11:55:48Z</time>
      </trkpt>
      <trkpt lat="48.336945" lon="15.403085">
        <ele>212.941</ele>
        <time>2019-05-04T11:55:50Z</time>
      </trkpt>
      <trkpt lat="48.337090" lon="15.403110">
        <ele>212.846</ele>
        <time>2019-05-04T11:55:53Z</time>
      </trkpt>
      <trkpt lat="48.337189" lon="15.403126">
        <ele>212.740</ele>
        <time>2019-05-04T11:55:55Z</time>
      </trkpt>
      <trkpt lat="48.337386" lon="15.403174">
        <ele>212.376</ele>
        <time>2019-05-04T11:55:59Z</time>
      </trkpt>
      <trkpt lat="48.337718" lon="15.403253">
        <ele>211.619</ele>
        <time>2019-05-04T11:56:06Z</time>
      </trkpt>
      <trkpt lat="48.338011" lon="15.403313">
        <ele>211.287</ele>
        <time>2019-05-04T11:56:12Z</time>
      </trkpt>
      <trkpt lat="48.338335" lon="15.403386">
        <ele>211.251</ele>
        <time>2019-05-04T11:56:19Z</time>
      </trkpt>
      <trkpt lat="48.338430" lon="15.403402">
        <ele>211.101</ele>
        <time>2019-05-04T11:56:21Z</time>
      </trkpt>
      <trkpt lat="48.338672" lon="15.403436">
        <ele>211.211</ele>
        <time>2019-05-04T11:56:26Z</time>
      </trkpt>
      <trkpt lat="48.338767" lon="15.403454">
        <ele>211.508</ele>
        <time>2019-05-04T11:56:28Z</time>
      </trkpt>
      <trkpt lat="48.338949" lon="15.403497">
        <ele>211.968</ele>
        <time>2019-05-04T11:56:32Z</time>
      </trkpt>
      <trkpt lat="48.338994" lon="15.403507">
        <ele>211.961</ele>
        <time>2019-05-04T11:56:33Z</time>
      </trkpt>
      <trkpt lat="48.339184" lon="15.403584">
        <ele>211.465</ele>
        <time>2019-05-04T11:56:38Z</time>
      </trkpt>
      <trkpt lat="48.339221" lon="15.403588">
        <ele>211.650</ele>
        <time>2019-05-04T11:56:39Z</time>
      </trkpt>
      <trkpt lat="48.339316" lon="15.403600">
        <ele>212.284</ele>
        <time>2019-05-04T11:56:42Z</time>
      </trkpt>
      <trkpt lat="48.339350" lon="15.403595">
        <ele>212.540</ele>
        <time>2019-05-04T11:56:43Z</time>
      </trkpt>
      <trkpt lat="48.339441" lon="15.403568">
        <ele>213.323</ele>
        <time>2019-05-04T11:56:46Z</time>
      </trkpt>
      <trkpt lat="48.339467" lon="15.403557">
        <ele>213.541</ele>
        <time>2019-05-04T11:56:47Z</time>
      </trkpt>
      <trkpt lat="48.339489" lon="15.403555">
        <ele>213.639</ele>
        <time>2019-05-04T11:56:48Z</time>
      </trkpt>
      <trkpt lat="48.339621" lon="15.403590">
        <ele>213.801</ele>
        <time>2019-05-04T11:56:54Z</time>
      </trkpt>
      <trkpt lat="48.339639" lon="15.403589">
        <ele>213.921</ele>
        <time>2019-05-04T11:56:55Z</time>
      </trkpt>
      <trkpt lat="48.339763" lon="15.403634">
        <ele>213.808</ele>
        <time>2019-05-04T11:57:00Z</time>
      </trkpt>
      <trkpt lat="48.339912" lon="15.403765">
        <ele>212.776</ele>
        <time>2019-05-04T11:57:06Z</time>
      </trkpt>
      <trkpt lat="48.339981" lon="15.403827">
        <ele>212.459</ele>
        <time>2019-05-04T11:57:08Z</time>
      </trkpt>
      <trkpt lat="48.340125" lon="15.403918">
        <ele>212.843</ele>
        <time>2019-05-04T11:57:12Z</time>
      </trkpt>
      <trkpt lat="48.340276" lon="15.403972">
        <ele>213.738</ele>
        <time>2019-05-04T11:57:17Z</time>
      </trkpt>
      <trkpt lat="48.340481" lon="15.404071">
        <ele>213.622</ele>
        <time>2019-05-04T11:57:24Z</time>
      </trkpt>
      <trkpt lat="48.340641" lon="15.404120">
        <ele>213.328</ele>
        <time>2019-05-04T11:57:31Z</time>
      </trkpt>
      <trkpt lat="48.340683" lon="15.404136">
        <ele>213.271</ele>
        <time>2019-05-04T11:57:33Z</time>
      </trkpt>
      <trkpt lat="48.340750" lon="15.404160">
        <ele>213.069</ele>
        <time>2019-05-04T11:57:36Z</time>
      </trkpt>
      <trkpt lat="48.340815" lon="15.404175">
        <ele>212.925</ele>
        <time>2019-05-04T11:57:39Z</time>
      </trkpt>
      <trkpt lat="48.340873" lon="15.404194">
        <ele>212.726</ele>
        <time>2019-05-04T11:57:42Z</time>
      </trkpt>
      <trkpt lat="48.340909" lon="15.404206">
        <ele>212.608</ele>
        <time>2019-05-04T11:57:44Z</time>
      </trkpt>
      <trkpt lat="48.340928" lon="15.404201">
        <ele>212.608</ele>
        <time>2019-05-04T11:57:46Z</time>
      </trkpt>
      <trkpt lat="48.340927" lon="15.404193">
        <ele>212.755</ele>
        <time>2019-05-04T11:57:47Z</time>
      </trkpt>
      <trkpt lat="48.340903" lon="15.404193">
        <ele>212.788</ele>
        <time>2019-05-04T11:57:49Z</time>
      </trkpt>
      <trkpt lat="48.340888" lon="15.404192">
        <ele>212.772</ele>
        <time>2019-05-04T11:57:50Z</time>
      </trkpt>
      <trkpt lat="48.340845" lon="15.404185">
        <ele>212.847</ele>
        <time>2019-05-04T11:57:52Z</time>
      </trkpt>
      <trkpt lat="48.340670" lon="15.404142">
        <ele>213.281</ele>
        <time>2019-05-04T11:57:58Z</time>
      </trkpt>
      <trkpt lat="48.340523" lon="15.404114">
        <ele>213.497</ele>
        <time>2019-05-04T11:58:03Z</time>
      </trkpt>
      <trkpt lat="48.340470" lon="15.404099">
        <ele>213.460</ele>
        <time>2019-05-04T11:58:05Z</time>
      </trkpt>
      <trkpt lat="48.340316" lon="15.404069">
        <ele>213.418</ele>
        <time>2019-05-04T11:58:11Z</time>
      </trkpt>
      <trkpt lat="48.340204" lon="15.404053">
        <ele>212.912</ele>
        <time>2019-05-04T11:58:16Z</time>
      </trkpt>
      <trkpt lat="48.340143" lon="15.404038">
        <ele>212.532</ele>
        <time>2019-05-04T11:58:19Z</time>
      </trkpt>
      <trkpt lat="48.340088" lon="15.403991">
        <ele>212.305</ele>
        <time>2019-05-04T11:58:21Z</time>
      </trkpt>
      <trkpt lat="48.339963" lon="15.403834">
        <ele>212.308</ele>
        <time>2019-05-04T11:58:27Z</time>
      </trkpt>
      <trkpt lat="48.339952" lon="15.403792">
        <ele>212.654</ele>
        <time>2019-05-04T11:58:29Z</time>
      </trkpt>
      <trkpt lat="48.339918" lon="15.403787">
        <ele>212.557</ele>
        <time>2019-05-04T11:58:32Z</time>
      </trkpt>
      <trkpt lat="48.339903" lon="15.403787">
        <ele>212.571</ele>
        <time>2019-05-04T11:58:33Z</time>
      </trkpt>
      <trkpt lat="48.339859" lon="15.403758">
        <ele>212.766</ele>
        <time>2019-05-04T11:58:36Z</time>
      </trkpt>
      <trkpt lat="48.339836" lon="15.403726">
        <ele>212.910</ele>
        <time>2019-05-04T11:58:38Z</time>
      </trkpt>
      <trkpt lat="48.339827" lon="15.403710">
        <ele>213.166</ele>
        <time>2019-05-04T11:58:40Z</time>
      </trkpt>
      <trkpt lat="48.339824" lon="15.403705">
        <ele>213.189</ele>
        <time>2019-05-04T11:58:41Z</time>
      </trkpt>
      <trkpt lat="48.339875" lon="15.403696">
        <ele>213.317</ele>
        <time>2019-05-04T11:59:03Z</time>
      </trkpt>
      <trkpt lat="48.339886" lon="15.403705">
        <ele>213.265</ele>
        <time>2019-05-04T11:59:04Z</time>
      </trkpt>
      <trkpt lat="48.339895" lon="15.403733">
        <ele>213.068</ele>
        <time>2019-05-04T11:59:07Z</time>
      </trkpt>
      <trkpt lat="48.339908" lon="15.403751">
        <ele>212.814</ele>
        <time>2019-05-04T11:59:08Z</time>
      </trkpt>
      <trkpt lat="48.339924" lon="15.403774">
        <ele>212.708</ele>
        <time>2019-05-04T11:59:09Z</time>
      </trkpt>
      <trkpt lat="48.340020" lon="15.403886">
        <ele>212.219</ele>
        <time>2019-05-04T11:59:13Z</time>
      </trkpt>
      <trkpt lat="48.340087" lon="15.403923">
        <ele>212.512</ele>
        <time>2019-05-04T11:59:15Z</time>
      </trkpt>
      <trkpt lat="48.340134" lon="15.403950">
        <ele>212.736</ele>
        <time>2019-05-04T11:59:17Z</time>
      </trkpt>
      <trkpt lat="48.340212" lon="15.403979">
        <ele>213.251</ele>
        <time>2019-05-04T11:59:21Z</time>
      </trkpt>
      <trkpt lat="48.340225" lon="15.403987">
        <ele>213.355</ele>
        <time>2019-05-04T11:59:22Z</time>
      </trkpt>
      <trkpt lat="48.340235" lon="15.403994">
        <ele>213.371</ele>
        <time>2019-05-04T11:59:23Z</time>
      </trkpt>
      <trkpt lat="48.340246" lon="15.403999">
        <ele>213.474</ele>
        <time>2019-05-04T11:59:24Z</time>
      </trkpt>
      <trkpt lat="48.340296" lon="15.404017">
        <ele>213.622</ele>
        <time>2019-05-04T11:59:28Z</time>
      </trkpt>
      <trkpt lat="48.340313" lon="15.404023">
        <ele>213.669</ele>
        <time>2019-05-04T11:59:29Z</time>
      </trkpt>
      <trkpt lat="48.340335" lon="15.404025">
        <ele>213.604</ele>
        <time>2019-05-04T11:59:30Z</time>
      </trkpt>
      <trkpt lat="48.340401" lon="15.404042">
        <ele>213.624</ele>
        <time>2019-05-04T11:59:33Z</time>
      </trkpt>
      <trkpt lat="48.340416" lon="15.404053">
        <ele>213.608</ele>
        <time>2019-05-04T11:59:34Z</time>
      </trkpt>
      <trkpt lat="48.340448" lon="15.404064">
        <ele>213.689</ele>
        <time>2019-05-04T11:59:39Z</time>
      </trkpt>
      <trkpt lat="48.340481" lon="15.404098">
        <ele>213.452</ele>
        <time>2019-05-04T11:59:42Z</time>
      </trkpt>
      <trkpt lat="48.340518" lon="15.404125">
        <ele>213.356</ele>
        <time>2019-05-04T11:59:44Z</time>
      </trkpt>
      <trkpt lat="48.340634" lon="15.404135">
        <ele>213.281</ele>
        <time>2019-05-04T11:59:48Z</time>
      </trkpt>
      <trkpt lat="48.340724" lon="15.404158">
        <ele>213.125</ele>
        <time>2019-05-04T11:59:51Z</time>
      </trkpt>
      <trkpt lat="48.340888" lon="15.404198">
        <ele>212.751</ele>
        <time>2019-05-04T11:59:58Z</time>
      </trkpt>
      <trkpt lat="48.340907" lon="15.404198">
        <ele>212.784</ele>
        <time>2019-05-04T11:59:59Z</time>
      </trkpt>
      <trkpt lat="48.340923" lon="15.404200">
        <ele>212.622</ele>
        <time>2019-05-04T12:00:00Z</time>
      </trkpt>
      <trkpt lat="48.340941" lon="15.404204">
        <ele>212.639</ele>
        <time>2019-05-04T12:00:01Z</time>
      </trkpt>
      <trkpt lat="48.340958" lon="15.404210">
        <ele>212.501</ele>
        <time>2019-05-04T12:00:02Z</time>
      </trkpt>
      <trkpt lat="48.340968" lon="15.404214">
        <ele>212.521</ele>
        <time>2019-05-04T12:00:03Z</time>
      </trkpt>
      <trkpt lat="48.340970" lon="15.404216">
        <ele>212.508</ele>
        <time>2019-05-04T12:00:04Z</time>
      </trkpt>
      <trkpt lat="48.340971" lon="15.404215">
        <ele>212.516</ele>
        <time>2019-05-04T12:00:05Z</time>
      </trkpt>
      <trkpt lat="48.341083" lon="15.404238">
        <ele>212.269</ele>
        <time>2019-05-04T12:01:21Z</time>
      </trkpt>
      <trkpt lat="48.341125" lon="15.404247">
        <ele>212.253</ele>
        <time>2019-05-04T12:01:24Z</time>
      </trkpt>
      <trkpt lat="48.341206" lon="15.404248">
        <ele>212.318</ele>
        <time>2019-05-04T12:01:29Z</time>
      </trkpt>
      <trkpt lat="48.341227" lon="15.404249">
        <ele>212.342</ele>
        <time>2019-05-04T12:01:30Z</time>
      </trkpt>
      <trkpt lat="48.341412" lon="15.404248">
        <ele>212.538</ele>
        <time>2019-05-04T12:01:37Z</time>
      </trkpt>
      <trkpt lat="48.341579" lon="15.404216">
        <ele>212.421</ele>
        <time>2019-05-04T12:01:42Z</time>
      </trkpt>
      <trkpt lat="48.341610" lon="15.404199">
        <ele>212.629</ele>
        <time>2019-05-04T12:01:43Z</time>
      </trkpt>
      <trkpt lat="48.341799" lon="15.404112">
        <ele>213.413</ele>
        <time>2019-05-04T12:01:49Z</time>
      </trkpt>
      <trkpt lat="48.341986" lon="15.404016">
        <ele>213.943</ele>
        <time>2019-05-04T12:01:55Z</time>
      </trkpt>
      <trkpt lat="48.342104" lon="15.403948">
        <ele>214.307</ele>
        <time>2019-05-04T12:01:59Z</time>
      </trkpt>
      <trkpt lat="48.342134" lon="15.403936">
        <ele>214.408</ele>
        <time>2019-05-04T12:02:00Z</time>
      </trkpt>
      <trkpt lat="48.342250" lon="15.403895">
        <ele>214.714</ele>
        <time>2019-05-04T12:02:04Z</time>
      </trkpt>
      <trkpt lat="48.342428" lon="15.403855">
        <ele>214.567</ele>
        <time>2019-05-04T12:02:10Z</time>
      </trkpt>
      <trkpt lat="48.342607" lon="15.403837">
        <ele>215.041</ele>
        <time>2019-05-04T12:02:16Z</time>
      </trkpt>
      <trkpt lat="48.342794" lon="15.403850">
        <ele>215.136</ele>
        <time>2019-05-04T12:02:22Z</time>
      </trkpt>
      <trkpt lat="48.342827" lon="15.403849">
        <ele>215.220</ele>
        <time>2019-05-04T12:02:23Z</time>
      </trkpt>
      <trkpt lat="48.342962" lon="15.403860">
        <ele>214.956</ele>
        <time>2019-05-04T12:02:27Z</time>
      </trkpt>
      <trkpt lat="48.343026" lon="15.403864">
        <ele>214.889</ele>
        <time>2019-05-04T12:02:29Z</time>
      </trkpt>
      <trkpt lat="48.343058" lon="15.403865">
        <ele>214.867</ele>
        <time>2019-05-04T12:02:30Z</time>
      </trkpt>
      <trkpt lat="48.343237" lon="15.403863">
        <ele>216.126</ele>
        <time>2019-05-04T12:02:36Z</time>
      </trkpt>
      <trkpt lat="48.343320" lon="15.403861">
        <ele>216.847</ele>
        <time>2019-05-04T12:02:39Z</time>
      </trkpt>
      <trkpt lat="48.343399" lon="15.403855">
        <ele>217.611</ele>
        <time>2019-05-04T12:02:42Z</time>
      </trkpt>
      <trkpt lat="48.343561" lon="15.403844">
        <ele>219.108</ele>
        <time>2019-05-04T12:02:48Z</time>
      </trkpt>
      <trkpt lat="48.343759" lon="15.403840">
        <ele>220.685</ele>
        <time>2019-05-04T12:02:55Z</time>
      </trkpt>
      <trkpt lat="48.343908" lon="15.403864">
        <ele>220.338</ele>
        <time>2019-05-04T12:02:59Z</time>
      </trkpt>
      <trkpt lat="48.343993" lon="15.403857">
        <ele>220.942</ele>
        <time>2019-05-04T12:03:01Z</time>
      </trkpt>
      <trkpt lat="48.344158" lon="15.403850">
        <ele>221.817</ele>
        <time>2019-05-04T12:03:05Z</time>
      </trkpt>
      <trkpt lat="48.344245" lon="15.403849">
        <ele>221.961</ele>
        <time>2019-05-04T12:03:07Z</time>
      </trkpt>
      <trkpt lat="48.344554" lon="15.403859">
        <ele>222.177</ele>
        <time>2019-05-04T12:03:14Z</time>
      </trkpt>
      <trkpt lat="48.344700" lon="15.403853">
        <ele>223.230</ele>
        <time>2019-05-04T12:03:17Z</time>
      </trkpt>
      <trkpt lat="48.344854" lon="15.403846">
        <ele>223.638</ele>
        <time>2019-05-04T12:03:20Z</time>
      </trkpt>
      <trkpt lat="48.345189" lon="15.403852">
        <ele>223.046</ele>
        <time>2019-05-04T12:03:26Z</time>
      </trkpt>
      <trkpt lat="48.345534" lon="15.403851">
        <ele>220.888</ele>
        <time>2019-05-04T12:03:32Z</time>
      </trkpt>
      <trkpt lat="48.345590" lon="15.403845">
        <ele>220.616</ele>
        <time>2019-05-04T12:03:33Z</time>
      </trkpt>
      <trkpt lat="48.345812" lon="15.403845">
        <ele>218.908</ele>
        <time>2019-05-04T12:03:37Z</time>
      </trkpt>
      <trkpt lat="48.346106" lon="15.403905">
        <ele>216.637</ele>
        <time>2019-05-04T12:03:43Z</time>
      </trkpt>
      <trkpt lat="48.346198" lon="15.403909">
        <ele>217.180</ele>
        <time>2019-05-04T12:03:45Z</time>
      </trkpt>
      <trkpt lat="48.346341" lon="15.403930">
        <ele>217.684</ele>
        <time>2019-05-04T12:03:48Z</time>
      </trkpt>
      <trkpt lat="48.346482" lon="15.403955">
        <ele>218.019</ele>
        <time>2019-05-04T12:03:51Z</time>
      </trkpt>
      <trkpt lat="48.346619" lon="15.403990">
        <ele>218.133</ele>
        <time>2019-05-04T12:03:54Z</time>
      </trkpt>
      <trkpt lat="48.346889" lon="15.404052">
        <ele>220.669</ele>
        <time>2019-05-04T12:04:00Z</time>
      </trkpt>
      <trkpt lat="48.346997" lon="15.404081">
        <ele>221.692</ele>
        <time>2019-05-04T12:04:02Z</time>
      </trkpt>
      <trkpt lat="48.347171" lon="15.404169">
        <ele>221.840</ele>
        <time>2019-05-04T12:04:05Z</time>
      </trkpt>
      <trkpt lat="48.347356" lon="15.404271">
        <ele>220.953</ele>
        <time>2019-05-04T12:04:08Z</time>
      </trkpt>
      <trkpt lat="48.347548" lon="15.404368">
        <ele>219.804</ele>
        <time>2019-05-04T12:04:11Z</time>
      </trkpt>
      <trkpt lat="48.348025" lon="15.404620">
        <ele>215.614</ele>
        <time>2019-05-04T12:04:18Z</time>
      </trkpt>
      <trkpt lat="48.348521" lon="15.404871">
        <ele>211.608</ele>
        <time>2019-05-04T12:04:25Z</time>
      </trkpt>
      <trkpt lat="48.348589" lon="15.404905">
        <ele>211.128</ele>
        <time>2019-05-04T12:04:26Z</time>
      </trkpt>
      <trkpt lat="48.348726" lon="15.404985">
        <ele>210.221</ele>
        <time>2019-05-04T12:04:28Z</time>
      </trkpt>
      <trkpt lat="48.348792" lon="15.405029">
        <ele>209.925</ele>
        <time>2019-05-04T12:04:29Z</time>
      </trkpt>
      <trkpt lat="48.348856" lon="15.405072">
        <ele>209.590</ele>
        <time>2019-05-04T12:04:30Z</time>
      </trkpt>
      <trkpt lat="48.348992" lon="15.405140">
        <ele>210.174</ele>
        <time>2019-05-04T12:04:32Z</time>
      </trkpt>
      <trkpt lat="48.349556" lon="15.405368">
        <ele>213.240</ele>
        <time>2019-05-04T12:04:40Z</time>
      </trkpt>
      <trkpt lat="48.349627" lon="15.405393">
        <ele>213.023</ele>
        <time>2019-05-04T12:04:41Z</time>
      </trkpt>
      <trkpt lat="48.349698" lon="15.405415">
        <ele>213.011</ele>
        <time>2019-05-04T12:04:42Z</time>
      </trkpt>
      <trkpt lat="48.349905" lon="15.405478">
        <ele>211.983</ele>
        <time>2019-05-04T12:04:45Z</time>
      </trkpt>
      <trkpt lat="48.350297" lon="15.405569">
        <ele>210.925</ele>
        <time>2019-05-04T12:04:51Z</time>
      </trkpt>
      <trkpt lat="48.350602" lon="15.405637">
        <ele>210.417</ele>
        <time>2019-05-04T12:04:56Z</time>
      </trkpt>
      <trkpt lat="48.350827" lon="15.405686">
        <ele>211.108</ele>
        <time>2019-05-04T12:05:00Z</time>
      </trkpt>
      <trkpt lat="48.350935" lon="15.405711">
        <ele>211.591</ele>
        <time>2019-05-04T12:05:02Z</time>
      </trkpt>
      <trkpt lat="48.351179" lon="15.405757">
        <ele>213.044</ele>
        <time>2019-05-04T12:05:07Z</time>
      </trkpt>
      <trkpt lat="48.351309" lon="15.405795">
        <ele>214.028</ele>
        <time>2019-05-04T12:05:10Z</time>
      </trkpt>
      <trkpt lat="48.351436" lon="15.405821">
        <ele>214.753</ele>
        <time>2019-05-04T12:05:13Z</time>
      </trkpt>
      <trkpt lat="48.351475" lon="15.405839">
        <ele>214.567</ele>
        <time>2019-05-04T12:05:14Z</time>
      </trkpt>
      <trkpt lat="48.351518" lon="15.405850">
        <ele>214.753</ele>
        <time>2019-05-04T12:05:15Z</time>
      </trkpt>
      <trkpt lat="48.351606" lon="15.405877">
        <ele>214.896</ele>
        <time>2019-05-04T12:05:17Z</time>
      </trkpt>
      <trkpt lat="48.351650" lon="15.405888">
        <ele>214.924</ele>
        <time>2019-05-04T12:05:18Z</time>
      </trkpt>
      <trkpt lat="48.351924" lon="15.405977">
        <ele>212.953</ele>
        <time>2019-05-04T12:05:24Z</time>
      </trkpt>
      <trkpt lat="48.352294" lon="15.406119">
        <ele>211.404</ele>
        <time>2019-05-04T12:05:31Z</time>
      </trkpt>
      <trkpt lat="48.352503" lon="15.406227">
        <ele>213.614</ele>
        <time>2019-05-04T12:05:35Z</time>
      </trkpt>
      <trkpt lat="48.352668" lon="15.406313">
        <ele>215.208</ele>
        <time>2019-05-04T12:05:38Z</time>
      </trkpt>
      <trkpt lat="48.352853" lon="15.406394">
        <ele>215.128</ele>
        <time>2019-05-04T12:05:41Z</time>
      </trkpt>
      <trkpt lat="48.353034" lon="15.406483">
        <ele>213.651</ele>
        <time>2019-05-04T12:05:44Z</time>
      </trkpt>
      <trkpt lat="48.353384" lon="15.406635">
        <ele>213.485</ele>
        <time>2019-05-04T12:05:50Z</time>
      </trkpt>
      <trkpt lat="48.353756" lon="15.406796">
        <ele>211.990</ele>
        <time>2019-05-04T12:05:56Z</time>
      </trkpt>
      <trkpt lat="48.354138" lon="15.406937">
        <ele>210.184</ele>
        <time>2019-05-04T12:06:02Z</time>
      </trkpt>
      <trkpt lat="48.354193" lon="15.406950">
        <ele>210.080</ele>
        <time>2019-05-04T12:06:03Z</time>
      </trkpt>
      <trkpt lat="48.354325" lon="15.406989">
        <ele>210.073</ele>
        <time>2019-05-04T12:06:06Z</time>
      </trkpt>
      <trkpt lat="48.354559" lon="15.407111">
        <ele>209.391</ele>
        <time>2019-05-04T12:06:12Z</time>
      </trkpt>
      <trkpt lat="48.354602" lon="15.407129">
        <ele>209.379</ele>
        <time>2019-05-04T12:06:13Z</time>
      </trkpt>
      <trkpt lat="48.354820" lon="15.407222">
        <ele>209.705</ele>
        <time>2019-05-04T12:06:18Z</time>
      </trkpt>
      <trkpt lat="48.355009" lon="15.407300">
        <ele>210.025</ele>
        <time>2019-05-04T12:06:22Z</time>
      </trkpt>
      <trkpt lat="48.355154" lon="15.407347">
        <ele>210.408</ele>
        <time>2019-05-04T12:06:25Z</time>
      </trkpt>
      <trkpt lat="48.355345" lon="15.407447">
        <ele>210.760</ele>
        <time>2019-05-04T12:06:29Z</time>
      </trkpt>
      <trkpt lat="48.355436" lon="15.407499">
        <ele>211.473</ele>
        <time>2019-05-04T12:06:31Z</time>
      </trkpt>
      <trkpt lat="48.355480" lon="15.407523">
        <ele>211.837</ele>
        <time>2019-05-04T12:06:32Z</time>
      </trkpt>
      <trkpt lat="48.355561" lon="15.407570">
        <ele>212.482</ele>
        <time>2019-05-04T12:06:34Z</time>
      </trkpt>
      <trkpt lat="48.355638" lon="15.407615">
        <ele>213.436</ele>
        <time>2019-05-04T12:06:36Z</time>
      </trkpt>
      <trkpt lat="48.355742" lon="15.407675">
        <ele>214.562</ele>
        <time>2019-05-04T12:06:39Z</time>
      </trkpt>
      <trkpt lat="48.356006" lon="15.407813">
        <ele>214.325</ele>
        <time>2019-05-04T12:06:47Z</time>
      </trkpt>
      <trkpt lat="48.356077" lon="15.407863">
        <ele>213.613</ele>
        <time>2019-05-04T12:06:49Z</time>
      </trkpt>
      <trkpt lat="48.356159" lon="15.407904">
        <ele>213.053</ele>
        <time>2019-05-04T12:06:51Z</time>
      </trkpt>
      <trkpt lat="48.356203" lon="15.407926">
        <ele>212.604</ele>
        <time>2019-05-04T12:06:52Z</time>
      </trkpt>
      <trkpt lat="48.356467" lon="15.408063">
        <ele>209.114</ele>
        <time>2019-05-04T12:06:57Z</time>
      </trkpt>
      <trkpt lat="48.356526" lon="15.408099">
        <ele>208.608</ele>
        <time>2019-05-04T12:06:58Z</time>
      </trkpt>
      <trkpt lat="48.356709" lon="15.408197">
        <ele>207.148</ele>
        <time>2019-05-04T12:07:01Z</time>
      </trkpt>
      <trkpt lat="48.356774" lon="15.408227">
        <ele>206.781</ele>
        <time>2019-05-04T12:07:02Z</time>
      </trkpt>
      <trkpt lat="48.356907" lon="15.408280">
        <ele>206.045</ele>
        <time>2019-05-04T12:07:04Z</time>
      </trkpt>
      <trkpt lat="48.356974" lon="15.408311">
        <ele>205.830</ele>
        <time>2019-05-04T12:07:05Z</time>
      </trkpt>
      <trkpt lat="48.357039" lon="15.408352">
        <ele>205.884</ele>
        <time>2019-05-04T12:07:06Z</time>
      </trkpt>
      <trkpt lat="48.357167" lon="15.408410">
        <ele>206.650</ele>
        <time>2019-05-04T12:07:08Z</time>
      </trkpt>
      <trkpt lat="48.357286" lon="15.408458">
        <ele>206.943</ele>
        <time>2019-05-04T12:07:10Z</time>
      </trkpt>
      <trkpt lat="48.357467" lon="15.408516">
        <ele>206.931</ele>
        <time>2019-05-04T12:07:13Z</time>
      </trkpt>
      <trkpt lat="48.357581" lon="15.408566">
        <ele>207.153</ele>
        <time>2019-05-04T12:07:15Z</time>
      </trkpt>
      <trkpt lat="48.357635" lon="15.408595">
        <ele>207.104</ele>
        <time>2019-05-04T12:07:16Z</time>
      </trkpt>
      <trkpt lat="48.357779" lon="15.408694">
        <ele>207.114</ele>
        <time>2019-05-04T12:07:19Z</time>
      </trkpt>
      <trkpt lat="48.357877" lon="15.408753">
        <ele>207.508</ele>
        <time>2019-05-04T12:07:21Z</time>
      </trkpt>
      <trkpt lat="48.357925" lon="15.408780">
        <ele>207.868</ele>
        <time>2019-05-04T12:07:22Z</time>
      </trkpt>
      <trkpt lat="48.358091" lon="15.408897">
        <ele>208.491</ele>
        <time>2019-05-04T12:07:26Z</time>
      </trkpt>
      <trkpt lat="48.358126" lon="15.408920">
        <ele>208.725</ele>
        <time>2019-05-04T12:07:27Z</time>
      </trkpt>
      <trkpt lat="48.358258" lon="15.409038">
        <ele>209.130</ele>
        <time>2019-05-04T12:07:32Z</time>
      </trkpt>
      <trkpt lat="48.358354" lon="15.409221">
        <ele>207.884</ele>
        <time>2019-05-04T12:07:39Z</time>
      </trkpt>
      <trkpt lat="48.358391" lon="15.409431">
        <ele>206.550</ele>
        <time>2019-05-04T12:07:45Z</time>
      </trkpt>
      <trkpt lat="48.358362" lon="15.409594">
        <ele>206.263</ele>
        <time>2019-05-04T12:07:50Z</time>
      </trkpt>
      <trkpt lat="48.358378" lon="15.409761">
        <ele>206.321</ele>
        <time>2019-05-04T12:07:56Z</time>
      </trkpt>
      <trkpt lat="48.358421" lon="15.409827">
        <ele>206.627</ele>
        <time>2019-05-04T12:08:00Z</time>
      </trkpt>
      <trkpt lat="48.358417" lon="15.409858">
        <ele>206.668</ele>
        <time>2019-05-04T12:08:02Z</time>
      </trkpt>
      <trkpt lat="48.358404" lon="15.409844">
        <ele>206.514</ele>
        <time>2019-05-04T12:08:04Z</time>
      </trkpt>
      <trkpt lat="48.358398" lon="15.409829">
        <ele>206.508</ele>
        <time>2019-05-04T12:08:05Z</time>
      </trkpt>
      <trkpt lat="48.358378" lon="15.409771">
        <ele>206.395</ele>
        <time>2019-05-04T12:08:08Z</time>
      </trkpt>
      <trkpt lat="48.358347" lon="15.409714">
        <ele>206.148</ele>
        <time>2019-05-04T12:08:14Z</time>
      </trkpt>
      <trkpt lat="48.358244" lon="15.409758">
        <ele>205.472</ele>
        <time>2019-05-04T12:09:53Z</time>
      </trkpt>
      <trkpt lat="48.358185" lon="15.409775">
        <ele>204.987</ele>
        <time>2019-05-04T12:09:58Z</time>
      </trkpt>
      <trkpt lat="48.358250" lon="15.409826">
        <ele>205.481</ele>
        <time>2019-05-04T12:10:22Z</time>
      </trkpt>
      <trkpt lat="48.358260" lon="15.409870">
        <ele>205.557</ele>
        <time>2019-05-04T12:10:24Z</time>
      </trkpt>
      <trkpt lat="48.358267" lon="15.409893">
        <ele>205.580</ele>
        <time>2019-05-04T12:10:25Z</time>
      </trkpt>
      <trkpt lat="48.358281" lon="15.409911">
        <ele>205.618</ele>
        <time>2019-05-04T12:10:26Z</time>
      </trkpt>
      <trkpt lat="48.358293" lon="15.409925">
        <ele>205.717</ele>
        <time>2019-05-04T12:10:27Z</time>
      </trkpt>
      <trkpt lat="48.358306" lon="15.409933">
        <ele>205.887</ele>
        <time>2019-05-04T12:10:29Z</time>
      </trkpt>
      <trkpt lat="48.358311" lon="15.409937">
        <ele>205.815</ele>
        <time>2019-05-04T12:10:31Z</time>
      </trkpt>
      <trkpt lat="48.358272" lon="15.409914">
        <ele>205.608</ele>
        <time>2019-05-04T12:12:03Z</time>
      </trkpt>
      <trkpt lat="48.358284" lon="15.409956">
        <ele>205.654</ele>
        <time>2019-05-04T12:12:05Z</time>
      </trkpt>
      <trkpt lat="48.358293" lon="15.409980">
        <ele>205.727</ele>
        <time>2019-05-04T12:12:06Z</time>
      </trkpt>
      <trkpt lat="48.358352" lon="15.410132">
        <ele>206.191</ele>
        <time>2019-05-04T12:12:10Z</time>
      </trkpt>
      <trkpt lat="48.358372" lon="15.410177">
        <ele>206.286</ele>
        <time>2019-05-04T12:12:11Z</time>
      </trkpt>
      <trkpt lat="48.358430" lon="15.410323">
        <ele>206.390</ele>
        <time>2019-05-04T12:12:14Z</time>
      </trkpt>
      <trkpt lat="48.358482" lon="15.410464">
        <ele>206.216</ele>
        <time>2019-05-04T12:12:17Z</time>
      </trkpt>
      <trkpt lat="48.358499" lon="15.410511">
        <ele>206.139</ele>
        <time>2019-05-04T12:12:18Z</time>
      </trkpt>
      <trkpt lat="48.358586" lon="15.410717">
        <ele>205.467</ele>
        <time>2019-05-04T12:12:22Z</time>
      </trkpt>
      <trkpt lat="48.358610" lon="15.410771">
        <ele>205.253</ele>
        <time>2019-05-04T12:12:23Z</time>
      </trkpt>
      <trkpt lat="48.358631" lon="15.410828">
        <ele>205.104</ele>
        <time>2019-05-04T12:12:24Z</time>
      </trkpt>
      <trkpt lat="48.358696" lon="15.411005">
        <ele>204.514</ele>
        <time>2019-05-04T12:12:27Z</time>
      </trkpt>
      <trkpt lat="48.358758" lon="15.411179">
        <ele>203.808</ele>
        <time>2019-05-04T12:12:30Z</time>
      </trkpt>
      <trkpt lat="48.358885" lon="15.411540">
        <ele>202.438</ele>
        <time>2019-05-04T12:12:37Z</time>
      </trkpt>
      <trkpt lat="48.358903" lon="15.411586">
        <ele>202.421</ele>
        <time>2019-05-04T12:12:38Z</time>
      </trkpt>
      <trkpt lat="48.359009" lon="15.411881">
        <ele>202.925</ele>
        <time>2019-05-04T12:12:44Z</time>
      </trkpt>
      <trkpt lat="48.359090" lon="15.412103">
        <ele>202.790</ele>
        <time>2019-05-04T12:12:48Z</time>
      </trkpt>
      <trkpt lat="48.359135" lon="15.412219">
        <ele>202.794</ele>
        <time>2019-05-04T12:12:50Z</time>
      </trkpt>
      <trkpt lat="48.359161" lon="15.412272">
        <ele>202.950</ele>
        <time>2019-05-04T12:12:51Z</time>
      </trkpt>
      <trkpt lat="48.359243" lon="15.412439">
        <ele>203.113</ele>
        <time>2019-05-04T12:12:55Z</time>
      </trkpt>
      <trkpt lat="48.359339" lon="15.412675">
        <ele>202.481</ele>
        <time>2019-05-04T12:13:01Z</time>
      </trkpt>
      <trkpt lat="48.359433" lon="15.412900">
        <ele>201.111</ele>
        <time>2019-05-04T12:13:06Z</time>
      </trkpt>
      <trkpt lat="48.359626" lon="15.413306">
        <ele>200.721</ele>
        <time>2019-05-04T12:13:15Z</time>
      </trkpt>
      <trkpt lat="48.359648" lon="15.413347">
        <ele>200.703</ele>
        <time>2019-05-04T12:13:16Z</time>
      </trkpt>
      <trkpt lat="48.359670" lon="15.413386">
        <ele>200.708</ele>
        <time>2019-05-04T12:13:17Z</time>
      </trkpt>
      <trkpt lat="48.359763" lon="15.413574">
        <ele>200.314</ele>
        <time>2019-05-04T12:13:21Z</time>
      </trkpt>
      <trkpt lat="48.359789" lon="15.413636">
        <ele>200.357</ele>
        <time>2019-05-04T12:13:22Z</time>
      </trkpt>
      <trkpt lat="48.359843" lon="15.413757">
        <ele>200.721</ele>
        <time>2019-05-04T12:13:24Z</time>
      </trkpt>
      <trkpt lat="48.359898" lon="15.413884">
        <ele>201.346</ele>
        <time>2019-05-04T12:13:26Z</time>
      </trkpt>
      <trkpt lat="48.359923" lon="15.413949">
        <ele>201.670</ele>
        <time>2019-05-04T12:13:27Z</time>
      </trkpt>
      <trkpt lat="48.359953" lon="15.414009">
        <ele>202.026</ele>
        <time>2019-05-04T12:13:28Z</time>
      </trkpt>
      <trkpt lat="48.360115" lon="15.414282">
        <ele>202.639</ele>
        <time>2019-05-04T12:13:33Z</time>
      </trkpt>
      <trkpt lat="48.360261" lon="15.414486">
        <ele>202.297</ele>
        <time>2019-05-04T12:13:37Z</time>
      </trkpt>
      <trkpt lat="48.360334" lon="15.414586">
        <ele>202.896</ele>
        <time>2019-05-04T12:13:39Z</time>
      </trkpt>
      <trkpt lat="48.360407" lon="15.414682">
        <ele>203.431</ele>
        <time>2019-05-04T12:13:41Z</time>
      </trkpt>
      <trkpt lat="48.360483" lon="15.414776">
        <ele>203.724</ele>
        <time>2019-05-04T12:13:43Z</time>
      </trkpt>
      <trkpt lat="48.360519" lon="15.414824">
        <ele>204.008</ele>
        <time>2019-05-04T12:13:44Z</time>
      </trkpt>
      <trkpt lat="48.360557" lon="15.414874">
        <ele>204.562</ele>
        <time>2019-05-04T12:13:45Z</time>
      </trkpt>
      <trkpt lat="48.360636" lon="15.414970">
        <ele>204.995</ele>
        <time>2019-05-04T12:13:47Z</time>
      </trkpt>
      <trkpt lat="48.360820" lon="15.415219">
        <ele>205.669</ele>
        <time>2019-05-04T12:13:52Z</time>
      </trkpt>
      <trkpt lat="48.360858" lon="15.415270">
        <ele>206.044</ele>
        <time>2019-05-04T12:13:53Z</time>
      </trkpt>
      <trkpt lat="48.360934" lon="15.415372">
        <ele>204.778</ele>
        <time>2019-05-04T12:13:55Z</time>
      </trkpt>
      <trkpt lat="48.360975" lon="15.415417">
        <ele>204.564</ele>
        <time>2019-05-04T12:13:56Z</time>
      </trkpt>
      <trkpt lat="48.361092" lon="15.415580">
        <ele>205.757</ele>
        <time>2019-05-04T12:13:59Z</time>
      </trkpt>
      <trkpt lat="48.361174" lon="15.415682">
        <ele>206.145</ele>
        <time>2019-05-04T12:14:01Z</time>
      </trkpt>
      <trkpt lat="48.361331" lon="15.415908">
        <ele>203.821</ele>
        <time>2019-05-04T12:14:05Z</time>
      </trkpt>
      <trkpt lat="48.361369" lon="15.415967">
        <ele>203.141</ele>
        <time>2019-05-04T12:14:06Z</time>
      </trkpt>
      <trkpt lat="48.361408" lon="15.416027">
        <ele>202.605</ele>
        <time>2019-05-04T12:14:07Z</time>
      </trkpt>
      <trkpt lat="48.361527" lon="15.416189">
        <ele>201.608</ele>
        <time>2019-05-04T12:14:10Z</time>
      </trkpt>
      <trkpt lat="48.361609" lon="15.416297">
        <ele>201.295</ele>
        <time>2019-05-04T12:14:12Z</time>
      </trkpt>
      <trkpt lat="48.361693" lon="15.416396">
        <ele>201.258</ele>
        <time>2019-05-04T12:14:14Z</time>
      </trkpt>
      <trkpt lat="48.361773" lon="15.416494">
        <ele>201.462</ele>
        <time>2019-05-04T12:14:16Z</time>
      </trkpt>
      <trkpt lat="48.361815" lon="15.416541">
        <ele>201.527</ele>
        <time>2019-05-04T12:14:17Z</time>
      </trkpt>
      <trkpt lat="48.361897" lon="15.416634">
        <ele>201.881</ele>
        <time>2019-05-04T12:14:19Z</time>
      </trkpt>
      <trkpt lat="48.362097" lon="15.416919">
        <ele>203.577</ele>
        <time>2019-05-04T12:14:25Z</time>
      </trkpt>
      <trkpt lat="48.362131" lon="15.416959">
        <ele>203.730</ele>
        <time>2019-05-04T12:14:26Z</time>
      </trkpt>
      <trkpt lat="48.362230" lon="15.417071">
        <ele>204.038</ele>
        <time>2019-05-04T12:14:29Z</time>
      </trkpt>
      <trkpt lat="48.362260" lon="15.417113">
        <ele>203.845</ele>
        <time>2019-05-04T12:14:30Z</time>
      </trkpt>
      <trkpt lat="48.362350" lon="15.417221">
        <ele>203.147</ele>
        <time>2019-05-04T12:14:33Z</time>
      </trkpt>
      <trkpt lat="48.362428" lon="15.417327">
        <ele>202.111</ele>
        <time>2019-05-04T12:14:36Z</time>
      </trkpt>
      <trkpt lat="48.362477" lon="15.417398">
        <ele>201.508</ele>
        <time>2019-05-04T12:14:38Z</time>
      </trkpt>
      <trkpt lat="48.362664" lon="15.417638">
        <ele>201.317</ele>
        <time>2019-05-04T12:14:46Z</time>
      </trkpt>
      <trkpt lat="48.362690" lon="15.417658">
        <ele>201.320</ele>
        <time>2019-05-04T12:14:47Z</time>
      </trkpt>
      <trkpt lat="48.362717" lon="15.417676">
        <ele>201.334</ele>
        <time>2019-05-04T12:14:48Z</time>
      </trkpt>
      <trkpt lat="48.362739" lon="15.417683">
        <ele>201.369</ele>
        <time>2019-05-04T12:14:49Z</time>
      </trkpt>
      <trkpt lat="48.362752" lon="15.417674">
        <ele>201.393</ele>
        <time>2019-05-04T12:14:50Z</time>
      </trkpt>
      <trkpt lat="48.362732" lon="15.417641">
        <ele>201.439</ele>
        <time>2019-05-04T12:14:54Z</time>
      </trkpt>
      <trkpt lat="48.362710" lon="15.417662">
        <ele>201.372</ele>
        <time>2019-05-04T12:14:56Z</time>
      </trkpt>
      <trkpt lat="48.362709" lon="15.417706">
        <ele>201.220</ele>
        <time>2019-05-04T12:14:58Z</time>
      </trkpt>
      <trkpt lat="48.362806" lon="15.417834">
        <ele>201.331</ele>
        <time>2019-05-04T12:15:04Z</time>
      </trkpt>
      <trkpt lat="48.362962" lon="15.418004">
        <ele>203.061</ele>
        <time>2019-05-04T12:15:10Z</time>
      </trkpt>
      <trkpt lat="48.363078" lon="15.418157">
        <ele>204.407</ele>
        <time>2019-05-04T12:15:15Z</time>
      </trkpt>
      <trkpt lat="48.363262" lon="15.418372">
        <ele>204.708</ele>
        <time>2019-05-04T12:15:21Z</time>
      </trkpt>
      <trkpt lat="48.363483" lon="15.418660">
        <ele>202.656</ele>
        <time>2019-05-04T12:15:28Z</time>
      </trkpt>
      <trkpt lat="48.363676" lon="15.418896">
        <ele>201.819</ele>
        <time>2019-05-04T12:15:34Z</time>
      </trkpt>
      <trkpt lat="48.363708" lon="15.418938">
        <ele>201.853</ele>
        <time>2019-05-04T12:15:35Z</time>
      </trkpt>
      <trkpt lat="48.363883" lon="15.419160">
        <ele>202.018</ele>
        <time>2019-05-04T12:15:41Z</time>
      </trkpt>
      <trkpt lat="48.364099" lon="15.419408">
        <ele>202.382</ele>
        <time>2019-05-04T12:15:48Z</time>
      </trkpt>
      <trkpt lat="48.364167" lon="15.419489">
        <ele>201.888</ele>
        <time>2019-05-04T12:15:50Z</time>
      </trkpt>
      <trkpt lat="48.364263" lon="15.419627">
        <ele>201.771</ele>
        <time>2019-05-04T12:15:53Z</time>
      </trkpt>
      <trkpt lat="48.364296" lon="15.419673">
        <ele>201.659</ele>
        <time>2019-05-04T12:15:54Z</time>
      </trkpt>
      <trkpt lat="48.364487" lon="15.419949">
        <ele>202.266</ele>
        <time>2019-05-04T12:16:00Z</time>
      </trkpt>
      <trkpt lat="48.364741" lon="15.420350">
        <ele>204.229</ele>
        <time>2019-05-04T12:16:09Z</time>
      </trkpt>
      <trkpt lat="48.364858" lon="15.420586">
        <ele>203.321</ele>
        <time>2019-05-04T12:16:15Z</time>
      </trkpt>
      <trkpt lat="48.364922" lon="15.420724">
        <ele>202.308</ele>
        <time>2019-05-04T12:16:19Z</time>
      </trkpt>
      <trkpt lat="48.364958" lon="15.420810">
        <ele>202.479</ele>
        <time>2019-05-04T12:16:21Z</time>
      </trkpt>
      <trkpt lat="48.364997" lon="15.420903">
        <ele>203.222</ele>
        <time>2019-05-04T12:16:23Z</time>
      </trkpt>
      <trkpt lat="48.365057" lon="15.421063">
        <ele>203.426</ele>
        <time>2019-05-04T12:16:26Z</time>
      </trkpt>
      <trkpt lat="48.365144" lon="15.421279">
        <ele>202.181</ele>
        <time>2019-05-04T12:16:30Z</time>
      </trkpt>
      <trkpt lat="48.365179" lon="15.421391">
        <ele>202.255</ele>
        <time>2019-05-04T12:16:32Z</time>
      </trkpt>
      <trkpt lat="48.365271" lon="15.421808">
        <ele>204.971</ele>
        <time>2019-05-04T12:16:40Z</time>
      </trkpt>
      <trkpt lat="48.365335" lon="15.422197">
        <ele>200.594</ele>
        <time>2019-05-04T12:16:49Z</time>
      </trkpt>
      <trkpt lat="48.365381" lon="15.422441">
        <ele>200.322</ele>
        <time>2019-05-04T12:16:56Z</time>
      </trkpt>
      <trkpt lat="48.365433" lon="15.422581">
        <ele>200.254</ele>
        <time>2019-05-04T12:16:59Z</time>
      </trkpt>
      <trkpt lat="48.365478" lon="15.422675">
        <ele>199.856</ele>
        <time>2019-05-04T12:17:01Z</time>
      </trkpt>
      <trkpt lat="48.365580" lon="15.422928">
        <ele>199.511</ele>
        <time>2019-05-04T12:17:06Z</time>
      </trkpt>
      <trkpt lat="48.365626" lon="15.423032">
        <ele>200.508</ele>
        <time>2019-05-04T12:17:08Z</time>
      </trkpt>
      <trkpt lat="48.365649" lon="15.423084">
        <ele>201.178</ele>
        <time>2019-05-04T12:17:09Z</time>
      </trkpt>
      <trkpt lat="48.365781" lon="15.423353">
        <ele>204.761</ele>
        <time>2019-05-04T12:17:14Z</time>
      </trkpt>
      <trkpt lat="48.365959" lon="15.423744">
        <ele>206.095</ele>
        <time>2019-05-04T12:17:21Z</time>
      </trkpt>
      <trkpt lat="48.365985" lon="15.423792">
        <ele>205.870</ele>
        <time>2019-05-04T12:17:22Z</time>
      </trkpt>
      <trkpt lat="48.366095" lon="15.423975">
        <ele>204.364</ele>
        <time>2019-05-04T12:17:26Z</time>
      </trkpt>
      <trkpt lat="48.366125" lon="15.424025">
        <ele>203.910</ele>
        <time>2019-05-04T12:17:27Z</time>
      </trkpt>
      <trkpt lat="48.366238" lon="15.424223">
        <ele>201.653</ele>
        <time>2019-05-04T12:17:31Z</time>
      </trkpt>
      <trkpt lat="48.366294" lon="15.424336">
        <ele>200.471</ele>
        <time>2019-05-04T12:17:33Z</time>
      </trkpt>
      <trkpt lat="48.366408" lon="15.424572">
        <ele>200.063</ele>
        <time>2019-05-04T12:17:37Z</time>
      </trkpt>
      <trkpt lat="48.366457" lon="15.424700">
        <ele>200.044</ele>
        <time>2019-05-04T12:17:39Z</time>
      </trkpt>
      <trkpt lat="48.366507" lon="15.424830">
        <ele>199.818</ele>
        <time>2019-05-04T12:17:41Z</time>
      </trkpt>
      <trkpt lat="48.366556" lon="15.424958">
        <ele>199.708</ele>
        <time>2019-05-04T12:17:43Z</time>
      </trkpt>
      <trkpt lat="48.366580" lon="15.425022">
        <ele>199.959</ele>
        <time>2019-05-04T12:17:44Z</time>
      </trkpt>
      <trkpt lat="48.366629" lon="15.425142">
        <ele>201.262</ele>
        <time>2019-05-04T12:17:46Z</time>
      </trkpt>
      <trkpt lat="48.366703" lon="15.425317">
        <ele>202.396</ele>
        <time>2019-05-04T12:17:49Z</time>
      </trkpt>
      <trkpt lat="48.366903" lon="15.425809">
        <ele>202.321</ele>
        <time>2019-05-04T12:17:58Z</time>
      </trkpt>
      <trkpt lat="48.367029" lon="15.425864">
        <ele>202.495</ele>
        <time>2019-05-04T12:18:02Z</time>
      </trkpt>
      <trkpt lat="48.367129" lon="15.425859">
        <ele>202.251</ele>
        <time>2019-05-04T12:18:05Z</time>
      </trkpt>
      <trkpt lat="48.367247" lon="15.425844">
        <ele>202.384</ele>
        <time>2019-05-04T12:18:08Z</time>
      </trkpt>
      <trkpt lat="48.367377" lon="15.425850">
        <ele>203.732</ele>
        <time>2019-05-04T12:18:11Z</time>
      </trkpt>
      <trkpt lat="48.367460" lon="15.425888">
        <ele>204.623</ele>
        <time>2019-05-04T12:18:13Z</time>
      </trkpt>
      <trkpt lat="48.367496" lon="15.425917">
        <ele>205.083</ele>
        <time>2019-05-04T12:18:14Z</time>
      </trkpt>
      <trkpt lat="48.367684" lon="15.426101">
        <ele>205.711</ele>
        <time>2019-05-04T12:18:19Z</time>
      </trkpt>
      <trkpt lat="48.367794" lon="15.426218">
        <ele>205.408</ele>
        <time>2019-05-04T12:18:22Z</time>
      </trkpt>
      <trkpt lat="48.367876" lon="15.426349">
        <ele>205.625</ele>
        <time>2019-05-04T12:18:25Z</time>
      </trkpt>
      <trkpt lat="48.367948" lon="15.426535">
        <ele>205.258</ele>
        <time>2019-05-04T12:18:29Z</time>
      </trkpt>
      <trkpt lat="48.367974" lon="15.426577">
        <ele>205.332</ele>
        <time>2019-05-04T12:18:30Z</time>
      </trkpt>
      <trkpt lat="48.368004" lon="15.426617">
        <ele>205.597</ele>
        <time>2019-05-04T12:18:31Z</time>
      </trkpt>
      <trkpt lat="48.368101" lon="15.426755">
        <ele>206.641</ele>
        <time>2019-05-04T12:18:34Z</time>
      </trkpt>
      <trkpt lat="48.368135" lon="15.426812">
        <ele>207.177</ele>
        <time>2019-05-04T12:18:35Z</time>
      </trkpt>
      <trkpt lat="48.368192" lon="15.426959">
        <ele>207.330</ele>
        <time>2019-05-04T12:18:37Z</time>
      </trkpt>
      <trkpt lat="48.368217" lon="15.427035">
        <ele>207.178</ele>
        <time>2019-05-04T12:18:38Z</time>
      </trkpt>
      <trkpt lat="48.368370" lon="15.427584">
        <ele>205.279</ele>
        <time>2019-05-04T12:18:44Z</time>
      </trkpt>
      <trkpt lat="48.368427" lon="15.427766">
        <ele>206.105</ele>
        <time>2019-05-04T12:18:46Z</time>
      </trkpt>
      <trkpt lat="48.368487" lon="15.427941">
        <ele>206.125</ele>
        <time>2019-05-04T12:18:48Z</time>
      </trkpt>
      <trkpt lat="48.368612" lon="15.428396">
        <ele>205.808</ele>
        <time>2019-05-04T12:18:53Z</time>
      </trkpt>
      <trkpt lat="48.368637" lon="15.428484">
        <ele>206.780</ele>
        <time>2019-05-04T12:18:54Z</time>
      </trkpt>
      <trkpt lat="48.368703" lon="15.428771">
        <ele>205.993</ele>
        <time>2019-05-04T12:18:57Z</time>
      </trkpt>
      <trkpt lat="48.368727" lon="15.428868">
        <ele>205.077</ele>
        <time>2019-05-04T12:18:58Z</time>
      </trkpt>
      <trkpt lat="48.368755" lon="15.428957">
        <ele>205.142</ele>
        <time>2019-05-04T12:18:59Z</time>
      </trkpt>
      <trkpt lat="48.368826" lon="15.429230">
        <ele>204.966</ele>
        <time>2019-05-04T12:19:02Z</time>
      </trkpt>
      <trkpt lat="48.368848" lon="15.429319">
        <ele>205.022</ele>
        <time>2019-05-04T12:19:03Z</time>
      </trkpt>
      <trkpt lat="48.368922" lon="15.429679">
        <ele>207.975</ele>
        <time>2019-05-04T12:19:07Z</time>
      </trkpt>
      <trkpt lat="48.368937" lon="15.429766">
        <ele>208.633</ele>
        <time>2019-05-04T12:19:08Z</time>
      </trkpt>
      <trkpt lat="48.369005" lon="15.430112">
        <ele>210.681</ele>
        <time>2019-05-04T12:19:12Z</time>
      </trkpt>
      <trkpt lat="48.369040" lon="15.430280">
        <ele>211.361</ele>
        <time>2019-05-04T12:19:14Z</time>
      </trkpt>
      <trkpt lat="48.369150" lon="15.430837">
        <ele>208.117</ele>
        <time>2019-05-04T12:19:20Z</time>
      </trkpt>
      <trkpt lat="48.369261" lon="15.431263">
        <ele>212.908</ele>
        <time>2019-05-04T12:19:25Z</time>
      </trkpt>
      <trkpt lat="48.369306" lon="15.431443">
        <ele>214.091</ele>
        <time>2019-05-04T12:19:27Z</time>
      </trkpt>
      <trkpt lat="48.369370" lon="15.431714">
        <ele>213.314</ele>
        <time>2019-05-04T12:19:30Z</time>
      </trkpt>
      <trkpt lat="48.369545" lon="15.432416">
        <ele>206.658</ele>
        <time>2019-05-04T12:19:38Z</time>
      </trkpt>
      <trkpt lat="48.369686" lon="15.432917">
        <ele>208.373</ele>
        <time>2019-05-04T12:19:44Z</time>
      </trkpt>
      <trkpt lat="48.369844" lon="15.433418">
        <ele>208.477</ele>
        <time>2019-05-04T12:19:50Z</time>
      </trkpt>
      <trkpt lat="48.369873" lon="15.433501">
        <ele>208.283</ele>
        <time>2019-05-04T12:19:51Z</time>
      </trkpt>
      <trkpt lat="48.369927" lon="15.433669">
        <ele>206.746</ele>
        <time>2019-05-04T12:19:53Z</time>
      </trkpt>
      <trkpt lat="48.369998" lon="15.433919">
        <ele>204.894</ele>
        <time>2019-05-04T12:19:56Z</time>
      </trkpt>
      <trkpt lat="48.370024" lon="15.433997">
        <ele>205.515</ele>
        <time>2019-05-04T12:19:57Z</time>
      </trkpt>
      <trkpt lat="48.370107" lon="15.434266">
        <ele>208.165</ele>
        <time>2019-05-04T12:20:01Z</time>
      </trkpt>
      <trkpt lat="48.370137" lon="15.434381">
        <ele>208.911</ele>
        <time>2019-05-04T12:20:03Z</time>
      </trkpt>
      <trkpt lat="48.370187" lon="15.434650">
        <ele>211.608</ele>
        <time>2019-05-04T12:20:07Z</time>
      </trkpt>
      <trkpt lat="48.370199" lon="15.434717">
        <ele>212.334</ele>
        <time>2019-05-04T12:20:08Z</time>
      </trkpt>
      <trkpt lat="48.370232" lon="15.434934">
        <ele>214.257</ele>
        <time>2019-05-04T12:20:11Z</time>
      </trkpt>
      <trkpt lat="48.370239" lon="15.435003">
        <ele>214.611</ele>
        <time>2019-05-04T12:20:12Z</time>
      </trkpt>
      <trkpt lat="48.370252" lon="15.435064">
        <ele>214.746</ele>
        <time>2019-05-04T12:20:13Z</time>
      </trkpt>
      <trkpt lat="48.370264" lon="15.435124">
        <ele>214.930</ele>
        <time>2019-05-04T12:20:14Z</time>
      </trkpt>
      <trkpt lat="48.370307" lon="15.435311">
        <ele>215.686</ele>
        <time>2019-05-04T12:20:17Z</time>
      </trkpt>
      <trkpt lat="48.370344" lon="15.435522">
        <ele>214.369</ele>
        <time>2019-05-04T12:20:20Z</time>
      </trkpt>
      <trkpt lat="48.370390" lon="15.435764">
        <ele>215.217</ele>
        <time>2019-05-04T12:20:23Z</time>
      </trkpt>
      <trkpt lat="48.370426" lon="15.435944">
        <ele>213.669</ele>
        <time>2019-05-04T12:20:25Z</time>
      </trkpt>
      <trkpt lat="48.370456" lon="15.436132">
        <ele>211.204</ele>
        <time>2019-05-04T12:20:27Z</time>
      </trkpt>
      <trkpt lat="48.370502" lon="15.436432">
        <ele>213.924</ele>
        <time>2019-05-04T12:20:30Z</time>
      </trkpt>
      <trkpt lat="48.370538" lon="15.436634">
        <ele>213.008</ele>
        <time>2019-05-04T12:20:32Z</time>
      </trkpt>
      <trkpt lat="48.370565" lon="15.436838">
        <ele>212.079</ele>
        <time>2019-05-04T12:20:34Z</time>
      </trkpt>
      <trkpt lat="48.370602" lon="15.437035">
        <ele>209.872</ele>
        <time>2019-05-04T12:20:36Z</time>
      </trkpt>
      <trkpt lat="48.370693" lon="15.437436">
        <ele>203.946</ele>
        <time>2019-05-04T12:20:40Z</time>
      </trkpt>
      <trkpt lat="48.370721" lon="15.437543">
        <ele>203.551</ele>
        <time>2019-05-04T12:20:41Z</time>
      </trkpt>
      <trkpt lat="48.370781" lon="15.437757">
        <ele>204.775</ele>
        <time>2019-05-04T12:20:43Z</time>
      </trkpt>
      <trkpt lat="48.370889" lon="15.438077">
        <ele>208.121</ele>
        <time>2019-05-04T12:20:46Z</time>
      </trkpt>
      <trkpt lat="48.371035" lon="15.438486">
        <ele>210.964</ele>
        <time>2019-05-04T12:20:50Z</time>
      </trkpt>
      <trkpt lat="48.371116" lon="15.438674">
        <ele>211.042</ele>
        <time>2019-05-04T12:20:52Z</time>
      </trkpt>
      <trkpt lat="48.371244" lon="15.438926">
        <ele>210.141</ele>
        <time>2019-05-04T12:20:55Z</time>
      </trkpt>
      <trkpt lat="48.371288" lon="15.439005">
        <ele>208.981</ele>
        <time>2019-05-04T12:20:56Z</time>
      </trkpt>
      <trkpt lat="48.371331" lon="15.439083">
        <ele>208.709</ele>
        <time>2019-05-04T12:20:57Z</time>
      </trkpt>
      <trkpt lat="48.371493" lon="15.439408">
        <ele>208.108</ele>
        <time>2019-05-04T12:21:01Z</time>
      </trkpt>
      <trkpt lat="48.371557" lon="15.439535">
        <ele>206.767</ele>
        <time>2019-05-04T12:21:03Z</time>
      </trkpt>
      <trkpt lat="48.371663" lon="15.439676">
        <ele>207.230</ele>
        <time>2019-05-04T12:21:08Z</time>
      </trkpt>
      <trkpt lat="48.371720" lon="15.439803">
        <ele>207.484</ele>
        <time>2019-05-04T12:21:12Z</time>
      </trkpt>
      <trkpt lat="48.371751" lon="15.439893">
        <ele>207.439</ele>
        <time>2019-05-04T12:21:15Z</time>
      </trkpt>
      <trkpt lat="48.371802" lon="15.440072">
        <ele>206.943</ele>
        <time>2019-05-04T12:21:23Z</time>
      </trkpt>
      <trkpt lat="48.371861" lon="15.440227">
        <ele>206.569</ele>
        <time>2019-05-04T12:21:29Z</time>
      </trkpt>
      <trkpt lat="48.371921" lon="15.440396">
        <ele>205.032</ele>
        <time>2019-05-04T12:21:36Z</time>
      </trkpt>
      <trkpt lat="48.371929" lon="15.440419">
        <ele>204.770</ele>
        <time>2019-05-04T12:21:37Z</time>
      </trkpt>
      <trkpt lat="48.371989" lon="15.440576">
        <ele>203.266</ele>
        <time>2019-05-04T12:21:44Z</time>
      </trkpt>
      <trkpt lat="48.372019" lon="15.440686">
        <ele>202.529</ele>
        <time>2019-05-04T12:21:47Z</time>
      </trkpt>
      <trkpt lat="48.372047" lon="15.440773">
        <ele>201.921</ele>
        <time>2019-05-04T12:21:49Z</time>
      </trkpt>
      <trkpt lat="48.372137" lon="15.441023">
        <ele>200.708</ele>
        <time>2019-05-04T12:21:54Z</time>
      </trkpt>
      <trkpt lat="48.372154" lon="15.441071">
        <ele>200.519</ele>
        <time>2019-05-04T12:21:55Z</time>
      </trkpt>
      <trkpt lat="48.372186" lon="15.441162">
        <ele>200.582</ele>
        <time>2019-05-04T12:21:57Z</time>
      </trkpt>
      <trkpt lat="48.372220" lon="15.441262">
        <ele>201.146</ele>
        <time>2019-05-04T12:21:59Z</time>
      </trkpt>
      <trkpt lat="48.372334" lon="15.441573">
        <ele>202.181</ele>
        <time>2019-05-04T12:22:05Z</time>
      </trkpt>
      <trkpt lat="48.372412" lon="15.441789">
        <ele>201.945</ele>
        <time>2019-05-04T12:22:09Z</time>
      </trkpt>
      <trkpt lat="48.372451" lon="15.441908">
        <ele>201.951</ele>
        <time>2019-05-04T12:22:11Z</time>
      </trkpt>
      <trkpt lat="48.372543" lon="15.442154">
        <ele>202.364</ele>
        <time>2019-05-04T12:22:15Z</time>
      </trkpt>
      <trkpt lat="48.372594" lon="15.442300">
        <ele>202.342</ele>
        <time>2019-05-04T12:22:17Z</time>
      </trkpt>
      <trkpt lat="48.372649" lon="15.442456">
        <ele>201.936</ele>
        <time>2019-05-04T12:22:19Z</time>
      </trkpt>
      <trkpt lat="48.372781" lon="15.442872">
        <ele>199.717</ele>
        <time>2019-05-04T12:22:24Z</time>
      </trkpt>
      <trkpt lat="48.372841" lon="15.443052">
        <ele>199.218</ele>
        <time>2019-05-04T12:22:26Z</time>
      </trkpt>
      <trkpt lat="48.372979" lon="15.443390">
        <ele>199.108</ele>
        <time>2019-05-04T12:22:30Z</time>
      </trkpt>
      <trkpt lat="48.373035" lon="15.443556">
        <ele>199.736</ele>
        <time>2019-05-04T12:22:32Z</time>
      </trkpt>
      <trkpt lat="48.373065" lon="15.443641">
        <ele>200.039</ele>
        <time>2019-05-04T12:22:33Z</time>
      </trkpt>
      <trkpt lat="48.373211" lon="15.444017">
        <ele>200.363</ele>
        <time>2019-05-04T12:22:38Z</time>
      </trkpt>
      <trkpt lat="48.373406" lon="15.444432">
        <ele>199.638</ele>
        <time>2019-05-04T12:22:44Z</time>
      </trkpt>
      <trkpt lat="48.373595" lon="15.444905">
        <ele>202.482</ele>
        <time>2019-05-04T12:22:50Z</time>
      </trkpt>
      <trkpt lat="48.373758" lon="15.445258">
        <ele>204.348</ele>
        <time>2019-05-04T12:22:55Z</time>
      </trkpt>
      <trkpt lat="48.373954" lon="15.445626">
        <ele>200.071</ele>
        <time>2019-05-04T12:23:01Z</time>
      </trkpt>
      <trkpt lat="48.374119" lon="15.445945">
        <ele>198.069</ele>
        <time>2019-05-04T12:23:06Z</time>
      </trkpt>
      <trkpt lat="48.374205" lon="15.446137">
        <ele>199.052</ele>
        <time>2019-05-04T12:23:09Z</time>
      </trkpt>
      <trkpt lat="48.374286" lon="15.446320">
        <ele>198.453</ele>
        <time>2019-05-04T12:23:12Z</time>
      </trkpt>
      <trkpt lat="48.374395" lon="15.446519">
        <ele>197.408</ele>
        <time>2019-05-04T12:23:16Z</time>
      </trkpt>
      <trkpt lat="48.374424" lon="15.446571">
        <ele>197.108</ele>
        <time>2019-05-04T12:23:17Z</time>
      </trkpt>
      <trkpt lat="48.374452" lon="15.446626">
        <ele>197.088</ele>
        <time>2019-05-04T12:23:18Z</time>
      </trkpt>
      <trkpt lat="48.374608" lon="15.446938">
        <ele>197.871</ele>
        <time>2019-05-04T12:23:23Z</time>
      </trkpt>
      <trkpt lat="48.374740" lon="15.447191">
        <ele>198.755</ele>
        <time>2019-05-04T12:23:27Z</time>
      </trkpt>
      <trkpt lat="48.374805" lon="15.447317">
        <ele>198.850</ele>
        <time>2019-05-04T12:23:29Z</time>
      </trkpt>
      <trkpt lat="48.374839" lon="15.447379">
        <ele>198.854</ele>
        <time>2019-05-04T12:23:30Z</time>
      </trkpt>
      <trkpt lat="48.374873" lon="15.447444">
        <ele>198.990</ele>
        <time>2019-05-04T12:23:31Z</time>
      </trkpt>
      <trkpt lat="48.374978" lon="15.447637">
        <ele>199.513</ele>
        <time>2019-05-04T12:23:34Z</time>
      </trkpt>
      <trkpt lat="48.375140" lon="15.447986">
        <ele>200.091</ele>
        <time>2019-05-04T12:23:39Z</time>
      </trkpt>
      <trkpt lat="48.375177" lon="15.448054">
        <ele>199.748</ele>
        <time>2019-05-04T12:23:40Z</time>
      </trkpt>
      <trkpt lat="48.375370" lon="15.448381">
        <ele>199.361</ele>
        <time>2019-05-04T12:23:45Z</time>
      </trkpt>
      <trkpt lat="48.375414" lon="15.448443">
        <ele>199.517</ele>
        <time>2019-05-04T12:23:46Z</time>
      </trkpt>
      <trkpt lat="48.375659" lon="15.448764">
        <ele>199.608</ele>
        <time>2019-05-04T12:23:52Z</time>
      </trkpt>
      <trkpt lat="48.375906" lon="15.449143">
        <ele>199.767</ele>
        <time>2019-05-04T12:23:58Z</time>
      </trkpt>
      <trkpt lat="48.376144" lon="15.449484">
        <ele>199.270</ele>
        <time>2019-05-04T12:24:04Z</time>
      </trkpt>
      <trkpt lat="48.376179" lon="15.449546">
        <ele>199.514</ele>
        <time>2019-05-04T12:24:05Z</time>
      </trkpt>
      <trkpt lat="48.376342" lon="15.449796">
        <ele>198.869</ele>
        <time>2019-05-04T12:24:09Z</time>
      </trkpt>
      <trkpt lat="48.376386" lon="15.449854">
        <ele>198.533</ele>
        <time>2019-05-04T12:24:10Z</time>
      </trkpt>
      <trkpt lat="48.376515" lon="15.450043">
        <ele>198.819</ele>
        <time>2019-05-04T12:24:13Z</time>
      </trkpt>
      <trkpt lat="48.376605" lon="15.450168">
        <ele>199.022</ele>
        <time>2019-05-04T12:24:15Z</time>
      </trkpt>
      <trkpt lat="48.376852" lon="15.450451">
        <ele>198.240</ele>
        <time>2019-05-04T12:24:20Z</time>
      </trkpt>
      <trkpt lat="48.377125" lon="15.450722">
        <ele>199.027</ele>
        <time>2019-05-04T12:24:26Z</time>
      </trkpt>
      <trkpt lat="48.377164" lon="15.450767">
        <ele>199.168</ele>
        <time>2019-05-04T12:24:27Z</time>
      </trkpt>
      <trkpt lat="48.377291" lon="15.450910">
        <ele>199.914</ele>
        <time>2019-05-04T12:24:30Z</time>
      </trkpt>
      <trkpt lat="48.377422" lon="15.451065">
        <ele>200.808</ele>
        <time>2019-05-04T12:24:33Z</time>
      </trkpt>
      <trkpt lat="48.377549" lon="15.451223">
        <ele>201.485</ele>
        <time>2019-05-04T12:24:36Z</time>
      </trkpt>
      <trkpt lat="48.377807" lon="15.451507">
        <ele>201.188</ele>
        <time>2019-05-04T12:24:42Z</time>
      </trkpt>
      <trkpt lat="48.378045" lon="15.451752">
        <ele>201.392</ele>
        <time>2019-05-04T12:24:47Z</time>
      </trkpt>
      <trkpt lat="48.378192" lon="15.451921">
        <ele>201.517</ele>
        <time>2019-05-04T12:24:50Z</time>
      </trkpt>
      <trkpt lat="48.378240" lon="15.451971">
        <ele>201.551</ele>
        <time>2019-05-04T12:24:51Z</time>
      </trkpt>
      <trkpt lat="48.378348" lon="15.452097">
        <ele>201.517</ele>
        <time>2019-05-04T12:24:53Z</time>
      </trkpt>
      <trkpt lat="48.378452" lon="15.452219">
        <ele>201.640</ele>
        <time>2019-05-04T12:24:55Z</time>
      </trkpt>
      <trkpt lat="48.378582" lon="15.452364">
        <ele>201.758</ele>
        <time>2019-05-04T12:24:58Z</time>
      </trkpt>
      <trkpt lat="48.378668" lon="15.452475">
        <ele>202.369</ele>
        <time>2019-05-04T12:25:00Z</time>
      </trkpt>
      <trkpt lat="48.378854" lon="15.452707">
        <ele>203.904</ele>
        <time>2019-05-04T12:25:04Z</time>
      </trkpt>
      <trkpt lat="48.379053" lon="15.452997">
        <ele>204.124</ele>
        <time>2019-05-04T12:25:08Z</time>
      </trkpt>
      <trkpt lat="48.379112" lon="15.453135">
        <ele>203.508</ele>
        <time>2019-05-04T12:25:09Z</time>
      </trkpt>
      <trkpt lat="48.379163" lon="15.453241">
        <ele>202.719</ele>
        <time>2019-05-04T12:25:10Z</time>
      </trkpt>
      <trkpt lat="48.379211" lon="15.453344">
        <ele>202.222</ele>
        <time>2019-05-04T12:25:11Z</time>
      </trkpt>
      <trkpt lat="48.379422" lon="15.453742">
        <ele>201.626</ele>
        <time>2019-05-04T12:25:16Z</time>
      </trkpt>
      <trkpt lat="48.379494" lon="15.453878">
        <ele>201.431</ele>
        <time>2019-05-04T12:25:18Z</time>
      </trkpt>
      <trkpt lat="48.379557" lon="15.454017">
        <ele>201.915</ele>
        <time>2019-05-04T12:25:20Z</time>
      </trkpt>
      <trkpt lat="48.379584" lon="15.454069">
        <ele>202.051</ele>
        <time>2019-05-04T12:25:21Z</time>
      </trkpt>
      <trkpt lat="48.379607" lon="15.454109">
        <ele>202.044</ele>
        <time>2019-05-04T12:25:22Z</time>
      </trkpt>
      <trkpt lat="48.379626" lon="15.454164">
        <ele>202.022</ele>
        <time>2019-05-04T12:25:23Z</time>
      </trkpt>
      <trkpt lat="48.379644" lon="15.454198">
        <ele>202.136</ele>
        <time>2019-05-04T12:25:24Z</time>
      </trkpt>
      <trkpt lat="48.379657" lon="15.454217">
        <ele>202.117</ele>
        <time>2019-05-04T12:25:25Z</time>
      </trkpt>
      <trkpt lat="48.379661" lon="15.454239">
        <ele>202.118</ele>
        <time>2019-05-04T12:25:26Z</time>
      </trkpt>
      <trkpt lat="48.379659" lon="15.454266">
        <ele>202.208</ele>
        <time>2019-05-04T12:25:29Z</time>
      </trkpt>
      <trkpt lat="48.379647" lon="15.454228">
        <ele>202.196</ele>
        <time>2019-05-04T12:27:06Z</time>
      </trkpt>
      <trkpt lat="48.379648" lon="15.454196">
        <ele>202.169</ele>
        <time>2019-05-04T12:27:07Z</time>
      </trkpt>
      <trkpt lat="48.379605" lon="15.454045">
        <ele>202.153</ele>
        <time>2019-05-04T12:27:11Z</time>
      </trkpt>
      <trkpt lat="48.379611" lon="15.453900">
        <ele>202.298</ele>
        <time>2019-05-04T12:27:15Z</time>
      </trkpt>
      <trkpt lat="48.379645" lon="15.453801">
        <ele>202.842</ele>
        <time>2019-05-04T12:27:19Z</time>
      </trkpt>
      <trkpt lat="48.379665" lon="15.453754">
        <ele>203.158</ele>
        <time>2019-05-04T12:27:21Z</time>
      </trkpt>
      <trkpt lat="48.379747" lon="15.453528">
        <ele>204.561</ele>
        <time>2019-05-04T12:27:29Z</time>
      </trkpt>
      <trkpt lat="48.379758" lon="15.453502">
        <ele>204.769</ele>
        <time>2019-05-04T12:27:30Z</time>
      </trkpt>
      <trkpt lat="48.379844" lon="15.453358">
        <ele>205.812</ele>
        <time>2019-05-04T12:27:36Z</time>
      </trkpt>
      <trkpt lat="48.379862" lon="15.453339">
        <ele>206.032</ele>
        <time>2019-05-04T12:27:37Z</time>
      </trkpt>
      <trkpt lat="48.379900" lon="15.453295">
        <ele>206.405</ele>
        <time>2019-05-04T12:27:40Z</time>
      </trkpt>
      <trkpt lat="48.379914" lon="15.453298">
        <ele>206.508</ele>
        <time>2019-05-04T12:27:41Z</time>
      </trkpt>
      <trkpt lat="48.379925" lon="15.453307">
        <ele>206.584</ele>
        <time>2019-05-04T12:27:42Z</time>
      </trkpt>
      <trkpt lat="48.379928" lon="15.453312">
        <ele>206.587</ele>
        <time>2019-05-04T12:27:43Z</time>
      </trkpt>
      <trkpt lat="48.379929" lon="15.453312">
        <ele>206.591</ele>
        <time>2019-05-04T12:27:44Z</time>
      </trkpt>
      <trkpt lat="48.379988" lon="15.453196">
        <ele>207.476</ele>
        <time>2019-05-04T12:30:09Z</time>
      </trkpt>
      <trkpt lat="48.380053" lon="15.453084">
        <ele>208.320</ele>
        <time>2019-05-04T12:30:14Z</time>
      </trkpt>
      <trkpt lat="48.380096" lon="15.453012">
        <ele>208.756</ele>
        <time>2019-05-04T12:30:17Z</time>
      </trkpt>
      <trkpt lat="48.380114" lon="15.452947">
        <ele>208.859</ele>
        <time>2019-05-04T12:30:19Z</time>
      </trkpt>
      <trkpt lat="48.380200" lon="15.452847">
        <ele>209.487</ele>
        <time>2019-05-04T12:30:24Z</time>
      </trkpt>
      <trkpt lat="48.380276" lon="15.452752">
        <ele>210.153</ele>
        <time>2019-05-04T12:30:31Z</time>
      </trkpt>
      <trkpt lat="48.380328" lon="15.452680">
        <ele>210.404</ele>
        <time>2019-05-04T12:30:38Z</time>
      </trkpt>
      <trkpt lat="48.380328" lon="15.452676">
        <ele>210.414</ele>
        <time>2019-05-04T12:30:39Z</time>
      </trkpt>
      <trkpt lat="48.380397" lon="15.452690">
        <ele>210.308</ele>
        <time>2019-05-04T12:32:33Z</time>
      </trkpt>
      <trkpt lat="48.380432" lon="15.452741">
        <ele>210.188</ele>
        <time>2019-05-04T12:32:35Z</time>
      </trkpt>
      <trkpt lat="48.380464" lon="15.452809">
        <ele>210.061</ele>
        <time>2019-05-04T12:32:37Z</time>
      </trkpt>
      <trkpt lat="48.380604" lon="15.452982">
        <ele>209.945</ele>
        <time>2019-05-04T12:32:42Z</time>
      </trkpt>
      <trkpt lat="48.380710" lon="15.453098">
        <ele>209.490</ele>
        <time>2019-05-04T12:32:47Z</time>
      </trkpt>
      <trkpt lat="48.380850" lon="15.453311">
        <ele>209.164</ele>
        <time>2019-05-04T12:32:54Z</time>
      </trkpt>
      <trkpt lat="48.380990" lon="15.453494">
        <ele>209.650</ele>
        <time>2019-05-04T12:33:01Z</time>
      </trkpt>
      <trkpt lat="48.381082" lon="15.453622">
        <ele>209.993</ele>
        <time>2019-05-04T12:33:06Z</time>
      </trkpt>
      <trkpt lat="48.381092" lon="15.453652">
        <ele>209.951</ele>
        <time>2019-05-04T12:33:08Z</time>
      </trkpt>
      <trkpt lat="48.380952" lon="15.453531">
        <ele>209.476</ele>
        <time>2019-05-04T12:34:24Z</time>
      </trkpt>
      <trkpt lat="48.380936" lon="15.453505">
        <ele>209.490</ele>
        <time>2019-05-04T12:34:25Z</time>
      </trkpt>
      <trkpt lat="48.380830" lon="15.453365">
        <ele>209.019</ele>
        <time>2019-05-04T12:34:32Z</time>
      </trkpt>
      <trkpt lat="48.380817" lon="15.453346">
        <ele>209.108</ele>
        <time>2019-05-04T12:34:33Z</time>
      </trkpt>
      <trkpt lat="48.380774" lon="15.453278">
        <ele>209.250</ele>
        <time>2019-05-04T12:34:39Z</time>
      </trkpt>
      <trkpt lat="48.380777" lon="15.453274">
        <ele>209.253</ele>
        <time>2019-05-04T12:34:40Z</time>
      </trkpt>
      <trkpt lat="48.380858" lon="15.453342">
        <ele>209.187</ele>
        <time>2019-05-04T12:34:48Z</time>
      </trkpt>
      <trkpt lat="48.380870" lon="15.453351">
        <ele>209.142</ele>
        <time>2019-05-04T12:34:51Z</time>
      </trkpt>
      <trkpt lat="48.380881" lon="15.453356">
        <ele>209.296</ele>
        <time>2019-05-04T12:34:52Z</time>
      </trkpt>
      <trkpt lat="48.380893" lon="15.453278">
        <ele>209.222</ele>
        <time>2019-05-04T13:44:01Z</time>
      </trkpt>
      <trkpt lat="48.380879" lon="15.453350">
        <ele>209.275</ele>
        <time>2019-05-04T13:44:04Z</time>
      </trkpt>
      <trkpt lat="48.380838" lon="15.453483">
        <ele>209.043</ele>
        <time>2019-05-04T13:44:10Z</time>
      </trkpt>
      <trkpt lat="48.380843" lon="15.453512">
        <ele>209.063</ele>
        <time>2019-05-04T13:44:11Z</time>
      </trkpt>
      <trkpt lat="48.380839" lon="15.453508">
        <ele>209.044</ele>
        <time>2019-05-04T13:44:14Z</time>
      </trkpt>
      <trkpt lat="48.380811" lon="15.453518">
        <ele>209.018</ele>
        <time>2019-05-04T13:44:15Z</time>
      </trkpt>
      <trkpt lat="48.380799" lon="15.453518">
        <ele>209.008</ele>
        <time>2019-05-04T13:44:17Z</time>
      </trkpt>
      <trkpt lat="48.380831" lon="15.453531">
        <ele>209.019</ele>
        <time>2019-05-04T13:44:20Z</time>
      </trkpt>
      <trkpt lat="48.380841" lon="15.453533">
        <ele>209.042</ele>
        <time>2019-05-04T13:44:21Z</time>
      </trkpt>
      <trkpt lat="48.380849" lon="15.453539">
        <ele>209.156</ele>
        <time>2019-05-04T13:44:22Z</time>
      </trkpt>
      <trkpt lat="48.380868" lon="15.453579">
        <ele>209.191</ele>
        <time>2019-05-04T13:44:28Z</time>
      </trkpt>
      <trkpt lat="48.380733" lon="15.453369">
        <ele>209.345</ele>
        <time>2019-05-04T13:47:45Z</time>
      </trkpt>
      <trkpt lat="48.380785" lon="15.453203">
        <ele>209.241</ele>
        <time>2019-05-04T13:47:50Z</time>
      </trkpt>
      <trkpt lat="48.380796" lon="15.453162">
        <ele>209.144</ele>
        <time>2019-05-04T13:47:51Z</time>
      </trkpt>
      <trkpt lat="48.380810" lon="15.453131">
        <ele>209.152</ele>
        <time>2019-05-04T13:47:52Z</time>
      </trkpt>
      <trkpt lat="48.380879" lon="15.453042">
        <ele>209.227</ele>
        <time>2019-05-04T13:47:55Z</time>
      </trkpt>
      <trkpt lat="48.380894" lon="15.453018">
        <ele>209.368</ele>
        <time>2019-05-04T13:47:56Z</time>
      </trkpt>
      <trkpt lat="48.380924" lon="15.452960">
        <ele>209.614</ele>
        <time>2019-05-04T13:47:59Z</time>
      </trkpt>
      <trkpt lat="48.380939" lon="15.452918">
        <ele>209.708</ele>
        <time>2019-05-04T13:48:01Z</time>
      </trkpt>
      <trkpt lat="48.380953" lon="15.452885">
        <ele>209.835</ele>
        <time>2019-05-04T13:48:03Z</time>
      </trkpt>
      <trkpt lat="48.380962" lon="15.452877">
        <ele>209.868</ele>
        <time>2019-05-04T13:48:05Z</time>
      </trkpt>
      <trkpt lat="48.380970" lon="15.452963">
        <ele>209.732</ele>
        <time>2019-05-04T13:49:16Z</time>
      </trkpt>
      <trkpt lat="48.380957" lon="15.452991">
        <ele>209.677</ele>
        <time>2019-05-04T13:49:17Z</time>
      </trkpt>
      <trkpt lat="48.380910" lon="15.453075">
        <ele>209.351</ele>
        <time>2019-05-04T13:49:20Z</time>
      </trkpt>
      <trkpt lat="48.380891" lon="15.453103">
        <ele>209.217</ele>
        <time>2019-05-04T13:49:22Z</time>
      </trkpt>
      <trkpt lat="48.380888" lon="15.453098">
        <ele>209.230</ele>
        <time>2019-05-04T13:49:23Z</time>
      </trkpt>
      <trkpt lat="48.380885" lon="15.453093">
        <ele>209.278</ele>
        <time>2019-05-04T13:49:24Z</time>
      </trkpt>
      <trkpt lat="48.380883" lon="15.453084">
        <ele>209.253</ele>
        <time>2019-05-04T13:49:26Z</time>
      </trkpt>
      <trkpt lat="48.381042" lon="15.453364">
        <ele>209.804</ele>
        <time>2019-05-04T14:58:23Z</time>
      </trkpt>
      <trkpt lat="48.380968" lon="15.453643">
        <ele>209.514</ele>
        <time>2019-05-04T14:58:35Z</time>
      </trkpt>
      <trkpt lat="48.380972" lon="15.453671">
        <ele>209.508</ele>
        <time>2019-05-04T14:58:36Z</time>
      </trkpt>
      <trkpt lat="48.380991" lon="15.453757">
        <ele>209.688</ele>
        <time>2019-05-04T14:58:40Z</time>
      </trkpt>
      <trkpt lat="48.380989" lon="15.453794">
        <ele>209.671</ele>
        <time>2019-05-04T14:58:41Z</time>
      </trkpt>
      <trkpt lat="48.380970" lon="15.453870">
        <ele>209.555</ele>
        <time>2019-05-04T14:58:43Z</time>
      </trkpt>
      <trkpt lat="48.380853" lon="15.454069">
        <ele>209.180</ele>
        <time>2019-05-04T14:58:49Z</time>
      </trkpt>
      <trkpt lat="48.380654" lon="15.454246">
        <ele>208.854</ele>
        <time>2019-05-04T14:58:57Z</time>
      </trkpt>
      <trkpt lat="48.380479" lon="15.454455">
        <ele>207.460</ele>
        <time>2019-05-04T14:59:04Z</time>
      </trkpt>
      <trkpt lat="48.380459" lon="15.454486">
        <ele>207.243</ele>
        <time>2019-05-04T14:59:05Z</time>
      </trkpt>
      <trkpt lat="48.380404" lon="15.454608">
        <ele>206.351</ele>
        <time>2019-05-04T14:59:08Z</time>
      </trkpt>
      <trkpt lat="48.380402" lon="15.454668">
        <ele>206.134</ele>
        <time>2019-05-04T14:59:09Z</time>
      </trkpt>
      <trkpt lat="48.380365" lon="15.454764">
        <ele>205.455</ele>
        <time>2019-05-04T14:59:11Z</time>
      </trkpt>
      <trkpt lat="48.380366" lon="15.454831">
        <ele>205.110</ele>
        <time>2019-05-04T14:59:12Z</time>
      </trkpt>
      <trkpt lat="48.380427" lon="15.454960">
        <ele>204.808</ele>
        <time>2019-05-04T14:59:14Z</time>
      </trkpt>
      <trkpt lat="48.380475" lon="15.455043">
        <ele>204.636</ele>
        <time>2019-05-04T14:59:16Z</time>
      </trkpt>
      <trkpt lat="48.380605" lon="15.455196">
        <ele>205.369</ele>
        <time>2019-05-04T14:59:22Z</time>
      </trkpt>
      <trkpt lat="48.380683" lon="15.455277">
        <ele>205.983</ele>
        <time>2019-05-04T14:59:27Z</time>
      </trkpt>
      <trkpt lat="48.380707" lon="15.455303">
        <ele>206.088</ele>
        <time>2019-05-04T14:59:31Z</time>
      </trkpt>
      <trkpt lat="48.380727" lon="15.455342">
        <ele>206.132</ele>
        <time>2019-05-04T14:59:33Z</time>
      </trkpt>
      <trkpt lat="48.380752" lon="15.455382">
        <ele>206.368</ele>
        <time>2019-05-04T14:59:35Z</time>
      </trkpt>
      <trkpt lat="48.380845" lon="15.455482">
        <ele>206.911</ele>
        <time>2019-05-04T14:59:40Z</time>
      </trkpt>
      <trkpt lat="48.380923" lon="15.455593">
        <ele>206.499</ele>
        <time>2019-05-04T14:59:45Z</time>
      </trkpt>
      <trkpt lat="48.380967" lon="15.455631">
        <ele>206.088</ele>
        <time>2019-05-04T14:59:47Z</time>
      </trkpt>
      <trkpt lat="48.380990" lon="15.455672">
        <ele>205.924</ele>
        <time>2019-05-04T14:59:48Z</time>
      </trkpt>
      <trkpt lat="48.381112" lon="15.455800">
        <ele>205.026</ele>
        <time>2019-05-04T14:59:53Z</time>
      </trkpt>
      <trkpt lat="48.381177" lon="15.455881">
        <ele>204.408</ele>
        <time>2019-05-04T14:59:56Z</time>
      </trkpt>
      <trkpt lat="48.381233" lon="15.455969">
        <ele>203.671</ele>
        <time>2019-05-04T14:59:59Z</time>
      </trkpt>
      <trkpt lat="48.381249" lon="15.455999">
        <ele>203.454</ele>
        <time>2019-05-04T15:00:00Z</time>
      </trkpt>
      <trkpt lat="48.381265" lon="15.456039">
        <ele>203.218</ele>
        <time>2019-05-04T15:00:01Z</time>
      </trkpt>
      <trkpt lat="48.381282" lon="15.456067">
        <ele>202.983</ele>
        <time>2019-05-04T15:00:02Z</time>
      </trkpt>
      <trkpt lat="48.381382" lon="15.456180">
        <ele>202.027</ele>
        <time>2019-05-04T15:00:07Z</time>
      </trkpt>
      <trkpt lat="48.381404" lon="15.456204">
        <ele>202.033</ele>
        <time>2019-05-04T15:00:08Z</time>
      </trkpt>
      <trkpt lat="48.381490" lon="15.456301">
        <ele>202.266</ele>
        <time>2019-05-04T15:00:12Z</time>
      </trkpt>
      <trkpt lat="48.381538" lon="15.456342">
        <ele>202.424</ele>
        <time>2019-05-04T15:00:14Z</time>
      </trkpt>
      <trkpt lat="48.381691" lon="15.456485">
        <ele>202.727</ele>
        <time>2019-05-04T15:00:20Z</time>
      </trkpt>
      <trkpt lat="48.381845" lon="15.456652">
        <ele>202.768</ele>
        <time>2019-05-04T15:00:26Z</time>
      </trkpt>
      <trkpt lat="48.381971" lon="15.456778">
        <ele>202.314</ele>
        <time>2019-05-04T15:00:32Z</time>
      </trkpt>
      <trkpt lat="48.382021" lon="15.456890">
        <ele>201.708</ele>
        <time>2019-05-04T15:00:37Z</time>
      </trkpt>
      <trkpt lat="48.382018" lon="15.456889">
        <ele>201.775</ele>
        <time>2019-05-04T15:00:38Z</time>
      </trkpt>
      <trkpt lat="48.382009" lon="15.456874">
        <ele>201.718</ele>
        <time>2019-05-04T15:00:40Z</time>
      </trkpt>
      <trkpt lat="48.382001" lon="15.456856">
        <ele>201.812</ele>
        <time>2019-05-04T15:00:41Z</time>
      </trkpt>
      <trkpt lat="48.381976" lon="15.456825">
        <ele>202.037</ele>
        <time>2019-05-04T15:00:43Z</time>
      </trkpt>
      <trkpt lat="48.381879" lon="15.456738">
        <ele>202.341</ele>
        <time>2019-05-04T15:00:48Z</time>
      </trkpt>
      <trkpt lat="48.381755" lon="15.456628">
        <ele>202.477</ele>
        <time>2019-05-04T15:00:53Z</time>
      </trkpt>
      <trkpt lat="48.381667" lon="15.456515">
        <ele>202.560</ele>
        <time>2019-05-04T15:00:58Z</time>
      </trkpt>
      <trkpt lat="48.381662" lon="15.456511">
        <ele>202.538</ele>
        <time>2019-05-04T15:00:59Z</time>
      </trkpt>
      <trkpt lat="48.381668" lon="15.456523">
        <ele>202.512</ele>
        <time>2019-05-04T15:01:00Z</time>
      </trkpt>
      <trkpt lat="48.381688" lon="15.456549">
        <ele>202.532</ele>
        <time>2019-05-04T15:01:02Z</time>
      </trkpt>
      <trkpt lat="48.381701" lon="15.456559">
        <ele>202.505</ele>
        <time>2019-05-04T15:01:03Z</time>
      </trkpt>
      <trkpt lat="48.381717" lon="15.456570">
        <ele>202.508</ele>
        <time>2019-05-04T15:01:04Z</time>
      </trkpt>
      <trkpt lat="48.381729" lon="15.456578">
        <ele>202.554</ele>
        <time>2019-05-04T15:01:05Z</time>
      </trkpt>
      <trkpt lat="48.381784" lon="15.456616">
        <ele>202.537</ele>
        <time>2019-05-04T15:01:10Z</time>
      </trkpt>
      <trkpt lat="48.381797" lon="15.456606">
        <ele>202.651</ele>
        <time>2019-05-04T15:01:15Z</time>
      </trkpt>
      <trkpt lat="48.381860" lon="15.456670">
        <ele>202.746</ele>
        <time>2019-05-04T15:01:24Z</time>
      </trkpt>
      <trkpt lat="48.381970" lon="15.456771">
        <ele>202.390</ele>
        <time>2019-05-04T15:01:29Z</time>
      </trkpt>
      <trkpt lat="48.382067" lon="15.456856">
        <ele>202.176</ele>
        <time>2019-05-04T15:01:34Z</time>
      </trkpt>
      <trkpt lat="48.382166" lon="15.456990">
        <ele>201.559</ele>
        <time>2019-05-04T15:01:40Z</time>
      </trkpt>
      <trkpt lat="48.382263" lon="15.457077">
        <ele>201.667</ele>
        <time>2019-05-04T15:01:45Z</time>
      </trkpt>
      <trkpt lat="48.382299" lon="15.457097">
        <ele>202.053</ele>
        <time>2019-05-04T15:01:47Z</time>
      </trkpt>
      <trkpt lat="48.382389" lon="15.457175">
        <ele>203.104</ele>
        <time>2019-05-04T15:01:53Z</time>
      </trkpt>
      <trkpt lat="48.382442" lon="15.457219">
        <ele>204.014</ele>
        <time>2019-05-04T15:01:56Z</time>
      </trkpt>
      <trkpt lat="48.382461" lon="15.457237">
        <ele>204.208</ele>
        <time>2019-05-04T15:01:57Z</time>
      </trkpt>
      <trkpt lat="48.382510" lon="15.457281">
        <ele>204.668</ele>
        <time>2019-05-04T15:01:59Z</time>
      </trkpt>
      <trkpt lat="48.382592" lon="15.457352">
        <ele>204.431</ele>
        <time>2019-05-04T15:02:02Z</time>
      </trkpt>
      <trkpt lat="48.382717" lon="15.457463">
        <ele>204.615</ele>
        <time>2019-05-04T15:02:07Z</time>
      </trkpt>
      <trkpt lat="48.382837" lon="15.457608">
        <ele>204.780</ele>
        <time>2019-05-04T15:02:12Z</time>
      </trkpt>
      <trkpt lat="48.383036" lon="15.457816">
        <ele>204.724</ele>
        <time>2019-05-04T15:02:19Z</time>
      </trkpt>
      <trkpt lat="48.383189" lon="15.457945">
        <ele>204.150</ele>
        <time>2019-05-04T15:02:24Z</time>
      </trkpt>
      <trkpt lat="48.383311" lon="15.458064">
        <ele>203.913</ele>
        <time>2019-05-04T15:02:28Z</time>
      </trkpt>
      <trkpt lat="48.383542" lon="15.458315">
        <ele>202.911</ele>
        <time>2019-05-04T15:02:36Z</time>
      </trkpt>
      <trkpt lat="48.383730" lon="15.458538">
        <ele>201.883</ele>
        <time>2019-05-04T15:02:43Z</time>
      </trkpt>
      <trkpt lat="48.383758" lon="15.458581">
        <ele>201.725</ele>
        <time>2019-05-04T15:02:44Z</time>
      </trkpt>
      <trkpt lat="48.383832" lon="15.458682">
        <ele>201.517</ele>
        <time>2019-05-04T15:02:47Z</time>
      </trkpt>
      <trkpt lat="48.383885" lon="15.458756">
        <ele>201.508</ele>
        <time>2019-05-04T15:02:49Z</time>
      </trkpt>
      <trkpt lat="48.383949" lon="15.458822">
        <ele>201.431</ele>
        <time>2019-05-04T15:02:51Z</time>
      </trkpt>
      <trkpt lat="48.384050" lon="15.458929">
        <ele>201.314</ele>
        <time>2019-05-04T15:02:54Z</time>
      </trkpt>
      <trkpt lat="48.384193" lon="15.459060">
        <ele>201.048</ele>
        <time>2019-05-04T15:02:58Z</time>
      </trkpt>
      <trkpt lat="48.384228" lon="15.459087">
        <ele>201.223</ele>
        <time>2019-05-04T15:02:59Z</time>
      </trkpt>
      <trkpt lat="48.384261" lon="15.459140">
        <ele>201.267</ele>
        <time>2019-05-04T15:03:00Z</time>
      </trkpt>
      <trkpt lat="48.384408" lon="15.459289">
        <ele>202.293</ele>
        <time>2019-05-04T15:03:04Z</time>
      </trkpt>
      <trkpt lat="48.384522" lon="15.459382">
        <ele>202.516</ele>
        <time>2019-05-04T15:03:07Z</time>
      </trkpt>
      <trkpt lat="48.384705" lon="15.459532">
        <ele>202.374</ele>
        <time>2019-05-04T15:03:12Z</time>
      </trkpt>
      <trkpt lat="48.384741" lon="15.459569">
        <ele>202.269</ele>
        <time>2019-05-04T15:03:13Z</time>
      </trkpt>
      <trkpt lat="48.384879" lon="15.459683">
        <ele>202.804</ele>
        <time>2019-05-04T15:03:17Z</time>
      </trkpt>
      <trkpt lat="48.385048" lon="15.459862">
        <ele>203.324</ele>
        <time>2019-05-04T15:03:22Z</time>
      </trkpt>
      <trkpt lat="48.385151" lon="15.459986">
        <ele>203.208</ele>
        <time>2019-05-04T15:03:25Z</time>
      </trkpt>
      <trkpt lat="48.385349" lon="15.460189">
        <ele>204.399</ele>
        <time>2019-05-04T15:03:31Z</time>
      </trkpt>
      <trkpt lat="48.385383" lon="15.460227">
        <ele>204.422</ele>
        <time>2019-05-04T15:03:32Z</time>
      </trkpt>
      <trkpt lat="48.385444" lon="15.460300">
        <ele>204.596</ele>
        <time>2019-05-04T15:03:34Z</time>
      </trkpt>
      <trkpt lat="48.385567" lon="15.460441">
        <ele>204.481</ele>
        <time>2019-05-04T15:03:38Z</time>
      </trkpt>
      <trkpt lat="48.385605" lon="15.460469">
        <ele>204.495</ele>
        <time>2019-05-04T15:03:39Z</time>
      </trkpt>
      <trkpt lat="48.385805" lon="15.460606">
        <ele>204.451</ele>
        <time>2019-05-04T15:03:45Z</time>
      </trkpt>
      <trkpt lat="48.385868" lon="15.460637">
        <ele>204.054</ele>
        <time>2019-05-04T15:03:47Z</time>
      </trkpt>
      <trkpt lat="48.385925" lon="15.460645">
        <ele>203.712</ele>
        <time>2019-05-04T15:03:49Z</time>
      </trkpt>
      <trkpt lat="48.385947" lon="15.460647">
        <ele>203.651</ele>
        <time>2019-05-04T15:03:50Z</time>
      </trkpt>
      <trkpt lat="48.385971" lon="15.460647">
        <ele>203.501</ele>
        <time>2019-05-04T15:03:51Z</time>
      </trkpt>
      <trkpt lat="48.386082" lon="15.460678">
        <ele>203.111</ele>
        <time>2019-05-04T15:03:55Z</time>
      </trkpt>
      <trkpt lat="48.386109" lon="15.460680">
        <ele>203.008</ele>
        <time>2019-05-04T15:03:56Z</time>
      </trkpt>
      <trkpt lat="48.386249" lon="15.460774">
        <ele>203.418</ele>
        <time>2019-05-04T15:04:01Z</time>
      </trkpt>
      <trkpt lat="48.386384" lon="15.460904">
        <ele>204.031</ele>
        <time>2019-05-04T15:04:06Z</time>
      </trkpt>
      <trkpt lat="48.386598" lon="15.461103">
        <ele>204.725</ele>
        <time>2019-05-04T15:04:13Z</time>
      </trkpt>
      <trkpt lat="48.386809" lon="15.461268">
        <ele>205.540</ele>
        <time>2019-05-04T15:04:19Z</time>
      </trkpt>
      <trkpt lat="48.386869" lon="15.461337">
        <ele>205.424</ele>
        <time>2019-05-04T15:04:21Z</time>
      </trkpt>
      <trkpt lat="48.386898" lon="15.461367">
        <ele>205.270</ele>
        <time>2019-05-04T15:04:22Z</time>
      </trkpt>
      <trkpt lat="48.386950" lon="15.461436">
        <ele>205.063</ele>
        <time>2019-05-04T15:04:24Z</time>
      </trkpt>
      <trkpt lat="48.387045" lon="15.461599">
        <ele>204.761</ele>
        <time>2019-05-04T15:04:28Z</time>
      </trkpt>
      <trkpt lat="48.387075" lon="15.461642">
        <ele>204.693</ele>
        <time>2019-05-04T15:04:29Z</time>
      </trkpt>
      <trkpt lat="48.387131" lon="15.461729">
        <ele>204.165</ele>
        <time>2019-05-04T15:04:31Z</time>
      </trkpt>
      <trkpt lat="48.387223" lon="15.461875">
        <ele>203.221</ele>
        <time>2019-05-04T15:04:34Z</time>
      </trkpt>
      <trkpt lat="48.387256" lon="15.461913">
        <ele>203.108</ele>
        <time>2019-05-04T15:04:35Z</time>
      </trkpt>
      <trkpt lat="48.387393" lon="15.462062">
        <ele>202.642</ele>
        <time>2019-05-04T15:04:39Z</time>
      </trkpt>
      <trkpt lat="48.387460" lon="15.462123">
        <ele>202.495</ele>
        <time>2019-05-04T15:04:41Z</time>
      </trkpt>
      <trkpt lat="48.387608" lon="15.462207">
        <ele>202.119</ele>
        <time>2019-05-04T15:04:45Z</time>
      </trkpt>
      <trkpt lat="48.387779" lon="15.462297">
        <ele>201.234</ele>
        <time>2019-05-04T15:04:50Z</time>
      </trkpt>
      <trkpt lat="48.387965" lon="15.462278">
        <ele>202.278</ele>
        <time>2019-05-04T15:04:55Z</time>
      </trkpt>
      <trkpt lat="48.388146" lon="15.462299">
        <ele>202.564</ele>
        <time>2019-05-04T15:05:00Z</time>
      </trkpt>
      <trkpt lat="48.388222" lon="15.462320">
        <ele>202.517</ele>
        <time>2019-05-04T15:05:02Z</time>
      </trkpt>
      <trkpt lat="48.388341" lon="15.462366">
        <ele>202.575</ele>
        <time>2019-05-04T15:05:05Z</time>
      </trkpt>
      <trkpt lat="48.388417" lon="15.462400">
        <ele>202.755</ele>
        <time>2019-05-04T15:05:07Z</time>
      </trkpt>
      <trkpt lat="48.388502" lon="15.462430">
        <ele>202.907</ele>
        <time>2019-05-04T15:05:09Z</time>
      </trkpt>
      <trkpt lat="48.388658" lon="15.462510">
        <ele>202.917</ele>
        <time>2019-05-04T15:05:13Z</time>
      </trkpt>
      <trkpt lat="48.388809" lon="15.462612">
        <ele>202.208</ele>
        <time>2019-05-04T15:05:17Z</time>
      </trkpt>
      <trkpt lat="48.389010" lon="15.462803">
        <ele>200.978</ele>
        <time>2019-05-04T15:05:22Z</time>
      </trkpt>
      <trkpt lat="48.389158" lon="15.462919">
        <ele>200.581</ele>
        <time>2019-05-04T15:05:26Z</time>
      </trkpt>
      <trkpt lat="48.389227" lon="15.462967">
        <ele>200.735</ele>
        <time>2019-05-04T15:05:28Z</time>
      </trkpt>
      <trkpt lat="48.389261" lon="15.462997">
        <ele>200.890</ele>
        <time>2019-05-04T15:05:29Z</time>
      </trkpt>
      <trkpt lat="48.389365" lon="15.463065">
        <ele>201.484</ele>
        <time>2019-05-04T15:05:32Z</time>
      </trkpt>
      <trkpt lat="48.389400" lon="15.463087">
        <ele>201.730</ele>
        <time>2019-05-04T15:05:33Z</time>
      </trkpt>
      <trkpt lat="48.389507" lon="15.463156">
        <ele>202.693</ele>
        <time>2019-05-04T15:05:36Z</time>
      </trkpt>
      <trkpt lat="48.389656" lon="15.463267">
        <ele>203.741</ele>
        <time>2019-05-04T15:05:40Z</time>
      </trkpt>
      <trkpt lat="48.389730" lon="15.463329">
        <ele>204.092</ele>
        <time>2019-05-04T15:05:42Z</time>
      </trkpt>
      <trkpt lat="48.389834" lon="15.463429">
        <ele>204.173</ele>
        <time>2019-05-04T15:05:45Z</time>
      </trkpt>
      <trkpt lat="48.389930" lon="15.463537">
        <ele>204.020</ele>
        <time>2019-05-04T15:05:48Z</time>
      </trkpt>
      <trkpt lat="48.390036" lon="15.463673">
        <ele>203.608</ele>
        <time>2019-05-04T15:05:52Z</time>
      </trkpt>
      <trkpt lat="48.390187" lon="15.463832">
        <ele>202.982</ele>
        <time>2019-05-04T15:05:57Z</time>
      </trkpt>
      <trkpt lat="48.390365" lon="15.463992">
        <ele>203.085</ele>
        <time>2019-05-04T15:06:02Z</time>
      </trkpt>
      <trkpt lat="48.390397" lon="15.464028">
        <ele>203.169</ele>
        <time>2019-05-04T15:06:03Z</time>
      </trkpt>
      <trkpt lat="48.390492" lon="15.464129">
        <ele>203.514</ele>
        <time>2019-05-04T15:06:06Z</time>
      </trkpt>
      <trkpt lat="48.390527" lon="15.464156">
        <ele>203.718</ele>
        <time>2019-05-04T15:06:07Z</time>
      </trkpt>
      <trkpt lat="48.390596" lon="15.464206">
        <ele>204.064</ele>
        <time>2019-05-04T15:06:09Z</time>
      </trkpt>
      <trkpt lat="48.390778" lon="15.464341">
        <ele>204.847</ele>
        <time>2019-05-04T15:06:15Z</time>
      </trkpt>
      <trkpt lat="48.390913" lon="15.464446">
        <ele>205.355</ele>
        <time>2019-05-04T15:06:20Z</time>
      </trkpt>
      <trkpt lat="48.391029" lon="15.464547">
        <ele>204.635</ele>
        <time>2019-05-04T15:06:25Z</time>
      </trkpt>
      <trkpt lat="48.391142" lon="15.464647">
        <ele>204.186</ele>
        <time>2019-05-04T15:06:29Z</time>
      </trkpt>
      <trkpt lat="48.391211" lon="15.464709">
        <ele>204.214</ele>
        <time>2019-05-04T15:06:31Z</time>
      </trkpt>
      <trkpt lat="48.391544" lon="15.465014">
        <ele>203.508</ele>
        <time>2019-05-04T15:06:40Z</time>
      </trkpt>
      <trkpt lat="48.391743" lon="15.465202">
        <ele>203.326</ele>
        <time>2019-05-04T15:06:46Z</time>
      </trkpt>
      <trkpt lat="48.391973" lon="15.465406">
        <ele>202.549</ele>
        <time>2019-05-04T15:06:53Z</time>
      </trkpt>
      <trkpt lat="48.392277" lon="15.465675">
        <ele>202.153</ele>
        <time>2019-05-04T15:07:02Z</time>
      </trkpt>
      <trkpt lat="48.392488" lon="15.465896">
        <ele>202.028</ele>
        <time>2019-05-04T15:07:09Z</time>
      </trkpt>
      <trkpt lat="48.392537" lon="15.465980">
        <ele>202.172</ele>
        <time>2019-05-04T15:07:12Z</time>
      </trkpt>
      <trkpt lat="48.392541" lon="15.466019">
        <ele>202.158</ele>
        <time>2019-05-04T15:07:13Z</time>
      </trkpt>
      <trkpt lat="48.392561" lon="15.466076">
        <ele>202.241</ele>
        <time>2019-05-04T15:07:15Z</time>
      </trkpt>
      <trkpt lat="48.392570" lon="15.466076">
        <ele>202.359</ele>
        <time>2019-05-04T15:07:16Z</time>
      </trkpt>
      <trkpt lat="48.392572" lon="15.466077">
        <ele>202.363</ele>
        <time>2019-05-04T15:07:17Z</time>
      </trkpt>
      <trkpt lat="48.392572" lon="15.466072">
        <ele>202.344</ele>
        <time>2019-05-04T15:07:18Z</time>
      </trkpt>
      <trkpt lat="48.392592" lon="15.466012">
        <ele>202.318</ele>
        <time>2019-05-04T15:07:50Z</time>
      </trkpt>
      <trkpt lat="48.392618" lon="15.466044">
        <ele>202.408</ele>
        <time>2019-05-04T15:07:51Z</time>
      </trkpt>
      <trkpt lat="48.392650" lon="15.466075">
        <ele>202.599</ele>
        <time>2019-05-04T15:07:52Z</time>
      </trkpt>
      <trkpt lat="48.392686" lon="15.466111">
        <ele>202.732</ele>
        <time>2019-05-04T15:07:53Z</time>
      </trkpt>
      <trkpt lat="48.392801" lon="15.466232">
        <ele>202.786</ele>
        <time>2019-05-04T15:07:56Z</time>
      </trkpt>
      <trkpt lat="48.393069" lon="15.466507">
        <ele>204.031</ele>
        <time>2019-05-04T15:08:02Z</time>
      </trkpt>
      <trkpt lat="48.393371" lon="15.466827">
        <ele>204.095</ele>
        <time>2019-05-04T15:08:09Z</time>
      </trkpt>
      <trkpt lat="48.393643" lon="15.467007">
        <ele>203.931</ele>
        <time>2019-05-04T15:08:15Z</time>
      </trkpt>
      <trkpt lat="48.393917" lon="15.467169">
        <ele>202.964</ele>
        <time>2019-05-04T15:08:21Z</time>
      </trkpt>
      <trkpt lat="48.394093" lon="15.467293">
        <ele>202.322</ele>
        <time>2019-05-04T15:08:25Z</time>
      </trkpt>
      <trkpt lat="48.394174" lon="15.467360">
        <ele>202.043</ele>
        <time>2019-05-04T15:08:27Z</time>
      </trkpt>
      <trkpt lat="48.394390" lon="15.467648">
        <ele>203.364</ele>
        <time>2019-05-04T15:08:33Z</time>
      </trkpt>
      <trkpt lat="48.394460" lon="15.467743">
        <ele>203.910</ele>
        <time>2019-05-04T15:08:35Z</time>
      </trkpt>
      <trkpt lat="48.394560" lon="15.467879">
        <ele>203.808</ele>
        <time>2019-05-04T15:08:38Z</time>
      </trkpt>
      <trkpt lat="48.394695" lon="15.468140">
        <ele>203.137</ele>
        <time>2019-05-04T15:08:43Z</time>
      </trkpt>
      <trkpt lat="48.394724" lon="15.468188">
        <ele>203.070</ele>
        <time>2019-05-04T15:08:44Z</time>
      </trkpt>
      <trkpt lat="48.394933" lon="15.468501">
        <ele>202.244</ele>
        <time>2019-05-04T15:08:51Z</time>
      </trkpt>
      <trkpt lat="48.395045" lon="15.468686">
        <ele>202.069</ele>
        <time>2019-05-04T15:08:55Z</time>
      </trkpt>
      <trkpt lat="48.395188" lon="15.468911">
        <ele>202.093</ele>
        <time>2019-05-04T15:09:00Z</time>
      </trkpt>
      <trkpt lat="48.395253" lon="15.468987">
        <ele>202.029</ele>
        <time>2019-05-04T15:09:02Z</time>
      </trkpt>
      <trkpt lat="48.395288" lon="15.469022">
        <ele>202.172</ele>
        <time>2019-05-04T15:09:03Z</time>
      </trkpt>
      <trkpt lat="48.395403" lon="15.469209">
        <ele>202.510</ele>
        <time>2019-05-04T15:09:07Z</time>
      </trkpt>
      <trkpt lat="48.395454" lon="15.469313">
        <ele>202.622</ele>
        <time>2019-05-04T15:09:09Z</time>
      </trkpt>
      <trkpt lat="48.395504" lon="15.469402">
        <ele>202.862</ele>
        <time>2019-05-04T15:09:11Z</time>
      </trkpt>
      <trkpt lat="48.395530" lon="15.469448">
        <ele>202.908</ele>
        <time>2019-05-04T15:09:12Z</time>
      </trkpt>
      <trkpt lat="48.395615" lon="15.469573">
        <ele>203.408</ele>
        <time>2019-05-04T15:09:15Z</time>
      </trkpt>
      <trkpt lat="48.395656" lon="15.469592">
        <ele>203.795</ele>
        <time>2019-05-04T15:09:16Z</time>
      </trkpt>
      <trkpt lat="48.395869" lon="15.469678">
        <ele>205.088</ele>
        <time>2019-05-04T15:09:22Z</time>
      </trkpt>
      <trkpt lat="48.396044" lon="15.469871">
        <ele>204.972</ele>
        <time>2019-05-04T15:09:28Z</time>
      </trkpt>
      <trkpt lat="48.396075" lon="15.469899">
        <ele>204.947</ele>
        <time>2019-05-04T15:09:29Z</time>
      </trkpt>
      <trkpt lat="48.396172" lon="15.469919">
        <ele>205.491</ele>
        <time>2019-05-04T15:09:32Z</time>
      </trkpt>
      <trkpt lat="48.396293" lon="15.469864">
        <ele>206.317</ele>
        <time>2019-05-04T15:09:36Z</time>
      </trkpt>
      <trkpt lat="48.396357" lon="15.469831">
        <ele>206.830</ele>
        <time>2019-05-04T15:09:39Z</time>
      </trkpt>
      <trkpt lat="48.396379" lon="15.469811">
        <ele>206.928</ele>
        <time>2019-05-04T15:09:40Z</time>
      </trkpt>
      <trkpt lat="48.396396" lon="15.469798">
        <ele>207.171</ele>
        <time>2019-05-04T15:09:41Z</time>
      </trkpt>
      <trkpt lat="48.396413" lon="15.469783">
        <ele>207.241</ele>
        <time>2019-05-04T15:09:42Z</time>
      </trkpt>
      <trkpt lat="48.396484" lon="15.469722">
        <ele>207.715</ele>
        <time>2019-05-04T15:09:46Z</time>
      </trkpt>
      <trkpt lat="48.396598" lon="15.469699">
        <ele>208.508</ele>
        <time>2019-05-04T15:09:52Z</time>
      </trkpt>
      <trkpt lat="48.396616" lon="15.469712">
        <ele>208.620</ele>
        <time>2019-05-04T15:09:53Z</time>
      </trkpt>
      <trkpt lat="48.396743" lon="15.469751">
        <ele>209.513</ele>
        <time>2019-05-04T15:09:59Z</time>
      </trkpt>
      <trkpt lat="48.396760" lon="15.469765">
        <ele>209.687</ele>
        <time>2019-05-04T15:10:00Z</time>
      </trkpt>
      <trkpt lat="48.396886" lon="15.469884">
        <ele>210.192</ele>
        <time>2019-05-04T15:10:06Z</time>
      </trkpt>
      <trkpt lat="48.396907" lon="15.469890">
        <ele>210.246</ele>
        <time>2019-05-04T15:10:07Z</time>
      </trkpt>
      <trkpt lat="48.397013" lon="15.469924">
        <ele>210.812</ele>
        <time>2019-05-04T15:10:10Z</time>
      </trkpt>
      <trkpt lat="48.397100" lon="15.469955">
        <ele>211.345</ele>
        <time>2019-05-04T15:10:13Z</time>
      </trkpt>
      <trkpt lat="48.397135" lon="15.469937">
        <ele>211.683</ele>
        <time>2019-05-04T15:10:15Z</time>
      </trkpt>
      <trkpt lat="48.397160" lon="15.469923">
        <ele>211.863</ele>
        <time>2019-05-04T15:10:16Z</time>
      </trkpt>
      <trkpt lat="48.397244" lon="15.469846">
        <ele>212.744</ele>
        <time>2019-05-04T15:10:20Z</time>
      </trkpt>
      <trkpt lat="48.397319" lon="15.469742">
        <ele>213.618</ele>
        <time>2019-05-04T15:10:24Z</time>
      </trkpt>
      <trkpt lat="48.397360" lon="15.469725">
        <ele>214.008</ele>
        <time>2019-05-04T15:10:26Z</time>
      </trkpt>
      <trkpt lat="48.397419" lon="15.469741">
        <ele>214.319</ele>
        <time>2019-05-04T15:10:28Z</time>
      </trkpt>
      <trkpt lat="48.397423" lon="15.469740">
        <ele>214.432</ele>
        <time>2019-05-04T15:10:29Z</time>
      </trkpt>
      <trkpt lat="48.397427" lon="15.469739">
        <ele>214.486</ele>
        <time>2019-05-04T15:10:30Z</time>
      </trkpt>
      <trkpt lat="48.397499" lon="15.469672">
        <ele>215.291</ele>
        <time>2019-05-04T15:11:09Z</time>
      </trkpt>
      <trkpt lat="48.397508" lon="15.469688">
        <ele>215.215</ele>
        <time>2019-05-04T15:11:10Z</time>
      </trkpt>
      <trkpt lat="48.397507" lon="15.469708">
        <ele>215.171</ele>
        <time>2019-05-04T15:11:11Z</time>
      </trkpt>
      <trkpt lat="48.397508" lon="15.469727">
        <ele>215.194</ele>
        <time>2019-05-04T15:11:12Z</time>
      </trkpt>
      <trkpt lat="48.397612" lon="15.469914">
        <ele>215.832</ele>
        <time>2019-05-04T15:11:57Z</time>
      </trkpt>
      <trkpt lat="48.397622" lon="15.469923">
        <ele>215.967</ele>
        <time>2019-05-04T15:11:58Z</time>
      </trkpt>
      <trkpt lat="48.397646" lon="15.469992">
        <ele>216.181</ele>
        <time>2019-05-04T15:12:01Z</time>
      </trkpt>
      <trkpt lat="48.397653" lon="15.470021">
        <ele>216.019</ele>
        <time>2019-05-04T15:12:02Z</time>
      </trkpt>
      <trkpt lat="48.397673" lon="15.470146">
        <ele>215.108</ele>
        <time>2019-05-04T15:12:06Z</time>
      </trkpt>
      <trkpt lat="48.397684" lon="15.470222">
        <ele>214.589</ele>
        <time>2019-05-04T15:12:08Z</time>
      </trkpt>
      <trkpt lat="48.397813" lon="15.470506">
        <ele>212.882</ele>
        <time>2019-05-04T15:12:15Z</time>
      </trkpt>
      <trkpt lat="48.397918" lon="15.470719">
        <ele>211.286</ele>
        <time>2019-05-04T15:12:22Z</time>
      </trkpt>
      <trkpt lat="48.397926" lon="15.470736">
        <ele>211.141</ele>
        <time>2019-05-04T15:12:23Z</time>
      </trkpt>
      <trkpt lat="48.397942" lon="15.470762">
        <ele>210.865</ele>
        <time>2019-05-04T15:12:25Z</time>
      </trkpt>
      <trkpt lat="48.397950" lon="15.470772">
        <ele>210.791</ele>
        <time>2019-05-04T15:12:27Z</time>
      </trkpt>
      <trkpt lat="48.398017" lon="15.470916">
        <ele>210.094</ele>
        <time>2019-05-04T15:12:36Z</time>
      </trkpt>
      <trkpt lat="48.398037" lon="15.470938">
        <ele>210.092</ele>
        <time>2019-05-04T15:12:38Z</time>
      </trkpt>
      <trkpt lat="48.398082" lon="15.471044">
        <ele>210.247</ele>
        <time>2019-05-04T15:12:42Z</time>
      </trkpt>
      <trkpt lat="48.398113" lon="15.471108">
        <ele>210.429</ele>
        <time>2019-05-04T15:12:44Z</time>
      </trkpt>
      <trkpt lat="48.398146" lon="15.471158">
        <ele>210.721</ele>
        <time>2019-05-04T15:12:46Z</time>
      </trkpt>
      <trkpt lat="48.398181" lon="15.471210">
        <ele>210.908</ele>
        <time>2019-05-04T15:12:48Z</time>
      </trkpt>
      <trkpt lat="48.398283" lon="15.471368">
        <ele>211.627</ele>
        <time>2019-05-04T15:12:54Z</time>
      </trkpt>
      <trkpt lat="48.398373" lon="15.471485">
        <ele>212.320</ele>
        <time>2019-05-04T15:12:59Z</time>
      </trkpt>
      <trkpt lat="48.398437" lon="15.471565">
        <ele>212.724</ele>
        <time>2019-05-04T15:13:02Z</time>
      </trkpt>
      <trkpt lat="48.398479" lon="15.471628">
        <ele>213.029</ele>
        <time>2019-05-04T15:13:04Z</time>
      </trkpt>
      <trkpt lat="48.398546" lon="15.471752">
        <ele>213.253</ele>
        <time>2019-05-04T15:13:08Z</time>
      </trkpt>
      <trkpt lat="48.398570" lon="15.471775">
        <ele>213.349</ele>
        <time>2019-05-04T15:13:09Z</time>
      </trkpt>
      <trkpt lat="48.398661" lon="15.471883">
        <ele>213.642</ele>
        <time>2019-05-04T15:13:13Z</time>
      </trkpt>
      <trkpt lat="48.398760" lon="15.471977">
        <ele>213.950</ele>
        <time>2019-05-04T15:13:17Z</time>
      </trkpt>
      <trkpt lat="48.398788" lon="15.472000">
        <ele>214.031</ele>
        <time>2019-05-04T15:13:18Z</time>
      </trkpt>
      <trkpt lat="48.398818" lon="15.472023">
        <ele>214.161</ele>
        <time>2019-05-04T15:13:19Z</time>
      </trkpt>
      <trkpt lat="48.398849" lon="15.472051">
        <ele>214.307</ele>
        <time>2019-05-04T15:13:20Z</time>
      </trkpt>
      <trkpt lat="48.398899" lon="15.472107">
        <ele>214.508</ele>
        <time>2019-05-04T15:13:22Z</time>
      </trkpt>
      <trkpt lat="48.399059" lon="15.472248">
        <ele>215.166</ele>
        <time>2019-05-04T15:13:28Z</time>
      </trkpt>
      <trkpt lat="48.399195" lon="15.472387">
        <ele>215.749</ele>
        <time>2019-05-04T15:13:33Z</time>
      </trkpt>
      <trkpt lat="48.399275" lon="15.472478">
        <ele>216.223</ele>
        <time>2019-05-04T15:13:36Z</time>
      </trkpt>
      <trkpt lat="48.399345" lon="15.472586">
        <ele>216.558</ele>
        <time>2019-05-04T15:13:39Z</time>
      </trkpt>
      <trkpt lat="48.399480" lon="15.472788">
        <ele>217.042</ele>
        <time>2019-05-04T15:13:44Z</time>
      </trkpt>
      <trkpt lat="48.399560" lon="15.472903">
        <ele>216.398</ele>
        <time>2019-05-04T15:13:47Z</time>
      </trkpt>
      <trkpt lat="48.399601" lon="15.472975">
        <ele>215.841</ele>
        <time>2019-05-04T15:13:49Z</time>
      </trkpt>
      <trkpt lat="48.399622" lon="15.473008">
        <ele>215.739</ele>
        <time>2019-05-04T15:13:50Z</time>
      </trkpt>
      <trkpt lat="48.399669" lon="15.473075">
        <ele>215.489</ele>
        <time>2019-05-04T15:13:52Z</time>
      </trkpt>
      <trkpt lat="48.399713" lon="15.473153">
        <ele>214.906</ele>
        <time>2019-05-04T15:13:54Z</time>
      </trkpt>
      <trkpt lat="48.399904" lon="15.473505">
        <ele>212.926</ele>
        <time>2019-05-04T15:14:02Z</time>
      </trkpt>
      <trkpt lat="48.399930" lon="15.473556">
        <ele>212.608</ele>
        <time>2019-05-04T15:14:03Z</time>
      </trkpt>
      <trkpt lat="48.400001" lon="15.473708">
        <ele>212.031</ele>
        <time>2019-05-04T15:14:06Z</time>
      </trkpt>
      <trkpt lat="48.400074" lon="15.473851">
        <ele>211.574</ele>
        <time>2019-05-04T15:14:09Z</time>
      </trkpt>
      <trkpt lat="48.400098" lon="15.473900">
        <ele>211.318</ele>
        <time>2019-05-04T15:14:10Z</time>
      </trkpt>
      <trkpt lat="48.400246" lon="15.474223">
        <ele>210.313</ele>
        <time>2019-05-04T15:14:16Z</time>
      </trkpt>
      <trkpt lat="48.400303" lon="15.474375">
        <ele>210.817</ele>
        <time>2019-05-04T15:14:19Z</time>
      </trkpt>
      <trkpt lat="48.400320" lon="15.474507">
        <ele>210.763</ele>
        <time>2019-05-04T15:14:21Z</time>
      </trkpt>
      <trkpt lat="48.400331" lon="15.474714">
        <ele>210.246</ele>
        <time>2019-05-04T15:14:24Z</time>
      </trkpt>
      <trkpt lat="48.400335" lon="15.474981">
        <ele>209.554</ele>
        <time>2019-05-04T15:14:28Z</time>
      </trkpt>
      <trkpt lat="48.400372" lon="15.475507">
        <ele>208.856</ele>
        <time>2019-05-04T15:14:36Z</time>
      </trkpt>
      <trkpt lat="48.400389" lon="15.475714">
        <ele>208.159</ele>
        <time>2019-05-04T15:14:39Z</time>
      </trkpt>
      <trkpt lat="48.400383" lon="15.475894">
        <ele>207.014</ele>
        <time>2019-05-04T15:14:42Z</time>
      </trkpt>
      <trkpt lat="48.400376" lon="15.475946">
        <ele>206.608</ele>
        <time>2019-05-04T15:14:43Z</time>
      </trkpt>
      <trkpt lat="48.400404" lon="15.476169">
        <ele>205.638</ele>
        <time>2019-05-04T15:14:47Z</time>
      </trkpt>
      <trkpt lat="48.400430" lon="15.476222">
        <ele>205.331</ele>
        <time>2019-05-04T15:14:48Z</time>
      </trkpt>
      <trkpt lat="48.400459" lon="15.476272">
        <ele>205.145</ele>
        <time>2019-05-04T15:14:49Z</time>
      </trkpt>
      <trkpt lat="48.400520" lon="15.476372">
        <ele>204.740</ele>
        <time>2019-05-04T15:14:51Z</time>
      </trkpt>
      <trkpt lat="48.400551" lon="15.476419">
        <ele>204.874</ele>
        <time>2019-05-04T15:14:52Z</time>
      </trkpt>
      <trkpt lat="48.400582" lon="15.476468">
        <ele>205.510</ele>
        <time>2019-05-04T15:14:53Z</time>
      </trkpt>
      <trkpt lat="48.400611" lon="15.476518">
        <ele>206.033</ele>
        <time>2019-05-04T15:14:54Z</time>
      </trkpt>
      <trkpt lat="48.400803" lon="15.476887">
        <ele>206.311</ele>
        <time>2019-05-04T15:15:01Z</time>
      </trkpt>
      <trkpt lat="48.400831" lon="15.476939">
        <ele>206.058</ele>
        <time>2019-05-04T15:15:02Z</time>
      </trkpt>
      <trkpt lat="48.400923" lon="15.477109">
        <ele>205.552</ele>
        <time>2019-05-04T15:15:05Z</time>
      </trkpt>
      <trkpt lat="48.401125" lon="15.477480">
        <ele>203.417</ele>
        <time>2019-05-04T15:15:11Z</time>
      </trkpt>
      <trkpt lat="48.401338" lon="15.477841">
        <ele>205.508</ele>
        <time>2019-05-04T15:15:17Z</time>
      </trkpt>
      <trkpt lat="48.401529" lon="15.478134">
        <ele>207.458</ele>
        <time>2019-05-04T15:15:22Z</time>
      </trkpt>
      <trkpt lat="48.401609" lon="15.478246">
        <ele>207.471</ele>
        <time>2019-05-04T15:15:24Z</time>
      </trkpt>
      <trkpt lat="48.401653" lon="15.478298">
        <ele>207.245</ele>
        <time>2019-05-04T15:15:25Z</time>
      </trkpt>
      <trkpt lat="48.401737" lon="15.478413">
        <ele>207.680</ele>
        <time>2019-05-04T15:15:27Z</time>
      </trkpt>
      <trkpt lat="48.401967" lon="15.478732">
        <ele>207.184</ele>
        <time>2019-05-04T15:15:32Z</time>
      </trkpt>
      <trkpt lat="48.402063" lon="15.478874">
        <ele>207.320</ele>
        <time>2019-05-04T15:15:34Z</time>
      </trkpt>
      <trkpt lat="48.402159" lon="15.479009">
        <ele>207.883</ele>
        <time>2019-05-04T15:15:36Z</time>
      </trkpt>
      <trkpt lat="48.402256" lon="15.479141">
        <ele>208.051</ele>
        <time>2019-05-04T15:15:38Z</time>
      </trkpt>
      <trkpt lat="48.402301" lon="15.479209">
        <ele>208.633</ele>
        <time>2019-05-04T15:15:39Z</time>
      </trkpt>
      <trkpt lat="48.402482" lon="15.479466">
        <ele>208.723</ele>
        <time>2019-05-04T15:15:43Z</time>
      </trkpt>
      <trkpt lat="48.402770" lon="15.479863">
        <ele>206.815</ele>
        <time>2019-05-04T15:15:49Z</time>
      </trkpt>
      <trkpt lat="48.403027" lon="15.480269">
        <ele>207.708</ele>
        <time>2019-05-04T15:15:55Z</time>
      </trkpt>
      <trkpt lat="48.403316" lon="15.480743">
        <ele>206.526</ele>
        <time>2019-05-04T15:16:02Z</time>
      </trkpt>
      <trkpt lat="48.403396" lon="15.480876">
        <ele>206.549</ele>
        <time>2019-05-04T15:16:04Z</time>
      </trkpt>
      <trkpt lat="48.403551" lon="15.481156">
        <ele>204.983</ele>
        <time>2019-05-04T15:16:08Z</time>
      </trkpt>
      <trkpt lat="48.403769" lon="15.481547">
        <ele>202.658</ele>
        <time>2019-05-04T15:16:14Z</time>
      </trkpt>
      <trkpt lat="48.403961" lon="15.481866">
        <ele>201.762</ele>
        <time>2019-05-04T15:16:19Z</time>
      </trkpt>
      <trkpt lat="48.403999" lon="15.481928">
        <ele>202.098</ele>
        <time>2019-05-04T15:16:20Z</time>
      </trkpt>
      <trkpt lat="48.404114" lon="15.482106">
        <ele>205.581</ele>
        <time>2019-05-04T15:16:23Z</time>
      </trkpt>
      <trkpt lat="48.404192" lon="15.482220">
        <ele>206.819</ele>
        <time>2019-05-04T15:16:25Z</time>
      </trkpt>
      <trkpt lat="48.404503" lon="15.482665">
        <ele>202.741</ele>
        <time>2019-05-04T15:16:33Z</time>
      </trkpt>
      <trkpt lat="48.404545" lon="15.482722">
        <ele>202.881</ele>
        <time>2019-05-04T15:16:34Z</time>
      </trkpt>
      <trkpt lat="48.404632" lon="15.482826">
        <ele>205.009</ele>
        <time>2019-05-04T15:16:36Z</time>
      </trkpt>
      <trkpt lat="48.404670" lon="15.482879">
        <ele>206.208</ele>
        <time>2019-05-04T15:16:37Z</time>
      </trkpt>
      <trkpt lat="48.404713" lon="15.482931">
        <ele>207.457</ele>
        <time>2019-05-04T15:16:38Z</time>
      </trkpt>
      <trkpt lat="48.404999" lon="15.483285">
        <ele>207.250</ele>
        <time>2019-05-04T15:16:45Z</time>
      </trkpt>
      <trkpt lat="48.405215" lon="15.483515">
        <ele>205.544</ele>
        <time>2019-05-04T15:16:50Z</time>
      </trkpt>
      <trkpt lat="48.405257" lon="15.483561">
        <ele>204.919</ele>
        <time>2019-05-04T15:16:51Z</time>
      </trkpt>
      <trkpt lat="48.405568" lon="15.483888">
        <ele>203.443</ele>
        <time>2019-05-04T15:16:58Z</time>
      </trkpt>
      <trkpt lat="48.405714" lon="15.484023">
        <ele>205.329</ele>
        <time>2019-05-04T15:17:02Z</time>
      </trkpt>
      <trkpt lat="48.405747" lon="15.484057">
        <ele>205.422</ele>
        <time>2019-05-04T15:17:03Z</time>
      </trkpt>
      <trkpt lat="48.405898" lon="15.484218">
        <ele>205.660</ele>
        <time>2019-05-04T15:17:07Z</time>
      </trkpt>
      <trkpt lat="48.405982" lon="15.484310">
        <ele>205.974</ele>
        <time>2019-05-04T15:17:09Z</time>
      </trkpt>
      <trkpt lat="48.406200" lon="15.484583">
        <ele>205.156</ele>
        <time>2019-05-04T15:17:14Z</time>
      </trkpt>
      <trkpt lat="48.406268" lon="15.484720">
        <ele>203.221</ele>
        <time>2019-05-04T15:17:16Z</time>
      </trkpt>
      <trkpt lat="48.406305" lon="15.484788">
        <ele>203.008</ele>
        <time>2019-05-04T15:17:17Z</time>
      </trkpt>
      <trkpt lat="48.406513" lon="15.485092">
        <ele>202.170</ele>
        <time>2019-05-04T15:17:22Z</time>
      </trkpt>
      <trkpt lat="48.406654" lon="15.485241">
        <ele>200.663</ele>
        <time>2019-05-04T15:17:25Z</time>
      </trkpt>
      <trkpt lat="48.406796" lon="15.485366">
        <ele>200.887</ele>
        <time>2019-05-04T15:17:28Z</time>
      </trkpt>
      <trkpt lat="48.406921" lon="15.485480">
        <ele>201.352</ele>
        <time>2019-05-04T15:17:31Z</time>
      </trkpt>
      <trkpt lat="48.407000" lon="15.485541">
        <ele>201.546</ele>
        <time>2019-05-04T15:17:33Z</time>
      </trkpt>
      <trkpt lat="48.407083" lon="15.485601">
        <ele>201.772</ele>
        <time>2019-05-04T15:17:35Z</time>
      </trkpt>
      <trkpt lat="48.407226" lon="15.485718">
        <ele>201.915</ele>
        <time>2019-05-04T15:17:38Z</time>
      </trkpt>
      <trkpt lat="48.407276" lon="15.485760">
        <ele>201.933</ele>
        <time>2019-05-04T15:17:39Z</time>
      </trkpt>
      <trkpt lat="48.407328" lon="15.485799">
        <ele>202.027</ele>
        <time>2019-05-04T15:17:40Z</time>
      </trkpt>
      <trkpt lat="48.407484" lon="15.485921">
        <ele>202.368</ele>
        <time>2019-05-04T15:17:43Z</time>
      </trkpt>
      <trkpt lat="48.407533" lon="15.485960">
        <ele>202.214</ele>
        <time>2019-05-04T15:17:44Z</time>
      </trkpt>
      <trkpt lat="48.407635" lon="15.486036">
        <ele>202.008</ele>
        <time>2019-05-04T15:17:46Z</time>
      </trkpt>
      <trkpt lat="48.407731" lon="15.486113">
        <ele>201.895</ele>
        <time>2019-05-04T15:17:48Z</time>
      </trkpt>
      <trkpt lat="48.407820" lon="15.486192">
        <ele>201.798</ele>
        <time>2019-05-04T15:17:50Z</time>
      </trkpt>
      <trkpt lat="48.408105" lon="15.486494">
        <ele>202.042</ele>
        <time>2019-05-04T15:17:57Z</time>
      </trkpt>
      <trkpt lat="48.408333" lon="15.486739">
        <ele>202.747</ele>
        <time>2019-05-04T15:18:03Z</time>
      </trkpt>
      <trkpt lat="48.408469" lon="15.486895">
        <ele>203.221</ele>
        <time>2019-05-04T15:18:07Z</time>
      </trkpt>
      <trkpt lat="48.408541" lon="15.486963">
        <ele>203.577</ele>
        <time>2019-05-04T15:18:09Z</time>
      </trkpt>
      <trkpt lat="48.408578" lon="15.487000">
        <ele>203.820</ele>
        <time>2019-05-04T15:18:10Z</time>
      </trkpt>
      <trkpt lat="48.408612" lon="15.487039">
        <ele>204.048</ele>
        <time>2019-05-04T15:18:11Z</time>
      </trkpt>
      <trkpt lat="48.408736" lon="15.487172">
        <ele>204.165</ele>
        <time>2019-05-04T15:18:15Z</time>
      </trkpt>
      <trkpt lat="48.408793" lon="15.487243">
        <ele>203.968</ele>
        <time>2019-05-04T15:18:17Z</time>
      </trkpt>
      <trkpt lat="48.408825" lon="15.487280">
        <ele>203.814</ele>
        <time>2019-05-04T15:18:18Z</time>
      </trkpt>
      <trkpt lat="48.408861" lon="15.487324">
        <ele>203.608</ele>
        <time>2019-05-04T15:18:19Z</time>
      </trkpt>
      <trkpt lat="48.408940" lon="15.487422">
        <ele>203.659</ele>
        <time>2019-05-04T15:18:21Z</time>
      </trkpt>
      <trkpt lat="48.409279" lon="15.487803">
        <ele>203.652</ele>
        <time>2019-05-04T15:18:29Z</time>
      </trkpt>
      <trkpt lat="48.409539" lon="15.488154">
        <ele>202.976</ele>
        <time>2019-05-04T15:18:36Z</time>
      </trkpt>
      <trkpt lat="48.409654" lon="15.488327">
        <ele>203.321</ele>
        <time>2019-05-04T15:18:40Z</time>
      </trkpt>
      <trkpt lat="48.409706" lon="15.488424">
        <ele>203.575</ele>
        <time>2019-05-04T15:18:42Z</time>
      </trkpt>
      <trkpt lat="48.409797" lon="15.488587">
        <ele>203.371</ele>
        <time>2019-05-04T15:18:45Z</time>
      </trkpt>
      <trkpt lat="48.409856" lon="15.488700">
        <ele>203.224</ele>
        <time>2019-05-04T15:18:47Z</time>
      </trkpt>
      <trkpt lat="48.409993" lon="15.488978">
        <ele>203.062</ele>
        <time>2019-05-04T15:18:52Z</time>
      </trkpt>
      <trkpt lat="48.410025" lon="15.489029">
        <ele>203.033</ele>
        <time>2019-05-04T15:18:53Z</time>
      </trkpt>
      <trkpt lat="48.410077" lon="15.489151">
        <ele>203.023</ele>
        <time>2019-05-04T15:18:55Z</time>
      </trkpt>
      <trkpt lat="48.410167" lon="15.489348">
        <ele>202.715</ele>
        <time>2019-05-04T15:18:58Z</time>
      </trkpt>
      <trkpt lat="48.410322" lon="15.489791">
        <ele>203.108</ele>
        <time>2019-05-04T15:19:04Z</time>
      </trkpt>
      <trkpt lat="48.410339" lon="15.489868">
        <ele>203.186</ele>
        <time>2019-05-04T15:19:05Z</time>
      </trkpt>
      <trkpt lat="48.410363" lon="15.489942">
        <ele>203.189</ele>
        <time>2019-05-04T15:19:06Z</time>
      </trkpt>
      <trkpt lat="48.410387" lon="15.490013">
        <ele>203.023</ele>
        <time>2019-05-04T15:19:07Z</time>
      </trkpt>
      <trkpt lat="48.410410" lon="15.490086">
        <ele>202.848</ele>
        <time>2019-05-04T15:19:08Z</time>
      </trkpt>
      <trkpt lat="48.410436" lon="15.490160">
        <ele>202.842</ele>
        <time>2019-05-04T15:19:09Z</time>
      </trkpt>
      <trkpt lat="48.410460" lon="15.490237">
        <ele>202.768</ele>
        <time>2019-05-04T15:19:10Z</time>
      </trkpt>
      <trkpt lat="48.410506" lon="15.490390">
        <ele>202.941</ele>
        <time>2019-05-04T15:19:12Z</time>
      </trkpt>
      <trkpt lat="48.410575" lon="15.490620">
        <ele>203.059</ele>
        <time>2019-05-04T15:19:15Z</time>
      </trkpt>
      <trkpt lat="48.410595" lon="15.490693">
        <ele>203.092</ele>
        <time>2019-05-04T15:19:16Z</time>
      </trkpt>
      <trkpt lat="48.410664" lon="15.490961">
        <ele>202.573</ele>
        <time>2019-05-04T15:19:20Z</time>
      </trkpt>
      <trkpt lat="48.410748" lon="15.491364">
        <ele>201.120</ele>
        <time>2019-05-04T15:19:25Z</time>
      </trkpt>
      <trkpt lat="48.410854" lon="15.491889">
        <ele>200.108</ele>
        <time>2019-05-04T15:19:31Z</time>
      </trkpt>
      <trkpt lat="48.410871" lon="15.491973">
        <ele>200.472</ele>
        <time>2019-05-04T15:19:32Z</time>
      </trkpt>
      <trkpt lat="48.410888" lon="15.492056">
        <ele>200.785</ele>
        <time>2019-05-04T15:19:33Z</time>
      </trkpt>
      <trkpt lat="48.410945" lon="15.492310">
        <ele>201.429</ele>
        <time>2019-05-04T15:19:36Z</time>
      </trkpt>
      <trkpt lat="48.411061" lon="15.492772">
        <ele>202.054</ele>
        <time>2019-05-04T15:19:42Z</time>
      </trkpt>
      <trkpt lat="48.411157" lon="15.493095">
        <ele>202.048</ele>
        <time>2019-05-04T15:19:47Z</time>
      </trkpt>
      <trkpt lat="48.411173" lon="15.493155">
        <ele>202.054</ele>
        <time>2019-05-04T15:19:48Z</time>
      </trkpt>
      <trkpt lat="48.411219" lon="15.493324">
        <ele>202.087</ele>
        <time>2019-05-04T15:19:51Z</time>
      </trkpt>
      <trkpt lat="48.411248" lon="15.493431">
        <ele>202.075</ele>
        <time>2019-05-04T15:19:53Z</time>
      </trkpt>
      <trkpt lat="48.411266" lon="15.493485">
        <ele>202.013</ele>
        <time>2019-05-04T15:19:54Z</time>
      </trkpt>
      <trkpt lat="48.411300" lon="15.493595">
        <ele>202.043</ele>
        <time>2019-05-04T15:19:56Z</time>
      </trkpt>
      <trkpt lat="48.411363" lon="15.493810">
        <ele>202.007</ele>
        <time>2019-05-04T15:20:00Z</time>
      </trkpt>
      <trkpt lat="48.411388" lon="15.493908">
        <ele>201.908</ele>
        <time>2019-05-04T15:20:02Z</time>
      </trkpt>
      <trkpt lat="48.411400" lon="15.493963">
        <ele>201.884</ele>
        <time>2019-05-04T15:20:03Z</time>
      </trkpt>
      <trkpt lat="48.411432" lon="15.494161">
        <ele>201.377</ele>
        <time>2019-05-04T15:20:06Z</time>
      </trkpt>
      <trkpt lat="48.411494" lon="15.494571">
        <ele>201.671</ele>
        <time>2019-05-04T15:20:11Z</time>
      </trkpt>
      <trkpt lat="48.411508" lon="15.494661">
        <ele>201.866</ele>
        <time>2019-05-04T15:20:12Z</time>
      </trkpt>
      <trkpt lat="48.411567" lon="15.495022">
        <ele>201.360</ele>
        <time>2019-05-04T15:20:16Z</time>
      </trkpt>
      <trkpt lat="48.411601" lon="15.495191">
        <ele>202.156</ele>
        <time>2019-05-04T15:20:18Z</time>
      </trkpt>
      <trkpt lat="48.411637" lon="15.495434">
        <ele>203.279</ele>
        <time>2019-05-04T15:20:21Z</time>
      </trkpt>
      <trkpt lat="48.411661" lon="15.495655">
        <ele>203.997</ele>
        <time>2019-05-04T15:20:24Z</time>
      </trkpt>
      <trkpt lat="48.411674" lon="15.495848">
        <ele>204.273</ele>
        <time>2019-05-04T15:20:27Z</time>
      </trkpt>
      <trkpt lat="48.411672" lon="15.495908">
        <ele>204.485</ele>
        <time>2019-05-04T15:20:28Z</time>
      </trkpt>
      <trkpt lat="48.411675" lon="15.495973">
        <ele>204.713</ele>
        <time>2019-05-04T15:20:29Z</time>
      </trkpt>
      <trkpt lat="48.411679" lon="15.496111">
        <ele>205.308</ele>
        <time>2019-05-04T15:20:31Z</time>
      </trkpt>
      <trkpt lat="48.411684" lon="15.496341">
        <ele>205.520</ele>
        <time>2019-05-04T15:20:34Z</time>
      </trkpt>
      <trkpt lat="48.411683" lon="15.496421">
        <ele>205.593</ele>
        <time>2019-05-04T15:20:35Z</time>
      </trkpt>
      <trkpt lat="48.411671" lon="15.496744">
        <ele>205.197</ele>
        <time>2019-05-04T15:20:39Z</time>
      </trkpt>
      <trkpt lat="48.411648" lon="15.497220">
        <ele>206.782</ele>
        <time>2019-05-04T15:20:45Z</time>
      </trkpt>
      <trkpt lat="48.411646" lon="15.497292">
        <ele>207.146</ele>
        <time>2019-05-04T15:20:46Z</time>
      </trkpt>
      <trkpt lat="48.411644" lon="15.497433">
        <ele>208.032</ele>
        <time>2019-05-04T15:20:48Z</time>
      </trkpt>
      <trkpt lat="48.411645" lon="15.497644">
        <ele>208.995</ele>
        <time>2019-05-04T15:20:51Z</time>
      </trkpt>
      <trkpt lat="48.411644" lon="15.497714">
        <ele>209.113</ele>
        <time>2019-05-04T15:20:52Z</time>
      </trkpt>
      <trkpt lat="48.411622" lon="15.497979">
        <ele>206.844</ele>
        <time>2019-05-04T15:20:56Z</time>
      </trkpt>
      <trkpt lat="48.411606" lon="15.498101">
        <ele>205.505</ele>
        <time>2019-05-04T15:20:58Z</time>
      </trkpt>
      <trkpt lat="48.411565" lon="15.498420">
        <ele>203.915</ele>
        <time>2019-05-04T15:21:03Z</time>
      </trkpt>
      <trkpt lat="48.411544" lon="15.498583">
        <ele>203.708</ele>
        <time>2019-05-04T15:21:06Z</time>
      </trkpt>
      <trkpt lat="48.411539" lon="15.498656">
        <ele>203.927</ele>
        <time>2019-05-04T15:21:08Z</time>
      </trkpt>
      <trkpt lat="48.411541" lon="15.498712">
        <ele>204.110</ele>
        <time>2019-05-04T15:21:13Z</time>
      </trkpt>
      <trkpt lat="48.411559" lon="15.498641">
        <ele>204.254</ele>
        <time>2019-05-04T15:21:17Z</time>
      </trkpt>
      <trkpt lat="48.411555" lon="15.498562">
        <ele>203.919</ele>
        <time>2019-05-04T15:21:20Z</time>
      </trkpt>
      <trkpt lat="48.411530" lon="15.498334">
        <ele>203.013</ele>
        <time>2019-05-04T15:21:26Z</time>
      </trkpt>
      <trkpt lat="48.411533" lon="15.497956">
        <ele>204.859</ele>
        <time>2019-05-04T15:21:33Z</time>
      </trkpt>
      <trkpt lat="48.411538" lon="15.497499">
        <ele>205.832</ele>
        <time>2019-05-04T15:21:40Z</time>
      </trkpt>
      <trkpt lat="48.411542" lon="15.497441">
        <ele>205.750</ele>
        <time>2019-05-04T15:21:41Z</time>
      </trkpt>
      <trkpt lat="48.411545" lon="15.497387">
        <ele>205.776</ele>
        <time>2019-05-04T15:21:42Z</time>
      </trkpt>
      <trkpt lat="48.411551" lon="15.497334">
        <ele>205.690</ele>
        <time>2019-05-04T15:21:43Z</time>
      </trkpt>
      <trkpt lat="48.411553" lon="15.497281">
        <ele>205.519</ele>
        <time>2019-05-04T15:21:44Z</time>
      </trkpt>
      <trkpt lat="48.411549" lon="15.497224">
        <ele>205.308</ele>
        <time>2019-05-04T15:21:45Z</time>
      </trkpt>
      <trkpt lat="48.411552" lon="15.497173">
        <ele>205.130</ele>
        <time>2019-05-04T15:21:46Z</time>
      </trkpt>
      <trkpt lat="48.411558" lon="15.497123">
        <ele>204.953</ele>
        <time>2019-05-04T15:21:47Z</time>
      </trkpt>
      <trkpt lat="48.411552" lon="15.496901">
        <ele>203.897</ele>
        <time>2019-05-04T15:21:52Z</time>
      </trkpt>
      <trkpt lat="48.411580" lon="15.496605">
        <ele>204.452</ele>
        <time>2019-05-04T15:21:58Z</time>
      </trkpt>
      <trkpt lat="48.411582" lon="15.496214">
        <ele>204.446</ele>
        <time>2019-05-04T15:22:05Z</time>
      </trkpt>
      <trkpt lat="48.411557" lon="15.495881">
        <ele>203.422</ele>
        <time>2019-05-04T15:22:11Z</time>
      </trkpt>
      <trkpt lat="48.411543" lon="15.495609">
        <ele>202.425</ele>
        <time>2019-05-04T15:22:16Z</time>
      </trkpt>
      <trkpt lat="48.411513" lon="15.495216">
        <ele>201.223</ele>
        <time>2019-05-04T15:22:23Z</time>
      </trkpt>
      <trkpt lat="48.411502" lon="15.494947">
        <ele>201.066</ele>
        <time>2019-05-04T15:22:28Z</time>
      </trkpt>
      <trkpt lat="48.411489" lon="15.494849">
        <ele>201.329</ele>
        <time>2019-05-04T15:22:30Z</time>
      </trkpt>
      <trkpt lat="48.411419" lon="15.494563">
        <ele>201.221</ele>
        <time>2019-05-04T15:22:36Z</time>
      </trkpt>
      <trkpt lat="48.411373" lon="15.494290">
        <ele>201.008</ele>
        <time>2019-05-04T15:22:42Z</time>
      </trkpt>
      <trkpt lat="48.411346" lon="15.494056">
        <ele>201.489</ele>
        <time>2019-05-04T15:22:48Z</time>
      </trkpt>
      <trkpt lat="48.411334" lon="15.493990">
        <ele>201.672</ele>
        <time>2019-05-04T15:22:50Z</time>
      </trkpt>
      <trkpt lat="48.411337" lon="15.493922">
        <ele>201.946</ele>
        <time>2019-05-04T15:22:53Z</time>
      </trkpt>
      <trkpt lat="48.411340" lon="15.493907">
        <ele>201.921</ele>
        <time>2019-05-04T15:22:56Z</time>
      </trkpt>
      <trkpt lat="48.411311" lon="15.493844">
        <ele>202.085</ele>
        <time>2019-05-04T15:23:21Z</time>
      </trkpt>
      <trkpt lat="48.411300" lon="15.493809">
        <ele>202.021</ele>
        <time>2019-05-04T15:23:22Z</time>
      </trkpt>
      <trkpt lat="48.411284" lon="15.493767">
        <ele>202.024</ele>
        <time>2019-05-04T15:23:23Z</time>
      </trkpt>
      <trkpt lat="48.411248" lon="15.493673">
        <ele>202.022</ele>
        <time>2019-05-04T15:23:25Z</time>
      </trkpt>
      <trkpt lat="48.411191" lon="15.493511">
        <ele>202.014</ele>
        <time>2019-05-04T15:23:28Z</time>
      </trkpt>
      <trkpt lat="48.411134" lon="15.493327">
        <ele>202.054</ele>
        <time>2019-05-04T15:23:31Z</time>
      </trkpt>
      <trkpt lat="48.411095" lon="15.493196">
        <ele>202.109</ele>
        <time>2019-05-04T15:23:33Z</time>
      </trkpt>
      <trkpt lat="48.411077" lon="15.493129">
        <ele>202.108</ele>
        <time>2019-05-04T15:23:34Z</time>
      </trkpt>
      <trkpt lat="48.411062" lon="15.493058">
        <ele>202.224</ele>
        <time>2019-05-04T15:23:35Z</time>
      </trkpt>
      <trkpt lat="48.411009" lon="15.492798">
        <ele>202.047</ele>
        <time>2019-05-04T15:23:39Z</time>
      </trkpt>
      <trkpt lat="48.410944" lon="15.492538">
        <ele>201.521</ele>
        <time>2019-05-04T15:23:43Z</time>
      </trkpt>
      <trkpt lat="48.410916" lon="15.492403">
        <ele>201.316</ele>
        <time>2019-05-04T15:23:45Z</time>
      </trkpt>
      <trkpt lat="48.410827" lon="15.492017">
        <ele>200.340</ele>
        <time>2019-05-04T15:23:51Z</time>
      </trkpt>
      <trkpt lat="48.410815" lon="15.491952">
        <ele>200.056</ele>
        <time>2019-05-04T15:23:52Z</time>
      </trkpt>
      <trkpt lat="48.410800" lon="15.491888">
        <ele>200.079</ele>
        <time>2019-05-04T15:23:53Z</time>
      </trkpt>
      <trkpt lat="48.410754" lon="15.491634">
        <ele>200.147</ele>
        <time>2019-05-04T15:23:57Z</time>
      </trkpt>
      <trkpt lat="48.410687" lon="15.491349">
        <ele>201.145</ele>
        <time>2019-05-04T15:24:02Z</time>
      </trkpt>
      <trkpt lat="48.410635" lon="15.491070">
        <ele>202.147</ele>
        <time>2019-05-04T15:24:08Z</time>
      </trkpt>
      <trkpt lat="48.410628" lon="15.490955">
        <ele>202.611</ele>
        <time>2019-05-04T15:24:13Z</time>
      </trkpt>
      <trkpt lat="48.410632" lon="15.490946">
        <ele>202.608</ele>
        <time>2019-05-04T15:24:15Z</time>
      </trkpt>
      <trkpt lat="48.410637" lon="15.491034">
        <ele>202.357</ele>
        <time>2019-05-04T15:24:32Z</time>
      </trkpt>
      <trkpt lat="48.410645" lon="15.491069">
        <ele>202.250</ele>
        <time>2019-05-04T15:24:33Z</time>
      </trkpt>
      <trkpt lat="48.410701" lon="15.491298">
        <ele>201.334</ele>
        <time>2019-05-04T15:24:38Z</time>
      </trkpt>
      <trkpt lat="48.410715" lon="15.491347">
        <ele>201.219</ele>
        <time>2019-05-04T15:24:39Z</time>
      </trkpt>
      <trkpt lat="48.410759" lon="15.491513">
        <ele>200.693</ele>
        <time>2019-05-04T15:24:42Z</time>
      </trkpt>
      <trkpt lat="48.410787" lon="15.491641">
        <ele>200.149</ele>
        <time>2019-05-04T15:24:44Z</time>
      </trkpt>
      <trkpt lat="48.410800" lon="15.491706">
        <ele>200.072</ele>
        <time>2019-05-04T15:24:45Z</time>
      </trkpt>
      <trkpt lat="48.410833" lon="15.491841">
        <ele>200.040</ele>
        <time>2019-05-04T15:24:47Z</time>
      </trkpt>
      <trkpt lat="48.410862" lon="15.491979">
        <ele>200.393</ele>
        <time>2019-05-04T15:24:49Z</time>
      </trkpt>
      <trkpt lat="48.410890" lon="15.492114">
        <ele>200.965</ele>
        <time>2019-05-04T15:24:51Z</time>
      </trkpt>
      <trkpt lat="48.410969" lon="15.492405">
        <ele>201.521</ele>
        <time>2019-05-04T15:24:56Z</time>
      </trkpt>
      <trkpt lat="48.410997" lon="15.492501">
        <ele>201.608</ele>
        <time>2019-05-04T15:24:58Z</time>
      </trkpt>
      <trkpt lat="48.411023" lon="15.492587">
        <ele>201.812</ele>
        <time>2019-05-04T15:25:00Z</time>
      </trkpt>
      <trkpt lat="48.411059" lon="15.492763">
        <ele>202.075</ele>
        <time>2019-05-04T15:25:04Z</time>
      </trkpt>
      <trkpt lat="48.411078" lon="15.492854">
        <ele>202.079</ele>
        <time>2019-05-04T15:25:06Z</time>
      </trkpt>
      <trkpt lat="48.411104" lon="15.492938">
        <ele>202.094</ele>
        <time>2019-05-04T15:25:08Z</time>
      </trkpt>
      <trkpt lat="48.411117" lon="15.492978">
        <ele>202.048</ele>
        <time>2019-05-04T15:25:09Z</time>
      </trkpt>
      <trkpt lat="48.411201" lon="15.493264">
        <ele>202.044</ele>
        <time>2019-05-04T15:25:16Z</time>
      </trkpt>
      <trkpt lat="48.411253" lon="15.493462">
        <ele>202.057</ele>
        <time>2019-05-04T15:25:21Z</time>
      </trkpt>
      <trkpt lat="48.411264" lon="15.493507">
        <ele>202.025</ele>
        <time>2019-05-04T15:25:22Z</time>
      </trkpt>
      <trkpt lat="48.411288" lon="15.493601">
        <ele>202.077</ele>
        <time>2019-05-04T15:25:24Z</time>
      </trkpt>
      <trkpt lat="48.411320" lon="15.493734">
        <ele>202.061</ele>
        <time>2019-05-04T15:25:27Z</time>
      </trkpt>
      <trkpt lat="48.411330" lon="15.493770">
        <ele>202.027</ele>
        <time>2019-05-04T15:25:28Z</time>
      </trkpt>
      <trkpt lat="48.411343" lon="15.493835">
        <ele>202.008</ele>
        <time>2019-05-04T15:25:30Z</time>
      </trkpt>
      <trkpt lat="48.411355" lon="15.493921">
        <ele>201.920</ele>
        <time>2019-05-04T15:25:33Z</time>
      </trkpt>
      <trkpt lat="48.411420" lon="15.494161">
        <ele>201.253</ele>
        <time>2019-05-04T15:25:39Z</time>
      </trkpt>
      <trkpt lat="48.411457" lon="15.494451">
        <ele>201.397</ele>
        <time>2019-05-04T15:25:44Z</time>
      </trkpt>
      <trkpt lat="48.411533" lon="15.494911">
        <ele>201.442</ele>
        <time>2019-05-04T15:25:51Z</time>
      </trkpt>
      <trkpt lat="48.411542" lon="15.494978">
        <ele>201.286</ele>
        <time>2019-05-04T15:25:52Z</time>
      </trkpt>
      <trkpt lat="48.411577" lon="15.495303">
        <ele>202.172</ele>
        <time>2019-05-04T15:25:57Z</time>
      </trkpt>
      <trkpt lat="48.411595" lon="15.495422">
        <ele>202.665</ele>
        <time>2019-05-04T15:25:59Z</time>
      </trkpt>
      <trkpt lat="48.411626" lon="15.495670">
        <ele>203.583</ele>
        <time>2019-05-04T15:26:03Z</time>
      </trkpt>
      <trkpt lat="48.411642" lon="15.495796">
        <ele>203.877</ele>
        <time>2019-05-04T15:26:05Z</time>
      </trkpt>
      <trkpt lat="48.411665" lon="15.496061">
        <ele>204.861</ele>
        <time>2019-05-04T15:26:09Z</time>
      </trkpt>
      <trkpt lat="48.411673" lon="15.496193">
        <ele>205.227</ele>
        <time>2019-05-04T15:26:11Z</time>
      </trkpt>
      <trkpt lat="48.411675" lon="15.496321">
        <ele>205.208</ele>
        <time>2019-05-04T15:26:13Z</time>
      </trkpt>
      <trkpt lat="48.411676" lon="15.496438">
        <ele>205.330</ele>
        <time>2019-05-04T15:26:15Z</time>
      </trkpt>
      <trkpt lat="48.411674" lon="15.496552">
        <ele>205.233</ele>
        <time>2019-05-04T15:26:17Z</time>
      </trkpt>
      <trkpt lat="48.411664" lon="15.496958">
        <ele>205.177</ele>
        <time>2019-05-04T15:26:24Z</time>
      </trkpt>
      <trkpt lat="48.411649" lon="15.497246">
        <ele>206.932</ele>
        <time>2019-05-04T15:26:29Z</time>
      </trkpt>
      <trkpt lat="48.411647" lon="15.497480">
        <ele>208.416</ele>
        <time>2019-05-04T15:26:33Z</time>
      </trkpt>
      <trkpt lat="48.411628" lon="15.497774">
        <ele>208.912</ele>
        <time>2019-05-04T15:26:39Z</time>
      </trkpt>
      <trkpt lat="48.411627" lon="15.497899">
        <ele>207.735</ele>
        <time>2019-05-04T15:26:45Z</time>
      </trkpt>
      <trkpt lat="48.411624" lon="15.497901">
        <ele>207.633</ele>
        <time>2019-05-04T15:26:46Z</time>
      </trkpt>
      <trkpt lat="48.411587" lon="15.497988">
        <ele>205.982</ele>
        <time>2019-05-04T15:26:53Z</time>
      </trkpt>
      <trkpt lat="48.411583" lon="15.498048">
        <ele>205.343</ele>
        <time>2019-05-04T15:26:55Z</time>
      </trkpt>
      <trkpt lat="48.411557" lon="15.498290">
        <ele>203.817</ele>
        <time>2019-05-04T15:27:02Z</time>
      </trkpt>
      <trkpt lat="48.411550" lon="15.498320">
        <ele>203.508</ele>
        <time>2019-05-04T15:27:03Z</time>
      </trkpt>
      <trkpt lat="48.411535" lon="15.498411">
        <ele>203.341</ele>
        <time>2019-05-04T15:27:06Z</time>
      </trkpt>
      <trkpt lat="48.411515" lon="15.498572">
        <ele>203.244</ele>
        <time>2019-05-04T15:27:11Z</time>
      </trkpt>
      <trkpt lat="48.411489" lon="15.498731">
        <ele>203.258</ele>
        <time>2019-05-04T15:27:16Z</time>
      </trkpt>
      <trkpt lat="48.411469" lon="15.498896">
        <ele>203.553</ele>
        <time>2019-05-04T15:27:22Z</time>
      </trkpt>
      <trkpt lat="48.411453" lon="15.498952">
        <ele>203.757</ele>
        <time>2019-05-04T15:27:24Z</time>
      </trkpt>
      <trkpt lat="48.411425" lon="15.499168">
        <ele>204.823</ele>
        <time>2019-05-04T15:27:29Z</time>
      </trkpt>
      <trkpt lat="48.411419" lon="15.499221">
        <ele>204.786</ele>
        <time>2019-05-04T15:27:30Z</time>
      </trkpt>
      <trkpt lat="48.411411" lon="15.499271">
        <ele>204.594</ele>
        <time>2019-05-04T15:27:31Z</time>
      </trkpt>
      <trkpt lat="48.411401" lon="15.499425">
        <ele>204.343</ele>
        <time>2019-05-04T15:27:34Z</time>
      </trkpt>
      <trkpt lat="48.411382" lon="15.499612">
        <ele>203.964</ele>
        <time>2019-05-04T15:27:38Z</time>
      </trkpt>
      <trkpt lat="48.411347" lon="15.499863">
        <ele>203.510</ele>
        <time>2019-05-04T15:27:43Z</time>
      </trkpt>
      <trkpt lat="48.411329" lon="15.499957">
        <ele>203.408</ele>
        <time>2019-05-04T15:27:45Z</time>
      </trkpt>
      <trkpt lat="48.411290" lon="15.500088">
        <ele>203.217</ele>
        <time>2019-05-04T15:27:48Z</time>
      </trkpt>
      <trkpt lat="48.411277" lon="15.500130">
        <ele>203.240</ele>
        <time>2019-05-04T15:27:49Z</time>
      </trkpt>
      <trkpt lat="48.411215" lon="15.500366">
        <ele>203.494</ele>
        <time>2019-05-04T15:27:55Z</time>
      </trkpt>
      <trkpt lat="48.411168" lon="15.500592">
        <ele>204.019</ele>
        <time>2019-05-04T15:28:02Z</time>
      </trkpt>
      <trkpt lat="48.411154" lon="15.500620">
        <ele>203.933</ele>
        <time>2019-05-04T15:28:03Z</time>
      </trkpt>
      <trkpt lat="48.411140" lon="15.500650">
        <ele>203.719</ele>
        <time>2019-05-04T15:28:04Z</time>
      </trkpt>
      <trkpt lat="48.411103" lon="15.500769">
        <ele>203.942</ele>
        <time>2019-05-04T15:28:07Z</time>
      </trkpt>
      <trkpt lat="48.411070" lon="15.500860">
        <ele>204.340</ele>
        <time>2019-05-04T15:28:09Z</time>
      </trkpt>
      <trkpt lat="48.411013" lon="15.500999">
        <ele>204.795</ele>
        <time>2019-05-04T15:28:12Z</time>
      </trkpt>
      <trkpt lat="48.410921" lon="15.501276">
        <ele>206.049</ele>
        <time>2019-05-04T15:28:18Z</time>
      </trkpt>
      <trkpt lat="48.410909" lon="15.501324">
        <ele>206.223</ele>
        <time>2019-05-04T15:28:19Z</time>
      </trkpt>
      <trkpt lat="48.410845" lon="15.501574">
        <ele>207.008</ele>
        <time>2019-05-04T15:28:24Z</time>
      </trkpt>
      <trkpt lat="48.410756" lon="15.501885">
        <ele>208.542</ele>
        <time>2019-05-04T15:28:30Z</time>
      </trkpt>
      <trkpt lat="48.410666" lon="15.502189">
        <ele>207.415</ele>
        <time>2019-05-04T15:28:36Z</time>
      </trkpt>
      <trkpt lat="48.410579" lon="15.502517">
        <ele>206.989</ele>
        <time>2019-05-04T15:28:43Z</time>
      </trkpt>
      <trkpt lat="48.410526" lon="15.502684">
        <ele>208.054</ele>
        <time>2019-05-04T15:28:47Z</time>
      </trkpt>
      <trkpt lat="48.410511" lon="15.502729">
        <ele>208.438</ele>
        <time>2019-05-04T15:28:48Z</time>
      </trkpt>
      <trkpt lat="48.410448" lon="15.503003">
        <ele>209.634</ele>
        <time>2019-05-04T15:28:54Z</time>
      </trkpt>
      <trkpt lat="48.410415" lon="15.503151">
        <ele>210.117</ele>
        <time>2019-05-04T15:28:57Z</time>
      </trkpt>
      <trkpt lat="48.410382" lon="15.503308">
        <ele>211.045</ele>
        <time>2019-05-04T15:29:00Z</time>
      </trkpt>
      <trkpt lat="48.410273" lon="15.503702">
        <ele>210.296</ele>
        <time>2019-05-04T15:29:08Z</time>
      </trkpt>
      <trkpt lat="48.410160" lon="15.503974">
        <ele>210.831</ele>
        <time>2019-05-04T15:29:14Z</time>
      </trkpt>
      <trkpt lat="48.410016" lon="15.504296">
        <ele>210.224</ele>
        <time>2019-05-04T15:29:22Z</time>
      </trkpt>
      <trkpt lat="48.409881" lon="15.504525">
        <ele>206.908</ele>
        <time>2019-05-04T15:29:28Z</time>
      </trkpt>
      <trkpt lat="48.409758" lon="15.504737">
        <ele>204.022</ele>
        <time>2019-05-04T15:29:33Z</time>
      </trkpt>
      <trkpt lat="48.409586" lon="15.504994">
        <ele>204.595</ele>
        <time>2019-05-04T15:29:39Z</time>
      </trkpt>
      <trkpt lat="48.409505" lon="15.505126">
        <ele>205.739</ele>
        <time>2019-05-04T15:29:42Z</time>
      </trkpt>
      <trkpt lat="48.409479" lon="15.505171">
        <ele>205.824</ele>
        <time>2019-05-04T15:29:43Z</time>
      </trkpt>
      <trkpt lat="48.409429" lon="15.505259">
        <ele>205.538</ele>
        <time>2019-05-04T15:29:45Z</time>
      </trkpt>
      <trkpt lat="48.409349" lon="15.505386">
        <ele>206.164</ele>
        <time>2019-05-04T15:29:48Z</time>
      </trkpt>
      <trkpt lat="48.409300" lon="15.505485">
        <ele>206.627</ele>
        <time>2019-05-04T15:29:50Z</time>
      </trkpt>
      <trkpt lat="48.409277" lon="15.505533">
        <ele>206.685</ele>
        <time>2019-05-04T15:29:51Z</time>
      </trkpt>
      <trkpt lat="48.409232" lon="15.505624">
        <ele>206.684</ele>
        <time>2019-05-04T15:29:53Z</time>
      </trkpt>
      <trkpt lat="48.409124" lon="15.505873">
        <ele>207.107</ele>
        <time>2019-05-04T15:29:59Z</time>
      </trkpt>
      <trkpt lat="48.409113" lon="15.505900">
        <ele>207.417</ele>
        <time>2019-05-04T15:30:00Z</time>
      </trkpt>
      <trkpt lat="48.409089" lon="15.505983">
        <ele>208.108</ele>
        <time>2019-05-04T15:30:04Z</time>
      </trkpt>
      <trkpt lat="48.409086" lon="15.505995">
        <ele>208.241</ele>
        <time>2019-05-04T15:30:07Z</time>
      </trkpt>
      <trkpt lat="48.409118" lon="15.505925">
        <ele>207.874</ele>
        <time>2019-05-04T15:30:41Z</time>
      </trkpt>
      <trkpt lat="48.409184" lon="15.505777">
        <ele>207.028</ele>
        <time>2019-05-04T15:30:45Z</time>
      </trkpt>
      <trkpt lat="48.409328" lon="15.505498">
        <ele>207.733</ele>
        <time>2019-05-04T15:30:51Z</time>
      </trkpt>
      <trkpt lat="48.409478" lon="15.505160">
        <ele>205.767</ele>
        <time>2019-05-04T15:30:57Z</time>
      </trkpt>
      <trkpt lat="48.409534" lon="15.505049">
        <ele>205.033</ele>
        <time>2019-05-04T15:30:59Z</time>
      </trkpt>
      <trkpt lat="48.409721" lon="15.504644">
        <ele>203.376</ele>
        <time>2019-05-04T15:31:06Z</time>
      </trkpt>
      <trkpt lat="48.409878" lon="15.504298">
        <ele>207.824</ele>
        <time>2019-05-04T15:31:12Z</time>
      </trkpt>
      <trkpt lat="48.410100" lon="15.503811">
        <ele>208.093</ele>
        <time>2019-05-04T15:31:21Z</time>
      </trkpt>
      <trkpt lat="48.410242" lon="15.503506">
        <ele>208.665</ele>
        <time>2019-05-04T15:31:28Z</time>
      </trkpt>
      <trkpt lat="48.410273" lon="15.503385">
        <ele>208.321</ele>
        <time>2019-05-04T15:31:31Z</time>
      </trkpt>
      <trkpt lat="48.410314" lon="15.503288">
        <ele>208.508</ele>
        <time>2019-05-04T15:31:34Z</time>
      </trkpt>
      <trkpt lat="48.410322" lon="15.503263">
        <ele>208.582</ele>
        <time>2019-05-04T15:31:35Z</time>
      </trkpt>
      <trkpt lat="48.410327" lon="15.503249">
        <ele>208.445</ele>
        <time>2019-05-04T15:31:36Z</time>
      </trkpt>
      <trkpt lat="48.410336" lon="15.503262">
        <ele>208.989</ele>
        <time>2019-05-04T15:31:38Z</time>
      </trkpt>
      <trkpt lat="48.410338" lon="15.503350">
        <ele>210.184</ele>
        <time>2019-05-04T15:31:41Z</time>
      </trkpt>
      <trkpt lat="48.410307" lon="15.503527">
        <ele>210.338</ele>
        <time>2019-05-04T15:31:46Z</time>
      </trkpt>
      <trkpt lat="48.410255" lon="15.503740">
        <ele>210.164</ele>
        <time>2019-05-04T15:31:51Z</time>
      </trkpt>
      <trkpt lat="48.410244" lon="15.503783">
        <ele>210.137</ele>
        <time>2019-05-04T15:31:52Z</time>
      </trkpt>
      <trkpt lat="48.410150" lon="15.504002">
        <ele>211.045</ele>
        <time>2019-05-04T15:31:57Z</time>
      </trkpt>
      <trkpt lat="48.410070" lon="15.504094">
        <ele>210.828</ele>
        <time>2019-05-04T15:32:00Z</time>
      </trkpt>
      <trkpt lat="48.410039" lon="15.504129">
        <ele>210.589</ele>
        <time>2019-05-04T15:32:01Z</time>
      </trkpt>
      <trkpt lat="48.409961" lon="15.504265">
        <ele>209.117</ele>
        <time>2019-05-04T15:32:04Z</time>
      </trkpt>
      <trkpt lat="48.409939" lon="15.504315">
        <ele>208.608</ele>
        <time>2019-05-04T15:32:05Z</time>
      </trkpt>
      <trkpt lat="48.409917" lon="15.504363">
        <ele>208.025</ele>
        <time>2019-05-04T15:32:06Z</time>
      </trkpt>
      <trkpt lat="48.409823" lon="15.504540">
        <ele>205.748</ele>
        <time>2019-05-04T15:32:10Z</time>
      </trkpt>
      <trkpt lat="48.409799" lon="15.504576">
        <ele>205.242</ele>
        <time>2019-05-04T15:32:11Z</time>
      </trkpt>
      <trkpt lat="48.409706" lon="15.504731">
        <ele>203.097</ele>
        <time>2019-05-04T15:32:15Z</time>
      </trkpt>
      <trkpt lat="48.409656" lon="15.504816">
        <ele>203.481</ele>
        <time>2019-05-04T15:32:17Z</time>
      </trkpt>
      <trkpt lat="48.409609" lon="15.504897">
        <ele>203.977</ele>
        <time>2019-05-04T15:32:19Z</time>
      </trkpt>
      <trkpt lat="48.409545" lon="15.505026">
        <ele>204.840</ele>
        <time>2019-05-04T15:32:22Z</time>
      </trkpt>
      <trkpt lat="48.409390" lon="15.505319">
        <ele>205.738</ele>
        <time>2019-05-04T15:32:29Z</time>
      </trkpt>
      <trkpt lat="48.409227" lon="15.505603">
        <ele>206.043</ele>
        <time>2019-05-04T15:32:36Z</time>
      </trkpt>
      <trkpt lat="48.409089" lon="15.505857">
        <ele>206.564</ele>
        <time>2019-05-04T15:32:43Z</time>
      </trkpt>
      <trkpt lat="48.409006" lon="15.506016">
        <ele>206.710</ele>
        <time>2019-05-04T15:32:50Z</time>
      </trkpt>
      <trkpt lat="48.408984" lon="15.506055">
        <ele>206.408</ele>
        <time>2019-05-04T15:32:53Z</time>
      </trkpt>
      <trkpt lat="48.408978" lon="15.506066">
        <ele>206.377</ele>
        <time>2019-05-04T15:32:54Z</time>
      </trkpt>
      <trkpt lat="48.408987" lon="15.506073">
        <ele>206.620</ele>
        <time>2019-05-04T15:32:57Z</time>
      </trkpt>
      <trkpt lat="48.409007" lon="15.506027">
        <ele>206.884</ele>
        <time>2019-05-04T15:33:02Z</time>
      </trkpt>
      <trkpt lat="48.408999" lon="15.506009">
        <ele>206.459</ele>
        <time>2019-05-04T15:33:03Z</time>
      </trkpt>
      <trkpt lat="48.409000" lon="15.505994">
        <ele>206.473</ele>
        <time>2019-05-04T15:33:05Z</time>
      </trkpt>
      <trkpt lat="48.409007" lon="15.505994">
        <ele>206.559</ele>
        <time>2019-05-04T15:33:07Z</time>
      </trkpt>
      <trkpt lat="48.409059" lon="15.506162">
        <ele>209.812</ele>
        <time>2019-05-04T15:33:55Z</time>
      </trkpt>
      <trkpt lat="48.409055" lon="15.506197">
        <ele>210.260</ele>
        <time>2019-05-04T15:33:56Z</time>
      </trkpt>
      <trkpt lat="48.409005" lon="15.506403">
        <ele>210.925</ele>
        <time>2019-05-04T15:34:02Z</time>
      </trkpt>
      <trkpt lat="48.408994" lon="15.506441">
        <ele>210.426</ele>
        <time>2019-05-04T15:34:03Z</time>
      </trkpt>
      <trkpt lat="48.408914" lon="15.506697">
        <ele>206.708</ele>
        <time>2019-05-04T15:34:09Z</time>
      </trkpt>
      <trkpt lat="48.408842" lon="15.506980">
        <ele>206.208</ele>
        <time>2019-05-04T15:34:15Z</time>
      </trkpt>
      <trkpt lat="48.408831" lon="15.507030">
        <ele>206.295</ele>
        <time>2019-05-04T15:34:16Z</time>
      </trkpt>
      <trkpt lat="48.408782" lon="15.507220">
        <ele>205.568</ele>
        <time>2019-05-04T15:34:20Z</time>
      </trkpt>
      <trkpt lat="48.408770" lon="15.507264">
        <ele>205.442</ele>
        <time>2019-05-04T15:34:21Z</time>
      </trkpt>
      <trkpt lat="48.408754" lon="15.507302">
        <ele>205.277</ele>
        <time>2019-05-04T15:34:22Z</time>
      </trkpt>
      <trkpt lat="48.408681" lon="15.507526">
        <ele>204.461</ele>
        <time>2019-05-04T15:34:27Z</time>
      </trkpt>
      <trkpt lat="48.408631" lon="15.507652">
        <ele>203.287</ele>
        <time>2019-05-04T15:34:30Z</time>
      </trkpt>
      <trkpt lat="48.408574" lon="15.507773">
        <ele>202.810</ele>
        <time>2019-05-04T15:34:33Z</time>
      </trkpt>
      <trkpt lat="48.408536" lon="15.507857">
        <ele>203.228</ele>
        <time>2019-05-04T15:34:35Z</time>
      </trkpt>
      <trkpt lat="48.408453" lon="15.508025">
        <ele>203.738</ele>
        <time>2019-05-04T15:34:39Z</time>
      </trkpt>
      <trkpt lat="48.408304" lon="15.508314">
        <ele>202.170</ele>
        <time>2019-05-04T15:34:46Z</time>
      </trkpt>
      <trkpt lat="48.408193" lon="15.508525">
        <ele>204.117</ele>
        <time>2019-05-04T15:34:51Z</time>
      </trkpt>
      <trkpt lat="48.408071" lon="15.508723">
        <ele>203.308</ele>
        <time>2019-05-04T15:34:56Z</time>
      </trkpt>
      <trkpt lat="48.407936" lon="15.508979">
        <ele>202.656</ele>
        <time>2019-05-04T15:35:02Z</time>
      </trkpt>
      <trkpt lat="48.407819" lon="15.509197">
        <ele>203.369</ele>
        <time>2019-05-04T15:35:07Z</time>
      </trkpt>
      <trkpt lat="48.407790" lon="15.509240">
        <ele>203.393</ele>
        <time>2019-05-04T15:35:08Z</time>
      </trkpt>
      <trkpt lat="48.407682" lon="15.509431">
        <ele>202.628</ele>
        <time>2019-05-04T15:35:12Z</time>
      </trkpt>
      <trkpt lat="48.407627" lon="15.509533">
        <ele>202.122</ele>
        <time>2019-05-04T15:35:14Z</time>
      </trkpt>
      <trkpt lat="48.407511" lon="15.509746">
        <ele>201.398</ele>
        <time>2019-05-04T15:35:18Z</time>
      </trkpt>
      <trkpt lat="48.407388" lon="15.509989">
        <ele>200.811</ele>
        <time>2019-05-04T15:35:23Z</time>
      </trkpt>
      <trkpt lat="48.407337" lon="15.510083">
        <ele>200.859</ele>
        <time>2019-05-04T15:35:25Z</time>
      </trkpt>
      <trkpt lat="48.407306" lon="15.510130">
        <ele>200.767</ele>
        <time>2019-05-04T15:35:26Z</time>
      </trkpt>
      <trkpt lat="48.407191" lon="15.510319">
        <ele>200.181</ele>
        <time>2019-05-04T15:35:30Z</time>
      </trkpt>
      <trkpt lat="48.407163" lon="15.510364">
        <ele>200.219</ele>
        <time>2019-05-04T15:35:31Z</time>
      </trkpt>
      <trkpt lat="48.407088" lon="15.510513">
        <ele>200.408</ele>
        <time>2019-05-04T15:35:34Z</time>
      </trkpt>
      <trkpt lat="48.407061" lon="15.510562">
        <ele>200.429</ele>
        <time>2019-05-04T15:35:35Z</time>
      </trkpt>
      <trkpt lat="48.407007" lon="15.510664">
        <ele>200.252</ele>
        <time>2019-05-04T15:35:37Z</time>
      </trkpt>
      <trkpt lat="48.406936" lon="15.510802">
        <ele>200.176</ele>
        <time>2019-05-04T15:35:40Z</time>
      </trkpt>
      <trkpt lat="48.406836" lon="15.510975">
        <ele>200.721</ele>
        <time>2019-05-04T15:35:44Z</time>
      </trkpt>
      <trkpt lat="48.406759" lon="15.511113">
        <ele>200.385</ele>
        <time>2019-05-04T15:35:47Z</time>
      </trkpt>
      <trkpt lat="48.406734" lon="15.511160">
        <ele>200.441</ele>
        <time>2019-05-04T15:35:48Z</time>
      </trkpt>
      <trkpt lat="48.406622" lon="15.511365">
        <ele>200.824</ele>
        <time>2019-05-04T15:35:53Z</time>
      </trkpt>
      <trkpt lat="48.406498" lon="15.511589">
        <ele>201.042</ele>
        <time>2019-05-04T15:35:58Z</time>
      </trkpt>
      <trkpt lat="48.406406" lon="15.511707">
        <ele>200.353</ele>
        <time>2019-05-04T15:36:01Z</time>
      </trkpt>
      <trkpt lat="48.406375" lon="15.511745">
        <ele>200.204</ele>
        <time>2019-05-04T15:36:02Z</time>
      </trkpt>
      <trkpt lat="48.406345" lon="15.511794">
        <ele>200.214</ele>
        <time>2019-05-04T15:36:03Z</time>
      </trkpt>
      <trkpt lat="48.406315" lon="15.511848">
        <ele>200.008</ele>
        <time>2019-05-04T15:36:04Z</time>
      </trkpt>
      <trkpt lat="48.406282" lon="15.511908">
        <ele>199.838</ele>
        <time>2019-05-04T15:36:05Z</time>
      </trkpt>
      <trkpt lat="48.406176" lon="15.512106">
        <ele>199.451</ele>
        <time>2019-05-04T15:36:08Z</time>
      </trkpt>
      <trkpt lat="48.406017" lon="15.512393">
        <ele>199.985</ele>
        <time>2019-05-04T15:36:12Z</time>
      </trkpt>
      <trkpt lat="48.405933" lon="15.512543">
        <ele>200.710</ele>
        <time>2019-05-04T15:36:14Z</time>
      </trkpt>
      <trkpt lat="48.405893" lon="15.512617">
        <ele>201.194</ele>
        <time>2019-05-04T15:36:15Z</time>
      </trkpt>
      <trkpt lat="48.405822" lon="15.512760">
        <ele>201.910</ele>
        <time>2019-05-04T15:36:17Z</time>
      </trkpt>
      <trkpt lat="48.405744" lon="15.512895">
        <ele>203.373</ele>
        <time>2019-05-04T15:36:19Z</time>
      </trkpt>
      <trkpt lat="48.405615" lon="15.513094">
        <ele>204.641</ele>
        <time>2019-05-04T15:36:22Z</time>
      </trkpt>
      <trkpt lat="48.405406" lon="15.513389">
        <ele>204.933</ele>
        <time>2019-05-04T15:36:27Z</time>
      </trkpt>
      <trkpt lat="48.405367" lon="15.513444">
        <ele>204.723</ele>
        <time>2019-05-04T15:36:28Z</time>
      </trkpt>
      <trkpt lat="48.405281" lon="15.513544">
        <ele>203.815</ele>
        <time>2019-05-04T15:36:30Z</time>
      </trkpt>
      <trkpt lat="48.405197" lon="15.513644">
        <ele>203.708</ele>
        <time>2019-05-04T15:36:32Z</time>
      </trkpt>
      <trkpt lat="48.405152" lon="15.513690">
        <ele>203.776</ele>
        <time>2019-05-04T15:36:33Z</time>
      </trkpt>
      <trkpt lat="48.405026" lon="15.513818">
        <ele>203.199</ele>
        <time>2019-05-04T15:36:36Z</time>
      </trkpt>
      <trkpt lat="48.404719" lon="15.514136">
        <ele>204.873</ele>
        <time>2019-05-04T15:36:43Z</time>
      </trkpt>
      <trkpt lat="48.404489" lon="15.514360">
        <ele>206.068</ele>
        <time>2019-05-04T15:36:48Z</time>
      </trkpt>
      <trkpt lat="48.404349" lon="15.514521">
        <ele>206.292</ele>
        <time>2019-05-04T15:36:51Z</time>
      </trkpt>
      <trkpt lat="48.404260" lon="15.514619">
        <ele>206.168</ele>
        <time>2019-05-04T15:36:53Z</time>
      </trkpt>
      <trkpt lat="48.404082" lon="15.514819">
        <ele>205.561</ele>
        <time>2019-05-04T15:36:57Z</time>
      </trkpt>
      <trkpt lat="48.403993" lon="15.514921">
        <ele>205.489</ele>
        <time>2019-05-04T15:36:59Z</time>
      </trkpt>
      <trkpt lat="48.403863" lon="15.515061">
        <ele>204.567</ele>
        <time>2019-05-04T15:37:02Z</time>
      </trkpt>
      <trkpt lat="48.403741" lon="15.515200">
        <ele>204.981</ele>
        <time>2019-05-04T15:37:05Z</time>
      </trkpt>
      <trkpt lat="48.403489" lon="15.515442">
        <ele>202.719</ele>
        <time>2019-05-04T15:37:11Z</time>
      </trkpt>
      <trkpt lat="48.403402" lon="15.515519">
        <ele>201.708</ele>
        <time>2019-05-04T15:37:13Z</time>
      </trkpt>
      <trkpt lat="48.403263" lon="15.515617">
        <ele>200.959</ele>
        <time>2019-05-04T15:37:16Z</time>
      </trkpt>
      <trkpt lat="48.403082" lon="15.515777">
        <ele>200.782</ele>
        <time>2019-05-04T15:37:20Z</time>
      </trkpt>
      <trkpt lat="48.403040" lon="15.515819">
        <ele>200.726</ele>
        <time>2019-05-04T15:37:21Z</time>
      </trkpt>
      <trkpt lat="48.402993" lon="15.515860">
        <ele>200.791</ele>
        <time>2019-05-04T15:37:22Z</time>
      </trkpt>
      <trkpt lat="48.402949" lon="15.515905">
        <ele>200.735</ele>
        <time>2019-05-04T15:37:23Z</time>
      </trkpt>
      <trkpt lat="48.402868" lon="15.515998">
        <ele>200.561</ele>
        <time>2019-05-04T15:37:25Z</time>
      </trkpt>
      <trkpt lat="48.402781" lon="15.516088">
        <ele>199.934</ele>
        <time>2019-05-04T15:37:27Z</time>
      </trkpt>
      <trkpt lat="48.402694" lon="15.516175">
        <ele>201.592</ele>
        <time>2019-05-04T15:37:29Z</time>
      </trkpt>
      <trkpt lat="48.402651" lon="15.516217">
        <ele>202.373</ele>
        <time>2019-05-04T15:37:30Z</time>
      </trkpt>
      <trkpt lat="48.402605" lon="15.516258">
        <ele>202.985</ele>
        <time>2019-05-04T15:37:31Z</time>
      </trkpt>
      <trkpt lat="48.402511" lon="15.516332">
        <ele>203.613</ele>
        <time>2019-05-04T15:37:33Z</time>
      </trkpt>
      <trkpt lat="48.402465" lon="15.516374">
        <ele>204.008</ele>
        <time>2019-05-04T15:37:34Z</time>
      </trkpt>
      <trkpt lat="48.402417" lon="15.516412">
        <ele>204.560</ele>
        <time>2019-05-04T15:37:35Z</time>
      </trkpt>
      <trkpt lat="48.402320" lon="15.516482">
        <ele>205.113</ele>
        <time>2019-05-04T15:37:37Z</time>
      </trkpt>
      <trkpt lat="48.402270" lon="15.516514">
        <ele>205.197</ele>
        <time>2019-05-04T15:37:38Z</time>
      </trkpt>
      <trkpt lat="48.402029" lon="15.516678">
        <ele>205.732</ele>
        <time>2019-05-04T15:37:43Z</time>
      </trkpt>
      <trkpt lat="48.401981" lon="15.516709">
        <ele>205.886</ele>
        <time>2019-05-04T15:37:44Z</time>
      </trkpt>
      <trkpt lat="48.401683" lon="15.516894">
        <ele>203.332</ele>
        <time>2019-05-04T15:37:50Z</time>
      </trkpt>
      <trkpt lat="48.401635" lon="15.516927">
        <ele>203.235</ele>
        <time>2019-05-04T15:37:51Z</time>
      </trkpt>
      <trkpt lat="48.401434" lon="15.517045">
        <ele>204.383</ele>
        <time>2019-05-04T15:37:55Z</time>
      </trkpt>
      <trkpt lat="48.401278" lon="15.517126">
        <ele>205.514</ele>
        <time>2019-05-04T15:37:58Z</time>
      </trkpt>
      <trkpt lat="48.401175" lon="15.517185">
        <ele>206.454</ele>
        <time>2019-05-04T15:38:00Z</time>
      </trkpt>
      <trkpt lat="48.400869" lon="15.517333">
        <ele>205.209</ele>
        <time>2019-05-04T15:38:06Z</time>
      </trkpt>
      <trkpt lat="48.400818" lon="15.517358">
        <ele>205.008</ele>
        <time>2019-05-04T15:38:07Z</time>
      </trkpt>
      <trkpt lat="48.400544" lon="15.517490">
        <ele>206.964</ele>
        <time>2019-05-04T15:38:12Z</time>
      </trkpt>
      <trkpt lat="48.400490" lon="15.517519">
        <ele>207.257</ele>
        <time>2019-05-04T15:38:13Z</time>
      </trkpt>
      <trkpt lat="48.400281" lon="15.517635">
        <ele>208.571</ele>
        <time>2019-05-04T15:38:17Z</time>
      </trkpt>
      <trkpt lat="48.400176" lon="15.517687">
        <ele>207.686</ele>
        <time>2019-05-04T15:38:19Z</time>
      </trkpt>
      <trkpt lat="48.400068" lon="15.517742">
        <ele>206.620</ele>
        <time>2019-05-04T15:38:21Z</time>
      </trkpt>
      <trkpt lat="48.400013" lon="15.517766">
        <ele>206.186</ele>
        <time>2019-05-04T15:38:22Z</time>
      </trkpt>
      <trkpt lat="48.399757" lon="15.517904">
        <ele>205.219</ele>
        <time>2019-05-04T15:38:27Z</time>
      </trkpt>
      <trkpt lat="48.399621" lon="15.517977">
        <ele>205.777</ele>
        <time>2019-05-04T15:38:30Z</time>
      </trkpt>
      <trkpt lat="48.399543" lon="15.518039">
        <ele>206.299</ele>
        <time>2019-05-04T15:38:32Z</time>
      </trkpt>
      <trkpt lat="48.399411" lon="15.518112">
        <ele>206.307</ele>
        <time>2019-05-04T15:38:35Z</time>
      </trkpt>
      <trkpt lat="48.399366" lon="15.518137">
        <ele>206.027</ele>
        <time>2019-05-04T15:38:36Z</time>
      </trkpt>
      <trkpt lat="48.399318" lon="15.518147">
        <ele>205.308</ele>
        <time>2019-05-04T15:38:37Z</time>
      </trkpt>
      <trkpt lat="48.399232" lon="15.518174">
        <ele>204.322</ele>
        <time>2019-05-04T15:38:39Z</time>
      </trkpt>
      <trkpt lat="48.399158" lon="15.518214">
        <ele>203.665</ele>
        <time>2019-05-04T15:38:41Z</time>
      </trkpt>
      <trkpt lat="48.399010" lon="15.518278">
        <ele>201.989</ele>
        <time>2019-05-04T15:38:46Z</time>
      </trkpt>
      <trkpt lat="48.398901" lon="15.518363">
        <ele>200.544</ele>
        <time>2019-05-04T15:38:53Z</time>
      </trkpt>
      <trkpt lat="48.398889" lon="15.518372">
        <ele>200.428</ele>
        <time>2019-05-04T15:38:54Z</time>
      </trkpt>
      <trkpt lat="48.398833" lon="15.518422">
        <ele>201.044</ele>
        <time>2019-05-04T15:39:00Z</time>
      </trkpt>
      <trkpt lat="48.398834" lon="15.518428">
        <ele>201.017</ele>
        <time>2019-05-04T15:39:02Z</time>
      </trkpt>
      <trkpt lat="48.398879" lon="15.518398">
        <ele>200.785</ele>
        <time>2019-05-04T15:39:05Z</time>
      </trkpt>
      <trkpt lat="48.398896" lon="15.518380">
        <ele>200.641</ele>
        <time>2019-05-04T15:39:06Z</time>
      </trkpt>
      <trkpt lat="48.398969" lon="15.518289">
        <ele>201.381</ele>
        <time>2019-05-04T15:39:09Z</time>
      </trkpt>
      <trkpt lat="48.399002" lon="15.518256">
        <ele>201.709</ele>
        <time>2019-05-04T15:39:10Z</time>
      </trkpt>
      <trkpt lat="48.399039" lon="15.518232">
        <ele>202.108</ele>
        <time>2019-05-04T15:39:11Z</time>
      </trkpt>
      <trkpt lat="48.399160" lon="15.518149">
        <ele>202.957</ele>
        <time>2019-05-04T15:39:14Z</time>
      </trkpt>
      <trkpt lat="48.399293" lon="15.518075">
        <ele>204.170</ele>
        <time>2019-05-04T15:39:17Z</time>
      </trkpt>
      <trkpt lat="48.399375" lon="15.518028">
        <ele>204.934</ele>
        <time>2019-05-04T15:39:19Z</time>
      </trkpt>
      <trkpt lat="48.399480" lon="15.517950">
        <ele>205.399</ele>
        <time>2019-05-04T15:39:22Z</time>
      </trkpt>
      <trkpt lat="48.399634" lon="15.517865">
        <ele>204.433</ele>
        <time>2019-05-04T15:39:27Z</time>
      </trkpt>
      <trkpt lat="48.399665" lon="15.517855">
        <ele>204.259</ele>
        <time>2019-05-04T15:39:28Z</time>
      </trkpt>
      <trkpt lat="48.399737" lon="15.517831">
        <ele>203.922</ele>
        <time>2019-05-04T15:39:31Z</time>
      </trkpt>
      <trkpt lat="48.399776" lon="15.517812">
        <ele>204.180</ele>
        <time>2019-05-04T15:39:33Z</time>
      </trkpt>
      <trkpt lat="48.399892" lon="15.517775">
        <ele>204.856</ele>
        <time>2019-05-04T15:39:40Z</time>
      </trkpt>
      <trkpt lat="48.399917" lon="15.517756">
        <ele>204.959</ele>
        <time>2019-05-04T15:39:42Z</time>
      </trkpt>
      <trkpt lat="48.399990" lon="15.517712">
        <ele>205.214</ele>
        <time>2019-05-04T15:39:46Z</time>
      </trkpt>
      <trkpt lat="48.400087" lon="15.517669">
        <ele>206.108</ele>
        <time>2019-05-04T15:39:52Z</time>
      </trkpt>
      <trkpt lat="48.400073" lon="15.517693">
        <ele>206.138</ele>
        <time>2019-05-04T15:39:54Z</time>
      </trkpt>
      <trkpt lat="48.400030" lon="15.517716">
        <ele>205.871</ele>
        <time>2019-05-04T15:39:56Z</time>
      </trkpt>
      <trkpt lat="48.400003" lon="15.517734">
        <ele>205.615</ele>
        <time>2019-05-04T15:39:57Z</time>
      </trkpt>
      <trkpt lat="48.399837" lon="15.517824">
        <ele>204.920</ele>
        <time>2019-05-04T15:40:02Z</time>
      </trkpt>
      <trkpt lat="48.399762" lon="15.517865">
        <ele>204.724</ele>
        <time>2019-05-04T15:40:04Z</time>
      </trkpt>
      <trkpt lat="48.399682" lon="15.517902">
        <ele>204.890</ele>
        <time>2019-05-04T15:40:06Z</time>
      </trkpt>
      <trkpt lat="48.399639" lon="15.517919">
        <ele>205.033</ele>
        <time>2019-05-04T15:40:07Z</time>
      </trkpt>
      <trkpt lat="48.399596" lon="15.517938">
        <ele>205.211</ele>
        <time>2019-05-04T15:40:08Z</time>
      </trkpt>
      <trkpt lat="48.399434" lon="15.518031">
        <ele>205.713</ele>
        <time>2019-05-04T15:40:12Z</time>
      </trkpt>
      <trkpt lat="48.399297" lon="15.518096">
        <ele>204.443</ele>
        <time>2019-05-04T15:40:15Z</time>
      </trkpt>
      <trkpt lat="48.399156" lon="15.518161">
        <ele>203.007</ele>
        <time>2019-05-04T15:40:18Z</time>
      </trkpt>
      <trkpt lat="48.398971" lon="15.518280">
        <ele>201.308</ele>
        <time>2019-05-04T15:40:23Z</time>
      </trkpt>
      <trkpt lat="48.398844" lon="15.518440">
        <ele>201.284</ele>
        <time>2019-05-04T15:40:28Z</time>
      </trkpt>
      <trkpt lat="48.398736" lon="15.518567">
        <ele>202.527</ele>
        <time>2019-05-04T15:40:33Z</time>
      </trkpt>
      <trkpt lat="48.398620" lon="15.518713">
        <ele>204.171</ele>
        <time>2019-05-04T15:40:39Z</time>
      </trkpt>
      <trkpt lat="48.398516" lon="15.518827">
        <ele>205.426</ele>
        <time>2019-05-04T15:40:45Z</time>
      </trkpt>
      <trkpt lat="48.398480" lon="15.518852">
        <ele>205.770</ele>
        <time>2019-05-04T15:40:47Z</time>
      </trkpt>
      <trkpt lat="48.398457" lon="15.518861">
        <ele>205.896</ele>
        <time>2019-05-04T15:40:48Z</time>
      </trkpt>
      <trkpt lat="48.398415" lon="15.518872">
        <ele>205.979</ele>
        <time>2019-05-04T15:40:50Z</time>
      </trkpt>
      <trkpt lat="48.398324" lon="15.518938">
        <ele>206.827</ele>
        <time>2019-05-04T15:40:55Z</time>
      </trkpt>
      <trkpt lat="48.398260" lon="15.518974">
        <ele>207.752</ele>
        <time>2019-05-04T15:41:00Z</time>
      </trkpt>
      <trkpt lat="48.398208" lon="15.518992">
        <ele>208.353</ele>
        <time>2019-05-04T15:41:04Z</time>
      </trkpt>
      <trkpt lat="48.398182" lon="15.518996">
        <ele>208.508</ele>
        <time>2019-05-04T15:41:06Z</time>
      </trkpt>
      <trkpt lat="48.398166" lon="15.518999">
        <ele>208.708</ele>
        <time>2019-05-04T15:41:08Z</time>
      </trkpt>
      <trkpt lat="48.398160" lon="15.518999">
        <ele>208.798</ele>
        <time>2019-05-04T15:41:09Z</time>
      </trkpt>
      <trkpt lat="48.398129" lon="15.519007">
        <ele>209.111</ele>
        <time>2019-05-04T15:41:11Z</time>
      </trkpt>
      <trkpt lat="48.398090" lon="15.519010">
        <ele>209.455</ele>
        <time>2019-05-04T15:41:13Z</time>
      </trkpt>
      <trkpt lat="48.398031" lon="15.519030">
        <ele>210.490</ele>
        <time>2019-05-04T15:41:16Z</time>
      </trkpt>
      <trkpt lat="48.397932" lon="15.519061">
        <ele>212.774</ele>
        <time>2019-05-04T15:41:22Z</time>
      </trkpt>
      <trkpt lat="48.397882" lon="15.519078">
        <ele>214.090</ele>
        <time>2019-05-04T15:41:26Z</time>
      </trkpt>
      <trkpt lat="48.397869" lon="15.519084">
        <ele>214.433</ele>
        <time>2019-05-04T15:41:27Z</time>
      </trkpt>
      <trkpt lat="48.397853" lon="15.519088">
        <ele>214.851</ele>
        <time>2019-05-04T15:41:28Z</time>
      </trkpt>
      <trkpt lat="48.397837" lon="15.519086">
        <ele>215.121</ele>
        <time>2019-05-04T15:41:29Z</time>
      </trkpt>
      <trkpt lat="48.397799" lon="15.519088">
        <ele>215.841</ele>
        <time>2019-05-04T15:41:32Z</time>
      </trkpt>
      <trkpt lat="48.397784" lon="15.519093">
        <ele>216.205</ele>
        <time>2019-05-04T15:41:33Z</time>
      </trkpt>
      <trkpt lat="48.397763" lon="15.519100">
        <ele>216.708</ele>
        <time>2019-05-04T15:41:34Z</time>
      </trkpt>
      <trkpt lat="48.397687" lon="15.519116">
        <ele>217.545</ele>
        <time>2019-05-04T15:41:38Z</time>
      </trkpt>
      <trkpt lat="48.397672" lon="15.519116">
        <ele>217.628</ele>
        <time>2019-05-04T15:41:39Z</time>
      </trkpt>
      <trkpt lat="48.397576" lon="15.519117">
        <ele>217.932</ele>
        <time>2019-05-04T15:41:44Z</time>
      </trkpt>
      <trkpt lat="48.397449" lon="15.519116">
        <ele>218.237</ele>
        <time>2019-05-04T15:41:50Z</time>
      </trkpt>
      <trkpt lat="48.397347" lon="15.519122">
        <ele>218.411</ele>
        <time>2019-05-04T15:41:55Z</time>
      </trkpt>
      <trkpt lat="48.397260" lon="15.519134">
        <ele>218.867</ele>
        <time>2019-05-04T15:42:00Z</time>
      </trkpt>
      <trkpt lat="48.397240" lon="15.519132">
        <ele>218.820</ele>
        <time>2019-05-04T15:42:01Z</time>
      </trkpt>
      <trkpt lat="48.397153" lon="15.519141">
        <ele>219.358</ele>
        <time>2019-05-04T15:42:07Z</time>
      </trkpt>
      <trkpt lat="48.397080" lon="15.519078">
        <ele>217.317</ele>
        <time>2019-05-04T15:42:12Z</time>
      </trkpt>
      <trkpt lat="48.397067" lon="15.519069">
        <ele>217.087</ele>
        <time>2019-05-04T15:42:13Z</time>
      </trkpt>
      <trkpt lat="48.397003" lon="15.519045">
        <ele>216.415</ele>
        <time>2019-05-04T15:42:18Z</time>
      </trkpt>
      <trkpt lat="48.396978" lon="15.519033">
        <ele>216.108</ele>
        <time>2019-05-04T15:42:20Z</time>
      </trkpt>
      <trkpt lat="48.396953" lon="15.519020">
        <ele>215.734</ele>
        <time>2019-05-04T15:42:22Z</time>
      </trkpt>
      <trkpt lat="48.396874" lon="15.519005">
        <ele>215.747</ele>
        <time>2019-05-04T15:42:27Z</time>
      </trkpt>
      <trkpt lat="48.396841" lon="15.518999">
        <ele>215.731</ele>
        <time>2019-05-04T15:42:29Z</time>
      </trkpt>
      <trkpt lat="48.396814" lon="15.518993">
        <ele>215.776</ele>
        <time>2019-05-04T15:42:31Z</time>
      </trkpt>
      <trkpt lat="48.396770" lon="15.519006">
        <ele>216.470</ele>
        <time>2019-05-04T15:42:34Z</time>
      </trkpt>
      <trkpt lat="48.396689" lon="15.519004">
        <ele>216.986</ele>
        <time>2019-05-04T15:42:39Z</time>
      </trkpt>
      <trkpt lat="48.396673" lon="15.519010">
        <ele>217.179</ele>
        <time>2019-05-04T15:42:40Z</time>
      </trkpt>
      <trkpt lat="48.396606" lon="15.519010">
        <ele>217.277</ele>
        <time>2019-05-04T15:42:46Z</time>
      </trkpt>
      <trkpt lat="48.396588" lon="15.519012">
        <ele>217.258</ele>
        <time>2019-05-04T15:42:50Z</time>
      </trkpt>
      <trkpt lat="48.396587" lon="15.519023">
        <ele>217.452</ele>
        <time>2019-05-04T15:42:51Z</time>
      </trkpt>
      <trkpt lat="48.396578" lon="15.519035">
        <ele>217.617</ele>
        <time>2019-05-04T15:42:52Z</time>
      </trkpt>
      <trkpt lat="48.396567" lon="15.519045">
        <ele>217.808</ele>
        <time>2019-05-04T15:42:53Z</time>
      </trkpt>
      <trkpt lat="48.396540" lon="15.519072">
        <ele>218.248</ele>
        <time>2019-05-04T15:42:55Z</time>
      </trkpt>
      <trkpt lat="48.396430" lon="15.519096">
        <ele>218.371</ele>
        <time>2019-05-04T15:43:00Z</time>
      </trkpt>
      <trkpt lat="48.396280" lon="15.519161">
        <ele>218.125</ele>
        <time>2019-05-04T15:43:08Z</time>
      </trkpt>
      <trkpt lat="48.396162" lon="15.519261">
        <ele>218.330</ele>
        <time>2019-05-04T15:43:14Z</time>
      </trkpt>
      <trkpt lat="48.396021" lon="15.519392">
        <ele>218.724</ele>
        <time>2019-05-04T15:43:21Z</time>
      </trkpt>
      <trkpt lat="48.395898" lon="15.519510">
        <ele>219.110</ele>
        <time>2019-05-04T15:43:28Z</time>
      </trkpt>
      <trkpt lat="48.395833" lon="15.519634">
        <ele>220.063</ele>
        <time>2019-05-04T15:43:33Z</time>
      </trkpt>
      <trkpt lat="48.395819" lon="15.519668">
        <ele>220.251</ele>
        <time>2019-05-04T15:43:34Z</time>
      </trkpt>
      <trkpt lat="48.395699" lon="15.519824">
        <ele>220.531</ele>
        <time>2019-05-04T15:43:40Z</time>
      </trkpt>
      <trkpt lat="48.395571" lon="15.519934">
        <ele>220.461</ele>
        <time>2019-05-04T15:43:47Z</time>
      </trkpt>
      <trkpt lat="48.395451" lon="15.520125">
        <ele>219.407</ele>
        <time>2019-05-04T15:43:54Z</time>
      </trkpt>
      <trkpt lat="48.395385" lon="15.520194">
        <ele>218.208</ele>
        <time>2019-05-04T15:43:57Z</time>
      </trkpt>
      <trkpt lat="48.395313" lon="15.520273">
        <ele>216.886</ele>
        <time>2019-05-04T15:44:01Z</time>
      </trkpt>
      <trkpt lat="48.395227" lon="15.520328">
        <ele>216.039</ele>
        <time>2019-05-04T15:44:06Z</time>
      </trkpt>
      <trkpt lat="48.395211" lon="15.520332">
        <ele>215.933</ele>
        <time>2019-05-04T15:44:07Z</time>
      </trkpt>
      <trkpt lat="48.395126" lon="15.520415">
        <ele>215.638</ele>
        <time>2019-05-04T15:44:13Z</time>
      </trkpt>
      <trkpt lat="48.395125" lon="15.520448">
        <ele>215.852</ele>
        <time>2019-05-04T15:44:15Z</time>
      </trkpt>
      <trkpt lat="48.395128" lon="15.520460">
        <ele>215.998</ele>
        <time>2019-05-04T15:44:16Z</time>
      </trkpt>
      <trkpt lat="48.395120" lon="15.520462">
        <ele>215.851</ele>
        <time>2019-05-04T15:44:17Z</time>
      </trkpt>
      <trkpt lat="48.395086" lon="15.520454">
        <ele>215.419</ele>
        <time>2019-05-04T15:44:19Z</time>
      </trkpt>
      <trkpt lat="48.394926" lon="15.520717">
        <ele>216.123</ele>
        <time>2019-05-04T15:48:11Z</time>
      </trkpt>
      <trkpt lat="48.394910" lon="15.520748">
        <ele>216.383</ele>
        <time>2019-05-04T15:48:13Z</time>
      </trkpt>
      <trkpt lat="48.394899" lon="15.520763">
        <ele>216.311</ele>
        <time>2019-05-04T15:48:14Z</time>
      </trkpt>
      <trkpt lat="48.394815" lon="15.520830">
        <ele>216.308</ele>
        <time>2019-05-04T15:48:19Z</time>
      </trkpt>
      <trkpt lat="48.394771" lon="15.520838">
        <ele>216.265</ele>
        <time>2019-05-04T15:48:21Z</time>
      </trkpt>
      <trkpt lat="48.394724" lon="15.520858">
        <ele>216.178</ele>
        <time>2019-05-04T15:48:24Z</time>
      </trkpt>
      <trkpt lat="48.394727" lon="15.520857">
        <ele>216.172</ele>
        <time>2019-05-04T15:48:25Z</time>
      </trkpt>
      <trkpt lat="48.394730" lon="15.520852">
        <ele>216.137</ele>
        <time>2019-05-04T15:48:26Z</time>
      </trkpt>
      <trkpt lat="48.394744" lon="15.520823">
        <ele>216.141</ele>
        <time>2019-05-04T15:48:30Z</time>
      </trkpt>
      <trkpt lat="48.394738" lon="15.520825">
        <ele>216.157</ele>
        <time>2019-05-04T15:48:33Z</time>
      </trkpt>
      <trkpt lat="48.394600" lon="15.520970">
        <ele>215.680</ele>
        <time>2019-05-04T15:49:41Z</time>
      </trkpt>
      <trkpt lat="48.394585" lon="15.520986">
        <ele>215.548</ele>
        <time>2019-05-04T15:49:42Z</time>
      </trkpt>
      <trkpt lat="48.394525" lon="15.521038">
        <ele>215.018</ele>
        <time>2019-05-04T15:49:47Z</time>
      </trkpt>
      <trkpt lat="48.394497" lon="15.521061">
        <ele>214.798</ele>
        <time>2019-05-04T15:49:49Z</time>
      </trkpt>
      <trkpt lat="48.394348" lon="15.521103">
        <ele>213.317</ele>
        <time>2019-05-04T15:49:55Z</time>
      </trkpt>
      <trkpt lat="48.394313" lon="15.521153">
        <ele>213.108</ele>
        <time>2019-05-04T15:49:56Z</time>
      </trkpt>
      <trkpt lat="48.394207" lon="15.521261">
        <ele>212.394</ele>
        <time>2019-05-04T15:50:00Z</time>
      </trkpt>
      <trkpt lat="48.394175" lon="15.521343">
        <ele>212.137</ele>
        <time>2019-05-04T15:50:03Z</time>
      </trkpt>
      <trkpt lat="48.394172" lon="15.521362">
        <ele>212.021</ele>
        <time>2019-05-04T15:50:05Z</time>
      </trkpt>
      <trkpt lat="48.394164" lon="15.521362">
        <ele>212.076</ele>
        <time>2019-05-04T15:50:06Z</time>
      </trkpt>
      <trkpt lat="48.394130" lon="15.521479">
        <ele>211.670</ele>
        <time>2019-05-04T15:50:27Z</time>
      </trkpt>
      <trkpt lat="48.394119" lon="15.521522">
        <ele>211.576</ele>
        <time>2019-05-04T15:50:28Z</time>
      </trkpt>
      <trkpt lat="48.394015" lon="15.521790">
        <ele>210.619</ele>
        <time>2019-05-04T15:50:33Z</time>
      </trkpt>
      <trkpt lat="48.393989" lon="15.521854">
        <ele>210.347</ele>
        <time>2019-05-04T15:50:34Z</time>
      </trkpt>
      <trkpt lat="48.393829" lon="15.522217">
        <ele>208.129</ele>
        <time>2019-05-04T15:50:39Z</time>
      </trkpt>
      <trkpt lat="48.393790" lon="15.522296">
        <ele>207.600</ele>
        <time>2019-05-04T15:50:40Z</time>
      </trkpt>
      <trkpt lat="48.393753" lon="15.522381">
        <ele>207.020</ele>
        <time>2019-05-04T15:50:41Z</time>
      </trkpt>
      <trkpt lat="48.393721" lon="15.522466">
        <ele>206.608</ele>
        <time>2019-05-04T15:50:42Z</time>
      </trkpt>
      <trkpt lat="48.393690" lon="15.522554">
        <ele>206.125</ele>
        <time>2019-05-04T15:50:43Z</time>
      </trkpt>
      <trkpt lat="48.393662" lon="15.522641">
        <ele>205.728</ele>
        <time>2019-05-04T15:50:44Z</time>
      </trkpt>
      <trkpt lat="48.393632" lon="15.522721">
        <ele>205.332</ele>
        <time>2019-05-04T15:50:45Z</time>
      </trkpt>
      <trkpt lat="48.393574" lon="15.522859">
        <ele>204.527</ele>
        <time>2019-05-04T15:50:47Z</time>
      </trkpt>
      <trkpt lat="48.393546" lon="15.522920">
        <ele>204.231</ele>
        <time>2019-05-04T15:50:48Z</time>
      </trkpt>
      <trkpt lat="48.393479" lon="15.523030">
        <ele>203.517</ele>
        <time>2019-05-04T15:50:50Z</time>
      </trkpt>
      <trkpt lat="48.393277" lon="15.523306">
        <ele>201.890</ele>
        <time>2019-05-04T15:50:56Z</time>
      </trkpt>
      <trkpt lat="48.393202" lon="15.523433">
        <ele>201.788</ele>
        <time>2019-05-04T15:51:00Z</time>
      </trkpt>
      <trkpt lat="48.393189" lon="15.523467">
        <ele>201.731</ele>
        <time>2019-05-04T15:51:01Z</time>
      </trkpt>
      <trkpt lat="48.393124" lon="15.523637">
        <ele>202.061</ele>
        <time>2019-05-04T15:51:05Z</time>
      </trkpt>
      <trkpt lat="48.393102" lon="15.523688">
        <ele>202.007</ele>
        <time>2019-05-04T15:51:06Z</time>
      </trkpt>
      <trkpt lat="48.392949" lon="15.524095">
        <ele>202.508</ele>
        <time>2019-05-04T15:51:14Z</time>
      </trkpt>
      <trkpt lat="48.392845" lon="15.524281">
        <ele>202.876</ele>
        <time>2019-05-04T15:51:19Z</time>
      </trkpt>
      <trkpt lat="48.392826" lon="15.524320">
        <ele>202.829</ele>
        <time>2019-05-04T15:51:20Z</time>
      </trkpt>
      <trkpt lat="48.392735" lon="15.524500">
        <ele>202.833</ele>
        <time>2019-05-04T15:51:25Z</time>
      </trkpt>
      <trkpt lat="48.392714" lon="15.524538">
        <ele>202.818</ele>
        <time>2019-05-04T15:51:26Z</time>
      </trkpt>
      <trkpt lat="48.392602" lon="15.524728">
        <ele>202.442</ele>
        <time>2019-05-04T15:51:31Z</time>
      </trkpt>
      <trkpt lat="48.392448" lon="15.525021">
        <ele>202.658</ele>
        <time>2019-05-04T15:51:38Z</time>
      </trkpt>
      <trkpt lat="48.392405" lon="15.525115">
        <ele>202.551</ele>
        <time>2019-05-04T15:51:40Z</time>
      </trkpt>
      <trkpt lat="48.392334" lon="15.525323">
        <ele>202.489</ele>
        <time>2019-05-04T15:51:44Z</time>
      </trkpt>
      <trkpt lat="48.392226" lon="15.525629">
        <ele>202.354</ele>
        <time>2019-05-04T15:51:50Z</time>
      </trkpt>
      <trkpt lat="48.392125" lon="15.525923">
        <ele>203.056</ele>
        <time>2019-05-04T15:51:56Z</time>
      </trkpt>
      <trkpt lat="48.392051" lon="15.526176">
        <ele>203.611</ele>
        <time>2019-05-04T15:52:01Z</time>
      </trkpt>
      <trkpt lat="48.392009" lon="15.526322">
        <ele>204.008</ele>
        <time>2019-05-04T15:52:04Z</time>
      </trkpt>
      <trkpt lat="48.391994" lon="15.526365">
        <ele>204.158</ele>
        <time>2019-05-04T15:52:05Z</time>
      </trkpt>
      <trkpt lat="48.391942" lon="15.526536">
        <ele>204.541</ele>
        <time>2019-05-04T15:52:09Z</time>
      </trkpt>
      <trkpt lat="48.391882" lon="15.526734">
        <ele>204.635</ele>
        <time>2019-05-04T15:52:14Z</time>
      </trkpt>
      <trkpt lat="48.391833" lon="15.526963">
        <ele>204.380</ele>
        <time>2019-05-04T15:52:22Z</time>
      </trkpt>
      <trkpt lat="48.391835" lon="15.526989">
        <ele>204.424</ele>
        <time>2019-05-04T15:52:23Z</time>
      </trkpt>
      <trkpt lat="48.391837" lon="15.527056">
        <ele>204.680</ele>
        <time>2019-05-04T15:52:25Z</time>
      </trkpt>
      <trkpt lat="48.391829" lon="15.527124">
        <ele>204.853</ele>
        <time>2019-05-04T15:52:27Z</time>
      </trkpt>
      <trkpt lat="48.391803" lon="15.527396">
        <ele>205.311</ele>
        <time>2019-05-04T15:52:34Z</time>
      </trkpt>
      <trkpt lat="48.391795" lon="15.527576">
        <ele>205.562</ele>
        <time>2019-05-04T15:52:39Z</time>
      </trkpt>
      <trkpt lat="48.391766" lon="15.527738">
        <ele>205.483</ele>
        <time>2019-05-04T15:52:45Z</time>
      </trkpt>
      <trkpt lat="48.391756" lon="15.527865">
        <ele>205.411</ele>
        <time>2019-05-04T15:52:49Z</time>
      </trkpt>
      <trkpt lat="48.391761" lon="15.527887">
        <ele>205.508</ele>
        <time>2019-05-04T15:52:50Z</time>
      </trkpt>
      <trkpt lat="48.391768" lon="15.527889">
        <ele>205.579</ele>
        <time>2019-05-04T15:52:51Z</time>
      </trkpt>
      <trkpt lat="48.391771" lon="15.527878">
        <ele>205.512</ele>
        <time>2019-05-04T15:52:52Z</time>
      </trkpt>
      <trkpt lat="48.391770" lon="15.527827">
        <ele>205.446</ele>
        <time>2019-05-04T15:52:55Z</time>
      </trkpt>
      <trkpt lat="48.391765" lon="15.527811">
        <ele>205.411</ele>
        <time>2019-05-04T15:52:56Z</time>
      </trkpt>
      <trkpt lat="48.391751" lon="15.527809">
        <ele>205.355</ele>
        <time>2019-05-04T15:52:58Z</time>
      </trkpt>
      <trkpt lat="48.391740" lon="15.527856">
        <ele>205.371</ele>
        <time>2019-05-04T15:53:00Z</time>
      </trkpt>
      <trkpt lat="48.391738" lon="15.527892">
        <ele>205.474</ele>
        <time>2019-05-04T15:53:01Z</time>
      </trkpt>
      <trkpt lat="48.391738" lon="15.528074">
        <ele>205.592</ele>
        <time>2019-05-04T15:53:05Z</time>
      </trkpt>
      <trkpt lat="48.391734" lon="15.528126">
        <ele>205.568</ele>
        <time>2019-05-04T15:53:06Z</time>
      </trkpt>
      <trkpt lat="48.391716" lon="15.528286">
        <ele>205.442</ele>
        <time>2019-05-04T15:53:09Z</time>
      </trkpt>
      <trkpt lat="48.391705" lon="15.528400">
        <ele>205.326</ele>
        <time>2019-05-04T15:53:11Z</time>
      </trkpt>
      <trkpt lat="48.391697" lon="15.528463">
        <ele>205.208</ele>
        <time>2019-05-04T15:53:12Z</time>
      </trkpt>
      <trkpt lat="48.391680" lon="15.528665">
        <ele>205.349</ele>
        <time>2019-05-04T15:53:15Z</time>
      </trkpt>
      <trkpt lat="48.391664" lon="15.528807">
        <ele>205.732</ele>
        <time>2019-05-04T15:53:17Z</time>
      </trkpt>
      <trkpt lat="48.391655" lon="15.528882">
        <ele>205.976</ele>
        <time>2019-05-04T15:53:18Z</time>
      </trkpt>
      <trkpt lat="48.391627" lon="15.529100">
        <ele>204.931</ele>
        <time>2019-05-04T15:53:21Z</time>
      </trkpt>
      <trkpt lat="48.391610" lon="15.529243">
        <ele>204.655</ele>
        <time>2019-05-04T15:53:23Z</time>
      </trkpt>
      <trkpt lat="48.391597" lon="15.529315">
        <ele>204.651</ele>
        <time>2019-05-04T15:53:24Z</time>
      </trkpt>
      <trkpt lat="48.391530" lon="15.529598">
        <ele>204.594</ele>
        <time>2019-05-04T15:53:28Z</time>
      </trkpt>
      <trkpt lat="48.391470" lon="15.529880">
        <ele>204.972</ele>
        <time>2019-05-04T15:53:32Z</time>
      </trkpt>
      <trkpt lat="48.391405" lon="15.530174">
        <ele>205.163</ele>
        <time>2019-05-04T15:53:36Z</time>
      </trkpt>
      <trkpt lat="48.391359" lon="15.530378">
        <ele>204.744</ele>
        <time>2019-05-04T15:53:39Z</time>
      </trkpt>
      <trkpt lat="48.391239" lon="15.530871">
        <ele>204.618</ele>
        <time>2019-05-04T15:53:47Z</time>
      </trkpt>
      <trkpt lat="48.391226" lon="15.530931">
        <ele>204.708</ele>
        <time>2019-05-04T15:53:48Z</time>
      </trkpt>
      <trkpt lat="48.391187" lon="15.531185">
        <ele>205.419</ele>
        <time>2019-05-04T15:53:52Z</time>
      </trkpt>
      <trkpt lat="48.391176" lon="15.531247">
        <ele>205.572</ele>
        <time>2019-05-04T15:53:53Z</time>
      </trkpt>
      <trkpt lat="48.391110" lon="15.531532">
        <ele>205.586</ele>
        <time>2019-05-04T15:53:58Z</time>
      </trkpt>
      <trkpt lat="48.391095" lon="15.531593">
        <ele>205.531</ele>
        <time>2019-05-04T15:53:59Z</time>
      </trkpt>
      <trkpt lat="48.391068" lon="15.531717">
        <ele>205.635</ele>
        <time>2019-05-04T15:54:01Z</time>
      </trkpt>
      <trkpt lat="48.391031" lon="15.531978">
        <ele>205.881</ele>
        <time>2019-05-04T15:54:05Z</time>
      </trkpt>
      <trkpt lat="48.391024" lon="15.532111">
        <ele>205.794</ele>
        <time>2019-05-04T15:54:07Z</time>
      </trkpt>
      <trkpt lat="48.391019" lon="15.532177">
        <ele>205.742</ele>
        <time>2019-05-04T15:54:08Z</time>
      </trkpt>
      <trkpt lat="48.391004" lon="15.532380">
        <ele>205.516</ele>
        <time>2019-05-04T15:54:11Z</time>
      </trkpt>
      <trkpt lat="48.390995" lon="15.532511">
        <ele>205.376</ele>
        <time>2019-05-04T15:54:13Z</time>
      </trkpt>
      <trkpt lat="48.390987" lon="15.532688">
        <ele>204.813</ele>
        <time>2019-05-04T15:54:16Z</time>
      </trkpt>
      <trkpt lat="48.390938" lon="15.532907">
        <ele>204.108</ele>
        <time>2019-05-04T15:54:20Z</time>
      </trkpt>
      <trkpt lat="48.390913" lon="15.532955">
        <ele>203.954</ele>
        <time>2019-05-04T15:54:21Z</time>
      </trkpt>
      <trkpt lat="48.390853" lon="15.533029">
        <ele>203.287</ele>
        <time>2019-05-04T15:54:23Z</time>
      </trkpt>
      <trkpt lat="48.390817" lon="15.533051">
        <ele>202.981</ele>
        <time>2019-05-04T15:54:24Z</time>
      </trkpt>
      <trkpt lat="48.390616" lon="15.533075">
        <ele>202.286</ele>
        <time>2019-05-04T15:54:29Z</time>
      </trkpt>
      <trkpt lat="48.390354" lon="15.533079">
        <ele>202.750</ele>
        <time>2019-05-04T15:54:35Z</time>
      </trkpt>
      <trkpt lat="48.390313" lon="15.533080">
        <ele>202.956</ele>
        <time>2019-05-04T15:54:36Z</time>
      </trkpt>
      <trkpt lat="48.390234" lon="15.533072">
        <ele>203.099</ele>
        <time>2019-05-04T15:54:38Z</time>
      </trkpt>
      <trkpt lat="48.390086" lon="15.533049">
        <ele>203.097</ele>
        <time>2019-05-04T15:54:42Z</time>
      </trkpt>
      <trkpt lat="48.389853" lon="15.533025">
        <ele>203.545</ele>
        <time>2019-05-04T15:54:48Z</time>
      </trkpt>
      <trkpt lat="48.389812" lon="15.533014">
        <ele>203.647</ele>
        <time>2019-05-04T15:54:49Z</time>
      </trkpt>
      <trkpt lat="48.389644" lon="15.533009">
        <ele>203.911</ele>
        <time>2019-05-04T15:54:53Z</time>
      </trkpt>
      <trkpt lat="48.389600" lon="15.533007">
        <ele>203.908</ele>
        <time>2019-05-04T15:54:54Z</time>
      </trkpt>
      <trkpt lat="48.389294" lon="15.533022">
        <ele>203.597</ele>
        <time>2019-05-04T15:55:01Z</time>
      </trkpt>
      <trkpt lat="48.389252" lon="15.533025">
        <ele>203.420</ele>
        <time>2019-05-04T15:55:02Z</time>
      </trkpt>
      <trkpt lat="48.389212" lon="15.533028">
        <ele>203.294</ele>
        <time>2019-05-04T15:55:03Z</time>
      </trkpt>
      <trkpt lat="48.389096" lon="15.533031">
        <ele>203.119</ele>
        <time>2019-05-04T15:55:06Z</time>
      </trkpt>
      <trkpt lat="48.388838" lon="15.533054">
        <ele>203.243</ele>
        <time>2019-05-04T15:55:13Z</time>
      </trkpt>
      <trkpt lat="48.388587" lon="15.533109">
        <ele>204.029</ele>
        <time>2019-05-04T15:55:20Z</time>
      </trkpt>
      <trkpt lat="48.388484" lon="15.533248">
        <ele>204.072</ele>
        <time>2019-05-04T15:55:24Z</time>
      </trkpt>
      <trkpt lat="48.388474" lon="15.533303">
        <ele>204.030</ele>
        <time>2019-05-04T15:55:25Z</time>
      </trkpt>
      <trkpt lat="48.388465" lon="15.533497">
        <ele>204.064</ele>
        <time>2019-05-04T15:55:28Z</time>
      </trkpt>
      <trkpt lat="48.388467" lon="15.533568">
        <ele>204.006</ele>
        <time>2019-05-04T15:55:29Z</time>
      </trkpt>
      <trkpt lat="48.388460" lon="15.533845">
        <ele>203.616</ele>
        <time>2019-05-04T15:55:33Z</time>
      </trkpt>
      <trkpt lat="48.388458" lon="15.534047">
        <ele>203.008</ele>
        <time>2019-05-04T15:55:36Z</time>
      </trkpt>
      <trkpt lat="48.388445" lon="15.534255">
        <ele>202.649</ele>
        <time>2019-05-04T15:55:39Z</time>
      </trkpt>
      <trkpt lat="48.388424" lon="15.534380">
        <ele>202.712</ele>
        <time>2019-05-04T15:55:41Z</time>
      </trkpt>
      <trkpt lat="48.388396" lon="15.534583">
        <ele>202.966</ele>
        <time>2019-05-04T15:55:44Z</time>
      </trkpt>
      <trkpt lat="48.388372" lon="15.535164">
        <ele>203.111</ele>
        <time>2019-05-04T15:55:52Z</time>
      </trkpt>
      <trkpt lat="48.388368" lon="15.535239">
        <ele>203.135</ele>
        <time>2019-05-04T15:55:53Z</time>
      </trkpt>
      <trkpt lat="48.388355" lon="15.535470">
        <ele>203.051</ele>
        <time>2019-05-04T15:55:56Z</time>
      </trkpt>
      <trkpt lat="48.388348" lon="15.535543">
        <ele>203.034</ele>
        <time>2019-05-04T15:55:57Z</time>
      </trkpt>
      <trkpt lat="48.388335" lon="15.535620">
        <ele>202.822</ele>
        <time>2019-05-04T15:55:58Z</time>
      </trkpt>
      <trkpt lat="48.388312" lon="15.535770">
        <ele>202.233</ele>
        <time>2019-05-04T15:56:00Z</time>
      </trkpt>
      <trkpt lat="48.388297" lon="15.535843">
        <ele>202.023</ele>
        <time>2019-05-04T15:56:01Z</time>
      </trkpt>
      <trkpt lat="48.388278" lon="15.535914">
        <ele>202.015</ele>
        <time>2019-05-04T15:56:02Z</time>
      </trkpt>
      <trkpt lat="48.388183" lon="15.536188">
        <ele>202.008</ele>
        <time>2019-05-04T15:56:06Z</time>
      </trkpt>
      <trkpt lat="48.388053" lon="15.536611">
        <ele>202.056</ele>
        <time>2019-05-04T15:56:12Z</time>
      </trkpt>
      <trkpt lat="48.387946" lon="15.536963">
        <ele>200.639</ele>
        <time>2019-05-04T15:56:17Z</time>
      </trkpt>
      <trkpt lat="48.387928" lon="15.537030">
        <ele>200.423</ele>
        <time>2019-05-04T15:56:18Z</time>
      </trkpt>
      <trkpt lat="48.387906" lon="15.537095">
        <ele>200.268</ele>
        <time>2019-05-04T15:56:19Z</time>
      </trkpt>
      <trkpt lat="48.387863" lon="15.537226">
        <ele>199.642</ele>
        <time>2019-05-04T15:56:21Z</time>
      </trkpt>
      <trkpt lat="48.387842" lon="15.537296">
        <ele>199.698</ele>
        <time>2019-05-04T15:56:22Z</time>
      </trkpt>
      <trkpt lat="48.387800" lon="15.537432">
        <ele>199.881</ele>
        <time>2019-05-04T15:56:24Z</time>
      </trkpt>
      <trkpt lat="48.387737" lon="15.537636">
        <ele>200.279</ele>
        <time>2019-05-04T15:56:27Z</time>
      </trkpt>
      <trkpt lat="48.387628" lon="15.537967">
        <ele>200.835</ele>
        <time>2019-05-04T15:56:32Z</time>
      </trkpt>
      <trkpt lat="48.387584" lon="15.538093">
        <ele>201.186</ele>
        <time>2019-05-04T15:56:34Z</time>
      </trkpt>
      <trkpt lat="48.387499" lon="15.538354">
        <ele>202.014</ele>
        <time>2019-05-04T15:56:38Z</time>
      </trkpt>
      <trkpt lat="48.387481" lon="15.538422">
        <ele>202.008</ele>
        <time>2019-05-04T15:56:39Z</time>
      </trkpt>
      <trkpt lat="48.387455" lon="15.538569">
        <ele>202.026</ele>
        <time>2019-05-04T15:56:41Z</time>
      </trkpt>
      <trkpt lat="48.387437" lon="15.538638">
        <ele>202.049</ele>
        <time>2019-05-04T15:56:42Z</time>
      </trkpt>
      <trkpt lat="48.387328" lon="15.539122">
        <ele>202.023</ele>
        <time>2019-05-04T15:56:49Z</time>
      </trkpt>
      <trkpt lat="48.387296" lon="15.539255">
        <ele>202.228</ele>
        <time>2019-05-04T15:56:51Z</time>
      </trkpt>
      <trkpt lat="48.387248" lon="15.539517">
        <ele>202.242</ele>
        <time>2019-05-04T15:56:55Z</time>
      </trkpt>
      <trkpt lat="48.387159" lon="15.539975">
        <ele>201.848</ele>
        <time>2019-05-04T15:57:02Z</time>
      </trkpt>
      <trkpt lat="48.387082" lon="15.540387">
        <ele>201.071</ele>
        <time>2019-05-04T15:57:09Z</time>
      </trkpt>
      <trkpt lat="48.387047" lon="15.540634">
        <ele>200.919</ele>
        <time>2019-05-04T15:57:14Z</time>
      </trkpt>
      <trkpt lat="48.387043" lon="15.540683">
        <ele>201.024</ele>
        <time>2019-05-04T15:57:15Z</time>
      </trkpt>
      <trkpt lat="48.387042" lon="15.540731">
        <ele>201.104</ele>
        <time>2019-05-04T15:57:16Z</time>
      </trkpt>
      <trkpt lat="48.387039" lon="15.540820">
        <ele>201.314</ele>
        <time>2019-05-04T15:57:18Z</time>
      </trkpt>
      <trkpt lat="48.386976" lon="15.540950">
        <ele>201.508</ele>
        <time>2019-05-04T15:57:21Z</time>
      </trkpt>
      <trkpt lat="48.386906" lon="15.541041">
        <ele>201.555</ele>
        <time>2019-05-04T15:57:23Z</time>
      </trkpt>
      <trkpt lat="48.386870" lon="15.541159">
        <ele>201.638</ele>
        <time>2019-05-04T15:57:25Z</time>
      </trkpt>
      <trkpt lat="48.386879" lon="15.541223">
        <ele>201.852</ele>
        <time>2019-05-04T15:57:26Z</time>
      </trkpt>
      <trkpt lat="48.386907" lon="15.541338">
        <ele>202.457</ele>
        <time>2019-05-04T15:57:28Z</time>
      </trkpt>
      <trkpt lat="48.387012" lon="15.541537">
        <ele>202.841</ele>
        <time>2019-05-04T15:57:32Z</time>
      </trkpt>
      <trkpt lat="48.387057" lon="15.541659">
        <ele>202.857</ele>
        <time>2019-05-04T15:57:34Z</time>
      </trkpt>
      <trkpt lat="48.387100" lon="15.541787">
        <ele>202.990</ele>
        <time>2019-05-04T15:57:36Z</time>
      </trkpt>
      <trkpt lat="48.387121" lon="15.541851">
        <ele>203.068</ele>
        <time>2019-05-04T15:57:37Z</time>
      </trkpt>
      <trkpt lat="48.387167" lon="15.541980">
        <ele>203.378</ele>
        <time>2019-05-04T15:57:39Z</time>
      </trkpt>
      <trkpt lat="48.387193" lon="15.542043">
        <ele>203.433</ele>
        <time>2019-05-04T15:57:40Z</time>
      </trkpt>
      <trkpt lat="48.387220" lon="15.542110">
        <ele>203.426</ele>
        <time>2019-05-04T15:57:41Z</time>
      </trkpt>
      <trkpt lat="48.387245" lon="15.542180">
        <ele>203.208</ele>
        <time>2019-05-04T15:57:42Z</time>
      </trkpt>
      <trkpt lat="48.387269" lon="15.542243">
        <ele>203.260</ele>
        <time>2019-05-04T15:57:43Z</time>
      </trkpt>
      <trkpt lat="48.387293" lon="15.542303">
        <ele>203.333</ele>
        <time>2019-05-04T15:57:44Z</time>
      </trkpt>
      <trkpt lat="48.387392" lon="15.542537">
        <ele>203.587</ele>
        <time>2019-05-04T15:57:48Z</time>
      </trkpt>
      <trkpt lat="48.387554" lon="15.542909">
        <ele>202.722</ele>
        <time>2019-05-04T15:57:55Z</time>
      </trkpt>
      <trkpt lat="48.387650" lon="15.543101">
        <ele>202.316</ele>
        <time>2019-05-04T15:58:00Z</time>
      </trkpt>
      <trkpt lat="48.387762" lon="15.543353">
        <ele>201.862</ele>
        <time>2019-05-04T15:58:07Z</time>
      </trkpt>
      <trkpt lat="48.387848" lon="15.543588">
        <ele>201.855</ele>
        <time>2019-05-04T15:58:15Z</time>
      </trkpt>
      <trkpt lat="48.387891" lon="15.543624">
        <ele>202.253</ele>
        <time>2019-05-04T15:58:17Z</time>
      </trkpt>
      <trkpt lat="48.387915" lon="15.543691">
        <ele>202.123</ele>
        <time>2019-05-04T15:58:20Z</time>
      </trkpt>
      <trkpt lat="48.387954" lon="15.543758">
        <ele>202.083</ele>
        <time>2019-05-04T15:58:25Z</time>
      </trkpt>
      <trkpt lat="48.387992" lon="15.543883">
        <ele>201.611</ele>
        <time>2019-05-04T15:58:30Z</time>
      </trkpt>
      <trkpt lat="48.388020" lon="15.543945">
        <ele>201.408</ele>
        <time>2019-05-04T15:58:33Z</time>
      </trkpt>
      <trkpt lat="48.388053" lon="15.544002">
        <ele>201.275</ele>
        <time>2019-05-04T15:58:36Z</time>
      </trkpt>
      <trkpt lat="48.388074" lon="15.544009">
        <ele>201.288</ele>
        <time>2019-05-04T15:58:37Z</time>
      </trkpt>
      <trkpt lat="48.388086" lon="15.544022">
        <ele>201.282</ele>
        <time>2019-05-04T15:58:38Z</time>
      </trkpt>
      <trkpt lat="48.388100" lon="15.544061">
        <ele>201.037</ele>
        <time>2019-05-04T15:58:42Z</time>
      </trkpt>
      <trkpt lat="48.388142" lon="15.544136">
        <ele>200.881</ele>
        <time>2019-05-04T15:59:02Z</time>
      </trkpt>
      <trkpt lat="48.388241" lon="15.544289">
        <ele>201.037</ele>
        <time>2019-05-04T15:59:06Z</time>
      </trkpt>
      <trkpt lat="48.388298" lon="15.544375">
        <ele>201.190</ele>
        <time>2019-05-04T15:59:08Z</time>
      </trkpt>
      <trkpt lat="48.388415" lon="15.544575">
        <ele>201.388</ele>
        <time>2019-05-04T15:59:12Z</time>
      </trkpt>
      <trkpt lat="48.388468" lon="15.544679">
        <ele>201.543</ele>
        <time>2019-05-04T15:59:14Z</time>
      </trkpt>
      <trkpt lat="48.388574" lon="15.544907">
        <ele>201.864</ele>
        <time>2019-05-04T15:59:18Z</time>
      </trkpt>
      <trkpt lat="48.388644" lon="15.545077">
        <ele>201.710</ele>
        <time>2019-05-04T15:59:21Z</time>
      </trkpt>
      <trkpt lat="48.388693" lon="15.545185">
        <ele>201.308</ele>
        <time>2019-05-04T15:59:23Z</time>
      </trkpt>
      <trkpt lat="48.388856" lon="15.545534">
        <ele>201.017</ele>
        <time>2019-05-04T15:59:30Z</time>
      </trkpt>
      <trkpt lat="48.389002" lon="15.545752">
        <ele>200.240</ele>
        <time>2019-05-04T15:59:35Z</time>
      </trkpt>
      <trkpt lat="48.389062" lon="15.545828">
        <ele>200.044</ele>
        <time>2019-05-04T15:59:37Z</time>
      </trkpt>
      <trkpt lat="48.389179" lon="15.545983">
        <ele>200.639</ele>
        <time>2019-05-04T15:59:42Z</time>
      </trkpt>
      <trkpt lat="48.389196" lon="15.546010">
        <ele>200.873</ele>
        <time>2019-05-04T15:59:43Z</time>
      </trkpt>
      <trkpt lat="48.389303" lon="15.546182">
        <ele>201.459</ele>
        <time>2019-05-04T15:59:50Z</time>
      </trkpt>
      <trkpt lat="48.389346" lon="15.546322">
        <ele>201.292</ele>
        <time>2019-05-04T15:59:55Z</time>
      </trkpt>
      <trkpt lat="48.389358" lon="15.546345">
        <ele>201.120</ele>
        <time>2019-05-04T15:59:56Z</time>
      </trkpt>
      <trkpt lat="48.389400" lon="15.546487">
        <ele>200.946</ele>
        <time>2019-05-04T16:00:01Z</time>
      </trkpt>
      <trkpt lat="48.389505" lon="15.546750">
        <ele>201.788</ele>
        <time>2019-05-04T16:00:08Z</time>
      </trkpt>
      <trkpt lat="48.389587" lon="15.546999">
        <ele>203.116</ele>
        <time>2019-05-04T16:00:14Z</time>
      </trkpt>
      <trkpt lat="48.389688" lon="15.547255">
        <ele>204.308</ele>
        <time>2019-05-04T16:00:20Z</time>
      </trkpt>
      <trkpt lat="48.389763" lon="15.547502">
        <ele>203.737</ele>
        <time>2019-05-04T16:00:25Z</time>
      </trkpt>
      <trkpt lat="48.389782" lon="15.547552">
        <ele>203.540</ele>
        <time>2019-05-04T16:00:26Z</time>
      </trkpt>
      <trkpt lat="48.389891" lon="15.547874">
        <ele>202.344</ele>
        <time>2019-05-04T16:00:32Z</time>
      </trkpt>
      <trkpt lat="48.389908" lon="15.547938">
        <ele>202.219</ele>
        <time>2019-05-04T16:00:33Z</time>
      </trkpt>
      <trkpt lat="48.389967" lon="15.548203">
        <ele>201.833</ele>
        <time>2019-05-04T16:00:37Z</time>
      </trkpt>
      <trkpt lat="48.390006" lon="15.548326">
        <ele>202.299</ele>
        <time>2019-05-04T16:00:39Z</time>
      </trkpt>
      <trkpt lat="48.390025" lon="15.548388">
        <ele>202.652</ele>
        <time>2019-05-04T16:00:40Z</time>
      </trkpt>
      <trkpt lat="48.390094" lon="15.548581">
        <ele>203.270</ele>
        <time>2019-05-04T16:00:43Z</time>
      </trkpt>
      <trkpt lat="48.390186" lon="15.548863">
        <ele>202.954</ele>
        <time>2019-05-04T16:00:47Z</time>
      </trkpt>
      <trkpt lat="48.390208" lon="15.548941">
        <ele>202.756</ele>
        <time>2019-05-04T16:00:48Z</time>
      </trkpt>
      <trkpt lat="48.390345" lon="15.549453">
        <ele>200.911</ele>
        <time>2019-05-04T16:00:54Z</time>
      </trkpt>
      <trkpt lat="48.390471" lon="15.549968">
        <ele>199.308</ele>
        <time>2019-05-04T16:01:00Z</time>
      </trkpt>
      <trkpt lat="48.390598" lon="15.550351">
        <ele>198.178</ele>
        <time>2019-05-04T16:01:05Z</time>
      </trkpt>
      <trkpt lat="48.390752" lon="15.550752">
        <ele>197.961</ele>
        <time>2019-05-04T16:01:11Z</time>
      </trkpt>
      <trkpt lat="48.390818" lon="15.550946">
        <ele>197.145</ele>
        <time>2019-05-04T16:01:14Z</time>
      </trkpt>
      <trkpt lat="48.390887" lon="15.551151">
        <ele>196.450</ele>
        <time>2019-05-04T16:01:17Z</time>
      </trkpt>
      <trkpt lat="48.391050" lon="15.551636">
        <ele>197.194</ele>
        <time>2019-05-04T16:01:24Z</time>
      </trkpt>
      <trkpt lat="48.391178" lon="15.551988">
        <ele>198.150</ele>
        <time>2019-05-04T16:01:30Z</time>
      </trkpt>
      <trkpt lat="48.391254" lon="15.552270">
        <ele>197.413</ele>
        <time>2019-05-04T16:01:35Z</time>
      </trkpt>
      <trkpt lat="48.391294" lon="15.552384">
        <ele>197.351</ele>
        <time>2019-05-04T16:01:37Z</time>
      </trkpt>
      <trkpt lat="48.391315" lon="15.552439">
        <ele>197.253</ele>
        <time>2019-05-04T16:01:38Z</time>
      </trkpt>
      <trkpt lat="48.391401" lon="15.552674">
        <ele>196.504</ele>
        <time>2019-05-04T16:01:42Z</time>
      </trkpt>
      <trkpt lat="48.391425" lon="15.552734">
        <ele>196.714</ele>
        <time>2019-05-04T16:01:43Z</time>
      </trkpt>
      <trkpt lat="48.391574" lon="15.553090">
        <ele>197.208</ele>
        <time>2019-05-04T16:01:49Z</time>
      </trkpt>
      <trkpt lat="48.391717" lon="15.553367">
        <ele>198.898</ele>
        <time>2019-05-04T16:01:54Z</time>
      </trkpt>
      <trkpt lat="48.391825" lon="15.553595">
        <ele>199.441</ele>
        <time>2019-05-04T16:01:58Z</time>
      </trkpt>
      <trkpt lat="48.391882" lon="15.553721">
        <ele>199.495</ele>
        <time>2019-05-04T16:02:00Z</time>
      </trkpt>
      <trkpt lat="48.391935" lon="15.553854">
        <ele>199.140</ele>
        <time>2019-05-04T16:02:02Z</time>
      </trkpt>
      <trkpt lat="48.392049" lon="15.554117">
        <ele>198.594</ele>
        <time>2019-05-04T16:02:06Z</time>
      </trkpt>
      <trkpt lat="48.392078" lon="15.554180">
        <ele>198.480</ele>
        <time>2019-05-04T16:02:07Z</time>
      </trkpt>
      <trkpt lat="48.392253" lon="15.554560">
        <ele>199.123</ele>
        <time>2019-05-04T16:02:13Z</time>
      </trkpt>
      <trkpt lat="48.392285" lon="15.554622">
        <ele>199.351</ele>
        <time>2019-05-04T16:02:14Z</time>
      </trkpt>
      <trkpt lat="48.392441" lon="15.554949">
        <ele>199.736</ele>
        <time>2019-05-04T16:02:19Z</time>
      </trkpt>
      <trkpt lat="48.392495" lon="15.555088">
        <ele>199.617</ele>
        <time>2019-05-04T16:02:21Z</time>
      </trkpt>
      <trkpt lat="48.392609" lon="15.555369">
        <ele>199.718</ele>
        <time>2019-05-04T16:02:25Z</time>
      </trkpt>
      <trkpt lat="48.392636" lon="15.555438">
        <ele>199.608</ele>
        <time>2019-05-04T16:02:26Z</time>
      </trkpt>
      <trkpt lat="48.392686" lon="15.555578">
        <ele>199.396</ele>
        <time>2019-05-04T16:02:28Z</time>
      </trkpt>
      <trkpt lat="48.392732" lon="15.555717">
        <ele>199.639</ele>
        <time>2019-05-04T16:02:30Z</time>
      </trkpt>
      <trkpt lat="48.392753" lon="15.555783">
        <ele>199.753</ele>
        <time>2019-05-04T16:02:31Z</time>
      </trkpt>
      <trkpt lat="48.392768" lon="15.555849">
        <ele>199.918</ele>
        <time>2019-05-04T16:02:32Z</time>
      </trkpt>
      <trkpt lat="48.392813" lon="15.556049">
        <ele>201.112</ele>
        <time>2019-05-04T16:02:35Z</time>
      </trkpt>
      <trkpt lat="48.392852" lon="15.556222">
        <ele>201.918</ele>
        <time>2019-05-04T16:02:38Z</time>
      </trkpt>
      <trkpt lat="48.392867" lon="15.556392">
        <ele>202.331</ele>
        <time>2019-05-04T16:02:41Z</time>
      </trkpt>
      <trkpt lat="48.392865" lon="15.556722">
        <ele>201.519</ele>
        <time>2019-05-04T16:02:47Z</time>
      </trkpt>
      <trkpt lat="48.392868" lon="15.556777">
        <ele>201.561</ele>
        <time>2019-05-04T16:02:48Z</time>
      </trkpt>
      <trkpt lat="48.392877" lon="15.556973">
        <ele>201.421</ele>
        <time>2019-05-04T16:02:52Z</time>
      </trkpt>
      <trkpt lat="48.392880" lon="15.557020">
        <ele>201.413</ele>
        <time>2019-05-04T16:02:53Z</time>
      </trkpt>
      <trkpt lat="48.392940" lon="15.557318">
        <ele>201.608</ele>
        <time>2019-05-04T16:02:59Z</time>
      </trkpt>
      <trkpt lat="48.393061" lon="15.557641">
        <ele>201.299</ele>
        <time>2019-05-04T16:03:05Z</time>
      </trkpt>
      <trkpt lat="48.393081" lon="15.557700">
        <ele>201.192</ele>
        <time>2019-05-04T16:03:06Z</time>
      </trkpt>
      <trkpt lat="48.393099" lon="15.557763">
        <ele>201.156</ele>
        <time>2019-05-04T16:03:07Z</time>
      </trkpt>
      <trkpt lat="48.393121" lon="15.557819">
        <ele>201.631</ele>
        <time>2019-05-04T16:03:08Z</time>
      </trkpt>
      <trkpt lat="48.393180" lon="15.557977">
        <ele>203.355</ele>
        <time>2019-05-04T16:03:11Z</time>
      </trkpt>
      <trkpt lat="48.393215" lon="15.558070">
        <ele>204.321</ele>
        <time>2019-05-04T16:03:13Z</time>
      </trkpt>
      <trkpt lat="48.393275" lon="15.558267">
        <ele>206.234</ele>
        <time>2019-05-04T16:03:17Z</time>
      </trkpt>
      <trkpt lat="48.393356" lon="15.558576">
        <ele>210.672</ele>
        <time>2019-05-04T16:03:23Z</time>
      </trkpt>
      <trkpt lat="48.393389" lon="15.558728">
        <ele>211.544</ele>
        <time>2019-05-04T16:03:26Z</time>
      </trkpt>
      <trkpt lat="48.393409" lon="15.558830">
        <ele>211.805</ele>
        <time>2019-05-04T16:03:28Z</time>
      </trkpt>
      <trkpt lat="48.393480" lon="15.559067">
        <ele>213.515</ele>
        <time>2019-05-04T16:03:33Z</time>
      </trkpt>
      <trkpt lat="48.393591" lon="15.559419">
        <ele>213.808</ele>
        <time>2019-05-04T16:03:40Z</time>
      </trkpt>
      <trkpt lat="48.393623" lon="15.559520">
        <ele>213.937</ele>
        <time>2019-05-04T16:03:42Z</time>
      </trkpt>
      <trkpt lat="48.393706" lon="15.559780">
        <ele>214.230</ele>
        <time>2019-05-04T16:03:47Z</time>
      </trkpt>
      <trkpt lat="48.393800" lon="15.560032">
        <ele>212.934</ele>
        <time>2019-05-04T16:03:52Z</time>
      </trkpt>
      <trkpt lat="48.393838" lon="15.560132">
        <ele>211.969</ele>
        <time>2019-05-04T16:03:54Z</time>
      </trkpt>
      <trkpt lat="48.393884" lon="15.560249">
        <ele>210.563</ele>
        <time>2019-05-04T16:03:56Z</time>
      </trkpt>
      <trkpt lat="48.393903" lon="15.560317">
        <ele>209.999</ele>
        <time>2019-05-04T16:03:57Z</time>
      </trkpt>
      <trkpt lat="48.393952" lon="15.560462">
        <ele>209.422</ele>
        <time>2019-05-04T16:03:59Z</time>
      </trkpt>
      <trkpt lat="48.394018" lon="15.560616">
        <ele>209.710</ele>
        <time>2019-05-04T16:04:01Z</time>
      </trkpt>
      <trkpt lat="48.394092" lon="15.560879">
        <ele>207.917</ele>
        <time>2019-05-04T16:04:04Z</time>
      </trkpt>
      <trkpt lat="48.394118" lon="15.560963">
        <ele>208.087</ele>
        <time>2019-05-04T16:04:05Z</time>
      </trkpt>
      <trkpt lat="48.394144" lon="15.561056">
        <ele>207.915</ele>
        <time>2019-05-04T16:04:06Z</time>
      </trkpt>
      <trkpt lat="48.394178" lon="15.561142">
        <ele>208.108</ele>
        <time>2019-05-04T16:04:07Z</time>
      </trkpt>
      <trkpt lat="48.394244" lon="15.561318">
        <ele>208.214</ele>
        <time>2019-05-04T16:04:09Z</time>
      </trkpt>
      <trkpt lat="48.394466" lon="15.561846">
        <ele>207.757</ele>
        <time>2019-05-04T16:04:15Z</time>
      </trkpt>
      <trkpt lat="48.394562" lon="15.562137">
        <ele>209.851</ele>
        <time>2019-05-04T16:04:18Z</time>
      </trkpt>
      <trkpt lat="48.394647" lon="15.562444">
        <ele>209.376</ele>
        <time>2019-05-04T16:04:21Z</time>
      </trkpt>
      <trkpt lat="48.394675" lon="15.562553">
        <ele>208.640</ele>
        <time>2019-05-04T16:04:22Z</time>
      </trkpt>
      <trkpt lat="48.394871" lon="15.563186">
        <ele>204.436</ele>
        <time>2019-05-04T16:04:28Z</time>
      </trkpt>
      <trkpt lat="48.394983" lon="15.563458">
        <ele>203.679</ele>
        <time>2019-05-04T16:04:31Z</time>
      </trkpt>
      <trkpt lat="48.395085" lon="15.563717">
        <ele>204.947</ele>
        <time>2019-05-04T16:04:34Z</time>
      </trkpt>
      <trkpt lat="48.395293" lon="15.564222">
        <ele>211.167</ele>
        <time>2019-05-04T16:04:40Z</time>
      </trkpt>
      <trkpt lat="48.395365" lon="15.564392">
        <ele>211.981</ele>
        <time>2019-05-04T16:04:42Z</time>
      </trkpt>
      <trkpt lat="48.395436" lon="15.564563">
        <ele>212.019</ele>
        <time>2019-05-04T16:04:44Z</time>
      </trkpt>
      <trkpt lat="48.395506" lon="15.564735">
        <ele>211.408</ele>
        <time>2019-05-04T16:04:46Z</time>
      </trkpt>
      <trkpt lat="48.395665" lon="15.565099">
        <ele>207.339</ele>
        <time>2019-05-04T16:04:50Z</time>
      </trkpt>
      <trkpt lat="48.395707" lon="15.565188">
        <ele>206.062</ele>
        <time>2019-05-04T16:04:51Z</time>
      </trkpt>
      <trkpt lat="48.395743" lon="15.565274">
        <ele>204.546</ele>
        <time>2019-05-04T16:04:52Z</time>
      </trkpt>
      <trkpt lat="48.395786" lon="15.565357">
        <ele>203.571</ele>
        <time>2019-05-04T16:04:53Z</time>
      </trkpt>
      <trkpt lat="48.395951" lon="15.565686">
        <ele>203.565</ele>
        <time>2019-05-04T16:04:57Z</time>
      </trkpt>
      <trkpt lat="48.396151" lon="15.566088">
        <ele>204.261</ele>
        <time>2019-05-04T16:05:02Z</time>
      </trkpt>
      <trkpt lat="48.396430" lon="15.566613">
        <ele>207.314</ele>
        <time>2019-05-04T16:05:09Z</time>
      </trkpt>
      <trkpt lat="48.396555" lon="15.566809">
        <ele>208.262</ele>
        <time>2019-05-04T16:05:12Z</time>
      </trkpt>
      <trkpt lat="48.396694" lon="15.566982">
        <ele>208.149</ele>
        <time>2019-05-04T16:05:15Z</time>
      </trkpt>
      <trkpt lat="48.396781" lon="15.567095">
        <ele>208.302</ele>
        <time>2019-05-04T16:05:17Z</time>
      </trkpt>
      <trkpt lat="48.396821" lon="15.567152">
        <ele>208.122</ele>
        <time>2019-05-04T16:05:18Z</time>
      </trkpt>
      <trkpt lat="48.396973" lon="15.567370">
        <ele>207.308</ele>
        <time>2019-05-04T16:05:22Z</time>
      </trkpt>
      <trkpt lat="48.397129" lon="15.567558">
        <ele>208.957</ele>
        <time>2019-05-04T16:05:26Z</time>
      </trkpt>
      <trkpt lat="48.397167" lon="15.567596">
        <ele>209.520</ele>
        <time>2019-05-04T16:05:27Z</time>
      </trkpt>
      <trkpt lat="48.397204" lon="15.567634">
        <ele>210.034</ele>
        <time>2019-05-04T16:05:28Z</time>
      </trkpt>
      <trkpt lat="48.397312" lon="15.567751">
        <ele>210.839</ele>
        <time>2019-05-04T16:05:31Z</time>
      </trkpt>
      <trkpt lat="48.397375" lon="15.567830">
        <ele>210.863</ele>
        <time>2019-05-04T16:05:33Z</time>
      </trkpt>
      <trkpt lat="48.397404" lon="15.567872">
        <ele>210.869</ele>
        <time>2019-05-04T16:05:34Z</time>
      </trkpt>
      <trkpt lat="48.397563" lon="15.568078">
        <ele>211.022</ele>
        <time>2019-05-04T16:05:40Z</time>
      </trkpt>
      <trkpt lat="48.397704" lon="15.568259">
        <ele>210.780</ele>
        <time>2019-05-04T16:05:46Z</time>
      </trkpt>
      <trkpt lat="48.397846" lon="15.568430">
        <ele>211.076</ele>
        <time>2019-05-04T16:05:52Z</time>
      </trkpt>
      <trkpt lat="48.397975" lon="15.568571">
        <ele>211.290</ele>
        <time>2019-05-04T16:05:57Z</time>
      </trkpt>
      <trkpt lat="48.398027" lon="15.568642">
        <ele>211.219</ele>
        <time>2019-05-04T16:05:59Z</time>
      </trkpt>
      <trkpt lat="48.398115" lon="15.568777">
        <ele>210.808</ele>
        <time>2019-05-04T16:06:03Z</time>
      </trkpt>
      <trkpt lat="48.398217" lon="15.568957">
        <ele>210.020</ele>
        <time>2019-05-04T16:06:08Z</time>
      </trkpt>
      <trkpt lat="48.398312" lon="15.569143">
        <ele>209.063</ele>
        <time>2019-05-04T16:06:13Z</time>
      </trkpt>
      <trkpt lat="48.398360" lon="15.569220">
        <ele>208.737</ele>
        <time>2019-05-04T16:06:15Z</time>
      </trkpt>
      <trkpt lat="48.398453" lon="15.569364">
        <ele>208.572</ele>
        <time>2019-05-04T16:06:19Z</time>
      </trkpt>
      <trkpt lat="48.398524" lon="15.569519">
        <ele>208.026</ele>
        <time>2019-05-04T16:06:24Z</time>
      </trkpt>
      <trkpt lat="48.398536" lon="15.569600">
        <ele>207.422</ele>
        <time>2019-05-04T16:06:26Z</time>
      </trkpt>
      <trkpt lat="48.398545" lon="15.569721">
        <ele>206.335</ele>
        <time>2019-05-04T16:06:29Z</time>
      </trkpt>
      <trkpt lat="48.398550" lon="15.569781">
        <ele>205.863</ele>
        <time>2019-05-04T16:06:31Z</time>
      </trkpt>
      <trkpt lat="48.398550" lon="15.569809">
        <ele>205.558</ele>
        <time>2019-05-04T16:06:32Z</time>
      </trkpt>
      <trkpt lat="48.398544" lon="15.569843">
        <ele>205.252</ele>
        <time>2019-05-04T16:06:33Z</time>
      </trkpt>
      <trkpt lat="48.398537" lon="15.569870">
        <ele>204.917</ele>
        <time>2019-05-04T16:06:34Z</time>
      </trkpt>
      <trkpt lat="48.398529" lon="15.569896">
        <ele>204.608</ele>
        <time>2019-05-04T16:06:36Z</time>
      </trkpt>
      <trkpt lat="48.398523" lon="15.569902">
        <ele>204.518</ele>
        <time>2019-05-04T16:06:37Z</time>
      </trkpt>
      <trkpt lat="48.398441" lon="15.569568">
        <ele>206.551</ele>
        <time>2019-05-04T16:07:35Z</time>
      </trkpt>
      <trkpt lat="48.398441" lon="15.569588">
        <ele>206.375</ele>
        <time>2019-05-04T16:07:36Z</time>
      </trkpt>
      <trkpt lat="48.398444" lon="15.569610">
        <ele>206.260</ele>
        <time>2019-05-04T16:07:37Z</time>
      </trkpt>
      <trkpt lat="48.398484" lon="15.569797">
        <ele>205.124</ele>
        <time>2019-05-04T16:07:45Z</time>
      </trkpt>
      <trkpt lat="48.398503" lon="15.569997">
        <ele>203.690</ele>
        <time>2019-05-04T16:07:51Z</time>
      </trkpt>
      <trkpt lat="48.398560" lon="15.570214">
        <ele>203.073</ele>
        <time>2019-05-04T16:07:56Z</time>
      </trkpt>
      <trkpt lat="48.398674" lon="15.570574">
        <ele>203.481</ele>
        <time>2019-05-04T16:08:03Z</time>
      </trkpt>
      <trkpt lat="48.398729" lon="15.570735">
        <ele>203.621</ele>
        <time>2019-05-04T16:08:06Z</time>
      </trkpt>
      <trkpt lat="48.398749" lon="15.570790">
        <ele>203.641</ele>
        <time>2019-05-04T16:08:07Z</time>
      </trkpt>
      <trkpt lat="48.398801" lon="15.570964">
        <ele>203.205</ele>
        <time>2019-05-04T16:08:10Z</time>
      </trkpt>
      <trkpt lat="48.398833" lon="15.571073">
        <ele>202.908</ele>
        <time>2019-05-04T16:08:12Z</time>
      </trkpt>
      <trkpt lat="48.398903" lon="15.571290">
        <ele>201.975</ele>
        <time>2019-05-04T16:08:16Z</time>
      </trkpt>
      <trkpt lat="48.398921" lon="15.571347">
        <ele>201.938</ele>
        <time>2019-05-04T16:08:17Z</time>
      </trkpt>
      <trkpt lat="48.398958" lon="15.571458">
        <ele>201.732</ele>
        <time>2019-05-04T16:08:19Z</time>
      </trkpt>
      <trkpt lat="48.398979" lon="15.571511">
        <ele>201.787</ele>
        <time>2019-05-04T16:08:20Z</time>
      </trkpt>
      <trkpt lat="48.398995" lon="15.571571">
        <ele>201.611</ele>
        <time>2019-05-04T16:08:21Z</time>
      </trkpt>
      <trkpt lat="48.399114" lon="15.571858">
        <ele>202.537</ele>
        <time>2019-05-04T16:08:27Z</time>
      </trkpt>
      <trkpt lat="48.399224" lon="15.572042">
        <ele>203.810</ele>
        <time>2019-05-04T16:08:32Z</time>
      </trkpt>
      <trkpt lat="48.399351" lon="15.572287">
        <ele>204.998</ele>
        <time>2019-05-04T16:08:38Z</time>
      </trkpt>
      <trkpt lat="48.399530" lon="15.572648">
        <ele>206.747</ele>
        <time>2019-05-04T16:08:45Z</time>
      </trkpt>
      <trkpt lat="48.399646" lon="15.572896">
        <ele>208.629</ele>
        <time>2019-05-04T16:08:51Z</time>
      </trkpt>
      <trkpt lat="48.399783" lon="15.573235">
        <ele>209.421</ele>
        <time>2019-05-04T16:08:59Z</time>
      </trkpt>
      <trkpt lat="48.399796" lon="15.573292">
        <ele>209.208</ele>
        <time>2019-05-04T16:09:01Z</time>
      </trkpt>
      <trkpt lat="48.399789" lon="15.573318">
        <ele>208.877</ele>
        <time>2019-05-04T16:09:02Z</time>
      </trkpt>
      <trkpt lat="48.399774" lon="15.573336">
        <ele>208.370</ele>
        <time>2019-05-04T16:09:03Z</time>
      </trkpt>
      <trkpt lat="48.399764" lon="15.573350">
        <ele>207.914</ele>
        <time>2019-05-04T16:09:04Z</time>
      </trkpt>
      <trkpt lat="48.399750" lon="15.573385">
        <ele>207.399</ele>
        <time>2019-05-04T16:09:07Z</time>
      </trkpt>
      <trkpt lat="48.399815" lon="15.573444">
        <ele>208.493</ele>
        <time>2019-05-04T16:09:49Z</time>
      </trkpt>
      <trkpt lat="48.399837" lon="15.573507">
        <ele>208.479</ele>
        <time>2019-05-04T16:09:51Z</time>
      </trkpt>
      <trkpt lat="48.399859" lon="15.573579">
        <ele>208.282</ele>
        <time>2019-05-04T16:09:53Z</time>
      </trkpt>
      <trkpt lat="48.399935" lon="15.573839">
        <ele>206.790</ele>
        <time>2019-05-04T16:09:59Z</time>
      </trkpt>
      <trkpt lat="48.399959" lon="15.573953">
        <ele>206.148</ele>
        <time>2019-05-04T16:10:01Z</time>
      </trkpt>
      <trkpt lat="48.399968" lon="15.574092">
        <ele>205.761</ele>
        <time>2019-05-04T16:10:03Z</time>
      </trkpt>
      <trkpt lat="48.399968" lon="15.574163">
        <ele>205.417</ele>
        <time>2019-05-04T16:10:04Z</time>
      </trkpt>
      <trkpt lat="48.399977" lon="15.574556">
        <ele>203.808</ele>
        <time>2019-05-04T16:10:10Z</time>
      </trkpt>
      <trkpt lat="48.400047" lon="15.574900">
        <ele>202.697</ele>
        <time>2019-05-04T16:10:16Z</time>
      </trkpt>
      <trkpt lat="48.400064" lon="15.574958">
        <ele>202.580</ele>
        <time>2019-05-04T16:10:17Z</time>
      </trkpt>
      <trkpt lat="48.400108" lon="15.575142">
        <ele>202.274</ele>
        <time>2019-05-04T16:10:20Z</time>
      </trkpt>
      <trkpt lat="48.400117" lon="15.575207">
        <ele>202.059</ele>
        <time>2019-05-04T16:10:21Z</time>
      </trkpt>
      <trkpt lat="48.400125" lon="15.575276">
        <ele>201.813</ele>
        <time>2019-05-04T16:10:22Z</time>
      </trkpt>
      <trkpt lat="48.400130" lon="15.575347">
        <ele>201.929</ele>
        <time>2019-05-04T16:10:23Z</time>
      </trkpt>
      <trkpt lat="48.400125" lon="15.575492">
        <ele>201.742</ele>
        <time>2019-05-04T16:10:25Z</time>
      </trkpt>
      <trkpt lat="48.400126" lon="15.575560">
        <ele>201.710</ele>
        <time>2019-05-04T16:10:26Z</time>
      </trkpt>
      <trkpt lat="48.400137" lon="15.575681">
        <ele>202.273</ele>
        <time>2019-05-04T16:10:28Z</time>
      </trkpt>
      <trkpt lat="48.400142" lon="15.575783">
        <ele>202.585</ele>
        <time>2019-05-04T16:10:30Z</time>
      </trkpt>
      <trkpt lat="48.400142" lon="15.575889">
        <ele>202.613</ele>
        <time>2019-05-04T16:10:33Z</time>
      </trkpt>
      <trkpt lat="48.400112" lon="15.575896">
        <ele>201.808</ele>
        <time>2019-05-04T16:10:36Z</time>
      </trkpt>
      <trkpt lat="48.400109" lon="15.575896">
        <ele>201.780</ele>
        <time>2019-05-04T16:10:39Z</time>
      </trkpt>
      <trkpt lat="48.399978" lon="15.576134">
        <ele>198.733</ele>
        <time>2019-05-04T16:11:39Z</time>
      </trkpt>
      <trkpt lat="48.399981" lon="15.576161">
        <ele>198.827</ele>
        <time>2019-05-04T16:11:40Z</time>
      </trkpt>
      <trkpt lat="48.400036" lon="15.576408">
        <ele>200.962</ele>
        <time>2019-05-04T16:11:47Z</time>
      </trkpt>
      <trkpt lat="48.400046" lon="15.576505">
        <ele>201.036</ele>
        <time>2019-05-04T16:11:49Z</time>
      </trkpt>
      <trkpt lat="48.400083" lon="15.576691">
        <ele>201.462</ele>
        <time>2019-05-04T16:11:53Z</time>
      </trkpt>
      <trkpt lat="48.400146" lon="15.576886">
        <ele>201.475</ele>
        <time>2019-05-04T16:11:57Z</time>
      </trkpt>
      <trkpt lat="48.400175" lon="15.576983">
        <ele>201.433</ele>
        <time>2019-05-04T16:11:59Z</time>
      </trkpt>
      <trkpt lat="48.400291" lon="15.577260">
        <ele>202.193</ele>
        <time>2019-05-04T16:12:05Z</time>
      </trkpt>
      <trkpt lat="48.400346" lon="15.577463">
        <ele>202.465</ele>
        <time>2019-05-04T16:12:09Z</time>
      </trkpt>
      <trkpt lat="48.400416" lon="15.577750">
        <ele>201.221</ele>
        <time>2019-05-04T16:12:15Z</time>
      </trkpt>
      <trkpt lat="48.400448" lon="15.578025">
        <ele>199.508</ele>
        <time>2019-05-04T16:12:21Z</time>
      </trkpt>
      <trkpt lat="48.400471" lon="15.578156">
        <ele>199.162</ele>
        <time>2019-05-04T16:12:24Z</time>
      </trkpt>
      <trkpt lat="48.400475" lon="15.578203">
        <ele>199.055</ele>
        <time>2019-05-04T16:12:25Z</time>
      </trkpt>
      <trkpt lat="48.400487" lon="15.578361">
        <ele>198.759</ele>
        <time>2019-05-04T16:12:28Z</time>
      </trkpt>
      <trkpt lat="48.400516" lon="15.578555">
        <ele>198.234</ele>
        <time>2019-05-04T16:12:32Z</time>
      </trkpt>
      <trkpt lat="48.400531" lon="15.578664">
        <ele>198.218</ele>
        <time>2019-05-04T16:12:35Z</time>
      </trkpt>
      <trkpt lat="48.400529" lon="15.578685">
        <ele>198.214</ele>
        <time>2019-05-04T16:12:36Z</time>
      </trkpt>
      <trkpt lat="48.400525" lon="15.578700">
        <ele>198.237</ele>
        <time>2019-05-04T16:12:37Z</time>
      </trkpt>
      <trkpt lat="48.400522" lon="15.578710">
        <ele>198.385</ele>
        <time>2019-05-04T16:12:39Z</time>
      </trkpt>
      <trkpt lat="48.400542" lon="15.578796">
        <ele>198.663</ele>
        <time>2019-05-04T16:14:22Z</time>
      </trkpt>
      <trkpt lat="48.400559" lon="15.578866">
        <ele>198.944</ele>
        <time>2019-05-04T16:14:24Z</time>
      </trkpt>
      <trkpt lat="48.400612" lon="15.579125">
        <ele>199.818</ele>
        <time>2019-05-04T16:14:29Z</time>
      </trkpt>
      <trkpt lat="48.400660" lon="15.579322">
        <ele>200.008</ele>
        <time>2019-05-04T16:14:32Z</time>
      </trkpt>
      <trkpt lat="48.400696" lon="15.579464">
        <ele>200.099</ele>
        <time>2019-05-04T16:14:34Z</time>
      </trkpt>
      <trkpt lat="48.400752" lon="15.579674">
        <ele>200.652</ele>
        <time>2019-05-04T16:14:37Z</time>
      </trkpt>
      <trkpt lat="48.400807" lon="15.579882">
        <ele>200.936</ele>
        <time>2019-05-04T16:14:40Z</time>
      </trkpt>
      <trkpt lat="48.400918" lon="15.580317">
        <ele>200.391</ele>
        <time>2019-05-04T16:14:46Z</time>
      </trkpt>
      <trkpt lat="48.400941" lon="15.580384">
        <ele>200.015</ele>
        <time>2019-05-04T16:14:47Z</time>
      </trkpt>
      <trkpt lat="48.401039" lon="15.580661">
        <ele>199.031</ele>
        <time>2019-05-04T16:14:51Z</time>
      </trkpt>
      <trkpt lat="48.401067" lon="15.580724">
        <ele>199.084</ele>
        <time>2019-05-04T16:14:52Z</time>
      </trkpt>
      <trkpt lat="48.401121" lon="15.580846">
        <ele>198.952</ele>
        <time>2019-05-04T16:14:54Z</time>
      </trkpt>
      <trkpt lat="48.401150" lon="15.580905">
        <ele>198.693</ele>
        <time>2019-05-04T16:14:55Z</time>
      </trkpt>
      <trkpt lat="48.401175" lon="15.580966">
        <ele>198.465</ele>
        <time>2019-05-04T16:14:56Z</time>
      </trkpt>
      <trkpt lat="48.401267" lon="15.581196">
        <ele>198.021</ele>
        <time>2019-05-04T16:15:00Z</time>
      </trkpt>
      <trkpt lat="48.401286" lon="15.581249">
        <ele>198.008</ele>
        <time>2019-05-04T16:15:01Z</time>
      </trkpt>
      <trkpt lat="48.401395" lon="15.581491">
        <ele>198.082</ele>
        <time>2019-05-04T16:15:06Z</time>
      </trkpt>
      <trkpt lat="48.401418" lon="15.581540">
        <ele>198.125</ele>
        <time>2019-05-04T16:15:07Z</time>
      </trkpt>
      <trkpt lat="48.401546" lon="15.581854">
        <ele>199.589</ele>
        <time>2019-05-04T16:15:13Z</time>
      </trkpt>
      <trkpt lat="48.401667" lon="15.582161">
        <ele>201.824</ele>
        <time>2019-05-04T16:15:19Z</time>
      </trkpt>
      <trkpt lat="48.401754" lon="15.582460">
        <ele>203.858</ele>
        <time>2019-05-04T16:15:24Z</time>
      </trkpt>
      <trkpt lat="48.401795" lon="15.582581">
        <ele>204.494</ele>
        <time>2019-05-04T16:15:26Z</time>
      </trkpt>
      <trkpt lat="48.401872" lon="15.582798">
        <ele>205.687</ele>
        <time>2019-05-04T16:15:30Z</time>
      </trkpt>
      <trkpt lat="48.401894" lon="15.582852">
        <ele>205.655</ele>
        <time>2019-05-04T16:15:31Z</time>
      </trkpt>
      <trkpt lat="48.401934" lon="15.582960">
        <ele>205.515</ele>
        <time>2019-05-04T16:15:33Z</time>
      </trkpt>
      <trkpt lat="48.402016" lon="15.583173">
        <ele>205.065</ele>
        <time>2019-05-04T16:15:37Z</time>
      </trkpt>
      <trkpt lat="48.402174" lon="15.583629">
        <ele>204.311</ele>
        <time>2019-05-04T16:15:44Z</time>
      </trkpt>
      <trkpt lat="48.402226" lon="15.583751">
        <ele>203.508</ele>
        <time>2019-05-04T16:15:46Z</time>
      </trkpt>
      <trkpt lat="48.402327" lon="15.583994">
        <ele>202.234</ele>
        <time>2019-05-04T16:15:50Z</time>
      </trkpt>
      <trkpt lat="48.402372" lon="15.584117">
        <ele>201.837</ele>
        <time>2019-05-04T16:15:52Z</time>
      </trkpt>
      <trkpt lat="48.402470" lon="15.584363">
        <ele>201.121</ele>
        <time>2019-05-04T16:15:56Z</time>
      </trkpt>
      <trkpt lat="48.402659" lon="15.584799">
        <ele>200.756</ele>
        <time>2019-05-04T16:16:03Z</time>
      </trkpt>
      <trkpt lat="48.402754" lon="15.585047">
        <ele>200.050</ele>
        <time>2019-05-04T16:16:07Z</time>
      </trkpt>
      <trkpt lat="48.402807" lon="15.585171">
        <ele>200.176</ele>
        <time>2019-05-04T16:16:09Z</time>
      </trkpt>
      <trkpt lat="48.402961" lon="15.585615">
        <ele>200.589</ele>
        <time>2019-05-04T16:16:16Z</time>
      </trkpt>
      <trkpt lat="48.403136" lon="15.586059">
        <ele>200.357</ele>
        <time>2019-05-04T16:16:23Z</time>
      </trkpt>
      <trkpt lat="48.403164" lon="15.586123">
        <ele>200.362</ele>
        <time>2019-05-04T16:16:24Z</time>
      </trkpt>
      <trkpt lat="48.403266" lon="15.586387">
        <ele>199.883</ele>
        <time>2019-05-04T16:16:28Z</time>
      </trkpt>
      <trkpt lat="48.403377" lon="15.586640">
        <ele>200.211</ele>
        <time>2019-05-04T16:16:32Z</time>
      </trkpt>
      <trkpt lat="48.403430" lon="15.586764">
        <ele>200.308</ele>
        <time>2019-05-04T16:16:34Z</time>
      </trkpt>
      <trkpt lat="48.403638" lon="15.587171">
        <ele>200.279</ele>
        <time>2019-05-04T16:16:41Z</time>
      </trkpt>
      <trkpt lat="48.403691" lon="15.587287">
        <ele>199.622</ele>
        <time>2019-05-04T16:16:43Z</time>
      </trkpt>
      <trkpt lat="48.403735" lon="15.587403">
        <ele>199.086</ele>
        <time>2019-05-04T16:16:45Z</time>
      </trkpt>
      <trkpt lat="48.403762" lon="15.587519">
        <ele>198.471</ele>
        <time>2019-05-04T16:16:47Z</time>
      </trkpt>
      <trkpt lat="48.403760" lon="15.587717">
        <ele>197.385</ele>
        <time>2019-05-04T16:16:51Z</time>
      </trkpt>
      <trkpt lat="48.403741" lon="15.587765">
        <ele>197.151</ele>
        <time>2019-05-04T16:16:52Z</time>
      </trkpt>
      <trkpt lat="48.403719" lon="15.588019">
        <ele>195.634</ele>
        <time>2019-05-04T16:16:57Z</time>
      </trkpt>
      <trkpt lat="48.403739" lon="15.588075">
        <ele>195.532</ele>
        <time>2019-05-04T16:16:58Z</time>
      </trkpt>
      <trkpt lat="48.403814" lon="15.588167">
        <ele>195.896</ele>
        <time>2019-05-04T16:17:00Z</time>
      </trkpt>
      <trkpt lat="48.403857" lon="15.588192">
        <ele>195.931</ele>
        <time>2019-05-04T16:17:01Z</time>
      </trkpt>
      <trkpt lat="48.403902" lon="15.588206">
        <ele>196.024</ele>
        <time>2019-05-04T16:17:02Z</time>
      </trkpt>
      <trkpt lat="48.403984" lon="15.588222">
        <ele>196.308</ele>
        <time>2019-05-04T16:17:04Z</time>
      </trkpt>
      <trkpt lat="48.404022" lon="15.588246">
        <ele>196.572</ele>
        <time>2019-05-04T16:17:05Z</time>
      </trkpt>
      <trkpt lat="48.404094" lon="15.588320">
        <ele>196.745</ele>
        <time>2019-05-04T16:17:07Z</time>
      </trkpt>
      <trkpt lat="48.404163" lon="15.588404">
        <ele>197.259</ele>
        <time>2019-05-04T16:17:09Z</time>
      </trkpt>
      <trkpt lat="48.404195" lon="15.588441">
        <ele>197.774</ele>
        <time>2019-05-04T16:17:10Z</time>
      </trkpt>
      <trkpt lat="48.404272" lon="15.588468">
        <ele>198.818</ele>
        <time>2019-05-04T16:17:12Z</time>
      </trkpt>
      <trkpt lat="48.404309" lon="15.588482">
        <ele>199.354</ele>
        <time>2019-05-04T16:17:13Z</time>
      </trkpt>
      <trkpt lat="48.404365" lon="15.588546">
        <ele>200.527</ele>
        <time>2019-05-04T16:17:15Z</time>
      </trkpt>
      <trkpt lat="48.404401" lon="15.588660">
        <ele>201.695</ele>
        <time>2019-05-04T16:17:17Z</time>
      </trkpt>
      <trkpt lat="48.404418" lon="15.588720">
        <ele>202.094</ele>
        <time>2019-05-04T16:17:18Z</time>
      </trkpt>
      <trkpt lat="48.404437" lon="15.588782">
        <ele>202.557</ele>
        <time>2019-05-04T16:17:19Z</time>
      </trkpt>
      <trkpt lat="48.404501" lon="15.588938">
        <ele>203.222</ele>
        <time>2019-05-04T16:17:22Z</time>
      </trkpt>
      <trkpt lat="48.404559" lon="15.589076">
        <ele>202.908</ele>
        <time>2019-05-04T16:17:25Z</time>
      </trkpt>
      <trkpt lat="48.404618" lon="15.589211">
        <ele>202.242</ele>
        <time>2019-05-04T16:17:28Z</time>
      </trkpt>
      <trkpt lat="48.404655" lon="15.589314">
        <ele>201.695</ele>
        <time>2019-05-04T16:17:30Z</time>
      </trkpt>
      <trkpt lat="48.404748" lon="15.589534">
        <ele>199.979</ele>
        <time>2019-05-04T16:17:34Z</time>
      </trkpt>
      <trkpt lat="48.404774" lon="15.589589">
        <ele>199.374</ele>
        <time>2019-05-04T16:17:35Z</time>
      </trkpt>
      <trkpt lat="48.404890" lon="15.589836">
        <ele>197.498</ele>
        <time>2019-05-04T16:17:40Z</time>
      </trkpt>
      <trkpt lat="48.404997" lon="15.590057">
        <ele>197.044</ele>
        <time>2019-05-04T16:17:46Z</time>
      </trkpt>
      <trkpt lat="48.405103" lon="15.590305">
        <ele>197.097</ele>
        <time>2019-05-04T16:17:54Z</time>
      </trkpt>
      <trkpt lat="48.405186" lon="15.590454">
        <ele>197.455</ele>
        <time>2019-05-04T16:18:01Z</time>
      </trkpt>
      <trkpt lat="48.405269" lon="15.590618">
        <ele>198.037</ele>
        <time>2019-05-04T16:18:05Z</time>
      </trkpt>
      <trkpt lat="48.405320" lon="15.590708">
        <ele>198.049</ele>
        <time>2019-05-04T16:18:07Z</time>
      </trkpt>
      <trkpt lat="48.405395" lon="15.590851">
        <ele>198.013</ele>
        <time>2019-05-04T16:18:10Z</time>
      </trkpt>
      <trkpt lat="48.405508" lon="15.591059">
        <ele>198.008</ele>
        <time>2019-05-04T16:18:14Z</time>
      </trkpt>
      <trkpt lat="48.405634" lon="15.591329">
        <ele>198.376</ele>
        <time>2019-05-04T16:18:19Z</time>
      </trkpt>
      <trkpt lat="48.405706" lon="15.591486">
        <ele>198.299</ele>
        <time>2019-05-04T16:18:22Z</time>
      </trkpt>
      <trkpt lat="48.405802" lon="15.591664">
        <ele>197.943</ele>
        <time>2019-05-04T16:18:26Z</time>
      </trkpt>
      <trkpt lat="48.405819" lon="15.591707">
        <ele>198.188</ele>
        <time>2019-05-04T16:18:27Z</time>
      </trkpt>
      <trkpt lat="48.405893" lon="15.591883">
        <ele>198.812</ele>
        <time>2019-05-04T16:18:33Z</time>
      </trkpt>
      <trkpt lat="48.405901" lon="15.591889">
        <ele>198.828</ele>
        <time>2019-05-04T16:18:34Z</time>
      </trkpt>
      <trkpt lat="48.405904" lon="15.591891">
        <ele>198.951</ele>
        <time>2019-05-04T16:18:36Z</time>
      </trkpt>
      <trkpt lat="48.405967" lon="15.592012">
        <ele>199.049</ele>
        <time>2019-05-04T16:19:41Z</time>
      </trkpt>
      <trkpt lat="48.405986" lon="15.592066">
        <ele>199.034</ele>
        <time>2019-05-04T16:19:43Z</time>
      </trkpt>
      <trkpt lat="48.406041" lon="15.592201">
        <ele>199.055</ele>
        <time>2019-05-04T16:19:47Z</time>
      </trkpt>
      <trkpt lat="48.406111" lon="15.592365">
        <ele>198.510</ele>
        <time>2019-05-04T16:19:51Z</time>
      </trkpt>
      <trkpt lat="48.406226" lon="15.592637">
        <ele>198.208</ele>
        <time>2019-05-04T16:19:57Z</time>
      </trkpt>
      <trkpt lat="48.406301" lon="15.592851">
        <ele>197.726</ele>
        <time>2019-05-04T16:20:01Z</time>
      </trkpt>
      <trkpt lat="48.406320" lon="15.592908">
        <ele>197.549</ele>
        <time>2019-05-04T16:20:02Z</time>
      </trkpt>
      <trkpt lat="48.406460" lon="15.593320">
        <ele>197.333</ele>
        <time>2019-05-04T16:20:09Z</time>
      </trkpt>
      <trkpt lat="48.406577" lon="15.593671">
        <ele>198.098</ele>
        <time>2019-05-04T16:20:15Z</time>
      </trkpt>
      <trkpt lat="48.406711" lon="15.594098">
        <ele>198.192</ele>
        <time>2019-05-04T16:20:23Z</time>
      </trkpt>
      <trkpt lat="48.406759" lon="15.594234">
        <ele>198.338</ele>
        <time>2019-05-04T16:20:26Z</time>
      </trkpt>
      <trkpt lat="48.406814" lon="15.594392">
        <ele>198.181</ele>
        <time>2019-05-04T16:20:29Z</time>
      </trkpt>
      <trkpt lat="48.406869" lon="15.594553">
        <ele>197.919</ele>
        <time>2019-05-04T16:20:32Z</time>
      </trkpt>
      <trkpt lat="48.406962" lon="15.594824">
        <ele>198.183</ele>
        <time>2019-05-04T16:20:37Z</time>
      </trkpt>
      <trkpt lat="48.407128" lon="15.595213">
        <ele>198.725</ele>
        <time>2019-05-04T16:20:45Z</time>
      </trkpt>
      <trkpt lat="48.407266" lon="15.595570">
        <ele>199.317</ele>
        <time>2019-05-04T16:20:52Z</time>
      </trkpt>
      <trkpt lat="48.407323" lon="15.595728">
        <ele>199.708</ele>
        <time>2019-05-04T16:20:55Z</time>
      </trkpt>
      <trkpt lat="48.407341" lon="15.595784">
        <ele>199.981</ele>
        <time>2019-05-04T16:20:56Z</time>
      </trkpt>
      <trkpt lat="48.407390" lon="15.595944">
        <ele>200.244</ele>
        <time>2019-05-04T16:20:59Z</time>
      </trkpt>
      <trkpt lat="48.407463" lon="15.596189">
        <ele>200.778</ele>
        <time>2019-05-04T16:21:04Z</time>
      </trkpt>
      <trkpt lat="48.407495" lon="15.596293">
        <ele>201.053</ele>
        <time>2019-05-04T16:21:06Z</time>
      </trkpt>
      <trkpt lat="48.407616" lon="15.596669">
        <ele>200.427</ele>
        <time>2019-05-04T16:21:13Z</time>
      </trkpt>
      <trkpt lat="48.407730" lon="15.596980">
        <ele>199.893</ele>
        <time>2019-05-04T16:21:19Z</time>
      </trkpt>
      <trkpt lat="48.407764" lon="15.597080">
        <ele>199.996</ele>
        <time>2019-05-04T16:21:21Z</time>
      </trkpt>
      <trkpt lat="48.407808" lon="15.597213">
        <ele>200.024</ele>
        <time>2019-05-04T16:21:24Z</time>
      </trkpt>
      <trkpt lat="48.407846" lon="15.597362">
        <ele>200.588</ele>
        <time>2019-05-04T16:21:28Z</time>
      </trkpt>
      <trkpt lat="48.407926" lon="15.597569">
        <ele>201.224</ele>
        <time>2019-05-04T16:21:34Z</time>
      </trkpt>
      <trkpt lat="48.407980" lon="15.597694">
        <ele>201.726</ele>
        <time>2019-05-04T16:21:37Z</time>
      </trkpt>
      <trkpt lat="48.408045" lon="15.597874">
        <ele>202.008</ele>
        <time>2019-05-04T16:21:41Z</time>
      </trkpt>
      <trkpt lat="48.408182" lon="15.598250">
        <ele>202.071</ele>
        <time>2019-05-04T16:21:49Z</time>
      </trkpt>
      <trkpt lat="48.408302" lon="15.598602">
        <ele>201.964</ele>
        <time>2019-05-04T16:21:56Z</time>
      </trkpt>
      <trkpt lat="48.408455" lon="15.599058">
        <ele>201.228</ele>
        <time>2019-05-04T16:22:05Z</time>
      </trkpt>
      <trkpt lat="48.408530" lon="15.599369">
        <ele>200.863</ele>
        <time>2019-05-04T16:22:11Z</time>
      </trkpt>
      <trkpt lat="48.408607" lon="15.599578">
        <ele>200.527</ele>
        <time>2019-05-04T16:22:15Z</time>
      </trkpt>
      <trkpt lat="48.408642" lon="15.599689">
        <ele>200.083</ele>
        <time>2019-05-04T16:22:17Z</time>
      </trkpt>
      <trkpt lat="48.408746" lon="15.599964">
        <ele>198.636</ele>
        <time>2019-05-04T16:22:22Z</time>
      </trkpt>
      <trkpt lat="48.408873" lon="15.600359">
        <ele>197.014</ele>
        <time>2019-05-04T16:22:29Z</time>
      </trkpt>
      <trkpt lat="48.409004" lon="15.600674">
        <ele>197.784</ele>
        <time>2019-05-04T16:22:35Z</time>
      </trkpt>
      <trkpt lat="48.409125" lon="15.601010">
        <ele>197.307</ele>
        <time>2019-05-04T16:22:41Z</time>
      </trkpt>
      <trkpt lat="48.409185" lon="15.601181">
        <ele>196.817</ele>
        <time>2019-05-04T16:22:44Z</time>
      </trkpt>
      <trkpt lat="48.409241" lon="15.601409">
        <ele>196.508</ele>
        <time>2019-05-04T16:22:48Z</time>
      </trkpt>
      <trkpt lat="48.409389" lon="15.601780">
        <ele>198.071</ele>
        <time>2019-05-04T16:22:55Z</time>
      </trkpt>
      <trkpt lat="48.409488" lon="15.602005">
        <ele>199.424</ele>
        <time>2019-05-04T16:23:00Z</time>
      </trkpt>
      <trkpt lat="48.409596" lon="15.602348">
        <ele>200.818</ele>
        <time>2019-05-04T16:23:07Z</time>
      </trkpt>
      <trkpt lat="48.409729" lon="15.602728">
        <ele>201.883</ele>
        <time>2019-05-04T16:23:15Z</time>
      </trkpt>
      <trkpt lat="48.409821" lon="15.602969">
        <ele>201.247</ele>
        <time>2019-05-04T16:23:20Z</time>
      </trkpt>
      <trkpt lat="48.409940" lon="15.603272">
        <ele>201.053</ele>
        <time>2019-05-04T16:23:26Z</time>
      </trkpt>
      <trkpt lat="48.410047" lon="15.603601">
        <ele>200.886</ele>
        <time>2019-05-04T16:23:33Z</time>
      </trkpt>
      <trkpt lat="48.410176" lon="15.604024">
        <ele>199.224</ele>
        <time>2019-05-04T16:23:42Z</time>
      </trkpt>
      <trkpt lat="48.410331" lon="15.604399">
        <ele>196.911</ele>
        <time>2019-05-04T16:23:50Z</time>
      </trkpt>
      <trkpt lat="48.410465" lon="15.604788">
        <ele>196.921</ele>
        <time>2019-05-04T16:23:57Z</time>
      </trkpt>
      <trkpt lat="48.410600" lon="15.605181">
        <ele>198.403</ele>
        <time>2019-05-04T16:24:04Z</time>
      </trkpt>
      <trkpt lat="48.410634" lon="15.605305">
        <ele>199.108</ele>
        <time>2019-05-04T16:24:06Z</time>
      </trkpt>
      <trkpt lat="48.410732" lon="15.605581">
        <ele>200.774</ele>
        <time>2019-05-04T16:24:11Z</time>
      </trkpt>
      <trkpt lat="48.410871" lon="15.605985">
        <ele>200.347</ele>
        <time>2019-05-04T16:24:19Z</time>
      </trkpt>
      <trkpt lat="48.410976" lon="15.606243">
        <ele>199.221</ele>
        <time>2019-05-04T16:24:24Z</time>
      </trkpt>
      <trkpt lat="48.411017" lon="15.606338">
        <ele>198.846</ele>
        <time>2019-05-04T16:24:26Z</time>
      </trkpt>
      <trkpt lat="48.411087" lon="15.606503">
        <ele>198.130</ele>
        <time>2019-05-04T16:24:30Z</time>
      </trkpt>
      <trkpt lat="48.411156" lon="15.606646">
        <ele>198.066</ele>
        <time>2019-05-04T16:24:34Z</time>
      </trkpt>
      <trkpt lat="48.411192" lon="15.606744">
        <ele>197.889</ele>
        <time>2019-05-04T16:24:37Z</time>
      </trkpt>
      <trkpt lat="48.411195" lon="15.606794">
        <ele>197.737</ele>
        <time>2019-05-04T16:24:39Z</time>
      </trkpt>
      <trkpt lat="48.411192" lon="15.606810">
        <ele>197.628</ele>
        <time>2019-05-04T16:24:40Z</time>
      </trkpt>
      <trkpt lat="48.411169" lon="15.606854">
        <ele>197.589</ele>
        <time>2019-05-04T16:24:44Z</time>
      </trkpt>
      <trkpt lat="48.411138" lon="15.606969">
        <ele>197.017</ele>
        <time>2019-05-04T16:25:14Z</time>
      </trkpt>
      <trkpt lat="48.411143" lon="15.606987">
        <ele>197.008</ele>
        <time>2019-05-04T16:25:15Z</time>
      </trkpt>
      <trkpt lat="48.411136" lon="15.607081">
        <ele>196.645</ele>
        <time>2019-05-04T16:25:19Z</time>
      </trkpt>
      <trkpt lat="48.411121" lon="15.607159">
        <ele>196.398</ele>
        <time>2019-05-04T16:25:22Z</time>
      </trkpt>
      <trkpt lat="48.411104" lon="15.607212">
        <ele>196.032</ele>
        <time>2019-05-04T16:25:24Z</time>
      </trkpt>
      <trkpt lat="48.411090" lon="15.607239">
        <ele>196.097</ele>
        <time>2019-05-04T16:25:25Z</time>
      </trkpt>
      <trkpt lat="48.411041" lon="15.607336">
        <ele>195.981</ele>
        <time>2019-05-04T16:25:28Z</time>
      </trkpt>
      <trkpt lat="48.410880" lon="15.607604">
        <ele>194.857</ele>
        <time>2019-05-04T16:25:34Z</time>
      </trkpt>
      <trkpt lat="48.410721" lon="15.607849">
        <ele>193.950</ele>
        <time>2019-05-04T16:25:40Z</time>
      </trkpt>
      <trkpt lat="48.410602" lon="15.608007">
        <ele>193.338</ele>
        <time>2019-05-04T16:25:46Z</time>
      </trkpt>
      <trkpt lat="48.410534" lon="15.608070">
        <ele>193.171</ele>
        <time>2019-05-04T16:25:49Z</time>
      </trkpt>
      <trkpt lat="48.410444" lon="15.608072">
        <ele>193.441</ele>
        <time>2019-05-04T16:25:52Z</time>
      </trkpt>
      <trkpt lat="48.410251" lon="15.608119">
        <ele>194.115</ele>
        <time>2019-05-04T16:25:58Z</time>
      </trkpt>
      <trkpt lat="48.410034" lon="15.608222">
        <ele>194.908</ele>
        <time>2019-05-04T16:26:04Z</time>
      </trkpt>
      <trkpt lat="48.409888" lon="15.608267">
        <ele>195.430</ele>
        <time>2019-05-04T16:26:09Z</time>
      </trkpt>
      <trkpt lat="48.409696" lon="15.608293">
        <ele>196.033</ele>
        <time>2019-05-04T16:26:15Z</time>
      </trkpt>
      <trkpt lat="48.409483" lon="15.608340">
        <ele>196.077</ele>
        <time>2019-05-04T16:26:21Z</time>
      </trkpt>
      <trkpt lat="48.409290" lon="15.608449">
        <ele>197.292</ele>
        <time>2019-05-04T16:26:27Z</time>
      </trkpt>
      <trkpt lat="48.409091" lon="15.608474">
        <ele>198.146</ele>
        <time>2019-05-04T16:26:33Z</time>
      </trkpt>
      <trkpt lat="48.408958" lon="15.608503">
        <ele>198.542</ele>
        <time>2019-05-04T16:26:37Z</time>
      </trkpt>
      <trkpt lat="48.408862" lon="15.608509">
        <ele>198.655</ele>
        <time>2019-05-04T16:26:40Z</time>
      </trkpt>
      <trkpt lat="48.408693" lon="15.608551">
        <ele>198.893</ele>
        <time>2019-05-04T16:26:45Z</time>
      </trkpt>
      <trkpt lat="48.408528" lon="15.608584">
        <ele>199.345</ele>
        <time>2019-05-04T16:26:50Z</time>
      </trkpt>
      <trkpt lat="48.408321" lon="15.608598">
        <ele>200.147</ele>
        <time>2019-05-04T16:26:56Z</time>
      </trkpt>
      <trkpt lat="48.408175" lon="15.608673">
        <ele>200.911</ele>
        <time>2019-05-04T16:27:01Z</time>
      </trkpt>
      <trkpt lat="48.408057" lon="15.608670">
        <ele>201.608</ele>
        <time>2019-05-04T16:27:06Z</time>
      </trkpt>
      <trkpt lat="48.407890" lon="15.608663">
        <ele>200.777</ele>
        <time>2019-05-04T16:27:13Z</time>
      </trkpt>
      <trkpt lat="48.407853" lon="15.608678">
        <ele>200.440</ele>
        <time>2019-05-04T16:27:15Z</time>
      </trkpt>
      <trkpt lat="48.407790" lon="15.608691">
        <ele>200.174</ele>
        <time>2019-05-04T16:27:18Z</time>
      </trkpt>
      <trkpt lat="48.407759" lon="15.608742">
        <ele>199.989</ele>
        <time>2019-05-04T16:27:19Z</time>
      </trkpt>
      <trkpt lat="48.407619" lon="15.608873">
        <ele>199.463</ele>
        <time>2019-05-04T16:27:22Z</time>
      </trkpt>
      <trkpt lat="48.407579" lon="15.608900">
        <ele>199.369</ele>
        <time>2019-05-04T16:27:23Z</time>
      </trkpt>
      <trkpt lat="48.407452" lon="15.608933">
        <ele>199.082</ele>
        <time>2019-05-04T16:27:28Z</time>
      </trkpt>
      <trkpt lat="48.407303" lon="15.608920">
        <ele>198.480</ele>
        <time>2019-05-04T16:27:34Z</time>
      </trkpt>
      <trkpt lat="48.407203" lon="15.608953">
        <ele>198.275</ele>
        <time>2019-05-04T16:27:37Z</time>
      </trkpt>
      <trkpt lat="48.407061" lon="15.608990">
        <ele>198.428</ele>
        <time>2019-05-04T16:27:41Z</time>
      </trkpt>
      <trkpt lat="48.406902" lon="15.609018">
        <ele>198.120</ele>
        <time>2019-05-04T16:27:47Z</time>
      </trkpt>
      <trkpt lat="48.406884" lon="15.609021">
        <ele>197.908</ele>
        <time>2019-05-04T16:27:48Z</time>
      </trkpt>
      <trkpt lat="48.406827" lon="15.609009">
        <ele>197.470</ele>
        <time>2019-05-04T16:27:53Z</time>
      </trkpt>
      <trkpt lat="48.406796" lon="15.609144">
        <ele>197.443</ele>
        <time>2019-05-04T16:28:53Z</time>
      </trkpt>
      <trkpt lat="48.406801" lon="15.609201">
        <ele>197.587</ele>
        <time>2019-05-04T16:28:55Z</time>
      </trkpt>
      <trkpt lat="48.406807" lon="15.609284">
        <ele>197.792</ele>
        <time>2019-05-04T16:28:58Z</time>
      </trkpt>
      <trkpt lat="48.406796" lon="15.609381">
        <ele>197.856</ele>
        <time>2019-05-04T16:29:01Z</time>
      </trkpt>
      <trkpt lat="48.406793" lon="15.609418">
        <ele>197.922</ele>
        <time>2019-05-04T16:29:02Z</time>
      </trkpt>
      <trkpt lat="48.406821" lon="15.609526">
        <ele>198.365</ele>
        <time>2019-05-04T16:29:05Z</time>
      </trkpt>
      <trkpt lat="48.406930" lon="15.609706">
        <ele>199.813</ele>
        <time>2019-05-04T16:29:12Z</time>
      </trkpt>
      <trkpt lat="48.406898" lon="15.609810">
        <ele>199.267</ele>
        <time>2019-05-04T16:29:16Z</time>
      </trkpt>
      <trkpt lat="48.406902" lon="15.609841">
        <ele>199.281</ele>
        <time>2019-05-04T16:29:17Z</time>
      </trkpt>
      <trkpt lat="48.406925" lon="15.610073">
        <ele>198.619</ele>
        <time>2019-05-04T16:29:22Z</time>
      </trkpt>
      <trkpt lat="48.406953" lon="15.610251">
        <ele>198.108</ele>
        <time>2019-05-04T16:29:26Z</time>
      </trkpt>
      <trkpt lat="48.406977" lon="15.610363">
        <ele>197.849</ele>
        <time>2019-05-04T16:29:29Z</time>
      </trkpt>
      <trkpt lat="48.406990" lon="15.610483">
        <ele>197.432</ele>
        <time>2019-05-04T16:29:32Z</time>
      </trkpt>
      <trkpt lat="48.406996" lon="15.610536">
        <ele>197.366</ele>
        <time>2019-05-04T16:29:33Z</time>
      </trkpt>
      <trkpt lat="48.407032" lon="15.610868">
        <ele>196.291</ele>
        <time>2019-05-04T16:29:39Z</time>
      </trkpt>
      <trkpt lat="48.407065" lon="15.611308">
        <ele>195.045</ele>
        <time>2019-05-04T16:29:46Z</time>
      </trkpt>
      <trkpt lat="48.407068" lon="15.611441">
        <ele>194.811</ele>
        <time>2019-05-04T16:29:48Z</time>
      </trkpt>
      <trkpt lat="48.407079" lon="15.611711">
        <ele>194.484</ele>
        <time>2019-05-04T16:29:52Z</time>
      </trkpt>
      <trkpt lat="48.407085" lon="15.611846">
        <ele>194.222</ele>
        <time>2019-05-04T16:29:54Z</time>
      </trkpt>
      <trkpt lat="48.407099" lon="15.612032">
        <ele>194.092</ele>
        <time>2019-05-04T16:29:57Z</time>
      </trkpt>
      <trkpt lat="48.407144" lon="15.612412">
        <ele>194.573</ele>
        <time>2019-05-04T16:30:03Z</time>
      </trkpt>
      <trkpt lat="48.407150" lon="15.612477">
        <ele>194.720</ele>
        <time>2019-05-04T16:30:04Z</time>
      </trkpt>
      <trkpt lat="48.407194" lon="15.612719">
        <ele>195.008</ele>
        <time>2019-05-04T16:30:08Z</time>
      </trkpt>
      <trkpt lat="48.407228" lon="15.612834">
        <ele>195.022</ele>
        <time>2019-05-04T16:30:10Z</time>
      </trkpt>
      <trkpt lat="48.407409" lon="15.613145">
        <ele>193.735</ele>
        <time>2019-05-04T16:30:17Z</time>
      </trkpt>
      <trkpt lat="48.407564" lon="15.613366">
        <ele>193.189</ele>
        <time>2019-05-04T16:30:22Z</time>
      </trkpt>
      <trkpt lat="48.407592" lon="15.613414">
        <ele>193.334</ele>
        <time>2019-05-04T16:30:23Z</time>
      </trkpt>
      <trkpt lat="48.407748" lon="15.613643">
        <ele>194.138</ele>
        <time>2019-05-04T16:30:29Z</time>
      </trkpt>
      <trkpt lat="48.407844" lon="15.613749">
        <ele>194.724</ele>
        <time>2019-05-04T16:30:34Z</time>
      </trkpt>
      <trkpt lat="48.407877" lon="15.613773">
        <ele>194.957</ele>
        <time>2019-05-04T16:30:36Z</time>
      </trkpt>
      <trkpt lat="48.407948" lon="15.613801">
        <ele>195.395</ele>
        <time>2019-05-04T16:30:40Z</time>
      </trkpt>
      <trkpt lat="48.407958" lon="15.613810">
        <ele>195.413</ele>
        <time>2019-05-04T16:30:41Z</time>
      </trkpt>
      <trkpt lat="48.407959" lon="15.613818">
        <ele>195.443</ele>
        <time>2019-05-04T16:30:45Z</time>
      </trkpt>
      <trkpt lat="48.407925" lon="15.613810">
        <ele>195.207</ele>
        <time>2019-05-04T16:30:50Z</time>
      </trkpt>
      <trkpt lat="48.407875" lon="15.613795">
        <ele>195.008</ele>
        <time>2019-05-04T16:30:53Z</time>
      </trkpt>
      <trkpt lat="48.407794" lon="15.613757">
        <ele>194.624</ele>
        <time>2019-05-04T16:30:57Z</time>
      </trkpt>
      <trkpt lat="48.407781" lon="15.613741">
        <ele>194.527</ele>
        <time>2019-05-04T16:30:58Z</time>
      </trkpt>
      <trkpt lat="48.407762" lon="15.613734">
        <ele>194.471</ele>
        <time>2019-05-04T16:30:59Z</time>
      </trkpt>
      <trkpt lat="48.407719" lon="15.613730">
        <ele>194.496</ele>
        <time>2019-05-04T16:31:01Z</time>
      </trkpt>
      <trkpt lat="48.407652" lon="15.613736">
        <ele>194.420</ele>
        <time>2019-05-04T16:31:04Z</time>
      </trkpt>
      <trkpt lat="48.407639" lon="15.613730">
        <ele>194.486</ele>
        <time>2019-05-04T16:31:05Z</time>
      </trkpt>
      <trkpt lat="48.407605" lon="15.613717">
        <ele>194.469</ele>
        <time>2019-05-04T16:31:07Z</time>
      </trkpt>
      <trkpt lat="48.407572" lon="15.613708">
        <ele>194.357</ele>
        <time>2019-05-04T16:31:09Z</time>
      </trkpt>
      <trkpt lat="48.407493" lon="15.613672">
        <ele>194.379</ele>
        <time>2019-05-04T16:31:14Z</time>
      </trkpt>
      <trkpt lat="48.407437" lon="15.613626">
        <ele>194.505</ele>
        <time>2019-05-04T16:31:17Z</time>
      </trkpt>
      <trkpt lat="48.407396" lon="15.613607">
        <ele>194.725</ele>
        <time>2019-05-04T16:31:19Z</time>
      </trkpt>
      <trkpt lat="48.407309" lon="15.613541">
        <ele>195.108</ele>
        <time>2019-05-04T16:31:24Z</time>
      </trkpt>
      <trkpt lat="48.407284" lon="15.613562">
        <ele>195.490</ele>
        <time>2019-05-04T16:31:26Z</time>
      </trkpt>
      <trkpt lat="48.407268" lon="15.613606">
        <ele>195.723</ele>
        <time>2019-05-04T16:31:29Z</time>
      </trkpt>
      <trkpt lat="48.407267" lon="15.613615">
        <ele>195.787</ele>
        <time>2019-05-04T16:31:33Z</time>
      </trkpt>
      <trkpt lat="48.4071028" lon="15.6132889">
        <ele>198.323</ele>
        <time>2019-05-05T08:27:48.997Z</time>
      </trkpt>
      <trkpt lat="48.4071028" lon="15.6132889">
        <ele>198.272</ele>
        <time>2019-05-05T08:28:17.649Z</time>
      </trkpt>
      <trkpt lat="48.4072909" lon="15.6134517">
        <ele>198.229</ele>
        <time>2019-05-05T08:28:51.630Z</time>
      </trkpt>
      <trkpt lat="48.4073378" lon="15.6135992">
        <ele>198.191</ele>
        <time>2019-05-05T08:28:59.000Z</time>
      </trkpt>
      <trkpt lat="48.4073378" lon="15.6135992">
        <ele>198.171</ele>
        <time>2019-05-05T08:29:13.000Z</time>
      </trkpt>
      <trkpt lat="48.4073378" lon="15.6135992">
        <ele>198.136</ele>
        <time>2019-05-05T08:29:13.100Z</time>
      </trkpt>
      <trkpt lat="48.4071850" lon="15.6133950">
        <ele>198.062</ele>
        <time>2019-05-05T08:30:10.999Z</time>
      </trkpt>
      <trkpt lat="48.4071850" lon="15.6133950">
        <ele>197.986</ele>
        <time>2019-05-05T08:30:13.999Z</time>
      </trkpt>
      <trkpt lat="48.4071850" lon="15.6133950">
        <ele>197.929</ele>
        <time>2019-05-05T08:30:24.161Z</time>
      </trkpt>
      <trkpt lat="48.4070974" lon="15.6131199">
        <ele>197.877</ele>
        <time>2019-05-05T08:30:46.868Z</time>
      </trkpt>
      <trkpt lat="48.4071951" lon="15.6130711">
        <ele>197.939</ele>
        <time>2019-05-05T08:30:53.439Z</time>
      </trkpt>
      <trkpt lat="48.4072733" lon="15.6131712">
        <ele>198.184</ele>
        <time>2019-05-05T08:30:59.489Z</time>
      </trkpt>
      <trkpt lat="48.4073533" lon="15.6132683">
        <ele>198.431</ele>
        <time>2019-05-05T08:31:05.294Z</time>
      </trkpt>
      <trkpt lat="48.4073917" lon="15.6134071">
        <ele>198.470</ele>
        <time>2019-05-05T08:31:10.227Z</time>
      </trkpt>
      <trkpt lat="48.4074751" lon="15.6135042">
        <ele>198.316</ele>
        <time>2019-05-05T08:31:14.553Z</time>
      </trkpt>
      <trkpt lat="48.4075434" lon="15.6136037">
        <ele>198.074</ele>
        <time>2019-05-05T08:31:18.604Z</time>
      </trkpt>
      <trkpt lat="48.4076055" lon="15.6137493">
        <ele>197.818</ele>
        <time>2019-05-05T08:31:23.162Z</time>
      </trkpt>
      <trkpt lat="48.4076811" lon="15.6138227">
        <ele>197.606</ele>
        <time>2019-05-05T08:31:26.200Z</time>
      </trkpt>
      <trkpt lat="48.4077698" lon="15.6138690">
        <ele>197.492</ele>
        <time>2019-05-05T08:31:29.088Z</time>
      </trkpt>
      <trkpt lat="48.4078738" lon="15.6139381">
        <ele>197.465</ele>
        <time>2019-05-05T08:31:32.489Z</time>
      </trkpt>
      <trkpt lat="48.4079641" lon="15.6139459">
        <ele>197.477</ele>
        <time>2019-05-05T08:31:34.999Z</time>
      </trkpt>
      <trkpt lat="48.4079641" lon="15.6139459">
        <ele>197.477</ele>
        <time>2019-05-05T08:31:36.999Z</time>
      </trkpt>
      <trkpt lat="48.4079641" lon="15.6139459">
        <ele>197.429</ele>
        <time>2019-05-05T08:31:37.099Z</time>
      </trkpt>
      <trkpt lat="48.4082234" lon="15.6140786">
        <ele>197.341</ele>
        <time>2019-05-05T08:31:48.641Z</time>
      </trkpt>
      <trkpt lat="48.4083139" lon="15.6141081">
        <ele>197.222</ele>
        <time>2019-05-05T08:31:51.670Z</time>
      </trkpt>
      <trkpt lat="48.4083884" lon="15.6142232">
        <ele>197.051</ele>
        <time>2019-05-05T08:31:54.857Z</time>
      </trkpt>
      <trkpt lat="48.4084412" lon="15.6143437">
        <ele>196.865</ele>
        <time>2019-05-05T08:31:57.555Z</time>
      </trkpt>
      <trkpt lat="48.4084841" lon="15.6144722">
        <ele>196.758</ele>
        <time>2019-05-05T08:32:00.091Z</time>
      </trkpt>
      <trkpt lat="48.4085474" lon="15.6146115">
        <ele>196.755</ele>
        <time>2019-05-05T08:32:02.935Z</time>
      </trkpt>
      <trkpt lat="48.4085986" lon="15.6147606">
        <ele>196.810</ele>
        <time>2019-05-05T08:32:05.686Z</time>
      </trkpt>
      <trkpt lat="48.4086563" lon="15.6149225">
        <ele>196.816</ele>
        <time>2019-05-05T08:32:08.699Z</time>
      </trkpt>
      <trkpt lat="48.4087134" lon="15.6150649">
        <ele>196.719</ele>
        <time>2019-05-05T08:32:11.518Z</time>
      </trkpt>
      <trkpt lat="48.4087718" lon="15.6152157">
        <ele>196.629</ele>
        <time>2019-05-05T08:32:14.604Z</time>
      </trkpt>
      <trkpt lat="48.4088439" lon="15.6153309">
        <ele>196.667</ele>
        <time>2019-05-05T08:32:17.399Z</time>
      </trkpt>
      <trkpt lat="48.4089066" lon="15.6154377">
        <ele>196.821</ele>
        <time>2019-05-05T08:32:19.784Z</time>
      </trkpt>
      <trkpt lat="48.4089706" lon="15.6155624">
        <ele>197.030</ele>
        <time>2019-05-05T08:32:22.385Z</time>
      </trkpt>
      <trkpt lat="48.4090258" lon="15.6156929">
        <ele>197.245</ele>
        <time>2019-05-05T08:32:24.933Z</time>
      </trkpt>
      <trkpt lat="48.4090991" lon="15.6157989">
        <ele>197.413</ele>
        <time>2019-05-05T08:32:27.438Z</time>
      </trkpt>
      <trkpt lat="48.4091991" lon="15.6159020">
        <ele>197.500</ele>
        <time>2019-05-05T08:32:30.359Z</time>
      </trkpt>
      <trkpt lat="48.4092813" lon="15.6160181">
        <ele>197.524</ele>
        <time>2019-05-05T08:32:33.111Z</time>
      </trkpt>
      <trkpt lat="48.4093614" lon="15.6160905">
        <ele>197.519</ele>
        <time>2019-05-05T08:32:35.445Z</time>
      </trkpt>
      <trkpt lat="48.4094487" lon="15.6161573">
        <ele>197.504</ele>
        <time>2019-05-05T08:32:37.942Z</time>
      </trkpt>
      <trkpt lat="48.4095361" lon="15.6162222">
        <ele>197.502</ele>
        <time>2019-05-05T08:32:40.460Z</time>
      </trkpt>
      <trkpt lat="48.4096298" lon="15.6162344">
        <ele>197.502</ele>
        <time>2019-05-05T08:32:42.894Z</time>
      </trkpt>
      <trkpt lat="48.4097466" lon="15.6162636">
        <ele>197.503</ele>
        <time>2019-05-05T08:32:45.960Z</time>
      </trkpt>
      <trkpt lat="48.4098660" lon="15.6162848">
        <ele>197.504</ele>
        <time>2019-05-05T08:32:49.100Z</time>
      </trkpt>
      <trkpt lat="48.4099589" lon="15.6162838">
        <ele>197.531</ele>
        <time>2019-05-05T08:32:51.525Z</time>
      </trkpt>
      <trkpt lat="48.4100660" lon="15.6162959">
        <ele>197.654</ele>
        <time>2019-05-05T08:32:54.359Z</time>
      </trkpt>
      <trkpt lat="48.4101779" lon="15.6163104">
        <ele>197.906</ele>
        <time>2019-05-05T08:32:57.478Z</time>
      </trkpt>
      <trkpt lat="48.4102779" lon="15.6163442">
        <ele>198.210</ele>
        <time>2019-05-05T08:33:01.099Z</time>
      </trkpt>
      <trkpt lat="48.4102953" lon="15.6164799">
        <ele>198.441</ele>
        <time>2019-05-05T08:33:04.945Z</time>
      </trkpt>
      <trkpt lat="48.4102868" lon="15.6166188">
        <ele>196.581</ele>
        <time>2019-05-05T08:33:09.242Z</time>
      </trkpt>
      <trkpt lat="48.4102763" lon="15.6167613">
        <ele>190.880</ele>
        <time>2019-05-05T08:33:12.528Z</time>
      </trkpt>
      <trkpt lat="48.4102570" lon="15.6169099">
        <ele>184.036</ele>
        <time>2019-05-05T08:33:15.474Z</time>
      </trkpt>
      <trkpt lat="48.4102522" lon="15.6170713">
        <ele>179.900</ele>
        <time>2019-05-05T08:33:18.206Z</time>
      </trkpt>
      <trkpt lat="48.4102559" lon="15.6172076">
        <ele>178.936</ele>
        <time>2019-05-05T08:33:20.241Z</time>
      </trkpt>
      <trkpt lat="48.4102579" lon="15.6173650">
        <ele>179.740</ele>
        <time>2019-05-05T08:33:22.471Z</time>
      </trkpt>
      <trkpt lat="48.4102523" lon="15.6175662">
        <ele>180.817</ele>
        <time>2019-05-05T08:33:25.238Z</time>
      </trkpt>
      <trkpt lat="48.4102310" lon="15.6177205">
        <ele>181.429</ele>
        <time>2019-05-05T08:33:27.448Z</time>
      </trkpt>
      <trkpt lat="48.4101934" lon="15.6178830">
        <ele>183.617</ele>
        <time>2019-05-05T08:33:29.899Z</time>
      </trkpt>
      <trkpt lat="48.4101715" lon="15.6180252">
        <ele>189.032</ele>
        <time>2019-05-05T08:33:31.981Z</time>
      </trkpt>
      <trkpt lat="48.4101581" lon="15.6181717">
        <ele>194.886</ele>
        <time>2019-05-05T08:33:34.074Z</time>
      </trkpt>
      <trkpt lat="48.4101612" lon="15.6183206">
        <ele>197.953</ele>
        <time>2019-05-05T08:33:36.187Z</time>
      </trkpt>
      <trkpt lat="48.4101499" lon="15.6184656">
        <ele>198.590</ele>
        <time>2019-05-05T08:33:38.294Z</time>
      </trkpt>
      <trkpt lat="48.4101234" lon="15.6186331">
        <ele>198.199</ele>
        <time>2019-05-05T08:33:40.915Z</time>
      </trkpt>
      <trkpt lat="48.4101220" lon="15.6187784">
        <ele>197.768</ele>
        <time>2019-05-05T08:33:43.308Z</time>
      </trkpt>
      <trkpt lat="48.4101570" lon="15.6189042">
        <ele>197.643</ele>
        <time>2019-05-05T08:33:45.688Z</time>
      </trkpt>
      <trkpt lat="48.4102183" lon="15.6190708">
        <ele>197.745</ele>
        <time>2019-05-05T08:33:49.012Z</time>
      </trkpt>
      <trkpt lat="48.4102570" lon="15.6192077">
        <ele>197.913</ele>
        <time>2019-05-05T08:33:51.382Z</time>
      </trkpt>
      <trkpt lat="48.4102867" lon="15.6193915">
        <ele>198.062</ele>
        <time>2019-05-05T08:33:54.236Z</time>
      </trkpt>
      <trkpt lat="48.4103406" lon="15.6195160">
        <ele>198.148</ele>
        <time>2019-05-05T08:33:56.397Z</time>
      </trkpt>
      <trkpt lat="48.4104032" lon="15.6196439">
        <ele>198.124</ele>
        <time>2019-05-05T08:33:58.647Z</time>
      </trkpt>
      <trkpt lat="48.4104467" lon="15.6197787">
        <ele>197.995</ele>
        <time>2019-05-05T08:34:00.711Z</time>
      </trkpt>
      <trkpt lat="48.4104885" lon="15.6199011">
        <ele>197.865</ele>
        <time>2019-05-05T08:34:02.693Z</time>
      </trkpt>
      <trkpt lat="48.4105421" lon="15.6200377">
        <ele>197.841</ele>
        <time>2019-05-05T08:34:04.999Z</time>
      </trkpt>
      <trkpt lat="48.4105421" lon="15.6200377">
        <ele>197.917</ele>
        <time>2019-05-05T08:34:06.999Z</time>
      </trkpt>
      <trkpt lat="48.4105421" lon="15.6200377">
        <ele>197.960</ele>
        <time>2019-05-05T08:34:07.099Z</time>
      </trkpt>
      <trkpt lat="48.4105519" lon="15.6203372">
        <ele>197.878</ele>
        <time>2019-05-05T08:34:14.515Z</time>
      </trkpt>
      <trkpt lat="48.4105542" lon="15.6204857">
        <ele>197.754</ele>
        <time>2019-05-05T08:34:17.144Z</time>
      </trkpt>
      <trkpt lat="48.4105289" lon="15.6206449">
        <ele>197.791</ele>
        <time>2019-05-05T08:34:20.230Z</time>
      </trkpt>
      <trkpt lat="48.4105280" lon="15.6208270">
        <ele>197.978</ele>
        <time>2019-05-05T08:34:23.485Z</time>
      </trkpt>
      <trkpt lat="48.4105212" lon="15.6210346">
        <ele>198.079</ele>
        <time>2019-05-05T08:34:26.867Z</time>
      </trkpt>
      <trkpt lat="48.4104832" lon="15.6211928">
        <ele>197.994</ele>
        <time>2019-05-05T08:34:29.563Z</time>
      </trkpt>
      <trkpt lat="48.4104798" lon="15.6213482">
        <ele>197.836</ele>
        <time>2019-05-05T08:34:31.985Z</time>
      </trkpt>
      <trkpt lat="48.4104588" lon="15.6215362">
        <ele>197.712</ele>
        <time>2019-05-05T08:34:34.890Z</time>
      </trkpt>
      <trkpt lat="48.4104434" lon="15.6216752">
        <ele>197.677</ele>
        <time>2019-05-05T08:34:36.925Z</time>
      </trkpt>
      <trkpt lat="48.4103981" lon="15.6218645">
        <ele>197.669</ele>
        <time>2019-05-05T08:34:39.693Z</time>
      </trkpt>
      <trkpt lat="48.4103795" lon="15.6220123">
        <ele>197.607</ele>
        <time>2019-05-05T08:34:41.649Z</time>
      </trkpt>
      <trkpt lat="48.4103553" lon="15.6221880">
        <ele>197.490</ele>
        <time>2019-05-05T08:34:43.934Z</time>
      </trkpt>
      <trkpt lat="48.4103478" lon="15.6223506">
        <ele>197.382</ele>
        <time>2019-05-05T08:34:46.015Z</time>
      </trkpt>
      <trkpt lat="48.4103226" lon="15.6224905">
        <ele>197.321</ele>
        <time>2019-05-05T08:34:47.921Z</time>
      </trkpt>
      <trkpt lat="48.4103024" lon="15.6226234">
        <ele>197.283</ele>
        <time>2019-05-05T08:34:49.776Z</time>
      </trkpt>
      <trkpt lat="48.4102871" lon="15.6228054">
        <ele>197.240</ele>
        <time>2019-05-05T08:34:52.310Z</time>
      </trkpt>
      <trkpt lat="48.4102729" lon="15.6229968">
        <ele>197.217</ele>
        <time>2019-05-05T08:34:55.014Z</time>
      </trkpt>
      <trkpt lat="48.4102401" lon="15.6231382">
        <ele>197.256</ele>
        <time>2019-05-05T08:34:57.121Z</time>
      </trkpt>
      <trkpt lat="48.4101966" lon="15.6233283">
        <ele>197.337</ele>
        <time>2019-05-05T08:34:59.923Z</time>
      </trkpt>
      <trkpt lat="48.4101960" lon="15.6234662">
        <ele>197.366</ele>
        <time>2019-05-05T08:35:01.815Z</time>
      </trkpt>
      <trkpt lat="48.4102051" lon="15.6236084">
        <ele>197.263</ele>
        <time>2019-05-05T08:35:03.772Z</time>
      </trkpt>
      <trkpt lat="48.4101960" lon="15.6237466">
        <ele>197.070</ele>
        <time>2019-05-05T08:35:05.671Z</time>
      </trkpt>
      <trkpt lat="48.4101488" lon="15.6239519">
        <ele>196.881</ele>
        <time>2019-05-05T08:35:08.619Z</time>
      </trkpt>
      <trkpt lat="48.4101191" lon="15.6240933">
        <ele>196.704</ele>
        <time>2019-05-05T08:35:10.647Z</time>
      </trkpt>
      <trkpt lat="48.4101092" lon="15.6242361">
        <ele>196.505</ele>
        <time>2019-05-05T08:35:12.695Z</time>
      </trkpt>
      <trkpt lat="48.4100828" lon="15.6244070">
        <ele>196.276</ele>
        <time>2019-05-05T08:35:15.369Z</time>
      </trkpt>
      <trkpt lat="48.4100571" lon="15.6245614">
        <ele>196.058</ele>
        <time>2019-05-05T08:35:18.056Z</time>
      </trkpt>
      <trkpt lat="48.4100263" lon="15.6247035">
        <ele>195.919</ele>
        <time>2019-05-05T08:35:20.838Z</time>
      </trkpt>
      <trkpt lat="48.4099542" lon="15.6246140">
        <ele>195.881</ele>
        <time>2019-05-05T08:35:23.798Z</time>
      </trkpt>
      <trkpt lat="48.4098618" lon="15.6245601">
        <ele>194.047</ele>
        <time>2019-05-05T08:35:26.787Z</time>
      </trkpt>
      <trkpt lat="48.4097680" lon="15.6245265">
        <ele>188.529</ele>
        <time>2019-05-05T08:35:29.220Z</time>
      </trkpt>
      <trkpt lat="48.4096832" lon="15.6244762">
        <ele>181.266</ele>
        <time>2019-05-05T08:35:31.426Z</time>
      </trkpt>
      <trkpt lat="48.4095804" lon="15.6243666">
        <ele>175.550</ele>
        <time>2019-05-05T08:35:34.477Z</time>
      </trkpt>
      <trkpt lat="48.4094905" lon="15.6242504">
        <ele>172.355</ele>
        <time>2019-05-05T08:35:37.383Z</time>
      </trkpt>
      <trkpt lat="48.4094159" lon="15.6241730">
        <ele>171.774</ele>
        <time>2019-05-05T08:35:39.630Z</time>
      </trkpt>
      <trkpt lat="48.4093368" lon="15.6240562">
        <ele>173.341</ele>
        <time>2019-05-05T08:35:42.357Z</time>
      </trkpt>
      <trkpt lat="48.4092785" lon="15.6239119">
        <ele>178.664</ele>
        <time>2019-05-05T08:35:45.073Z</time>
      </trkpt>
      <trkpt lat="48.4091990" lon="15.6238370">
        <ele>188.257</ele>
        <time>2019-05-05T08:35:47.380Z</time>
      </trkpt>
      <trkpt lat="48.4091167" lon="15.6237031">
        <ele>197.186</ele>
        <time>2019-05-05T08:35:50.394Z</time>
      </trkpt>
      <trkpt lat="48.4090513" lon="15.6235851">
        <ele>201.223</ele>
        <time>2019-05-05T08:35:52.848Z</time>
      </trkpt>
      <trkpt lat="48.4089720" lon="15.6234724">
        <ele>201.677</ele>
        <time>2019-05-05T08:35:55.396Z</time>
      </trkpt>
      <trkpt lat="48.4088982" lon="15.6233390">
        <ele>200.822</ele>
        <time>2019-05-05T08:35:58.217Z</time>
      </trkpt>
      <trkpt lat="48.4087877" lon="15.6232199">
        <ele>200.026</ele>
        <time>2019-05-05T08:36:01.710Z</time>
      </trkpt>
      <trkpt lat="48.4086946" lon="15.6231389">
        <ele>199.646</ele>
        <time>2019-05-05T08:36:04.310Z</time>
      </trkpt>
      <trkpt lat="48.4086092" lon="15.6230641">
        <ele>199.517</ele>
        <time>2019-05-05T08:36:06.539Z</time>
      </trkpt>
      <trkpt lat="48.4084985" lon="15.6229766">
        <ele>199.415</ele>
        <time>2019-05-05T08:36:09.364Z</time>
      </trkpt>
      <trkpt lat="48.4084042" lon="15.6229282">
        <ele>199.207</ele>
        <time>2019-05-05T08:36:11.738Z</time>
      </trkpt>
      <trkpt lat="48.4082913" lon="15.6229035">
        <ele>198.875</ele>
        <time>2019-05-05T08:36:14.490Z</time>
      </trkpt>
      <trkpt lat="48.4081535" lon="15.6228752">
        <ele>198.479</ele>
        <time>2019-05-05T08:36:17.785Z</time>
      </trkpt>
      <trkpt lat="48.4080581" lon="15.6228580">
        <ele>198.105</ele>
        <time>2019-05-05T08:36:20.209Z</time>
      </trkpt>
      <trkpt lat="48.4079641" lon="15.6228499">
        <ele>197.828</ele>
        <time>2019-05-05T08:36:22.672Z</time>
      </trkpt>
      <trkpt lat="48.4078686" lon="15.6228467">
        <ele>197.654</ele>
        <time>2019-05-05T08:36:25.038Z</time>
      </trkpt>
      <trkpt lat="48.4077628" lon="15.6228913">
        <ele>197.547</ele>
        <time>2019-05-05T08:36:27.942Z</time>
      </trkpt>
      <trkpt lat="48.4076826" lon="15.6230101">
        <ele>197.525</ele>
        <time>2019-05-05T08:36:31.431Z</time>
      </trkpt>
      <trkpt lat="48.4076506" lon="15.6231610">
        <ele>197.628</ele>
        <time>2019-05-05T08:36:34.944Z</time>
      </trkpt>
      <trkpt lat="48.4077132" lon="15.6233496">
        <ele>197.923</ele>
        <time>2019-05-05T08:36:39.823Z</time>
      </trkpt>
      <trkpt lat="48.4077970" lon="15.6234749">
        <ele>198.339</ele>
        <time>2019-05-05T08:36:43.855Z</time>
      </trkpt>
      <trkpt lat="48.4079172" lon="15.6234957">
        <ele>198.643</ele>
        <time>2019-05-05T08:36:47.213Z</time>
      </trkpt>
      <trkpt lat="48.4080044" lon="15.6234599">
        <ele>198.716</ele>
        <time>2019-05-05T08:36:49.364Z</time>
      </trkpt>
      <trkpt lat="48.4080960" lon="15.6234424">
        <ele>198.659</ele>
        <time>2019-05-05T08:36:51.572Z</time>
      </trkpt>
      <trkpt lat="48.4081983" lon="15.6234449">
        <ele>198.588</ele>
        <time>2019-05-05T08:36:54.178Z</time>
      </trkpt>
      <trkpt lat="48.4083128" lon="15.6234900">
        <ele>198.570</ele>
        <time>2019-05-05T08:36:57.422Z</time>
      </trkpt>
      <trkpt lat="48.4084177" lon="15.6235676">
        <ele>198.672</ele>
        <time>2019-05-05T08:37:00.708Z</time>
      </trkpt>
      <trkpt lat="48.4084840" lon="15.6236609">
        <ele>198.954</ele>
        <time>2019-05-05T08:37:03.088Z</time>
      </trkpt>
      <trkpt lat="48.4085578" lon="15.6237926">
        <ele>199.385</ele>
        <time>2019-05-05T08:37:05.967Z</time>
      </trkpt>
      <trkpt lat="48.4086108" lon="15.6239647">
        <ele>199.932</ele>
        <time>2019-05-05T08:37:09.405Z</time>
      </trkpt>
      <trkpt lat="48.4086277" lon="15.6241092">
        <ele>200.648</ele>
        <time>2019-05-05T08:37:12.278Z</time>
      </trkpt>
      <trkpt lat="48.4086095" lon="15.6242530">
        <ele>201.543</ele>
        <time>2019-05-05T08:37:15.017Z</time>
      </trkpt>
      <trkpt lat="48.4085528" lon="15.6243970">
        <ele>202.475</ele>
        <time>2019-05-05T08:37:18.100Z</time>
      </trkpt>
      <trkpt lat="48.4084801" lon="15.6245250">
        <ele>203.201</ele>
        <time>2019-05-05T08:37:21.211Z</time>
      </trkpt>
      <trkpt lat="48.4084164" lon="15.6246309">
        <ele>203.568</ele>
        <time>2019-05-05T08:37:23.895Z</time>
      </trkpt>
      <trkpt lat="48.4083257" lon="15.6247185">
        <ele>203.651</ele>
        <time>2019-05-05T08:37:27.044Z</time>
      </trkpt>
      <trkpt lat="48.4082355" lon="15.6247745">
        <ele>203.701</ele>
        <time>2019-05-05T08:37:29.863Z</time>
      </trkpt>
      <trkpt lat="48.4081434" lon="15.6248199">
        <ele>203.934</ele>
        <time>2019-05-05T08:37:32.556Z</time>
      </trkpt>
      <trkpt lat="48.4080194" lon="15.6248292">
        <ele>204.298</ele>
        <time>2019-05-05T08:37:35.655Z</time>
      </trkpt>
      <trkpt lat="48.4078930" lon="15.6248365">
        <ele>204.574</ele>
        <time>2019-05-05T08:37:38.682Z</time>
      </trkpt>
      <trkpt lat="48.4077854" lon="15.6248172">
        <ele>204.662</ele>
        <time>2019-05-05T08:37:41.250Z</time>
      </trkpt>
      <trkpt lat="48.4076801" lon="15.6247956">
        <ele>204.579</ele>
        <time>2019-05-05T08:37:43.756Z</time>
      </trkpt>
      <trkpt lat="48.4075902" lon="15.6247928">
        <ele>204.355</ele>
        <time>2019-05-05T08:37:45.994Z</time>
      </trkpt>
      <trkpt lat="48.4074854" lon="15.6248150">
        <ele>204.066</ele>
        <time>2019-05-05T08:37:49.252Z</time>
      </trkpt>
      <trkpt lat="48.4073823" lon="15.6248310">
        <ele>203.360</ele>
        <time>2019-05-05T08:37:52.975Z</time>
      </trkpt>
      <trkpt lat="48.4072826" lon="15.6248297">
        <ele>200.816</ele>
        <time>2019-05-05T08:37:56.798Z</time>
      </trkpt>
      <trkpt lat="48.4071853" lon="15.6248200">
        <ele>195.352</ele>
        <time>2019-05-05T08:38:00.856Z</time>
      </trkpt>
      <trkpt lat="48.4070949" lon="15.6248338">
        <ele>188.824</ele>
        <time>2019-05-05T08:38:04.728Z</time>
      </trkpt>
      <trkpt lat="48.4070038" lon="15.6248362">
        <ele>184.805</ele>
        <time>2019-05-05T08:38:08.537Z</time>
      </trkpt>
      <trkpt lat="48.4068907" lon="15.6248365">
        <ele>184.345</ele>
        <time>2019-05-05T08:38:13.236Z</time>
      </trkpt>
      <trkpt lat="48.4067816" lon="15.6248326">
        <ele>185.287</ele>
        <time>2019-05-05T08:38:17.679Z</time>
      </trkpt>
      <trkpt lat="48.4066724" lon="15.6248675">
        <ele>185.544</ele>
        <time>2019-05-05T08:38:21.949Z</time>
      </trkpt>
      <trkpt lat="48.4065709" lon="15.6248640">
        <ele>184.426</ele>
        <time>2019-05-05T08:38:25.462Z</time>
      </trkpt>
      <trkpt lat="48.4064570" lon="15.6248716">
        <ele>181.979</ele>
        <time>2019-05-05T08:38:29.180Z</time>
      </trkpt>
      <trkpt lat="48.4063412" lon="15.6249357">
        <ele>178.522</ele>
        <time>2019-05-05T08:38:33.283Z</time>
      </trkpt>
      <trkpt lat="48.4062279" lon="15.6249229">
        <ele>174.484</ele>
        <time>2019-05-05T08:38:37.182Z</time>
      </trkpt>
      <trkpt lat="48.4061184" lon="15.6248706">
        <ele>170.579</ele>
        <time>2019-05-05T08:38:41.108Z</time>
      </trkpt>
      <trkpt lat="48.4060175" lon="15.6248707">
        <ele>167.684</ele>
        <time>2019-05-05T08:38:44.574Z</time>
      </trkpt>
      <trkpt lat="48.4059199" lon="15.6249039">
        <ele>166.071</ele>
        <time>2019-05-05T08:38:48.001Z</time>
      </trkpt>
      <trkpt lat="48.4059199" lon="15.6249039">
        <ele>165.457</ele>
        <time>2019-05-05T08:38:48.001Z</time>
      </trkpt>
      <trkpt lat="48.4059199" lon="15.6249039">
        <ele>165.344</ele>
        <time>2019-05-05T08:38:48.101Z</time>
      </trkpt>
      <trkpt lat="48.4057358" lon="15.6248930">
        <ele>165.328</ele>
        <time>2019-05-05T08:38:59.596Z</time>
      </trkpt>
      <trkpt lat="48.4056417" lon="15.6248525">
        <ele>164.554</ele>
        <time>2019-05-05T08:39:03.635Z</time>
      </trkpt>
      <trkpt lat="48.4055328" lon="15.6248397">
        <ele>162.614</ele>
        <time>2019-05-05T08:39:07.858Z</time>
      </trkpt>
      <trkpt lat="48.4054244" lon="15.6248265">
        <ele>160.951</ele>
        <time>2019-05-05T08:39:11.812Z</time>
      </trkpt>
      <trkpt lat="48.4053287" lon="15.6248369">
        <ele>161.247</ele>
        <time>2019-05-05T08:39:15.501Z</time>
      </trkpt>
      <trkpt lat="48.4052359" lon="15.6248702">
        <ele>163.111</ele>
        <time>2019-05-05T08:39:19.571Z</time>
      </trkpt>
      <trkpt lat="48.4051223" lon="15.6248532">
        <ele>165.080</ele>
        <time>2019-05-05T08:39:24.721Z</time>
      </trkpt>
      <trkpt lat="48.4050058" lon="15.6248471">
        <ele>166.250</ele>
        <time>2019-05-05T08:39:29.459Z</time>
      </trkpt>
      <trkpt lat="48.4049101" lon="15.6248295">
        <ele>167.622</ele>
        <time>2019-05-05T08:39:32.626Z</time>
      </trkpt>
      <trkpt lat="48.4048025" lon="15.6248380">
        <ele>170.272</ele>
        <time>2019-05-05T08:39:36.001Z</time>
      </trkpt>
      <trkpt lat="48.4046974" lon="15.6247989">
        <ele>173.322</ele>
        <time>2019-05-05T08:39:39.362Z</time>
      </trkpt>
      <trkpt lat="48.4046118" lon="15.6247495">
        <ele>175.774</ele>
        <time>2019-05-05T08:39:42.142Z</time>
      </trkpt>
      <trkpt lat="48.4045029" lon="15.6247501">
        <ele>177.940</ele>
        <time>2019-05-05T08:39:45.440Z</time>
      </trkpt>
      <trkpt lat="48.4044075" lon="15.6247699">
        <ele>179.994</ele>
        <time>2019-05-05T08:39:48.512Z</time>
      </trkpt>
      <trkpt lat="48.4043108" lon="15.6247859">
        <ele>181.679</ele>
        <time>2019-05-05T08:39:51.815Z</time>
      </trkpt>
      <trkpt lat="48.4042001" lon="15.6247817">
        <ele>182.781</ele>
        <time>2019-05-05T08:39:55.755Z</time>
      </trkpt>
      <trkpt lat="48.4040948" lon="15.6247646">
        <ele>183.364</ele>
        <time>2019-05-05T08:39:59.236Z</time>
      </trkpt>
      <trkpt lat="48.4040007" lon="15.6247437">
        <ele>183.554</ele>
        <time>2019-05-05T08:40:02.190Z</time>
      </trkpt>
      <trkpt lat="48.4038894" lon="15.6247452">
        <ele>183.269</ele>
        <time>2019-05-05T08:40:05.450Z</time>
      </trkpt>
      <trkpt lat="48.4037943" lon="15.6247330">
        <ele>182.164</ele>
        <time>2019-05-05T08:40:08.132Z</time>
      </trkpt>
      <trkpt lat="48.4036804" lon="15.6247113">
        <ele>180.150</ele>
        <time>2019-05-05T08:40:11.273Z</time>
      </trkpt>
      <trkpt lat="48.4035599" lon="15.6247288">
        <ele>177.795</ele>
        <time>2019-05-05T08:40:14.472Z</time>
      </trkpt>
      <trkpt lat="48.4034605" lon="15.6247252">
        <ele>175.850</ele>
        <time>2019-05-05T08:40:17.023Z</time>
      </trkpt>
      <trkpt lat="48.4033484" lon="15.6247258">
        <ele>174.625</ele>
        <time>2019-05-05T08:40:19.883Z</time>
      </trkpt>
      <trkpt lat="48.4032441" lon="15.6247451">
        <ele>173.994</ele>
        <time>2019-05-05T08:40:22.580Z</time>
      </trkpt>
      <trkpt lat="48.4031349" lon="15.6247387">
        <ele>173.630</ele>
        <time>2019-05-05T08:40:25.406Z</time>
      </trkpt>
      <trkpt lat="48.4030231" lon="15.6247343">
        <ele>173.059</ele>
        <time>2019-05-05T08:40:28.298Z</time>
      </trkpt>
      <trkpt lat="48.4029199" lon="15.6247026">
        <ele>171.960</ele>
        <time>2019-05-05T08:40:31.029Z</time>
      </trkpt>
      <trkpt lat="48.4028041" lon="15.6246852">
        <ele>170.583</ele>
        <time>2019-05-05T08:40:34.001Z</time>
      </trkpt>
      <trkpt lat="48.4028041" lon="15.6246852">
        <ele>169.443</ele>
        <time>2019-05-05T08:40:35.001Z</time>
      </trkpt>
      <trkpt lat="48.4028041" lon="15.6246852">
        <ele>168.886</ele>
        <time>2019-05-05T08:40:35.101Z</time>
      </trkpt>
      <trkpt lat="48.4026374" lon="15.6246001">
        <ele>169.033</ele>
        <time>2019-05-05T08:40:42.679Z</time>
      </trkpt>
      <trkpt lat="48.4025406" lon="15.6245704">
        <ele>169.481</ele>
        <time>2019-05-05T08:40:45.704Z</time>
      </trkpt>
      <trkpt lat="48.4024064" lon="15.6246243">
        <ele>169.325</ele>
        <time>2019-05-05T08:40:49.842Z</time>
      </trkpt>
      <trkpt lat="48.4023067" lon="15.6246475">
        <ele>167.790</ele>
        <time>2019-05-05T08:40:52.276Z</time>
      </trkpt>
      <trkpt lat="48.4022155" lon="15.6246598">
        <ele>165.202</ele>
        <time>2019-05-05T08:40:54.216Z</time>
      </trkpt>
      <trkpt lat="48.4021206" lon="15.6246732">
        <ele>162.835</ele>
        <time>2019-05-05T08:40:56.080Z</time>
      </trkpt>
      <trkpt lat="48.4020254" lon="15.6246941">
        <ele>161.518</ele>
        <time>2019-05-05T08:40:57.874Z</time>
      </trkpt>
      <trkpt lat="48.4019109" lon="15.6246687">
        <ele>161.048</ele>
        <time>2019-05-05T08:41:00.001Z</time>
      </trkpt>
      <trkpt lat="48.4019109" lon="15.6246687">
        <ele>161.002</ele>
        <time>2019-05-05T08:41:01.001Z</time>
      </trkpt>
      <trkpt lat="48.4019109" lon="15.6246687">
        <ele>161.053</ele>
        <time>2019-05-05T08:41:01.101Z</time>
      </trkpt>
      <trkpt lat="48.4017279" lon="15.6246233">
        <ele>161.014</ele>
        <time>2019-05-05T08:41:06.286Z</time>
      </trkpt>
      <trkpt lat="48.4016200" lon="15.6246013">
        <ele>162.135</ele>
        <time>2019-05-05T08:41:08.095Z</time>
      </trkpt>
      <trkpt lat="48.4015057" lon="15.6246008">
        <ele>165.422</ele>
        <time>2019-05-05T08:41:09.980Z</time>
      </trkpt>
      <trkpt lat="48.4014143" lon="15.6246159">
        <ele>169.138</ele>
        <time>2019-05-05T08:41:11.507Z</time>
      </trkpt>
      <trkpt lat="48.4013240" lon="15.6246190">
        <ele>171.093</ele>
        <time>2019-05-05T08:41:13.001Z</time>
      </trkpt>
      <trkpt lat="48.4013240" lon="15.6246190">
        <ele>171.335</ele>
        <time>2019-05-05T08:41:13.001Z</time>
      </trkpt>
      <trkpt lat="48.4013240" lon="15.6246190">
        <ele>170.946</ele>
        <time>2019-05-05T08:41:13.101Z</time>
      </trkpt>
      <trkpt lat="48.4011544" lon="15.6246484">
        <ele>170.730</ele>
        <time>2019-05-05T08:41:19.285Z</time>
      </trkpt>
      <trkpt lat="48.4010627" lon="15.6246375">
        <ele>169.966</ele>
        <time>2019-05-05T08:41:22.001Z</time>
      </trkpt>
      <trkpt lat="48.4010627" lon="15.6246375">
        <ele>167.986</ele>
        <time>2019-05-05T08:41:25.001Z</time>
      </trkpt>
      <trkpt lat="48.4010627" lon="15.6246375">
        <ele>166.286</ele>
        <time>2019-05-05T08:42:08.162Z</time>
      </trkpt>
      <trkpt lat="48.4009676" lon="15.6246969">
        <ele>166.516</ele>
        <time>2019-05-05T08:42:14.892Z</time>
      </trkpt>
      <trkpt lat="48.4008392" lon="15.6246282">
        <ele>168.160</ele>
        <time>2019-05-05T08:42:18.734Z</time>
      </trkpt>
      <trkpt lat="48.4007352" lon="15.6246005">
        <ele>169.824</ele>
        <time>2019-05-05T08:42:20.924Z</time>
      </trkpt>
      <trkpt lat="48.4006341" lon="15.6245811">
        <ele>170.414</ele>
        <time>2019-05-05T08:42:22.712Z</time>
      </trkpt>
      <trkpt lat="48.4005268" lon="15.6245568">
        <ele>169.585</ele>
        <time>2019-05-05T08:42:24.420Z</time>
      </trkpt>
      <trkpt lat="48.4003801" lon="15.6245453">
        <ele>167.899</ele>
        <time>2019-05-05T08:42:26.521Z</time>
      </trkpt>
      <trkpt lat="48.4002541" lon="15.6245560">
        <ele>166.328</ele>
        <time>2019-05-05T08:42:28.187Z</time>
      </trkpt>
      <trkpt lat="48.4001267" lon="15.6245517">
        <ele>165.522</ele>
        <time>2019-05-05T08:42:29.795Z</time>
      </trkpt>
      <trkpt lat="48.3999894" lon="15.6245693">
        <ele>165.689</ele>
        <time>2019-05-05T08:42:31.479Z</time>
      </trkpt>
      <trkpt lat="48.3998628" lon="15.6245591">
        <ele>166.947</ele>
        <time>2019-05-05T08:42:33.000Z</time>
      </trkpt>
      <trkpt lat="48.3998628" lon="15.6245591">
        <ele>168.888</ele>
        <time>2019-05-05T08:42:34.000Z</time>
      </trkpt>
      <trkpt lat="48.3998628" lon="15.6245591">
        <ele>170.153</ele>
        <time>2019-05-05T08:42:34.100Z</time>
      </trkpt>
      <trkpt lat="48.3995967" lon="15.6244989">
        <ele>170.022</ele>
        <time>2019-05-05T08:42:41.398Z</time>
      </trkpt>
      <trkpt lat="48.3994986" lon="15.6244724">
        <ele>171.280</ele>
        <time>2019-05-05T08:42:43.418Z</time>
      </trkpt>
      <trkpt lat="48.3994063" lon="15.6244524">
        <ele>176.372</ele>
        <time>2019-05-05T08:42:45.362Z</time>
      </trkpt>
      <trkpt lat="48.3993096" lon="15.6244210">
        <ele>182.870</ele>
        <time>2019-05-05T08:42:47.460Z</time>
      </trkpt>
      <trkpt lat="48.3992146" lon="15.6243791">
        <ele>187.416</ele>
        <time>2019-05-05T08:42:49.584Z</time>
      </trkpt>
      <trkpt lat="48.3991208" lon="15.6243362">
        <ele>189.870</ele>
        <time>2019-05-05T08:42:51.709Z</time>
      </trkpt>
      <trkpt lat="48.3990037" lon="15.6242718">
        <ele>191.446</ele>
        <time>2019-05-05T08:42:54.469Z</time>
      </trkpt>
      <trkpt lat="48.3988942" lon="15.6241732">
        <ele>193.222</ele>
        <time>2019-05-05T08:42:57.296Z</time>
      </trkpt>
      <trkpt lat="48.3987778" lon="15.6240723">
        <ele>195.318</ele>
        <time>2019-05-05T08:43:00.263Z</time>
      </trkpt>
      <trkpt lat="48.3986979" lon="15.6239717">
        <ele>197.219</ele>
        <time>2019-05-05T08:43:02.596Z</time>
      </trkpt>
      <trkpt lat="48.3986029" lon="15.6238487">
        <ele>198.607</ele>
        <time>2019-05-05T08:43:05.345Z</time>
      </trkpt>
      <trkpt lat="48.3985354" lon="15.6237417">
        <ele>200.259</ele>
        <time>2019-05-05T08:43:07.466Z</time>
      </trkpt>
      <trkpt lat="48.3984826" lon="15.6236123">
        <ele>202.682</ele>
        <time>2019-05-05T08:43:09.618Z</time>
      </trkpt>
      <trkpt lat="48.3984395" lon="15.6234732">
        <ele>204.613</ele>
        <time>2019-05-05T08:43:11.641Z</time>
      </trkpt>
      <trkpt lat="48.3984048" lon="15.6233250">
        <ele>204.836</ele>
        <time>2019-05-05T08:43:13.565Z</time>
      </trkpt>
      <trkpt lat="48.3983679" lon="15.6231563">
        <ele>203.826</ele>
        <time>2019-05-05T08:43:15.650Z</time>
      </trkpt>
      <trkpt lat="48.3983413" lon="15.6230068">
        <ele>202.523</ele>
        <time>2019-05-05T08:43:17.419Z</time>
      </trkpt>
      <trkpt lat="48.3983139" lon="15.6228424">
        <ele>201.491</ele>
        <time>2019-05-05T08:43:19.337Z</time>
      </trkpt>
      <trkpt lat="48.3983005" lon="15.6227014">
        <ele>200.863</ele>
        <time>2019-05-05T08:43:20.919Z</time>
      </trkpt>
      <trkpt lat="48.3982798" lon="15.6225450">
        <ele>200.490</ele>
        <time>2019-05-05T08:43:22.625Z</time>
      </trkpt>
      <trkpt lat="48.3982551" lon="15.6223725">
        <ele>199.900</ele>
        <time>2019-05-05T08:43:24.387Z</time>
      </trkpt>
      <trkpt lat="48.3982156" lon="15.6221402">
        <ele>198.902</ele>
        <time>2019-05-05T08:43:26.596Z</time>
      </trkpt>
      <trkpt lat="48.3981903" lon="15.6218866">
        <ele>198.125</ele>
        <time>2019-05-05T08:43:28.930Z</time>
      </trkpt>
      <trkpt lat="48.3981511" lon="15.6216377">
        <ele>198.052</ele>
        <time>2019-05-05T08:43:31.387Z</time>
      </trkpt>
      <trkpt lat="48.3981382" lon="15.6214625">
        <ele>198.334</ele>
        <time>2019-05-05T08:43:33.225Z</time>
      </trkpt>
      <trkpt lat="48.3981298" lon="15.6212652">
        <ele>198.550</ele>
        <time>2019-05-05T08:43:35.455Z</time>
      </trkpt>
      <trkpt lat="48.3981211" lon="15.6211098">
        <ele>198.629</ele>
        <time>2019-05-05T08:43:37.369Z</time>
      </trkpt>
      <trkpt lat="48.3981117" lon="15.6209433">
        <ele>198.644</ele>
        <time>2019-05-05T08:43:39.570Z</time>
      </trkpt>
      <trkpt lat="48.3981025" lon="15.6207576">
        <ele>198.653</ele>
        <time>2019-05-05T08:43:42.349Z</time>
      </trkpt>
      <trkpt lat="48.3980962" lon="15.6205879">
        <ele>198.675</ele>
        <time>2019-05-05T08:43:45.224Z</time>
      </trkpt>
      <trkpt lat="48.3981120" lon="15.6203830">
        <ele>198.710</ele>
        <time>2019-05-05T08:43:48.731Z</time>
      </trkpt>
      <trkpt lat="48.3981022" lon="15.6202482">
        <ele>198.743</ele>
        <time>2019-05-05T08:43:51.025Z</time>
      </trkpt>
      <trkpt lat="48.3981109" lon="15.6200803">
        <ele>198.764</ele>
        <time>2019-05-05T08:43:53.881Z</time>
      </trkpt>
      <trkpt lat="48.3981179" lon="15.6199164">
        <ele>198.769</ele>
        <time>2019-05-05T08:43:56.658Z</time>
      </trkpt>
      <trkpt lat="48.3981220" lon="15.6197104">
        <ele>198.762</ele>
        <time>2019-05-05T08:43:59.622Z</time>
      </trkpt>
      <trkpt lat="48.3981277" lon="15.6195371">
        <ele>198.747</ele>
        <time>2019-05-05T08:44:01.912Z</time>
      </trkpt>
      <trkpt lat="48.3981366" lon="15.6193719">
        <ele>198.728</ele>
        <time>2019-05-05T08:44:04.124Z</time>
      </trkpt>
      <trkpt lat="48.3981521" lon="15.6191772">
        <ele>198.709</ele>
        <time>2019-05-05T08:44:06.926Z</time>
      </trkpt>
      <trkpt lat="48.3981589" lon="15.6190340">
        <ele>198.689</ele>
        <time>2019-05-05T08:44:09.083Z</time>
      </trkpt>
      <trkpt lat="48.3981954" lon="15.6188835">
        <ele>198.659</ele>
        <time>2019-05-05T08:44:11.495Z</time>
      </trkpt>
      <trkpt lat="48.3982300" lon="15.6187273">
        <ele>198.609</ele>
        <time>2019-05-05T08:44:13.945Z</time>
      </trkpt>
      <trkpt lat="48.3982195" lon="15.6185854">
        <ele>198.526</ele>
        <time>2019-05-05T08:44:16.137Z</time>
      </trkpt>
      <trkpt lat="48.3982028" lon="15.6183908">
        <ele>198.428</ele>
        <time>2019-05-05T08:44:19.362Z</time>
      </trkpt>
      <trkpt lat="48.3982070" lon="15.6182514">
        <ele>198.353</ele>
        <time>2019-05-05T08:44:21.772Z</time>
      </trkpt>
      <trkpt lat="48.3982244" lon="15.6180676">
        <ele>198.321</ele>
        <time>2019-05-05T08:44:24.981Z</time>
      </trkpt>
      <trkpt lat="48.3982229" lon="15.6179003">
        <ele>198.316</ele>
        <time>2019-05-05T08:44:27.856Z</time>
      </trkpt>
      <trkpt lat="48.3982523" lon="15.6177233">
        <ele>198.311</ele>
        <time>2019-05-05T08:44:30.964Z</time>
      </trkpt>
      <trkpt lat="48.3982856" lon="15.6175960">
        <ele>198.296</ele>
        <time>2019-05-05T08:44:33.265Z</time>
      </trkpt>
      <trkpt lat="48.3983106" lon="15.6174358">
        <ele>198.258</ele>
        <time>2019-05-05T08:44:35.848Z</time>
      </trkpt>
      <trkpt lat="48.3983299" lon="15.6172287">
        <ele>198.168</ele>
        <time>2019-05-05T08:44:38.854Z</time>
      </trkpt>
      <trkpt lat="48.3983292" lon="15.6170913">
        <ele>198.028</ele>
        <time>2019-05-05T08:44:40.898Z</time>
      </trkpt>
      <trkpt lat="48.3983059" lon="15.6169548">
        <ele>197.899</ele>
        <time>2019-05-05T08:44:43.085Z</time>
      </trkpt>
      <trkpt lat="48.3983093" lon="15.6167604">
        <ele>197.827</ele>
        <time>2019-05-05T08:44:45.998Z</time>
      </trkpt>
      <trkpt lat="48.3983204" lon="15.6166072">
        <ele>197.805</ele>
        <time>2019-05-05T08:44:48.162Z</time>
      </trkpt>
      <trkpt lat="48.3983344" lon="15.6164563">
        <ele>197.809</ele>
        <time>2019-05-05T08:44:50.245Z</time>
      </trkpt>
      <trkpt lat="48.3983576" lon="15.6162984">
        <ele>197.818</ele>
        <time>2019-05-05T08:44:52.401Z</time>
      </trkpt>
      <trkpt lat="48.3983577" lon="15.6161055">
        <ele>197.821</ele>
        <time>2019-05-05T08:44:54.741Z</time>
      </trkpt>
      <trkpt lat="48.3983341" lon="15.6159077">
        <ele>197.810</ele>
        <time>2019-05-05T08:44:57.109Z</time>
      </trkpt>
      <trkpt lat="48.3983451" lon="15.6157563">
        <ele>197.785</ele>
        <time>2019-05-05T08:44:58.912Z</time>
      </trkpt>
      <trkpt lat="48.3983357" lon="15.6156123">
        <ele>197.768</ele>
        <time>2019-05-05T08:45:00.591Z</time>
      </trkpt>
      <trkpt lat="48.3983495" lon="15.6154620">
        <ele>197.814</ele>
        <time>2019-05-05T08:45:02.307Z</time>
      </trkpt>
      <trkpt lat="48.3983334" lon="15.6152974">
        <ele>197.997</ele>
        <time>2019-05-05T08:45:04.164Z</time>
      </trkpt>
      <trkpt lat="48.3983402" lon="15.6151541">
        <ele>198.311</ele>
        <time>2019-05-05T08:45:05.764Z</time>
      </trkpt>
      <trkpt lat="48.3983698" lon="15.6149939">
        <ele>198.632</ele>
        <time>2019-05-05T08:45:07.601Z</time>
      </trkpt>
      <trkpt lat="48.3983898" lon="15.6148112">
        <ele>198.845</ele>
        <time>2019-05-05T08:45:09.620Z</time>
      </trkpt>
      <trkpt lat="48.3984003" lon="15.6146274">
        <ele>198.923</ele>
        <time>2019-05-05T08:45:11.669Z</time>
      </trkpt>
      <trkpt lat="48.3984181" lon="15.6144779">
        <ele>198.899</ele>
        <time>2019-05-05T08:45:13.437Z</time>
      </trkpt>
      <trkpt lat="48.3983979" lon="15.6143295">
        <ele>198.825</ele>
        <time>2019-05-05T08:45:15.251Z</time>
      </trkpt>
      <trkpt lat="48.3983956" lon="15.6141861">
        <ele>198.749</ele>
        <time>2019-05-05T08:45:16.993Z</time>
      </trkpt>
      <trkpt lat="48.3983736" lon="15.6140171">
        <ele>198.701</ele>
        <time>2019-05-05T08:45:19.100Z</time>
      </trkpt>
      <trkpt lat="48.3983763" lon="15.6138618">
        <ele>198.688</ele>
        <time>2019-05-05T08:45:21.020Z</time>
      </trkpt>
      <trkpt lat="48.3984083" lon="15.6137273">
        <ele>198.706</ele>
        <time>2019-05-05T08:45:22.808Z</time>
      </trkpt>
      <trkpt lat="48.3984282" lon="15.6135692">
        <ele>198.739</ele>
        <time>2019-05-05T08:45:24.827Z</time>
      </trkpt>
      <trkpt lat="48.3984567" lon="15.6134270">
        <ele>198.755</ele>
        <time>2019-05-05T08:45:26.696Z</time>
      </trkpt>
      <trkpt lat="48.3984518" lon="15.6132867">
        <ele>198.727</ele>
        <time>2019-05-05T08:45:28.511Z</time>
      </trkpt>
      <trkpt lat="48.3984744" lon="15.6130784">
        <ele>198.668</ele>
        <time>2019-05-05T08:45:31.449Z</time>
      </trkpt>
      <trkpt lat="48.3984623" lon="15.6129306">
        <ele>198.625</ele>
        <time>2019-05-05T08:45:34.001Z</time>
      </trkpt>
      <trkpt lat="48.3984623" lon="15.6129306">
        <ele>198.620</ele>
        <time>2019-05-05T08:45:38.001Z</time>
      </trkpt>
      <trkpt lat="48.3984623" lon="15.6129306">
        <ele>198.599</ele>
        <time>2019-05-05T08:45:47.469Z</time>
      </trkpt>
      <trkpt lat="48.3983661" lon="15.6126790">
        <ele>198.520</ele>
        <time>2019-05-05T08:45:55.349Z</time>
      </trkpt>
      <trkpt lat="48.3984750" lon="15.6126830">
        <ele>198.459</ele>
        <time>2019-05-05T08:45:58.478Z</time>
      </trkpt>
      <trkpt lat="48.3985953" lon="15.6127592">
        <ele>198.487</ele>
        <time>2019-05-05T08:46:02.498Z</time>
      </trkpt>
      <trkpt lat="48.3986955" lon="15.6127957">
        <ele>198.307</ele>
        <time>2019-05-05T08:46:06.302Z</time>
      </trkpt>
      <trkpt lat="48.3987954" lon="15.6127943">
        <ele>197.710</ele>
        <time>2019-05-05T08:46:11.001Z</time>
      </trkpt>
      <trkpt lat="48.3987954" lon="15.6127943">
        <ele>197.158</ele>
        <time>2019-05-05T08:46:26.001Z</time>
      </trkpt>
      <trkpt lat="48.3987954" lon="15.6127943">
        <ele>197.082</ele>
        <time>2019-05-05T08:46:28.456Z</time>
      </trkpt>
      <trkpt lat="48.3986680" lon="15.6126033">
        <ele>197.274</ele>
        <time>2019-05-05T08:46:37.131Z</time>
      </trkpt>
      <trkpt lat="48.3985829" lon="15.6125133">
        <ele>197.505</ele>
        <time>2019-05-05T08:46:40.001Z</time>
      </trkpt>
      <trkpt lat="48.3985829" lon="15.6125133">
        <ele>197.747</ele>
        <time>2019-05-05T08:46:47.000Z</time>
      </trkpt>
      <trkpt lat="48.3985829" lon="15.6125133">
        <ele>197.868</ele>
        <time>2019-05-05T08:46:47.100Z</time>
      </trkpt>
      <trkpt lat="48.3986696" lon="15.6126564">
        <ele>197.614</ele>
        <time>2019-05-05T08:46:56.399Z</time>
      </trkpt>
      <trkpt lat="48.3987547" lon="15.6127528">
        <ele>197.517</ele>
        <time>2019-05-05T08:47:01.014Z</time>
      </trkpt>
      <trkpt lat="48.3988811" lon="15.6128039">
        <ele>197.582</ele>
        <time>2019-05-05T08:47:05.630Z</time>
      </trkpt>
      <trkpt lat="48.3990030" lon="15.6128462">
        <ele>197.826</ele>
        <time>2019-05-05T08:47:09.366Z</time>
      </trkpt>
      <trkpt lat="48.3991083" lon="15.6128939">
        <ele>197.998</ele>
        <time>2019-05-05T08:47:12.277Z</time>
      </trkpt>
      <trkpt lat="48.3991976" lon="15.6129362">
        <ele>197.836</ele>
        <time>2019-05-05T08:47:14.606Z</time>
      </trkpt>
      <trkpt lat="48.3992699" lon="15.6130170">
        <ele>197.434</ele>
        <time>2019-05-05T08:47:16.755Z</time>
      </trkpt>
      <trkpt lat="48.3993619" lon="15.6131164">
        <ele>197.071</ele>
        <time>2019-05-05T08:47:19.371Z</time>
      </trkpt>
      <trkpt lat="48.3994362" lon="15.6131979">
        <ele>196.928</ele>
        <time>2019-05-05T08:47:21.435Z</time>
      </trkpt>
      <trkpt lat="48.3995220" lon="15.6132603">
        <ele>197.002</ele>
        <time>2019-05-05T08:47:23.521Z</time>
      </trkpt>
      <trkpt lat="48.3996166" lon="15.6133044">
        <ele>197.150</ele>
        <time>2019-05-05T08:47:25.652Z</time>
      </trkpt>
      <trkpt lat="48.3997007" lon="15.6133927">
        <ele>197.241</ele>
        <time>2019-05-05T08:47:27.852Z</time>
      </trkpt>
      <trkpt lat="48.3997953" lon="15.6134752">
        <ele>197.255</ele>
        <time>2019-05-05T08:47:30.154Z</time>
      </trkpt>
      <trkpt lat="48.3998825" lon="15.6135803">
        <ele>197.236</ele>
        <time>2019-05-05T08:47:32.357Z</time>
      </trkpt>
      <trkpt lat="48.3999903" lon="15.6137030">
        <ele>197.241</ele>
        <time>2019-05-05T08:47:34.853Z</time>
      </trkpt>
      <trkpt lat="48.4001278" lon="15.6137569">
        <ele>197.296</ele>
        <time>2019-05-05T08:47:37.406Z</time>
      </trkpt>
      <trkpt lat="48.4002742" lon="15.6138230">
        <ele>197.374</ele>
        <time>2019-05-05T08:47:40.185Z</time>
      </trkpt>
      <trkpt lat="48.4003933" lon="15.6139161">
        <ele>197.420</ele>
        <time>2019-05-05T08:47:42.751Z</time>
      </trkpt>
      <trkpt lat="48.4004918" lon="15.6140016">
        <ele>197.409</ele>
        <time>2019-05-05T08:47:45.017Z</time>
      </trkpt>
      <trkpt lat="48.4006058" lon="15.6140770">
        <ele>197.321</ele>
        <time>2019-05-05T08:47:47.522Z</time>
      </trkpt>
      <trkpt lat="48.4006970" lon="15.6141217">
        <ele>197.160</ele>
        <time>2019-05-05T08:47:49.506Z</time>
      </trkpt>
      <trkpt lat="48.4007874" lon="15.6141836">
        <ele>196.979</ele>
        <time>2019-05-05T08:47:51.668Z</time>
      </trkpt>
      <trkpt lat="48.4008628" lon="15.6142786">
        <ele>196.802</ele>
        <time>2019-05-05T08:47:53.868Z</time>
      </trkpt>
      <trkpt lat="48.4009671" lon="15.6144209">
        <ele>196.616</ele>
        <time>2019-05-05T08:47:56.820Z</time>
      </trkpt>
      <trkpt lat="48.4010414" lon="15.6145289">
        <ele>196.454</ele>
        <time>2019-05-05T08:47:58.821Z</time>
      </trkpt>
      <trkpt lat="48.4010576" lon="15.6146891">
        <ele>196.376</ele>
        <time>2019-05-05T08:48:00.802Z</time>
      </trkpt>
      <trkpt lat="48.4010398" lon="15.6148311">
        <ele>196.385</ele>
        <time>2019-05-05T08:48:02.512Z</time>
      </trkpt>
      <trkpt lat="48.4010300" lon="15.6149921">
        <ele>196.464</ele>
        <time>2019-05-05T08:48:04.380Z</time>
      </trkpt>
      <trkpt lat="48.4010284" lon="15.6151774">
        <ele>196.653</ele>
        <time>2019-05-05T08:48:06.481Z</time>
      </trkpt>
      <trkpt lat="48.4010337" lon="15.6153694">
        <ele>196.974</ele>
        <time>2019-05-05T08:48:08.636Z</time>
      </trkpt>
      <trkpt lat="48.4010309" lon="15.6155390">
        <ele>197.343</ele>
        <time>2019-05-05T08:48:10.540Z</time>
      </trkpt>
      <trkpt lat="48.4011000" lon="15.6157402">
        <ele>197.634</ele>
        <time>2019-05-05T08:48:13.111Z</time>
      </trkpt>
      <trkpt lat="48.4011366" lon="15.6159160">
        <ele>197.790</ele>
        <time>2019-05-05T08:48:15.232Z</time>
      </trkpt>
      <trkpt lat="48.4011781" lon="15.6161079">
        <ele>197.838</ele>
        <time>2019-05-05T08:48:17.599Z</time>
      </trkpt>
      <trkpt lat="48.4012009" lon="15.6162998">
        <ele>197.810</ele>
        <time>2019-05-05T08:48:19.936Z</time>
      </trkpt>
      <trkpt lat="48.4012310" lon="15.6164786">
        <ele>197.697</ele>
        <time>2019-05-05T08:48:22.198Z</time>
      </trkpt>
      <trkpt lat="48.4012493" lon="15.6166586">
        <ele>197.500</ele>
        <time>2019-05-05T08:48:24.453Z</time>
      </trkpt>
      <trkpt lat="48.4012650" lon="15.6168173">
        <ele>197.261</ele>
        <time>2019-05-05T08:48:26.438Z</time>
      </trkpt>
      <trkpt lat="48.4012764" lon="15.6169839">
        <ele>197.026</ele>
        <time>2019-05-05T08:48:28.503Z</time>
      </trkpt>
      <trkpt lat="48.4012850" lon="15.6171362">
        <ele>196.817</ele>
        <time>2019-05-05T08:48:30.385Z</time>
      </trkpt>
      <trkpt lat="48.4013066" lon="15.6173004">
        <ele>196.649</ele>
        <time>2019-05-05T08:48:32.445Z</time>
      </trkpt>
      <trkpt lat="48.4013316" lon="15.6174520">
        <ele>196.521</ele>
        <time>2019-05-05T08:48:34.372Z</time>
      </trkpt>
      <trkpt lat="48.4013424" lon="15.6176158">
        <ele>196.411</ele>
        <time>2019-05-05T08:48:36.412Z</time>
      </trkpt>
      <trkpt lat="48.4013469" lon="15.6177924">
        <ele>196.289</ele>
        <time>2019-05-05T08:48:38.603Z</time>
      </trkpt>
      <trkpt lat="48.4013645" lon="15.6179568">
        <ele>196.150</ele>
        <time>2019-05-05T08:48:40.643Z</time>
      </trkpt>
      <trkpt lat="48.4013783" lon="15.6181229">
        <ele>196.020</ele>
        <time>2019-05-05T08:48:42.619Z</time>
      </trkpt>
      <trkpt lat="48.4013895" lon="15.6182817">
        <ele>195.910</ele>
        <time>2019-05-05T08:48:44.420Z</time>
      </trkpt>
      <trkpt lat="48.4013899" lon="15.6184514">
        <ele>195.807</ele>
        <time>2019-05-05T08:48:46.240Z</time>
      </trkpt>
      <trkpt lat="48.4013933" lon="15.6186156">
        <ele>195.715</ele>
        <time>2019-05-05T08:48:47.936Z</time>
      </trkpt>
      <trkpt lat="48.4013909" lon="15.6188658">
        <ele>195.701</ele>
        <time>2019-05-05T08:48:50.497Z</time>
      </trkpt>
      <trkpt lat="48.4013938" lon="15.6190515">
        <ele>195.866</ele>
        <time>2019-05-05T08:48:52.406Z</time>
      </trkpt>
      <trkpt lat="48.4013951" lon="15.6192449">
        <ele>196.188</ele>
        <time>2019-05-05T08:48:54.380Z</time>
      </trkpt>
      <trkpt lat="48.4014025" lon="15.6194537">
        <ele>196.486</ele>
        <time>2019-05-05T08:48:56.501Z</time>
      </trkpt>
      <trkpt lat="48.4014087" lon="15.6196584">
        <ele>196.595</ele>
        <time>2019-05-05T08:48:58.560Z</time>
      </trkpt>
      <trkpt lat="48.4014067" lon="15.6198562">
        <ele>196.521</ele>
        <time>2019-05-05T08:49:00.525Z</time>
      </trkpt>
      <trkpt lat="48.4014137" lon="15.6200529">
        <ele>196.397</ele>
        <time>2019-05-05T08:49:02.453Z</time>
      </trkpt>
      <trkpt lat="48.4014183" lon="15.6202563">
        <ele>196.354</ele>
        <time>2019-05-05T08:49:04.418Z</time>
      </trkpt>
      <trkpt lat="48.4014172" lon="15.6204777">
        <ele>196.423</ele>
        <time>2019-05-05T08:49:06.535Z</time>
      </trkpt>
      <trkpt lat="48.4014297" lon="15.6206835">
        <ele>196.541</ele>
        <time>2019-05-05T08:49:08.504Z</time>
      </trkpt>
      <trkpt lat="48.4014399" lon="15.6208790">
        <ele>196.631</ele>
        <time>2019-05-05T08:49:10.369Z</time>
      </trkpt>
      <trkpt lat="48.4014384" lon="15.6210933">
        <ele>196.674</ele>
        <time>2019-05-05T08:49:12.382Z</time>
      </trkpt>
      <trkpt lat="48.4014425" lon="15.6213186">
        <ele>196.684</ele>
        <time>2019-05-05T08:49:14.486Z</time>
      </trkpt>
      <trkpt lat="48.4014495" lon="15.6215351">
        <ele>196.680</ele>
        <time>2019-05-05T08:49:16.505Z</time>
      </trkpt>
      <trkpt lat="48.4014524" lon="15.6217329">
        <ele>196.682</ele>
        <time>2019-05-05T08:49:18.348Z</time>
      </trkpt>
      <trkpt lat="48.4014655" lon="15.6219455">
        <ele>196.812</ele>
        <time>2019-05-05T08:49:20.342Z</time>
      </trkpt>
      <trkpt lat="48.4014802" lon="15.6221662">
        <ele>197.165</ele>
        <time>2019-05-05T08:49:22.421Z</time>
      </trkpt>
      <trkpt lat="48.4014819" lon="15.6223793">
        <ele>197.578</ele>
        <time>2019-05-05T08:49:24.434Z</time>
      </trkpt>
      <trkpt lat="48.4014855" lon="15.6226054">
        <ele>197.851</ele>
        <time>2019-05-05T08:49:26.572Z</time>
      </trkpt>
      <trkpt lat="48.4014747" lon="15.6228161">
        <ele>198.108</ele>
        <time>2019-05-05T08:49:28.583Z</time>
      </trkpt>
      <trkpt lat="48.4014636" lon="15.6230265">
        <ele>198.487</ele>
        <time>2019-05-05T08:49:30.633Z</time>
      </trkpt>
      <trkpt lat="48.4014662" lon="15.6232593">
        <ele>198.842</ele>
        <time>2019-05-05T08:49:32.945Z</time>
      </trkpt>
      <trkpt lat="48.4014767" lon="15.6234797">
        <ele>199.014</ele>
        <time>2019-05-05T08:49:35.154Z</time>
      </trkpt>
      <trkpt lat="48.4014787" lon="15.6236913">
        <ele>199.042</ele>
        <time>2019-05-05T08:49:37.265Z</time>
      </trkpt>
      <trkpt lat="48.4014724" lon="15.6239076">
        <ele>199.014</ele>
        <time>2019-05-05T08:49:39.493Z</time>
      </trkpt>
      <trkpt lat="48.4014628" lon="15.6241089">
        <ele>198.985</ele>
        <time>2019-05-05T08:49:41.602Z</time>
      </trkpt>
      <trkpt lat="48.4014519" lon="15.6243069">
        <ele>198.971</ele>
        <time>2019-05-05T08:49:43.627Z</time>
      </trkpt>
      <trkpt lat="48.4014424" lon="15.6244866">
        <ele>198.991</ele>
        <time>2019-05-05T08:49:45.439Z</time>
      </trkpt>
      <trkpt lat="48.4014334" lon="15.6247173">
        <ele>199.157</ele>
        <time>2019-05-05T08:49:47.810Z</time>
      </trkpt>
      <trkpt lat="48.4014335" lon="15.6249309">
        <ele>199.496</ele>
        <time>2019-05-05T08:49:50.100Z</time>
      </trkpt>
      <trkpt lat="48.4014181" lon="15.6251317">
        <ele>198.914</ele>
        <time>2019-05-05T08:49:52.479Z</time>
      </trkpt>
      <trkpt lat="48.4014117" lon="15.6253446">
        <ele>195.279</ele>
        <time>2019-05-05T08:49:55.393Z</time>
      </trkpt>
      <trkpt lat="48.4014117" lon="15.6255569">
        <ele>188.101</ele>
        <time>2019-05-05T08:49:58.635Z</time>
      </trkpt>
      <trkpt lat="48.4014032" lon="15.6257619">
        <ele>179.619</ele>
        <time>2019-05-05T08:50:01.924Z</time>
      </trkpt>
      <trkpt lat="48.4013811" lon="15.6259685">
        <ele>171.767</ele>
        <time>2019-05-05T08:50:05.374Z</time>
      </trkpt>
      <trkpt lat="48.4013539" lon="15.6261591">
        <ele>165.076</ele>
        <time>2019-05-05T08:50:08.313Z</time>
      </trkpt>
      <trkpt lat="48.4013101" lon="15.6263293">
        <ele>160.385</ele>
        <time>2019-05-05T08:50:10.943Z</time>
      </trkpt>
      <trkpt lat="48.4012847" lon="15.6264675">
        <ele>157.961</ele>
        <time>2019-05-05T08:50:13.072Z</time>
      </trkpt>
      <trkpt lat="48.4012616" lon="15.6266337">
        <ele>156.787</ele>
        <time>2019-05-05T08:50:15.385Z</time>
      </trkpt>
      <trkpt lat="48.4012312" lon="15.6268012">
        <ele>162.260</ele>
        <time>2019-05-05T08:50:17.541Z</time>
      </trkpt>
      <trkpt lat="48.4011653" lon="15.6269531">
        <ele>177.901</ele>
        <time>2019-05-05T08:50:19.682Z</time>
      </trkpt>
      <trkpt lat="48.4010970" lon="15.6271053">
        <ele>194.291</ele>
        <time>2019-05-05T08:50:21.771Z</time>
      </trkpt>
      <trkpt lat="48.4010235" lon="15.6272427">
        <ele>202.593</ele>
        <time>2019-05-05T08:50:23.742Z</time>
      </trkpt>
      <trkpt lat="48.4009719" lon="15.6274060">
        <ele>204.621</ele>
        <time>2019-05-05T08:50:25.750Z</time>
      </trkpt>
      <trkpt lat="48.4009339" lon="15.6275470">
        <ele>202.194</ele>
        <time>2019-05-05T08:50:27.423Z</time>
      </trkpt>
      <trkpt lat="48.4009217" lon="15.6276851">
        <ele>196.535</ele>
        <time>2019-05-05T08:50:28.931Z</time>
      </trkpt>
      <trkpt lat="48.4009007" lon="15.6278658">
        <ele>192.881</ele>
        <time>2019-05-05T08:50:30.872Z</time>
      </trkpt>
      <trkpt lat="48.4008764" lon="15.6280665">
        <ele>194.876</ele>
        <time>2019-05-05T08:50:33.025Z</time>
      </trkpt>
      <trkpt lat="48.4008450" lon="15.6282530">
        <ele>199.219</ele>
        <time>2019-05-05T08:50:35.067Z</time>
      </trkpt>
      <trkpt lat="48.4008391" lon="15.6284497">
        <ele>202.142</ele>
        <time>2019-05-05T08:50:37.171Z</time>
      </trkpt>
      <trkpt lat="48.4008297" lon="15.6286464">
        <ele>203.303</ele>
        <time>2019-05-05T08:50:39.366Z</time>
      </trkpt>
      <trkpt lat="48.4008283" lon="15.6288382">
        <ele>203.366</ele>
        <time>2019-05-05T08:50:41.574Z</time>
      </trkpt>
      <trkpt lat="48.4008081" lon="15.6290416">
        <ele>202.953</ele>
        <time>2019-05-05T08:50:43.881Z</time>
      </trkpt>
      <trkpt lat="48.4007936" lon="15.6292281">
        <ele>202.510</ele>
        <time>2019-05-05T08:50:45.952Z</time>
      </trkpt>
      <trkpt lat="48.4007628" lon="15.6294324">
        <ele>202.115</ele>
        <time>2019-05-05T08:50:48.269Z</time>
      </trkpt>
      <trkpt lat="48.4007338" lon="15.6296118">
        <ele>201.502</ele>
        <time>2019-05-05T08:50:50.314Z</time>
      </trkpt>
      <trkpt lat="48.4006899" lon="15.6298241">
        <ele>200.563</ele>
        <time>2019-05-05T08:50:52.831Z</time>
      </trkpt>
      <trkpt lat="48.4006850" lon="15.6299980">
        <ele>199.542</ele>
        <time>2019-05-05T08:50:54.826Z</time>
      </trkpt>
      <trkpt lat="48.4007004" lon="15.6301692">
        <ele>198.659</ele>
        <time>2019-05-05T08:50:56.802Z</time>
      </trkpt>
      <trkpt lat="48.4007503" lon="15.6303553">
        <ele>197.936</ele>
        <time>2019-05-05T08:50:59.103Z</time>
      </trkpt>
      <trkpt lat="48.4008167" lon="15.6304830">
        <ele>197.422</ele>
        <time>2019-05-05T08:51:00.960Z</time>
      </trkpt>
      <trkpt lat="48.4008709" lon="15.6306352">
        <ele>197.196</ele>
        <time>2019-05-05T08:51:02.884Z</time>
      </trkpt>
      <trkpt lat="48.4008981" lon="15.6307945">
        <ele>197.282</ele>
        <time>2019-05-05T08:51:04.652Z</time>
      </trkpt>
      <trkpt lat="48.4009198" lon="15.6309664">
        <ele>197.661</ele>
        <time>2019-05-05T08:51:06.374Z</time>
      </trkpt>
      <trkpt lat="48.4008773" lon="15.6311168">
        <ele>198.181</ele>
        <time>2019-05-05T08:51:07.824Z</time>
      </trkpt>
      <trkpt lat="48.4008473" lon="15.6312993">
        <ele>198.604</ele>
        <time>2019-05-05T08:51:09.388Z</time>
      </trkpt>
      <trkpt lat="48.4008271" lon="15.6314589">
        <ele>198.888</ele>
        <time>2019-05-05T08:51:10.716Z</time>
      </trkpt>
      <trkpt lat="48.4007923" lon="15.6316813">
        <ele>199.141</ele>
        <time>2019-05-05T08:51:12.635Z</time>
      </trkpt>
      <trkpt lat="48.4007637" lon="15.6318485">
        <ele>199.371</ele>
        <time>2019-05-05T08:51:14.132Z</time>
      </trkpt>
      <trkpt lat="48.4007531" lon="15.6320631">
        <ele>199.433</ele>
        <time>2019-05-05T08:51:16.056Z</time>
      </trkpt>
      <trkpt lat="48.4007580" lon="15.6322279">
        <ele>199.248</ele>
        <time>2019-05-05T08:51:17.574Z</time>
      </trkpt>
      <trkpt lat="48.4007581" lon="15.6324452">
        <ele>198.929</ele>
        <time>2019-05-05T08:51:19.635Z</time>
      </trkpt>
      <trkpt lat="48.4007420" lon="15.6327249">
        <ele>198.602</ele>
        <time>2019-05-05T08:51:22.412Z</time>
      </trkpt>
      <trkpt lat="48.4007051" lon="15.6329587">
        <ele>198.256</ele>
        <time>2019-05-05T08:51:24.857Z</time>
      </trkpt>
      <trkpt lat="48.4006646" lon="15.6331911">
        <ele>197.910</ele>
        <time>2019-05-05T08:51:27.278Z</time>
      </trkpt>
      <trkpt lat="48.4006092" lon="15.6334033">
        <ele>197.624</ele>
        <time>2019-05-05T08:51:29.528Z</time>
      </trkpt>
      <trkpt lat="48.4005502" lon="15.6336090">
        <ele>195.592</ele>
        <time>2019-05-05T08:51:31.779Z</time>
      </trkpt>
      <trkpt lat="48.4005128" lon="15.6337941">
        <ele>189.554</ele>
        <time>2019-05-05T08:51:33.814Z</time>
      </trkpt>
      <trkpt lat="48.4004813" lon="15.6339809">
        <ele>181.605</ele>
        <time>2019-05-05T08:51:35.888Z</time>
      </trkpt>
      <trkpt lat="48.4004271" lon="15.6341583">
        <ele>178.791</ele>
        <time>2019-05-05T08:51:37.971Z</time>
      </trkpt>
      <trkpt lat="48.4003883" lon="15.6343334">
        <ele>184.046</ele>
        <time>2019-05-05T08:51:39.893Z</time>
      </trkpt>
      <trkpt lat="48.4003556" lon="15.6345347">
        <ele>192.059</ele>
        <time>2019-05-05T08:51:42.051Z</time>
      </trkpt>
      <trkpt lat="48.4003155" lon="15.6347329">
        <ele>197.156</ele>
        <time>2019-05-05T08:51:44.297Z</time>
      </trkpt>
      <trkpt lat="48.4002731" lon="15.6349181">
        <ele>198.893</ele>
        <time>2019-05-05T08:51:46.446Z</time>
      </trkpt>
      <trkpt lat="48.4002277" lon="15.6350854">
        <ele>198.710</ele>
        <time>2019-05-05T08:51:48.413Z</time>
      </trkpt>
      <trkpt lat="48.4001855" lon="15.6352606">
        <ele>197.920</ele>
        <time>2019-05-05T08:51:50.463Z</time>
      </trkpt>
      <trkpt lat="48.4001422" lon="15.6354549">
        <ele>197.217</ele>
        <time>2019-05-05T08:51:52.758Z</time>
      </trkpt>
      <trkpt lat="48.4000839" lon="15.6356542">
        <ele>196.876</ele>
        <time>2019-05-05T08:51:55.191Z</time>
      </trkpt>
      <trkpt lat="48.4000398" lon="15.6358439">
        <ele>196.891</ele>
        <time>2019-05-05T08:51:57.454Z</time>
      </trkpt>
      <trkpt lat="48.4000021" lon="15.6360337">
        <ele>197.092</ele>
        <time>2019-05-05T08:51:59.730Z</time>
      </trkpt>
      <trkpt lat="48.3999566" lon="15.6361928">
        <ele>197.292</ele>
        <time>2019-05-05T08:52:01.712Z</time>
      </trkpt>
      <trkpt lat="48.3999143" lon="15.6363680">
        <ele>197.355</ele>
        <time>2019-05-05T08:52:03.806Z</time>
      </trkpt>
      <trkpt lat="48.3998604" lon="15.6365294">
        <ele>197.271</ele>
        <time>2019-05-05T08:52:05.810Z</time>
      </trkpt>
      <trkpt lat="48.3998205" lon="15.6367223">
        <ele>197.141</ele>
        <time>2019-05-05T08:52:08.036Z</time>
      </trkpt>
      <trkpt lat="48.3997747" lon="15.6368904">
        <ele>197.101</ele>
        <time>2019-05-05T08:52:10.064Z</time>
      </trkpt>
      <trkpt lat="48.3997283" lon="15.6370604">
        <ele>197.203</ele>
        <time>2019-05-05T08:52:12.192Z</time>
      </trkpt>
      <trkpt lat="48.3996838" lon="15.6372169">
        <ele>197.371</ele>
        <time>2019-05-05T08:52:14.294Z</time>
      </trkpt>
      <trkpt lat="48.3996318" lon="15.6373835">
        <ele>197.465</ele>
        <time>2019-05-05T08:52:16.731Z</time>
      </trkpt>
      <trkpt lat="48.3995782" lon="15.6375569">
        <ele>197.432</ele>
        <time>2019-05-05T08:52:19.374Z</time>
      </trkpt>
      <trkpt lat="48.3995244" lon="15.6377122">
        <ele>197.341</ele>
        <time>2019-05-05T08:52:21.847Z</time>
      </trkpt>
      <trkpt lat="48.3994570" lon="15.6378679">
        <ele>197.323</ele>
        <time>2019-05-05T08:52:24.393Z</time>
      </trkpt>
      <trkpt lat="48.3994079" lon="15.6380488">
        <ele>197.458</ele>
        <time>2019-05-05T08:52:26.884Z</time>
      </trkpt>
      <trkpt lat="48.3993750" lon="15.6382139">
        <ele>197.670</ele>
        <time>2019-05-05T08:52:28.899Z</time>
      </trkpt>
      <trkpt lat="48.3993354" lon="15.6383802">
        <ele>197.734</ele>
        <time>2019-05-05T08:52:30.905Z</time>
      </trkpt>
      <trkpt lat="48.3992905" lon="15.6385212">
        <ele>197.534</ele>
        <time>2019-05-05T08:52:32.764Z</time>
      </trkpt>
      <trkpt lat="48.3992496" lon="15.6386533">
        <ele>197.230</ele>
        <time>2019-05-05T08:52:34.572Z</time>
      </trkpt>
      <trkpt lat="48.3991923" lon="15.6388261">
        <ele>197.126</ele>
        <time>2019-05-05T08:52:36.952Z</time>
      </trkpt>
      <trkpt lat="48.3991141" lon="15.6390396">
        <ele>197.327</ele>
        <time>2019-05-05T08:52:39.759Z</time>
      </trkpt>
      <trkpt lat="48.3990739" lon="15.6391730">
        <ele>197.640</ele>
        <time>2019-05-05T08:52:41.411Z</time>
      </trkpt>
      <trkpt lat="48.3990298" lon="15.6393424">
        <ele>197.752</ele>
        <time>2019-05-05T08:52:43.495Z</time>
      </trkpt>
      <trkpt lat="48.3989754" lon="15.6395102">
        <ele>197.588</ele>
        <time>2019-05-05T08:52:45.652Z</time>
      </trkpt>
      <trkpt lat="48.3988869" lon="15.6396865">
        <ele>197.393</ele>
        <time>2019-05-05T08:52:48.233Z</time>
      </trkpt>
      <trkpt lat="48.3988444" lon="15.6398611">
        <ele>197.429</ele>
        <time>2019-05-05T08:52:50.425Z</time>
      </trkpt>
      <trkpt lat="48.3988116" lon="15.6400057">
        <ele>197.652</ele>
        <time>2019-05-05T08:52:52.233Z</time>
      </trkpt>
      <trkpt lat="48.3987603" lon="15.6401458">
        <ele>197.816</ele>
        <time>2019-05-05T08:52:54.090Z</time>
      </trkpt>
      <trkpt lat="48.3987113" lon="15.6403154">
        <ele>197.796</ele>
        <time>2019-05-05T08:52:56.172Z</time>
      </trkpt>
      <trkpt lat="48.3986641" lon="15.6404880">
        <ele>197.705</ele>
        <time>2019-05-05T08:52:58.268Z</time>
      </trkpt>
      <trkpt lat="48.3986187" lon="15.6406421">
        <ele>197.682</ele>
        <time>2019-05-05T08:53:00.222Z</time>
      </trkpt>
      <trkpt lat="48.3985599" lon="15.6407918">
        <ele>197.725</ele>
        <time>2019-05-05T08:53:02.293Z</time>
      </trkpt>
      <trkpt lat="48.3984901" lon="15.6409431">
        <ele>197.700</ele>
        <time>2019-05-05T08:53:04.491Z</time>
      </trkpt>
      <trkpt lat="48.3984372" lon="15.6410932">
        <ele>197.501</ele>
        <time>2019-05-05T08:53:06.444Z</time>
      </trkpt>
      <trkpt lat="48.3983888" lon="15.6412606">
        <ele>197.228</ele>
        <time>2019-05-05T08:53:08.433Z</time>
      </trkpt>
      <trkpt lat="48.3983463" lon="15.6414331">
        <ele>197.113</ele>
        <time>2019-05-05T08:53:10.373Z</time>
      </trkpt>
      <trkpt lat="48.3982703" lon="15.6416006">
        <ele>197.222</ele>
        <time>2019-05-05T08:53:12.465Z</time>
      </trkpt>
      <trkpt lat="48.3982090" lon="15.6417566">
        <ele>197.378</ele>
        <time>2019-05-05T08:53:14.283Z</time>
      </trkpt>
      <trkpt lat="48.3981469" lon="15.6419024">
        <ele>197.393</ele>
        <time>2019-05-05T08:53:15.999Z</time>
      </trkpt>
      <trkpt lat="48.3980950" lon="15.6420590">
        <ele>197.279</ele>
        <time>2019-05-05T08:53:17.737Z</time>
      </trkpt>
      <trkpt lat="48.3980290" lon="15.6422014">
        <ele>197.169</ele>
        <time>2019-05-05T08:53:19.475Z</time>
      </trkpt>
      <trkpt lat="48.3979690" lon="15.6423609">
        <ele>197.140</ele>
        <time>2019-05-05T08:53:21.331Z</time>
      </trkpt>
      <trkpt lat="48.3979303" lon="15.6425106">
        <ele>197.078</ele>
        <time>2019-05-05T08:53:23.026Z</time>
      </trkpt>
      <trkpt lat="48.3978677" lon="15.6426943">
        <ele>196.887</ele>
        <time>2019-05-05T08:53:25.555Z</time>
      </trkpt>
      <trkpt lat="48.3978016" lon="15.6428639">
        <ele>196.692</ele>
        <time>2019-05-05T08:53:28.331Z</time>
      </trkpt>
      <trkpt lat="48.3977342" lon="15.6430155">
        <ele>196.622</ele>
        <time>2019-05-05T08:53:31.017Z</time>
      </trkpt>
      <trkpt lat="48.3976305" lon="15.6431819">
        <ele>196.594</ele>
        <time>2019-05-05T08:53:34.216Z</time>
      </trkpt>
      <trkpt lat="48.3975540" lon="15.6433585">
        <ele>196.511</ele>
        <time>2019-05-05T08:53:37.031Z</time>
      </trkpt>
      <trkpt lat="48.3974690" lon="15.6435177">
        <ele>196.414</ele>
        <time>2019-05-05T08:53:39.677Z</time>
      </trkpt>
      <trkpt lat="48.3973781" lon="15.6436763">
        <ele>196.370</ele>
        <time>2019-05-05T08:53:42.324Z</time>
      </trkpt>
      <trkpt lat="48.3973040" lon="15.6438208">
        <ele>196.366</ele>
        <time>2019-05-05T08:53:44.539Z</time>
      </trkpt>
      <trkpt lat="48.3971973" lon="15.6439270">
        <ele>196.412</ele>
        <time>2019-05-05T08:53:46.762Z</time>
      </trkpt>
      <trkpt lat="48.3971191" lon="15.6440282">
        <ele>196.515</ele>
        <time>2019-05-05T08:53:48.485Z</time>
      </trkpt>
      <trkpt lat="48.3970193" lon="15.6441391">
        <ele>196.635</ele>
        <time>2019-05-05T08:53:50.500Z</time>
      </trkpt>
      <trkpt lat="48.3969346" lon="15.6441941">
        <ele>196.800</ele>
        <time>2019-05-05T08:53:51.980Z</time>
      </trkpt>
      <trkpt lat="48.3968637" lon="15.6442787">
        <ele>197.129</ele>
        <time>2019-05-05T08:53:53.451Z</time>
      </trkpt>
      <trkpt lat="48.3968113" lon="15.6444192">
        <ele>197.575</ele>
        <time>2019-05-05T08:53:55.173Z</time>
      </trkpt>
      <trkpt lat="48.3967560" lon="15.6445522">
        <ele>197.919</ele>
        <time>2019-05-05T08:53:56.796Z</time>
      </trkpt>
      <trkpt lat="48.3966975" lon="15.6446807">
        <ele>198.042</ele>
        <time>2019-05-05T08:53:58.356Z</time>
      </trkpt>
      <trkpt lat="48.3966256" lon="15.6447858">
        <ele>198.002</ele>
        <time>2019-05-05T08:53:59.833Z</time>
      </trkpt>
      <trkpt lat="48.3965402" lon="15.6449202">
        <ele>197.907</ele>
        <time>2019-05-05T08:54:01.625Z</time>
      </trkpt>
      <trkpt lat="48.3964477" lon="15.6450416">
        <ele>197.832</ele>
        <time>2019-05-05T08:54:03.390Z</time>
      </trkpt>
      <trkpt lat="48.3963843" lon="15.6451823">
        <ele>197.801</ele>
        <time>2019-05-05T08:54:05.011Z</time>
      </trkpt>
      <trkpt lat="48.3963365" lon="15.6453188">
        <ele>197.838</ele>
        <time>2019-05-05T08:54:06.487Z</time>
      </trkpt>
      <trkpt lat="48.3962420" lon="15.6454470">
        <ele>197.937</ele>
        <time>2019-05-05T08:54:08.337Z</time>
      </trkpt>
      <trkpt lat="48.3961540" lon="15.6455624">
        <ele>197.987</ele>
        <time>2019-05-05T08:54:10.059Z</time>
      </trkpt>
      <trkpt lat="48.3960836" lon="15.6456634">
        <ele>197.911</ele>
        <time>2019-05-05T08:54:11.531Z</time>
      </trkpt>
      <trkpt lat="48.3959828" lon="15.6458250">
        <ele>197.824</ele>
        <time>2019-05-05T08:54:13.784Z</time>
      </trkpt>
      <trkpt lat="48.3958732" lon="15.6459965">
        <ele>197.835</ele>
        <time>2019-05-05T08:54:16.127Z</time>
      </trkpt>
      <trkpt lat="48.3957576" lon="15.6461467">
        <ele>197.894</ele>
        <time>2019-05-05T08:54:18.323Z</time>
      </trkpt>
      <trkpt lat="48.3956582" lon="15.6462878">
        <ele>197.918</ele>
        <time>2019-05-05T08:54:20.266Z</time>
      </trkpt>
      <trkpt lat="48.3955529" lon="15.6464315">
        <ele>197.908</ele>
        <time>2019-05-05T08:54:22.269Z</time>
      </trkpt>
      <trkpt lat="48.3954356" lon="15.6465926">
        <ele>197.899</ele>
        <time>2019-05-05T08:54:24.505Z</time>
      </trkpt>
      <trkpt lat="48.3953328" lon="15.6467518">
        <ele>197.918</ele>
        <time>2019-05-05T08:54:26.559Z</time>
      </trkpt>
      <trkpt lat="48.3952271" lon="15.6468918">
        <ele>197.967</ele>
        <time>2019-05-05T08:54:28.519Z</time>
      </trkpt>
      <trkpt lat="48.3951287" lon="15.6470432">
        <ele>198.020</ele>
        <time>2019-05-05T08:54:30.499Z</time>
      </trkpt>
      <trkpt lat="48.3950311" lon="15.6471783">
        <ele>197.977</ele>
        <time>2019-05-05T08:54:32.385Z</time>
      </trkpt>
      <trkpt lat="48.3949135" lon="15.6473147">
        <ele>197.795</ele>
        <time>2019-05-05T08:54:34.540Z</time>
      </trkpt>
      <trkpt lat="48.3948097" lon="15.6474374">
        <ele>197.598</ele>
        <time>2019-05-05T08:54:36.495Z</time>
      </trkpt>
      <trkpt lat="48.3946918" lon="15.6475637">
        <ele>197.621</ele>
        <time>2019-05-05T08:54:38.653Z</time>
      </trkpt>
      <trkpt lat="48.3945726" lon="15.6476866">
        <ele>197.822</ele>
        <time>2019-05-05T08:54:40.812Z</time>
      </trkpt>
      <trkpt lat="48.3944672" lon="15.6478017">
        <ele>197.960</ele>
        <time>2019-05-05T08:54:42.716Z</time>
      </trkpt>
      <trkpt lat="48.3943624" lon="15.6479229">
        <ele>198.001</ele>
        <time>2019-05-05T08:54:44.576Z</time>
      </trkpt>
      <trkpt lat="48.3942551" lon="15.6480464">
        <ele>198.042</ele>
        <time>2019-05-05T08:54:46.453Z</time>
      </trkpt>
      <trkpt lat="48.3941470" lon="15.6481838">
        <ele>198.071</ele>
        <time>2019-05-05T08:54:48.458Z</time>
      </trkpt>
      <trkpt lat="48.3940301" lon="15.6483025">
        <ele>198.039</ele>
        <time>2019-05-05T08:54:50.452Z</time>
      </trkpt>
      <trkpt lat="48.3939250" lon="15.6484102">
        <ele>197.963</ele>
        <time>2019-05-05T08:54:52.204Z</time>
      </trkpt>
      <trkpt lat="48.3938179" lon="15.6485281">
        <ele>197.971</ele>
        <time>2019-05-05T08:54:53.996Z</time>
      </trkpt>
      <trkpt lat="48.3937050" lon="15.6486386">
        <ele>198.077</ele>
        <time>2019-05-05T08:54:55.837Z</time>
      </trkpt>
      <trkpt lat="48.3936127" lon="15.6487560">
        <ele>198.188</ele>
        <time>2019-05-05T08:54:57.488Z</time>
      </trkpt>
      <trkpt lat="48.3935082" lon="15.6488735">
        <ele>198.263</ele>
        <time>2019-05-05T08:54:59.249Z</time>
      </trkpt>
      <trkpt lat="48.3933918" lon="15.6489993">
        <ele>198.276</ele>
        <time>2019-05-05T08:55:01.185Z</time>
      </trkpt>
      <trkpt lat="48.3932768" lon="15.6491199">
        <ele>198.249</ele>
        <time>2019-05-05T08:55:03.122Z</time>
      </trkpt>
      <trkpt lat="48.3931706" lon="15.6492441">
        <ele>198.219</ele>
        <time>2019-05-05T08:55:05.013Z</time>
      </trkpt>
      <trkpt lat="48.3930546" lon="15.6493616">
        <ele>197.313</ele>
        <time>2019-05-05T08:55:06.972Z</time>
      </trkpt>
      <trkpt lat="48.3929277" lon="15.6494841">
        <ele>193.745</ele>
        <time>2019-05-05T08:55:09.050Z</time>
      </trkpt>
      <trkpt lat="48.3928125" lon="15.6496137">
        <ele>187.320</ele>
        <time>2019-05-05T08:55:10.991Z</time>
      </trkpt>
      <trkpt lat="48.3927000" lon="15.6497392">
        <ele>180.232</ele>
        <time>2019-05-05T08:55:12.868Z</time>
      </trkpt>
      <trkpt lat="48.3925790" lon="15.6498736">
        <ele>174.533</ele>
        <time>2019-05-05T08:55:14.916Z</time>
      </trkpt>
      <trkpt lat="48.3924510" lon="15.6499978">
        <ele>170.709</ele>
        <time>2019-05-05T08:55:17.053Z</time>
      </trkpt>
      <trkpt lat="48.3923389" lon="15.6501336">
        <ele>168.319</ele>
        <time>2019-05-05T08:55:19.123Z</time>
      </trkpt>
      <trkpt lat="48.3922200" lon="15.6502728">
        <ele>166.765</ele>
        <time>2019-05-05T08:55:21.267Z</time>
      </trkpt>
      <trkpt lat="48.3920963" lon="15.6503992">
        <ele>165.648</ele>
        <time>2019-05-05T08:55:23.344Z</time>
      </trkpt>
      <trkpt lat="48.3919682" lon="15.6505215">
        <ele>164.859</ele>
        <time>2019-05-05T08:55:25.459Z</time>
      </trkpt>
      <trkpt lat="48.3918525" lon="15.6506499">
        <ele>164.436</ele>
        <time>2019-05-05T08:55:27.487Z</time>
      </trkpt>
      <trkpt lat="48.3917182" lon="15.6507785">
        <ele>164.325</ele>
        <time>2019-05-05T08:55:29.774Z</time>
      </trkpt>
      <trkpt lat="48.3916049" lon="15.6509058">
        <ele>164.371</ele>
        <time>2019-05-05T08:55:31.835Z</time>
      </trkpt>
      <trkpt lat="48.3914852" lon="15.6510279">
        <ele>164.450</ele>
        <time>2019-05-05T08:55:33.935Z</time>
      </trkpt>
      <trkpt lat="48.3913879" lon="15.6511602">
        <ele>164.531</ele>
        <time>2019-05-05T08:55:35.821Z</time>
      </trkpt>
      <trkpt lat="48.3912758" lon="15.6512964">
        <ele>164.623</ele>
        <time>2019-05-05T08:55:37.971Z</time>
      </trkpt>
      <trkpt lat="48.3911485" lon="15.6514183">
        <ele>164.697</ele>
        <time>2019-05-05T08:55:40.381Z</time>
      </trkpt>
      <trkpt lat="48.3910232" lon="15.6515398">
        <ele>164.666</ele>
        <time>2019-05-05T08:55:42.817Z</time>
      </trkpt>
      <trkpt lat="48.3909069" lon="15.6516572">
        <ele>164.434</ele>
        <time>2019-05-05T08:55:45.124Z</time>
      </trkpt>
      <trkpt lat="48.3907837" lon="15.6517811">
        <ele>163.972</ele>
        <time>2019-05-05T08:55:47.590Z</time>
      </trkpt>
      <trkpt lat="48.3906775" lon="15.6519193">
        <ele>163.302</ele>
        <time>2019-05-05T08:55:49.915Z</time>
      </trkpt>
      <trkpt lat="48.3905853" lon="15.6520533">
        <ele>162.445</ele>
        <time>2019-05-05T08:55:52.045Z</time>
      </trkpt>
      <trkpt lat="48.3904622" lon="15.6521946">
        <ele>161.460</ele>
        <time>2019-05-05T08:55:54.558Z</time>
      </trkpt>
      <trkpt lat="48.3903504" lon="15.6523156">
        <ele>160.443</ele>
        <time>2019-05-05T08:55:56.696Z</time>
      </trkpt>
      <trkpt lat="48.3902416" lon="15.6524082">
        <ele>159.591</ele>
        <time>2019-05-05T08:55:58.628Z</time>
      </trkpt>
      <trkpt lat="48.3901520" lon="15.6525027">
        <ele>159.155</ele>
        <time>2019-05-05T08:56:00.340Z</time>
      </trkpt>
      <trkpt lat="48.3900598" lon="15.6526034">
        <ele>159.257</ele>
        <time>2019-05-05T08:56:02.114Z</time>
      </trkpt>
      <trkpt lat="48.3899339" lon="15.6527714">
        <ele>159.842</ele>
        <time>2019-05-05T08:56:04.688Z</time>
      </trkpt>
      <trkpt lat="48.3898257" lon="15.6528737">
        <ele>165.202</ele>
        <time>2019-05-05T08:56:06.637Z</time>
      </trkpt>
      <trkpt lat="48.3897215" lon="15.6529599">
        <ele>178.140</ele>
        <time>2019-05-05T08:56:08.444Z</time>
      </trkpt>
      <trkpt lat="48.3896279" lon="15.6530509">
        <ele>191.744</ele>
        <time>2019-05-05T08:56:10.126Z</time>
      </trkpt>
      <trkpt lat="48.3895242" lon="15.6531849">
        <ele>198.741</ele>
        <time>2019-05-05T08:56:12.182Z</time>
      </trkpt>
      <trkpt lat="48.3894033" lon="15.6533150">
        <ele>200.161</ele>
        <time>2019-05-05T08:56:14.431Z</time>
      </trkpt>
      <trkpt lat="48.3892948" lon="15.6534315">
        <ele>199.303</ele>
        <time>2019-05-05T08:56:16.472Z</time>
      </trkpt>
      <trkpt lat="48.3891891" lon="15.6535177">
        <ele>198.351</ele>
        <time>2019-05-05T08:56:18.338Z</time>
      </trkpt>
      <trkpt lat="48.3890823" lon="15.6536144">
        <ele>197.970</ele>
        <time>2019-05-05T08:56:20.285Z</time>
      </trkpt>
      <trkpt lat="48.3889667" lon="15.6537387">
        <ele>197.989</ele>
        <time>2019-05-05T08:56:22.487Z</time>
      </trkpt>
      <trkpt lat="48.3888699" lon="15.6538368">
        <ele>198.089</ele>
        <time>2019-05-05T08:56:24.293Z</time>
      </trkpt>
      <trkpt lat="48.3887638" lon="15.6539620">
        <ele>198.129</ele>
        <time>2019-05-05T08:56:26.380Z</time>
      </trkpt>
      <trkpt lat="48.3886395" lon="15.6540879">
        <ele>198.099</ele>
        <time>2019-05-05T08:56:28.689Z</time>
      </trkpt>
      <trkpt lat="48.3885315" lon="15.6542180">
        <ele>198.053</ele>
        <time>2019-05-05T08:56:30.830Z</time>
      </trkpt>
      <trkpt lat="48.3884150" lon="15.6543364">
        <ele>198.037</ele>
        <time>2019-05-05T08:56:33.023Z</time>
      </trkpt>
      <trkpt lat="48.3883019" lon="15.6544636">
        <ele>198.033</ele>
        <time>2019-05-05T08:56:35.237Z</time>
      </trkpt>
      <trkpt lat="48.3882038" lon="15.6545842">
        <ele>198.030</ele>
        <time>2019-05-05T08:56:37.232Z</time>
      </trkpt>
      <trkpt lat="48.3880890" lon="15.6547114">
        <ele>198.043</ele>
        <time>2019-05-05T08:56:39.500Z</time>
      </trkpt>
      <trkpt lat="48.3879735" lon="15.6548323">
        <ele>198.058</ele>
        <time>2019-05-05T08:56:41.736Z</time>
      </trkpt>
      <trkpt lat="48.3878610" lon="15.6549536">
        <ele>198.038</ele>
        <time>2019-05-05T08:56:43.950Z</time>
      </trkpt>
      <trkpt lat="48.3877667" lon="15.6550585">
        <ele>197.968</ele>
        <time>2019-05-05T08:56:45.858Z</time>
      </trkpt>
      <trkpt lat="48.3876555" lon="15.6551742">
        <ele>197.908</ele>
        <time>2019-05-05T08:56:48.075Z</time>
      </trkpt>
      <trkpt lat="48.3875615" lon="15.6552900">
        <ele>197.895</ele>
        <time>2019-05-05T08:56:50.051Z</time>
      </trkpt>
      <trkpt lat="48.3874477" lon="15.6554244">
        <ele>197.915</ele>
        <time>2019-05-05T08:56:52.333Z</time>
      </trkpt>
      <trkpt lat="48.3873357" lon="15.6555292">
        <ele>197.937</ele>
        <time>2019-05-05T08:56:54.357Z</time>
      </trkpt>
      <trkpt lat="48.3872216" lon="15.6556560">
        <ele>197.935</ele>
        <time>2019-05-05T08:56:56.506Z</time>
      </trkpt>
      <trkpt lat="48.3871032" lon="15.6557699">
        <ele>197.925</ele>
        <time>2019-05-05T08:56:58.624Z</time>
      </trkpt>
      <trkpt lat="48.3870059" lon="15.6558785">
        <ele>197.914</ele>
        <time>2019-05-05T08:57:00.429Z</time>
      </trkpt>
      <trkpt lat="48.3869065" lon="15.6559997">
        <ele>197.900</ele>
        <time>2019-05-05T08:57:02.298Z</time>
      </trkpt>
      <trkpt lat="48.3867989" lon="15.6561095">
        <ele>197.925</ele>
        <time>2019-05-05T08:57:04.165Z</time>
      </trkpt>
      <trkpt lat="48.3866943" lon="15.6562248">
        <ele>198.015</ele>
        <time>2019-05-05T08:57:05.996Z</time>
      </trkpt>
      <trkpt lat="48.3865942" lon="15.6563241">
        <ele>198.132</ele>
        <time>2019-05-05T08:57:07.668Z</time>
      </trkpt>
      <trkpt lat="48.3864815" lon="15.6564259">
        <ele>198.225</ele>
        <time>2019-05-05T08:57:09.486Z</time>
      </trkpt>
      <trkpt lat="48.3863747" lon="15.6565449">
        <ele>198.276</ele>
        <time>2019-05-05T08:57:11.316Z</time>
      </trkpt>
      <trkpt lat="48.3862856" lon="15.6566562">
        <ele>198.283</ele>
        <time>2019-05-05T08:57:12.906Z</time>
      </trkpt>
      <trkpt lat="48.3861861" lon="15.6567794">
        <ele>198.256</ele>
        <time>2019-05-05T08:57:14.682Z</time>
      </trkpt>
      <trkpt lat="48.3860766" lon="15.6568933">
        <ele>198.195</ele>
        <time>2019-05-05T08:57:16.515Z</time>
      </trkpt>
      <trkpt lat="48.3859707" lon="15.6570320">
        <ele>198.119</ele>
        <time>2019-05-05T08:57:18.453Z</time>
      </trkpt>
      <trkpt lat="48.3858575" lon="15.6571689">
        <ele>198.083</ele>
        <time>2019-05-05T08:57:20.487Z</time>
      </trkpt>
      <trkpt lat="48.3857389" lon="15.6573092">
        <ele>198.133</ele>
        <time>2019-05-05T08:57:22.641Z</time>
      </trkpt>
      <trkpt lat="48.3856235" lon="15.6574307">
        <ele>198.219</ele>
        <time>2019-05-05T08:57:24.690Z</time>
      </trkpt>
      <trkpt lat="48.3855001" lon="15.6575619">
        <ele>198.278</ele>
        <time>2019-05-05T08:57:26.916Z</time>
      </trkpt>
      <trkpt lat="48.3853765" lon="15.6576963">
        <ele>198.217</ele>
        <time>2019-05-05T08:57:29.143Z</time>
      </trkpt>
      <trkpt lat="48.3852505" lon="15.6578245">
        <ele>198.086</ele>
        <time>2019-05-05T08:57:31.391Z</time>
      </trkpt>
      <trkpt lat="48.3851427" lon="15.6579645">
        <ele>197.991</ele>
        <time>2019-05-05T08:57:33.557Z</time>
      </trkpt>
      <trkpt lat="48.3850275" lon="15.6581029">
        <ele>197.905</ele>
        <time>2019-05-05T08:57:35.835Z</time>
      </trkpt>
      <trkpt lat="48.3849069" lon="15.6582393">
        <ele>197.818</ele>
        <time>2019-05-05T08:57:38.149Z</time>
      </trkpt>
      <trkpt lat="48.3847890" lon="15.6583707">
        <ele>197.831</ele>
        <time>2019-05-05T08:57:40.340Z</time>
      </trkpt>
      <trkpt lat="48.3846755" lon="15.6584847">
        <ele>197.970</ele>
        <time>2019-05-05T08:57:42.335Z</time>
      </trkpt>
      <trkpt lat="48.3845785" lon="15.6585893">
        <ele>198.199</ele>
        <time>2019-05-05T08:57:44.067Z</time>
      </trkpt>
      <trkpt lat="48.3844699" lon="15.6586831">
        <ele>198.440</ele>
        <time>2019-05-05T08:57:45.884Z</time>
      </trkpt>
      <trkpt lat="48.3843574" lon="15.6588007">
        <ele>198.657</ele>
        <time>2019-05-05T08:57:47.879Z</time>
      </trkpt>
      <trkpt lat="48.3842373" lon="15.6589272">
        <ele>198.806</ele>
        <time>2019-05-05T08:57:50.048Z</time>
      </trkpt>
      <trkpt lat="48.3841323" lon="15.6590668">
        <ele>198.797</ele>
        <time>2019-05-05T08:57:52.144Z</time>
      </trkpt>
      <trkpt lat="48.3840529" lon="15.6591984">
        <ele>198.634</ele>
        <time>2019-05-05T08:57:53.902Z</time>
      </trkpt>
      <trkpt lat="48.3839644" lon="15.6593153">
        <ele>198.382</ele>
        <time>2019-05-05T08:57:55.643Z</time>
      </trkpt>
      <trkpt lat="48.3838702" lon="15.6594375">
        <ele>198.110</ele>
        <time>2019-05-05T08:57:57.476Z</time>
      </trkpt>
      <trkpt lat="48.3837689" lon="15.6595707">
        <ele>197.937</ele>
        <time>2019-05-05T08:57:59.458Z</time>
      </trkpt>
      <trkpt lat="48.3836682" lon="15.6596891">
        <ele>197.938</ele>
        <time>2019-05-05T08:58:01.327Z</time>
      </trkpt>
      <trkpt lat="48.3835672" lon="15.6598305">
        <ele>198.017</ele>
        <time>2019-05-05T08:58:03.330Z</time>
      </trkpt>
      <trkpt lat="48.3834674" lon="15.6599630">
        <ele>198.087</ele>
        <time>2019-05-05T08:58:05.262Z</time>
      </trkpt>
      <trkpt lat="48.3833731" lon="15.6601128">
        <ele>198.219</ele>
        <time>2019-05-05T08:58:07.249Z</time>
      </trkpt>
      <trkpt lat="48.3832854" lon="15.6602425">
        <ele>198.442</ele>
        <time>2019-05-05T08:58:09.007Z</time>
      </trkpt>
      <trkpt lat="48.3831899" lon="15.6603631">
        <ele>198.622</ele>
        <time>2019-05-05T08:58:10.770Z</time>
      </trkpt>
      <trkpt lat="48.3830944" lon="15.6605066">
        <ele>198.619</ele>
        <time>2019-05-05T08:58:12.687Z</time>
      </trkpt>
      <trkpt lat="48.3830028" lon="15.6606468">
        <ele>198.458</ele>
        <time>2019-05-05T08:58:14.547Z</time>
      </trkpt>
      <trkpt lat="48.3829059" lon="15.6607953">
        <ele>198.280</ele>
        <time>2019-05-05T08:58:16.503Z</time>
      </trkpt>
      <trkpt lat="48.3828212" lon="15.6609447">
        <ele>198.168</ele>
        <time>2019-05-05T08:58:18.345Z</time>
      </trkpt>
      <trkpt lat="48.3827186" lon="15.6610922">
        <ele>196.457</ele>
        <time>2019-05-05T08:58:20.343Z</time>
      </trkpt>
      <trkpt lat="48.3826261" lon="15.6612455">
        <ele>191.045</ele>
        <time>2019-05-05T08:58:22.257Z</time>
      </trkpt>
      <trkpt lat="48.3825284" lon="15.6614026">
        <ele>183.021</ele>
        <time>2019-05-05T08:58:24.211Z</time>
      </trkpt>
      <trkpt lat="48.3824462" lon="15.6615601">
        <ele>175.478</ele>
        <time>2019-05-05T08:58:26.011Z</time>
      </trkpt>
      <trkpt lat="48.3823576" lon="15.6617338">
        <ele>169.944</ele>
        <time>2019-05-05T08:58:27.974Z</time>
      </trkpt>
      <trkpt lat="48.3822562" lon="15.6619075">
        <ele>166.394</ele>
        <time>2019-05-05T08:58:30.061Z</time>
      </trkpt>
      <trkpt lat="48.3821623" lon="15.6620754">
        <ele>164.192</ele>
        <time>2019-05-05T08:58:32.060Z</time>
      </trkpt>
      <trkpt lat="48.3820685" lon="15.6622343">
        <ele>162.690</ele>
        <time>2019-05-05T08:58:33.978Z</time>
      </trkpt>
      <trkpt lat="48.3819849" lon="15.6624234">
        <ele>161.449</ele>
        <time>2019-05-05T08:58:36.004Z</time>
      </trkpt>
      <trkpt lat="48.3818869" lon="15.6625824">
        <ele>160.290</ele>
        <time>2019-05-05T08:58:37.970Z</time>
      </trkpt>
      <trkpt lat="48.3817895" lon="15.6627650">
        <ele>159.175</ele>
        <time>2019-05-05T08:58:40.141Z</time>
      </trkpt>
      <trkpt lat="48.3816944" lon="15.6629461">
        <ele>158.085</ele>
        <time>2019-05-05T08:58:42.282Z</time>
      </trkpt>
      <trkpt lat="48.3815977" lon="15.6631397">
        <ele>157.023</ele>
        <time>2019-05-05T08:58:44.525Z</time>
      </trkpt>
      <trkpt lat="48.3814998" lon="15.6633150">
        <ele>156.024</ele>
        <time>2019-05-05T08:58:46.651Z</time>
      </trkpt>
      <trkpt lat="48.3814148" lon="15.6635095">
        <ele>155.139</ele>
        <time>2019-05-05T08:58:48.838Z</time>
      </trkpt>
      <trkpt lat="48.3813341" lon="15.6637061">
        <ele>154.430</ele>
        <time>2019-05-05T08:58:51.053Z</time>
      </trkpt>
      <trkpt lat="48.3812508" lon="15.6638809">
        <ele>153.961</ele>
        <time>2019-05-05T08:58:53.135Z</time>
      </trkpt>
      <trkpt lat="48.3811707" lon="15.6640677">
        <ele>153.750</ele>
        <time>2019-05-05T08:58:55.257Z</time>
      </trkpt>
      <trkpt lat="48.3810917" lon="15.6642430">
        <ele>153.749</ele>
        <time>2019-05-05T08:58:57.226Z</time>
      </trkpt>
      <trkpt lat="48.3810215" lon="15.6644098">
        <ele>153.888</ele>
        <time>2019-05-05T08:58:59.018Z</time>
      </trkpt>
      <trkpt lat="48.3809340" lon="15.6646044">
        <ele>154.083</ele>
        <time>2019-05-05T08:59:01.125Z</time>
      </trkpt>
      <trkpt lat="48.3808524" lon="15.6648097">
        <ele>154.243</ele>
        <time>2019-05-05T08:59:03.301Z</time>
      </trkpt>
      <trkpt lat="48.3807714" lon="15.6650116">
        <ele>154.327</ele>
        <time>2019-05-05T08:59:05.472Z</time>
      </trkpt>
      <trkpt lat="48.3807037" lon="15.6652249">
        <ele>154.364</ele>
        <time>2019-05-05T08:59:07.633Z</time>
      </trkpt>
      <trkpt lat="48.3806366" lon="15.6654109">
        <ele>154.443</ele>
        <time>2019-05-05T08:59:09.548Z</time>
      </trkpt>
      <trkpt lat="48.3805757" lon="15.6655825">
        <ele>154.687</ele>
        <time>2019-05-05T08:59:11.309Z</time>
      </trkpt>
      <trkpt lat="48.3805111" lon="15.6657627">
        <ele>155.159</ele>
        <time>2019-05-05T08:59:13.188Z</time>
      </trkpt>
      <trkpt lat="48.3804378" lon="15.6659449">
        <ele>155.780</ele>
        <time>2019-05-05T08:59:15.131Z</time>
      </trkpt>
      <trkpt lat="48.3803804" lon="15.6661504">
        <ele>156.423</ele>
        <time>2019-05-05T08:59:17.127Z</time>
      </trkpt>
      <trkpt lat="48.3803038" lon="15.6663563">
        <ele>157.037</ele>
        <time>2019-05-05T08:59:19.253Z</time>
      </trkpt>
      <trkpt lat="48.3802426" lon="15.6665467">
        <ele>157.655</ele>
        <time>2019-05-05T08:59:21.212Z</time>
      </trkpt>
      <trkpt lat="48.3801901" lon="15.6667342">
        <ele>158.308</ele>
        <time>2019-05-05T08:59:23.138Z</time>
      </trkpt>
      <trkpt lat="48.3801418" lon="15.6669309">
        <ele>158.969</ele>
        <time>2019-05-05T08:59:25.155Z</time>
      </trkpt>
      <trkpt lat="48.3800874" lon="15.6671253">
        <ele>159.594</ele>
        <time>2019-05-05T08:59:27.242Z</time>
      </trkpt>
      <trkpt lat="48.3800406" lon="15.6673348">
        <ele>160.133</ele>
        <time>2019-05-05T08:59:29.531Z</time>
      </trkpt>
      <trkpt lat="48.3800011" lon="15.6675342">
        <ele>160.559</ele>
        <time>2019-05-05T08:59:31.736Z</time>
      </trkpt>
      <trkpt lat="48.3799666" lon="15.6677265">
        <ele>160.939</ele>
        <time>2019-05-05T08:59:33.858Z</time>
      </trkpt>
      <trkpt lat="48.3799085" lon="15.6679584">
        <ele>166.013</ele>
        <time>2019-05-05T08:59:36.478Z</time>
      </trkpt>
      <trkpt lat="48.3798505" lon="15.6681719">
        <ele>178.632</ele>
        <time>2019-05-05T08:59:38.913Z</time>
      </trkpt>
      <trkpt lat="48.3797892" lon="15.6683736">
        <ele>191.478</ele>
        <time>2019-05-05T08:59:41.326Z</time>
      </trkpt>
      <trkpt lat="48.3797542" lon="15.6685709">
        <ele>195.760</ele>
        <time>2019-05-05T08:59:43.681Z</time>
      </trkpt>
      <trkpt lat="48.3797300" lon="15.6687886">
        <ele>190.888</ele>
        <time>2019-05-05T08:59:46.323Z</time>
      </trkpt>
      <trkpt lat="48.3796902" lon="15.6689859">
        <ele>182.108</ele>
        <time>2019-05-05T08:59:48.725Z</time>
      </trkpt>
      <trkpt lat="48.3796515" lon="15.6691937">
        <ele>178.317</ele>
        <time>2019-05-05T08:59:51.159Z</time>
      </trkpt>
      <trkpt lat="48.3796158" lon="15.6693683">
        <ele>183.000</ele>
        <time>2019-05-05T08:59:53.219Z</time>
      </trkpt>
      <trkpt lat="48.3795881" lon="15.6695482">
        <ele>190.610</ele>
        <time>2019-05-05T08:59:55.316Z</time>
      </trkpt>
      <trkpt lat="48.3795538" lon="15.6697311">
        <ele>195.225</ele>
        <time>2019-05-05T08:59:57.499Z</time>
      </trkpt>
      <trkpt lat="48.3795315" lon="15.6699170">
        <ele>195.618</ele>
        <time>2019-05-05T08:59:59.622Z</time>
      </trkpt>
      <trkpt lat="48.3795033" lon="15.6700983">
        <ele>191.554</ele>
        <time>2019-05-05T09:00:01.652Z</time>
      </trkpt>
      <trkpt lat="48.3794805" lon="15.6702700">
        <ele>184.949</ele>
        <time>2019-05-05T09:00:03.547Z</time>
      </trkpt>
      <trkpt lat="48.3794541" lon="15.6704489">
        <ele>182.432</ele>
        <time>2019-05-05T09:00:05.530Z</time>
      </trkpt>
      <trkpt lat="48.3794408" lon="15.6705931">
        <ele>187.438</ele>
        <time>2019-05-05T09:00:07.087Z</time>
      </trkpt>
      <trkpt lat="48.3794302" lon="15.6707857">
        <ele>194.728</ele>
        <time>2019-05-05T09:00:09.124Z</time>
      </trkpt>
      <trkpt lat="48.3794194" lon="15.6709482">
        <ele>198.884</ele>
        <time>2019-05-05T09:00:10.884Z</time>
      </trkpt>
      <trkpt lat="48.3794077" lon="15.6711308">
        <ele>199.886</ele>
        <time>2019-05-05T09:00:12.827Z</time>
      </trkpt>
      <trkpt lat="48.3793949" lon="15.6713019">
        <ele>199.258</ele>
        <time>2019-05-05T09:00:14.648Z</time>
      </trkpt>
      <trkpt lat="48.3793838" lon="15.6714845">
        <ele>198.224</ele>
        <time>2019-05-05T09:00:16.588Z</time>
      </trkpt>
      <trkpt lat="48.3793753" lon="15.6716765">
        <ele>197.350</ele>
        <time>2019-05-05T09:00:18.623Z</time>
      </trkpt>
      <trkpt lat="48.3793551" lon="15.6718295">
        <ele>196.791</ele>
        <time>2019-05-05T09:00:20.232Z</time>
      </trkpt>
      <trkpt lat="48.3793470" lon="15.6720394">
        <ele>196.557</ele>
        <time>2019-05-05T09:00:22.398Z</time>
      </trkpt>
      <trkpt lat="48.3793361" lon="15.6722443">
        <ele>196.578</ele>
        <time>2019-05-05T09:00:24.542Z</time>
      </trkpt>
      <trkpt lat="48.3793183" lon="15.6724459">
        <ele>196.728</ele>
        <time>2019-05-05T09:00:26.684Z</time>
      </trkpt>
      <trkpt lat="48.3793077" lon="15.6726387">
        <ele>196.885</ele>
        <time>2019-05-05T09:00:28.738Z</time>
      </trkpt>
      <trkpt lat="48.3792822" lon="15.6728387">
        <ele>197.031</ele>
        <time>2019-05-05T09:00:30.914Z</time>
      </trkpt>
      <trkpt lat="48.3792691" lon="15.6730148">
        <ele>197.205</ele>
        <time>2019-05-05T09:00:32.794Z</time>
      </trkpt>
      <trkpt lat="48.3792608" lon="15.6731828">
        <ele>197.400</ele>
        <time>2019-05-05T09:00:34.577Z</time>
      </trkpt>
      <trkpt lat="48.3793403" lon="15.6740049">
        <ele>197.636</ele>
        <time>2019-05-05T09:00:43.965Z</time>
      </trkpt>
      <trkpt lat="48.3793541" lon="15.6742005">
        <ele>197.525</ele>
        <time>2019-05-05T09:00:46.176Z</time>
      </trkpt>
      <trkpt lat="48.3793833" lon="15.6744284">
        <ele>197.357</ele>
        <time>2019-05-05T09:00:48.802Z</time>
      </trkpt>
      <trkpt lat="48.3794074" lon="15.6746314">
        <ele>197.223</ele>
        <time>2019-05-05T09:00:51.140Z</time>
      </trkpt>
      <trkpt lat="48.3794393" lon="15.6748669">
        <ele>197.076</ele>
        <time>2019-05-05T09:00:53.826Z</time>
      </trkpt>
      <trkpt lat="48.3794658" lon="15.6750613">
        <ele>196.900</ele>
        <time>2019-05-05T09:00:56.067Z</time>
      </trkpt>
      <trkpt lat="48.3795034" lon="15.6752682">
        <ele>196.768</ele>
        <time>2019-05-05T09:00:58.567Z</time>
      </trkpt>
      <trkpt lat="48.3795347" lon="15.6754785">
        <ele>196.739</ele>
        <time>2019-05-05T09:01:01.104Z</time>
      </trkpt>
      <trkpt lat="48.3795423" lon="15.6756619">
        <ele>196.817</ele>
        <time>2019-05-05T09:01:03.279Z</time>
      </trkpt>
      <trkpt lat="48.3795650" lon="15.6758609">
        <ele>196.952</ele>
        <time>2019-05-05T09:01:05.721Z</time>
      </trkpt>
      <trkpt lat="48.3795845" lon="15.6759960">
        <ele>197.086</ele>
        <time>2019-05-05T09:01:07.390Z</time>
      </trkpt>
      <trkpt lat="48.3796069" lon="15.6761817">
        <ele>197.194</ele>
        <time>2019-05-05T09:01:09.602Z</time>
      </trkpt>
      <trkpt lat="48.3796310" lon="15.6763533">
        <ele>197.255</ele>
        <time>2019-05-05T09:01:11.601Z</time>
      </trkpt>
      <trkpt lat="48.3796530" lon="15.6765224">
        <ele>197.229</ele>
        <time>2019-05-05T09:01:13.542Z</time>
      </trkpt>
      <trkpt lat="48.3796682" lon="15.6767029">
        <ele>197.097</ele>
        <time>2019-05-05T09:01:15.595Z</time>
      </trkpt>
      <trkpt lat="48.3796886" lon="15.6768865">
        <ele>196.897</ele>
        <time>2019-05-05T09:01:17.691Z</time>
      </trkpt>
      <trkpt lat="48.3797304" lon="15.6770390">
        <ele>196.716</ele>
        <time>2019-05-05T09:01:19.514Z</time>
      </trkpt>
      <trkpt lat="48.3797741" lon="15.6772373">
        <ele>196.649</ele>
        <time>2019-05-05T09:01:21.787Z</time>
      </trkpt>
      <trkpt lat="48.3798059" lon="15.6774128">
        <ele>196.728</ele>
        <time>2019-05-05T09:01:23.747Z</time>
      </trkpt>
      <trkpt lat="48.3798222" lon="15.6775569">
        <ele>196.923</ele>
        <time>2019-05-05T09:01:25.317Z</time>
      </trkpt>
      <trkpt lat="48.3798540" lon="15.6777832">
        <ele>197.181</ele>
        <time>2019-05-05T09:01:27.814Z</time>
      </trkpt>
      <trkpt lat="48.3798899" lon="15.6779769">
        <ele>197.468</ele>
        <time>2019-05-05T09:01:29.994Z</time>
      </trkpt>
      <trkpt lat="48.3799106" lon="15.6781266">
        <ele>197.739</ele>
        <time>2019-05-05T09:01:31.676Z</time>
      </trkpt>
      <trkpt lat="48.3799406" lon="15.6782745">
        <ele>197.974</ele>
        <time>2019-05-05T09:01:33.387Z</time>
      </trkpt>
      <trkpt lat="48.3799662" lon="15.6784374">
        <ele>198.243</ele>
        <time>2019-05-05T09:01:35.216Z</time>
      </trkpt>
      <trkpt lat="48.3799977" lon="15.6786209">
        <ele>198.647</ele>
        <time>2019-05-05T09:01:37.245Z</time>
      </trkpt>
      <trkpt lat="48.3800096" lon="15.6788201">
        <ele>199.166</ele>
        <time>2019-05-05T09:01:39.392Z</time>
      </trkpt>
      <trkpt lat="48.3800218" lon="15.6790021">
        <ele>199.621</ele>
        <time>2019-05-05T09:01:41.415Z</time>
      </trkpt>
      <trkpt lat="48.3800473" lon="15.6791810">
        <ele>199.788</ele>
        <time>2019-05-05T09:01:43.444Z</time>
      </trkpt>
      <trkpt lat="48.3800844" lon="15.6793890">
        <ele>199.591</ele>
        <time>2019-05-05T09:01:45.817Z</time>
      </trkpt>
      <trkpt lat="48.3801136" lon="15.6795573">
        <ele>199.181</ele>
        <time>2019-05-05T09:01:47.783Z</time>
      </trkpt>
      <trkpt lat="48.3801437" lon="15.6797376">
        <ele>198.799</ele>
        <time>2019-05-05T09:01:49.910Z</time>
      </trkpt>
      <trkpt lat="48.3801633" lon="15.6799273">
        <ele>198.537</ele>
        <time>2019-05-05T09:01:52.082Z</time>
      </trkpt>
      <trkpt lat="48.3801897" lon="15.6801287">
        <ele>198.328</ele>
        <time>2019-05-05T09:01:54.364Z</time>
      </trkpt>
      <trkpt lat="48.3802185" lon="15.6802867">
        <ele>198.134</ele>
        <time>2019-05-05T09:01:56.145Z</time>
      </trkpt>
      <trkpt lat="48.3802519" lon="15.6804788">
        <ele>198.040</ele>
        <time>2019-05-05T09:01:58.257Z</time>
      </trkpt>
      <trkpt lat="48.3802998" lon="15.6806650">
        <ele>198.126</ele>
        <time>2019-05-05T09:02:00.392Z</time>
      </trkpt>
      <trkpt lat="48.3803333" lon="15.6808430">
        <ele>198.341</ele>
        <time>2019-05-05T09:02:02.416Z</time>
      </trkpt>
      <trkpt lat="48.3803623" lon="15.6810301">
        <ele>198.555</ele>
        <time>2019-05-05T09:02:04.554Z</time>
      </trkpt>
      <trkpt lat="48.3803944" lon="15.6812290">
        <ele>198.633</ele>
        <time>2019-05-05T09:02:06.875Z</time>
      </trkpt>
      <trkpt lat="48.3804378" lon="15.6814198">
        <ele>198.507</ele>
        <time>2019-05-05T09:02:09.229Z</time>
      </trkpt>
      <trkpt lat="48.3804736" lon="15.6815851">
        <ele>198.205</ele>
        <time>2019-05-05T09:02:11.315Z</time>
      </trkpt>
      <trkpt lat="48.3805034" lon="15.6817361">
        <ele>197.802</ele>
        <time>2019-05-05T09:02:13.255Z</time>
      </trkpt>
      <trkpt lat="48.3805272" lon="15.6818921">
        <ele>197.371</ele>
        <time>2019-05-05T09:02:15.263Z</time>
      </trkpt>
      <trkpt lat="48.3805650" lon="15.6820612">
        <ele>197.019</ele>
        <time>2019-05-05T09:02:17.566Z</time>
      </trkpt>
      <trkpt lat="48.3806071" lon="15.6822744">
        <ele>196.921</ele>
        <time>2019-05-05T09:02:20.703Z</time>
      </trkpt>
      <trkpt lat="48.3806368" lon="15.6824358">
        <ele>197.178</ele>
        <time>2019-05-05T09:02:23.240Z</time>
      </trkpt>
      <trkpt lat="48.3806698" lon="15.6825982">
        <ele>197.615</ele>
        <time>2019-05-05T09:02:26.217Z</time>
      </trkpt>
      <trkpt lat="48.3806864" lon="15.6827880">
        <ele>197.938</ele>
        <time>2019-05-05T09:02:30.160Z</time>
      </trkpt>
      <trkpt lat="48.3807106" lon="15.6829736">
        <ele>198.011</ele>
        <time>2019-05-05T09:02:34.991Z</time>
      </trkpt>
      <trkpt lat="48.3807373" lon="15.6831470">
        <ele>197.853</ele>
        <time>2019-05-05T09:02:40.071Z</time>
      </trkpt>
      <trkpt lat="48.3807448" lon="15.6833456">
        <ele>197.522</ele>
        <time>2019-05-05T09:02:46.137Z</time>
      </trkpt>
      <trkpt lat="48.3807569" lon="15.6835323">
        <ele>197.098</ele>
        <time>2019-05-05T09:02:51.537Z</time>
      </trkpt>
      <trkpt lat="48.3807837" lon="15.6837374">
        <ele>196.692</ele>
        <time>2019-05-05T09:02:57.556Z</time>
      </trkpt>
      <trkpt lat="48.3808169" lon="15.6838875">
        <ele>196.410</ele>
        <time>2019-05-05T09:03:01.955Z</time>
      </trkpt>
      <trkpt lat="48.3808527" lon="15.6840727">
        <ele>196.278</ele>
        <time>2019-05-05T09:03:07.899Z</time>
      </trkpt>
      <trkpt lat="48.3808730" lon="15.6842889">
        <ele>196.283</ele>
        <time>2019-05-05T09:03:19.938Z</time>
      </trkpt>
      <trkpt lat="48.3808939" lon="15.6844476">
        <ele>196.387</ele>
        <time>2019-05-05T09:03:31.050Z</time>
      </trkpt>
      <trkpt lat="48.3809167" lon="15.6846028">
        <ele>196.543</ele>
        <time>2019-05-05T09:03:41.966Z</time>
      </trkpt>
      <trkpt lat="48.3807220" lon="15.6849590">
        <ele>196.704</ele>
        <time>2019-05-05T09:04:13.648Z</time>
      </trkpt>
      <trkpt lat="48.3806958" lon="15.6851138">
        <ele>196.749</ele>
        <time>2019-05-05T09:04:24.611Z</time>
      </trkpt>
      <trkpt lat="48.3807136" lon="15.6852843">
        <ele>196.583</ele>
        <time>2019-05-05T09:04:36.456Z</time>
      </trkpt>
      <trkpt lat="48.3807437" lon="15.6854561">
        <ele>196.323</ele>
        <time>2019-05-05T09:04:48.655Z</time>
      </trkpt>
      <trkpt lat="48.3807755" lon="15.6855835">
        <ele>196.141</ele>
        <time>2019-05-05T09:04:58.001Z</time>
      </trkpt>
      <trkpt lat="48.3807904" lon="15.6857174">
        <ele>196.072</ele>
        <time>2019-05-05T09:05:07.320Z</time>
      </trkpt>
      <trkpt lat="48.3808032" lon="15.6858576">
        <ele>196.101</ele>
        <time>2019-05-05T09:05:17.038Z</time>
      </trkpt>
      <trkpt lat="48.3808227" lon="15.6860103">
        <ele>196.207</ele>
        <time>2019-05-05T09:05:27.713Z</time>
      </trkpt>
      <trkpt lat="48.3808391" lon="15.6861647">
        <ele>196.350</ele>
        <time>2019-05-05T09:05:38.444Z</time>
      </trkpt>
      <trkpt lat="48.3808557" lon="15.6863388">
        <ele>196.476</ele>
        <time>2019-05-05T09:05:50.521Z</time>
      </trkpt>
      <trkpt lat="48.3808780" lon="15.6864797">
        <ele>194.598</ele>
        <time>2019-05-05T09:06:00.462Z</time>
      </trkpt>
      <trkpt lat="48.3809164" lon="15.6866042">
        <ele>187.185</ele>
        <time>2019-05-05T09:06:09.892Z</time>
      </trkpt>
      <trkpt lat="48.3809597" lon="15.6867463">
        <ele>174.749</ele>
        <time>2019-05-05T09:06:20.632Z</time>
      </trkpt>
      <trkpt lat="48.3814089" lon="15.6868851">
        <ele>159.218</ele>
        <time>2019-05-05T09:07:36.150Z</time>
      </trkpt>
      <trkpt lat="48.3814981" lon="15.6868669">
        <ele>166.563</ele>
        <time>2019-05-05T09:08:22.545Z</time>
      </trkpt>
      <trkpt lat="48.3815763" lon="15.6869747">
        <ele>180.582</ele>
        <time>2019-05-05T09:08:55.714Z</time>
      </trkpt>
      <trkpt lat="48.3816309" lon="15.6871000">
        <ele>192.004</ele>
        <time>2019-05-05T09:09:26.858Z</time>
      </trkpt>
      <trkpt lat="48.3816883" lon="15.6872299">
        <ele>196.880</ele>
        <time>2019-05-05T09:09:59.296Z</time>
      </trkpt>
      <trkpt lat="48.3817397" lon="15.6873651">
        <ele>197.306</ele>
        <time>2019-05-05T09:10:31.678Z</time>
      </trkpt>
      <trkpt lat="48.3818028" lon="15.6874962">
        <ele>196.117</ele>
        <time>2019-05-05T09:11:05.326Z</time>
      </trkpt>
      <trkpt lat="48.3818744" lon="15.6876129">
        <ele>195.078</ele>
        <time>2019-05-05T09:11:38.355Z</time>
      </trkpt>
      <trkpt lat="48.3819424" lon="15.6877798">
        <ele>194.751</ele>
        <time>2019-05-05T09:11:51.581Z</time>
      </trkpt>
      <trkpt lat="48.3820230" lon="15.6879626">
        <ele>194.912</ele>
        <time>2019-05-05T09:11:56.590Z</time>
      </trkpt>
      <trkpt lat="48.3820803" lon="15.6880815">
        <ele>195.136</ele>
        <time>2019-05-05T09:11:59.431Z</time>
      </trkpt>
      <trkpt lat="48.3821582" lon="15.6882471">
        <ele>195.209</ele>
        <time>2019-05-05T09:12:03.064Z</time>
      </trkpt>
      <trkpt lat="48.3822150" lon="15.6883604">
        <ele>195.238</ele>
        <time>2019-05-05T09:12:05.437Z</time>
      </trkpt>
      <trkpt lat="48.3822820" lon="15.6884703">
        <ele>195.360</ele>
        <time>2019-05-05T09:12:07.839Z</time>
      </trkpt>
      <trkpt lat="48.3823533" lon="15.6886103">
        <ele>195.489</ele>
        <time>2019-05-05T09:12:10.529Z</time>
      </trkpt>
      <trkpt lat="48.3824154" lon="15.6887626">
        <ele>195.514</ele>
        <time>2019-05-05T09:12:13.174Z</time>
      </trkpt>
      <trkpt lat="48.3824820" lon="15.6888804">
        <ele>195.525</ele>
        <time>2019-05-05T09:12:15.402Z</time>
      </trkpt>
      <trkpt lat="48.3825698" lon="15.6889963">
        <ele>195.617</ele>
        <time>2019-05-05T09:12:17.819Z</time>
      </trkpt>
      <trkpt lat="48.3826550" lon="15.6890934">
        <ele>195.707</ele>
        <time>2019-05-05T09:12:19.924Z</time>
      </trkpt>
      <trkpt lat="48.3827376" lon="15.6892083">
        <ele>195.699</ele>
        <time>2019-05-05T09:12:22.072Z</time>
      </trkpt>
      <trkpt lat="48.3827824" lon="15.6893823">
        <ele>195.665</ele>
        <time>2019-05-05T09:12:24.403Z</time>
      </trkpt>
      <trkpt lat="48.3828429" lon="15.6895255">
        <ele>195.684</ele>
        <time>2019-05-05T09:12:26.505Z</time>
      </trkpt>
      <trkpt lat="48.3829174" lon="15.6896707">
        <ele>195.740</ele>
        <time>2019-05-05T09:12:28.740Z</time>
      </trkpt>
      <trkpt lat="48.3830013" lon="15.6898334">
        <ele>195.791</ele>
        <time>2019-05-05T09:12:31.194Z</time>
      </trkpt>
      <trkpt lat="48.3830629" lon="15.6899632">
        <ele>195.895</ele>
        <time>2019-05-05T09:12:33.061Z</time>
      </trkpt>
      <trkpt lat="48.3831350" lon="15.6900798">
        <ele>196.144</ele>
        <time>2019-05-05T09:12:34.885Z</time>
      </trkpt>
      <trkpt lat="48.3832103" lon="15.6901976">
        <ele>196.460</ele>
        <time>2019-05-05T09:12:36.732Z</time>
      </trkpt>
      <trkpt lat="48.3832865" lon="15.6903008">
        <ele>196.650</ele>
        <time>2019-05-05T09:12:38.486Z</time>
      </trkpt>
      <trkpt lat="48.3833603" lon="15.6904362">
        <ele>196.665</ele>
        <time>2019-05-05T09:12:40.508Z</time>
      </trkpt>
      <trkpt lat="48.3834333" lon="15.6905807">
        <ele>196.601</ele>
        <time>2019-05-05T09:12:42.649Z</time>
      </trkpt>
      <trkpt lat="48.3834900" lon="15.6907403">
        <ele>196.548</ele>
        <time>2019-05-05T09:12:44.820Z</time>
      </trkpt>
      <trkpt lat="48.3835444" lon="15.6908917">
        <ele>196.519</ele>
        <time>2019-05-05T09:12:46.894Z</time>
      </trkpt>
      <trkpt lat="48.3835761" lon="15.6910235">
        <ele>196.503</ele>
        <time>2019-05-05T09:12:48.571Z</time>
      </trkpt>
      <trkpt lat="48.3836214" lon="15.6911844">
        <ele>196.534</ele>
        <time>2019-05-05T09:12:50.637Z</time>
      </trkpt>
      <trkpt lat="48.3836578" lon="15.6913484">
        <ele>196.700</ele>
        <time>2019-05-05T09:12:52.690Z</time>
      </trkpt>
      <trkpt lat="48.3836911" lon="15.6914887">
        <ele>196.999</ele>
        <time>2019-05-05T09:12:54.486Z</time>
      </trkpt>
      <trkpt lat="48.3837322" lon="15.6916122">
        <ele>197.285</ele>
        <time>2019-05-05T09:12:56.166Z</time>
      </trkpt>
      <trkpt lat="48.3837784" lon="15.6917667">
        <ele>197.412</ele>
        <time>2019-05-05T09:12:58.253Z</time>
      </trkpt>
      <trkpt lat="48.3838159" lon="15.6919309">
        <ele>197.338</ele>
        <time>2019-05-05T09:13:00.413Z</time>
      </trkpt>
      <trkpt lat="48.3838639" lon="15.6920582">
        <ele>197.145</ele>
        <time>2019-05-05T09:13:02.233Z</time>
      </trkpt>
      <trkpt lat="48.3839200" lon="15.6921909">
        <ele>197.027</ele>
        <time>2019-05-05T09:13:04.175Z</time>
      </trkpt>
      <trkpt lat="48.3839889" lon="15.6923215">
        <ele>197.108</ele>
        <time>2019-05-05T09:13:06.225Z</time>
      </trkpt>
      <trkpt lat="48.3840471" lon="15.6924530">
        <ele>197.300</ele>
        <time>2019-05-05T09:13:08.173Z</time>
      </trkpt>
      <trkpt lat="48.3841133" lon="15.6925886">
        <ele>197.396</ele>
        <time>2019-05-05T09:13:10.264Z</time>
      </trkpt>
      <trkpt lat="48.3841816" lon="15.6927227">
        <ele>197.264</ele>
        <time>2019-05-05T09:13:12.378Z</time>
      </trkpt>
      <trkpt lat="48.3842496" lon="15.6928279">
        <ele>196.985</ele>
        <time>2019-05-05T09:13:14.214Z</time>
      </trkpt>
      <trkpt lat="48.3843078" lon="15.6929494">
        <ele>196.805</ele>
        <time>2019-05-05T09:13:16.070Z</time>
      </trkpt>
      <trkpt lat="48.3843490" lon="15.6930741">
        <ele>196.832</ele>
        <time>2019-05-05T09:13:17.778Z</time>
      </trkpt>
      <trkpt lat="48.3843892" lon="15.6932030">
        <ele>196.908</ele>
        <time>2019-05-05T09:13:19.520Z</time>
      </trkpt>
      <trkpt lat="48.3844675" lon="15.6933566">
        <ele>196.882</ele>
        <time>2019-05-05T09:13:21.932Z</time>
      </trkpt>
      <trkpt lat="48.3845248" lon="15.6934639">
        <ele>196.855</ele>
        <time>2019-05-05T09:13:23.702Z</time>
      </trkpt>
      <trkpt lat="48.3845905" lon="15.6936129">
        <ele>196.947</ele>
        <time>2019-05-05T09:13:26.111Z</time>
      </trkpt>
      <trkpt lat="48.3846301" lon="15.6937483">
        <ele>197.085</ele>
        <time>2019-05-05T09:13:28.170Z</time>
      </trkpt>
      <trkpt lat="48.3846847" lon="15.6938846">
        <ele>197.115</ele>
        <time>2019-05-05T09:13:30.477Z</time>
      </trkpt>
      <trkpt lat="48.3847449" lon="15.6940223">
        <ele>196.981</ele>
        <time>2019-05-05T09:13:32.851Z</time>
      </trkpt>
      <trkpt lat="48.3848063" lon="15.6942102">
        <ele>196.779</ele>
        <time>2019-05-05T09:13:35.765Z</time>
      </trkpt>
      <trkpt lat="48.3848463" lon="15.6943588">
        <ele>196.635</ele>
        <time>2019-05-05T09:13:37.938Z</time>
      </trkpt>
      <trkpt lat="48.3848913" lon="15.6944780">
        <ele>196.573</ele>
        <time>2019-05-05T09:13:39.791Z</time>
      </trkpt>
      <trkpt lat="48.3849329" lon="15.6945985">
        <ele>196.603</ele>
        <time>2019-05-05T09:13:41.626Z</time>
      </trkpt>
      <trkpt lat="48.3849738" lon="15.6947495">
        <ele>196.716</ele>
        <time>2019-05-05T09:13:43.822Z</time>
      </trkpt>
      <trkpt lat="48.3850176" lon="15.6948801">
        <ele>196.836</ele>
        <time>2019-05-05T09:13:45.790Z</time>
      </trkpt>
      <trkpt lat="48.3850883" lon="15.6950081">
        <ele>196.901</ele>
        <time>2019-05-05T09:13:48.033Z</time>
      </trkpt>
      <trkpt lat="48.3851519" lon="15.6951471">
        <ele>196.931</ele>
        <time>2019-05-05T09:13:50.273Z</time>
      </trkpt>
      <trkpt lat="48.3852040" lon="15.6952933">
        <ele>196.955</ele>
        <time>2019-05-05T09:13:52.430Z</time>
      </trkpt>
      <trkpt lat="48.3852604" lon="15.6954359">
        <ele>196.944</ele>
        <time>2019-05-05T09:13:54.561Z</time>
      </trkpt>
      <trkpt lat="48.3853060" lon="15.6955708">
        <ele>196.865</ele>
        <time>2019-05-05T09:13:56.484Z</time>
      </trkpt>
      <trkpt lat="48.3853582" lon="15.6957035">
        <ele>196.760</ele>
        <time>2019-05-05T09:13:58.424Z</time>
      </trkpt>
      <trkpt lat="48.3853984" lon="15.6958524">
        <ele>196.673</ele>
        <time>2019-05-05T09:14:00.449Z</time>
      </trkpt>
      <trkpt lat="48.3854239" lon="15.6959823">
        <ele>196.583</ele>
        <time>2019-05-05T09:14:02.186Z</time>
      </trkpt>
      <trkpt lat="48.3854696" lon="15.6961381">
        <ele>196.481</ele>
        <time>2019-05-05T09:14:04.402Z</time>
      </trkpt>
      <trkpt lat="48.3854946" lon="15.6962995">
        <ele>196.409</ele>
        <time>2019-05-05T09:14:06.570Z</time>
      </trkpt>
      <trkpt lat="48.3855575" lon="15.6964276">
        <ele>196.425</ele>
        <time>2019-05-05T09:14:08.649Z</time>
      </trkpt>
      <trkpt lat="48.3856038" lon="15.6966112">
        <ele>196.597</ele>
        <time>2019-05-05T09:14:11.176Z</time>
      </trkpt>
      <trkpt lat="48.3856580" lon="15.6967660">
        <ele>196.879</ele>
        <time>2019-05-05T09:14:13.376Z</time>
      </trkpt>
      <trkpt lat="48.3856834" lon="15.6969405">
        <ele>197.060</ele>
        <time>2019-05-05T09:14:15.572Z</time>
      </trkpt>
      <trkpt lat="48.3857242" lon="15.6970884">
        <ele>197.004</ele>
        <time>2019-05-05T09:14:17.507Z</time>
      </trkpt>
      <trkpt lat="48.3857588" lon="15.6972547">
        <ele>196.818</ele>
        <time>2019-05-05T09:14:19.592Z</time>
      </trkpt>
      <trkpt lat="48.3858206" lon="15.6974031">
        <ele>196.669</ele>
        <time>2019-05-05T09:14:21.675Z</time>
      </trkpt>
      <trkpt lat="48.3858673" lon="15.6975520">
        <ele>196.610</ele>
        <time>2019-05-05T09:14:23.623Z</time>
      </trkpt>
      <trkpt lat="48.3858970" lon="15.6977130">
        <ele>196.603</ele>
        <time>2019-05-05T09:14:25.589Z</time>
      </trkpt>
      <trkpt lat="48.3859466" lon="15.6978647">
        <ele>196.600</ele>
        <time>2019-05-05T09:14:27.579Z</time>
      </trkpt>
      <trkpt lat="48.3859876" lon="15.6979951">
        <ele>196.579</ele>
        <time>2019-05-05T09:14:29.295Z</time>
      </trkpt>
      <trkpt lat="48.3860302" lon="15.6981312">
        <ele>196.555</ele>
        <time>2019-05-05T09:14:31.120Z</time>
      </trkpt>
      <trkpt lat="48.3860834" lon="15.6982672">
        <ele>196.603</ele>
        <time>2019-05-05T09:14:33.070Z</time>
      </trkpt>
      <trkpt lat="48.3861467" lon="15.6984281">
        <ele>196.782</ele>
        <time>2019-05-05T09:14:35.425Z</time>
      </trkpt>
      <trkpt lat="48.3862106" lon="15.6985989">
        <ele>197.051</ele>
        <time>2019-05-05T09:14:37.938Z</time>
      </trkpt>
      <trkpt lat="48.3862568" lon="15.6987582">
        <ele>197.294</ele>
        <time>2019-05-05T09:14:40.142Z</time>
      </trkpt>
      <trkpt lat="48.3862935" lon="15.6989057">
        <ele>197.386</ele>
        <time>2019-05-05T09:14:42.073Z</time>
      </trkpt>
      <trkpt lat="48.3863307" lon="15.6990711">
        <ele>197.264</ele>
        <time>2019-05-05T09:14:44.161Z</time>
      </trkpt>
      <trkpt lat="48.3863660" lon="15.6992303">
        <ele>197.010</ele>
        <time>2019-05-05T09:14:46.155Z</time>
      </trkpt>
      <trkpt lat="48.3863940" lon="15.6993903">
        <ele>196.769</ele>
        <time>2019-05-05T09:14:48.125Z</time>
      </trkpt>
      <trkpt lat="48.3864010" lon="15.6995262">
        <ele>196.618</ele>
        <time>2019-05-05T09:14:49.752Z</time>
      </trkpt>
      <trkpt lat="48.3864506" lon="15.6996967">
        <ele>196.567</ele>
        <time>2019-05-05T09:14:51.994Z</time>
      </trkpt>
      <trkpt lat="48.3864774" lon="15.6998660">
        <ele>196.618</ele>
        <time>2019-05-05T09:14:54.115Z</time>
      </trkpt>
      <trkpt lat="48.3865070" lon="15.7000086">
        <ele>196.739</ele>
        <time>2019-05-05T09:14:55.946Z</time>
      </trkpt>
      <trkpt lat="48.3865376" lon="15.7001592">
        <ele>196.827</ele>
        <time>2019-05-05T09:14:57.887Z</time>
      </trkpt>
      <trkpt lat="48.3865459" lon="15.7003114">
        <ele>196.773</ele>
        <time>2019-05-05T09:14:59.786Z</time>
      </trkpt>
      <trkpt lat="48.3865572" lon="15.7004647">
        <ele>196.569</ele>
        <time>2019-05-05T09:15:01.713Z</time>
      </trkpt>
      <trkpt lat="48.3865649" lon="15.7006401">
        <ele>196.317</ele>
        <time>2019-05-05T09:15:03.915Z</time>
      </trkpt>
      <trkpt lat="48.3865793" lon="15.7008233">
        <ele>196.122</ele>
        <time>2019-05-05T09:15:06.236Z</time>
      </trkpt>
      <trkpt lat="48.3865849" lon="15.7009959">
        <ele>196.010</ele>
        <time>2019-05-05T09:15:08.383Z</time>
      </trkpt>
      <trkpt lat="48.3866020" lon="15.7011633">
        <ele>195.952</ele>
        <time>2019-05-05T09:15:10.450Z</time>
      </trkpt>
      <trkpt lat="48.3866103" lon="15.7013057">
        <ele>195.920</ele>
        <time>2019-05-05T09:15:12.181Z</time>
      </trkpt>
      <trkpt lat="48.3866204" lon="15.7014757">
        <ele>195.917</ele>
        <time>2019-05-05T09:15:14.248Z</time>
      </trkpt>
      <trkpt lat="48.3866213" lon="15.7016409">
        <ele>195.992</ele>
        <time>2019-05-05T09:15:16.268Z</time>
      </trkpt>
      <trkpt lat="48.3866412" lon="15.7018107">
        <ele>196.145</ele>
        <time>2019-05-05T09:15:18.405Z</time>
      </trkpt>
      <trkpt lat="48.3866576" lon="15.7019648">
        <ele>195.595</ele>
        <time>2019-05-05T09:15:20.344Z</time>
      </trkpt>
      <trkpt lat="48.3866717" lon="15.7021297">
        <ele>193.383</ele>
        <time>2019-05-05T09:15:22.396Z</time>
      </trkpt>
      <trkpt lat="48.3866810" lon="15.7022846">
        <ele>189.995</ele>
        <time>2019-05-05T09:15:24.311Z</time>
      </trkpt>
      <trkpt lat="48.3866920" lon="15.7024442">
        <ele>187.030</ele>
        <time>2019-05-05T09:15:26.298Z</time>
      </trkpt>
      <trkpt lat="48.3866893" lon="15.7026096">
        <ele>186.866</ele>
        <time>2019-05-05T09:15:28.378Z</time>
      </trkpt>
      <trkpt lat="48.3867026" lon="15.7027936">
        <ele>190.415</ele>
        <time>2019-05-05T09:15:30.732Z</time>
      </trkpt>
      <trkpt lat="48.3867044" lon="15.7029649">
        <ele>194.955</ele>
        <time>2019-05-05T09:15:32.896Z</time>
      </trkpt>
      <trkpt lat="48.3867067" lon="15.7031400">
        <ele>197.610</ele>
        <time>2019-05-05T09:15:35.046Z</time>
      </trkpt>
      <trkpt lat="48.3867046" lon="15.7033250">
        <ele>198.377</ele>
        <time>2019-05-05T09:15:37.263Z</time>
      </trkpt>
      <trkpt lat="48.3866777" lon="15.7034875">
        <ele>198.267</ele>
        <time>2019-05-05T09:15:39.231Z</time>
      </trkpt>
      <trkpt lat="48.3866833" lon="15.7036455">
        <ele>197.976</ele>
        <time>2019-05-05T09:15:41.084Z</time>
      </trkpt>
      <trkpt lat="48.3867008" lon="15.7038029">
        <ele>197.743</ele>
        <time>2019-05-05T09:15:42.984Z</time>
      </trkpt>
      <trkpt lat="48.3866985" lon="15.7039665">
        <ele>197.615</ele>
        <time>2019-05-05T09:15:44.991Z</time>
      </trkpt>
      <trkpt lat="48.3867071" lon="15.7041298">
        <ele>197.558</ele>
        <time>2019-05-05T09:15:47.042Z</time>
      </trkpt>
      <trkpt lat="48.3867074" lon="15.7042971">
        <ele>197.484</ele>
        <time>2019-05-05T09:15:49.154Z</time>
      </trkpt>
      <trkpt lat="48.3867069" lon="15.7044673">
        <ele>197.308</ele>
        <time>2019-05-05T09:15:51.313Z</time>
      </trkpt>
      <trkpt lat="48.3867044" lon="15.7046416">
        <ele>197.042</ele>
        <time>2019-05-05T09:15:53.498Z</time>
      </trkpt>
      <trkpt lat="48.3866978" lon="15.7047895">
        <ele>196.807</ele>
        <time>2019-05-05T09:15:55.328Z</time>
      </trkpt>
      <trkpt lat="48.3867049" lon="15.7049647">
        <ele>196.736</ele>
        <time>2019-05-05T09:15:57.488Z</time>
      </trkpt>
      <trkpt lat="48.3867203" lon="15.7051356">
        <ele>196.835</ele>
        <time>2019-05-05T09:15:59.615Z</time>
      </trkpt>
      <trkpt lat="48.3867288" lon="15.7053046">
        <ele>196.952</ele>
        <time>2019-05-05T09:16:01.706Z</time>
      </trkpt>
      <trkpt lat="48.3867217" lon="15.7054705">
        <ele>196.966</ele>
        <time>2019-05-05T09:16:03.753Z</time>
      </trkpt>
      <trkpt lat="48.3867104" lon="15.7056290">
        <ele>196.946</ele>
        <time>2019-05-05T09:16:05.716Z</time>
      </trkpt>
      <trkpt lat="48.3867000" lon="15.7057749">
        <ele>196.980</ele>
        <time>2019-05-05T09:16:07.528Z</time>
      </trkpt>
      <trkpt lat="48.3866934" lon="15.7059430">
        <ele>197.012</ele>
        <time>2019-05-05T09:16:09.619Z</time>
      </trkpt>
      <trkpt lat="48.3866763" lon="15.7061142">
        <ele>196.937</ele>
        <time>2019-05-05T09:16:11.770Z</time>
      </trkpt>
      <trkpt lat="48.3866749" lon="15.7063327">
        <ele>196.768</ele>
        <time>2019-05-05T09:16:14.497Z</time>
      </trkpt>
      <trkpt lat="48.3866707" lon="15.7065093">
        <ele>196.741</ele>
        <time>2019-05-05T09:16:16.719Z</time>
      </trkpt>
      <trkpt lat="48.3866691" lon="15.7066843">
        <ele>197.022</ele>
        <time>2019-05-05T09:16:18.921Z</time>
      </trkpt>
      <trkpt lat="48.3866611" lon="15.7068877">
        <ele>197.462</ele>
        <time>2019-05-05T09:16:21.429Z</time>
      </trkpt>
      <trkpt lat="48.3866601" lon="15.7070738">
        <ele>197.829</ele>
        <time>2019-05-05T09:16:23.631Z</time>
      </trkpt>
      <trkpt lat="48.3866522" lon="15.7072472">
        <ele>197.892</ele>
        <time>2019-05-05T09:16:25.625Z</time>
      </trkpt>
      <trkpt lat="48.3866525" lon="15.7074192">
        <ele>197.580</ele>
        <time>2019-05-05T09:16:27.573Z</time>
      </trkpt>
      <trkpt lat="48.3866519" lon="15.7075907">
        <ele>197.252</ele>
        <time>2019-05-05T09:16:29.517Z</time>
      </trkpt>
      <trkpt lat="48.3866477" lon="15.7077478">
        <ele>197.205</ele>
        <time>2019-05-05T09:16:31.315Z</time>
      </trkpt>
      <trkpt lat="48.3866536" lon="15.7079377">
        <ele>197.323</ele>
        <time>2019-05-05T09:16:33.502Z</time>
      </trkpt>
      <trkpt lat="48.3866388" lon="15.7081464">
        <ele>197.365</ele>
        <time>2019-05-05T09:16:35.895Z</time>
      </trkpt>
      <trkpt lat="48.3866235" lon="15.7083361">
        <ele>197.173</ele>
        <time>2019-05-05T09:16:38.031Z</time>
      </trkpt>
      <trkpt lat="48.3866221" lon="15.7085143">
        <ele>196.731</ele>
        <time>2019-05-05T09:16:40.002Z</time>
      </trkpt>
      <trkpt lat="48.3866221" lon="15.7085143">
        <ele>196.223</ele>
        <time>2019-05-05T09:16:41.002Z</time>
      </trkpt>
      <trkpt lat="48.3866221" lon="15.7085143">
        <ele>195.904</ele>
        <time>2019-05-05T09:16:41.102Z</time>
      </trkpt>
      <trkpt lat="48.3866038" lon="15.7088160">
        <ele>195.879</ele>
        <time>2019-05-05T09:16:46.290Z</time>
      </trkpt>
      <trkpt lat="48.3865968" lon="15.7089761">
        <ele>195.999</ele>
        <time>2019-05-05T09:16:48.329Z</time>
      </trkpt>
      <trkpt lat="48.3865717" lon="15.7091153">
        <ele>196.053</ele>
        <time>2019-05-05T09:16:50.086Z</time>
      </trkpt>
      <trkpt lat="48.3865478" lon="15.7092656">
        <ele>195.988</ele>
        <time>2019-05-05T09:16:51.845Z</time>
      </trkpt>
      <trkpt lat="48.3865298" lon="15.7094397">
        <ele>195.892</ele>
        <time>2019-05-05T09:16:53.746Z</time>
      </trkpt>
      <trkpt lat="48.3865122" lon="15.7096511">
        <ele>195.855</ele>
        <time>2019-05-05T09:16:55.980Z</time>
      </trkpt>
      <trkpt lat="48.3865020" lon="15.7098236">
        <ele>195.930</ele>
        <time>2019-05-05T09:16:57.851Z</time>
      </trkpt>
      <trkpt lat="48.3864984" lon="15.7099927">
        <ele>196.092</ele>
        <time>2019-05-05T09:16:59.772Z</time>
      </trkpt>
      <trkpt lat="48.3864881" lon="15.7101699">
        <ele>196.279</ele>
        <time>2019-05-05T09:17:01.819Z</time>
      </trkpt>
      <trkpt lat="48.3864682" lon="15.7103923">
        <ele>196.432</ele>
        <time>2019-05-05T09:17:04.375Z</time>
      </trkpt>
      <trkpt lat="48.3864324" lon="15.7106135">
        <ele>196.491</ele>
        <time>2019-05-05T09:17:06.925Z</time>
      </trkpt>
      <trkpt lat="48.3863977" lon="15.7108694">
        <ele>196.449</ele>
        <time>2019-05-05T09:17:09.815Z</time>
      </trkpt>
      <trkpt lat="48.3863502" lon="15.7110997">
        <ele>196.404</ele>
        <time>2019-05-05T09:17:12.455Z</time>
      </trkpt>
      <trkpt lat="48.3863289" lon="15.7113832">
        <ele>196.431</ele>
        <time>2019-05-05T09:17:15.549Z</time>
      </trkpt>
      <trkpt lat="48.3862949" lon="15.7116190">
        <ele>196.461</ele>
        <time>2019-05-05T09:17:18.184Z</time>
      </trkpt>
      <trkpt lat="48.3862497" lon="15.7118821">
        <ele>196.366</ele>
        <time>2019-05-05T09:17:21.196Z</time>
      </trkpt>
      <trkpt lat="48.3862179" lon="15.7120600">
        <ele>196.157</ele>
        <time>2019-05-05T09:17:23.227Z</time>
      </trkpt>
      <trkpt lat="48.3861782" lon="15.7122413">
        <ele>196.012</ele>
        <time>2019-05-05T09:17:25.325Z</time>
      </trkpt>
      <trkpt lat="48.3861592" lon="15.7124149">
        <ele>196.083</ele>
        <time>2019-05-05T09:17:27.265Z</time>
      </trkpt>
      <trkpt lat="48.3861181" lon="15.7125703">
        <ele>196.326</ele>
        <time>2019-05-05T09:17:29.131Z</time>
      </trkpt>
      <trkpt lat="48.3860920" lon="15.7127531">
        <ele>196.574</ele>
        <time>2019-05-05T09:17:31.233Z</time>
      </trkpt>
      <trkpt lat="48.3860518" lon="15.7129223">
        <ele>196.684</ele>
        <time>2019-05-05T09:17:33.223Z</time>
      </trkpt>
      <trkpt lat="48.3860155" lon="15.7130931">
        <ele>196.588</ele>
        <time>2019-05-05T09:17:35.158Z</time>
      </trkpt>
      <trkpt lat="48.3859787" lon="15.7132762">
        <ele>196.305</ele>
        <time>2019-05-05T09:17:37.229Z</time>
      </trkpt>
      <trkpt lat="48.3859430" lon="15.7134213">
        <ele>195.971</ele>
        <time>2019-05-05T09:17:38.964Z</time>
      </trkpt>
      <trkpt lat="48.3859139" lon="15.7135677">
        <ele>195.748</ele>
        <time>2019-05-05T09:17:40.752Z</time>
      </trkpt>
      <trkpt lat="48.3858689" lon="15.7137372">
        <ele>195.673</ele>
        <time>2019-05-05T09:17:42.889Z</time>
      </trkpt>
      <trkpt lat="48.3858319" lon="15.7139181">
        <ele>195.675</ele>
        <time>2019-05-05T09:17:45.023Z</time>
      </trkpt>
      <trkpt lat="48.3857864" lon="15.7140850">
        <ele>195.686</ele>
        <time>2019-05-05T09:17:46.984Z</time>
      </trkpt>
      <trkpt lat="48.3857371" lon="15.7142585">
        <ele>195.670</ele>
        <time>2019-05-05T09:17:49.016Z</time>
      </trkpt>
      <trkpt lat="48.3856886" lon="15.7144024">
        <ele>195.577</ele>
        <time>2019-05-05T09:17:50.800Z</time>
      </trkpt>
      <trkpt lat="48.3856570" lon="15.7145604">
        <ele>195.399</ele>
        <time>2019-05-05T09:17:52.664Z</time>
      </trkpt>
      <trkpt lat="48.3856301" lon="15.7147218">
        <ele>195.242</ele>
        <time>2019-05-05T09:17:54.511Z</time>
      </trkpt>
      <trkpt lat="48.3855822" lon="15.7148629">
        <ele>195.202</ele>
        <time>2019-05-05T09:17:56.260Z</time>
      </trkpt>
      <trkpt lat="48.3855453" lon="15.7149963">
        <ele>195.278</ele>
        <time>2019-05-05T09:17:57.890Z</time>
      </trkpt>
      <trkpt lat="48.3854942" lon="15.7151491">
        <ele>195.418</ele>
        <time>2019-05-05T09:17:59.875Z</time>
      </trkpt>
      <trkpt lat="48.3854562" lon="15.7152879">
        <ele>195.551</ele>
        <time>2019-05-05T09:18:01.648Z</time>
      </trkpt>
      <trkpt lat="48.3854186" lon="15.7154387">
        <ele>195.597</ele>
        <time>2019-05-05T09:18:03.577Z</time>
      </trkpt>
      <trkpt lat="48.3853628" lon="15.7155840">
        <ele>195.533</ele>
        <time>2019-05-05T09:18:05.600Z</time>
      </trkpt>
      <trkpt lat="48.3853247" lon="15.7157440">
        <ele>195.467</ele>
        <time>2019-05-05T09:18:07.639Z</time>
      </trkpt>
      <trkpt lat="48.3852579" lon="15.7158880">
        <ele>195.522</ele>
        <time>2019-05-05T09:18:09.716Z</time>
      </trkpt>
      <trkpt lat="48.3851939" lon="15.7160620">
        <ele>195.680</ele>
        <time>2019-05-05T09:18:12.002Z</time>
      </trkpt>
      <trkpt lat="48.3851296" lon="15.7162194">
        <ele>195.777</ele>
        <time>2019-05-05T09:18:14.114Z</time>
      </trkpt>
      <trkpt lat="48.3850687" lon="15.7163793">
        <ele>195.728</ele>
        <time>2019-05-05T09:18:16.266Z</time>
      </trkpt>
      <trkpt lat="48.3850109" lon="15.7165288">
        <ele>195.623</ele>
        <time>2019-05-05T09:18:18.343Z</time>
      </trkpt>
      <trkpt lat="48.3849474" lon="15.7166933">
        <ele>195.623</ele>
        <time>2019-05-05T09:18:20.632Z</time>
      </trkpt>
      <trkpt lat="48.3848737" lon="15.7168809">
        <ele>195.765</ele>
        <time>2019-05-05T09:18:23.175Z</time>
      </trkpt>
      <trkpt lat="48.3848186" lon="15.7170171">
        <ele>195.898</ele>
        <time>2019-05-05T09:18:25.068Z</time>
      </trkpt>
      <trkpt lat="48.3847495" lon="15.7171888">
        <ele>195.896</ele>
        <time>2019-05-05T09:18:27.512Z</time>
      </trkpt>
      <trkpt lat="48.3846747" lon="15.7173532">
        <ele>195.822</ele>
        <time>2019-05-05T09:18:29.793Z</time>
      </trkpt>
      <trkpt lat="48.3845924" lon="15.7175365">
        <ele>195.767</ele>
        <time>2019-05-05T09:18:32.207Z</time>
      </trkpt>
      <trkpt lat="48.3845308" lon="15.7177043">
        <ele>195.730</ele>
        <time>2019-05-05T09:18:34.326Z</time>
      </trkpt>
      <trkpt lat="48.3844823" lon="15.7178556">
        <ele>195.687</ele>
        <time>2019-05-05T09:18:36.235Z</time>
      </trkpt>
      <trkpt lat="48.3844209" lon="15.7179782">
        <ele>195.646</ele>
        <time>2019-05-05T09:18:38.003Z</time>
      </trkpt>
      <trkpt lat="48.3843440" lon="15.7180996">
        <ele>195.604</ele>
        <time>2019-05-05T09:18:39.933Z</time>
      </trkpt>
      <trkpt lat="48.3842567" lon="15.7182018">
        <ele>195.511</ele>
        <time>2019-05-05T09:18:41.845Z</time>
      </trkpt>
      <trkpt lat="48.3841803" lon="15.7183392">
        <ele>195.376</ele>
        <time>2019-05-05T09:18:43.929Z</time>
      </trkpt>
      <trkpt lat="48.3841165" lon="15.7184728">
        <ele>195.294</ele>
        <time>2019-05-05T09:18:45.880Z</time>
      </trkpt>
      <trkpt lat="48.3840542" lon="15.7185952">
        <ele>195.317</ele>
        <time>2019-05-05T09:18:47.719Z</time>
      </trkpt>
      <trkpt lat="48.3839727" lon="15.7187320">
        <ele>195.373</ele>
        <time>2019-05-05T09:18:49.881Z</time>
      </trkpt>
      <trkpt lat="48.3838937" lon="15.7188667">
        <ele>195.394</ele>
        <time>2019-05-05T09:18:51.948Z</time>
      </trkpt>
      <trkpt lat="48.3838062" lon="15.7189994">
        <ele>195.401</ele>
        <time>2019-05-05T09:18:54.055Z</time>
      </trkpt>
      <trkpt lat="48.3837304" lon="15.7191295">
        <ele>195.427</ele>
        <time>2019-05-05T09:18:55.981Z</time>
      </trkpt>
      <trkpt lat="48.3836569" lon="15.7192746">
        <ele>195.444</ele>
        <time>2019-05-05T09:18:58.005Z</time>
      </trkpt>
      <trkpt lat="48.3835783" lon="15.7194232">
        <ele>195.422</ele>
        <time>2019-05-05T09:19:00.170Z</time>
      </trkpt>
      <trkpt lat="48.3835059" lon="15.7195305">
        <ele>195.401</ele>
        <time>2019-05-05T09:19:02.053Z</time>
      </trkpt>
      <trkpt lat="48.3834079" lon="15.7196379">
        <ele>195.419</ele>
        <time>2019-05-05T09:19:04.408Z</time>
      </trkpt>
      <trkpt lat="48.3833381" lon="15.7197411">
        <ele>194.569</ele>
        <time>2019-05-05T09:19:06.337Z</time>
      </trkpt>
      <trkpt lat="48.3832818" lon="15.7198737">
        <ele>191.905</ele>
        <time>2019-05-05T09:19:08.300Z</time>
      </trkpt>
      <trkpt lat="48.3832194" lon="15.7200221">
        <ele>188.271</ele>
        <time>2019-05-05T09:19:10.364Z</time>
      </trkpt>
      <trkpt lat="48.3831621" lon="15.7201767">
        <ele>185.036</ele>
        <time>2019-05-05T09:19:12.388Z</time>
      </trkpt>
      <trkpt lat="48.3830929" lon="15.7202909">
        <ele>182.694</ele>
        <time>2019-05-05T09:19:14.183Z</time>
      </trkpt>
      <trkpt lat="48.3830186" lon="15.7204114">
        <ele>181.539</ele>
        <time>2019-05-05T09:19:16.113Z</time>
      </trkpt>
      <trkpt lat="48.3829334" lon="15.7205598">
        <ele>181.431</ele>
        <time>2019-05-05T09:19:18.374Z</time>
      </trkpt>
      <trkpt lat="48.3828645" lon="15.7206970">
        <ele>181.807</ele>
        <time>2019-05-05T09:19:20.325Z</time>
      </trkpt>
      <trkpt lat="48.3827699" lon="15.7208319">
        <ele>183.800</ele>
        <time>2019-05-05T09:19:22.525Z</time>
      </trkpt>
      <trkpt lat="48.3826799" lon="15.7209701">
        <ele>188.326</ele>
        <time>2019-05-05T09:19:24.664Z</time>
      </trkpt>
      <trkpt lat="48.3826029" lon="15.7211237">
        <ele>193.091</ele>
        <time>2019-05-05T09:19:26.793Z</time>
      </trkpt>
      <trkpt lat="48.3825336" lon="15.7212673">
        <ele>195.616</ele>
        <time>2019-05-05T09:19:28.792Z</time>
      </trkpt>
      <trkpt lat="48.3824570" lon="15.7213990">
        <ele>196.200</ele>
        <time>2019-05-05T09:19:30.825Z</time>
      </trkpt>
      <trkpt lat="48.3823827" lon="15.7215332">
        <ele>195.945</ele>
        <time>2019-05-05T09:19:32.864Z</time>
      </trkpt>
      <trkpt lat="48.3823099" lon="15.7216660">
        <ele>195.598</ele>
        <time>2019-05-05T09:19:34.827Z</time>
      </trkpt>
      <trkpt lat="48.3822315" lon="15.7217960">
        <ele>195.407</ele>
        <time>2019-05-05T09:19:36.837Z</time>
      </trkpt>
      <trkpt lat="48.3821637" lon="15.7219144">
        <ele>195.332</ele>
        <time>2019-05-05T09:19:38.678Z</time>
      </trkpt>
      <trkpt lat="48.3820822" lon="15.7220441">
        <ele>195.292</ele>
        <time>2019-05-05T09:19:40.839Z</time>
      </trkpt>
      <trkpt lat="48.3820068" lon="15.7221667">
        <ele>195.237</ele>
        <time>2019-05-05T09:19:42.926Z</time>
      </trkpt>
      <trkpt lat="48.3819319" lon="15.7222587">
        <ele>195.155</ele>
        <time>2019-05-05T09:19:44.770Z</time>
      </trkpt>
      <trkpt lat="48.3818565" lon="15.7223866">
        <ele>195.124</ele>
        <time>2019-05-05T09:19:46.885Z</time>
      </trkpt>
      <trkpt lat="48.3817756" lon="15.7224900">
        <ele>195.202</ele>
        <time>2019-05-05T09:19:48.822Z</time>
      </trkpt>
      <trkpt lat="48.3817013" lon="15.7225852">
        <ele>195.272</ele>
        <time>2019-05-05T09:19:50.604Z</time>
      </trkpt>
      <trkpt lat="48.3816214" lon="15.7227071">
        <ele>195.207</ele>
        <time>2019-05-05T09:19:52.663Z</time>
      </trkpt>
      <trkpt lat="48.3815416" lon="15.7228478">
        <ele>195.045</ele>
        <time>2019-05-05T09:19:54.815Z</time>
      </trkpt>
      <trkpt lat="48.3814500" lon="15.7229893">
        <ele>194.880</ele>
        <time>2019-05-05T09:19:57.049Z</time>
      </trkpt>
      <trkpt lat="48.3813831" lon="15.7231442">
        <ele>194.754</ele>
        <time>2019-05-05T09:19:59.125Z</time>
      </trkpt>
      <trkpt lat="48.3813128" lon="15.7232839">
        <ele>194.749</ele>
        <time>2019-05-05T09:20:01.104Z</time>
      </trkpt>
      <trkpt lat="48.3812445" lon="15.7234275">
        <ele>194.898</ele>
        <time>2019-05-05T09:20:03.112Z</time>
      </trkpt>
      <trkpt lat="48.3811753" lon="15.7235650">
        <ele>195.062</ele>
        <time>2019-05-05T09:20:05.108Z</time>
      </trkpt>
      <trkpt lat="48.3811058" lon="15.7236615">
        <ele>195.117</ele>
        <time>2019-05-05T09:20:06.806Z</time>
      </trkpt>
      <trkpt lat="48.3810410" lon="15.7237697">
        <ele>195.141</ele>
        <time>2019-05-05T09:20:08.597Z</time>
      </trkpt>
      <trkpt lat="48.3809692" lon="15.7238891">
        <ele>195.222</ele>
        <time>2019-05-05T09:20:10.638Z</time>
      </trkpt>
      <trkpt lat="48.3809135" lon="15.7240184">
        <ele>195.312</ele>
        <time>2019-05-05T09:20:12.600Z</time>
      </trkpt>
      <trkpt lat="48.3808265" lon="15.7241449">
        <ele>195.344</ele>
        <time>2019-05-05T09:20:14.825Z</time>
      </trkpt>
      <trkpt lat="48.3807480" lon="15.7242815">
        <ele>195.359</ele>
        <time>2019-05-05T09:20:16.976Z</time>
      </trkpt>
      <trkpt lat="48.3806754" lon="15.7244110">
        <ele>195.406</ele>
        <time>2019-05-05T09:20:18.993Z</time>
      </trkpt>
      <trkpt lat="48.3805952" lon="15.7245473">
        <ele>195.445</ele>
        <time>2019-05-05T09:20:21.137Z</time>
      </trkpt>
      <trkpt lat="48.3805107" lon="15.7246819">
        <ele>195.429</ele>
        <time>2019-05-05T09:20:23.261Z</time>
      </trkpt>
      <trkpt lat="48.3804289" lon="15.7248139">
        <ele>195.416</ele>
        <time>2019-05-05T09:20:25.297Z</time>
      </trkpt>
      <trkpt lat="48.3803728" lon="15.7249546">
        <ele>195.458</ele>
        <time>2019-05-05T09:20:27.125Z</time>
      </trkpt>
      <trkpt lat="48.3802996" lon="15.7251021">
        <ele>195.505</ele>
        <time>2019-05-05T09:20:29.150Z</time>
      </trkpt>
      <trkpt lat="48.3802224" lon="15.7252486">
        <ele>195.496</ele>
        <time>2019-05-05T09:20:31.197Z</time>
      </trkpt>
      <trkpt lat="48.3801580" lon="15.7254148">
        <ele>195.442</ele>
        <time>2019-05-05T09:20:33.302Z</time>
      </trkpt>
      <trkpt lat="48.3800826" lon="15.7255647">
        <ele>195.375</ele>
        <time>2019-05-05T09:20:35.307Z</time>
      </trkpt>
      <trkpt lat="48.3799892" lon="15.7257088">
        <ele>195.323</ele>
        <time>2019-05-05T09:20:37.392Z</time>
      </trkpt>
      <trkpt lat="48.3799124" lon="15.7258538">
        <ele>195.337</ele>
        <time>2019-05-05T09:20:39.305Z</time>
      </trkpt>
      <trkpt lat="48.3798273" lon="15.7260003">
        <ele>195.430</ele>
        <time>2019-05-05T09:20:41.282Z</time>
      </trkpt>
      <trkpt lat="48.3797465" lon="15.7261600">
        <ele>195.533</ele>
        <time>2019-05-05T09:20:43.257Z</time>
      </trkpt>
      <trkpt lat="48.3796606" lon="15.7263183">
        <ele>195.612</ele>
        <time>2019-05-05T09:20:45.247Z</time>
      </trkpt>
      <trkpt lat="48.3795853" lon="15.7264766">
        <ele>195.694</ele>
        <time>2019-05-05T09:20:47.186Z</time>
      </trkpt>
      <trkpt lat="48.3795109" lon="15.7266075">
        <ele>195.737</ele>
        <time>2019-05-05T09:20:48.963Z</time>
      </trkpt>
      <trkpt lat="48.3794476" lon="15.7267331">
        <ele>195.699</ele>
        <time>2019-05-05T09:20:50.624Z</time>
      </trkpt>
      <trkpt lat="48.3793624" lon="15.7269042">
        <ele>195.697</ele>
        <time>2019-05-05T09:20:52.882Z</time>
      </trkpt>
      <trkpt lat="48.3792854" lon="15.7270601">
        <ele>195.824</ele>
        <time>2019-05-05T09:20:54.961Z</time>
      </trkpt>
      <trkpt lat="48.3792096" lon="15.7271827">
        <ele>195.974</ele>
        <time>2019-05-05T09:20:56.810Z</time>
      </trkpt>
      <trkpt lat="48.3791468" lon="15.7272925">
        <ele>196.031</ele>
        <time>2019-05-05T09:20:58.432Z</time>
      </trkpt>
      <trkpt lat="48.3790332" lon="15.7274886">
        <ele>196.020</ele>
        <time>2019-05-05T09:21:01.314Z</time>
      </trkpt>
      <trkpt lat="48.3789448" lon="15.7276219">
        <ele>195.968</ele>
        <time>2019-05-05T09:21:03.331Z</time>
      </trkpt>
      <trkpt lat="48.3788634" lon="15.7277749">
        <ele>195.879</ele>
        <time>2019-05-05T09:21:05.366Z</time>
      </trkpt>
      <trkpt lat="48.3787713" lon="15.7279306">
        <ele>195.825</ele>
        <time>2019-05-05T09:21:07.460Z</time>
      </trkpt>
      <trkpt lat="48.3786807" lon="15.7280768">
        <ele>195.861</ele>
        <time>2019-05-05T09:21:09.424Z</time>
      </trkpt>
      <trkpt lat="48.3785942" lon="15.7282352">
        <ele>195.957</ele>
        <time>2019-05-05T09:21:11.439Z</time>
      </trkpt>
      <trkpt lat="48.3785139" lon="15.7283905">
        <ele>196.041</ele>
        <time>2019-05-05T09:21:13.400Z</time>
      </trkpt>
      <trkpt lat="48.3784366" lon="15.7285318">
        <ele>196.051</ele>
        <time>2019-05-05T09:21:15.302Z</time>
      </trkpt>
      <trkpt lat="48.3783607" lon="15.7286663">
        <ele>195.998</ele>
        <time>2019-05-05T09:21:17.225Z</time>
      </trkpt>
      <trkpt lat="48.3782879" lon="15.7287741">
        <ele>195.946</ele>
        <time>2019-05-05T09:21:18.935Z</time>
      </trkpt>
      <trkpt lat="48.3782051" lon="15.7288925">
        <ele>195.920</ele>
        <time>2019-05-05T09:21:20.904Z</time>
      </trkpt>
      <trkpt lat="48.3781377" lon="15.7290223">
        <ele>195.877</ele>
        <time>2019-05-05T09:21:22.865Z</time>
      </trkpt>
      <trkpt lat="48.3780090" lon="15.7291768">
        <ele>195.769</ele>
        <time>2019-05-05T09:21:25.761Z</time>
      </trkpt>
      <trkpt lat="48.3778767" lon="15.7293383">
        <ele>195.627</ele>
        <time>2019-05-05T09:21:28.454Z</time>
      </trkpt>
      <trkpt lat="48.3777936" lon="15.7294567">
        <ele>195.524</ele>
        <time>2019-05-05T09:21:30.280Z</time>
      </trkpt>
      <trkpt lat="48.3777347" lon="15.7295754">
        <ele>195.479</ele>
        <time>2019-05-05T09:21:31.933Z</time>
      </trkpt>
      <trkpt lat="48.3776580" lon="15.7297015">
        <ele>195.468</ele>
        <time>2019-05-05T09:21:33.913Z</time>
      </trkpt>
      <trkpt lat="48.3775792" lon="15.7298183">
        <ele>195.441</ele>
        <time>2019-05-05T09:21:35.862Z</time>
      </trkpt>
      <trkpt lat="48.3775080" lon="15.7299495">
        <ele>195.381</ele>
        <time>2019-05-05T09:21:37.826Z</time>
      </trkpt>
      <trkpt lat="48.3774175" lon="15.7300747">
        <ele>195.347</ele>
        <time>2019-05-05T09:21:39.880Z</time>
      </trkpt>
      <trkpt lat="48.3772861" lon="15.7302269">
        <ele>195.381</ele>
        <time>2019-05-05T09:21:42.475Z</time>
      </trkpt>
      <trkpt lat="48.3772017" lon="15.7303301">
        <ele>195.449</ele>
        <time>2019-05-05T09:21:44.147Z</time>
      </trkpt>
      <trkpt lat="48.3771165" lon="15.7304625">
        <ele>195.497</ele>
        <time>2019-05-05T09:21:46.072Z</time>
      </trkpt>
      <trkpt lat="48.3770316" lon="15.7305924">
        <ele>195.491</ele>
        <time>2019-05-05T09:21:48.076Z</time>
      </trkpt>
      <trkpt lat="48.3769378" lon="15.7307304">
        <ele>195.440</ele>
        <time>2019-05-05T09:21:50.344Z</time>
      </trkpt>
      <trkpt lat="48.3768325" lon="15.7308477">
        <ele>195.403</ele>
        <time>2019-05-05T09:21:52.642Z</time>
      </trkpt>
      <trkpt lat="48.3767573" lon="15.7309308">
        <ele>195.410</ele>
        <time>2019-05-05T09:21:54.267Z</time>
      </trkpt>
      <trkpt lat="48.3766471" lon="15.7310568">
        <ele>195.396</ele>
        <time>2019-05-05T09:21:56.640Z</time>
      </trkpt>
      <trkpt lat="48.3765482" lon="15.7311922">
        <ele>195.294</ele>
        <time>2019-05-05T09:21:58.841Z</time>
      </trkpt>
      <trkpt lat="48.3764352" lon="15.7313558">
        <ele>195.148</ele>
        <time>2019-05-05T09:22:01.368Z</time>
      </trkpt>
      <trkpt lat="48.3763406" lon="15.7315410">
        <ele>195.001</ele>
        <time>2019-05-05T09:22:03.883Z</time>
      </trkpt>
      <trkpt lat="48.3762550" lon="15.7317185">
        <ele>194.851</ele>
        <time>2019-05-05T09:22:06.290Z</time>
      </trkpt>
      <trkpt lat="48.3761752" lon="15.7318514">
        <ele>194.723</ele>
        <time>2019-05-05T09:22:08.221Z</time>
      </trkpt>
      <trkpt lat="48.3760806" lon="15.7319947">
        <ele>194.643</ele>
        <time>2019-05-05T09:22:10.356Z</time>
      </trkpt>
      <trkpt lat="48.3760054" lon="15.7321042">
        <ele>194.669</ele>
        <time>2019-05-05T09:22:12.066Z</time>
      </trkpt>
      <trkpt lat="48.3759182" lon="15.7322294">
        <ele>194.829</ele>
        <time>2019-05-05T09:22:14.155Z</time>
      </trkpt>
      <trkpt lat="48.3758414" lon="15.7323479">
        <ele>194.978</ele>
        <time>2019-05-05T09:22:16.141Z</time>
      </trkpt>
      <trkpt lat="48.3757497" lon="15.7324601">
        <ele>194.989</ele>
        <time>2019-05-05T09:22:18.343Z</time>
      </trkpt>
      <trkpt lat="48.3756860" lon="15.7325665">
        <ele>194.906</ele>
        <time>2019-05-05T09:22:20.175Z</time>
      </trkpt>
      <trkpt lat="48.3755949" lon="15.7326697">
        <ele>194.801</ele>
        <time>2019-05-05T09:22:22.310Z</time>
      </trkpt>
      <trkpt lat="48.3754794" lon="15.7328108">
        <ele>194.713</ele>
        <time>2019-05-05T09:22:24.916Z</time>
      </trkpt>
      <trkpt lat="48.3754029" lon="15.7329501">
        <ele>194.700</ele>
        <time>2019-05-05T09:22:27.002Z</time>
      </trkpt>
      <trkpt lat="48.3753221" lon="15.7330774">
        <ele>194.786</ele>
        <time>2019-05-05T09:22:29.078Z</time>
      </trkpt>
      <trkpt lat="48.3752205" lon="15.7332007">
        <ele>194.907</ele>
        <time>2019-05-05T09:22:31.347Z</time>
      </trkpt>
      <trkpt lat="48.3751226" lon="15.7333491">
        <ele>195.000</ele>
        <time>2019-05-05T09:22:33.700Z</time>
      </trkpt>
      <trkpt lat="48.3750263" lon="15.7334948">
        <ele>195.052</ele>
        <time>2019-05-05T09:22:35.970Z</time>
      </trkpt>
      <trkpt lat="48.3749442" lon="15.7336154">
        <ele>195.047</ele>
        <time>2019-05-05T09:22:37.861Z</time>
      </trkpt>
      <trkpt lat="48.3748410" lon="15.7337369">
        <ele>194.988</ele>
        <time>2019-05-05T09:22:40.024Z</time>
      </trkpt>
      <trkpt lat="48.3747532" lon="15.7338675">
        <ele>194.921</ele>
        <time>2019-05-05T09:22:42.119Z</time>
      </trkpt>
      <trkpt lat="48.3746615" lon="15.7340192">
        <ele>194.972</ele>
        <time>2019-05-05T09:22:44.547Z</time>
      </trkpt>
      <trkpt lat="48.3745744" lon="15.7341398">
        <ele>195.293</ele>
        <time>2019-05-05T09:22:46.655Z</time>
      </trkpt>
      <trkpt lat="48.3744949" lon="15.7342826">
        <ele>195.797</ele>
        <time>2019-05-05T09:22:48.760Z</time>
      </trkpt>
      <trkpt lat="48.3744151" lon="15.7344094">
        <ele>196.160</ele>
        <time>2019-05-05T09:22:50.613Z</time>
      </trkpt>
      <trkpt lat="48.3742981" lon="15.7345447">
        <ele>196.201</ele>
        <time>2019-05-05T09:22:52.883Z</time>
      </trkpt>
      <trkpt lat="48.3741806" lon="15.7346956">
        <ele>196.005</ele>
        <time>2019-05-05T09:22:55.226Z</time>
      </trkpt>
      <trkpt lat="48.3740909" lon="15.7348425">
        <ele>195.764</ele>
        <time>2019-05-05T09:22:57.238Z</time>
      </trkpt>
      <trkpt lat="48.3739858" lon="15.7349831">
        <ele>195.661</ele>
        <time>2019-05-05T09:22:59.386Z</time>
      </trkpt>
      <trkpt lat="48.3738864" lon="15.7351152">
        <ele>195.753</ele>
        <time>2019-05-05T09:23:01.430Z</time>
      </trkpt>
      <trkpt lat="48.3738165" lon="15.7352630">
        <ele>195.911</ele>
        <time>2019-05-05T09:23:03.310Z</time>
      </trkpt>
      <trkpt lat="48.3737385" lon="15.7353997">
        <ele>195.981</ele>
        <time>2019-05-05T09:23:05.168Z</time>
      </trkpt>
      <trkpt lat="48.3736349" lon="15.7355622">
        <ele>195.919</ele>
        <time>2019-05-05T09:23:07.458Z</time>
      </trkpt>
      <trkpt lat="48.3735404" lon="15.7356904">
        <ele>195.735</ele>
        <time>2019-05-05T09:23:09.399Z</time>
      </trkpt>
      <trkpt lat="48.3734455" lon="15.7358143">
        <ele>195.499</ele>
        <time>2019-05-05T09:23:11.319Z</time>
      </trkpt>
      <trkpt lat="48.3733428" lon="15.7359252">
        <ele>195.318</ele>
        <time>2019-05-05T09:23:13.239Z</time>
      </trkpt>
      <trkpt lat="48.3732482" lon="15.7360284">
        <ele>195.305</ele>
        <time>2019-05-05T09:23:15.013Z</time>
      </trkpt>
      <trkpt lat="48.3731590" lon="15.7361699">
        <ele>195.478</ele>
        <time>2019-05-05T09:23:16.968Z</time>
      </trkpt>
      <trkpt lat="48.3730637" lon="15.7362885">
        <ele>195.705</ele>
        <time>2019-05-05T09:23:18.804Z</time>
      </trkpt>
      <trkpt lat="48.3729676" lon="15.7364210">
        <ele>195.858</ele>
        <time>2019-05-05T09:23:20.714Z</time>
      </trkpt>
      <trkpt lat="48.3728770" lon="15.7365682">
        <ele>195.939</ele>
        <time>2019-05-05T09:23:22.669Z</time>
      </trkpt>
      <trkpt lat="48.3727745" lon="15.7367241">
        <ele>195.991</ele>
        <time>2019-05-05T09:23:24.830Z</time>
      </trkpt>
      <trkpt lat="48.3726967" lon="15.7368641">
        <ele>196.040</ele>
        <time>2019-05-05T09:23:26.626Z</time>
      </trkpt>
      <trkpt lat="48.3726038" lon="15.7370262">
        <ele>196.090</ele>
        <time>2019-05-05T09:23:28.737Z</time>
      </trkpt>
      <trkpt lat="48.3725267" lon="15.7371612">
        <ele>196.115</ele>
        <time>2019-05-05T09:23:30.556Z</time>
      </trkpt>
      <trkpt lat="48.3724536" lon="15.7372819">
        <ele>196.097</ele>
        <time>2019-05-05T09:23:32.285Z</time>
      </trkpt>
      <trkpt lat="48.3723808" lon="15.7374199">
        <ele>196.082</ele>
        <time>2019-05-05T09:23:34.152Z</time>
      </trkpt>
      <trkpt lat="48.3723054" lon="15.7375687">
        <ele>196.108</ele>
        <time>2019-05-05T09:23:36.071Z</time>
      </trkpt>
      <trkpt lat="48.3722035" lon="15.7377689">
        <ele>196.149</ele>
        <time>2019-05-05T09:23:38.551Z</time>
      </trkpt>
      <trkpt lat="48.3720947" lon="15.7379463">
        <ele>196.180</ele>
        <time>2019-05-05T09:23:40.890Z</time>
      </trkpt>
      <trkpt lat="48.3720069" lon="15.7381118">
        <ele>196.224</ele>
        <time>2019-05-05T09:23:42.981Z</time>
      </trkpt>
      <trkpt lat="48.3719320" lon="15.7382584">
        <ele>196.301</ele>
        <time>2019-05-05T09:23:44.834Z</time>
      </trkpt>
      <trkpt lat="48.3718493" lon="15.7384104">
        <ele>196.380</ele>
        <time>2019-05-05T09:23:46.812Z</time>
      </trkpt>
      <trkpt lat="48.3717797" lon="15.7385392">
        <ele>196.393</ele>
        <time>2019-05-05T09:23:48.509Z</time>
      </trkpt>
      <trkpt lat="48.3717004" lon="15.7386881">
        <ele>196.287</ele>
        <time>2019-05-05T09:23:50.510Z</time>
      </trkpt>
      <trkpt lat="48.3716342" lon="15.7388400">
        <ele>196.109</ele>
        <time>2019-05-05T09:23:52.419Z</time>
      </trkpt>
      <trkpt lat="48.3715470" lon="15.7389908">
        <ele>195.972</ele>
        <time>2019-05-05T09:23:54.447Z</time>
      </trkpt>
      <trkpt lat="48.3714583" lon="15.7391672">
        <ele>195.905</ele>
        <time>2019-05-05T09:23:56.648Z</time>
      </trkpt>
      <trkpt lat="48.3713790" lon="15.7393183">
        <ele>195.832</ele>
        <time>2019-05-05T09:23:58.608Z</time>
      </trkpt>
      <trkpt lat="48.3713203" lon="15.7394413">
        <ele>195.715</ele>
        <time>2019-05-05T09:24:00.175Z</time>
      </trkpt>
      <trkpt lat="48.3712481" lon="15.7396037">
        <ele>195.613</ele>
        <time>2019-05-05T09:24:02.132Z</time>
      </trkpt>
      <trkpt lat="48.3711784" lon="15.7397503">
        <ele>195.562</ele>
        <time>2019-05-05T09:24:03.848Z</time>
      </trkpt>
      <trkpt lat="48.3711060" lon="15.7398944">
        <ele>195.541</ele>
        <time>2019-05-05T09:24:05.578Z</time>
      </trkpt>
      <trkpt lat="48.3710501" lon="15.7400558">
        <ele>195.583</ele>
        <time>2019-05-05T09:24:07.318Z</time>
      </trkpt>
      <trkpt lat="48.3709260" lon="15.7403511">
        <ele>195.714</ele>
        <time>2019-05-05T09:24:10.606Z</time>
      </trkpt>
      <trkpt lat="48.3708440" lon="15.7405608">
        <ele>195.851</ele>
        <time>2019-05-05T09:24:12.856Z</time>
      </trkpt>
      <trkpt lat="48.3707579" lon="15.7407614">
        <ele>195.933</ele>
        <time>2019-05-05T09:24:15.098Z</time>
      </trkpt>
      <trkpt lat="48.3707005" lon="15.7409790">
        <ele>195.986</ele>
        <time>2019-05-05T09:24:17.371Z</time>
      </trkpt>
      <trkpt lat="48.3706546" lon="15.7411654">
        <ele>195.987</ele>
        <time>2019-05-05T09:24:19.328Z</time>
      </trkpt>
      <trkpt lat="48.3705941" lon="15.7413436">
        <ele>195.846</ele>
        <time>2019-05-05T09:24:21.286Z</time>
      </trkpt>
      <trkpt lat="48.3705452" lon="15.7415476">
        <ele>195.587</ele>
        <time>2019-05-05T09:24:23.374Z</time>
      </trkpt>
      <trkpt lat="48.3704927" lon="15.7417360">
        <ele>195.447</ele>
        <time>2019-05-05T09:24:25.294Z</time>
      </trkpt>
      <trkpt lat="48.3704457" lon="15.7419348">
        <ele>195.561</ele>
        <time>2019-05-05T09:24:27.225Z</time>
      </trkpt>
      <trkpt lat="48.3703911" lon="15.7421576">
        <ele>195.709</ele>
        <time>2019-05-05T09:24:29.403Z</time>
      </trkpt>
      <trkpt lat="48.3703383" lon="15.7423660">
        <ele>195.685</ele>
        <time>2019-05-05T09:24:31.492Z</time>
      </trkpt>
      <trkpt lat="48.3702834" lon="15.7425753">
        <ele>195.613</ele>
        <time>2019-05-05T09:24:33.642Z</time>
      </trkpt>
      <trkpt lat="48.3702427" lon="15.7427586">
        <ele>195.758</ele>
        <time>2019-05-05T09:24:35.523Z</time>
      </trkpt>
      <trkpt lat="48.3701975" lon="15.7429273">
        <ele>196.130</ele>
        <time>2019-05-05T09:24:37.331Z</time>
      </trkpt>
      <trkpt lat="48.3701553" lon="15.7431032">
        <ele>196.466</ele>
        <time>2019-05-05T09:24:39.231Z</time>
      </trkpt>
      <trkpt lat="48.3701249" lon="15.7432483">
        <ele>196.456</ele>
        <time>2019-05-05T09:24:40.789Z</time>
      </trkpt>
      <trkpt lat="48.3700878" lon="15.7434428">
        <ele>196.043</ele>
        <time>2019-05-05T09:24:42.837Z</time>
      </trkpt>
      <trkpt lat="48.3700595" lon="15.7436200">
        <ele>195.504</ele>
        <time>2019-05-05T09:24:44.669Z</time>
      </trkpt>
      <trkpt lat="48.3700337" lon="15.7438151">
        <ele>195.155</ele>
        <time>2019-05-05T09:24:46.670Z</time>
      </trkpt>
      <trkpt lat="48.3700096" lon="15.7439844">
        <ele>195.093</ele>
        <time>2019-05-05T09:24:48.413Z</time>
      </trkpt>
      <trkpt lat="48.3699881" lon="15.7441765">
        <ele>195.335</ele>
        <time>2019-05-05T09:24:50.357Z</time>
      </trkpt>
      <trkpt lat="48.3699576" lon="15.7443784">
        <ele>195.841</ele>
        <time>2019-05-05T09:24:52.399Z</time>
      </trkpt>
      <trkpt lat="48.3699394" lon="15.7445888">
        <ele>196.408</ele>
        <time>2019-05-05T09:24:54.481Z</time>
      </trkpt>
      <trkpt lat="48.3699170" lon="15.7448000">
        <ele>196.673</ele>
        <time>2019-05-05T09:24:56.624Z</time>
      </trkpt>
      <trkpt lat="48.3698914" lon="15.7449837">
        <ele>196.398</ele>
        <time>2019-05-05T09:24:58.594Z</time>
      </trkpt>
      <trkpt lat="48.3698665" lon="15.7451410">
        <ele>195.743</ele>
        <time>2019-05-05T09:25:00.327Z</time>
      </trkpt>
      <trkpt lat="48.3698477" lon="15.7453081">
        <ele>195.083</ele>
        <time>2019-05-05T09:25:02.159Z</time>
      </trkpt>
      <trkpt lat="48.3698322" lon="15.7454648">
        <ele>194.668</ele>
        <time>2019-05-05T09:25:03.909Z</time>
      </trkpt>
      <trkpt lat="48.3698269" lon="15.7456300">
        <ele>194.538</ele>
        <time>2019-05-05T09:25:05.786Z</time>
      </trkpt>
      <trkpt lat="48.3697993" lon="15.7458017">
        <ele>194.593</ele>
        <time>2019-05-05T09:25:07.825Z</time>
      </trkpt>
      <trkpt lat="48.3697753" lon="15.7460094">
        <ele>194.726</ele>
        <time>2019-05-05T09:25:10.279Z</time>
      </trkpt>
      <trkpt lat="48.3697634" lon="15.7461990">
        <ele>194.925</ele>
        <time>2019-05-05T09:25:12.496Z</time>
      </trkpt>
      <trkpt lat="48.3697471" lon="15.7463842">
        <ele>195.196</ele>
        <time>2019-05-05T09:25:14.672Z</time>
      </trkpt>
      <trkpt lat="48.3697399" lon="15.7465374">
        <ele>195.451</ele>
        <time>2019-05-05T09:25:16.466Z</time>
      </trkpt>
      <trkpt lat="48.3697332" lon="15.7466950">
        <ele>195.623</ele>
        <time>2019-05-05T09:25:18.311Z</time>
      </trkpt>
      <trkpt lat="48.3697209" lon="15.7468627">
        <ele>195.778</ele>
        <time>2019-05-05T09:25:20.270Z</time>
      </trkpt>
      <trkpt lat="48.3697283" lon="15.7470412">
        <ele>196.009</ele>
        <time>2019-05-05T09:25:22.339Z</time>
      </trkpt>
      <trkpt lat="48.3697356" lon="15.7471778">
        <ele>196.309</ele>
        <time>2019-05-05T09:25:23.944Z</time>
      </trkpt>
      <trkpt lat="48.3697309" lon="15.7473506">
        <ele>196.572</ele>
        <time>2019-05-05T09:25:25.993Z</time>
      </trkpt>
      <trkpt lat="48.3697355" lon="15.7475100">
        <ele>196.723</ele>
        <time>2019-05-05T09:25:27.912Z</time>
      </trkpt>
      <trkpt lat="48.3697378" lon="15.7476814">
        <ele>196.775</ele>
        <time>2019-05-05T09:25:29.989Z</time>
      </trkpt>
      <trkpt lat="48.3697560" lon="15.7478491">
        <ele>196.779</ele>
        <time>2019-05-05T09:25:31.953Z</time>
      </trkpt>
      <trkpt lat="48.3697733" lon="15.7480337">
        <ele>196.766</ele>
        <time>2019-05-05T09:25:34.002Z</time>
      </trkpt>
      <trkpt lat="48.3697710" lon="15.7481882">
        <ele>196.745</ele>
        <time>2019-05-05T09:25:35.670Z</time>
      </trkpt>
      <trkpt lat="48.3697673" lon="15.7483897">
        <ele>196.708</ele>
        <time>2019-05-05T09:25:37.804Z</time>
      </trkpt>
      <trkpt lat="48.3697839" lon="15.7485778">
        <ele>196.614</ele>
        <time>2019-05-05T09:25:39.764Z</time>
      </trkpt>
      <trkpt lat="48.3697926" lon="15.7487502">
        <ele>196.393</ele>
        <time>2019-05-05T09:25:41.553Z</time>
      </trkpt>
      <trkpt lat="48.3698109" lon="15.7489569">
        <ele>196.018</ele>
        <time>2019-05-05T09:25:43.757Z</time>
      </trkpt>
      <trkpt lat="48.3698359" lon="15.7491180">
        <ele>195.544</ele>
        <time>2019-05-05T09:25:45.550Z</time>
      </trkpt>
      <trkpt lat="48.3698490" lon="15.7492842">
        <ele>195.079</ele>
        <time>2019-05-05T09:25:47.408Z</time>
      </trkpt>
      <trkpt lat="48.3698714" lon="15.7494317">
        <ele>194.740</ele>
        <time>2019-05-05T09:25:49.145Z</time>
      </trkpt>
      <trkpt lat="48.3699058" lon="15.7496608">
        <ele>194.575</ele>
        <time>2019-05-05T09:25:51.914Z</time>
      </trkpt>
      <trkpt lat="48.3699157" lon="15.7498881">
        <ele>194.536</ele>
        <time>2019-05-05T09:25:54.552Z</time>
      </trkpt>
      <trkpt lat="48.3699404" lon="15.7500561">
        <ele>194.579</ele>
        <time>2019-05-05T09:25:56.472Z</time>
      </trkpt>
      <trkpt lat="48.3699752" lon="15.7502427">
        <ele>194.762</ele>
        <time>2019-05-05T09:25:58.678Z</time>
      </trkpt>
      <trkpt lat="48.3700054" lon="15.7504072">
        <ele>195.225</ele>
        <time>2019-05-05T09:26:00.654Z</time>
      </trkpt>
      <trkpt lat="48.3700251" lon="15.7505745">
        <ele>195.964</ele>
        <time>2019-05-05T09:26:02.628Z</time>
      </trkpt>
      <trkpt lat="48.3700496" lon="15.7507944">
        <ele>196.731</ele>
        <time>2019-05-05T09:26:05.116Z</time>
      </trkpt>
      <trkpt lat="48.3700699" lon="15.7509924">
        <ele>197.262</ele>
        <time>2019-05-05T09:26:07.332Z</time>
      </trkpt>
      <trkpt lat="48.3700911" lon="15.7511619">
        <ele>197.426</ele>
        <time>2019-05-05T09:26:09.297Z</time>
      </trkpt>
      <trkpt lat="48.3701155" lon="15.7513372">
        <ele>197.249</ele>
        <time>2019-05-05T09:26:11.317Z</time>
      </trkpt>
      <trkpt lat="48.3701494" lon="15.7514831">
        <ele>196.902</ele>
        <time>2019-05-05T09:26:13.003Z</time>
      </trkpt>
      <trkpt lat="48.3701793" lon="15.7516423">
        <ele>196.535</ele>
        <time>2019-05-05T09:26:14.799Z</time>
      </trkpt>
      <trkpt lat="48.3702034" lon="15.7517957">
        <ele>196.189</ele>
        <time>2019-05-05T09:26:16.566Z</time>
      </trkpt>
      <trkpt lat="48.3702206" lon="15.7519823">
        <ele>195.882</ele>
        <time>2019-05-05T09:26:18.811Z</time>
      </trkpt>
      <trkpt lat="48.3702414" lon="15.7521746">
        <ele>195.640</ele>
        <time>2019-05-05T09:26:21.192Z</time>
      </trkpt>
      <trkpt lat="48.3702698" lon="15.7523533">
        <ele>195.486</ele>
        <time>2019-05-05T09:26:23.363Z</time>
      </trkpt>
      <trkpt lat="48.3703060" lon="15.7525017">
        <ele>195.495</ele>
        <time>2019-05-05T09:26:25.178Z</time>
      </trkpt>
      <trkpt lat="48.3703264" lon="15.7527173">
        <ele>195.740</ele>
        <time>2019-05-05T09:26:27.533Z</time>
      </trkpt>
      <trkpt lat="48.3703539" lon="15.7528854">
        <ele>196.151</ele>
        <time>2019-05-05T09:26:29.317Z</time>
      </trkpt>
      <trkpt lat="48.3703715" lon="15.7530616">
        <ele>196.579</ele>
        <time>2019-05-05T09:26:31.204Z</time>
      </trkpt>
      <trkpt lat="48.3703947" lon="15.7532452">
        <ele>196.917</ele>
        <time>2019-05-05T09:26:33.262Z</time>
      </trkpt>
      <trkpt lat="48.3704011" lon="15.7534267">
        <ele>197.095</ele>
        <time>2019-05-05T09:26:35.308Z</time>
      </trkpt>
      <trkpt lat="48.3704174" lon="15.7536193">
        <ele>197.073</ele>
        <time>2019-05-05T09:26:37.505Z</time>
      </trkpt>
      <trkpt lat="48.3704350" lon="15.7538028">
        <ele>196.883</ele>
        <time>2019-05-05T09:26:39.564Z</time>
      </trkpt>
      <trkpt lat="48.3704538" lon="15.7539848">
        <ele>196.609</ele>
        <time>2019-05-05T09:26:41.562Z</time>
      </trkpt>
      <trkpt lat="48.3704722" lon="15.7541687">
        <ele>196.307</ele>
        <time>2019-05-05T09:26:43.554Z</time>
      </trkpt>
      <trkpt lat="48.3704872" lon="15.7543439">
        <ele>195.982</ele>
        <time>2019-05-05T09:26:45.455Z</time>
      </trkpt>
      <trkpt lat="48.3705069" lon="15.7545091">
        <ele>195.700</ele>
        <time>2019-05-05T09:26:47.291Z</time>
      </trkpt>
      <trkpt lat="48.3705001" lon="15.7546777">
        <ele>195.532</ele>
        <time>2019-05-05T09:26:49.187Z</time>
      </trkpt>
      <trkpt lat="48.3705128" lon="15.7548467">
        <ele>195.495</ele>
        <time>2019-05-05T09:26:51.160Z</time>
      </trkpt>
      <trkpt lat="48.3705652" lon="15.7550677">
        <ele>195.599</ele>
        <time>2019-05-05T09:26:54.008Z</time>
      </trkpt>
      <trkpt lat="48.3705871" lon="15.7552039">
        <ele>195.874</ele>
        <time>2019-05-05T09:26:55.807Z</time>
      </trkpt>
      <trkpt lat="48.3705649" lon="15.7553599">
        <ele>196.295</ele>
        <time>2019-05-05T09:26:57.924Z</time>
      </trkpt>
      <trkpt lat="48.3705731" lon="15.7555017">
        <ele>196.697</ele>
        <time>2019-05-05T09:26:59.888Z</time>
      </trkpt>
      <trkpt lat="48.3705949" lon="15.7556446">
        <ele>196.876</ele>
        <time>2019-05-05T09:27:01.999Z</time>
      </trkpt>
      <trkpt lat="48.3705949" lon="15.7556446">
        <ele>196.810</ele>
        <time>2019-05-05T09:27:07.999Z</time>
      </trkpt>
      <trkpt lat="48.3705949" lon="15.7556446">
        <ele>196.664</ele>
        <time>2019-05-05T09:27:23.326Z</time>
      </trkpt>
      <trkpt lat="48.3706485" lon="15.7558104">
        <ele>196.577</ele>
        <time>2019-05-05T09:27:33.323Z</time>
      </trkpt>
      <trkpt lat="48.3706361" lon="15.7559712">
        <ele>196.543</ele>
        <time>2019-05-05T09:27:36.937Z</time>
      </trkpt>
      <trkpt lat="48.3705802" lon="15.7561184">
        <ele>196.518</ele>
        <time>2019-05-05T09:27:39.961Z</time>
      </trkpt>
      <trkpt lat="48.3705242" lon="15.7562512">
        <ele>196.514</ele>
        <time>2019-05-05T09:27:42.502Z</time>
      </trkpt>
      <trkpt lat="48.3704739" lon="15.7563833">
        <ele>196.549</ele>
        <time>2019-05-05T09:27:44.905Z</time>
      </trkpt>
      <trkpt lat="48.3704154" lon="15.7565307">
        <ele>196.534</ele>
        <time>2019-05-05T09:27:47.621Z</time>
      </trkpt>
      <trkpt lat="48.3703719" lon="15.7566806">
        <ele>196.400</ele>
        <time>2019-05-05T09:27:50.275Z</time>
      </trkpt>
      <trkpt lat="48.3703260" lon="15.7568502">
        <ele>196.287</ele>
        <time>2019-05-05T09:27:53.483Z</time>
      </trkpt>
      <trkpt lat="48.3703189" lon="15.7569960">
        <ele>196.341</ele>
        <time>2019-05-05T09:27:56.330Z</time>
      </trkpt>
      <trkpt lat="48.3703074" lon="15.7571330">
        <ele>196.504</ele>
        <time>2019-05-05T09:27:59.164Z</time>
      </trkpt>
      <trkpt lat="48.3703131" lon="15.7572786">
        <ele>196.646</ele>
        <time>2019-05-05T09:28:02.269Z</time>
      </trkpt>
      <trkpt lat="48.3703052" lon="15.7574385">
        <ele>196.711</ele>
        <time>2019-05-05T09:28:05.594Z</time>
      </trkpt>
      <trkpt lat="48.3703151" lon="15.7575770">
        <ele>196.716</ele>
        <time>2019-05-05T09:28:08.347Z</time>
      </trkpt>
      <trkpt lat="48.3703460" lon="15.7577170">
        <ele>196.700</ele>
        <time>2019-05-05T09:28:11.119Z</time>
      </trkpt>
      <trkpt lat="48.3703698" lon="15.7579073">
        <ele>196.674</ele>
        <time>2019-05-05T09:28:14.473Z</time>
      </trkpt>
      <trkpt lat="48.3703785" lon="15.7580429">
        <ele>196.637</ele>
        <time>2019-05-05T09:28:16.603Z</time>
      </trkpt>
      <trkpt lat="48.3703657" lon="15.7581844">
        <ele>196.583</ele>
        <time>2019-05-05T09:28:18.702Z</time>
      </trkpt>
      <trkpt lat="48.3703742" lon="15.7583284">
        <ele>196.527</ele>
        <time>2019-05-05T09:28:20.734Z</time>
      </trkpt>
      <trkpt lat="48.3703906" lon="15.7584656">
        <ele>196.487</ele>
        <time>2019-05-05T09:28:22.634Z</time>
      </trkpt>
      <trkpt lat="48.3703806" lon="15.7586410">
        <ele>196.460</ele>
        <time>2019-05-05T09:28:24.963Z</time>
      </trkpt>
      <trkpt lat="48.3704125" lon="15.7587743">
        <ele>196.405</ele>
        <time>2019-05-05T09:28:26.782Z</time>
      </trkpt>
      <trkpt lat="48.3704399" lon="15.7589072">
        <ele>196.248</ele>
        <time>2019-05-05T09:28:28.531Z</time>
      </trkpt>
      <trkpt lat="48.3704509" lon="15.7591169">
        <ele>195.955</ele>
        <time>2019-05-05T09:28:31.140Z</time>
      </trkpt>
      <trkpt lat="48.3704642" lon="15.7592772">
        <ele>195.576</ele>
        <time>2019-05-05T09:28:33.103Z</time>
      </trkpt>
      <trkpt lat="48.3704803" lon="15.7594109">
        <ele>195.205</ele>
        <time>2019-05-05T09:28:34.768Z</time>
      </trkpt>
      <trkpt lat="48.3704898" lon="15.7595900">
        <ele>194.935</ele>
        <time>2019-05-05T09:28:37.000Z</time>
      </trkpt>
      <trkpt lat="48.3704898" lon="15.7595900">
        <ele>194.799</ele>
        <time>2019-05-05T09:28:38.000Z</time>
      </trkpt>
      <trkpt lat="48.3704898" lon="15.7595900">
        <ele>194.748</ele>
        <time>2019-05-05T09:28:38.100Z</time>
      </trkpt>
      <trkpt lat="48.3705537" lon="15.7598958">
        <ele>194.722</ele>
        <time>2019-05-05T09:28:44.058Z</time>
      </trkpt>
      <trkpt lat="48.3705667" lon="15.7600380">
        <ele>194.906</ele>
        <time>2019-05-05T09:28:46.087Z</time>
      </trkpt>
      <trkpt lat="48.3706400" lon="15.7601502">
        <ele>195.468</ele>
        <time>2019-05-05T09:28:48.543Z</time>
      </trkpt>
      <trkpt lat="48.3707281" lon="15.7601993">
        <ele>196.124</ele>
        <time>2019-05-05T09:28:51.041Z</time>
      </trkpt>
      <trkpt lat="48.3708202" lon="15.7602002">
        <ele>196.506</ele>
        <time>2019-05-05T09:28:55.000Z</time>
      </trkpt>
      <trkpt lat="48.3708202" lon="15.7602002">
        <ele>196.587</ele>
        <time>2019-05-05T09:28:57.000Z</time>
      </trkpt>
      <trkpt lat="48.3708202" lon="15.7602002">
        <ele>196.503</ele>
        <time>2019-05-05T09:29:39.724Z</time>
      </trkpt>
      <trkpt lat="48.3707234" lon="15.7604352">
        <ele>196.401</ele>
        <time>2019-05-05T09:30:02.896Z</time>
      </trkpt>
      <trkpt lat="48.3707204" lon="15.7605717">
        <ele>196.355</ele>
        <time>2019-05-05T09:30:12.002Z</time>
      </trkpt>
      <trkpt lat="48.3707204" lon="15.7605717">
        <ele>196.359</ele>
        <time>2019-05-05T09:30:14.002Z</time>
      </trkpt>
      <trkpt lat="48.3707204" lon="15.7605717">
        <ele>196.343</ele>
        <time>2019-05-05T09:30:23.369Z</time>
      </trkpt>
      <trkpt lat="48.3708148" lon="15.7608389">
        <ele>196.263</ele>
        <time>2019-05-05T09:31:25.999Z</time>
      </trkpt>
      <trkpt lat="48.3708148" lon="15.7608389">
        <ele>196.156</ele>
        <time>2019-05-05T09:31:28.999Z</time>
      </trkpt>
      <trkpt lat="48.3708148" lon="15.7608389">
        <ele>196.060</ele>
        <time>2019-05-05T09:31:29.999Z</time>
      </trkpt>
      <trkpt lat="48.3708275" lon="15.7608520">
        <ele>196.844</ele>
        <time>2019-05-05T09:31:52.363Z</time>
      </trkpt>
      <trkpt lat="48.3708275" lon="15.7608520">
        <ele>196.844</ele>
        <time>2019-05-05T09:31:52.363Z</time>
      </trkpt>
      <trkpt lat="48.3708829" lon="15.7606710">
        <ele>196.976</ele>
        <time>2019-05-05T09:35:05.001Z</time>
      </trkpt>
      <trkpt lat="48.3712215" lon="15.7611712">
        <ele>196.885</ele>
        <time>2019-05-05T09:35:58.853Z</time>
      </trkpt>
      <trkpt lat="48.3712425" lon="15.7613245">
        <ele>196.823</ele>
        <time>2019-05-05T09:36:10.654Z</time>
      </trkpt>
      <trkpt lat="48.3712496" lon="15.7614944">
        <ele>196.748</ele>
        <time>2019-05-05T09:36:23.485Z</time>
      </trkpt>
      <trkpt lat="48.3712462" lon="15.7616557">
        <ele>196.695</ele>
        <time>2019-05-05T09:36:35.652Z</time>
      </trkpt>
      <trkpt lat="48.3712490" lon="15.7618374">
        <ele>196.710</ele>
        <time>2019-05-05T09:36:49.360Z</time>
      </trkpt>
      <trkpt lat="48.3712469" lon="15.7619923">
        <ele>196.761</ele>
        <time>2019-05-05T09:37:01.038Z</time>
      </trkpt>
      <trkpt lat="48.3712547" lon="15.7621513">
        <ele>196.801</ele>
        <time>2019-05-05T09:37:13.063Z</time>
      </trkpt>
      <trkpt lat="48.3712526" lon="15.7623199">
        <ele>196.796</ele>
        <time>2019-05-05T09:37:25.782Z</time>
      </trkpt>
      <trkpt lat="48.3712601" lon="15.7624903">
        <ele>196.709</ele>
        <time>2019-05-05T09:37:38.653Z</time>
      </trkpt>
      <trkpt lat="48.3712745" lon="15.7626670">
        <ele>196.547</ele>
        <time>2019-05-05T09:37:52.076Z</time>
      </trkpt>
      <trkpt lat="48.3712933" lon="15.7628509">
        <ele>196.385</ele>
        <time>2019-05-05T09:38:06.100Z</time>
      </trkpt>
      <trkpt lat="48.3713145" lon="15.7630473">
        <ele>196.283</ele>
        <time>2019-05-05T09:38:21.103Z</time>
      </trkpt>
      <trkpt lat="48.3713296" lon="15.7632261">
        <ele>196.249</ele>
        <time>2019-05-05T09:38:34.688Z</time>
      </trkpt>
      <trkpt lat="48.3713521" lon="15.7634028">
        <ele>196.287</ele>
        <time>2019-05-05T09:38:48.254Z</time>
      </trkpt>
      <trkpt lat="48.3713735" lon="15.7636084">
        <ele>196.422</ele>
        <time>2019-05-05T09:39:03.950Z</time>
      </trkpt>
      <trkpt lat="48.3713921" lon="15.7637931">
        <ele>196.719</ele>
        <time>2019-05-05T09:39:18.035Z</time>
      </trkpt>
      <trkpt lat="48.3714442" lon="15.7639456">
        <ele>197.174</ele>
        <time>2019-05-05T09:39:30.958Z</time>
      </trkpt>
      <trkpt lat="48.3714876" lon="15.7640906">
        <ele>197.612</ele>
        <time>2019-05-05T09:39:42.942Z</time>
      </trkpt>
      <trkpt lat="48.3715176" lon="15.7642604">
        <ele>197.735</ele>
        <time>2019-05-05T09:39:56.191Z</time>
      </trkpt>
      <trkpt lat="48.3715336" lon="15.7644000">
        <ele>197.365</ele>
        <time>2019-05-05T09:40:06.870Z</time>
      </trkpt>
      <trkpt lat="48.3715871" lon="15.7645539">
        <ele>196.648</ele>
        <time>2019-05-05T09:40:19.966Z</time>
      </trkpt>
      <trkpt lat="48.3716177" lon="15.7646811">
        <ele>195.970</ele>
        <time>2019-05-05T09:40:30.165Z</time>
      </trkpt>
      <trkpt lat="48.3716449" lon="15.7648266">
        <ele>195.600</ele>
        <time>2019-05-05T09:40:41.558Z</time>
      </trkpt>
      <trkpt lat="48.3716741" lon="15.7649837">
        <ele>195.642</ele>
        <time>2019-05-05T09:40:53.848Z</time>
      </trkpt>
      <trkpt lat="48.3717233" lon="15.7651603">
        <ele>196.123</ele>
        <time>2019-05-05T09:41:08.290Z</time>
      </trkpt>
      <trkpt lat="48.3717511" lon="15.7653004">
        <ele>196.821</ele>
        <time>2019-05-05T09:41:19.305Z</time>
      </trkpt>
      <trkpt lat="48.3717997" lon="15.7654629">
        <ele>197.304</ele>
        <time>2019-05-05T09:41:32.738Z</time>
      </trkpt>
      <trkpt lat="48.3718304" lon="15.7656005">
        <ele>197.289</ele>
        <time>2019-05-05T09:41:43.681Z</time>
      </trkpt>
      <trkpt lat="48.3718659" lon="15.7657703">
        <ele>196.802</ele>
        <time>2019-05-05T09:41:57.094Z</time>
      </trkpt>
      <trkpt lat="48.3718639" lon="15.7659108">
        <ele>196.106</ele>
        <time>2019-05-05T09:42:07.691Z</time>
      </trkpt>
      <trkpt lat="48.3718638" lon="15.7660646">
        <ele>195.538</ele>
        <time>2019-05-05T09:42:19.287Z</time>
      </trkpt>
      <trkpt lat="48.3718753" lon="15.7662192">
        <ele>195.269</ele>
        <time>2019-05-05T09:42:31.016Z</time>
      </trkpt>
      <trkpt lat="48.3719210" lon="15.7663498">
        <ele>195.328</ele>
        <time>2019-05-05T09:42:42.144Z</time>
      </trkpt>
      <trkpt lat="48.3719797" lon="15.7665304">
        <ele>195.658</ele>
        <time>2019-05-05T09:42:57.300Z</time>
      </trkpt>
      <trkpt lat="48.3720275" lon="15.7666562">
        <ele>196.114</ele>
        <time>2019-05-05T09:43:08.223Z</time>
      </trkpt>
      <trkpt lat="48.3720886" lon="15.7668171">
        <ele>196.504</ele>
        <time>2019-05-05T09:43:22.197Z</time>
      </trkpt>
      <trkpt lat="48.3721219" lon="15.7669514">
        <ele>196.599</ele>
        <time>2019-05-05T09:43:32.998Z</time>
      </trkpt>
      <trkpt lat="48.3721421" lon="15.7670834">
        <ele>196.291</ele>
        <time>2019-05-05T09:43:43.207Z</time>
      </trkpt>
      <trkpt lat="48.3721823" lon="15.7672505">
        <ele>195.819</ele>
        <time>2019-05-05T09:43:56.599Z</time>
      </trkpt>
      <trkpt lat="48.3722173" lon="15.7673921">
        <ele>195.563</ele>
        <time>2019-05-05T09:44:07.991Z</time>
      </trkpt>
      <trkpt lat="48.3722424" lon="15.7675708">
        <ele>195.744</ele>
        <time>2019-05-05T09:44:21.760Z</time>
      </trkpt>
      <trkpt lat="48.3722658" lon="15.7677156">
        <ele>196.375</ele>
        <time>2019-05-05T09:44:33.000Z</time>
      </trkpt>
      <trkpt lat="48.3722982" lon="15.7678625">
        <ele>197.174</ele>
        <time>2019-05-05T09:44:44.668Z</time>
      </trkpt>
      <trkpt lat="48.3723364" lon="15.7680150">
        <ele>197.647</ele>
        <time>2019-05-05T09:44:56.948Z</time>
      </trkpt>
      <trkpt lat="48.3723635" lon="15.7681714">
        <ele>197.482</ele>
        <time>2019-05-05T09:45:09.136Z</time>
      </trkpt>
      <trkpt lat="48.3723897" lon="15.7683156">
        <ele>196.771</ele>
        <time>2019-05-05T09:45:20.406Z</time>
      </trkpt>
      <trkpt lat="48.3724168" lon="15.7684641">
        <ele>195.868</ele>
        <time>2019-05-05T09:45:32.023Z</time>
      </trkpt>
      <trkpt lat="48.3724504" lon="15.7686063">
        <ele>195.157</ele>
        <time>2019-05-05T09:45:43.396Z</time>
      </trkpt>
      <trkpt lat="48.3724856" lon="15.7687342">
        <ele>194.874</ele>
        <time>2019-05-05T09:45:53.840Z</time>
      </trkpt>
      <trkpt lat="48.3725263" lon="15.7688706">
        <ele>195.067</ele>
        <time>2019-05-05T09:46:05.110Z</time>
      </trkpt>
      <trkpt lat="48.3725658" lon="15.7690534">
        <ele>195.535</ele>
        <time>2019-05-05T09:46:19.603Z</time>
      </trkpt>
      <trkpt lat="48.3725959" lon="15.7691924">
        <ele>195.904</ele>
        <time>2019-05-05T09:46:30.618Z</time>
      </trkpt>
      <trkpt lat="48.3726285" lon="15.7693306">
        <ele>195.948</ele>
        <time>2019-05-05T09:46:41.674Z</time>
      </trkpt>
      <trkpt lat="48.3726602" lon="15.7694759">
        <ele>195.726</ele>
        <time>2019-05-05T09:46:53.210Z</time>
      </trkpt>
      <trkpt lat="48.3726948" lon="15.7696096">
        <ele>195.409</ele>
        <time>2019-05-05T09:47:04.021Z</time>
      </trkpt>
      <trkpt lat="48.3727384" lon="15.7697529">
        <ele>195.134</ele>
        <time>2019-05-05T09:47:15.903Z</time>
      </trkpt>
      <trkpt lat="48.3727681" lon="15.7698880">
        <ele>194.961</ele>
        <time>2019-05-05T09:47:26.633Z</time>
      </trkpt>
      <trkpt lat="48.3728070" lon="15.7700259">
        <ele>194.925</ele>
        <time>2019-05-05T09:47:37.924Z</time>
      </trkpt>
      <trkpt lat="48.3728527" lon="15.7701596">
        <ele>195.055</ele>
        <time>2019-05-05T09:47:49.265Z</time>
      </trkpt>
      <trkpt lat="48.3728917" lon="15.7703059">
        <ele>195.283</ele>
        <time>2019-05-05T09:48:01.147Z</time>
      </trkpt>
      <trkpt lat="48.3729252" lon="15.7704569">
        <ele>195.454</ele>
        <time>2019-05-05T09:48:13.152Z</time>
      </trkpt>
      <trkpt lat="48.3729561" lon="15.7705848">
        <ele>195.469</ele>
        <time>2019-05-05T09:48:23.412Z</time>
      </trkpt>
      <trkpt lat="48.3729880" lon="15.7707274">
        <ele>195.356</ele>
        <time>2019-05-05T09:48:34.764Z</time>
      </trkpt>
      <trkpt lat="48.3730125" lon="15.7708778">
        <ele>195.209</ele>
        <time>2019-05-05T09:48:46.432Z</time>
      </trkpt>
      <trkpt lat="48.3730414" lon="15.7710119">
        <ele>195.121</ele>
        <time>2019-05-05T09:48:57.060Z</time>
      </trkpt>
      <trkpt lat="48.3730744" lon="15.7711707">
        <ele>195.130</ele>
        <time>2019-05-05T09:49:09.605Z</time>
      </trkpt>
      <trkpt lat="48.3731106" lon="15.7713051">
        <ele>195.240</ele>
        <time>2019-05-05T09:49:20.539Z</time>
      </trkpt>
      <trkpt lat="48.3731383" lon="15.7714480">
        <ele>195.397</ele>
        <time>2019-05-05T09:49:31.768Z</time>
      </trkpt>
      <trkpt lat="48.3731715" lon="15.7715966">
        <ele>195.481</ele>
        <time>2019-05-05T09:49:43.589Z</time>
      </trkpt>
      <trkpt lat="48.3731973" lon="15.7717302">
        <ele>195.409</ele>
        <time>2019-05-05T09:49:54.084Z</time>
      </trkpt>
      <trkpt lat="48.3732271" lon="15.7718881">
        <ele>195.213</ele>
        <time>2019-05-05T09:50:06.456Z</time>
      </trkpt>
      <trkpt lat="48.3732624" lon="15.7720300">
        <ele>194.993</ele>
        <time>2019-05-05T09:50:17.879Z</time>
      </trkpt>
      <trkpt lat="48.3733090" lon="15.7722249">
        <ele>194.834</ele>
        <time>2019-05-05T09:50:33.505Z</time>
      </trkpt>
      <trkpt lat="48.3733452" lon="15.7723578">
        <ele>194.802</ele>
        <time>2019-05-05T09:50:44.326Z</time>
      </trkpt>
      <trkpt lat="48.3733777" lon="15.7725003">
        <ele>194.922</ele>
        <time>2019-05-05T09:50:55.688Z</time>
      </trkpt>
      <trkpt lat="48.3734107" lon="15.7726481">
        <ele>195.110</ele>
        <time>2019-05-05T09:51:07.448Z</time>
      </trkpt>
      <trkpt lat="48.3734473" lon="15.7727893">
        <ele>195.215</ele>
        <time>2019-05-05T09:51:18.871Z</time>
      </trkpt>
      <trkpt lat="48.3734877" lon="15.7729407">
        <ele>195.149</ele>
        <time>2019-05-05T09:51:31.171Z</time>
      </trkpt>
      <trkpt lat="48.3735311" lon="15.7730879">
        <ele>194.964</ele>
        <time>2019-05-05T09:51:43.319Z</time>
      </trkpt>
      <trkpt lat="48.3735703" lon="15.7732419">
        <ele>194.785</ele>
        <time>2019-05-05T09:51:55.752Z</time>
      </trkpt>
      <trkpt lat="48.3736082" lon="15.7733745">
        <ele>194.712</ele>
        <time>2019-05-05T09:52:06.634Z</time>
      </trkpt>
      <trkpt lat="48.3736416" lon="15.7735265">
        <ele>194.797</ele>
        <time>2019-05-05T09:52:18.710Z</time>
      </trkpt>
      <trkpt lat="48.3736757" lon="15.7736518">
        <ele>195.035</ele>
        <time>2019-05-05T09:52:28.920Z</time>
      </trkpt>
      <trkpt lat="48.3737047" lon="15.7737852">
        <ele>195.323</ele>
        <time>2019-05-05T09:52:39.496Z</time>
      </trkpt>
      <trkpt lat="48.3737411" lon="15.7739320">
        <ele>195.520</ele>
        <time>2019-05-05T09:52:51.307Z</time>
      </trkpt>
      <trkpt lat="48.3737789" lon="15.7740811">
        <ele>195.524</ele>
        <time>2019-05-05T09:53:03.332Z</time>
      </trkpt>
      <trkpt lat="48.3738139" lon="15.7742449">
        <ele>195.325</ele>
        <time>2019-05-05T09:53:16.306Z</time>
      </trkpt>
      <trkpt lat="48.3738482" lon="15.7743977">
        <ele>195.048</ele>
        <time>2019-05-05T09:53:28.463Z</time>
      </trkpt>
      <trkpt lat="48.3738852" lon="15.7745268">
        <ele>194.899</ele>
        <time>2019-05-05T09:53:39.060Z</time>
      </trkpt>
      <trkpt lat="48.3739248" lon="15.7746506">
        <ele>195.021</ele>
        <time>2019-05-05T09:53:49.423Z</time>
      </trkpt>
      <trkpt lat="48.3739609" lon="15.7747989">
        <ele>195.386</ele>
        <time>2019-05-05T09:54:01.325Z</time>
      </trkpt>
      <trkpt lat="48.3739929" lon="15.7749404">
        <ele>195.776</ele>
        <time>2019-05-05T09:54:12.596Z</time>
      </trkpt>
      <trkpt lat="48.3740267" lon="15.7750992">
        <ele>195.937</ele>
        <time>2019-05-05T09:54:25.171Z</time>
      </trkpt>
      <trkpt lat="48.3740649" lon="15.7752607">
        <ele>195.761</ele>
        <time>2019-05-05T09:54:38.104Z</time>
      </trkpt>
      <trkpt lat="48.3741035" lon="15.7754174">
        <ele>195.337</ele>
        <time>2019-05-05T09:54:50.700Z</time>
      </trkpt>
      <trkpt lat="48.3741390" lon="15.7755751">
        <ele>194.898</ele>
        <time>2019-05-05T09:55:03.256Z</time>
      </trkpt>
      <trkpt lat="48.3741833" lon="15.7757329">
        <ele>194.702</ele>
        <time>2019-05-05T09:55:16.168Z</time>
      </trkpt>
      <trkpt lat="48.3742303" lon="15.7758604">
        <ele>194.854</ele>
        <time>2019-05-05T09:55:27.163Z</time>
      </trkpt>
      <trkpt lat="48.3742671" lon="15.7760082">
        <ele>195.184</ele>
        <time>2019-05-05T09:55:39.065Z</time>
      </trkpt>
      <trkpt lat="48.3743157" lon="15.7761456">
        <ele>195.388</ele>
        <time>2019-05-05T09:55:50.795Z</time>
      </trkpt>
      <trkpt lat="48.3743672" lon="15.7762718">
        <ele>195.326</ele>
        <time>2019-05-05T09:56:01.963Z</time>
      </trkpt>
      <trkpt lat="48.3744088" lon="15.7764234">
        <ele>195.119</ele>
        <time>2019-05-05T09:56:14.324Z</time>
      </trkpt>
      <trkpt lat="48.3744432" lon="15.7765807">
        <ele>194.970</ele>
        <time>2019-05-05T09:56:26.808Z</time>
      </trkpt>
      <trkpt lat="48.3744858" lon="15.7767543">
        <ele>195.011</ele>
        <time>2019-05-05T09:56:40.761Z</time>
      </trkpt>
      <trkpt lat="48.3745331" lon="15.7768999">
        <ele>195.289</ele>
        <time>2019-05-05T09:56:52.980Z</time>
      </trkpt>
      <trkpt lat="48.3745710" lon="15.7770364">
        <ele>195.677</ele>
        <time>2019-05-05T09:57:04.138Z</time>
      </trkpt>
      <trkpt lat="48.3746177" lon="15.7771789">
        <ele>195.896</ele>
        <time>2019-05-05T09:57:16.112Z</time>
      </trkpt>
      <trkpt lat="48.3746554" lon="15.7773216">
        <ele>195.794</ele>
        <time>2019-05-05T09:57:27.688Z</time>
      </trkpt>
      <trkpt lat="48.3746985" lon="15.7774713">
        <ele>195.521</ele>
        <time>2019-05-05T09:57:39.988Z</time>
      </trkpt>
      <trkpt lat="48.3747574" lon="15.7776219">
        <ele>195.349</ele>
        <time>2019-05-05T09:57:53.166Z</time>
      </trkpt>
      <trkpt lat="48.3748018" lon="15.7777778">
        <ele>195.463</ele>
        <time>2019-05-05T09:58:05.956Z</time>
      </trkpt>
      <trkpt lat="48.3748326" lon="15.7779391">
        <ele>195.823</ele>
        <time>2019-05-05T09:58:18.603Z</time>
      </trkpt>
      <trkpt lat="48.3748705" lon="15.7780861">
        <ele>196.187</ele>
        <time>2019-05-05T09:58:30.485Z</time>
      </trkpt>
      <trkpt lat="48.3749130" lon="15.7782313">
        <ele>196.313</ele>
        <time>2019-05-05T09:58:42.449Z</time>
      </trkpt>
      <trkpt lat="48.3749485" lon="15.7783590">
        <ele>196.133</ele>
        <time>2019-05-05T09:58:52.893Z</time>
      </trkpt>
      <trkpt lat="48.3749975" lon="15.7785176">
        <ele>195.787</ele>
        <time>2019-05-05T09:59:06.081Z</time>
      </trkpt>
      <trkpt lat="48.3750528" lon="15.7786825">
        <ele>195.493</ele>
        <time>2019-05-05T09:59:20.003Z</time>
      </trkpt>
      <trkpt lat="48.3751107" lon="15.7788280">
        <ele>195.329</ele>
        <time>2019-05-05T09:59:32.793Z</time>
      </trkpt>
      <trkpt lat="48.3751595" lon="15.7789862">
        <ele>195.261</ele>
        <time>2019-05-05T09:59:45.950Z</time>
      </trkpt>
      <trkpt lat="48.3752125" lon="15.7791297">
        <ele>195.282</ele>
        <time>2019-05-05T09:59:58.321Z</time>
      </trkpt>
      <trkpt lat="48.3752596" lon="15.7792800">
        <ele>195.394</ele>
        <time>2019-05-05T10:00:10.856Z</time>
      </trkpt>
      <trkpt lat="48.3753035" lon="15.7794396">
        <ele>195.527</ele>
        <time>2019-05-05T10:00:23.871Z</time>
      </trkpt>
      <trkpt lat="48.3753494" lon="15.7795885">
        <ele>195.618</ele>
        <time>2019-05-05T10:00:36.253Z</time>
      </trkpt>
      <trkpt lat="48.3754011" lon="15.7797297">
        <ele>195.673</ele>
        <time>2019-05-05T10:00:48.400Z</time>
      </trkpt>
      <trkpt lat="48.3754660" lon="15.7799022">
        <ele>195.672</ele>
        <time>2019-05-05T10:01:03.352Z</time>
      </trkpt>
      <trkpt lat="48.3755144" lon="15.7800435">
        <ele>195.581</ele>
        <time>2019-05-05T10:01:15.336Z</time>
      </trkpt>
      <trkpt lat="48.3755525" lon="15.7801978">
        <ele>195.439</ele>
        <time>2019-05-05T10:01:27.749Z</time>
      </trkpt>
      <trkpt lat="48.3756089" lon="15.7803435">
        <ele>195.355</ele>
        <time>2019-05-05T10:01:40.457Z</time>
      </trkpt>
      <trkpt lat="48.3756574" lon="15.7804861">
        <ele>195.388</ele>
        <time>2019-05-05T10:01:52.533Z</time>
      </trkpt>
      <trkpt lat="48.3757039" lon="15.7806462">
        <ele>195.488</ele>
        <time>2019-05-05T10:02:05.711Z</time>
      </trkpt>
      <trkpt lat="48.3757647" lon="15.7807901">
        <ele>195.553</ele>
        <time>2019-05-05T10:02:18.572Z</time>
      </trkpt>
      <trkpt lat="48.3758156" lon="15.7809357">
        <ele>195.544</ele>
        <time>2019-05-05T10:02:30.974Z</time>
      </trkpt>
      <trkpt lat="48.3758695" lon="15.7810815">
        <ele>195.556</ele>
        <time>2019-05-05T10:02:43.550Z</time>
      </trkpt>
      <trkpt lat="48.3759137" lon="15.7812269">
        <ele>195.674</ele>
        <time>2019-05-05T10:02:55.606Z</time>
      </trkpt>
      <trkpt lat="48.3759665" lon="15.7813686">
        <ele>195.823</ele>
        <time>2019-05-05T10:03:07.855Z</time>
      </trkpt>
      <trkpt lat="48.3760190" lon="15.7815207">
        <ele>195.868</ele>
        <time>2019-05-05T10:03:20.778Z</time>
      </trkpt>
      <trkpt lat="48.3760673" lon="15.7816729">
        <ele>195.764</ele>
        <time>2019-05-05T10:03:33.486Z</time>
      </trkpt>
      <trkpt lat="48.3761233" lon="15.7818341">
        <ele>195.585</ele>
        <time>2019-05-05T10:03:47.204Z</time>
      </trkpt>
      <trkpt lat="48.3761745" lon="15.7819911">
        <ele>195.464</ele>
        <time>2019-05-05T10:04:00.392Z</time>
      </trkpt>
      <trkpt lat="48.3762343" lon="15.7821398">
        <ele>195.445</ele>
        <time>2019-05-05T10:04:13.487Z</time>
      </trkpt>
      <trkpt lat="48.3762948" lon="15.7822886">
        <ele>195.476</ele>
        <time>2019-05-05T10:04:26.645Z</time>
      </trkpt>
      <trkpt lat="48.3763621" lon="15.7824599">
        <ele>195.460</ele>
        <time>2019-05-05T10:04:41.658Z</time>
      </trkpt>
      <trkpt lat="48.3764262" lon="15.7826043">
        <ele>195.358</ele>
        <time>2019-05-05T10:04:54.754Z</time>
      </trkpt>
      <trkpt lat="48.3764840" lon="15.7827456">
        <ele>195.273</ele>
        <time>2019-05-05T10:05:07.258Z</time>
      </trkpt>
      <trkpt lat="48.3765426" lon="15.7828874">
        <ele>195.295</ele>
        <time>2019-05-05T10:05:19.854Z</time>
      </trkpt>
      <trkpt lat="48.3765940" lon="15.7830381">
        <ele>195.348</ele>
        <time>2019-05-05T10:05:32.624Z</time>
      </trkpt>
      <trkpt lat="48.3766550" lon="15.7831913">
        <ele>195.349</ele>
        <time>2019-05-05T10:05:46.097Z</time>
      </trkpt>
      <trkpt lat="48.3767279" lon="15.7833524">
        <ele>195.322</ele>
        <time>2019-05-05T10:06:00.794Z</time>
      </trkpt>
      <trkpt lat="48.3767844" lon="15.7834897">
        <ele>195.344</ele>
        <time>2019-05-05T10:06:12.962Z</time>
      </trkpt>
      <trkpt lat="48.3768368" lon="15.7836366">
        <ele>195.435</ele>
        <time>2019-05-05T10:06:25.528Z</time>
      </trkpt>
      <trkpt lat="48.3768910" lon="15.7837685">
        <ele>195.490</ele>
        <time>2019-05-05T10:06:37.226Z</time>
      </trkpt>
      <trkpt lat="48.3769460" lon="15.7839135">
        <ele>195.431</ele>
        <time>2019-05-05T10:06:49.812Z</time>
      </trkpt>
      <trkpt lat="48.3770121" lon="15.7840454">
        <ele>195.402</ele>
        <time>2019-05-05T10:07:02.266Z</time>
      </trkpt>
      <trkpt lat="48.3770761" lon="15.7841827">
        <ele>195.531</ele>
        <time>2019-05-05T10:07:14.913Z</time>
      </trkpt>
      <trkpt lat="48.3771390" lon="15.7843572">
        <ele>195.706</ele>
        <time>2019-05-05T10:07:29.885Z</time>
      </trkpt>
      <trkpt lat="48.3771960" lon="15.7845001">
        <ele>195.744</ele>
        <time>2019-05-05T10:07:42.451Z</time>
      </trkpt>
      <trkpt lat="48.3772571" lon="15.7846617">
        <ele>195.624</ele>
        <time>2019-05-05T10:07:56.465Z</time>
      </trkpt>
      <trkpt lat="48.3773085" lon="15.7848049">
        <ele>195.486</ele>
        <time>2019-05-05T10:08:08.734Z</time>
      </trkpt>
      <trkpt lat="48.3773660" lon="15.7849513">
        <ele>195.445</ele>
        <time>2019-05-05T10:08:21.555Z</time>
      </trkpt>
      <trkpt lat="48.3774239" lon="15.7850731">
        <ele>195.456</ele>
        <time>2019-05-05T10:08:32.856Z</time>
      </trkpt>
      <trkpt lat="48.3774798" lon="15.7852017">
        <ele>195.429</ele>
        <time>2019-05-05T10:08:44.432Z</time>
      </trkpt>
      <trkpt lat="48.3775323" lon="15.7853457">
        <ele>195.347</ele>
        <time>2019-05-05T10:08:56.814Z</time>
      </trkpt>
      <trkpt lat="48.3776005" lon="15.7855159">
        <ele>195.276</ele>
        <time>2019-05-05T10:09:11.797Z</time>
      </trkpt>
      <trkpt lat="48.3776655" lon="15.7856682">
        <ele>195.262</ele>
        <time>2019-05-05T10:09:25.443Z</time>
      </trkpt>
      <trkpt lat="48.3777316" lon="15.7858083">
        <ele>195.229</ele>
        <time>2019-05-05T10:09:38.396Z</time>
      </trkpt>
      <trkpt lat="48.3777981" lon="15.7859433">
        <ele>195.114</ele>
        <time>2019-05-05T10:09:51.074Z</time>
      </trkpt>
      <trkpt lat="48.3778534" lon="15.7860828">
        <ele>195.022</ele>
        <time>2019-05-05T10:10:03.313Z</time>
      </trkpt>
      <trkpt lat="48.3779156" lon="15.7862144">
        <ele>195.105</ele>
        <time>2019-05-05T10:10:15.491Z</time>
      </trkpt>
      <trkpt lat="48.3779539" lon="15.7863569">
        <ele>195.323</ele>
        <time>2019-05-05T10:10:27.078Z</time>
      </trkpt>
      <trkpt lat="48.3780048" lon="15.7864967">
        <ele>195.502</ele>
        <time>2019-05-05T10:10:39.103Z</time>
      </trkpt>
      <trkpt lat="48.3780672" lon="15.7866322">
        <ele>195.538</ele>
        <time>2019-05-05T10:10:51.536Z</time>
      </trkpt>
      <trkpt lat="48.3781271" lon="15.7867397">
        <ele>195.479</ele>
        <time>2019-05-05T10:11:02.112Z</time>
      </trkpt>
      <trkpt lat="48.3781822" lon="15.7868628">
        <ele>195.415</ele>
        <time>2019-05-05T10:11:13.301Z</time>
      </trkpt>
      <trkpt lat="48.3782317" lon="15.7870113">
        <ele>195.388</ele>
        <time>2019-05-05T10:11:25.826Z</time>
      </trkpt>
      <trkpt lat="48.3782799" lon="15.7871677">
        <ele>195.353</ele>
        <time>2019-05-05T10:11:38.820Z</time>
      </trkpt>
      <trkpt lat="48.3783255" lon="15.7873061">
        <ele>195.264</ele>
        <time>2019-05-05T10:11:50.467Z</time>
      </trkpt>
      <trkpt lat="48.3783837" lon="15.7874640">
        <ele>195.168</ele>
        <time>2019-05-05T10:12:04.083Z</time>
      </trkpt>
      <trkpt lat="48.3784383" lon="15.7876194">
        <ele>195.118</ele>
        <time>2019-05-05T10:12:13.099Z</time>
      </trkpt>
      <trkpt lat="48.3784908" lon="15.7877652">
        <ele>195.102</ele>
        <time>2019-05-05T10:12:19.202Z</time>
      </trkpt>
      <trkpt lat="48.3785314" lon="15.7879163">
        <ele>195.051</ele>
        <time>2019-05-05T10:12:25.080Z</time>
      </trkpt>
      <trkpt lat="48.3785803" lon="15.7880749">
        <ele>194.936</ele>
        <time>2019-05-05T10:12:31.207Z</time>
      </trkpt>
      <trkpt lat="48.3786369" lon="15.7882193">
        <ele>194.847</ele>
        <time>2019-05-05T10:12:36.831Z</time>
      </trkpt>
      <trkpt lat="48.3786782" lon="15.7883696">
        <ele>194.851</ele>
        <time>2019-05-05T10:12:42.209Z</time>
      </trkpt>
      <trkpt lat="48.3787314" lon="15.7885214">
        <ele>194.878</ele>
        <time>2019-05-05T10:12:47.717Z</time>
      </trkpt>
      <trkpt lat="48.3787733" lon="15.7886813">
        <ele>194.839</ele>
        <time>2019-05-05T10:12:52.838Z</time>
      </trkpt>
      <trkpt lat="48.3788107" lon="15.7888477">
        <ele>194.749</ele>
        <time>2019-05-05T10:12:58.155Z</time>
      </trkpt>
      <trkpt lat="48.3788370" lon="15.7889909">
        <ele>194.695</ele>
        <time>2019-05-05T10:13:03.065Z</time>
      </trkpt>
      <trkpt lat="48.3788709" lon="15.7891436">
        <ele>194.726</ele>
        <time>2019-05-05T10:13:08.147Z</time>
      </trkpt>
      <trkpt lat="48.3789183" lon="15.7892949">
        <ele>194.800</ele>
        <time>2019-05-05T10:13:13.108Z</time>
      </trkpt>
      <trkpt lat="48.3789565" lon="15.7894504">
        <ele>194.856</ele>
        <time>2019-05-05T10:13:17.707Z</time>
      </trkpt>
      <trkpt lat="48.3789775" lon="15.7896091">
        <ele>194.882</ele>
        <time>2019-05-05T10:13:23.070Z</time>
      </trkpt>
      <trkpt lat="48.3790051" lon="15.7897630">
        <ele>194.893</ele>
        <time>2019-05-05T10:13:29.077Z</time>
      </trkpt>
      <trkpt lat="48.3790410" lon="15.7899005">
        <ele>194.881</ele>
        <time>2019-05-05T10:13:33.863Z</time>
      </trkpt>
      <trkpt lat="48.3790793" lon="15.7900517">
        <ele>194.825</ele>
        <time>2019-05-05T10:13:38.435Z</time>
      </trkpt>
      <trkpt lat="48.3791158" lon="15.7902274">
        <ele>194.743</ele>
        <time>2019-05-05T10:13:43.548Z</time>
      </trkpt>
      <trkpt lat="48.3791370" lon="15.7903860">
        <ele>194.700</ele>
        <time>2019-05-05T10:13:48.196Z</time>
      </trkpt>
      <trkpt lat="48.3791608" lon="15.7905491">
        <ele>194.746</ele>
        <time>2019-05-05T10:13:52.962Z</time>
      </trkpt>
      <trkpt lat="48.3791876" lon="15.7907144">
        <ele>194.854</ele>
        <time>2019-05-05T10:13:57.458Z</time>
      </trkpt>
      <trkpt lat="48.3792114" lon="15.7908970">
        <ele>194.936</ele>
        <time>2019-05-05T10:14:01.827Z</time>
      </trkpt>
      <trkpt lat="48.3792368" lon="15.7910644">
        <ele>194.945</ele>
        <time>2019-05-05T10:14:05.807Z</time>
      </trkpt>
      <trkpt lat="48.3792498" lon="15.7911989">
        <ele>194.897</ele>
        <time>2019-05-05T10:14:08.988Z</time>
      </trkpt>
      <trkpt lat="48.3792877" lon="15.7913459">
        <ele>194.797</ele>
        <time>2019-05-05T10:14:12.724Z</time>
      </trkpt>
      <trkpt lat="48.3792992" lon="15.7914828">
        <ele>194.664</ele>
        <time>2019-05-05T10:14:16.117Z</time>
      </trkpt>
      <trkpt lat="48.3793297" lon="15.7916836">
        <ele>194.577</ele>
        <time>2019-05-05T10:14:21.212Z</time>
      </trkpt>
      <trkpt lat="48.3793388" lon="15.7918574">
        <ele>194.588</ele>
        <time>2019-05-05T10:14:25.313Z</time>
      </trkpt>
      <trkpt lat="48.3793375" lon="15.7920254">
        <ele>194.664</ele>
        <time>2019-05-05T10:14:29.241Z</time>
      </trkpt>
      <trkpt lat="48.3793505" lon="15.7922218">
        <ele>194.744</ele>
        <time>2019-05-05T10:14:33.934Z</time>
      </trkpt>
      <trkpt lat="48.3793694" lon="15.7923933">
        <ele>194.798</ele>
        <time>2019-05-05T10:14:37.934Z</time>
      </trkpt>
      <trkpt lat="48.3793845" lon="15.7925630">
        <ele>194.852</ele>
        <time>2019-05-05T10:14:41.819Z</time>
      </trkpt>
      <trkpt lat="48.3793974" lon="15.7927428">
        <ele>194.935</ele>
        <time>2019-05-05T10:14:45.870Z</time>
      </trkpt>
      <trkpt lat="48.3794199" lon="15.7929211">
        <ele>195.036</ele>
        <time>2019-05-05T10:14:49.927Z</time>
      </trkpt>
      <trkpt lat="48.3794263" lon="15.7930886">
        <ele>195.117</ele>
        <time>2019-05-05T10:14:53.732Z</time>
      </trkpt>
      <trkpt lat="48.3794364" lon="15.7932592">
        <ele>195.146</ele>
        <time>2019-05-05T10:14:57.538Z</time>
      </trkpt>
      <trkpt lat="48.3794480" lon="15.7934523">
        <ele>195.117</ele>
        <time>2019-05-05T10:15:01.836Z</time>
      </trkpt>
      <trkpt lat="48.3794573" lon="15.7936319">
        <ele>195.102</ele>
        <time>2019-05-05T10:15:05.928Z</time>
      </trkpt>
      <trkpt lat="48.3794715" lon="15.7938117">
        <ele>195.154</ele>
        <time>2019-05-05T10:15:10.048Z</time>
      </trkpt>
      <trkpt lat="48.3794708" lon="15.7939892">
        <ele>195.196</ele>
        <time>2019-05-05T10:15:14.067Z</time>
      </trkpt>
      <trkpt lat="48.3794888" lon="15.7941544">
        <ele>195.143</ele>
        <time>2019-05-05T10:15:17.794Z</time>
      </trkpt>
      <trkpt lat="48.3794862" lon="15.7943231">
        <ele>195.035</ele>
        <time>2019-05-05T10:15:21.571Z</time>
      </trkpt>
      <trkpt lat="48.3794973" lon="15.7945120">
        <ele>194.945</ele>
        <time>2019-05-05T10:15:26.111Z</time>
      </trkpt>
      <trkpt lat="48.3795107" lon="15.7947021">
        <ele>194.848</ele>
        <time>2019-05-05T10:15:30.580Z</time>
      </trkpt>
      <trkpt lat="48.3795292" lon="15.7948920">
        <ele>194.684</ele>
        <time>2019-05-05T10:15:35.049Z</time>
      </trkpt>
      <trkpt lat="48.3795418" lon="15.7950514">
        <ele>194.493</ele>
        <time>2019-05-05T10:15:39.075Z</time>
      </trkpt>
      <trkpt lat="48.3795418" lon="15.7952237">
        <ele>194.374</ele>
        <time>2019-05-05T10:15:43.212Z</time>
      </trkpt>
      <trkpt lat="48.3795472" lon="15.7954054">
        <ele>194.358</ele>
        <time>2019-05-05T10:15:47.198Z</time>
      </trkpt>
      <trkpt lat="48.3795563" lon="15.7955832">
        <ele>194.406</ele>
        <time>2019-05-05T10:15:51.075Z</time>
      </trkpt>
      <trkpt lat="48.3795593" lon="15.7957549">
        <ele>194.465</ele>
        <time>2019-05-05T10:15:55.076Z</time>
      </trkpt>
      <trkpt lat="48.3795548" lon="15.7959359">
        <ele>194.501</ele>
        <time>2019-05-05T10:15:59.350Z</time>
      </trkpt>
      <trkpt lat="48.3795606" lon="15.7961148">
        <ele>194.478</ele>
        <time>2019-05-05T10:16:03.355Z</time>
      </trkpt>
      <trkpt lat="48.3795704" lon="15.7962953">
        <ele>194.368</ele>
        <time>2019-05-05T10:16:07.289Z</time>
      </trkpt>
      <trkpt lat="48.3795719" lon="15.7964680">
        <ele>194.218</ele>
        <time>2019-05-05T10:16:11.387Z</time>
      </trkpt>
      <trkpt lat="48.3795737" lon="15.7966443">
        <ele>194.121</ele>
        <time>2019-05-05T10:16:15.600Z</time>
      </trkpt>
      <trkpt lat="48.3795700" lon="15.7968075">
        <ele>194.129</ele>
        <time>2019-05-05T10:16:19.185Z</time>
      </trkpt>
      <trkpt lat="48.3795787" lon="15.7969832">
        <ele>194.228</ele>
        <time>2019-05-05T10:16:23.103Z</time>
      </trkpt>
      <trkpt lat="48.3795779" lon="15.7971511">
        <ele>194.351</ele>
        <time>2019-05-05T10:16:27.012Z</time>
      </trkpt>
      <trkpt lat="48.3795785" lon="15.7973230">
        <ele>194.412</ele>
        <time>2019-05-05T10:16:30.882Z</time>
      </trkpt>
      <trkpt lat="48.3795731" lon="15.7974937">
        <ele>194.388</ele>
        <time>2019-05-05T10:16:34.590Z</time>
      </trkpt>
      <trkpt lat="48.3795667" lon="15.7976757">
        <ele>194.323</ele>
        <time>2019-05-05T10:16:38.484Z</time>
      </trkpt>
      <trkpt lat="48.3795619" lon="15.7978488">
        <ele>194.259</ele>
        <time>2019-05-05T10:16:42.216Z</time>
      </trkpt>
      <trkpt lat="48.3795536" lon="15.7980282">
        <ele>194.206</ele>
        <time>2019-05-05T10:16:46.105Z</time>
      </trkpt>
      <trkpt lat="48.3795488" lon="15.7981864">
        <ele>194.161</ele>
        <time>2019-05-05T10:16:49.530Z</time>
      </trkpt>
      <trkpt lat="48.3795453" lon="15.7983643">
        <ele>194.111</ele>
        <time>2019-05-05T10:16:53.527Z</time>
      </trkpt>
      <trkpt lat="48.3795291" lon="15.7985352">
        <ele>194.045</ele>
        <time>2019-05-05T10:16:57.410Z</time>
      </trkpt>
      <trkpt lat="48.3795168" lon="15.7987207">
        <ele>193.976</ele>
        <time>2019-05-05T10:17:01.359Z</time>
      </trkpt>
      <trkpt lat="48.3795175" lon="15.7989030">
        <ele>193.924</ele>
        <time>2019-05-05T10:17:05.404Z</time>
      </trkpt>
      <trkpt lat="48.3795016" lon="15.7990833">
        <ele>193.938</ele>
        <time>2019-05-05T10:17:09.440Z</time>
      </trkpt>
      <trkpt lat="48.3794900" lon="15.7992520">
        <ele>194.109</ele>
        <time>2019-05-05T10:17:12.986Z</time>
      </trkpt>
      <trkpt lat="48.3794796" lon="15.7994134">
        <ele>194.429</ele>
        <time>2019-05-05T10:17:16.392Z</time>
      </trkpt>
      <trkpt lat="48.3794581" lon="15.7995749">
        <ele>194.744</ele>
        <time>2019-05-05T10:17:19.848Z</time>
      </trkpt>
      <trkpt lat="48.3794474" lon="15.7998449">
        <ele>194.931</ele>
        <time>2019-05-05T10:17:25.479Z</time>
      </trkpt>
      <trkpt lat="48.3794443" lon="15.8000345">
        <ele>195.065</ele>
        <time>2019-05-05T10:17:29.479Z</time>
      </trkpt>
      <trkpt lat="48.3794333" lon="15.8002159">
        <ele>195.274</ele>
        <time>2019-05-05T10:17:33.235Z</time>
      </trkpt>
      <trkpt lat="48.3794147" lon="15.8003936">
        <ele>195.515</ele>
        <time>2019-05-05T10:17:37.125Z</time>
      </trkpt>
      <trkpt lat="48.3793929" lon="15.8005748">
        <ele>195.654</ele>
        <time>2019-05-05T10:17:41.254Z</time>
      </trkpt>
      <trkpt lat="48.3793770" lon="15.8007456">
        <ele>195.635</ele>
        <time>2019-05-05T10:17:45.214Z</time>
      </trkpt>
      <trkpt lat="48.3793689" lon="15.8009287">
        <ele>195.467</ele>
        <time>2019-05-05T10:17:49.157Z</time>
      </trkpt>
      <trkpt lat="48.3793482" lon="15.8011046">
        <ele>195.210</ele>
        <time>2019-05-05T10:17:53.013Z</time>
      </trkpt>
      <trkpt lat="48.3793291" lon="15.8012713">
        <ele>194.960</ele>
        <time>2019-05-05T10:17:56.831Z</time>
      </trkpt>
      <trkpt lat="48.3792908" lon="15.8014434">
        <ele>194.761</ele>
        <time>2019-05-05T10:18:00.879Z</time>
      </trkpt>
      <trkpt lat="48.3792756" lon="15.8016336">
        <ele>194.597</ele>
        <time>2019-05-05T10:18:04.816Z</time>
      </trkpt>
      <trkpt lat="48.3792699" lon="15.8018222">
        <ele>194.441</ele>
        <time>2019-05-05T10:18:08.785Z</time>
      </trkpt>
      <trkpt lat="48.3792426" lon="15.8020020">
        <ele>193.933</ele>
        <time>2019-05-05T10:18:13.026Z</time>
      </trkpt>
      <trkpt lat="48.3792197" lon="15.8021752">
        <ele>192.655</ele>
        <time>2019-05-05T10:18:17.158Z</time>
      </trkpt>
      <trkpt lat="48.3791921" lon="15.8023529">
        <ele>190.880</ele>
        <time>2019-05-05T10:18:21.618Z</time>
      </trkpt>
      <trkpt lat="48.3791607" lon="15.8025355">
        <ele>189.383</ele>
        <time>2019-05-05T10:18:26.117Z</time>
      </trkpt>
      <trkpt lat="48.3791325" lon="15.8027212">
        <ele>189.307</ele>
        <time>2019-05-05T10:18:30.288Z</time>
      </trkpt>
      <trkpt lat="48.3791176" lon="15.8029125">
        <ele>191.079</ele>
        <time>2019-05-05T10:18:34.258Z</time>
      </trkpt>
      <trkpt lat="48.3790799" lon="15.8030988">
        <ele>193.325</ele>
        <time>2019-05-05T10:18:38.343Z</time>
      </trkpt>
      <trkpt lat="48.3790529" lon="15.8032723">
        <ele>194.546</ele>
        <time>2019-05-05T10:18:42.112Z</time>
      </trkpt>
      <trkpt lat="48.3790174" lon="15.8034783">
        <ele>194.635</ele>
        <time>2019-05-05T10:18:46.504Z</time>
      </trkpt>
      <trkpt lat="48.3789750" lon="15.8036690">
        <ele>194.142</ele>
        <time>2019-05-05T10:18:50.726Z</time>
      </trkpt>
      <trkpt lat="48.3789446" lon="15.8038408">
        <ele>193.635</ele>
        <time>2019-05-05T10:18:54.543Z</time>
      </trkpt>
      <trkpt lat="48.3789080" lon="15.8040130">
        <ele>193.396</ele>
        <time>2019-05-05T10:18:58.376Z</time>
      </trkpt>
      <trkpt lat="48.3788802" lon="15.8041657">
        <ele>193.449</ele>
        <time>2019-05-05T10:19:01.754Z</time>
      </trkpt>
      <trkpt lat="48.3788537" lon="15.8043235">
        <ele>193.671</ele>
        <time>2019-05-05T10:19:05.335Z</time>
      </trkpt>
      <trkpt lat="48.3788310" lon="15.8045063">
        <ele>193.886</ele>
        <time>2019-05-05T10:19:09.362Z</time>
      </trkpt>
      <trkpt lat="48.3787993" lon="15.8046737">
        <ele>193.960</ele>
        <time>2019-05-05T10:19:12.995Z</time>
      </trkpt>
      <trkpt lat="48.3787745" lon="15.8048535">
        <ele>193.882</ele>
        <time>2019-05-05T10:19:16.784Z</time>
      </trkpt>
      <trkpt lat="48.3787438" lon="15.8050227">
        <ele>193.752</ele>
        <time>2019-05-05T10:19:20.768Z</time>
      </trkpt>
      <trkpt lat="48.3787178" lon="15.8052061">
        <ele>193.662</ele>
        <time>2019-05-05T10:19:24.895Z</time>
      </trkpt>
      <trkpt lat="48.3786929" lon="15.8053747">
        <ele>193.624</ele>
        <time>2019-05-05T10:19:28.458Z</time>
      </trkpt>
      <trkpt lat="48.3786612" lon="15.8055353">
        <ele>193.616</ele>
        <time>2019-05-05T10:19:31.785Z</time>
      </trkpt>
      <trkpt lat="48.3786221" lon="15.8057180">
        <ele>193.630</ele>
        <time>2019-05-05T10:19:35.659Z</time>
      </trkpt>
      <trkpt lat="48.3785920" lon="15.8058892">
        <ele>193.710</ele>
        <time>2019-05-05T10:19:39.231Z</time>
      </trkpt>
      <trkpt lat="48.3785576" lon="15.8060693">
        <ele>193.928</ele>
        <time>2019-05-05T10:19:42.968Z</time>
      </trkpt>
      <trkpt lat="48.3785208" lon="15.8062525">
        <ele>194.235</ele>
        <time>2019-05-05T10:19:46.788Z</time>
      </trkpt>
      <trkpt lat="48.3784913" lon="15.8064153">
        <ele>194.452</ele>
        <time>2019-05-05T10:19:50.170Z</time>
      </trkpt>
      <trkpt lat="48.3784619" lon="15.8065870">
        <ele>194.428</ele>
        <time>2019-05-05T10:19:53.748Z</time>
      </trkpt>
      <trkpt lat="48.3784367" lon="15.8067727">
        <ele>194.161</ele>
        <time>2019-05-05T10:19:57.653Z</time>
      </trkpt>
      <trkpt lat="48.3784072" lon="15.8069426">
        <ele>193.819</ele>
        <time>2019-05-05T10:20:01.083Z</time>
      </trkpt>
      <trkpt lat="48.3783670" lon="15.8071110">
        <ele>193.616</ele>
        <time>2019-05-05T10:20:04.619Z</time>
      </trkpt>
      <trkpt lat="48.3783344" lon="15.8072944">
        <ele>193.637</ele>
        <time>2019-05-05T10:20:08.453Z</time>
      </trkpt>
      <trkpt lat="48.3782990" lon="15.8074751">
        <ele>193.800</ele>
        <time>2019-05-05T10:20:12.228Z</time>
      </trkpt>
      <trkpt lat="48.3782730" lon="15.8076464">
        <ele>193.960</ele>
        <time>2019-05-05T10:20:15.774Z</time>
      </trkpt>
      <trkpt lat="48.3782441" lon="15.8078229">
        <ele>194.001</ele>
        <time>2019-05-05T10:20:19.485Z</time>
      </trkpt>
      <trkpt lat="48.3782136" lon="15.8079927">
        <ele>193.872</ele>
        <time>2019-05-05T10:20:23.023Z</time>
      </trkpt>
      <trkpt lat="48.3781792" lon="15.8081674">
        <ele>193.604</ele>
        <time>2019-05-05T10:20:26.607Z</time>
      </trkpt>
      <trkpt lat="48.3781451" lon="15.8083654">
        <ele>193.328</ele>
        <time>2019-05-05T10:20:30.745Z</time>
      </trkpt>
      <trkpt lat="48.3781100" lon="15.8085396">
        <ele>193.177</ele>
        <time>2019-05-05T10:20:34.422Z</time>
      </trkpt>
      <trkpt lat="48.3780878" lon="15.8087259">
        <ele>193.204</ele>
        <time>2019-05-05T10:20:38.230Z</time>
      </trkpt>
      <trkpt lat="48.3780502" lon="15.8089116">
        <ele>193.394</ele>
        <time>2019-05-05T10:20:42.162Z</time>
      </trkpt>
      <trkpt lat="48.3780181" lon="15.8090871">
        <ele>193.723</ele>
        <time>2019-05-05T10:20:45.890Z</time>
      </trkpt>
      <trkpt lat="48.3779854" lon="15.8092610">
        <ele>194.095</ele>
        <time>2019-05-05T10:20:49.609Z</time>
      </trkpt>
      <trkpt lat="48.3779555" lon="15.8094332">
        <ele>194.301</ele>
        <time>2019-05-05T10:20:53.292Z</time>
      </trkpt>
      <trkpt lat="48.3779216" lon="15.8096204">
        <ele>194.200</ele>
        <time>2019-05-05T10:20:57.223Z</time>
      </trkpt>
      <trkpt lat="48.3778894" lon="15.8097969">
        <ele>193.901</ele>
        <time>2019-05-05T10:21:00.951Z</time>
      </trkpt>
      <trkpt lat="48.3778594" lon="15.8099651">
        <ele>193.629</ele>
        <time>2019-05-05T10:21:04.473Z</time>
      </trkpt>
      <trkpt lat="48.3778207" lon="15.8101740">
        <ele>193.501</ele>
        <time>2019-05-05T10:21:08.839Z</time>
      </trkpt>
      <trkpt lat="48.3777912" lon="15.8103587">
        <ele>193.483</ele>
        <time>2019-05-05T10:21:12.589Z</time>
      </trkpt>
      <trkpt lat="48.3777563" lon="15.8105401">
        <ele>193.546</ele>
        <time>2019-05-05T10:21:16.227Z</time>
      </trkpt>
      <trkpt lat="48.3777249" lon="15.8107358">
        <ele>193.734</ele>
        <time>2019-05-05T10:21:20.074Z</time>
      </trkpt>
      <trkpt lat="48.3776923" lon="15.8109258">
        <ele>194.015</ele>
        <time>2019-05-05T10:21:23.926Z</time>
      </trkpt>
      <trkpt lat="48.3776743" lon="15.8111132">
        <ele>194.185</ele>
        <time>2019-05-05T10:21:27.622Z</time>
      </trkpt>
      <trkpt lat="48.3776640" lon="15.8112999">
        <ele>194.094</ele>
        <time>2019-05-05T10:21:31.145Z</time>
      </trkpt>
      <trkpt lat="48.3776476" lon="15.8114764">
        <ele>193.838</ele>
        <time>2019-05-05T10:21:34.506Z</time>
      </trkpt>
      <trkpt lat="48.3776420" lon="15.8116699">
        <ele>193.628</ele>
        <time>2019-05-05T10:21:38.094Z</time>
      </trkpt>
      <trkpt lat="48.3776105" lon="15.8118575">
        <ele>193.559</ele>
        <time>2019-05-05T10:21:41.670Z</time>
      </trkpt>
      <trkpt lat="48.3775976" lon="15.8120259">
        <ele>193.580</ele>
        <time>2019-05-05T10:21:44.901Z</time>
      </trkpt>
      <trkpt lat="48.3775700" lon="15.8122433">
        <ele>193.621</ele>
        <time>2019-05-05T10:21:49.275Z</time>
      </trkpt>
      <trkpt lat="48.3775666" lon="15.8124308">
        <ele>193.657</ele>
        <time>2019-05-05T10:21:53.060Z</time>
      </trkpt>
      <trkpt lat="48.3775514" lon="15.8126068">
        <ele>193.730</ele>
        <time>2019-05-05T10:21:56.641Z</time>
      </trkpt>
      <trkpt lat="48.3775367" lon="15.8127737">
        <ele>193.866</ele>
        <time>2019-05-05T10:21:59.946Z</time>
      </trkpt>
      <trkpt lat="48.3775385" lon="15.8129388">
        <ele>194.017</ele>
        <time>2019-05-05T10:22:03.264Z</time>
      </trkpt>
      <trkpt lat="48.3775456" lon="15.8131466">
        <ele>194.119</ele>
        <time>2019-05-05T10:22:07.466Z</time>
      </trkpt>
      <trkpt lat="48.3775551" lon="15.8133353">
        <ele>194.164</ele>
        <time>2019-05-05T10:22:11.163Z</time>
      </trkpt>
      <trkpt lat="48.3775581" lon="15.8134853">
        <ele>194.209</ele>
        <time>2019-05-05T10:22:14.138Z</time>
      </trkpt>
      <trkpt lat="48.3775717" lon="15.8136789">
        <ele>194.309</ele>
        <time>2019-05-05T10:22:17.927Z</time>
      </trkpt>
      <trkpt lat="48.3775819" lon="15.8138601">
        <ele>194.425</ele>
        <time>2019-05-05T10:22:21.376Z</time>
      </trkpt>
      <trkpt lat="48.3775834" lon="15.8140483">
        <ele>194.467</ele>
        <time>2019-05-05T10:22:24.938Z</time>
      </trkpt>
      <trkpt lat="48.3775909" lon="15.8142580">
        <ele>194.403</ele>
        <time>2019-05-05T10:22:29.043Z</time>
      </trkpt>
      <trkpt lat="48.3776094" lon="15.8144835">
        <ele>194.290</ele>
        <time>2019-05-05T10:22:33.542Z</time>
      </trkpt>
      <trkpt lat="48.3776280" lon="15.8146819">
        <ele>194.174</ele>
        <time>2019-05-05T10:22:37.343Z</time>
      </trkpt>
      <trkpt lat="48.3776389" lon="15.8148832">
        <ele>194.025</ele>
        <time>2019-05-05T10:22:41.166Z</time>
      </trkpt>
      <trkpt lat="48.3776536" lon="15.8150759">
        <ele>193.842</ele>
        <time>2019-05-05T10:22:44.891Z</time>
      </trkpt>
      <trkpt lat="48.3776683" lon="15.8152792">
        <ele>193.676</ele>
        <time>2019-05-05T10:22:48.771Z</time>
      </trkpt>
      <trkpt lat="48.3776720" lon="15.8154593">
        <ele>193.559</ele>
        <time>2019-05-05T10:22:52.176Z</time>
      </trkpt>
      <trkpt lat="48.3776927" lon="15.8156648">
        <ele>193.541</ele>
        <time>2019-05-05T10:22:56.083Z</time>
      </trkpt>
      <trkpt lat="48.3777156" lon="15.8158539">
        <ele>193.658</ele>
        <time>2019-05-05T10:22:59.666Z</time>
      </trkpt>
      <trkpt lat="48.3777335" lon="15.8160214">
        <ele>193.884</ele>
        <time>2019-05-05T10:23:02.778Z</time>
      </trkpt>
      <trkpt lat="48.3777430" lon="15.8161989">
        <ele>194.197</ele>
        <time>2019-05-05T10:23:06.104Z</time>
      </trkpt>
      <trkpt lat="48.3777510" lon="15.8163626">
        <ele>194.570</ele>
        <time>2019-05-05T10:23:09.156Z</time>
      </trkpt>
      <trkpt lat="48.3777599" lon="15.8165511">
        <ele>194.897</ele>
        <time>2019-05-05T10:23:12.643Z</time>
      </trkpt>
      <trkpt lat="48.3777853" lon="15.8167291">
        <ele>195.052</ele>
        <time>2019-05-05T10:23:16.028Z</time>
      </trkpt>
      <trkpt lat="48.3777998" lon="15.8169186">
        <ele>195.028</ele>
        <time>2019-05-05T10:23:19.512Z</time>
      </trkpt>
      <trkpt lat="48.3778145" lon="15.8171269">
        <ele>194.925</ele>
        <time>2019-05-05T10:23:23.326Z</time>
      </trkpt>
      <trkpt lat="48.3778155" lon="15.8172835">
        <ele>194.785</ele>
        <time>2019-05-05T10:23:26.189Z</time>
      </trkpt>
      <trkpt lat="48.3778259" lon="15.8174821">
        <ele>194.585</ele>
        <time>2019-05-05T10:23:29.967Z</time>
      </trkpt>
      <trkpt lat="48.3778424" lon="15.8176736">
        <ele>194.375</ele>
        <time>2019-05-05T10:23:33.559Z</time>
      </trkpt>
      <trkpt lat="48.3778789" lon="15.8178980">
        <ele>194.229</ele>
        <time>2019-05-05T10:23:37.765Z</time>
      </trkpt>
      <trkpt lat="48.3779024" lon="15.8180899">
        <ele>194.163</ele>
        <time>2019-05-05T10:23:41.201Z</time>
      </trkpt>
      <trkpt lat="48.3779166" lon="15.8182502">
        <ele>194.148</ele>
        <time>2019-05-05T10:23:44.039Z</time>
      </trkpt>
      <trkpt lat="48.3779172" lon="15.8184422">
        <ele>194.139</ele>
        <time>2019-05-05T10:23:47.482Z</time>
      </trkpt>
      <trkpt lat="48.3779292" lon="15.8186352">
        <ele>194.081</ele>
        <time>2019-05-05T10:23:51.013Z</time>
      </trkpt>
      <trkpt lat="48.3779518" lon="15.8188564">
        <ele>193.935</ele>
        <time>2019-05-05T10:23:55.129Z</time>
      </trkpt>
      <trkpt lat="48.3779531" lon="15.8190163">
        <ele>193.718</ele>
        <time>2019-05-05T10:23:58.127Z</time>
      </trkpt>
      <trkpt lat="48.3779626" lon="15.8191946">
        <ele>193.512</ele>
        <time>2019-05-05T10:24:01.587Z</time>
      </trkpt>
      <trkpt lat="48.3779783" lon="15.8194004">
        <ele>193.387</ele>
        <time>2019-05-05T10:24:05.586Z</time>
      </trkpt>
      <trkpt lat="48.3780046" lon="15.8195914">
        <ele>193.341</ele>
        <time>2019-05-05T10:24:09.108Z</time>
      </trkpt>
      <trkpt lat="48.3780388" lon="15.8197589">
        <ele>193.395</ele>
        <time>2019-05-05T10:24:12.361Z</time>
      </trkpt>
      <trkpt lat="48.3780664" lon="15.8199501">
        <ele>193.605</ele>
        <time>2019-05-05T10:24:15.973Z</time>
      </trkpt>
      <trkpt lat="48.3781039" lon="15.8201202">
        <ele>193.965</ele>
        <time>2019-05-05T10:24:19.300Z</time>
      </trkpt>
      <trkpt lat="48.3781311" lon="15.8202989">
        <ele>194.352</ele>
        <time>2019-05-05T10:24:22.761Z</time>
      </trkpt>
      <trkpt lat="48.3781629" lon="15.8204884">
        <ele>194.611</ele>
        <time>2019-05-05T10:24:26.357Z</time>
      </trkpt>
      <trkpt lat="48.3781861" lon="15.8206710">
        <ele>194.660</ele>
        <time>2019-05-05T10:24:29.849Z</time>
      </trkpt>
      <trkpt lat="48.3781918" lon="15.8208211">
        <ele>194.533</ele>
        <time>2019-05-05T10:24:32.618Z</time>
      </trkpt>
      <trkpt lat="48.3782119" lon="15.8209862">
        <ele>194.320</ele>
        <time>2019-05-05T10:24:35.725Z</time>
      </trkpt>
      <trkpt lat="48.3782411" lon="15.8211814">
        <ele>194.089</ele>
        <time>2019-05-05T10:24:39.485Z</time>
      </trkpt>
      <trkpt lat="48.3782709" lon="15.8213544">
        <ele>193.872</ele>
        <time>2019-05-05T10:24:42.948Z</time>
      </trkpt>
      <trkpt lat="48.3782948" lon="15.8214985">
        <ele>193.716</ele>
        <time>2019-05-05T10:24:45.838Z</time>
      </trkpt>
      <trkpt lat="48.3783223" lon="15.8216345">
        <ele>193.704</ele>
        <time>2019-05-05T10:24:48.649Z</time>
      </trkpt>
      <trkpt lat="48.3783495" lon="15.8218172">
        <ele>193.934</ele>
        <time>2019-05-05T10:24:52.368Z</time>
      </trkpt>
      <trkpt lat="48.3783809" lon="15.8220048">
        <ele>194.420</ele>
        <time>2019-05-05T10:24:56.344Z</time>
      </trkpt>
      <trkpt lat="48.3784069" lon="15.8221844">
        <ele>194.973</ele>
        <time>2019-05-05T10:25:00.249Z</time>
      </trkpt>
      <trkpt lat="48.3784207" lon="15.8223370">
        <ele>195.306</ele>
        <time>2019-05-05T10:25:03.477Z</time>
      </trkpt>
      <trkpt lat="48.3784555" lon="15.8225068">
        <ele>195.312</ele>
        <time>2019-05-05T10:25:07.653Z</time>
      </trkpt>
      <trkpt lat="48.3784681" lon="15.8226475">
        <ele>195.100</ele>
        <time>2019-05-05T10:25:14.000Z</time>
      </trkpt>
      <trkpt lat="48.3784681" lon="15.8226475">
        <ele>194.771</ele>
        <time>2019-05-05T10:25:14.001Z</time>
      </trkpt>
      <trkpt lat="48.3784681" lon="15.8226475">
        <ele>194.420</ele>
        <time>2019-05-05T10:25:14.532Z</time>
      </trkpt>
      <trkpt lat="48.3784122" lon="15.8225239">
        <ele>194.186</ele>
        <time>2019-05-05T10:25:22.126Z</time>
      </trkpt>
      <trkpt lat="48.3784201" lon="15.8226754">
        <ele>194.114</ele>
        <time>2019-05-05T10:25:25.000Z</time>
      </trkpt>
      <trkpt lat="48.3784201" lon="15.8226754">
        <ele>194.102</ele>
        <time>2019-05-05T10:25:25.000Z</time>
      </trkpt>
      <trkpt lat="48.3784201" lon="15.8226754">
        <ele>194.050</ele>
        <time>2019-05-05T10:25:25.286Z</time>
      </trkpt>
      <trkpt lat="48.3784177" lon="15.8228981">
        <ele>193.961</ele>
        <time>2019-05-05T10:25:30.623Z</time>
      </trkpt>
      <trkpt lat="48.3784055" lon="15.8230716">
        <ele>193.873</ele>
        <time>2019-05-05T10:25:32.913Z</time>
      </trkpt>
      <trkpt lat="48.3784063" lon="15.8232600">
        <ele>193.746</ele>
        <time>2019-05-05T10:25:35.111Z</time>
      </trkpt>
      <trkpt lat="48.3784062" lon="15.8234384">
        <ele>193.506</ele>
        <time>2019-05-05T10:25:37.043Z</time>
      </trkpt>
      <trkpt lat="48.3783976" lon="15.8236209">
        <ele>193.128</ele>
        <time>2019-05-05T10:25:38.888Z</time>
      </trkpt>
      <trkpt lat="48.3783960" lon="15.8238276">
        <ele>192.654</ele>
        <time>2019-05-05T10:25:40.883Z</time>
      </trkpt>
      <trkpt lat="48.3783962" lon="15.8240246">
        <ele>192.115</ele>
        <time>2019-05-05T10:25:42.737Z</time>
      </trkpt>
      <trkpt lat="48.3783904" lon="15.8242393">
        <ele>191.529</ele>
        <time>2019-05-05T10:25:44.732Z</time>
      </trkpt>
      <trkpt lat="48.3783844" lon="15.8244642">
        <ele>191.008</ele>
        <time>2019-05-05T10:25:46.890Z</time>
      </trkpt>
      <trkpt lat="48.3783873" lon="15.8246627">
        <ele>190.663</ele>
        <time>2019-05-05T10:25:49.039Z</time>
      </trkpt>
      <trkpt lat="48.3783873" lon="15.8246627">
        <ele>190.663</ele>
        <time>2019-05-05T10:25:49.039Z</time>
      </trkpt>
      <trkpt lat="48.3784567" lon="15.8256125">
        <ele>190.792</ele>
        <time>2019-05-05T10:25:59.573Z</time>
      </trkpt>
      <trkpt lat="48.3784632" lon="15.8257754">
        <ele>190.704</ele>
        <time>2019-05-05T10:26:01.412Z</time>
      </trkpt>
      <trkpt lat="48.3784895" lon="15.8259538">
        <ele>190.661</ele>
        <time>2019-05-05T10:26:03.378Z</time>
      </trkpt>
      <trkpt lat="48.3784863" lon="15.8261543">
        <ele>190.598</ele>
        <time>2019-05-05T10:26:05.498Z</time>
      </trkpt>
      <trkpt lat="48.3785119" lon="15.8263428">
        <ele>190.453</ele>
        <time>2019-05-05T10:26:07.553Z</time>
      </trkpt>
      <trkpt lat="48.3785045" lon="15.8265478">
        <ele>190.268</ele>
        <time>2019-05-05T10:26:09.755Z</time>
      </trkpt>
      <trkpt lat="48.3784966" lon="15.8267619">
        <ele>190.130</ele>
        <time>2019-05-05T10:26:12.091Z</time>
      </trkpt>
      <trkpt lat="48.3784971" lon="15.8269442">
        <ele>190.013</ele>
        <time>2019-05-05T10:26:14.205Z</time>
      </trkpt>
      <trkpt lat="48.3784963" lon="15.8271261">
        <ele>189.816</ele>
        <time>2019-05-05T10:26:16.450Z</time>
      </trkpt>
      <trkpt lat="48.3784965" lon="15.8272634">
        <ele>189.531</ele>
        <time>2019-05-05T10:26:18.185Z</time>
      </trkpt>
      <trkpt lat="48.3784998" lon="15.8274216">
        <ele>189.229</ele>
        <time>2019-05-05T10:26:20.191Z</time>
      </trkpt>
      <trkpt lat="48.3785119" lon="15.8275961">
        <ele>188.953</ele>
        <time>2019-05-05T10:26:22.500Z</time>
      </trkpt>
      <trkpt lat="48.3785675" lon="15.8277344">
        <ele>188.741</ele>
        <time>2019-05-05T10:26:24.780Z</time>
      </trkpt>
      <trkpt lat="48.3785916" lon="15.8278999">
        <ele>188.652</ele>
        <time>2019-05-05T10:26:27.211Z</time>
      </trkpt>
      <trkpt lat="48.3785726" lon="15.8281222">
        <ele>188.781</ele>
        <time>2019-05-05T10:26:30.269Z</time>
      </trkpt>
      <trkpt lat="48.3785778" lon="15.8283156">
        <ele>189.117</ele>
        <time>2019-05-05T10:26:32.818Z</time>
      </trkpt>
      <trkpt lat="48.3786096" lon="15.8285130">
        <ele>189.428</ele>
        <time>2019-05-05T10:26:35.547Z</time>
      </trkpt>
      <trkpt lat="48.3786382" lon="15.8286560">
        <ele>189.504</ele>
        <time>2019-05-05T10:26:37.627Z</time>
      </trkpt>
      <trkpt lat="48.3786593" lon="15.8287983">
        <ele>189.390</ele>
        <time>2019-05-05T10:26:39.722Z</time>
      </trkpt>
      <trkpt lat="48.3786774" lon="15.8289332">
        <ele>189.294</ele>
        <time>2019-05-05T10:26:41.685Z</time>
      </trkpt>
      <trkpt lat="48.3786935" lon="15.8290723">
        <ele>189.390</ele>
        <time>2019-05-05T10:26:43.606Z</time>
      </trkpt>
      <trkpt lat="48.3787004" lon="15.8292327">
        <ele>189.654</ele>
        <time>2019-05-05T10:26:45.692Z</time>
      </trkpt>
      <trkpt lat="48.3786876" lon="15.8293934">
        <ele>189.931</ele>
        <time>2019-05-05T10:26:47.744Z</time>
      </trkpt>
      <trkpt lat="48.3786913" lon="15.8295450">
        <ele>190.099</ele>
        <time>2019-05-05T10:26:49.655Z</time>
      </trkpt>
      <trkpt lat="48.3787021" lon="15.8296950">
        <ele>190.145</ele>
        <time>2019-05-05T10:26:51.548Z</time>
      </trkpt>
      <trkpt lat="48.3787069" lon="15.8298660">
        <ele>190.090</ele>
        <time>2019-05-05T10:26:53.719Z</time>
      </trkpt>
      <trkpt lat="48.3787320" lon="15.8300199">
        <ele>189.933</ele>
        <time>2019-05-05T10:26:55.846Z</time>
      </trkpt>
      <trkpt lat="48.3787504" lon="15.8301604">
        <ele>189.733</ele>
        <time>2019-05-05T10:26:57.819Z</time>
      </trkpt>
      <trkpt lat="48.3787534" lon="15.8303118">
        <ele>189.601</ele>
        <time>2019-05-05T10:26:59.838Z</time>
      </trkpt>
      <trkpt lat="48.3787484" lon="15.8304646">
        <ele>189.595</ele>
        <time>2019-05-05T10:27:01.834Z</time>
      </trkpt>
      <trkpt lat="48.3787443" lon="15.8306106">
        <ele>189.669</ele>
        <time>2019-05-05T10:27:03.781Z</time>
      </trkpt>
      <trkpt lat="48.3787308" lon="15.8307638">
        <ele>189.726</ele>
        <time>2019-05-05T10:27:06.003Z</time>
      </trkpt>
      <trkpt lat="48.3787486" lon="15.8309093">
        <ele>189.692</ele>
        <time>2019-05-05T10:27:08.287Z</time>
      </trkpt>
      <trkpt lat="48.3787501" lon="15.8310739">
        <ele>189.590</ele>
        <time>2019-05-05T10:27:10.999Z</time>
      </trkpt>
      <trkpt lat="48.3787323" lon="15.8312438">
        <ele>189.511</ele>
        <time>2019-05-05T10:27:13.734Z</time>
      </trkpt>
      <trkpt lat="48.3787274" lon="15.8314458">
        <ele>189.503</ele>
        <time>2019-05-05T10:27:16.741Z</time>
      </trkpt>
      <trkpt lat="48.3787230" lon="15.8315955">
        <ele>189.499</ele>
        <time>2019-05-05T10:27:18.863Z</time>
      </trkpt>
      <trkpt lat="48.3787206" lon="15.8317309">
        <ele>189.394</ele>
        <time>2019-05-05T10:27:20.709Z</time>
      </trkpt>
      <trkpt lat="48.3787153" lon="15.8318843">
        <ele>189.159</ele>
        <time>2019-05-05T10:27:22.644Z</time>
      </trkpt>
      <trkpt lat="48.3787121" lon="15.8320527">
        <ele>188.890</ele>
        <time>2019-05-05T10:27:24.564Z</time>
      </trkpt>
      <trkpt lat="48.3787139" lon="15.8322176">
        <ele>188.716</ele>
        <time>2019-05-05T10:27:26.341Z</time>
      </trkpt>
      <trkpt lat="48.3787049" lon="15.8323980">
        <ele>188.681</ele>
        <time>2019-05-05T10:27:28.284Z</time>
      </trkpt>
      <trkpt lat="48.3787333" lon="15.8325704">
        <ele>188.737</ele>
        <time>2019-05-05T10:27:30.292Z</time>
      </trkpt>
      <trkpt lat="48.3787485" lon="15.8327253">
        <ele>188.778</ele>
        <time>2019-05-05T10:27:32.179Z</time>
      </trkpt>
      <trkpt lat="48.3787529" lon="15.8328855">
        <ele>188.741</ele>
        <time>2019-05-05T10:27:34.194Z</time>
      </trkpt>
      <trkpt lat="48.3787400" lon="15.8330953">
        <ele>188.720</ele>
        <time>2019-05-05T10:27:36.840Z</time>
      </trkpt>
      <trkpt lat="48.3787416" lon="15.8332865">
        <ele>188.807</ele>
        <time>2019-05-05T10:27:39.169Z</time>
      </trkpt>
      <trkpt lat="48.3787317" lon="15.8334388">
        <ele>188.941</ele>
        <time>2019-05-05T10:27:41.055Z</time>
      </trkpt>
      <trkpt lat="48.3787471" lon="15.8335823">
        <ele>189.021</ele>
        <time>2019-05-05T10:27:43.028Z</time>
      </trkpt>
      <trkpt lat="48.3787956" lon="15.8337548">
        <ele>189.036</ele>
        <time>2019-05-05T10:27:45.724Z</time>
      </trkpt>
      <trkpt lat="48.3788348" lon="15.8339210">
        <ele>189.106</ele>
        <time>2019-05-05T10:27:48.464Z</time>
      </trkpt>
      <trkpt lat="48.3788694" lon="15.8340745">
        <ele>189.532</ele>
        <time>2019-05-05T10:27:51.173Z</time>
      </trkpt>
      <trkpt lat="48.3788913" lon="15.8342317">
        <ele>190.379</ele>
        <time>2019-05-05T10:27:54.026Z</time>
      </trkpt>
      <trkpt lat="48.3789233" lon="15.8343672">
        <ele>192.176</ele>
        <time>2019-05-05T10:27:56.777Z</time>
      </trkpt>
      <trkpt lat="48.3789600" lon="15.8345278">
        <ele>192.997</ele>
        <time>2019-05-05T10:28:00.606Z</time>
      </trkpt>
      <trkpt lat="48.3789999" lon="15.8346561">
        <ele>193.944</ele>
        <time>2019-05-05T10:28:04.374Z</time>
      </trkpt>
      <trkpt lat="48.3790604" lon="15.8347834">
        <ele>194.790</ele>
        <time>2019-05-05T10:28:07.865Z</time>
      </trkpt>
      <trkpt lat="48.3790954" lon="15.8349461">
        <ele>195.283</ele>
        <time>2019-05-05T10:28:11.085Z</time>
      </trkpt>
      <trkpt lat="48.3791309" lon="15.8351184">
        <ele>195.425</ele>
        <time>2019-05-05T10:28:14.412Z</time>
      </trkpt>
      <trkpt lat="48.3791728" lon="15.8352415">
        <ele>195.429</ele>
        <time>2019-05-05T10:28:17.105Z</time>
      </trkpt>
      <trkpt lat="48.3791828" lon="15.8353913">
        <ele>195.490</ele>
        <time>2019-05-05T10:28:20.120Z</time>
      </trkpt>
      <trkpt lat="48.3791944" lon="15.8355261">
        <ele>195.671</ele>
        <time>2019-05-05T10:28:22.799Z</time>
      </trkpt>
      <trkpt lat="48.3792322" lon="15.8356656">
        <ele>195.877</ele>
        <time>2019-05-05T10:28:25.770Z</time>
      </trkpt>
      <trkpt lat="48.3792307" lon="15.8358349">
        <ele>195.987</ele>
        <time>2019-05-05T10:28:29.000Z</time>
      </trkpt>
      <trkpt lat="48.3792353" lon="15.8360029">
        <ele>195.960</ele>
        <time>2019-05-05T10:28:31.991Z</time>
      </trkpt>
      <trkpt lat="48.3792227" lon="15.8361928">
        <ele>195.842</ele>
        <time>2019-05-05T10:28:35.340Z</time>
      </trkpt>
      <trkpt lat="48.3792071" lon="15.8363695">
        <ele>195.726</ele>
        <time>2019-05-05T10:28:38.397Z</time>
      </trkpt>
      <trkpt lat="48.3792011" lon="15.8365052">
        <ele>195.684</ele>
        <time>2019-05-05T10:28:40.640Z</time>
      </trkpt>
      <trkpt lat="48.3791987" lon="15.8366986">
        <ele>195.722</ele>
        <time>2019-05-05T10:28:43.719Z</time>
      </trkpt>
      <trkpt lat="48.3791966" lon="15.8369015">
        <ele>195.804</ele>
        <time>2019-05-05T10:28:46.851Z</time>
      </trkpt>
      <trkpt lat="48.3791792" lon="15.8370890">
        <ele>195.881</ele>
        <time>2019-05-05T10:28:49.737Z</time>
      </trkpt>
      <trkpt lat="48.3791654" lon="15.8372251">
        <ele>195.940</ele>
        <time>2019-05-05T10:28:51.838Z</time>
      </trkpt>
      <trkpt lat="48.3791397" lon="15.8373969">
        <ele>195.992</ele>
        <time>2019-05-05T10:28:54.564Z</time>
      </trkpt>
      <trkpt lat="48.3791235" lon="15.8375328">
        <ele>196.039</ele>
        <time>2019-05-05T10:28:56.779Z</time>
      </trkpt>
      <trkpt lat="48.3791214" lon="15.8376847">
        <ele>196.066</ele>
        <time>2019-05-05T10:28:59.374Z</time>
      </trkpt>
      <trkpt lat="48.3791123" lon="15.8378560">
        <ele>196.066</ele>
        <time>2019-05-05T10:29:02.428Z</time>
      </trkpt>
      <trkpt lat="48.3791328" lon="15.8380474">
        <ele>196.042</ele>
        <time>2019-05-05T10:29:05.890Z</time>
      </trkpt>
      <trkpt lat="48.3791331" lon="15.8382261">
        <ele>195.972</ele>
        <time>2019-05-05T10:29:08.990Z</time>
      </trkpt>
      <trkpt lat="48.3791072" lon="15.8384117">
        <ele>195.786</ele>
        <time>2019-05-05T10:29:12.171Z</time>
      </trkpt>
      <trkpt lat="48.3791042" lon="15.8385923">
        <ele>195.434</ele>
        <time>2019-05-05T10:29:15.123Z</time>
      </trkpt>
      <trkpt lat="48.3790731" lon="15.8387588">
        <ele>195.022</ele>
        <time>2019-05-05T10:29:17.929Z</time>
      </trkpt>
      <trkpt lat="48.3790533" lon="15.8389259">
        <ele>194.733</ele>
        <time>2019-05-05T10:29:20.736Z</time>
      </trkpt>
      <trkpt lat="48.3790385" lon="15.8391071">
        <ele>194.648</ele>
        <time>2019-05-05T10:29:23.761Z</time>
      </trkpt>
      <trkpt lat="48.3790284" lon="15.8392453">
        <ele>194.716</ele>
        <time>2019-05-05T10:29:25.983Z</time>
      </trkpt>
      <trkpt lat="48.3790256" lon="15.8393838">
        <ele>194.851</ele>
        <time>2019-05-05T10:29:28.103Z</time>
      </trkpt>
      <trkpt lat="48.3790100" lon="15.8395293">
        <ele>194.983</ele>
        <time>2019-05-05T10:29:30.277Z</time>
      </trkpt>
      <trkpt lat="48.3790011" lon="15.8396850">
        <ele>195.084</ele>
        <time>2019-05-05T10:29:32.485Z</time>
      </trkpt>
      <trkpt lat="48.3789814" lon="15.8398320">
        <ele>195.158</ele>
        <time>2019-05-05T10:29:34.524Z</time>
      </trkpt>
      <trkpt lat="48.3789628" lon="15.8399912">
        <ele>195.225</ele>
        <time>2019-05-05T10:29:36.657Z</time>
      </trkpt>
      <trkpt lat="48.3789604" lon="15.8401434">
        <ele>195.302</ele>
        <time>2019-05-05T10:29:38.635Z</time>
      </trkpt>
      <trkpt lat="48.3789479" lon="15.8403138">
        <ele>195.396</ele>
        <time>2019-05-05T10:29:40.850Z</time>
      </trkpt>
      <trkpt lat="48.3789182" lon="15.8405215">
        <ele>195.498</ele>
        <time>2019-05-05T10:29:43.602Z</time>
      </trkpt>
      <trkpt lat="48.3789031" lon="15.8406617">
        <ele>195.606</ele>
        <time>2019-05-05T10:29:45.458Z</time>
      </trkpt>
      <trkpt lat="48.3788759" lon="15.8408108">
        <ele>195.730</ele>
        <time>2019-05-05T10:29:47.497Z</time>
      </trkpt>
      <trkpt lat="48.3788440" lon="15.8409960">
        <ele>195.857</ele>
        <time>2019-05-05T10:29:50.057Z</time>
      </trkpt>
      <trkpt lat="48.3788221" lon="15.8411958">
        <ele>195.956</ele>
        <time>2019-05-05T10:29:52.850Z</time>
      </trkpt>
      <trkpt lat="48.3788025" lon="15.8414139">
        <ele>195.948</ele>
        <time>2019-05-05T10:29:56.000Z</time>
      </trkpt>
      <trkpt lat="48.3788025" lon="15.8414139">
        <ele>195.809</ele>
        <time>2019-05-05T10:29:58.000Z</time>
      </trkpt>
      <trkpt lat="48.3788025" lon="15.8414139">
        <ele>195.650</ele>
        <time>2019-05-05T10:29:58.100Z</time>
      </trkpt>
      <trkpt lat="48.3787601" lon="15.8417461">
        <ele>195.569</ele>
        <time>2019-05-05T10:30:07.788Z</time>
      </trkpt>
      <trkpt lat="48.3787208" lon="15.8419100">
        <ele>195.494</ele>
        <time>2019-05-05T10:30:10.448Z</time>
      </trkpt>
      <trkpt lat="48.3787014" lon="15.8420997">
        <ele>195.348</ele>
        <time>2019-05-05T10:30:13.088Z</time>
      </trkpt>
      <trkpt lat="48.3786532" lon="15.8422932">
        <ele>195.230</ele>
        <time>2019-05-05T10:30:15.790Z</time>
      </trkpt>
      <trkpt lat="48.3786460" lon="15.8424342">
        <ele>195.268</ele>
        <time>2019-05-05T10:30:17.623Z</time>
      </trkpt>
      <trkpt lat="48.3786313" lon="15.8425959">
        <ele>195.436</ele>
        <time>2019-05-05T10:30:19.725Z</time>
      </trkpt>
      <trkpt lat="48.3786267" lon="15.8427639">
        <ele>195.641</ele>
        <time>2019-05-05T10:30:21.888Z</time>
      </trkpt>
      <trkpt lat="48.3786100" lon="15.8429202">
        <ele>195.814</ele>
        <time>2019-05-05T10:30:23.947Z</time>
      </trkpt>
      <trkpt lat="48.3785872" lon="15.8430605">
        <ele>195.924</ele>
        <time>2019-05-05T10:30:25.859Z</time>
      </trkpt>
      <trkpt lat="48.3785690" lon="15.8431962">
        <ele>195.934</ele>
        <time>2019-05-05T10:30:27.711Z</time>
      </trkpt>
      <trkpt lat="48.3785439" lon="15.8433404">
        <ele>195.796</ele>
        <time>2019-05-05T10:30:29.698Z</time>
      </trkpt>
      <trkpt lat="48.3785202" lon="15.8434847">
        <ele>195.517</ele>
        <time>2019-05-05T10:30:31.638Z</time>
      </trkpt>
      <trkpt lat="48.3784883" lon="15.8436527">
        <ele>195.193</ele>
        <time>2019-05-05T10:30:33.863Z</time>
      </trkpt>
      <trkpt lat="48.3784796" lon="15.8437960">
        <ele>194.945</ele>
        <time>2019-05-05T10:30:35.667Z</time>
      </trkpt>
      <trkpt lat="48.3784450" lon="15.8439378">
        <ele>194.847</ele>
        <time>2019-05-05T10:30:37.536Z</time>
      </trkpt>
      <trkpt lat="48.3784218" lon="15.8440858">
        <ele>194.890</ele>
        <time>2019-05-05T10:30:39.412Z</time>
      </trkpt>
      <trkpt lat="48.3783759" lon="15.8442042">
        <ele>195.019</ele>
        <time>2019-05-05T10:30:41.106Z</time>
      </trkpt>
      <trkpt lat="48.3783361" lon="15.8443505">
        <ele>195.197</ele>
        <time>2019-05-05T10:30:42.998Z</time>
      </trkpt>
      <trkpt lat="48.3782929" lon="15.8445149">
        <ele>195.374</ele>
        <time>2019-05-05T10:30:45.033Z</time>
      </trkpt>
      <trkpt lat="48.3782612" lon="15.8446695">
        <ele>195.414</ele>
        <time>2019-05-05T10:30:46.868Z</time>
      </trkpt>
      <trkpt lat="48.3782269" lon="15.8448333">
        <ele>195.248</ele>
        <time>2019-05-05T10:30:48.808Z</time>
      </trkpt>
      <trkpt lat="48.3781866" lon="15.8449984">
        <ele>195.017</ele>
        <time>2019-05-05T10:30:50.832Z</time>
      </trkpt>
      <trkpt lat="48.3781612" lon="15.8451352">
        <ele>194.903</ele>
        <time>2019-05-05T10:30:52.512Z</time>
      </trkpt>
      <trkpt lat="48.3781018" lon="15.8452709">
        <ele>194.934</ele>
        <time>2019-05-05T10:30:54.445Z</time>
      </trkpt>
      <trkpt lat="48.3780372" lon="15.8453882">
        <ele>195.023</ele>
        <time>2019-05-05T10:30:56.261Z</time>
      </trkpt>
      <trkpt lat="48.3779797" lon="15.8455268">
        <ele>195.077</ele>
        <time>2019-05-05T10:30:58.225Z</time>
      </trkpt>
      <trkpt lat="48.3779580" lon="15.8456927">
        <ele>195.062</ele>
        <time>2019-05-05T10:31:00.275Z</time>
      </trkpt>
      <trkpt lat="48.3779226" lon="15.8458440">
        <ele>194.997</ele>
        <time>2019-05-05T10:31:02.208Z</time>
      </trkpt>
      <trkpt lat="48.3778806" lon="15.8459807">
        <ele>194.927</ele>
        <time>2019-05-05T10:31:03.985Z</time>
      </trkpt>
      <trkpt lat="48.3778437" lon="15.8461298">
        <ele>194.901</ele>
        <time>2019-05-05T10:31:05.835Z</time>
      </trkpt>
      <trkpt lat="48.3778041" lon="15.8462673">
        <ele>194.936</ele>
        <time>2019-05-05T10:31:07.589Z</time>
      </trkpt>
      <trkpt lat="48.3777580" lon="15.8463999">
        <ele>194.969</ele>
        <time>2019-05-05T10:31:09.355Z</time>
      </trkpt>
      <trkpt lat="48.3777117" lon="15.8465365">
        <ele>194.914</ele>
        <time>2019-05-05T10:31:11.134Z</time>
      </trkpt>
      <trkpt lat="48.3776509" lon="15.8466868">
        <ele>194.777</ele>
        <time>2019-05-05T10:31:13.102Z</time>
      </trkpt>
      <trkpt lat="48.3775707" lon="15.8468478">
        <ele>194.655</ele>
        <time>2019-05-05T10:31:15.306Z</time>
      </trkpt>
      <trkpt lat="48.3775131" lon="15.8470148">
        <ele>194.603</ele>
        <time>2019-05-05T10:31:17.373Z</time>
      </trkpt>
      <trkpt lat="48.3774749" lon="15.8471581">
        <ele>194.597</ele>
        <time>2019-05-05T10:31:19.084Z</time>
      </trkpt>
      <trkpt lat="48.3774124" lon="15.8472903">
        <ele>194.576</ele>
        <time>2019-05-05T10:31:20.905Z</time>
      </trkpt>
      <trkpt lat="48.3773556" lon="15.8474194">
        <ele>194.511</ele>
        <time>2019-05-05T10:31:22.661Z</time>
      </trkpt>
      <trkpt lat="48.3773062" lon="15.8475586">
        <ele>194.472</ele>
        <time>2019-05-05T10:31:24.453Z</time>
      </trkpt>
      <trkpt lat="48.3772276" lon="15.8477072">
        <ele>194.526</ele>
        <time>2019-05-05T10:31:26.578Z</time>
      </trkpt>
      <trkpt lat="48.3771670" lon="15.8478438">
        <ele>194.620</ele>
        <time>2019-05-05T10:31:28.401Z</time>
      </trkpt>
      <trkpt lat="48.3770826" lon="15.8479675">
        <ele>194.663</ele>
        <time>2019-05-05T10:31:30.399Z</time>
      </trkpt>
      <trkpt lat="48.3769901" lon="15.8481094">
        <ele>194.634</ele>
        <time>2019-05-05T10:31:32.663Z</time>
      </trkpt>
      <trkpt lat="48.3769110" lon="15.8482302">
        <ele>194.606</ele>
        <time>2019-05-05T10:31:34.585Z</time>
      </trkpt>
      <trkpt lat="48.3768353" lon="15.8483719">
        <ele>194.642</ele>
        <time>2019-05-05T10:31:36.618Z</time>
      </trkpt>
      <trkpt lat="48.3767461" lon="15.8485222">
        <ele>194.706</ele>
        <time>2019-05-05T10:31:38.839Z</time>
      </trkpt>
      <trkpt lat="48.3766864" lon="15.8486529">
        <ele>194.748</ele>
        <time>2019-05-05T10:31:40.581Z</time>
      </trkpt>
      <trkpt lat="48.3766055" lon="15.8487954">
        <ele>194.739</ele>
        <time>2019-05-05T10:31:42.644Z</time>
      </trkpt>
      <trkpt lat="48.3765113" lon="15.8489296">
        <ele>194.662</ele>
        <time>2019-05-05T10:31:44.821Z</time>
      </trkpt>
      <trkpt lat="48.3764107" lon="15.8490608">
        <ele>194.551</ele>
        <time>2019-05-05T10:31:47.020Z</time>
      </trkpt>
      <trkpt lat="48.3763365" lon="15.8491726">
        <ele>194.478</ele>
        <time>2019-05-05T10:31:48.705Z</time>
      </trkpt>
      <trkpt lat="48.3762500" lon="15.8493084">
        <ele>194.474</ele>
        <time>2019-05-05T10:31:50.714Z</time>
      </trkpt>
      <trkpt lat="48.3761752" lon="15.8494585">
        <ele>194.518</ele>
        <time>2019-05-05T10:31:52.738Z</time>
      </trkpt>
      <trkpt lat="48.3761185" lon="15.8495751">
        <ele>194.594</ele>
        <time>2019-05-05T10:31:54.329Z</time>
      </trkpt>
      <trkpt lat="48.3760748" lon="15.8497449">
        <ele>194.694</ele>
        <time>2019-05-05T10:31:56.392Z</time>
      </trkpt>
      <trkpt lat="48.3760129" lon="15.8498809">
        <ele>194.759</ele>
        <time>2019-05-05T10:31:58.341Z</time>
      </trkpt>
      <trkpt lat="48.3759634" lon="15.8500301">
        <ele>194.748</ele>
        <time>2019-05-05T10:32:00.397Z</time>
      </trkpt>
      <trkpt lat="48.3758961" lon="15.8502176">
        <ele>194.686</ele>
        <time>2019-05-05T10:32:03.190Z</time>
      </trkpt>
      <trkpt lat="48.3758239" lon="15.8503176">
        <ele>194.621</ele>
        <time>2019-05-05T10:32:05.217Z</time>
      </trkpt>
      <trkpt lat="48.3757490" lon="15.8504038">
        <ele>194.559</ele>
        <time>2019-05-05T10:32:07.286Z</time>
      </trkpt>
      <trkpt lat="48.3756713" lon="15.8505604">
        <ele>194.485</ele>
        <time>2019-05-05T10:32:10.474Z</time>
      </trkpt>
      <trkpt lat="48.3755722" lon="15.8506002">
        <ele>194.403</ele>
        <time>2019-05-05T10:32:13.549Z</time>
      </trkpt>
      <trkpt lat="48.3754769" lon="15.8506062">
        <ele>194.335</ele>
        <time>2019-05-05T10:32:20.000Z</time>
      </trkpt>
      <trkpt lat="48.3754769" lon="15.8506062">
        <ele>194.336</ele>
        <time>2019-05-05T10:32:20.001Z</time>
      </trkpt>
      <trkpt lat="48.3754769" lon="15.8506062">
        <ele>194.434</ele>
        <time>2019-05-05T10:32:46.484Z</time>
      </trkpt>
      <trkpt lat="48.3753436" lon="15.8505738">
        <ele>194.548</ele>
        <time>2019-05-05T10:32:53.222Z</time>
      </trkpt>
      <trkpt lat="48.3752710" lon="15.8504721">
        <ele>194.727</ele>
        <time>2019-05-05T10:32:55.693Z</time>
      </trkpt>
      <trkpt lat="48.3751751" lon="15.8503592">
        <ele>195.051</ele>
        <time>2019-05-05T10:32:58.628Z</time>
      </trkpt>
      <trkpt lat="48.3750894" lon="15.8503043">
        <ele>193.619</ele>
        <time>2019-05-05T10:33:00.966Z</time>
      </trkpt>
      <trkpt lat="48.3749856" lon="15.8501866">
        <ele>189.217</ele>
        <time>2019-05-05T10:33:04.361Z</time>
      </trkpt>
      <trkpt lat="48.3748912" lon="15.8501078">
        <ele>186.093</ele>
        <time>2019-05-05T10:33:07.169Z</time>
      </trkpt>
      <trkpt lat="48.3748280" lon="15.8500050">
        <ele>188.274</ele>
        <time>2019-05-05T10:33:09.666Z</time>
      </trkpt>
      <trkpt lat="48.3747344" lon="15.8499377">
        <ele>193.172</ele>
        <time>2019-05-05T10:33:12.610Z</time>
      </trkpt>
      <trkpt lat="48.3746467" lon="15.8498336">
        <ele>196.692</ele>
        <time>2019-05-05T10:33:15.897Z</time>
      </trkpt>
      <trkpt lat="48.3745551" lon="15.8497655">
        <ele>197.945</ele>
        <time>2019-05-05T10:33:19.000Z</time>
      </trkpt>
      <trkpt lat="48.3745551" lon="15.8497655">
        <ele>197.884</ele>
        <time>2019-05-05T10:33:33.000Z</time>
      </trkpt>
      <trkpt lat="48.3745551" lon="15.8497655">
        <ele>197.550</ele>
        <time>2019-05-05T10:33:52.252Z</time>
      </trkpt>
      <trkpt lat="48.3743689" lon="15.8496233">
        <ele>197.443</ele>
        <time>2019-05-05T10:34:06.567Z</time>
      </trkpt>
      <trkpt lat="48.3742518" lon="15.8494417">
        <ele>197.374</ele>
        <time>2019-05-05T10:34:09.344Z</time>
      </trkpt>
      <trkpt lat="48.3741566" lon="15.8492675">
        <ele>196.932</ele>
        <time>2019-05-05T10:34:11.170Z</time>
      </trkpt>
      <trkpt lat="48.3740735" lon="15.8490573">
        <ele>196.058</ele>
        <time>2019-05-05T10:34:12.937Z</time>
      </trkpt>
      <trkpt lat="48.3739797" lon="15.8488344">
        <ele>195.017</ele>
        <time>2019-05-05T10:34:14.735Z</time>
      </trkpt>
      <trkpt lat="48.3738690" lon="15.8486372">
        <ele>193.923</ele>
        <time>2019-05-05T10:34:16.450Z</time>
      </trkpt>
      <trkpt lat="48.3737164" lon="15.8484577">
        <ele>192.688</ele>
        <time>2019-05-05T10:34:18.362Z</time>
      </trkpt>
      <trkpt lat="48.3735527" lon="15.8483365">
        <ele>191.358</ele>
        <time>2019-05-05T10:34:20.217Z</time>
      </trkpt>
      <trkpt lat="48.3734122" lon="15.8481980">
        <ele>190.186</ele>
        <time>2019-05-05T10:34:22.006Z</time>
      </trkpt>
      <trkpt lat="48.3732779" lon="15.8480686">
        <ele>189.394</ele>
        <time>2019-05-05T10:34:23.788Z</time>
      </trkpt>
      <trkpt lat="48.3731568" lon="15.8479317">
        <ele>189.053</ele>
        <time>2019-05-05T10:34:25.570Z</time>
      </trkpt>
      <trkpt lat="48.3730447" lon="15.8478059">
        <ele>189.017</ele>
        <time>2019-05-05T10:34:27.307Z</time>
      </trkpt>
      <trkpt lat="48.3729499" lon="15.8476658">
        <ele>189.087</ele>
        <time>2019-05-05T10:34:29.049Z</time>
      </trkpt>
      <trkpt lat="48.3728433" lon="15.8475431">
        <ele>189.150</ele>
        <time>2019-05-05T10:34:30.927Z</time>
      </trkpt>
      <trkpt lat="48.3727594" lon="15.8474695">
        <ele>189.177</ele>
        <time>2019-05-05T10:34:32.373Z</time>
      </trkpt>
      <trkpt lat="48.3726684" lon="15.8473589">
        <ele>189.180</ele>
        <time>2019-05-05T10:34:34.192Z</time>
      </trkpt>
      <trkpt lat="48.3725852" lon="15.8472521">
        <ele>189.174</ele>
        <time>2019-05-05T10:34:35.952Z</time>
      </trkpt>
      <trkpt lat="48.3725016" lon="15.8471454">
        <ele>189.169</ele>
        <time>2019-05-05T10:34:37.731Z</time>
      </trkpt>
      <trkpt lat="48.3724247" lon="15.8470503">
        <ele>189.167</ele>
        <time>2019-05-05T10:34:39.351Z</time>
      </trkpt>
      <trkpt lat="48.3723390" lon="15.8469621">
        <ele>189.167</ele>
        <time>2019-05-05T10:34:41.056Z</time>
      </trkpt>
      <trkpt lat="48.3722481" lon="15.8468672">
        <ele>189.167</ele>
        <time>2019-05-05T10:34:42.885Z</time>
      </trkpt>
      <trkpt lat="48.3721610" lon="15.8467648">
        <ele>189.168</ele>
        <time>2019-05-05T10:34:44.710Z</time>
      </trkpt>
      <trkpt lat="48.3720742" lon="15.8466559">
        <ele>189.168</ele>
        <time>2019-05-05T10:34:46.565Z</time>
      </trkpt>
      <trkpt lat="48.3719956" lon="15.8465587">
        <ele>189.168</ele>
        <time>2019-05-05T10:34:48.216Z</time>
      </trkpt>
      <trkpt lat="48.3719075" lon="15.8464494">
        <ele>189.179</ele>
        <time>2019-05-05T10:34:50.057Z</time>
      </trkpt>
      <trkpt lat="48.3718242" lon="15.8463498">
        <ele>189.243</ele>
        <time>2019-05-05T10:34:51.782Z</time>
      </trkpt>
      <trkpt lat="48.3717338" lon="15.8462135">
        <ele>189.409</ele>
        <time>2019-05-05T10:34:53.896Z</time>
      </trkpt>
      <trkpt lat="48.3716241" lon="15.8461535">
        <ele>189.672</ele>
        <time>2019-05-05T10:34:55.928Z</time>
      </trkpt>
      <trkpt lat="48.3715356" lon="15.8462371">
        <ele>189.942</ele>
        <time>2019-05-05T10:34:57.833Z</time>
      </trkpt>
      <trkpt lat="48.3714404" lon="15.8463016">
        <ele>190.122</ele>
        <time>2019-05-05T10:35:00.091Z</time>
      </trkpt>
      <trkpt lat="48.3713533" lon="15.8463964">
        <ele>190.192</ele>
        <time>2019-05-05T10:35:02.543Z</time>
      </trkpt>
      <trkpt lat="48.3712178" lon="15.8465376">
        <ele>190.196</ele>
        <time>2019-05-05T10:35:06.112Z</time>
      </trkpt>
      <trkpt lat="48.3711146" lon="15.8466248">
        <ele>190.181</ele>
        <time>2019-05-05T10:35:08.587Z</time>
      </trkpt>
      <trkpt lat="48.3710058" lon="15.8467065">
        <ele>190.169</ele>
        <time>2019-05-05T10:35:11.113Z</time>
      </trkpt>
      <trkpt lat="48.3709251" lon="15.8467902">
        <ele>190.131</ele>
        <time>2019-05-05T10:35:13.162Z</time>
      </trkpt>
      <trkpt lat="48.3708712" lon="15.8469044">
        <ele>189.983</ele>
        <time>2019-05-05T10:35:15.210Z</time>
      </trkpt>
      <trkpt lat="48.3708157" lon="15.8470605">
        <ele>189.702</ele>
        <time>2019-05-05T10:35:18.167Z</time>
      </trkpt>
      <trkpt lat="48.3707708" lon="15.8472056">
        <ele>189.408</ele>
        <time>2019-05-05T10:35:21.042Z</time>
      </trkpt>
      <trkpt lat="48.3707592" lon="15.8474148">
        <ele>189.195</ele>
        <time>2019-05-05T10:35:24.066Z</time>
      </trkpt>
      <trkpt lat="48.3707819" lon="15.8475855">
        <ele>189.004</ele>
        <time>2019-05-05T10:35:26.452Z</time>
      </trkpt>
      <trkpt lat="48.3708257" lon="15.8477288">
        <ele>188.802</ele>
        <time>2019-05-05T10:35:28.612Z</time>
      </trkpt>
      <trkpt lat="48.3708531" lon="15.8478911">
        <ele>188.676</ele>
        <time>2019-05-05T10:35:30.959Z</time>
      </trkpt>
      <trkpt lat="48.3708936" lon="15.8480609">
        <ele>188.714</ele>
        <time>2019-05-05T10:35:33.802Z</time>
      </trkpt>
      <trkpt lat="48.3708978" lon="15.8482120">
        <ele>188.899</ele>
        <time>2019-05-05T10:35:36.681Z</time>
      </trkpt>
      <trkpt lat="48.3708921" lon="15.8483726">
        <ele>189.155</ele>
        <time>2019-05-05T10:35:40.657Z</time>
      </trkpt>
      <trkpt lat="48.3708835" lon="15.8485100">
        <ele>189.444</ele>
        <time>2019-05-05T10:35:44.617Z</time>
      </trkpt>
      <trkpt lat="48.3708457" lon="15.8486550">
        <ele>189.746</ele>
        <time>2019-05-05T10:35:48.632Z</time>
      </trkpt>
      <trkpt lat="48.3708421" lon="15.8488145">
        <ele>189.998</ele>
        <time>2019-05-05T10:35:52.289Z</time>
      </trkpt>
      <trkpt lat="48.3708282" lon="15.8489520">
        <ele>190.145</ele>
        <time>2019-05-05T10:35:55.107Z</time>
      </trkpt>
      <trkpt lat="48.3707989" lon="15.8491036">
        <ele>190.195</ele>
        <time>2019-05-05T10:35:58.001Z</time>
      </trkpt>
      <trkpt lat="48.3707785" lon="15.8492461">
        <ele>190.179</ele>
        <time>2019-05-05T10:36:00.923Z</time>
      </trkpt>
      <trkpt lat="48.3707768" lon="15.8493931">
        <ele>190.108</ele>
        <time>2019-05-05T10:36:04.287Z</time>
      </trkpt>
      <trkpt lat="48.3707693" lon="15.8495808">
        <ele>189.989</ele>
        <time>2019-05-05T10:36:08.287Z</time>
      </trkpt>
      <trkpt lat="48.3707432" lon="15.8497168">
        <ele>189.868</ele>
        <time>2019-05-05T10:36:10.943Z</time>
      </trkpt>
      <trkpt lat="48.3706995" lon="15.8499119">
        <ele>189.775</ele>
        <time>2019-05-05T10:36:14.547Z</time>
      </trkpt>
      <trkpt lat="48.3706777" lon="15.8500685">
        <ele>189.695</ele>
        <time>2019-05-05T10:36:17.463Z</time>
      </trkpt>
      <trkpt lat="48.3706579" lon="15.8502499">
        <ele>189.625</ele>
        <time>2019-05-05T10:36:21.054Z</time>
      </trkpt>
      <trkpt lat="48.3706653" lon="15.8504060">
        <ele>189.584</ele>
        <time>2019-05-05T10:36:24.022Z</time>
      </trkpt>
      <trkpt lat="48.3706519" lon="15.8505797">
        <ele>189.569</ele>
        <time>2019-05-05T10:36:27.051Z</time>
      </trkpt>
      <trkpt lat="48.3706312" lon="15.8507160">
        <ele>189.563</ele>
        <time>2019-05-05T10:36:29.285Z</time>
      </trkpt>
      <trkpt lat="48.3706019" lon="15.8508974">
        <ele>189.552</ele>
        <time>2019-05-05T10:36:32.143Z</time>
      </trkpt>
      <trkpt lat="48.3705543" lon="15.8510997">
        <ele>189.523</ele>
        <time>2019-05-05T10:36:35.304Z</time>
      </trkpt>
      <trkpt lat="48.3705320" lon="15.8512322">
        <ele>189.461</ele>
        <time>2019-05-05T10:36:37.272Z</time>
      </trkpt>
      <trkpt lat="48.3705137" lon="15.8514116">
        <ele>189.376</ele>
        <time>2019-05-05T10:36:39.895Z</time>
      </trkpt>
      <trkpt lat="48.3705067" lon="15.8515950">
        <ele>189.341</ele>
        <time>2019-05-05T10:36:42.613Z</time>
      </trkpt>
      <trkpt lat="48.3705010" lon="15.8517894">
        <ele>189.408</ele>
        <time>2019-05-05T10:36:45.568Z</time>
      </trkpt>
      <trkpt lat="48.3704715" lon="15.8519539">
        <ele>189.523</ele>
        <time>2019-05-05T10:36:48.198Z</time>
      </trkpt>
      <trkpt lat="48.3704572" lon="15.8521333">
        <ele>189.585</ele>
        <time>2019-05-05T10:36:50.980Z</time>
      </trkpt>
      <trkpt lat="48.3704690" lon="15.8522901">
        <ele>189.552</ele>
        <time>2019-05-05T10:36:53.399Z</time>
      </trkpt>
      <trkpt lat="48.3704773" lon="15.8524315">
        <ele>189.465</ele>
        <time>2019-05-05T10:36:55.579Z</time>
      </trkpt>
      <trkpt lat="48.3705000" lon="15.8525860">
        <ele>189.410</ele>
        <time>2019-05-05T10:36:57.999Z</time>
      </trkpt>
      <trkpt lat="48.3705000" lon="15.8525860">
        <ele>189.424</ele>
        <time>2019-05-05T10:36:57.999Z</time>
      </trkpt>
      <trkpt lat="48.3705000" lon="15.8525860">
        <ele>189.426</ele>
        <time>2019-05-05T10:36:58.099Z</time>
      </trkpt>
      <trkpt lat="48.3704844" lon="15.8528393">
        <ele>189.350</ele>
        <time>2019-05-05T10:37:04.640Z</time>
      </trkpt>
      <trkpt lat="48.3704646" lon="15.8530046">
        <ele>189.313</ele>
        <time>2019-05-05T10:37:07.888Z</time>
      </trkpt>
      <trkpt lat="48.3704565" lon="15.8531741">
        <ele>189.420</ele>
        <time>2019-05-05T10:37:11.243Z</time>
      </trkpt>
      <trkpt lat="48.3704386" lon="15.8533484">
        <ele>189.556</ele>
        <time>2019-05-05T10:37:14.633Z</time>
      </trkpt>
      <trkpt lat="48.3704352" lon="15.8534886">
        <ele>189.581</ele>
        <time>2019-05-05T10:37:17.281Z</time>
      </trkpt>
      <trkpt lat="48.3704301" lon="15.8536515">
        <ele>189.501</ele>
        <time>2019-05-05T10:37:20.361Z</time>
      </trkpt>
      <trkpt lat="48.3704291" lon="15.8538095">
        <ele>189.391</ele>
        <time>2019-05-05T10:37:23.287Z</time>
      </trkpt>
      <trkpt lat="48.3704451" lon="15.8539985">
        <ele>189.305</ele>
        <time>2019-05-05T10:37:26.784Z</time>
      </trkpt>
      <trkpt lat="48.3704470" lon="15.8542017">
        <ele>189.246</ele>
        <time>2019-05-05T10:37:30.597Z</time>
      </trkpt>
      <trkpt lat="48.3704514" lon="15.8543688">
        <ele>189.207</ele>
        <time>2019-05-05T10:37:33.582Z</time>
      </trkpt>
      <trkpt lat="48.3704182" lon="15.8545230">
        <ele>189.212</ele>
        <time>2019-05-05T10:37:36.379Z</time>
      </trkpt>
      <trkpt lat="48.3703828" lon="15.8546579">
        <ele>189.307</ele>
        <time>2019-05-05T10:37:38.909Z</time>
      </trkpt>
      <trkpt lat="48.3702972" lon="15.8547576">
        <ele>189.464</ele>
        <time>2019-05-05T10:37:42.062Z</time>
      </trkpt>
      <trkpt lat="48.3702044" lon="15.8547890">
        <ele>189.566</ele>
        <time>2019-05-05T10:37:44.999Z</time>
      </trkpt>
      <trkpt lat="48.3702044" lon="15.8547890">
        <ele>189.542</ele>
        <time>2019-05-05T10:37:44.999Z</time>
      </trkpt>
      <trkpt lat="48.3702044" lon="15.8547890">
        <ele>189.443</ele>
        <time>2019-05-05T10:37:51.103Z</time>
      </trkpt>
      <trkpt lat="48.3700462" lon="15.8547993">
        <ele>189.355</ele>
        <time>2019-05-05T10:37:58.930Z</time>
      </trkpt>
      <trkpt lat="48.3699402" lon="15.8548046">
        <ele>189.025</ele>
        <time>2019-05-05T10:38:01.479Z</time>
      </trkpt>
      <trkpt lat="48.3698203" lon="15.8548231">
        <ele>188.048</ele>
        <time>2019-05-05T10:38:04.000Z</time>
      </trkpt>
      <trkpt lat="48.3698203" lon="15.8548231">
        <ele>186.713</ele>
        <time>2019-05-05T10:38:04.000Z</time>
      </trkpt>
      <trkpt lat="48.3698203" lon="15.8548231">
        <ele>185.884</ele>
        <time>2019-05-05T10:38:04.100Z</time>
      </trkpt>
      <trkpt lat="48.3696619" lon="15.8548130">
        <ele>185.858</ele>
        <time>2019-05-05T10:38:09.808Z</time>
      </trkpt>
      <trkpt lat="48.3695689" lon="15.8548550">
        <ele>185.361</ele>
        <time>2019-05-05T10:38:12.273Z</time>
      </trkpt>
      <trkpt lat="48.3694621" lon="15.8548352">
        <ele>183.455</ele>
        <time>2019-05-05T10:38:15.160Z</time>
      </trkpt>
      <trkpt lat="48.3693645" lon="15.8548793">
        <ele>181.434</ele>
        <time>2019-05-05T10:38:17.991Z</time>
      </trkpt>
      <trkpt lat="48.3692549" lon="15.8548987">
        <ele>180.760</ele>
        <time>2019-05-05T10:38:20.844Z</time>
      </trkpt>
      <trkpt lat="48.3691407" lon="15.8549370">
        <ele>181.278</ele>
        <time>2019-05-05T10:38:23.747Z</time>
      </trkpt>
      <trkpt lat="48.3690557" lon="15.8550000">
        <ele>182.362</ele>
        <time>2019-05-05T10:38:26.000Z</time>
      </trkpt>
      <trkpt lat="48.3690557" lon="15.8550000">
        <ele>183.425</ele>
        <time>2019-05-05T10:38:26.000Z</time>
      </trkpt>
      <trkpt lat="48.3690557" lon="15.8550000">
        <ele>183.943</ele>
        <time>2019-05-05T10:38:26.100Z</time>
      </trkpt>
      <trkpt lat="48.3688902" lon="15.8550438">
        <ele>183.817</ele>
        <time>2019-05-05T10:38:31.943Z</time>
      </trkpt>
      <trkpt lat="48.3687677" lon="15.8550201">
        <ele>183.768</ele>
        <time>2019-05-05T10:38:35.115Z</time>
      </trkpt>
      <trkpt lat="48.3686631" lon="15.8549687">
        <ele>184.370</ele>
        <time>2019-05-05T10:38:38.469Z</time>
      </trkpt>
      <trkpt lat="48.3685672" lon="15.8549841">
        <ele>185.315</ele>
        <time>2019-05-05T10:38:42.000Z</time>
      </trkpt>
      <trkpt lat="48.3685672" lon="15.8549841">
        <ele>186.088</ele>
        <time>2019-05-05T10:38:57.000Z</time>
      </trkpt>
      <trkpt lat="48.3685672" lon="15.8549841">
        <ele>186.428</ele>
        <time>2019-05-05T10:38:57.100Z</time>
      </trkpt>
      <trkpt lat="48.3687104" lon="15.8548934">
        <ele>186.311</ele>
        <time>2019-05-05T10:39:11.371Z</time>
      </trkpt>
      <trkpt lat="48.3688005" lon="15.8549065">
        <ele>186.060</ele>
        <time>2019-05-05T10:39:15.910Z</time>
      </trkpt>
      <trkpt lat="48.3688980" lon="15.8548949">
        <ele>185.931</ele>
        <time>2019-05-05T10:39:21.127Z</time>
      </trkpt>
      <trkpt lat="48.3690138" lon="15.8548717">
        <ele>185.909</ele>
        <time>2019-05-05T10:39:29.204Z</time>
      </trkpt>
      <trkpt lat="48.3691075" lon="15.8549075">
        <ele>185.870</ele>
        <time>2019-05-05T10:39:38.371Z</time>
      </trkpt>
      <trkpt lat="48.3691956" lon="15.8548738">
        <ele>185.703</ele>
        <time>2019-05-05T10:39:47.000Z</time>
      </trkpt>
      <trkpt lat="48.3691956" lon="15.8548738">
        <ele>185.434</ele>
        <time>2019-05-05T10:39:50.000Z</time>
      </trkpt>
      <trkpt lat="48.3691956" lon="15.8548738">
        <ele>185.222</ele>
        <time>2019-05-05T10:40:29.280Z</time>
      </trkpt>
      <trkpt lat="48.3691016" lon="15.8549237">
        <ele>185.154</ele>
        <time>2019-05-05T10:40:35.308Z</time>
      </trkpt>
      <trkpt lat="48.3689717" lon="15.8549114">
        <ele>185.170</ele>
        <time>2019-05-05T10:40:38.922Z</time>
      </trkpt>
      <trkpt lat="48.3688839" lon="15.8548746">
        <ele>185.227</ele>
        <time>2019-05-05T10:40:41.001Z</time>
      </trkpt>
      <trkpt lat="48.3688839" lon="15.8548746">
        <ele>185.315</ele>
        <time>2019-05-05T10:40:43.001Z</time>
      </trkpt>
      <trkpt lat="48.3688839" lon="15.8548746">
        <ele>185.348</ele>
        <time>2019-05-05T10:40:43.101Z</time>
      </trkpt>
      <trkpt lat="48.3686755" lon="15.8548856">
        <ele>185.269</ele>
        <time>2019-05-05T10:40:54.792Z</time>
      </trkpt>
      <trkpt lat="48.3686362" lon="15.8550129">
        <ele>185.229</ele>
        <time>2019-05-05T10:40:58.713Z</time>
      </trkpt>
      <trkpt lat="48.3686790" lon="15.8551394">
        <ele>185.390</ele>
        <time>2019-05-05T10:41:01.904Z</time>
      </trkpt>
      <trkpt lat="48.3687716" lon="15.8552280">
        <ele>185.662</ele>
        <time>2019-05-05T10:41:04.705Z</time>
      </trkpt>
      <trkpt lat="48.3688619" lon="15.8552620">
        <ele>185.565</ele>
        <time>2019-05-05T10:41:06.701Z</time>
      </trkpt>
      <trkpt lat="48.3689788" lon="15.8553031">
        <ele>184.820</ele>
        <time>2019-05-05T10:41:09.116Z</time>
      </trkpt>
      <trkpt lat="48.3690663" lon="15.8553473">
        <ele>183.897</ele>
        <time>2019-05-05T10:41:11.241Z</time>
      </trkpt>
      <trkpt lat="48.3691598" lon="15.8554412">
        <ele>183.395</ele>
        <time>2019-05-05T10:41:13.962Z</time>
      </trkpt>
      <trkpt lat="48.3691675" lon="15.8555812">
        <ele>183.391</ele>
        <time>2019-05-05T10:41:16.223Z</time>
      </trkpt>
      <trkpt lat="48.3691751" lon="15.8557607">
        <ele>183.678</ele>
        <time>2019-05-05T10:41:19.093Z</time>
      </trkpt>
      <trkpt lat="48.3691396" lon="15.8559496">
        <ele>183.986</ele>
        <time>2019-05-05T10:41:22.257Z</time>
      </trkpt>
      <trkpt lat="48.3691503" lon="15.8561276">
        <ele>184.157</ele>
        <time>2019-05-05T10:41:25.108Z</time>
      </trkpt>
      <trkpt lat="48.3691664" lon="15.8562626">
        <ele>184.194</ele>
        <time>2019-05-05T10:41:27.307Z</time>
      </trkpt>
      <trkpt lat="48.3691793" lon="15.8564259">
        <ele>184.165</ele>
        <time>2019-05-05T10:41:29.913Z</time>
      </trkpt>
      <trkpt lat="48.3691920" lon="15.8566096">
        <ele>184.132</ele>
        <time>2019-05-05T10:41:32.597Z</time>
      </trkpt>
      <trkpt lat="48.3692012" lon="15.8567484">
        <ele>184.120</ele>
        <time>2019-05-05T10:41:34.521Z</time>
      </trkpt>
      <trkpt lat="48.3692177" lon="15.8569407">
        <ele>184.126</ele>
        <time>2019-05-05T10:41:37.082Z</time>
      </trkpt>
      <trkpt lat="48.3692155" lon="15.8571022">
        <ele>184.141</ele>
        <time>2019-05-05T10:41:39.206Z</time>
      </trkpt>
      <trkpt lat="48.3692195" lon="15.8572467">
        <ele>184.158</ele>
        <time>2019-05-05T10:41:41.103Z</time>
      </trkpt>
      <trkpt lat="48.3692294" lon="15.8574573">
        <ele>184.170</ele>
        <time>2019-05-05T10:41:43.793Z</time>
      </trkpt>
      <trkpt lat="48.3692470" lon="15.8576052">
        <ele>184.174</ele>
        <time>2019-05-05T10:41:45.662Z</time>
      </trkpt>
      <trkpt lat="48.3692956" lon="15.8577515">
        <ele>184.175</ele>
        <time>2019-05-05T10:41:47.678Z</time>
      </trkpt>
      <trkpt lat="48.3693176" lon="15.8579084">
        <ele>184.174</ele>
        <time>2019-05-05T10:41:49.652Z</time>
      </trkpt>
      <trkpt lat="48.3693276" lon="15.8580624">
        <ele>184.174</ele>
        <time>2019-05-05T10:41:51.543Z</time>
      </trkpt>
      <trkpt lat="48.3693427" lon="15.8582130">
        <ele>184.173</ele>
        <time>2019-05-05T10:41:53.382Z</time>
      </trkpt>
      <trkpt lat="48.3693537" lon="15.8583612">
        <ele>184.173</ele>
        <time>2019-05-05T10:41:55.161Z</time>
      </trkpt>
      <trkpt lat="48.3693822" lon="15.8585201">
        <ele>184.173</ele>
        <time>2019-05-05T10:41:57.109Z</time>
      </trkpt>
      <trkpt lat="48.3694055" lon="15.8586688">
        <ele>184.173</ele>
        <time>2019-05-05T10:41:58.904Z</time>
      </trkpt>
      <trkpt lat="48.3694412" lon="15.8588166">
        <ele>184.173</ele>
        <time>2019-05-05T10:42:00.745Z</time>
      </trkpt>
      <trkpt lat="48.3694664" lon="15.8589820">
        <ele>184.176</ele>
        <time>2019-05-05T10:42:02.750Z</time>
      </trkpt>
      <trkpt lat="48.3694987" lon="15.8591246">
        <ele>184.183</ele>
        <time>2019-05-05T10:42:04.568Z</time>
      </trkpt>
      <trkpt lat="48.3695309" lon="15.8592731">
        <ele>184.222</ele>
        <time>2019-05-05T10:42:06.476Z</time>
      </trkpt>
      <trkpt lat="48.3695489" lon="15.8594125">
        <ele>184.309</ele>
        <time>2019-05-05T10:42:08.203Z</time>
      </trkpt>
      <trkpt lat="48.3695897" lon="15.8595733">
        <ele>184.354</ele>
        <time>2019-05-05T10:42:10.249Z</time>
      </trkpt>
      <trkpt lat="48.3696152" lon="15.8597293">
        <ele>184.199</ele>
        <time>2019-05-05T10:42:12.153Z</time>
      </trkpt>
      <trkpt lat="48.3696570" lon="15.8598830">
        <ele>183.819</ele>
        <time>2019-05-05T10:42:14.154Z</time>
      </trkpt>
      <trkpt lat="48.3697101" lon="15.8601337">
        <ele>183.381</ele>
        <time>2019-05-05T10:42:17.446Z</time>
      </trkpt>
      <trkpt lat="48.3697686" lon="15.8603295">
        <ele>183.068</ele>
        <time>2019-05-05T10:42:20.356Z</time>
      </trkpt>
      <trkpt lat="48.3698504" lon="15.8604689">
        <ele>182.961</ele>
        <time>2019-05-05T10:42:22.993Z</time>
      </trkpt>
      <trkpt lat="48.3699026" lon="15.8606889">
        <ele>183.076</ele>
        <time>2019-05-05T10:42:26.238Z</time>
      </trkpt>
      <trkpt lat="48.3699530" lon="15.8608747">
        <ele>183.396</ele>
        <time>2019-05-05T10:42:28.985Z</time>
      </trkpt>
      <trkpt lat="48.3700106" lon="15.8610863">
        <ele>183.867</ele>
        <time>2019-05-05T10:42:32.006Z</time>
      </trkpt>
      <trkpt lat="48.3701110" lon="15.8612756">
        <ele>184.344</ele>
        <time>2019-05-05T10:42:34.936Z</time>
      </trkpt>
      <trkpt lat="48.3701689" lon="15.8614439">
        <ele>184.598</ele>
        <time>2019-05-05T10:42:37.080Z</time>
      </trkpt>
      <trkpt lat="48.3702331" lon="15.8616050">
        <ele>184.556</ele>
        <time>2019-05-05T10:42:39.182Z</time>
      </trkpt>
      <trkpt lat="48.3703084" lon="15.8617432">
        <ele>184.378</ele>
        <time>2019-05-05T10:42:41.198Z</time>
      </trkpt>
      <trkpt lat="48.3703783" lon="15.8618746">
        <ele>184.233</ele>
        <time>2019-05-05T10:42:43.113Z</time>
      </trkpt>
      <trkpt lat="48.3704366" lon="15.8620355">
        <ele>184.150</ele>
        <time>2019-05-05T10:42:45.238Z</time>
      </trkpt>
      <trkpt lat="48.3705086" lon="15.8621879">
        <ele>184.071</ele>
        <time>2019-05-05T10:42:47.467Z</time>
      </trkpt>
      <trkpt lat="48.3705700" lon="15.8623270">
        <ele>183.974</ele>
        <time>2019-05-05T10:42:49.547Z</time>
      </trkpt>
      <trkpt lat="48.3706125" lon="15.8624789">
        <ele>183.897</ele>
        <time>2019-05-05T10:42:51.695Z</time>
      </trkpt>
      <trkpt lat="48.3706641" lon="15.8626033">
        <ele>183.866</ele>
        <time>2019-05-05T10:42:53.615Z</time>
      </trkpt>
      <trkpt lat="48.3707457" lon="15.8627847">
        <ele>183.827</ele>
        <time>2019-05-05T10:42:56.453Z</time>
      </trkpt>
      <trkpt lat="48.3708043" lon="15.8629395">
        <ele>183.674</ele>
        <time>2019-05-05T10:42:58.732Z</time>
      </trkpt>
      <trkpt lat="48.3708685" lon="15.8630787">
        <ele>183.392</ele>
        <time>2019-05-05T10:43:00.925Z</time>
      </trkpt>
      <trkpt lat="48.3709236" lon="15.8632051">
        <ele>183.116</ele>
        <time>2019-05-05T10:43:02.952Z</time>
      </trkpt>
      <trkpt lat="48.3709921" lon="15.8633518">
        <ele>182.964</ele>
        <time>2019-05-05T10:43:05.612Z</time>
      </trkpt>
      <trkpt lat="48.3710391" lon="15.8635103">
        <ele>182.881</ele>
        <time>2019-05-05T10:43:08.456Z</time>
      </trkpt>
      <trkpt lat="48.3710917" lon="15.8636406">
        <ele>182.755</ele>
        <time>2019-05-05T10:43:10.901Z</time>
      </trkpt>
      <trkpt lat="48.3711500" lon="15.8637923">
        <ele>182.593</ele>
        <time>2019-05-05T10:43:13.475Z</time>
      </trkpt>
      <trkpt lat="48.3711916" lon="15.8639366">
        <ele>182.483</ele>
        <time>2019-05-05T10:43:15.551Z</time>
      </trkpt>
      <trkpt lat="48.3712222" lon="15.8640929">
        <ele>182.461</ele>
        <time>2019-05-05T10:43:17.678Z</time>
      </trkpt>
      <trkpt lat="48.3712674" lon="15.8642192">
        <ele>182.503</ele>
        <time>2019-05-05T10:43:19.587Z</time>
      </trkpt>
      <trkpt lat="48.3713833" lon="15.8643760">
        <ele>182.609</ele>
        <time>2019-05-05T10:43:22.731Z</time>
      </trkpt>
      <trkpt lat="48.3714548" lon="15.8645403">
        <ele>182.797</ele>
        <time>2019-05-05T10:43:25.360Z</time>
      </trkpt>
      <trkpt lat="48.3714848" lon="15.8647392">
        <ele>182.998</ele>
        <time>2019-05-05T10:43:28.024Z</time>
      </trkpt>
      <trkpt lat="48.3715049" lon="15.8649374">
        <ele>183.085</ele>
        <time>2019-05-05T10:43:30.568Z</time>
      </trkpt>
      <trkpt lat="48.3715158" lon="15.8650756">
        <ele>183.039</ele>
        <time>2019-05-05T10:43:32.295Z</time>
      </trkpt>
      <trkpt lat="48.3715360" lon="15.8652181">
        <ele>182.938</ele>
        <time>2019-05-05T10:43:34.098Z</time>
      </trkpt>
      <trkpt lat="48.3715458" lon="15.8653650">
        <ele>182.851</ele>
        <time>2019-05-05T10:43:35.944Z</time>
      </trkpt>
      <trkpt lat="48.3715413" lon="15.8655088">
        <ele>182.749</ele>
        <time>2019-05-05T10:43:37.770Z</time>
      </trkpt>
      <trkpt lat="48.3715413" lon="15.8656555">
        <ele>182.576</ele>
        <time>2019-05-05T10:43:39.645Z</time>
      </trkpt>
      <trkpt lat="48.3715339" lon="15.8658026">
        <ele>182.362</ele>
        <time>2019-05-05T10:43:41.519Z</time>
      </trkpt>
      <trkpt lat="48.3715273" lon="15.8659544">
        <ele>182.187</ele>
        <time>2019-05-05T10:43:43.414Z</time>
      </trkpt>
      <trkpt lat="48.3715257" lon="15.8661012">
        <ele>182.054</ele>
        <time>2019-05-05T10:43:45.224Z</time>
      </trkpt>
      <trkpt lat="48.3715087" lon="15.8662539">
        <ele>181.927</ele>
        <time>2019-05-05T10:43:47.153Z</time>
      </trkpt>
      <trkpt lat="48.3714813" lon="15.8663870">
        <ele>181.780</ele>
        <time>2019-05-05T10:43:48.936Z</time>
      </trkpt>
      <trkpt lat="48.3714433" lon="15.8665235">
        <ele>181.623</ele>
        <time>2019-05-05T10:43:50.891Z</time>
      </trkpt>
      <trkpt lat="48.3714156" lon="15.8666674">
        <ele>181.501</ele>
        <time>2019-05-05T10:43:52.865Z</time>
      </trkpt>
      <trkpt lat="48.3713859" lon="15.8668031">
        <ele>181.476</ele>
        <time>2019-05-05T10:43:54.697Z</time>
      </trkpt>
      <trkpt lat="48.3713481" lon="15.8669570">
        <ele>181.579</ele>
        <time>2019-05-05T10:43:56.782Z</time>
      </trkpt>
      <trkpt lat="48.3713139" lon="15.8671025">
        <ele>181.748</ele>
        <time>2019-05-05T10:43:58.761Z</time>
      </trkpt>
      <trkpt lat="48.3712630" lon="15.8672360">
        <ele>181.857</ele>
        <time>2019-05-05T10:44:00.737Z</time>
      </trkpt>
      <trkpt lat="48.3712105" lon="15.8673637">
        <ele>181.858</ele>
        <time>2019-05-05T10:44:02.644Z</time>
      </trkpt>
      <trkpt lat="48.3711792" lon="15.8674911">
        <ele>181.801</ele>
        <time>2019-05-05T10:44:04.393Z</time>
      </trkpt>
      <trkpt lat="48.3711301" lon="15.8676773">
        <ele>181.791</ele>
        <time>2019-05-05T10:44:07.060Z</time>
      </trkpt>
      <trkpt lat="48.3711004" lon="15.8678114">
        <ele>181.868</ele>
        <time>2019-05-05T10:44:08.950Z</time>
      </trkpt>
      <trkpt lat="48.3710519" lon="15.8679351">
        <ele>181.951</ele>
        <time>2019-05-05T10:44:10.831Z</time>
      </trkpt>
      <trkpt lat="48.3709967" lon="15.8680628">
        <ele>181.928</ele>
        <time>2019-05-05T10:44:12.763Z</time>
      </trkpt>
      <trkpt lat="48.3709376" lon="15.8682197">
        <ele>181.805</ele>
        <time>2019-05-05T10:44:14.978Z</time>
      </trkpt>
      <trkpt lat="48.3708663" lon="15.8683723">
        <ele>181.718</ele>
        <time>2019-05-05T10:44:17.149Z</time>
      </trkpt>
      <trkpt lat="48.3707956" lon="15.8685188">
        <ele>181.787</ele>
        <time>2019-05-05T10:44:19.116Z</time>
      </trkpt>
      <trkpt lat="48.3707188" lon="15.8686393">
        <ele>182.030</ele>
        <time>2019-05-05T10:44:20.892Z</time>
      </trkpt>
      <trkpt lat="48.3706436" lon="15.8687938">
        <ele>182.393</ele>
        <time>2019-05-05T10:44:22.936Z</time>
      </trkpt>
      <trkpt lat="48.3705558" lon="15.8689485">
        <ele>182.781</ele>
        <time>2019-05-05T10:44:25.048Z</time>
      </trkpt>
      <trkpt lat="48.3704616" lon="15.8691634">
        <ele>183.104</ele>
        <time>2019-05-05T10:44:27.542Z</time>
      </trkpt>
      <trkpt lat="48.3703725" lon="15.8693595">
        <ele>183.327</ele>
        <time>2019-05-05T10:44:29.764Z</time>
      </trkpt>
      <trkpt lat="48.3703076" lon="15.8695528">
        <ele>183.456</ele>
        <time>2019-05-05T10:44:31.781Z</time>
      </trkpt>
      <trkpt lat="48.3702498" lon="15.8697196">
        <ele>183.501</ele>
        <time>2019-05-05T10:44:33.547Z</time>
      </trkpt>
      <trkpt lat="48.3701623" lon="15.8698898">
        <ele>183.456</ele>
        <time>2019-05-05T10:44:35.627Z</time>
      </trkpt>
      <trkpt lat="48.3700539" lon="15.8700738">
        <ele>183.296</ele>
        <time>2019-05-05T10:44:38.016Z</time>
      </trkpt>
      <trkpt lat="48.3699769" lon="15.8702234">
        <ele>183.068</ele>
        <time>2019-05-05T10:44:39.829Z</time>
      </trkpt>
      <trkpt lat="48.3698872" lon="15.8703879">
        <ele>182.907</ele>
        <time>2019-05-05T10:44:41.953Z</time>
      </trkpt>
      <trkpt lat="48.3698202" lon="15.8705106">
        <ele>182.874</ele>
        <time>2019-05-05T10:44:43.606Z</time>
      </trkpt>
      <trkpt lat="48.3697545" lon="15.8706776">
        <ele>182.891</ele>
        <time>2019-05-05T10:44:45.603Z</time>
      </trkpt>
      <trkpt lat="48.3696789" lon="15.8708223">
        <ele>182.881</ele>
        <time>2019-05-05T10:44:47.455Z</time>
      </trkpt>
      <trkpt lat="48.3696090" lon="15.8709322">
        <ele>182.816</ele>
        <time>2019-05-05T10:44:49.015Z</time>
      </trkpt>
      <trkpt lat="48.3694959" lon="15.8710729">
        <ele>182.681</ele>
        <time>2019-05-05T10:44:51.382Z</time>
      </trkpt>
      <trkpt lat="48.3694366" lon="15.8712311">
        <ele>182.513</ele>
        <time>2019-05-05T10:44:53.437Z</time>
      </trkpt>
      <trkpt lat="48.3693809" lon="15.8713468">
        <ele>182.395</ele>
        <time>2019-05-05T10:44:55.079Z</time>
      </trkpt>
      <trkpt lat="48.3693293" lon="15.8714590">
        <ele>182.343</ele>
        <time>2019-05-05T10:44:56.752Z</time>
      </trkpt>
      <trkpt lat="48.3692528" lon="15.8716002">
        <ele>182.286</ele>
        <time>2019-05-05T10:44:59.060Z</time>
      </trkpt>
      <trkpt lat="48.3691718" lon="15.8717072">
        <ele>182.185</ele>
        <time>2019-05-05T10:45:01.130Z</time>
      </trkpt>
      <trkpt lat="48.3690951" lon="15.8718088">
        <ele>182.085</ele>
        <time>2019-05-05T10:45:03.118Z</time>
      </trkpt>
      <trkpt lat="48.3690145" lon="15.8718897">
        <ele>182.033</ele>
        <time>2019-05-05T10:45:05.055Z</time>
      </trkpt>
      <trkpt lat="48.3689313" lon="15.8720069">
        <ele>182.047</ele>
        <time>2019-05-05T10:45:07.476Z</time>
      </trkpt>
      <trkpt lat="48.3688221" lon="15.8721159">
        <ele>182.176</ele>
        <time>2019-05-05T10:45:10.483Z</time>
      </trkpt>
      <trkpt lat="48.3687598" lon="15.8722723">
        <ele>182.443</ele>
        <time>2019-05-05T10:45:13.351Z</time>
      </trkpt>
      <trkpt lat="48.3686840" lon="15.8723780">
        <ele>182.740</ele>
        <time>2019-05-05T10:45:15.618Z</time>
      </trkpt>
      <trkpt lat="48.3686113" lon="15.8724775">
        <ele>182.936</ele>
        <time>2019-05-05T10:45:17.700Z</time>
      </trkpt>
      <trkpt lat="48.3685266" lon="15.8726010">
        <ele>183.034</ele>
        <time>2019-05-05T10:45:20.113Z</time>
      </trkpt>
      <trkpt lat="48.3684300" lon="15.8726963">
        <ele>183.115</ele>
        <time>2019-05-05T10:45:22.470Z</time>
      </trkpt>
      <trkpt lat="48.3683458" lon="15.8728062">
        <ele>183.213</ele>
        <time>2019-05-05T10:45:24.810Z</time>
      </trkpt>
      <trkpt lat="48.3682727" lon="15.8729129">
        <ele>183.361</ele>
        <time>2019-05-05T10:45:27.006Z</time>
      </trkpt>
      <trkpt lat="48.3681781" lon="15.8730274">
        <ele>183.626</ele>
        <time>2019-05-05T10:45:29.439Z</time>
      </trkpt>
      <trkpt lat="48.3680991" lon="15.8731346">
        <ele>183.956</ele>
        <time>2019-05-05T10:45:31.487Z</time>
      </trkpt>
      <trkpt lat="48.3680137" lon="15.8732581">
        <ele>184.226</ele>
        <time>2019-05-05T10:45:33.793Z</time>
      </trkpt>
      <trkpt lat="48.3679306" lon="15.8733695">
        <ele>184.422</ele>
        <time>2019-05-05T10:45:35.907Z</time>
      </trkpt>
      <trkpt lat="48.3678803" lon="15.8734926">
        <ele>184.575</ele>
        <time>2019-05-05T10:45:37.679Z</time>
      </trkpt>
      <trkpt lat="48.3677882" lon="15.8736333">
        <ele>184.649</ele>
        <time>2019-05-05T10:45:40.127Z</time>
      </trkpt>
      <trkpt lat="48.3677101" lon="15.8737487">
        <ele>184.559</ele>
        <time>2019-05-05T10:45:42.197Z</time>
      </trkpt>
      <trkpt lat="48.3676480" lon="15.8738792">
        <ele>184.288</ele>
        <time>2019-05-05T10:45:44.183Z</time>
      </trkpt>
      <trkpt lat="48.3675621" lon="15.8739942">
        <ele>183.910</ele>
        <time>2019-05-05T10:45:46.266Z</time>
      </trkpt>
      <trkpt lat="48.3674863" lon="15.8740907">
        <ele>183.541</ele>
        <time>2019-05-05T10:45:48.045Z</time>
      </trkpt>
      <trkpt lat="48.3673790" lon="15.8741812">
        <ele>183.326</ele>
        <time>2019-05-05T10:45:50.260Z</time>
      </trkpt>
      <trkpt lat="48.3672632" lon="15.8742744">
        <ele>183.346</ele>
        <time>2019-05-05T10:45:52.650Z</time>
      </trkpt>
      <trkpt lat="48.3671909" lon="15.8743743">
        <ele>183.631</ele>
        <time>2019-05-05T10:45:54.424Z</time>
      </trkpt>
      <trkpt lat="48.3671135" lon="15.8744599">
        <ele>184.229</ele>
        <time>2019-05-05T10:45:56.174Z</time>
      </trkpt>
      <trkpt lat="48.3670367" lon="15.8745448">
        <ele>184.971</ele>
        <time>2019-05-05T10:45:57.952Z</time>
      </trkpt>
      <trkpt lat="48.3669742" lon="15.8746910">
        <ele>185.520</ele>
        <time>2019-05-05T10:46:00.181Z</time>
      </trkpt>
      <trkpt lat="48.3668835" lon="15.8747978">
        <ele>185.787</ele>
        <time>2019-05-05T10:46:02.484Z</time>
      </trkpt>
      <trkpt lat="48.3667895" lon="15.8748990">
        <ele>185.909</ele>
        <time>2019-05-05T10:46:04.804Z</time>
      </trkpt>
      <trkpt lat="48.3667095" lon="15.8749684">
        <ele>185.903</ele>
        <time>2019-05-05T10:46:06.605Z</time>
      </trkpt>
      <trkpt lat="48.3666481" lon="15.8750822">
        <ele>185.753</ele>
        <time>2019-05-05T10:46:08.476Z</time>
      </trkpt>
      <trkpt lat="48.3665685" lon="15.8751697">
        <ele>185.584</ele>
        <time>2019-05-05T10:46:10.471Z</time>
      </trkpt>
      <trkpt lat="48.3665037" lon="15.8752902">
        <ele>185.473</ele>
        <time>2019-05-05T10:46:12.754Z</time>
      </trkpt>
      <trkpt lat="48.3664138" lon="15.8753770">
        <ele>185.294</ele>
        <time>2019-05-05T10:46:15.392Z</time>
      </trkpt>
      <trkpt lat="48.3663214" lon="15.8754756">
        <ele>184.955</ele>
        <time>2019-05-05T10:46:18.295Z</time>
      </trkpt>
      <trkpt lat="48.3662292" lon="15.8755851">
        <ele>184.567</ele>
        <time>2019-05-05T10:46:21.520Z</time>
      </trkpt>
      <trkpt lat="48.3661165" lon="15.8756727">
        <ele>184.281</ele>
        <time>2019-05-05T10:46:25.036Z</time>
      </trkpt>
      <trkpt lat="48.3660099" lon="15.8756599">
        <ele>184.139</ele>
        <time>2019-05-05T10:46:27.408Z</time>
      </trkpt>
      <trkpt lat="48.3659459" lon="15.8755567">
        <ele>184.166</ele>
        <time>2019-05-05T10:46:29.272Z</time>
      </trkpt>
      <trkpt lat="48.3658861" lon="15.8754169">
        <ele>184.523</ele>
        <time>2019-05-05T10:46:31.582Z</time>
      </trkpt>
      <trkpt lat="48.3658120" lon="15.8753100">
        <ele>185.329</ele>
        <time>2019-05-05T10:46:34.380Z</time>
      </trkpt>
      <trkpt lat="48.3657330" lon="15.8751833">
        <ele>186.273</ele>
        <time>2019-05-05T10:46:37.735Z</time>
      </trkpt>
      <trkpt lat="48.3656477" lon="15.8750110">
        <ele>186.787</ele>
        <time>2019-05-05T10:46:40.849Z</time>
      </trkpt>
      <trkpt lat="48.3655784" lon="15.8748496">
        <ele>186.542</ele>
        <time>2019-05-05T10:46:43.094Z</time>
      </trkpt>
      <trkpt lat="48.3654907" lon="15.8746738">
        <ele>185.611</ele>
        <time>2019-05-05T10:46:45.407Z</time>
      </trkpt>
      <trkpt lat="48.3653862" lon="15.8745668">
        <ele>184.395</ele>
        <time>2019-05-05T10:46:47.475Z</time>
      </trkpt>
      <trkpt lat="48.3652924" lon="15.8745960">
        <ele>183.408</ele>
        <time>2019-05-05T10:46:49.104Z</time>
      </trkpt>
      <trkpt lat="48.3652213" lon="15.8746805">
        <ele>182.972</ele>
        <time>2019-05-05T10:46:51.054Z</time>
      </trkpt>
      <trkpt lat="48.3651316" lon="15.8747849">
        <ele>183.055</ele>
        <time>2019-05-05T10:46:53.878Z</time>
      </trkpt>
      <trkpt lat="48.3650624" lon="15.8748756">
        <ele>183.362</ele>
        <time>2019-05-05T10:46:56.874Z</time>
      </trkpt>
      <trkpt lat="48.3649779" lon="15.8749918">
        <ele>183.605</ele>
        <time>2019-05-05T10:47:01.222Z</time>
      </trkpt>
      <trkpt lat="48.3648823" lon="15.8751294">
        <ele>183.685</ele>
        <time>2019-05-05T10:47:06.154Z</time>
      </trkpt>
      <trkpt lat="48.3648281" lon="15.8752426">
        <ele>183.636</ele>
        <time>2019-05-05T10:47:09.606Z</time>
      </trkpt>
      <trkpt lat="48.3647606" lon="15.8753920">
        <ele>183.512</ele>
        <time>2019-05-05T10:47:13.942Z</time>
      </trkpt>
      <trkpt lat="48.3646681" lon="15.8755243">
        <ele>183.337</ele>
        <time>2019-05-05T10:47:18.219Z</time>
      </trkpt>
      <trkpt lat="48.3645587" lon="15.8755251">
        <ele>183.117</ele>
        <time>2019-05-05T10:47:21.351Z</time>
      </trkpt>
      <trkpt lat="48.3644654" lon="15.8754515">
        <ele>182.912</ele>
        <time>2019-05-05T10:47:24.188Z</time>
      </trkpt>
      <trkpt lat="48.3644052" lon="15.8753120">
        <ele>182.877</ele>
        <time>2019-05-05T10:47:26.923Z</time>
      </trkpt>
      <trkpt lat="48.3643626" lon="15.8751927">
        <ele>183.190</ele>
        <time>2019-05-05T10:47:28.911Z</time>
      </trkpt>
      <trkpt lat="48.3643524" lon="15.8749917">
        <ele>183.806</ele>
        <time>2019-05-05T10:47:31.764Z</time>
      </trkpt>
      <trkpt lat="48.3643232" lon="15.8748070">
        <ele>184.403</ele>
        <time>2019-05-05T10:47:34.268Z</time>
      </trkpt>
      <trkpt lat="48.3643185" lon="15.8746450">
        <ele>184.703</ele>
        <time>2019-05-05T10:47:36.370Z</time>
      </trkpt>
      <trkpt lat="48.3643018" lon="15.8744887">
        <ele>184.697</ele>
        <time>2019-05-05T10:47:38.382Z</time>
      </trkpt>
      <trkpt lat="48.3642922" lon="15.8743262">
        <ele>184.536</ele>
        <time>2019-05-05T10:47:40.426Z</time>
      </trkpt>
      <trkpt lat="48.3642768" lon="15.8741845">
        <ele>184.332</ele>
        <time>2019-05-05T10:47:42.244Z</time>
      </trkpt>
      <trkpt lat="48.3642385" lon="15.8740295">
        <ele>184.099</ele>
        <time>2019-05-05T10:47:44.295Z</time>
      </trkpt>
      <trkpt lat="48.3641961" lon="15.8738603">
        <ele>183.847</ele>
        <time>2019-05-05T10:47:46.424Z</time>
      </trkpt>
      <trkpt lat="48.3641452" lon="15.8737046">
        <ele>183.631</ele>
        <time>2019-05-05T10:47:48.448Z</time>
      </trkpt>
      <trkpt lat="48.3641084" lon="15.8735447">
        <ele>183.513</ele>
        <time>2019-05-05T10:47:50.492Z</time>
      </trkpt>
      <trkpt lat="48.3640680" lon="15.8734061">
        <ele>183.536</ele>
        <time>2019-05-05T10:47:52.330Z</time>
      </trkpt>
      <trkpt lat="48.3640260" lon="15.8732562">
        <ele>183.704</ele>
        <time>2019-05-05T10:47:54.232Z</time>
      </trkpt>
      <trkpt lat="48.3639505" lon="15.8730975">
        <ele>183.944</ele>
        <time>2019-05-05T10:47:56.421Z</time>
      </trkpt>
      <trkpt lat="48.3638679" lon="15.8729497">
        <ele>184.155</ele>
        <time>2019-05-05T10:47:58.592Z</time>
      </trkpt>
      <trkpt lat="48.3637999" lon="15.8727954">
        <ele>184.291</ele>
        <time>2019-05-05T10:48:00.743Z</time>
      </trkpt>
      <trkpt lat="48.3637296" lon="15.8726507">
        <ele>184.356</ele>
        <time>2019-05-05T10:48:02.921Z</time>
      </trkpt>
      <trkpt lat="48.3636702" lon="15.8725244">
        <ele>184.374</ele>
        <time>2019-05-05T10:48:04.852Z</time>
      </trkpt>
      <trkpt lat="48.3636013" lon="15.8724088">
        <ele>184.373</ele>
        <time>2019-05-05T10:48:06.772Z</time>
      </trkpt>
      <trkpt lat="48.3635352" lon="15.8722836">
        <ele>184.368</ele>
        <time>2019-05-05T10:48:08.734Z</time>
      </trkpt>
      <trkpt lat="48.3634678" lon="15.8721602">
        <ele>184.365</ele>
        <time>2019-05-05T10:48:10.728Z</time>
      </trkpt>
      <trkpt lat="48.3634100" lon="15.8720259">
        <ele>184.365</ele>
        <time>2019-05-05T10:48:12.709Z</time>
      </trkpt>
      <trkpt lat="48.3633448" lon="15.8719048">
        <ele>184.365</ele>
        <time>2019-05-05T10:48:14.552Z</time>
      </trkpt>
      <trkpt lat="48.3632734" lon="15.8717660">
        <ele>184.366</ele>
        <time>2019-05-05T10:48:16.590Z</time>
      </trkpt>
      <trkpt lat="48.3631764" lon="15.8716793">
        <ele>184.388</ele>
        <time>2019-05-05T10:48:18.605Z</time>
      </trkpt>
      <trkpt lat="48.3630724" lon="15.8717046">
        <ele>184.495</ele>
        <time>2019-05-05T10:48:20.500Z</time>
      </trkpt>
      <trkpt lat="48.3629837" lon="15.8718410">
        <ele>184.715</ele>
        <time>2019-05-05T10:48:22.814Z</time>
      </trkpt>
      <trkpt lat="48.3629295" lon="15.8719989">
        <ele>184.954</ele>
        <time>2019-05-05T10:48:25.255Z</time>
      </trkpt>
      <trkpt lat="48.3628896" lon="15.8721501">
        <ele>185.054</ele>
        <time>2019-05-05T10:48:27.936Z</time>
      </trkpt>
      <trkpt lat="48.3628603" lon="15.8723062">
        <ele>184.938</ele>
        <time>2019-05-05T10:48:31.026Z</time>
      </trkpt>
      <trkpt lat="48.3628258" lon="15.8724317">
        <ele>184.693</ele>
        <time>2019-05-05T10:48:33.484Z</time>
      </trkpt>
      <trkpt lat="48.3627988" lon="15.8725849">
        <ele>184.434</ele>
        <time>2019-05-05T10:48:36.013Z</time>
      </trkpt>
      <trkpt lat="48.3627781" lon="15.8727182">
        <ele>184.163</ele>
        <time>2019-05-05T10:48:37.981Z</time>
      </trkpt>
      <trkpt lat="48.3627590" lon="15.8728615">
        <ele>183.870</ele>
        <time>2019-05-05T10:48:40.068Z</time>
      </trkpt>
      <trkpt lat="48.3627619" lon="15.8730020">
        <ele>183.616</ele>
        <time>2019-05-05T10:48:42.146Z</time>
      </trkpt>
      <trkpt lat="48.3628153" lon="15.8731575">
        <ele>183.455</ele>
        <time>2019-05-05T10:48:44.915Z</time>
      </trkpt>
      <trkpt lat="48.3628764" lon="15.8733168">
        <ele>183.379</ele>
        <time>2019-05-05T10:48:47.895Z</time>
      </trkpt>
      <trkpt lat="48.3628761" lon="15.8734850">
        <ele>183.357</ele>
        <time>2019-05-05T10:48:50.632Z</time>
      </trkpt>
      <trkpt lat="48.3628297" lon="15.8736546">
        <ele>183.357</ele>
        <time>2019-05-05T10:48:53.362Z</time>
      </trkpt>
      <trkpt lat="48.3627488" lon="15.8738219">
        <ele>183.363</ele>
        <time>2019-05-05T10:48:56.146Z</time>
      </trkpt>
      <trkpt lat="48.3626800" lon="15.8739270">
        <ele>183.367</ele>
        <time>2019-05-05T10:48:58.009Z</time>
      </trkpt>
      <trkpt lat="48.3626086" lon="15.8740357">
        <ele>183.368</ele>
        <time>2019-05-05T10:48:59.884Z</time>
      </trkpt>
      <trkpt lat="48.3625308" lon="15.8741473">
        <ele>183.368</ele>
        <time>2019-05-05T10:49:01.915Z</time>
      </trkpt>
      <trkpt lat="48.3624566" lon="15.8742604">
        <ele>183.368</ele>
        <time>2019-05-05T10:49:04.022Z</time>
      </trkpt>
      <trkpt lat="48.3623938" lon="15.8743643">
        <ele>183.367</ele>
        <time>2019-05-05T10:49:05.892Z</time>
      </trkpt>
      <trkpt lat="48.3623224" lon="15.8744833">
        <ele>183.367</ele>
        <time>2019-05-05T10:49:07.921Z</time>
      </trkpt>
      <trkpt lat="48.3622491" lon="15.8746143">
        <ele>183.367</ele>
        <time>2019-05-05T10:49:10.038Z</time>
      </trkpt>
      <trkpt lat="48.3621984" lon="15.8747504">
        <ele>183.367</ele>
        <time>2019-05-05T10:49:11.960Z</time>
      </trkpt>
      <trkpt lat="48.3621232" lon="15.8749658">
        <ele>183.367</ele>
        <time>2019-05-05T10:49:14.930Z</time>
      </trkpt>
      <trkpt lat="48.3620617" lon="15.8750972">
        <ele>183.367</ele>
        <time>2019-05-05T10:49:16.897Z</time>
      </trkpt>
      <trkpt lat="48.3619969" lon="15.8752165">
        <ele>183.371</ele>
        <time>2019-05-05T10:49:18.777Z</time>
      </trkpt>
      <trkpt lat="48.3619152" lon="15.8753311">
        <ele>183.390</ele>
        <time>2019-05-05T10:49:20.811Z</time>
      </trkpt>
      <trkpt lat="48.3617964" lon="15.8754785">
        <ele>183.428</ele>
        <time>2019-05-05T10:49:23.616Z</time>
      </trkpt>
      <trkpt lat="48.3616771" lon="15.8756531">
        <ele>183.451</ele>
        <time>2019-05-05T10:49:26.629Z</time>
      </trkpt>
      <trkpt lat="48.3616095" lon="15.8757917">
        <ele>183.437</ele>
        <time>2019-05-05T10:49:28.670Z</time>
      </trkpt>
      <trkpt lat="48.3615231" lon="15.8760055">
        <ele>183.410</ele>
        <time>2019-05-05T10:49:31.679Z</time>
      </trkpt>
      <trkpt lat="48.3614656" lon="15.8762227">
        <ele>183.435</ele>
        <time>2019-05-05T10:49:34.575Z</time>
      </trkpt>
      <trkpt lat="48.3614224" lon="15.8763654">
        <ele>183.606</ele>
        <time>2019-05-05T10:49:36.519Z</time>
      </trkpt>
      <trkpt lat="48.3613981" lon="15.8765169">
        <ele>183.916</ele>
        <time>2019-05-05T10:49:38.408Z</time>
      </trkpt>
      <trkpt lat="48.3613673" lon="15.8766688">
        <ele>184.232</ele>
        <time>2019-05-05T10:49:40.320Z</time>
      </trkpt>
      <trkpt lat="48.3613318" lon="15.8768182">
        <ele>184.478</ele>
        <time>2019-05-05T10:49:42.250Z</time>
      </trkpt>
      <trkpt lat="48.3613087" lon="15.8769677">
        <ele>184.704</ele>
        <time>2019-05-05T10:49:44.111Z</time>
      </trkpt>
      <trkpt lat="48.3612746" lon="15.8771317">
        <ele>184.919</ele>
        <time>2019-05-05T10:49:46.151Z</time>
      </trkpt>
      <trkpt lat="48.3612428" lon="15.8772912">
        <ele>185.059</ele>
        <time>2019-05-05T10:49:48.096Z</time>
      </trkpt>
      <trkpt lat="48.3612204" lon="15.8774517">
        <ele>185.091</ele>
        <time>2019-05-05T10:49:50.010Z</time>
      </trkpt>
      <trkpt lat="48.3611964" lon="15.8776113">
        <ele>185.038</ele>
        <time>2019-05-05T10:49:51.944Z</time>
      </trkpt>
      <trkpt lat="48.3611819" lon="15.8777616">
        <ele>184.939</ele>
        <time>2019-05-05T10:49:53.766Z</time>
      </trkpt>
      <trkpt lat="48.3611644" lon="15.8779049">
        <ele>184.832</ele>
        <time>2019-05-05T10:49:55.528Z</time>
      </trkpt>
      <trkpt lat="48.3611495" lon="15.8780637">
        <ele>184.738</ele>
        <time>2019-05-05T10:49:57.452Z</time>
      </trkpt>
      <trkpt lat="48.3611323" lon="15.8782230">
        <ele>184.661</ele>
        <time>2019-05-05T10:49:59.370Z</time>
      </trkpt>
      <trkpt lat="48.3611052" lon="15.8783784">
        <ele>184.594</ele>
        <time>2019-05-05T10:50:01.266Z</time>
      </trkpt>
      <trkpt lat="48.3610846" lon="15.8785380">
        <ele>184.529</ele>
        <time>2019-05-05T10:50:03.196Z</time>
      </trkpt>
      <trkpt lat="48.3610605" lon="15.8786893">
        <ele>184.465</ele>
        <time>2019-05-05T10:50:05.092Z</time>
      </trkpt>
      <trkpt lat="48.3610270" lon="15.8788415">
        <ele>184.411</ele>
        <time>2019-05-05T10:50:07.111Z</time>
      </trkpt>
      <trkpt lat="48.3609919" lon="15.8789802">
        <ele>184.351</ele>
        <time>2019-05-05T10:50:09.081Z</time>
      </trkpt>
      <trkpt lat="48.3609645" lon="15.8791137">
        <ele>184.227</ele>
        <time>2019-05-05T10:50:11.019Z</time>
      </trkpt>
      <trkpt lat="48.3609316" lon="15.8792628">
        <ele>184.010</ele>
        <time>2019-05-05T10:50:13.092Z</time>
      </trkpt>
      <trkpt lat="48.3608954" lon="15.8794109">
        <ele>183.711</ele>
        <time>2019-05-05T10:50:15.052Z</time>
      </trkpt>
      <trkpt lat="48.3608689" lon="15.8795592">
        <ele>183.324</ele>
        <time>2019-05-05T10:50:16.946Z</time>
      </trkpt>
      <trkpt lat="48.3607904" lon="15.8797138">
        <ele>182.820</ele>
        <time>2019-05-05T10:50:19.710Z</time>
      </trkpt>
      <trkpt lat="48.3606843" lon="15.8797662">
        <ele>182.259</ele>
        <time>2019-05-05T10:50:22.907Z</time>
      </trkpt>
      <trkpt lat="48.3605743" lon="15.8797374">
        <ele>181.822</ele>
        <time>2019-05-05T10:50:26.967Z</time>
      </trkpt>
      <trkpt lat="48.3604647" lon="15.8797234">
        <ele>181.668</ele>
        <time>2019-05-05T10:50:31.327Z</time>
      </trkpt>
      <trkpt lat="48.3603485" lon="15.8797141">
        <ele>181.803</ele>
        <time>2019-05-05T10:50:35.281Z</time>
      </trkpt>
      <trkpt lat="48.3602427" lon="15.8797196">
        <ele>182.071</ele>
        <time>2019-05-05T10:50:39.502Z</time>
      </trkpt>
      <trkpt lat="48.3601477" lon="15.8797272">
        <ele>182.290</ele>
        <time>2019-05-05T10:50:43.999Z</time>
      </trkpt>
      <trkpt lat="48.3601477" lon="15.8797272">
        <ele>182.391</ele>
        <time>2019-05-05T10:50:49.999Z</time>
      </trkpt>
      <trkpt lat="48.3601477" lon="15.8797272">
        <ele>182.378</ele>
        <time>2019-05-05T10:50:54.500Z</time>
      </trkpt>
      <trkpt lat="48.3599288" lon="15.8796304">
        <ele>182.280</ele>
        <time>2019-05-05T10:51:17.827Z</time>
      </trkpt>
      <trkpt lat="48.3598247" lon="15.8796446">
        <ele>182.130</ele>
        <time>2019-05-05T10:51:23.101Z</time>
      </trkpt>
      <trkpt lat="48.3597254" lon="15.8796603">
        <ele>181.947</ele>
        <time>2019-05-05T10:51:27.521Z</time>
      </trkpt>
      <trkpt lat="48.3596016" lon="15.8796171">
        <ele>181.735</ele>
        <time>2019-05-05T10:51:32.221Z</time>
      </trkpt>
      <trkpt lat="48.3594676" lon="15.8796280">
        <ele>181.534</ele>
        <time>2019-05-05T10:51:36.267Z</time>
      </trkpt>
      <trkpt lat="48.3593774" lon="15.8796747">
        <ele>181.398</ele>
        <time>2019-05-05T10:51:38.987Z</time>
      </trkpt>
      <trkpt lat="48.3592830" lon="15.8797146">
        <ele>181.344</ele>
        <time>2019-05-05T10:51:41.890Z</time>
      </trkpt>
      <trkpt lat="48.3591742" lon="15.8797425">
        <ele>181.342</ele>
        <time>2019-05-05T10:51:45.066Z</time>
      </trkpt>
      <trkpt lat="48.3590928" lon="15.8798089">
        <ele>181.368</ele>
        <time>2019-05-05T10:51:48.046Z</time>
      </trkpt>
      <trkpt lat="48.3590371" lon="15.8799204">
        <ele>181.409</ele>
        <time>2019-05-05T10:51:51.230Z</time>
      </trkpt>
      <trkpt lat="48.3589382" lon="15.8799940">
        <ele>179.956</ele>
        <time>2019-05-05T10:51:55.742Z</time>
      </trkpt>
      <trkpt lat="48.3588451" lon="15.8801034">
        <ele>172.106</ele>
        <time>2019-05-05T10:52:01.224Z</time>
      </trkpt>
      <trkpt lat="48.3587600" lon="15.8801858">
        <ele>156.245</ele>
        <time>2019-05-05T10:52:05.563Z</time>
      </trkpt>
      <trkpt lat="48.3587369" lon="15.8803219">
        <ele>139.026</ele>
        <time>2019-05-05T10:52:09.000Z</time>
      </trkpt>
      <trkpt lat="48.3587369" lon="15.8803219">
        <ele>127.670</ele>
        <time>2019-05-05T10:52:24.000Z</time>
      </trkpt>
      <trkpt lat="48.3587369" lon="15.8803219">
        <ele>123.546</ele>
        <time>2019-05-05T10:54:49.015Z</time>
      </trkpt>
      <trkpt lat="48.3586399" lon="15.8806395">
        <ele>125.776</ele>
        <time>2019-05-05T10:55:04.146Z</time>
      </trkpt>
      <trkpt lat="48.3585235" lon="15.8806777">
        <ele>135.693</ele>
        <time>2019-05-05T10:55:07.968Z</time>
      </trkpt>
      <trkpt lat="48.3584249" lon="15.8806083">
        <ele>151.263</ele>
        <time>2019-05-05T10:55:11.105Z</time>
      </trkpt>
      <trkpt lat="48.3583353" lon="15.8806461">
        <ele>162.342</ele>
        <time>2019-05-05T10:55:13.556Z</time>
      </trkpt>
      <trkpt lat="48.3582781" lon="15.8807577">
        <ele>161.469</ele>
        <time>2019-05-05T10:55:15.899Z</time>
      </trkpt>
      <trkpt lat="48.3581744" lon="15.8808093">
        <ele>151.898</ele>
        <time>2019-05-05T10:55:18.609Z</time>
      </trkpt>
      <trkpt lat="48.3580846" lon="15.8808650">
        <ele>140.936</ele>
        <time>2019-05-05T10:55:21.001Z</time>
      </trkpt>
      <trkpt lat="48.3580846" lon="15.8808650">
        <ele>133.503</ele>
        <time>2019-05-05T10:55:22.001Z</time>
      </trkpt>
      <trkpt lat="48.3580846" lon="15.8808650">
        <ele>130.741</ele>
        <time>2019-05-05T10:55:22.101Z</time>
      </trkpt>
      <trkpt lat="48.3579299" lon="15.8810717">
        <ele>132.174</ele>
        <time>2019-05-05T10:55:37.572Z</time>
      </trkpt>
      <trkpt lat="48.3578934" lon="15.8812090">
        <ele>136.862</ele>
        <time>2019-05-05T10:55:41.929Z</time>
      </trkpt>
      <trkpt lat="48.3578504" lon="15.8813449">
        <ele>147.386</ele>
        <time>2019-05-05T10:55:46.384Z</time>
      </trkpt>
      <trkpt lat="48.3577941" lon="15.8814597">
        <ele>164.046</ele>
        <time>2019-05-05T10:55:51.216Z</time>
      </trkpt>
      <trkpt lat="48.3577190" lon="15.8815487">
        <ele>178.672</ele>
        <time>2019-05-05T10:55:56.115Z</time>
      </trkpt>
      <trkpt lat="48.3576730" lon="15.8816752">
        <ele>185.065</ele>
        <time>2019-05-05T10:56:00.784Z</time>
      </trkpt>
      <trkpt lat="48.3576197" lon="15.8818107">
        <ele>185.886</ele>
        <time>2019-05-05T10:56:06.001Z</time>
      </trkpt>
      <trkpt lat="48.3576197" lon="15.8818107">
        <ele>184.783</ele>
        <time>2019-05-05T10:56:26.999Z</time>
      </trkpt>
      <trkpt lat="48.3576197" lon="15.8818107">
        <ele>183.899</ele>
        <time>2019-05-05T10:56:42.179Z</time>
      </trkpt>
      <trkpt lat="48.3577740" lon="15.8817525">
        <ele>183.850</ele>
        <time>2019-05-05T10:57:25.999Z</time>
      </trkpt>
      <trkpt lat="48.3577740" lon="15.8817525">
        <ele>184.091</ele>
        <time>2019-05-05T10:57:28.999Z</time>
      </trkpt>
      <trkpt lat="48.3577740" lon="15.8817525">
        <ele>184.047</ele>
        <time>2019-05-05T11:08:40.333Z</time>
      </trkpt>
      <trkpt lat="48.3575902" lon="15.8818652">
        <ele>183.817</ele>
        <time>2019-05-05T11:08:52.176Z</time>
      </trkpt>
      <trkpt lat="48.3575576" lon="15.8820433">
        <ele>176.941</ele>
        <time>2019-05-05T11:08:55.876Z</time>
      </trkpt>
      <trkpt lat="48.3575539" lon="15.8822207">
        <ele>159.395</ele>
        <time>2019-05-05T11:08:59.001Z</time>
      </trkpt>
      <trkpt lat="48.3575539" lon="15.8822207">
        <ele>142.573</ele>
        <time>2019-05-05T11:09:01.001Z</time>
      </trkpt>
      <trkpt lat="48.3575539" lon="15.8822207">
        <ele>137.011</ele>
        <time>2019-05-05T11:09:01.101Z</time>
      </trkpt>
      <trkpt lat="48.3575057" lon="15.8825530">
        <ele>140.957</ele>
        <time>2019-05-05T11:09:11.701Z</time>
      </trkpt>
      <trkpt lat="48.3574606" lon="15.8826838">
        <ele>152.851</ele>
        <time>2019-05-05T11:09:14.810Z</time>
      </trkpt>
      <trkpt lat="48.3574153" lon="15.8828566">
        <ele>168.897</ele>
        <time>2019-05-05T11:09:18.761Z</time>
      </trkpt>
      <trkpt lat="48.3573764" lon="15.8829939">
        <ele>180.755</ele>
        <time>2019-05-05T11:09:21.807Z</time>
      </trkpt>
      <trkpt lat="48.3573423" lon="15.8831305">
        <ele>184.918</ele>
        <time>2019-05-05T11:09:24.527Z</time>
      </trkpt>
      <trkpt lat="48.3572898" lon="15.8832516">
        <ele>184.497</ele>
        <time>2019-05-05T11:09:27.021Z</time>
      </trkpt>
      <trkpt lat="48.3572160" lon="15.8833852">
        <ele>182.934</ele>
        <time>2019-05-05T11:09:29.846Z</time>
      </trkpt>
      <trkpt lat="48.3571368" lon="15.8835166">
        <ele>181.976</ele>
        <time>2019-05-05T11:09:32.624Z</time>
      </trkpt>
      <trkpt lat="48.3570543" lon="15.8836263">
        <ele>181.958</ele>
        <time>2019-05-05T11:09:35.126Z</time>
      </trkpt>
      <trkpt lat="48.3569601" lon="15.8837701">
        <ele>182.493</ele>
        <time>2019-05-05T11:09:38.080Z</time>
      </trkpt>
      <trkpt lat="48.3568934" lon="15.8838720">
        <ele>183.044</ele>
        <time>2019-05-05T11:09:40.132Z</time>
      </trkpt>
      <trkpt lat="48.3568318" lon="15.8839777">
        <ele>183.319</ele>
        <time>2019-05-05T11:09:42.113Z</time>
      </trkpt>
      <trkpt lat="48.3567685" lon="15.8840742">
        <ele>183.292</ele>
        <time>2019-05-05T11:09:43.993Z</time>
      </trkpt>
      <trkpt lat="48.3567117" lon="15.8841859">
        <ele>183.074</ele>
        <time>2019-05-05T11:09:45.927Z</time>
      </trkpt>
      <trkpt lat="48.3566501" lon="15.8842897">
        <ele>182.815</ele>
        <time>2019-05-05T11:09:47.844Z</time>
      </trkpt>
      <trkpt lat="48.3565639" lon="15.8844326">
        <ele>182.633</ele>
        <time>2019-05-05T11:09:50.512Z</time>
      </trkpt>
      <trkpt lat="48.3565006" lon="15.8845300">
        <ele>182.554</ele>
        <time>2019-05-05T11:09:52.415Z</time>
      </trkpt>
      <trkpt lat="48.3564408" lon="15.8846383">
        <ele>182.543</ele>
        <time>2019-05-05T11:09:54.397Z</time>
      </trkpt>
      <trkpt lat="48.3563586" lon="15.8847606">
        <ele>182.580</ele>
        <time>2019-05-05T11:09:56.845Z</time>
      </trkpt>
      <trkpt lat="48.3563008" lon="15.8848647">
        <ele>182.699</ele>
        <time>2019-05-05T11:09:58.736Z</time>
      </trkpt>
      <trkpt lat="48.3562429" lon="15.8849681">
        <ele>182.896</ele>
        <time>2019-05-05T11:10:00.621Z</time>
      </trkpt>
      <trkpt lat="48.3561623" lon="15.8851292">
        <ele>183.034</ele>
        <time>2019-05-05T11:10:03.445Z</time>
      </trkpt>
      <trkpt lat="48.3560821" lon="15.8852640">
        <ele>182.976</ele>
        <time>2019-05-05T11:10:06.013Z</time>
      </trkpt>
      <trkpt lat="48.3560177" lon="15.8853629">
        <ele>182.705</ele>
        <time>2019-05-05T11:10:07.993Z</time>
      </trkpt>
      <trkpt lat="48.3559139" lon="15.8854875">
        <ele>182.324</ele>
        <time>2019-05-05T11:10:10.944Z</time>
      </trkpt>
      <trkpt lat="48.3558292" lon="15.8856026">
        <ele>182.005</ele>
        <time>2019-05-05T11:10:13.617Z</time>
      </trkpt>
      <trkpt lat="48.3557649" lon="15.8857339">
        <ele>181.868</ele>
        <time>2019-05-05T11:10:16.228Z</time>
      </trkpt>
      <trkpt lat="48.3556992" lon="15.8858675">
        <ele>181.889</ele>
        <time>2019-05-05T11:10:18.880Z</time>
      </trkpt>
      <trkpt lat="48.3556145" lon="15.8860166">
        <ele>181.962</ele>
        <time>2019-05-05T11:10:21.922Z</time>
      </trkpt>
      <trkpt lat="48.3555472" lon="15.8861169">
        <ele>181.999</ele>
        <time>2019-05-05T11:10:24.014Z</time>
      </trkpt>
      <trkpt lat="48.3554840" lon="15.8862260">
        <ele>181.971</ele>
        <time>2019-05-05T11:10:26.074Z</time>
      </trkpt>
      <trkpt lat="48.3554245" lon="15.8863334">
        <ele>181.865</ele>
        <time>2019-05-05T11:10:28.068Z</time>
      </trkpt>
      <trkpt lat="48.3553309" lon="15.8864701">
        <ele>181.685</ele>
        <time>2019-05-05T11:10:30.941Z</time>
      </trkpt>
      <trkpt lat="48.3552490" lon="15.8865992">
        <ele>181.480</ele>
        <time>2019-05-05T11:10:33.656Z</time>
      </trkpt>
      <trkpt lat="48.3551592" lon="15.8867023">
        <ele>181.267</ele>
        <time>2019-05-05T11:10:36.307Z</time>
      </trkpt>
      <trkpt lat="48.3550575" lon="15.8867980">
        <ele>181.050</ele>
        <time>2019-05-05T11:10:39.138Z</time>
      </trkpt>
      <trkpt lat="48.3549337" lon="15.8868840">
        <ele>180.939</ele>
        <time>2019-05-05T11:10:42.340Z</time>
      </trkpt>
      <trkpt lat="48.3548314" lon="15.8869185">
        <ele>181.096</ele>
        <time>2019-05-05T11:10:44.810Z</time>
      </trkpt>
      <trkpt lat="48.3547118" lon="15.8869829">
        <ele>181.610</ele>
        <time>2019-05-05T11:10:47.812Z</time>
      </trkpt>
      <trkpt lat="48.3545847" lon="15.8870453">
        <ele>182.456</ele>
        <time>2019-05-05T11:10:50.904Z</time>
      </trkpt>
      <trkpt lat="48.3544553" lon="15.8871362">
        <ele>183.409</ele>
        <time>2019-05-05T11:10:54.144Z</time>
      </trkpt>
      <trkpt lat="48.3543490" lon="15.8872203">
        <ele>184.126</ele>
        <time>2019-05-05T11:10:56.856Z</time>
      </trkpt>
      <trkpt lat="48.3542712" lon="15.8873213">
        <ele>184.390</ele>
        <time>2019-05-05T11:10:59.189Z</time>
      </trkpt>
      <trkpt lat="48.3541871" lon="15.8874781">
        <ele>184.260</ele>
        <time>2019-05-05T11:11:02.252Z</time>
      </trkpt>
      <trkpt lat="48.3541304" lon="15.8875920">
        <ele>183.958</ele>
        <time>2019-05-05T11:11:04.360Z</time>
      </trkpt>
      <trkpt lat="48.3540304" lon="15.8877248">
        <ele>183.677</ele>
        <time>2019-05-05T11:11:07.234Z</time>
      </trkpt>
      <trkpt lat="48.3539627" lon="15.8878150">
        <ele>183.487</ele>
        <time>2019-05-05T11:11:09.130Z</time>
      </trkpt>
      <trkpt lat="48.3538858" lon="15.8879182">
        <ele>183.390</ele>
        <time>2019-05-05T11:11:11.260Z</time>
      </trkpt>
      <trkpt lat="48.3538035" lon="15.8880676">
        <ele>183.378</ele>
        <time>2019-05-05T11:11:13.949Z</time>
      </trkpt>
      <trkpt lat="48.3538279" lon="15.8882289">
        <ele>183.488</ele>
        <time>2019-05-05T11:11:16.549Z</time>
      </trkpt>
      <trkpt lat="48.3539065" lon="15.8883811">
        <ele>183.746</ele>
        <time>2019-05-05T11:11:20.009Z</time>
      </trkpt>
      <trkpt lat="48.3539652" lon="15.8885244">
        <ele>184.051</ele>
        <time>2019-05-05T11:11:22.999Z</time>
      </trkpt>
      <trkpt lat="48.3539652" lon="15.8885244">
        <ele>184.232</ele>
        <time>2019-05-05T11:11:22.999Z</time>
      </trkpt>
      <trkpt lat="48.3539652" lon="15.8885244">
        <ele>184.233</ele>
        <time>2019-05-05T11:11:23.398Z</time>
      </trkpt>
      <trkpt lat="48.3540458" lon="15.8887438">
        <ele>184.111</ele>
        <time>2019-05-05T11:11:28.482Z</time>
      </trkpt>
      <trkpt lat="48.3540701" lon="15.8888928">
        <ele>183.875</ele>
        <time>2019-05-05T11:11:30.542Z</time>
      </trkpt>
      <trkpt lat="48.3540510" lon="15.8890296">
        <ele>183.469</ele>
        <time>2019-05-05T11:11:32.535Z</time>
      </trkpt>
      <trkpt lat="48.3539748" lon="15.8891161">
        <ele>182.900</ele>
        <time>2019-05-05T11:11:34.606Z</time>
      </trkpt>
      <trkpt lat="48.3538970" lon="15.8892168">
        <ele>182.306</ele>
        <time>2019-05-05T11:11:36.844Z</time>
      </trkpt>
      <trkpt lat="48.3538342" lon="15.8893175">
        <ele>181.863</ele>
        <time>2019-05-05T11:11:38.982Z</time>
      </trkpt>
      <trkpt lat="48.3537447" lon="15.8894245">
        <ele>181.650</ele>
        <time>2019-05-05T11:11:41.620Z</time>
      </trkpt>
      <trkpt lat="48.3536502" lon="15.8895573">
        <ele>181.610</ele>
        <time>2019-05-05T11:11:44.436Z</time>
      </trkpt>
      <trkpt lat="48.3535904" lon="15.8896634">
        <ele>181.721</ele>
        <time>2019-05-05T11:11:46.309Z</time>
      </trkpt>
      <trkpt lat="48.3535429" lon="15.8897812">
        <ele>182.030</ele>
        <time>2019-05-05T11:11:48.111Z</time>
      </trkpt>
      <trkpt lat="48.3534714" lon="15.8898925">
        <ele>182.433</ele>
        <time>2019-05-05T11:11:50.139Z</time>
      </trkpt>
      <trkpt lat="48.3534240" lon="15.8900113">
        <ele>182.686</ele>
        <time>2019-05-05T11:11:52.050Z</time>
      </trkpt>
      <trkpt lat="48.3533375" lon="15.8901604">
        <ele>182.707</ele>
        <time>2019-05-05T11:11:54.974Z</time>
      </trkpt>
      <trkpt lat="48.3532592" lon="15.8902981">
        <ele>182.620</ele>
        <time>2019-05-05T11:11:57.841Z</time>
      </trkpt>
      <trkpt lat="48.3531883" lon="15.8903946">
        <ele>182.515</ele>
        <time>2019-05-05T11:11:59.977Z</time>
      </trkpt>
      <trkpt lat="48.3531133" lon="15.8905245">
        <ele>182.387</ele>
        <time>2019-05-05T11:12:02.306Z</time>
      </trkpt>
      <trkpt lat="48.3530459" lon="15.8906379">
        <ele>182.251</ele>
        <time>2019-05-05T11:12:04.279Z</time>
      </trkpt>
      <trkpt lat="48.3529863" lon="15.8907598">
        <ele>182.137</ele>
        <time>2019-05-05T11:12:06.206Z</time>
      </trkpt>
      <trkpt lat="48.3529246" lon="15.8908849">
        <ele>182.034</ele>
        <time>2019-05-05T11:12:08.182Z</time>
      </trkpt>
      <trkpt lat="48.3528613" lon="15.8910044">
        <ele>181.910</ele>
        <time>2019-05-05T11:12:10.146Z</time>
      </trkpt>
      <trkpt lat="48.3528117" lon="15.8911390">
        <ele>181.776</ele>
        <time>2019-05-05T11:12:12.216Z</time>
      </trkpt>
      <trkpt lat="48.3527159" lon="15.8912945">
        <ele>181.689</ele>
        <time>2019-05-05T11:12:15.122Z</time>
      </trkpt>
      <trkpt lat="48.3526449" lon="15.8914422">
        <ele>181.674</ele>
        <time>2019-05-05T11:12:17.465Z</time>
      </trkpt>
      <trkpt lat="48.3525731" lon="15.8915800">
        <ele>181.683</ele>
        <time>2019-05-05T11:12:19.676Z</time>
      </trkpt>
      <trkpt lat="48.3525274" lon="15.8917056">
        <ele>181.674</ele>
        <time>2019-05-05T11:12:21.588Z</time>
      </trkpt>
      <trkpt lat="48.3524675" lon="15.8918709">
        <ele>181.675</ele>
        <time>2019-05-05T11:12:24.137Z</time>
      </trkpt>
      <trkpt lat="48.3524328" lon="15.8920142">
        <ele>181.723</ele>
        <time>2019-05-05T11:12:26.213Z</time>
      </trkpt>
      <trkpt lat="48.3523961" lon="15.8921391">
        <ele>181.788</ele>
        <time>2019-05-05T11:12:28.072Z</time>
      </trkpt>
      <trkpt lat="48.3523521" lon="15.8922794">
        <ele>181.791</ele>
        <time>2019-05-05T11:12:30.142Z</time>
      </trkpt>
      <trkpt lat="48.3523112" lon="15.8924241">
        <ele>181.689</ele>
        <time>2019-05-05T11:12:32.189Z</time>
      </trkpt>
      <trkpt lat="48.3522653" lon="15.8925662">
        <ele>181.537</ele>
        <time>2019-05-05T11:12:34.240Z</time>
      </trkpt>
      <trkpt lat="48.3522238" lon="15.8927097">
        <ele>181.448</ele>
        <time>2019-05-05T11:12:36.265Z</time>
      </trkpt>
      <trkpt lat="48.3521888" lon="15.8928506">
        <ele>181.465</ele>
        <time>2019-05-05T11:12:38.164Z</time>
      </trkpt>
      <trkpt lat="48.3521563" lon="15.8930043">
        <ele>181.529</ele>
        <time>2019-05-05T11:12:40.141Z</time>
      </trkpt>
      <trkpt lat="48.3521263" lon="15.8931598">
        <ele>181.554</ele>
        <time>2019-05-05T11:12:42.092Z</time>
      </trkpt>
      <trkpt lat="48.3520939" lon="15.8933298">
        <ele>181.498</ele>
        <time>2019-05-05T11:12:44.244Z</time>
      </trkpt>
      <trkpt lat="48.3520681" lon="15.8934725">
        <ele>181.392</ele>
        <time>2019-05-05T11:12:46.132Z</time>
      </trkpt>
      <trkpt lat="48.3520320" lon="15.8936116">
        <ele>181.301</ele>
        <time>2019-05-05T11:12:48.131Z</time>
      </trkpt>
      <trkpt lat="48.3520073" lon="15.8937583">
        <ele>181.264</ele>
        <time>2019-05-05T11:12:50.140Z</time>
      </trkpt>
      <trkpt lat="48.3519800" lon="15.8939124">
        <ele>181.276</ele>
        <time>2019-05-05T11:12:52.119Z</time>
      </trkpt>
      <trkpt lat="48.3519457" lon="15.8940948">
        <ele>181.298</ele>
        <time>2019-05-05T11:12:54.380Z</time>
      </trkpt>
      <trkpt lat="48.3519160" lon="15.8942542">
        <ele>181.272</ele>
        <time>2019-05-05T11:12:56.392Z</time>
      </trkpt>
      <trkpt lat="48.3518953" lon="15.8944038">
        <ele>181.145</ele>
        <time>2019-05-05T11:12:58.311Z</time>
      </trkpt>
      <trkpt lat="48.3518571" lon="15.8945480">
        <ele>180.950</ele>
        <time>2019-05-05T11:13:00.348Z</time>
      </trkpt>
      <trkpt lat="48.3518266" lon="15.8946916">
        <ele>180.812</ele>
        <time>2019-05-05T11:13:02.325Z</time>
      </trkpt>
      <trkpt lat="48.3518027" lon="15.8948378">
        <ele>180.806</ele>
        <time>2019-05-05T11:13:04.214Z</time>
      </trkpt>
      <trkpt lat="48.3517669" lon="15.8949921">
        <ele>180.899</ele>
        <time>2019-05-05T11:13:06.225Z</time>
      </trkpt>
      <trkpt lat="48.3517314" lon="15.8951479">
        <ele>181.025</ele>
        <time>2019-05-05T11:13:08.220Z</time>
      </trkpt>
      <trkpt lat="48.3516946" lon="15.8953111">
        <ele>181.137</ele>
        <time>2019-05-05T11:13:10.250Z</time>
      </trkpt>
      <trkpt lat="48.3516480" lon="15.8954748">
        <ele>181.214</ele>
        <time>2019-05-05T11:13:12.356Z</time>
      </trkpt>
      <trkpt lat="48.3516226" lon="15.8956404">
        <ele>181.253</ele>
        <time>2019-05-05T11:13:14.503Z</time>
      </trkpt>
      <trkpt lat="48.3515973" lon="15.8957777">
        <ele>181.296</ele>
        <time>2019-05-05T11:13:16.443Z</time>
      </trkpt>
      <trkpt lat="48.3515665" lon="15.8959200">
        <ele>181.374</ele>
        <time>2019-05-05T11:13:18.591Z</time>
      </trkpt>
      <trkpt lat="48.3515515" lon="15.8960728">
        <ele>181.437</ele>
        <time>2019-05-05T11:13:20.954Z</time>
      </trkpt>
      <trkpt lat="48.3515363" lon="15.8962061">
        <ele>181.422</ele>
        <time>2019-05-05T11:13:23.186Z</time>
      </trkpt>
      <trkpt lat="48.3514793" lon="15.8963744">
        <ele>181.354</ele>
        <time>2019-05-05T11:13:26.439Z</time>
      </trkpt>
      <trkpt lat="48.3514340" lon="15.8965696">
        <ele>181.321</ele>
        <time>2019-05-05T11:13:29.828Z</time>
      </trkpt>
      <trkpt lat="48.3514113" lon="15.8967139">
        <ele>181.432</ele>
        <time>2019-05-05T11:13:32.049Z</time>
      </trkpt>
      <trkpt lat="48.3513793" lon="15.8968652">
        <ele>181.679</ele>
        <time>2019-05-05T11:13:34.316Z</time>
      </trkpt>
      <trkpt lat="48.3513567" lon="15.8970151">
        <ele>181.906</ele>
        <time>2019-05-05T11:13:36.444Z</time>
      </trkpt>
      <trkpt lat="48.3513219" lon="15.8972013">
        <ele>181.985</ele>
        <time>2019-05-05T11:13:39.219Z</time>
      </trkpt>
      <trkpt lat="48.3512955" lon="15.8973447">
        <ele>181.897</ele>
        <time>2019-05-05T11:13:41.377Z</time>
      </trkpt>
      <trkpt lat="48.3512479" lon="15.8974778">
        <ele>181.684</ele>
        <time>2019-05-05T11:13:43.413Z</time>
      </trkpt>
      <trkpt lat="48.3512082" lon="15.8976252">
        <ele>181.454</ele>
        <time>2019-05-05T11:13:45.453Z</time>
      </trkpt>
      <trkpt lat="48.3511687" lon="15.8977896">
        <ele>181.325</ele>
        <time>2019-05-05T11:13:47.655Z</time>
      </trkpt>
      <trkpt lat="48.3511378" lon="15.8979568">
        <ele>181.381</ele>
        <time>2019-05-05T11:13:49.886Z</time>
      </trkpt>
      <trkpt lat="48.3511088" lon="15.8981339">
        <ele>181.637</ele>
        <time>2019-05-05T11:13:52.297Z</time>
      </trkpt>
      <trkpt lat="48.3510768" lon="15.8982873">
        <ele>181.972</ele>
        <time>2019-05-05T11:13:54.450Z</time>
      </trkpt>
      <trkpt lat="48.3510487" lon="15.8984237">
        <ele>182.190</ele>
        <time>2019-05-05T11:13:56.478Z</time>
      </trkpt>
      <trkpt lat="48.3510213" lon="15.8985613">
        <ele>182.196</ele>
        <time>2019-05-05T11:13:58.623Z</time>
      </trkpt>
      <trkpt lat="48.3509880" lon="15.8987097">
        <ele>182.027</ele>
        <time>2019-05-05T11:14:01.150Z</time>
      </trkpt>
      <trkpt lat="48.3509378" lon="15.8988947">
        <ele>181.807</ele>
        <time>2019-05-05T11:14:04.405Z</time>
      </trkpt>
      <trkpt lat="48.3508908" lon="15.8990671">
        <ele>181.653</ele>
        <time>2019-05-05T11:14:07.253Z</time>
      </trkpt>
      <trkpt lat="48.3508480" lon="15.8991968">
        <ele>181.632</ele>
        <time>2019-05-05T11:14:09.258Z</time>
      </trkpt>
      <trkpt lat="48.3508054" lon="15.8993170">
        <ele>181.738</ele>
        <time>2019-05-05T11:14:11.053Z</time>
      </trkpt>
      <trkpt lat="48.3507671" lon="15.8994500">
        <ele>181.889</ele>
        <time>2019-05-05T11:14:12.995Z</time>
      </trkpt>
      <trkpt lat="48.3507362" lon="15.8996164">
        <ele>181.985</ele>
        <time>2019-05-05T11:14:15.318Z</time>
      </trkpt>
      <trkpt lat="48.3507025" lon="15.8997755">
        <ele>181.994</ele>
        <time>2019-05-05T11:14:17.515Z</time>
      </trkpt>
      <trkpt lat="48.3506645" lon="15.8999158">
        <ele>181.927</ele>
        <time>2019-05-05T11:14:19.441Z</time>
      </trkpt>
      <trkpt lat="48.3506277" lon="15.9000630">
        <ele>181.829</ele>
        <time>2019-05-05T11:14:21.353Z</time>
      </trkpt>
      <trkpt lat="48.3505882" lon="15.9002142">
        <ele>181.781</ele>
        <time>2019-05-05T11:14:23.276Z</time>
      </trkpt>
      <trkpt lat="48.3505456" lon="15.9003650">
        <ele>181.840</ele>
        <time>2019-05-05T11:14:25.190Z</time>
      </trkpt>
      <trkpt lat="48.3505022" lon="15.9005296">
        <ele>181.967</ele>
        <time>2019-05-05T11:14:27.254Z</time>
      </trkpt>
      <trkpt lat="48.3504569" lon="15.9006733">
        <ele>182.031</ele>
        <time>2019-05-05T11:14:29.096Z</time>
      </trkpt>
      <trkpt lat="48.3504140" lon="15.9008280">
        <ele>181.906</ele>
        <time>2019-05-05T11:14:31.038Z</time>
      </trkpt>
      <trkpt lat="48.3503707" lon="15.9009499">
        <ele>181.612</ele>
        <time>2019-05-05T11:14:32.614Z</time>
      </trkpt>
      <trkpt lat="48.3503141" lon="15.9011062">
        <ele>181.308</ele>
        <time>2019-05-05T11:14:34.652Z</time>
      </trkpt>
      <trkpt lat="48.3502709" lon="15.9012665">
        <ele>181.160</ele>
        <time>2019-05-05T11:14:36.710Z</time>
      </trkpt>
      <trkpt lat="48.3502196" lon="15.9014441">
        <ele>181.238</ele>
        <time>2019-05-05T11:14:39.031Z</time>
      </trkpt>
      <trkpt lat="48.3501793" lon="15.9016027">
        <ele>181.460</ele>
        <time>2019-05-05T11:14:40.970Z</time>
      </trkpt>
      <trkpt lat="48.3501307" lon="15.9017465">
        <ele>181.649</ele>
        <time>2019-05-05T11:14:42.733Z</time>
      </trkpt>
      <trkpt lat="48.3500821" lon="15.9019007">
        <ele>181.435</ele>
        <time>2019-05-05T11:14:44.564Z</time>
      </trkpt>
      <trkpt lat="48.3500503" lon="15.9020605">
        <ele>180.520</ele>
        <time>2019-05-05T11:14:46.370Z</time>
      </trkpt>
      <trkpt lat="48.3500201" lon="15.9022366">
        <ele>179.183</ele>
        <time>2019-05-05T11:14:48.424Z</time>
      </trkpt>
      <trkpt lat="48.3499806" lon="15.9024121">
        <ele>178.005</ele>
        <time>2019-05-05T11:14:50.600Z</time>
      </trkpt>
      <trkpt lat="48.3499422" lon="15.9025778">
        <ele>177.217</ele>
        <time>2019-05-05T11:14:52.663Z</time>
      </trkpt>
      <trkpt lat="48.3499224" lon="15.9027265">
        <ele>176.785</ele>
        <time>2019-05-05T11:14:54.378Z</time>
      </trkpt>
      <trkpt lat="48.3498845" lon="15.9028720">
        <ele>176.631</ele>
        <time>2019-05-05T11:14:56.068Z</time>
      </trkpt>
      <trkpt lat="48.3498606" lon="15.9030420">
        <ele>176.655</ele>
        <time>2019-05-05T11:14:57.931Z</time>
      </trkpt>
      <trkpt lat="48.3498336" lon="15.9032215">
        <ele>176.717</ele>
        <time>2019-05-05T11:14:59.964Z</time>
      </trkpt>
      <trkpt lat="48.3498066" lon="15.9034124">
        <ele>176.741</ele>
        <time>2019-05-05T11:15:02.169Z</time>
      </trkpt>
      <trkpt lat="48.3497821" lon="15.9035765">
        <ele>176.735</ele>
        <time>2019-05-05T11:15:04.057Z</time>
      </trkpt>
      <trkpt lat="48.3497609" lon="15.9037352">
        <ele>176.747</ele>
        <time>2019-05-05T11:15:05.878Z</time>
      </trkpt>
      <trkpt lat="48.3497380" lon="15.9038875">
        <ele>176.803</ele>
        <time>2019-05-05T11:15:07.667Z</time>
      </trkpt>
      <trkpt lat="48.3497155" lon="15.9040498">
        <ele>176.922</ele>
        <time>2019-05-05T11:15:09.640Z</time>
      </trkpt>
      <trkpt lat="48.3496713" lon="15.9042007">
        <ele>177.115</ele>
        <time>2019-05-05T11:15:11.696Z</time>
      </trkpt>
      <trkpt lat="48.3496420" lon="15.9043413">
        <ele>177.400</ele>
        <time>2019-05-05T11:15:13.585Z</time>
      </trkpt>
      <trkpt lat="48.3496052" lon="15.9044791">
        <ele>177.822</ele>
        <time>2019-05-05T11:15:15.566Z</time>
      </trkpt>
      <trkpt lat="48.3495700" lon="15.9046379">
        <ele>178.504</ele>
        <time>2019-05-05T11:15:17.973Z</time>
      </trkpt>
      <trkpt lat="48.3495456" lon="15.9047767">
        <ele>179.411</ele>
        <time>2019-05-05T11:15:20.584Z</time>
      </trkpt>
      <trkpt lat="48.3495012" lon="15.9049435">
        <ele>180.208</ele>
        <time>2019-05-05T11:15:24.207Z</time>
      </trkpt>
      <trkpt lat="48.3494597" lon="15.9050715">
        <ele>180.729</ele>
        <time>2019-05-05T11:15:26.729Z</time>
      </trkpt>
      <trkpt lat="48.3494141" lon="15.9052057">
        <ele>181.115</ele>
        <time>2019-05-05T11:15:28.930Z</time>
      </trkpt>
      <trkpt lat="48.3493620" lon="15.9053900">
        <ele>181.357</ele>
        <time>2019-05-05T11:15:31.522Z</time>
      </trkpt>
      <trkpt lat="48.3493268" lon="15.9055291">
        <ele>181.381</ele>
        <time>2019-05-05T11:15:33.406Z</time>
      </trkpt>
      <trkpt lat="48.3492780" lon="15.9056765">
        <ele>181.263</ele>
        <time>2019-05-05T11:15:35.427Z</time>
      </trkpt>
      <trkpt lat="48.3492312" lon="15.9058178">
        <ele>181.125</ele>
        <time>2019-05-05T11:15:37.310Z</time>
      </trkpt>
      <trkpt lat="48.3491854" lon="15.9059631">
        <ele>181.060</ele>
        <time>2019-05-05T11:15:39.166Z</time>
      </trkpt>
      <trkpt lat="48.3491368" lon="15.9061297">
        <ele>181.077</ele>
        <time>2019-05-05T11:15:41.249Z</time>
      </trkpt>
      <trkpt lat="48.3490855" lon="15.9062949">
        <ele>181.115</ele>
        <time>2019-05-05T11:15:43.328Z</time>
      </trkpt>
      <trkpt lat="48.3490619" lon="15.9064381">
        <ele>181.099</ele>
        <time>2019-05-05T11:15:44.974Z</time>
      </trkpt>
      <trkpt lat="48.3490244" lon="15.9065890">
        <ele>181.017</ele>
        <time>2019-05-05T11:15:46.798Z</time>
      </trkpt>
      <trkpt lat="48.3489798" lon="15.9067558">
        <ele>180.923</ele>
        <time>2019-05-05T11:15:48.911Z</time>
      </trkpt>
      <trkpt lat="48.3489306" lon="15.9069033">
        <ele>180.909</ele>
        <time>2019-05-05T11:15:50.865Z</time>
      </trkpt>
      <trkpt lat="48.3488838" lon="15.9070511">
        <ele>181.023</ele>
        <time>2019-05-05T11:15:52.817Z</time>
      </trkpt>
      <trkpt lat="48.3488369" lon="15.9072135">
        <ele>181.202</ele>
        <time>2019-05-05T11:15:55.006Z</time>
      </trkpt>
      <trkpt lat="48.3488060" lon="15.9073595">
        <ele>181.326</ele>
        <time>2019-05-05T11:15:56.970Z</time>
      </trkpt>
      <trkpt lat="48.3487460" lon="15.9074916">
        <ele>181.334</ele>
        <time>2019-05-05T11:15:58.997Z</time>
      </trkpt>
      <trkpt lat="48.3486897" lon="15.9076187">
        <ele>181.253</ele>
        <time>2019-05-05T11:16:00.890Z</time>
      </trkpt>
      <trkpt lat="48.3486326" lon="15.9077426">
        <ele>181.176</ele>
        <time>2019-05-05T11:16:02.726Z</time>
      </trkpt>
      <trkpt lat="48.3485774" lon="15.9078742">
        <ele>181.189</ele>
        <time>2019-05-05T11:16:04.606Z</time>
      </trkpt>
      <trkpt lat="48.3485207" lon="15.9080078">
        <ele>181.283</ele>
        <time>2019-05-05T11:16:06.514Z</time>
      </trkpt>
      <trkpt lat="48.3484723" lon="15.9081354">
        <ele>181.363</ele>
        <time>2019-05-05T11:16:08.272Z</time>
      </trkpt>
      <trkpt lat="48.3484171" lon="15.9082803">
        <ele>181.357</ele>
        <time>2019-05-05T11:16:10.287Z</time>
      </trkpt>
      <trkpt lat="48.3483619" lon="15.9084144">
        <ele>181.293</ele>
        <time>2019-05-05T11:16:12.204Z</time>
      </trkpt>
      <trkpt lat="48.3483110" lon="15.9085471">
        <ele>181.292</ele>
        <time>2019-05-05T11:16:14.045Z</time>
      </trkpt>
      <trkpt lat="48.3482569" lon="15.9086693">
        <ele>181.411</ele>
        <time>2019-05-05T11:16:15.771Z</time>
      </trkpt>
      <trkpt lat="48.3482000" lon="15.9088107">
        <ele>181.517</ele>
        <time>2019-05-05T11:16:17.647Z</time>
      </trkpt>
      <trkpt lat="48.3481428" lon="15.9089557">
        <ele>181.483</ele>
        <time>2019-05-05T11:16:19.461Z</time>
      </trkpt>
      <trkpt lat="48.3480764" lon="15.9091125">
        <ele>181.374</ele>
        <time>2019-05-05T11:16:21.365Z</time>
      </trkpt>
      <trkpt lat="48.3480190" lon="15.9092604">
        <ele>181.322</ele>
        <time>2019-05-05T11:16:23.076Z</time>
      </trkpt>
      <trkpt lat="48.3479600" lon="15.9094245">
        <ele>181.365</ele>
        <time>2019-05-05T11:16:24.903Z</time>
      </trkpt>
      <trkpt lat="48.3478914" lon="15.9095785">
        <ele>181.413</ele>
        <time>2019-05-05T11:16:26.705Z</time>
      </trkpt>
      <trkpt lat="48.3478221" lon="15.9097299">
        <ele>181.366</ele>
        <time>2019-05-05T11:16:28.496Z</time>
      </trkpt>
      <trkpt lat="48.3477431" lon="15.9098817">
        <ele>181.254</ele>
        <time>2019-05-05T11:16:30.377Z</time>
      </trkpt>
      <trkpt lat="48.3476690" lon="15.9100383">
        <ele>181.164</ele>
        <time>2019-05-05T11:16:32.251Z</time>
      </trkpt>
      <trkpt lat="48.3476001" lon="15.9102116">
        <ele>181.108</ele>
        <time>2019-05-05T11:16:34.229Z</time>
      </trkpt>
      <trkpt lat="48.3475347" lon="15.9103671">
        <ele>181.053</ele>
        <time>2019-05-05T11:16:36.058Z</time>
      </trkpt>
      <trkpt lat="48.3474702" lon="15.9105249">
        <ele>181.070</ele>
        <time>2019-05-05T11:16:37.930Z</time>
      </trkpt>
      <trkpt lat="48.3474067" lon="15.9106733">
        <ele>181.265</ele>
        <time>2019-05-05T11:16:39.742Z</time>
      </trkpt>
      <trkpt lat="48.3473554" lon="15.9108225">
        <ele>181.559</ele>
        <time>2019-05-05T11:16:41.504Z</time>
      </trkpt>
      <trkpt lat="48.3473077" lon="15.9109673">
        <ele>181.767</ele>
        <time>2019-05-05T11:16:43.261Z</time>
      </trkpt>
      <trkpt lat="48.3472512" lon="15.9111123">
        <ele>181.827</ele>
        <time>2019-05-05T11:16:45.145Z</time>
      </trkpt>
      <trkpt lat="48.3472126" lon="15.9112633">
        <ele>181.828</ele>
        <time>2019-05-05T11:16:46.978Z</time>
      </trkpt>
      <trkpt lat="48.3471692" lon="15.9114656">
        <ele>181.862</ele>
        <time>2019-05-05T11:16:49.444Z</time>
      </trkpt>
      <trkpt lat="48.3471034" lon="15.9115977">
        <ele>181.926</ele>
        <time>2019-05-05T11:16:51.360Z</time>
      </trkpt>
      <trkpt lat="48.3470299" lon="15.9117382">
        <ele>181.944</ele>
        <time>2019-05-05T11:16:53.405Z</time>
      </trkpt>
      <trkpt lat="48.3469570" lon="15.9119106">
        <ele>181.885</ele>
        <time>2019-05-05T11:16:55.661Z</time>
      </trkpt>
      <trkpt lat="48.3469394" lon="15.9120626">
        <ele>181.836</ele>
        <time>2019-05-05T11:16:57.329Z</time>
      </trkpt>
      <trkpt lat="48.3469494" lon="15.9122744">
        <ele>181.926</ele>
        <time>2019-05-05T11:16:59.615Z</time>
      </trkpt>
      <trkpt lat="48.3469726" lon="15.9124605">
        <ele>182.161</ele>
        <time>2019-05-05T11:17:01.610Z</time>
      </trkpt>
      <trkpt lat="48.3469957" lon="15.9126071">
        <ele>182.411</ele>
        <time>2019-05-05T11:17:03.206Z</time>
      </trkpt>
      <trkpt lat="48.3469939" lon="15.9127744">
        <ele>182.525</ele>
        <time>2019-05-05T11:17:05.112Z</time>
      </trkpt>
      <trkpt lat="48.3469748" lon="15.9129092">
        <ele>182.403</ele>
        <time>2019-05-05T11:17:06.764Z</time>
      </trkpt>
      <trkpt lat="48.3469530" lon="15.9131083">
        <ele>182.069</ele>
        <time>2019-05-05T11:17:09.274Z</time>
      </trkpt>
      <trkpt lat="48.3469260" lon="15.9132862">
        <ele>181.714</ele>
        <time>2019-05-05T11:17:11.310Z</time>
      </trkpt>
      <trkpt lat="48.3469074" lon="15.9134776">
        <ele>181.519</ele>
        <time>2019-05-05T11:17:13.418Z</time>
      </trkpt>
      <trkpt lat="48.3468951" lon="15.9136297">
        <ele>181.511</ele>
        <time>2019-05-05T11:17:15.223Z</time>
      </trkpt>
      <trkpt lat="48.3468689" lon="15.9138055">
        <ele>181.605</ele>
        <time>2019-05-05T11:17:17.458Z</time>
      </trkpt>
      <trkpt lat="48.3468402" lon="15.9139838">
        <ele>181.699</ele>
        <time>2019-05-05T11:17:19.796Z</time>
      </trkpt>
      <trkpt lat="48.3468107" lon="15.9141385">
        <ele>181.714</ele>
        <time>2019-05-05T11:17:21.731Z</time>
      </trkpt>
      <trkpt lat="48.3467975" lon="15.9143112">
        <ele>181.644</ele>
        <time>2019-05-05T11:17:23.772Z</time>
      </trkpt>
      <trkpt lat="48.3467645" lon="15.9144693">
        <ele>181.555</ele>
        <time>2019-05-05T11:17:25.748Z</time>
      </trkpt>
      <trkpt lat="48.3467318" lon="15.9146373">
        <ele>181.512</ele>
        <time>2019-05-05T11:17:27.864Z</time>
      </trkpt>
      <trkpt lat="48.3467097" lon="15.9147775">
        <ele>181.541</ele>
        <time>2019-05-05T11:17:29.592Z</time>
      </trkpt>
      <trkpt lat="48.3466824" lon="15.9149294">
        <ele>181.705</ele>
        <time>2019-05-05T11:17:31.483Z</time>
      </trkpt>
      <trkpt lat="48.3466744" lon="15.9151124">
        <ele>182.061</ele>
        <time>2019-05-05T11:17:33.778Z</time>
      </trkpt>
      <trkpt lat="48.3466465" lon="15.9152671">
        <ele>182.539</ele>
        <time>2019-05-05T11:17:36.013Z</time>
      </trkpt>
      <trkpt lat="48.3465947" lon="15.9154229">
        <ele>182.954</ele>
        <time>2019-05-05T11:17:38.629Z</time>
      </trkpt>
      <trkpt lat="48.3465796" lon="15.9156629">
        <ele>183.146</ele>
        <time>2019-05-05T11:17:42.093Z</time>
      </trkpt>
      <trkpt lat="48.3465803" lon="15.9157993">
        <ele>183.118</ele>
        <time>2019-05-05T11:17:44.024Z</time>
      </trkpt>
      <trkpt lat="48.3466026" lon="15.9159468">
        <ele>182.985</ele>
        <time>2019-05-05T11:17:46.195Z</time>
      </trkpt>
      <trkpt lat="48.3466084" lon="15.9161100">
        <ele>182.796</ele>
        <time>2019-05-05T11:17:48.670Z</time>
      </trkpt>
      <trkpt lat="48.3465969" lon="15.9162680">
        <ele>182.548</ele>
        <time>2019-05-05T11:17:51.219Z</time>
      </trkpt>
      <trkpt lat="48.3465704" lon="15.9164460">
        <ele>182.293</ele>
        <time>2019-05-05T11:17:54.238Z</time>
      </trkpt>
      <trkpt lat="48.3465728" lon="15.9165881">
        <ele>182.077</ele>
        <time>2019-05-05T11:17:56.431Z</time>
      </trkpt>
      <trkpt lat="48.3465620" lon="15.9167766">
        <ele>181.880</ele>
        <time>2019-05-05T11:17:59.193Z</time>
      </trkpt>
      <trkpt lat="48.3465282" lon="15.9169478">
        <ele>181.660</ele>
        <time>2019-05-05T11:18:01.951Z</time>
      </trkpt>
      <trkpt lat="48.3465051" lon="15.9171214">
        <ele>181.437</ele>
        <time>2019-05-05T11:18:04.499Z</time>
      </trkpt>
      <trkpt lat="48.3464633" lon="15.9172875">
        <ele>181.319</ele>
        <time>2019-05-05T11:18:06.777Z</time>
      </trkpt>
      <trkpt lat="48.3464335" lon="15.9174472">
        <ele>181.370</ele>
        <time>2019-05-05T11:18:08.910Z</time>
      </trkpt>
      <trkpt lat="48.3464250" lon="15.9175826">
        <ele>181.530</ele>
        <time>2019-05-05T11:18:10.760Z</time>
      </trkpt>
      <trkpt lat="48.3464148" lon="15.9177551">
        <ele>181.737</ele>
        <time>2019-05-05T11:18:13.402Z</time>
      </trkpt>
      <trkpt lat="48.3464018" lon="15.9178978">
        <ele>181.965</ele>
        <time>2019-05-05T11:18:15.803Z</time>
      </trkpt>
      <trkpt lat="48.3463836" lon="15.9180405">
        <ele>182.178</ele>
        <time>2019-05-05T11:18:18.345Z</time>
      </trkpt>
      <trkpt lat="48.3463554" lon="15.9181761">
        <ele>182.348</ele>
        <time>2019-05-05T11:18:20.651Z</time>
      </trkpt>
      <trkpt lat="48.3462818" lon="15.9183517">
        <ele>182.477</ele>
        <time>2019-05-05T11:18:23.741Z</time>
      </trkpt>
      <trkpt lat="48.3462299" lon="15.9185096">
        <ele>182.594</ele>
        <time>2019-05-05T11:18:26.238Z</time>
      </trkpt>
      <trkpt lat="48.3461997" lon="15.9186627">
        <ele>182.718</ele>
        <time>2019-05-05T11:18:28.478Z</time>
      </trkpt>
      <trkpt lat="48.3461681" lon="15.9188187">
        <ele>182.833</ele>
        <time>2019-05-05T11:18:30.783Z</time>
      </trkpt>
      <trkpt lat="48.3461342" lon="15.9189475">
        <ele>182.914</ele>
        <time>2019-05-05T11:18:32.740Z</time>
      </trkpt>
      <trkpt lat="48.3460748" lon="15.9190601">
        <ele>182.974</ele>
        <time>2019-05-05T11:18:34.794Z</time>
      </trkpt>
      <trkpt lat="48.3460299" lon="15.9192335">
        <ele>183.068</ele>
        <time>2019-05-05T11:18:37.430Z</time>
      </trkpt>
      <trkpt lat="48.3460041" lon="15.9194065">
        <ele>183.223</ele>
        <time>2019-05-05T11:18:39.765Z</time>
      </trkpt>
      <trkpt lat="48.3459740" lon="15.9195700">
        <ele>183.376</ele>
        <time>2019-05-05T11:18:41.848Z</time>
      </trkpt>
      <trkpt lat="48.3459366" lon="15.9197635">
        <ele>183.432</ele>
        <time>2019-05-05T11:18:44.289Z</time>
      </trkpt>
      <trkpt lat="48.3458982" lon="15.9199184">
        <ele>183.377</ele>
        <time>2019-05-05T11:18:46.345Z</time>
      </trkpt>
      <trkpt lat="48.3458544" lon="15.9200594">
        <ele>183.286</ele>
        <time>2019-05-05T11:18:48.292Z</time>
      </trkpt>
      <trkpt lat="48.3457926" lon="15.9202465">
        <ele>183.239</ele>
        <time>2019-05-05T11:18:50.883Z</time>
      </trkpt>
      <trkpt lat="48.3457564" lon="15.9204230">
        <ele>183.276</ele>
        <time>2019-05-05T11:18:53.189Z</time>
      </trkpt>
      <trkpt lat="48.3457264" lon="15.9205767">
        <ele>183.399</ele>
        <time>2019-05-05T11:18:55.237Z</time>
      </trkpt>
      <trkpt lat="48.3456938" lon="15.9207226">
        <ele>183.535</ele>
        <time>2019-05-05T11:18:57.265Z</time>
      </trkpt>
      <trkpt lat="48.3456293" lon="15.9208924">
        <ele>183.609</ele>
        <time>2019-05-05T11:18:59.903Z</time>
      </trkpt>
      <trkpt lat="48.3455877" lon="15.9210307">
        <ele>183.590</ele>
        <time>2019-05-05T11:19:02.008Z</time>
      </trkpt>
      <trkpt lat="48.3455466" lon="15.9211708">
        <ele>183.502</ele>
        <time>2019-05-05T11:19:04.108Z</time>
      </trkpt>
      <trkpt lat="48.3454971" lon="15.9213258">
        <ele>183.428</ele>
        <time>2019-05-05T11:19:06.352Z</time>
      </trkpt>
      <trkpt lat="48.3454879" lon="15.9214700">
        <ele>183.423</ele>
        <time>2019-05-05T11:19:08.156Z</time>
      </trkpt>
      <trkpt lat="48.3454825" lon="15.9216576">
        <ele>183.454</ele>
        <time>2019-05-05T11:19:10.525Z</time>
      </trkpt>
      <trkpt lat="48.3454319" lon="15.9218367">
        <ele>183.474</ele>
        <time>2019-05-05T11:19:13.083Z</time>
      </trkpt>
      <trkpt lat="48.3453773" lon="15.9219906">
        <ele>183.443</ele>
        <time>2019-05-05T11:19:15.490Z</time>
      </trkpt>
      <trkpt lat="48.3453323" lon="15.9221173">
        <ele>183.288</ele>
        <time>2019-05-05T11:19:17.465Z</time>
      </trkpt>
      <trkpt lat="48.3452926" lon="15.9223162">
        <ele>183.016</ele>
        <time>2019-05-05T11:19:20.221Z</time>
      </trkpt>
      <trkpt lat="48.3452611" lon="15.9224864">
        <ele>182.782</ele>
        <time>2019-05-05T11:19:22.461Z</time>
      </trkpt>
      <trkpt lat="48.3452362" lon="15.9226386">
        <ele>182.719</ele>
        <time>2019-05-05T11:19:24.449Z</time>
      </trkpt>
      <trkpt lat="48.3452246" lon="15.9227921">
        <ele>182.850</ele>
        <time>2019-05-05T11:19:26.449Z</time>
      </trkpt>
      <trkpt lat="48.3452189" lon="15.9229556">
        <ele>183.094</ele>
        <time>2019-05-05T11:19:28.546Z</time>
      </trkpt>
      <trkpt lat="48.3451804" lon="15.9231575">
        <ele>183.294</ele>
        <time>2019-05-05T11:19:31.190Z</time>
      </trkpt>
      <trkpt lat="48.3451514" lon="15.9233118">
        <ele>183.317</ele>
        <time>2019-05-05T11:19:33.184Z</time>
      </trkpt>
      <trkpt lat="48.3451292" lon="15.9234797">
        <ele>183.144</ele>
        <time>2019-05-05T11:19:35.366Z</time>
      </trkpt>
      <trkpt lat="48.3450703" lon="15.9236255">
        <ele>182.896</ele>
        <time>2019-05-05T11:19:37.804Z</time>
      </trkpt>
      <trkpt lat="48.3450321" lon="15.9237709">
        <ele>182.685</ele>
        <time>2019-05-05T11:19:40.615Z</time>
      </trkpt>
      <trkpt lat="48.3449821" lon="15.9238882">
        <ele>182.529</ele>
        <time>2019-05-05T11:19:43.538Z</time>
      </trkpt>
      <trkpt lat="48.3448819" lon="15.9238579">
        <ele>182.459</ele>
        <time>2019-05-05T11:19:46.742Z</time>
      </trkpt>
      <trkpt lat="48.3448107" lon="15.9237597">
        <ele>182.490</ele>
        <time>2019-05-05T11:19:49.699Z</time>
      </trkpt>
      <trkpt lat="48.3447138" lon="15.9237812">
        <ele>182.573</ele>
        <time>2019-05-05T11:19:52.699Z</time>
      </trkpt>
      <trkpt lat="48.3445530" lon="15.9236523">
        <ele>182.643</ele>
        <time>2019-05-05T11:19:58.903Z</time>
      </trkpt>
      <trkpt lat="48.3444596" lon="15.9235610">
        <ele>182.629</ele>
        <time>2019-05-05T11:20:02.493Z</time>
      </trkpt>
      <trkpt lat="48.3443548" lon="15.9235315">
        <ele>182.469</ele>
        <time>2019-05-05T11:20:05.493Z</time>
      </trkpt>
      <trkpt lat="48.3442681" lon="15.9234924">
        <ele>182.184</ele>
        <time>2019-05-05T11:20:08.184Z</time>
      </trkpt>
      <trkpt lat="48.3441720" lon="15.9234601">
        <ele>181.893</ele>
        <time>2019-05-05T11:20:11.310Z</time>
      </trkpt>
      <trkpt lat="48.3440830" lon="15.9235013">
        <ele>181.705</ele>
        <time>2019-05-05T11:20:14.291Z</time>
      </trkpt>
      <trkpt lat="48.3440414" lon="15.9236452">
        <ele>181.626</ele>
        <time>2019-05-05T11:20:18.434Z</time>
      </trkpt>
      <trkpt lat="48.3439871" lon="15.9237892">
        <ele>181.567</ele>
        <time>2019-05-05T11:20:23.164Z</time>
      </trkpt>
      <trkpt lat="48.3439221" lon="15.9239452">
        <ele>181.476</ele>
        <time>2019-05-05T11:20:27.990Z</time>
      </trkpt>
      <trkpt lat="48.3439051" lon="15.9241235">
        <ele>181.420</ele>
        <time>2019-05-05T11:20:32.313Z</time>
      </trkpt>
      <trkpt lat="48.3438458" lon="15.9242956">
        <ele>181.461</ele>
        <time>2019-05-05T11:20:35.926Z</time>
      </trkpt>
      <trkpt lat="48.3437909" lon="15.9244626">
        <ele>181.559</ele>
        <time>2019-05-05T11:20:38.892Z</time>
      </trkpt>
      <trkpt lat="48.3437606" lon="15.9246011">
        <ele>181.639</ele>
        <time>2019-05-05T11:20:41.083Z</time>
      </trkpt>
      <trkpt lat="48.3437089" lon="15.9247414">
        <ele>181.675</ele>
        <time>2019-05-05T11:20:43.498Z</time>
      </trkpt>
      <trkpt lat="48.3436807" lon="15.9248763">
        <ele>181.681</ele>
        <time>2019-05-05T11:20:45.628Z</time>
      </trkpt>
      <trkpt lat="48.3436460" lon="15.9250043">
        <ele>181.675</ele>
        <time>2019-05-05T11:20:47.678Z</time>
      </trkpt>
      <trkpt lat="48.3436099" lon="15.9251504">
        <ele>181.669</ele>
        <time>2019-05-05T11:20:49.943Z</time>
      </trkpt>
      <trkpt lat="48.3435608" lon="15.9252711">
        <ele>181.679</ele>
        <time>2019-05-05T11:20:51.998Z</time>
      </trkpt>
      <trkpt lat="48.3435395" lon="15.9254170">
        <ele>181.758</ele>
        <time>2019-05-05T11:20:54.198Z</time>
      </trkpt>
      <trkpt lat="48.3434998" lon="15.9255584">
        <ele>181.959</ele>
        <time>2019-05-05T11:20:56.463Z</time>
      </trkpt>
      <trkpt lat="48.3434691" lon="15.9257296">
        <ele>182.240</ele>
        <time>2019-05-05T11:20:59.033Z</time>
      </trkpt>
      <trkpt lat="48.3434187" lon="15.9258736">
        <ele>182.486</ele>
        <time>2019-05-05T11:21:01.356Z</time>
      </trkpt>
      <trkpt lat="48.3433451" lon="15.9259956">
        <ele>182.628</ele>
        <time>2019-05-05T11:21:03.701Z</time>
      </trkpt>
      <trkpt lat="48.3432790" lon="15.9260926">
        <ele>182.680</ele>
        <time>2019-05-05T11:21:05.784Z</time>
      </trkpt>
      <trkpt lat="48.3431998" lon="15.9262528">
        <ele>182.684</ele>
        <time>2019-05-05T11:21:08.895Z</time>
      </trkpt>
      <trkpt lat="48.3431061" lon="15.9263217">
        <ele>182.675</ele>
        <time>2019-05-05T11:21:11.344Z</time>
      </trkpt>
      <trkpt lat="48.3430063" lon="15.9264036">
        <ele>182.668</ele>
        <time>2019-05-05T11:21:13.825Z</time>
      </trkpt>
      <trkpt lat="48.3429195" lon="15.9265108">
        <ele>182.665</ele>
        <time>2019-05-05T11:21:16.071Z</time>
      </trkpt>
      <trkpt lat="48.3428081" lon="15.9266401">
        <ele>182.688</ele>
        <time>2019-05-05T11:21:18.710Z</time>
      </trkpt>
      <trkpt lat="48.3427081" lon="15.9267349">
        <ele>182.786</ele>
        <time>2019-05-05T11:21:20.865Z</time>
      </trkpt>
      <trkpt lat="48.3426247" lon="15.9268259">
        <ele>182.942</ele>
        <time>2019-05-05T11:21:22.720Z</time>
      </trkpt>
      <trkpt lat="48.3425477" lon="15.9269707">
        <ele>183.110</ele>
        <time>2019-05-05T11:21:24.942Z</time>
      </trkpt>
      <trkpt lat="48.3424720" lon="15.9270919">
        <ele>183.301</ele>
        <time>2019-05-05T11:21:26.957Z</time>
      </trkpt>
      <trkpt lat="48.3423932" lon="15.9271690">
        <ele>183.498</ele>
        <time>2019-05-05T11:21:28.750Z</time>
      </trkpt>
      <trkpt lat="48.3423084" lon="15.9272725">
        <ele>183.648</ele>
        <time>2019-05-05T11:21:30.901Z</time>
      </trkpt>
      <trkpt lat="48.3422108" lon="15.9273433">
        <ele>183.771</ele>
        <time>2019-05-05T11:21:33.159Z</time>
      </trkpt>
      <trkpt lat="48.3421316" lon="15.9274445">
        <ele>183.948</ele>
        <time>2019-05-05T11:21:35.655Z</time>
      </trkpt>
      <trkpt lat="48.3420715" lon="15.9275564">
        <ele>184.203</ele>
        <time>2019-05-05T11:21:38.172Z</time>
      </trkpt>
      <trkpt lat="48.3420232" lon="15.9276861">
        <ele>184.461</ele>
        <time>2019-05-05T11:21:41.181Z</time>
      </trkpt>
      <trkpt lat="48.3419817" lon="15.9278443">
        <ele>184.628</ele>
        <time>2019-05-05T11:21:44.699Z</time>
      </trkpt>
      <trkpt lat="48.3419530" lon="15.9279931">
        <ele>182.388</ele>
        <time>2019-05-05T11:21:47.665Z</time>
      </trkpt>
      <trkpt lat="48.3419143" lon="15.9281318">
        <ele>175.039</ele>
        <time>2019-05-05T11:21:50.485Z</time>
      </trkpt>
      <trkpt lat="48.3418784" lon="15.9283076">
        <ele>165.339</ele>
        <time>2019-05-05T11:21:53.780Z</time>
      </trkpt>
      <trkpt lat="48.3418287" lon="15.9284657">
        <ele>161.938</ele>
        <time>2019-05-05T11:21:56.579Z</time>
      </trkpt>
      <trkpt lat="48.3418016" lon="15.9286282">
        <ele>168.490</ele>
        <time>2019-05-05T11:21:59.056Z</time>
      </trkpt>
      <trkpt lat="48.3417643" lon="15.9287687">
        <ele>178.472</ele>
        <time>2019-05-05T11:22:01.210Z</time>
      </trkpt>
      <trkpt lat="48.3417073" lon="15.9288978">
        <ele>184.616</ele>
        <time>2019-05-05T11:22:03.405Z</time>
      </trkpt>
      <trkpt lat="48.3416564" lon="15.9290565">
        <ele>186.394</ele>
        <time>2019-05-05T11:22:05.933Z</time>
      </trkpt>
      <trkpt lat="48.3416112" lon="15.9291780">
        <ele>185.979</ele>
        <time>2019-05-05T11:22:07.936Z</time>
      </trkpt>
      <trkpt lat="48.3415670" lon="15.9293083">
        <ele>185.159</ele>
        <time>2019-05-05T11:22:10.016Z</time>
      </trkpt>
      <trkpt lat="48.3415145" lon="15.9294410">
        <ele>184.659</ele>
        <time>2019-05-05T11:22:12.184Z</time>
      </trkpt>
      <trkpt lat="48.3414691" lon="15.9295775">
        <ele>184.518</ele>
        <time>2019-05-05T11:22:14.323Z</time>
      </trkpt>
      <trkpt lat="48.3414006" lon="15.9296959">
        <ele>184.551</ele>
        <time>2019-05-05T11:22:16.529Z</time>
      </trkpt>
      <trkpt lat="48.3413549" lon="15.9298846">
        <ele>184.609</ele>
        <time>2019-05-05T11:22:19.358Z</time>
      </trkpt>
      <trkpt lat="48.3413133" lon="15.9300120">
        <ele>184.638</ele>
        <time>2019-05-05T11:22:21.353Z</time>
      </trkpt>
      <trkpt lat="48.3412840" lon="15.9301566">
        <ele>184.642</ele>
        <time>2019-05-05T11:22:23.476Z</time>
      </trkpt>
      <trkpt lat="48.3412445" lon="15.9302938">
        <ele>184.630</ele>
        <time>2019-05-05T11:22:25.566Z</time>
      </trkpt>
      <trkpt lat="48.3412052" lon="15.9304348">
        <ele>184.580</ele>
        <time>2019-05-05T11:22:27.675Z</time>
      </trkpt>
      <trkpt lat="48.3411574" lon="15.9305633">
        <ele>184.467</ele>
        <time>2019-05-05T11:22:29.660Z</time>
      </trkpt>
      <trkpt lat="48.3411221" lon="15.9307128">
        <ele>184.297</ele>
        <time>2019-05-05T11:22:31.775Z</time>
      </trkpt>
      <trkpt lat="48.3410684" lon="15.9308638">
        <ele>184.098</ele>
        <time>2019-05-05T11:22:34.139Z</time>
      </trkpt>
      <trkpt lat="48.3410190" lon="15.9309898">
        <ele>183.915</ele>
        <time>2019-05-05T11:22:36.258Z</time>
      </trkpt>
      <trkpt lat="48.3409844" lon="15.9311559">
        <ele>183.807</ele>
        <time>2019-05-05T11:22:38.909Z</time>
      </trkpt>
      <trkpt lat="48.3409366" lon="15.9313288">
        <ele>183.804</ele>
        <time>2019-05-05T11:22:41.898Z</time>
      </trkpt>
      <trkpt lat="48.3408961" lon="15.9314876">
        <ele>183.876</ele>
        <time>2019-05-05T11:22:44.589Z</time>
      </trkpt>
      <trkpt lat="48.3408637" lon="15.9316278">
        <ele>183.923</ele>
        <time>2019-05-05T11:22:46.815Z</time>
      </trkpt>
      <trkpt lat="48.3408332" lon="15.9317738">
        <ele>183.865</ele>
        <time>2019-05-05T11:22:49.072Z</time>
      </trkpt>
      <trkpt lat="48.3407905" lon="15.9319282">
        <ele>183.748</ele>
        <time>2019-05-05T11:22:51.571Z</time>
      </trkpt>
      <trkpt lat="48.3407313" lon="15.9320748">
        <ele>183.663</ele>
        <time>2019-05-05T11:22:54.068Z</time>
      </trkpt>
      <trkpt lat="48.3406989" lon="15.9322246">
        <ele>183.656</ele>
        <time>2019-05-05T11:22:56.155Z</time>
      </trkpt>
      <trkpt lat="48.3406543" lon="15.9324305">
        <ele>183.714</ele>
        <time>2019-05-05T11:22:58.806Z</time>
      </trkpt>
      <trkpt lat="48.3406307" lon="15.9326163">
        <ele>183.769</ele>
        <time>2019-05-05T11:23:01.033Z</time>
      </trkpt>
      <trkpt lat="48.3405775" lon="15.9327820">
        <ele>183.766</ele>
        <time>2019-05-05T11:23:03.175Z</time>
      </trkpt>
      <trkpt lat="48.3405306" lon="15.9329606">
        <ele>183.717</ele>
        <time>2019-05-05T11:23:05.451Z</time>
      </trkpt>
      <trkpt lat="48.3404871" lon="15.9331146">
        <ele>183.658</ele>
        <time>2019-05-05T11:23:07.521Z</time>
      </trkpt>
      <trkpt lat="48.3404361" lon="15.9332566">
        <ele>183.623</ele>
        <time>2019-05-05T11:23:09.581Z</time>
      </trkpt>
      <trkpt lat="48.3403986" lon="15.9333803">
        <ele>183.623</ele>
        <time>2019-05-05T11:23:11.398Z</time>
      </trkpt>
      <trkpt lat="48.3403596" lon="15.9335116">
        <ele>183.640</ele>
        <time>2019-05-05T11:23:13.481Z</time>
      </trkpt>
      <trkpt lat="48.3403072" lon="15.9336631">
        <ele>183.656</ele>
        <time>2019-05-05T11:23:16.127Z</time>
      </trkpt>
      <trkpt lat="48.3402590" lon="15.9337892">
        <ele>183.664</ele>
        <time>2019-05-05T11:23:18.487Z</time>
      </trkpt>
      <trkpt lat="48.3402054" lon="15.9339924">
        <ele>183.666</ele>
        <time>2019-05-05T11:23:21.981Z</time>
      </trkpt>
      <trkpt lat="48.3401436" lon="15.9341664">
        <ele>183.665</ele>
        <time>2019-05-05T11:23:25.034Z</time>
      </trkpt>
      <trkpt lat="48.3401039" lon="15.9342933">
        <ele>183.665</ele>
        <time>2019-05-05T11:23:27.157Z</time>
      </trkpt>
      <trkpt lat="48.3400467" lon="15.9344589">
        <ele>183.666</ele>
        <time>2019-05-05T11:23:29.860Z</time>
      </trkpt>
      <trkpt lat="48.3400166" lon="15.9346088">
        <ele>183.666</ele>
        <time>2019-05-05T11:23:32.010Z</time>
      </trkpt>
      <trkpt lat="48.3399718" lon="15.9347659">
        <ele>183.664</ele>
        <time>2019-05-05T11:23:34.291Z</time>
      </trkpt>
      <trkpt lat="48.3399343" lon="15.9349000">
        <ele>183.660</ele>
        <time>2019-05-05T11:23:36.231Z</time>
      </trkpt>
      <trkpt lat="48.3399036" lon="15.9350292">
        <ele>183.666</ele>
        <time>2019-05-05T11:23:38.068Z</time>
      </trkpt>
      <trkpt lat="48.3398692" lon="15.9352171">
        <ele>183.690</ele>
        <time>2019-05-05T11:23:40.711Z</time>
      </trkpt>
      <trkpt lat="48.3398562" lon="15.9353514">
        <ele>183.645</ele>
        <time>2019-05-05T11:23:42.580Z</time>
      </trkpt>
      <trkpt lat="48.3398344" lon="15.9355278">
        <ele>183.394</ele>
        <time>2019-05-05T11:23:45.107Z</time>
      </trkpt>
      <trkpt lat="48.3398150" lon="15.9357165">
        <ele>182.948</ele>
        <time>2019-05-05T11:23:47.815Z</time>
      </trkpt>
      <trkpt lat="48.3397913" lon="15.9358543">
        <ele>182.507</ele>
        <time>2019-05-05T11:23:49.828Z</time>
      </trkpt>
      <trkpt lat="48.3397546" lon="15.9360313">
        <ele>182.258</ele>
        <time>2019-05-05T11:23:52.493Z</time>
      </trkpt>
      <trkpt lat="48.3397235" lon="15.9362082">
        <ele>182.268</ele>
        <time>2019-05-05T11:23:55.150Z</time>
      </trkpt>
      <trkpt lat="48.3396922" lon="15.9363375">
        <ele>182.518</ele>
        <time>2019-05-05T11:23:57.170Z</time>
      </trkpt>
      <trkpt lat="48.3396483" lon="15.9365160">
        <ele>182.867</ele>
        <time>2019-05-05T11:24:00.023Z</time>
      </trkpt>
      <trkpt lat="48.3395912" lon="15.9366496">
        <ele>183.103</ele>
        <time>2019-05-05T11:24:02.444Z</time>
      </trkpt>
      <trkpt lat="48.3395380" lon="15.9368394">
        <ele>183.157</ele>
        <time>2019-05-05T11:24:05.541Z</time>
      </trkpt>
      <trkpt lat="48.3395013" lon="15.9369771">
        <ele>183.126</ele>
        <time>2019-05-05T11:24:07.634Z</time>
      </trkpt>
      <trkpt lat="48.3394656" lon="15.9371122">
        <ele>183.129</ele>
        <time>2019-05-05T11:24:09.631Z</time>
      </trkpt>
      <trkpt lat="48.3394145" lon="15.9372976">
        <ele>183.224</ele>
        <time>2019-05-05T11:24:12.400Z</time>
      </trkpt>
      <trkpt lat="48.3393517" lon="15.9374672">
        <ele>183.378</ele>
        <time>2019-05-05T11:24:15.110Z</time>
      </trkpt>
      <trkpt lat="48.3392879" lon="15.9376323">
        <ele>183.501</ele>
        <time>2019-05-05T11:24:17.818Z</time>
      </trkpt>
      <trkpt lat="48.3392259" lon="15.9377866">
        <ele>183.546</ele>
        <time>2019-05-05T11:24:20.425Z</time>
      </trkpt>
      <trkpt lat="48.3391878" lon="15.9379101">
        <ele>183.533</ele>
        <time>2019-05-05T11:24:22.435Z</time>
      </trkpt>
      <trkpt lat="48.3391318" lon="15.9380544">
        <ele>183.504</ele>
        <time>2019-05-05T11:24:25.001Z</time>
      </trkpt>
      <trkpt lat="48.3391318" lon="15.9380544">
        <ele>183.487</ele>
        <time>2019-05-05T11:24:28.001Z</time>
      </trkpt>
      <trkpt lat="48.3391318" lon="15.9380544">
        <ele>183.456</ele>
        <time>2019-05-05T11:24:31.752Z</time>
      </trkpt>
      <trkpt lat="48.3390364" lon="15.9377729">
        <ele>183.387</ele>
        <time>2019-05-05T11:24:43.962Z</time>
      </trkpt>
      <trkpt lat="48.3390253" lon="15.9376059">
        <ele>183.435</ele>
        <time>2019-05-05T11:24:47.367Z</time>
      </trkpt>
      <trkpt lat="48.3389980" lon="15.9374655">
        <ele>183.730</ele>
        <time>2019-05-05T11:24:49.998Z</time>
      </trkpt>
      <trkpt lat="48.3389980" lon="15.9374655">
        <ele>184.096</ele>
        <time>2019-05-05T11:24:56.998Z</time>
      </trkpt>
      <trkpt lat="48.3389980" lon="15.9374655">
        <ele>184.251</ele>
        <time>2019-05-05T11:25:00.758Z</time>
      </trkpt>
      <trkpt lat="48.3389799" lon="15.9376295">
        <ele>184.157</ele>
        <time>2019-05-05T11:25:07.937Z</time>
      </trkpt>
      <trkpt lat="48.3389900" lon="15.9377706">
        <ele>184.069</ele>
        <time>2019-05-05T11:25:11.091Z</time>
      </trkpt>
      <trkpt lat="48.3390069" lon="15.9379060">
        <ele>184.184</ele>
        <time>2019-05-05T11:25:13.859Z</time>
      </trkpt>
      <trkpt lat="48.3390336" lon="15.9380495">
        <ele>184.360</ele>
        <time>2019-05-05T11:25:16.764Z</time>
      </trkpt>
      <trkpt lat="48.3390530" lon="15.9382136">
        <ele>184.407</ele>
        <time>2019-05-05T11:25:19.959Z</time>
      </trkpt>
      <trkpt lat="48.3390664" lon="15.9383732">
        <ele>184.333</ele>
        <time>2019-05-05T11:25:23.008Z</time>
      </trkpt>
      <trkpt lat="48.3390426" lon="15.9385056">
        <ele>184.214</ele>
        <time>2019-05-05T11:25:25.575Z</time>
      </trkpt>
      <trkpt lat="48.3390017" lon="15.9386766">
        <ele>184.110</ele>
        <time>2019-05-05T11:25:28.857Z</time>
      </trkpt>
      <trkpt lat="48.3389592" lon="15.9388376">
        <ele>184.053</ele>
        <time>2019-05-05T11:25:31.758Z</time>
      </trkpt>
      <trkpt lat="48.3388925" lon="15.9390153">
        <ele>184.020</ele>
        <time>2019-05-05T11:25:34.924Z</time>
      </trkpt>
      <trkpt lat="48.3388585" lon="15.9391472">
        <ele>183.941</ele>
        <time>2019-05-05T11:25:36.979Z</time>
      </trkpt>
      <trkpt lat="48.3388159" lon="15.9392711">
        <ele>183.808</ele>
        <time>2019-05-05T11:25:38.943Z</time>
      </trkpt>
      <trkpt lat="48.3387553" lon="15.9394172">
        <ele>183.706</ele>
        <time>2019-05-05T11:25:41.344Z</time>
      </trkpt>
      <trkpt lat="48.3387193" lon="15.9395420">
        <ele>183.689</ele>
        <time>2019-05-05T11:25:43.201Z</time>
      </trkpt>
      <trkpt lat="48.3386683" lon="15.9397434">
        <ele>183.711</ele>
        <time>2019-05-05T11:25:46.096Z</time>
      </trkpt>
      <trkpt lat="48.3386305" lon="15.9398748">
        <ele>183.698</ele>
        <time>2019-05-05T11:25:47.960Z</time>
      </trkpt>
      <trkpt lat="48.3385772" lon="15.9400167">
        <ele>183.631</ele>
        <time>2019-05-05T11:25:50.032Z</time>
      </trkpt>
      <trkpt lat="48.3385199" lon="15.9401251">
        <ele>183.550</ele>
        <time>2019-05-05T11:25:51.782Z</time>
      </trkpt>
      <trkpt lat="48.3384426" lon="15.9402175">
        <ele>183.484</ele>
        <time>2019-05-05T11:25:53.752Z</time>
      </trkpt>
      <trkpt lat="48.3383274" lon="15.9402334">
        <ele>183.362</ele>
        <time>2019-05-05T11:25:56.271Z</time>
      </trkpt>
      <trkpt lat="48.3382230" lon="15.9401824">
        <ele>183.047</ele>
        <time>2019-05-05T11:25:59.003Z</time>
      </trkpt>
      <trkpt lat="48.3381312" lon="15.9401549">
        <ele>182.584</ele>
        <time>2019-05-05T11:26:01.352Z</time>
      </trkpt>
      <trkpt lat="48.3380112" lon="15.9401167">
        <ele>182.246</ele>
        <time>2019-05-05T11:26:04.257Z</time>
      </trkpt>
      <trkpt lat="48.3379014" lon="15.9400630">
        <ele>182.201</ele>
        <time>2019-05-05T11:26:06.926Z</time>
      </trkpt>
      <trkpt lat="48.3377736" lon="15.9400314">
        <ele>182.358</ele>
        <time>2019-05-05T11:26:09.941Z</time>
      </trkpt>
      <trkpt lat="48.3376654" lon="15.9400190">
        <ele>182.539</ele>
        <time>2019-05-05T11:26:12.383Z</time>
      </trkpt>
      <trkpt lat="48.3375624" lon="15.9400126">
        <ele>182.621</ele>
        <time>2019-05-05T11:26:14.596Z</time>
      </trkpt>
      <trkpt lat="48.3374407" lon="15.9399504">
        <ele>182.557</ele>
        <time>2019-05-05T11:26:17.300Z</time>
      </trkpt>
      <trkpt lat="48.3373574" lon="15.9398835">
        <ele>182.377</ele>
        <time>2019-05-05T11:26:19.269Z</time>
      </trkpt>
      <trkpt lat="48.3372473" lon="15.9398133">
        <ele>182.189</ele>
        <time>2019-05-05T11:26:21.686Z</time>
      </trkpt>
      <trkpt lat="48.3370844" lon="15.9396723">
        <ele>182.122</ele>
        <time>2019-05-05T11:26:25.300Z</time>
      </trkpt>
      <trkpt lat="48.3369772" lon="15.9395312">
        <ele>182.283</ele>
        <time>2019-05-05T11:26:28.068Z</time>
      </trkpt>
      <trkpt lat="48.3368867" lon="15.9394943">
        <ele>182.666</ele>
        <time>2019-05-05T11:26:30.017Z</time>
      </trkpt>
      <trkpt lat="48.3367893" lon="15.9394854">
        <ele>183.089</ele>
        <time>2019-05-05T11:26:32.979Z</time>
      </trkpt>
      <trkpt lat="48.3367079" lon="15.9395627">
        <ele>183.364</ele>
        <time>2019-05-05T11:26:36.096Z</time>
      </trkpt>
      <trkpt lat="48.3366219" lon="15.9396223">
        <ele>183.454</ele>
        <time>2019-05-05T11:26:39.484Z</time>
      </trkpt>
      <trkpt lat="48.3365276" lon="15.9396781">
        <ele>183.356</ele>
        <time>2019-05-05T11:26:43.144Z</time>
      </trkpt>
      <trkpt lat="48.3364359" lon="15.9397257">
        <ele>183.045</ele>
        <time>2019-05-05T11:26:46.654Z</time>
      </trkpt>
      <trkpt lat="48.3363407" lon="15.9397983">
        <ele>182.581</ele>
        <time>2019-05-05T11:26:50.098Z</time>
      </trkpt>
      <trkpt lat="48.3362256" lon="15.9398701">
        <ele>182.095</ele>
        <time>2019-05-05T11:26:53.797Z</time>
      </trkpt>
      <trkpt lat="48.3361225" lon="15.9399403">
        <ele>181.645</ele>
        <time>2019-05-05T11:26:56.754Z</time>
      </trkpt>
      <trkpt lat="48.3360219" lon="15.9400277">
        <ele>181.210</ele>
        <time>2019-05-05T11:26:59.528Z</time>
      </trkpt>
      <trkpt lat="48.3359580" lon="15.9401245">
        <ele>179.768</ele>
        <time>2019-05-05T11:27:01.580Z</time>
      </trkpt>
      <trkpt lat="48.3358815" lon="15.9402044">
        <ele>176.412</ele>
        <time>2019-05-05T11:27:03.596Z</time>
      </trkpt>
      <trkpt lat="48.3357766" lon="15.9402993">
        <ele>172.292</ele>
        <time>2019-05-05T11:27:06.216Z</time>
      </trkpt>
      <trkpt lat="48.3356708" lon="15.9403985">
        <ele>168.605</ele>
        <time>2019-05-05T11:27:08.884Z</time>
      </trkpt>
      <trkpt lat="48.3355836" lon="15.9404920">
        <ele>165.307</ele>
        <time>2019-05-05T11:27:11.059Z</time>
      </trkpt>
      <trkpt lat="48.3354883" lon="15.9406007">
        <ele>162.753</ele>
        <time>2019-05-05T11:27:13.560Z</time>
      </trkpt>
      <trkpt lat="48.3353861" lon="15.9406901">
        <ele>161.238</ele>
        <time>2019-05-05T11:27:16.330Z</time>
      </trkpt>
      <trkpt lat="48.3352901" lon="15.9407766">
        <ele>160.353</ele>
        <time>2019-05-05T11:27:19.082Z</time>
      </trkpt>
      <trkpt lat="48.3351934" lon="15.9408701">
        <ele>159.405</ele>
        <time>2019-05-05T11:27:21.854Z</time>
      </trkpt>
      <trkpt lat="48.3351205" lon="15.9409742">
        <ele>158.132</ele>
        <time>2019-05-05T11:27:24.201Z</time>
      </trkpt>
      <trkpt lat="48.3350466" lon="15.9410539">
        <ele>160.821</ele>
        <time>2019-05-05T11:27:26.140Z</time>
      </trkpt>
      <trkpt lat="48.3349600" lon="15.9411604">
        <ele>170.151</ele>
        <time>2019-05-05T11:27:28.270Z</time>
      </trkpt>
      <trkpt lat="48.3348702" lon="15.9412448">
        <ele>180.146</ele>
        <time>2019-05-05T11:27:30.188Z</time>
      </trkpt>
      <trkpt lat="48.3347818" lon="15.9413343">
        <ele>184.979</ele>
        <time>2019-05-05T11:27:32.123Z</time>
      </trkpt>
      <trkpt lat="48.3347074" lon="15.9414184">
        <ele>185.718</ele>
        <time>2019-05-05T11:27:33.842Z</time>
      </trkpt>
      <trkpt lat="48.3346350" lon="15.9415064">
        <ele>184.861</ele>
        <time>2019-05-05T11:27:35.600Z</time>
      </trkpt>
      <trkpt lat="48.3345490" lon="15.9416569">
        <ele>184.002</ele>
        <time>2019-05-05T11:27:38.161Z</time>
      </trkpt>
      <trkpt lat="48.3344726" lon="15.9417788">
        <ele>183.612</ele>
        <time>2019-05-05T11:27:40.335Z</time>
      </trkpt>
      <trkpt lat="48.3343880" lon="15.9418820">
        <ele>183.582</ele>
        <time>2019-05-05T11:27:42.388Z</time>
      </trkpt>
      <trkpt lat="48.3342988" lon="15.9419924">
        <ele>183.711</ele>
        <time>2019-05-05T11:27:44.433Z</time>
      </trkpt>
      <trkpt lat="48.3342278" lon="15.9420948">
        <ele>183.915</ele>
        <time>2019-05-05T11:27:46.142Z</time>
      </trkpt>
      <trkpt lat="48.3341540" lon="15.9421892">
        <ele>184.165</ele>
        <time>2019-05-05T11:27:47.874Z</time>
      </trkpt>
      <trkpt lat="48.3340583" lon="15.9422914">
        <ele>184.377</ele>
        <time>2019-05-05T11:27:50.055Z</time>
      </trkpt>
      <trkpt lat="48.3339798" lon="15.9424316">
        <ele>184.384</ele>
        <time>2019-05-05T11:27:52.305Z</time>
      </trkpt>
      <trkpt lat="48.3339003" lon="15.9425713">
        <ele>184.030</ele>
        <time>2019-05-05T11:27:54.440Z</time>
      </trkpt>
      <trkpt lat="48.3338326" lon="15.9427276">
        <ele>183.455</ele>
        <time>2019-05-05T11:27:56.513Z</time>
      </trkpt>
      <trkpt lat="48.3337552" lon="15.9428371">
        <ele>183.156</ele>
        <time>2019-05-05T11:27:58.303Z</time>
      </trkpt>
      <trkpt lat="48.3336679" lon="15.9429542">
        <ele>183.359</ele>
        <time>2019-05-05T11:28:00.322Z</time>
      </trkpt>
      <trkpt lat="48.3335897" lon="15.9430884">
        <ele>183.540</ele>
        <time>2019-05-05T11:28:02.360Z</time>
      </trkpt>
      <trkpt lat="48.3335009" lon="15.9432005">
        <ele>182.197</ele>
        <time>2019-05-05T11:28:04.312Z</time>
      </trkpt>
      <trkpt lat="48.3334120" lon="15.9433475">
        <ele>178.992</ele>
        <time>2019-05-05T11:28:06.472Z</time>
      </trkpt>
      <trkpt lat="48.3333424" lon="15.9434915">
        <ele>174.113</ele>
        <time>2019-05-05T11:28:08.338Z</time>
      </trkpt>
      <trkpt lat="48.3332646" lon="15.9436064">
        <ele>166.855</ele>
        <time>2019-05-05T11:28:10.020Z</time>
      </trkpt>
      <trkpt lat="48.3331974" lon="15.9437268">
        <ele>158.011</ele>
        <time>2019-05-05T11:28:11.663Z</time>
      </trkpt>
      <trkpt lat="48.3330912" lon="15.9438552">
        <ele>150.095</ele>
        <time>2019-05-05T11:28:13.880Z</time>
      </trkpt>
      <trkpt lat="48.3330081" lon="15.9439621">
        <ele>144.114</ele>
        <time>2019-05-05T11:28:15.698Z</time>
      </trkpt>
      <trkpt lat="48.3329274" lon="15.9440443">
        <ele>139.847</ele>
        <time>2019-05-05T11:28:17.346Z</time>
      </trkpt>
      <trkpt lat="48.3328173" lon="15.9442083">
        <ele>136.719</ele>
        <time>2019-05-05T11:28:20.006Z</time>
      </trkpt>
      <trkpt lat="48.3327198" lon="15.9443036">
        <ele>134.525</ele>
        <time>2019-05-05T11:28:21.960Z</time>
      </trkpt>
      <trkpt lat="48.3326366" lon="15.9443996">
        <ele>137.507</ele>
        <time>2019-05-05T11:28:23.682Z</time>
      </trkpt>
      <trkpt lat="48.3325558" lon="15.9445026">
        <ele>147.960</ele>
        <time>2019-05-05T11:28:25.383Z</time>
      </trkpt>
      <trkpt lat="48.3324769" lon="15.9446288">
        <ele>157.280</ele>
        <time>2019-05-05T11:28:27.186Z</time>
      </trkpt>
      <trkpt lat="48.3323907" lon="15.9447527">
        <ele>156.887</ele>
        <time>2019-05-05T11:28:29.059Z</time>
      </trkpt>
      <trkpt lat="48.3323072" lon="15.9448950">
        <ele>150.080</ele>
        <time>2019-05-05T11:28:31.113Z</time>
      </trkpt>
      <trkpt lat="48.3322826" lon="15.9450673">
        <ele>149.659</ele>
        <time>2019-05-05T11:28:33.118Z</time>
      </trkpt>
      <trkpt lat="48.3322826" lon="15.9450673">
        <ele>149.659</ele>
        <time>2019-05-05T11:28:33.118Z</time>
      </trkpt>
      <trkpt lat="48.3320541" lon="15.9458287">
        <ele>183.655</ele>
        <time>2019-05-05T11:28:51.354Z</time>
      </trkpt>
      <trkpt lat="48.3319306" lon="15.9458184">
        <ele>183.570</ele>
        <time>2019-05-05T11:28:56.466Z</time>
      </trkpt>
      <trkpt lat="48.3318348" lon="15.9458004">
        <ele>183.551</ele>
        <time>2019-05-05T11:29:03.613Z</time>
      </trkpt>
      <trkpt lat="48.3317394" lon="15.9457789">
        <ele>183.587</ele>
        <time>2019-05-05T11:29:06.895Z</time>
      </trkpt>
      <trkpt lat="48.3316230" lon="15.9458031">
        <ele>183.635</ele>
        <time>2019-05-05T11:29:10.307Z</time>
      </trkpt>
      <trkpt lat="48.3315212" lon="15.9459099">
        <ele>183.652</ele>
        <time>2019-05-05T11:29:13.333Z</time>
      </trkpt>
      <trkpt lat="48.3314433" lon="15.9460088">
        <ele>182.645</ele>
        <time>2019-05-05T11:29:15.439Z</time>
      </trkpt>
      <trkpt lat="48.3313585" lon="15.9460982">
        <ele>180.044</ele>
        <time>2019-05-05T11:29:17.409Z</time>
      </trkpt>
      <trkpt lat="48.3312677" lon="15.9462072">
        <ele>178.362</ele>
        <time>2019-05-05T11:29:19.479Z</time>
      </trkpt>
      <trkpt lat="48.3311953" lon="15.9463680">
        <ele>179.667</ele>
        <time>2019-05-05T11:29:21.735Z</time>
      </trkpt>
      <trkpt lat="48.3311198" lon="15.9465083">
        <ele>182.145</ele>
        <time>2019-05-05T11:29:23.904Z</time>
      </trkpt>
      <trkpt lat="48.3310573" lon="15.9466280">
        <ele>183.659</ele>
        <time>2019-05-05T11:29:25.748Z</time>
      </trkpt>
      <trkpt lat="48.3309921" lon="15.9467530">
        <ele>184.089</ele>
        <time>2019-05-05T11:29:27.642Z</time>
      </trkpt>
      <trkpt lat="48.3309050" lon="15.9468688">
        <ele>183.978</ele>
        <time>2019-05-05T11:29:29.717Z</time>
      </trkpt>
      <trkpt lat="48.3308228" lon="15.9469968">
        <ele>183.753</ele>
        <time>2019-05-05T11:29:31.939Z</time>
      </trkpt>
      <trkpt lat="48.3307525" lon="15.9471296">
        <ele>183.585</ele>
        <time>2019-05-05T11:29:34.190Z</time>
      </trkpt>
      <trkpt lat="48.3307102" lon="15.9472625">
        <ele>183.489</ele>
        <time>2019-05-05T11:29:36.056Z</time>
      </trkpt>
      <trkpt lat="48.3307243" lon="15.9474469">
        <ele>183.380</ele>
        <time>2019-05-05T11:29:38.334Z</time>
      </trkpt>
      <trkpt lat="48.3307364" lon="15.9475955">
        <ele>183.187</ele>
        <time>2019-05-05T11:29:40.259Z</time>
      </trkpt>
      <trkpt lat="48.3307382" lon="15.9477369">
        <ele>182.953</ele>
        <time>2019-05-05T11:29:42.105Z</time>
      </trkpt>
      <trkpt lat="48.3307808" lon="15.9478671">
        <ele>182.774</ele>
        <time>2019-05-05T11:29:43.920Z</time>
      </trkpt>
      <trkpt lat="48.3307839" lon="15.9480158">
        <ele>182.686</ele>
        <time>2019-05-05T11:29:45.705Z</time>
      </trkpt>
      <trkpt lat="48.3307850" lon="15.9481791">
        <ele>182.695</ele>
        <time>2019-05-05T11:29:47.665Z</time>
      </trkpt>
      <trkpt lat="48.3307749" lon="15.9483299">
        <ele>182.822</ele>
        <time>2019-05-05T11:29:49.510Z</time>
      </trkpt>
      <trkpt lat="48.3307462" lon="15.9485141">
        <ele>183.048</ele>
        <time>2019-05-05T11:29:51.808Z</time>
      </trkpt>
      <trkpt lat="48.3307158" lon="15.9486587">
        <ele>183.265</ele>
        <time>2019-05-05T11:29:53.616Z</time>
      </trkpt>
      <trkpt lat="48.3306787" lon="15.9488081">
        <ele>183.385</ele>
        <time>2019-05-05T11:29:55.481Z</time>
      </trkpt>
      <trkpt lat="48.3306252" lon="15.9489550">
        <ele>183.397</ele>
        <time>2019-05-05T11:29:57.410Z</time>
      </trkpt>
      <trkpt lat="48.3305743" lon="15.9490970">
        <ele>183.330</ele>
        <time>2019-05-05T11:29:59.263Z</time>
      </trkpt>
      <trkpt lat="48.3305251" lon="15.9492255">
        <ele>183.209</ele>
        <time>2019-05-05T11:30:00.996Z</time>
      </trkpt>
      <trkpt lat="48.3304784" lon="15.9493500">
        <ele>183.054</ele>
        <time>2019-05-05T11:30:02.711Z</time>
      </trkpt>
      <trkpt lat="48.3304368" lon="15.9494875">
        <ele>182.893</ele>
        <time>2019-05-05T11:30:04.578Z</time>
      </trkpt>
      <trkpt lat="48.3303985" lon="15.9496122">
        <ele>182.764</ele>
        <time>2019-05-05T11:30:06.325Z</time>
      </trkpt>
      <trkpt lat="48.3303687" lon="15.9498082">
        <ele>182.690</ele>
        <time>2019-05-05T11:30:08.949Z</time>
      </trkpt>
      <trkpt lat="48.3303408" lon="15.9500024">
        <ele>182.662</ele>
        <time>2019-05-05T11:30:11.532Z</time>
      </trkpt>
      <trkpt lat="48.3303269" lon="15.9501736">
        <ele>182.658</ele>
        <time>2019-05-05T11:30:13.747Z</time>
      </trkpt>
      <trkpt lat="48.3303178" lon="15.9503363">
        <ele>182.662</ele>
        <time>2019-05-05T11:30:15.829Z</time>
      </trkpt>
      <trkpt lat="48.3303447" lon="15.9504837">
        <ele>182.665</ele>
        <time>2019-05-05T11:30:17.758Z</time>
      </trkpt>
      <trkpt lat="48.3303287" lon="15.9506332">
        <ele>182.667</ele>
        <time>2019-05-05T11:30:19.643Z</time>
      </trkpt>
      <trkpt lat="48.3302274" lon="15.9507398">
        <ele>182.667</ele>
        <time>2019-05-05T11:30:21.939Z</time>
      </trkpt>
      <trkpt lat="48.3301359" lon="15.9508265">
        <ele>182.665</ele>
        <time>2019-05-05T11:30:23.929Z</time>
      </trkpt>
      <trkpt lat="48.3300455" lon="15.9509297">
        <ele>182.638</ele>
        <time>2019-05-05T11:30:25.933Z</time>
      </trkpt>
      <trkpt lat="48.3299585" lon="15.9510593">
        <ele>182.544</ele>
        <time>2019-05-05T11:30:28.037Z</time>
      </trkpt>
      <trkpt lat="48.3298962" lon="15.9511739">
        <ele>182.351</ele>
        <time>2019-05-05T11:30:29.796Z</time>
      </trkpt>
      <trkpt lat="48.3298447" lon="15.9513854">
        <ele>182.097</ele>
        <time>2019-05-05T11:30:32.526Z</time>
      </trkpt>
      <trkpt lat="48.3298185" lon="15.9515738">
        <ele>181.869</ele>
        <time>2019-05-05T11:30:34.746Z</time>
      </trkpt>
      <trkpt lat="48.3297950" lon="15.9517344">
        <ele>181.733</ele>
        <time>2019-05-05T11:30:36.595Z</time>
      </trkpt>
      <trkpt lat="48.3297685" lon="15.9519228">
        <ele>181.705</ele>
        <time>2019-05-05T11:30:38.745Z</time>
      </trkpt>
      <trkpt lat="48.3297399" lon="15.9521241">
        <ele>181.787</ele>
        <time>2019-05-05T11:30:41.010Z</time>
      </trkpt>
      <trkpt lat="48.3297194" lon="15.9523036">
        <ele>181.979</ele>
        <time>2019-05-05T11:30:42.936Z</time>
      </trkpt>
      <trkpt lat="48.3296970" lon="15.9524779">
        <ele>182.241</ele>
        <time>2019-05-05T11:30:44.771Z</time>
      </trkpt>
      <trkpt lat="48.3296668" lon="15.9526273">
        <ele>182.476</ele>
        <time>2019-05-05T11:30:46.474Z</time>
      </trkpt>
      <trkpt lat="48.3296411" lon="15.9528220">
        <ele>182.619</ele>
        <time>2019-05-05T11:30:48.925Z</time>
      </trkpt>
      <trkpt lat="48.3297353" lon="15.9529134">
        <ele>182.675</ele>
        <time>2019-05-05T11:30:51.470Z</time>
      </trkpt>
      <trkpt lat="48.3298466" lon="15.9529472">
        <ele>182.683</ele>
        <time>2019-05-05T11:30:54.249Z</time>
      </trkpt>
      <trkpt lat="48.3299306" lon="15.9529994">
        <ele>182.676</ele>
        <time>2019-05-05T11:30:56.560Z</time>
      </trkpt>
      <trkpt lat="48.3300076" lon="15.9531391">
        <ele>182.668</ele>
        <time>2019-05-05T11:31:00.001Z</time>
      </trkpt>
      <trkpt lat="48.3300076" lon="15.9531391">
        <ele>182.665</ele>
        <time>2019-05-05T11:31:04.001Z</time>
      </trkpt>
      <trkpt lat="48.3300076" lon="15.9531391">
        <ele>182.636</ele>
        <time>2019-05-05T11:31:04.101Z</time>
      </trkpt>
      <trkpt lat="48.3300503" lon="15.9533083">
        <ele>182.562</ele>
        <time>2019-05-05T11:31:09.237Z</time>
      </trkpt>
      <trkpt lat="48.3300431" lon="15.9534738">
        <ele>182.514</ele>
        <time>2019-05-05T11:31:12.552Z</time>
      </trkpt>
      <trkpt lat="48.3300321" lon="15.9536952">
        <ele>182.553</ele>
        <time>2019-05-05T11:31:16.722Z</time>
      </trkpt>
      <trkpt lat="48.3300190" lon="15.9538471">
        <ele>182.624</ele>
        <time>2019-05-05T11:31:19.235Z</time>
      </trkpt>
      <trkpt lat="48.3300732" lon="15.9539702">
        <ele>182.667</ele>
        <time>2019-05-05T11:31:21.568Z</time>
      </trkpt>
      <trkpt lat="48.3301567" lon="15.9540634">
        <ele>182.678</ele>
        <time>2019-05-05T11:31:23.948Z</time>
      </trkpt>
      <trkpt lat="48.3302518" lon="15.9541114">
        <ele>182.662</ele>
        <time>2019-05-05T11:31:26.093Z</time>
      </trkpt>
      <trkpt lat="48.3303496" lon="15.9541680">
        <ele>182.595</ele>
        <time>2019-05-05T11:31:28.220Z</time>
      </trkpt>
      <trkpt lat="48.3304255" lon="15.9542569">
        <ele>182.442</ele>
        <time>2019-05-05T11:31:30.145Z</time>
      </trkpt>
      <trkpt lat="48.3305399" lon="15.9543093">
        <ele>182.227</ele>
        <time>2019-05-05T11:31:32.575Z</time>
      </trkpt>
      <trkpt lat="48.3306470" lon="15.9543524">
        <ele>182.044</ele>
        <time>2019-05-05T11:31:34.842Z</time>
      </trkpt>
      <trkpt lat="48.3307569" lon="15.9544253">
        <ele>181.969</ele>
        <time>2019-05-05T11:31:37.254Z</time>
      </trkpt>
      <trkpt lat="48.3308514" lon="15.9544720">
        <ele>182.010</ele>
        <time>2019-05-05T11:31:39.267Z</time>
      </trkpt>
      <trkpt lat="48.3309424" lon="15.9545634">
        <ele>182.131</ele>
        <time>2019-05-05T11:31:41.568Z</time>
      </trkpt>
      <trkpt lat="48.3310341" lon="15.9546287">
        <ele>182.277</ele>
        <time>2019-05-05T11:31:43.813Z</time>
      </trkpt>
      <trkpt lat="48.3311174" lon="15.9546910">
        <ele>182.389</ele>
        <time>2019-05-05T11:31:46.001Z</time>
      </trkpt>
      <trkpt lat="48.3311174" lon="15.9546910">
        <ele>182.406</ele>
        <time>2019-05-05T11:31:48.001Z</time>
      </trkpt>
      <trkpt lat="48.3311174" lon="15.9546910">
        <ele>182.324</ele>
        <time>2019-05-05T11:31:48.101Z</time>
      </trkpt>
      <trkpt lat="48.3311447" lon="15.9550202">
        <ele>182.224</ele>
        <time>2019-05-05T11:31:52.002Z</time>
      </trkpt>
      <trkpt lat="48.3311447" lon="15.9550202">
        <ele>182.149</ele>
        <time>2019-05-05T11:31:57.000Z</time>
      </trkpt>
      <trkpt lat="48.3311447" lon="15.9550202">
        <ele>182.068</ele>
        <time>2019-05-05T11:32:54.958Z</time>
      </trkpt>
      <trkpt lat="48.3311863" lon="15.9552967">
        <ele>181.987</ele>
        <time>2019-05-05T11:33:06.822Z</time>
      </trkpt>
      <trkpt lat="48.3312742" lon="15.9554432">
        <ele>177.867</ele>
        <time>2019-05-05T11:33:10.353Z</time>
      </trkpt>
      <trkpt lat="48.3313662" lon="15.9555702">
        <ele>167.066</ele>
        <time>2019-05-05T11:33:13.386Z</time>
      </trkpt>
      <trkpt lat="48.3314568" lon="15.9557136">
        <ele>155.705</ele>
        <time>2019-05-05T11:33:17.212Z</time>
      </trkpt>
      <trkpt lat="48.3314434" lon="15.9558550">
        <ele>150.365</ele>
        <time>2019-05-05T11:33:20.049Z</time>
      </trkpt>
      <trkpt lat="48.3313404" lon="15.9558402">
        <ele>151.359</ele>
        <time>2019-05-05T11:33:22.652Z</time>
      </trkpt>
      <trkpt lat="48.3312280" lon="15.9558603">
        <ele>157.201</ele>
        <time>2019-05-05T11:33:25.175Z</time>
      </trkpt>
      <trkpt lat="48.3311519" lon="15.9559482">
        <ele>164.969</ele>
        <time>2019-05-05T11:33:27.017Z</time>
      </trkpt>
      <trkpt lat="48.3310663" lon="15.9560469">
        <ele>172.363</ele>
        <time>2019-05-05T11:33:28.879Z</time>
      </trkpt>
      <trkpt lat="48.3309727" lon="15.9561160">
        <ele>178.457</ele>
        <time>2019-05-05T11:33:30.581Z</time>
      </trkpt>
      <trkpt lat="48.3308623" lon="15.9561927">
        <ele>182.134</ele>
        <time>2019-05-05T11:33:32.464Z</time>
      </trkpt>
      <trkpt lat="48.3307436" lon="15.9562608">
        <ele>183.168</ele>
        <time>2019-05-05T11:33:34.381Z</time>
      </trkpt>
      <trkpt lat="48.3306270" lon="15.9563388">
        <ele>182.909</ele>
        <time>2019-05-05T11:33:36.418Z</time>
      </trkpt>
      <trkpt lat="48.3305692" lon="15.9564792">
        <ele>182.408</ele>
        <time>2019-05-05T11:33:38.329Z</time>
      </trkpt>
      <trkpt lat="48.3305357" lon="15.9566334">
        <ele>182.045</ele>
        <time>2019-05-05T11:33:40.295Z</time>
      </trkpt>
      <trkpt lat="48.3304942" lon="15.9567928">
        <ele>181.838</ele>
        <time>2019-05-05T11:33:42.442Z</time>
      </trkpt>
      <trkpt lat="48.3304856" lon="15.9569500">
        <ele>181.740</ele>
        <time>2019-05-05T11:33:44.495Z</time>
      </trkpt>
      <trkpt lat="48.3304976" lon="15.9570900">
        <ele>181.760</ele>
        <time>2019-05-05T11:33:46.360Z</time>
      </trkpt>
      <trkpt lat="48.3305196" lon="15.9572877">
        <ele>181.936</ele>
        <time>2019-05-05T11:33:49.026Z</time>
      </trkpt>
      <trkpt lat="48.3305415" lon="15.9574212">
        <ele>182.242</ele>
        <time>2019-05-05T11:33:50.937Z</time>
      </trkpt>
      <trkpt lat="48.3305831" lon="15.9575997">
        <ele>182.546</ele>
        <time>2019-05-05T11:33:53.741Z</time>
      </trkpt>
      <trkpt lat="48.3306399" lon="15.9577591">
        <ele>182.722</ele>
        <time>2019-05-05T11:33:56.673Z</time>
      </trkpt>
      <trkpt lat="48.3307039" lon="15.9579049">
        <ele>182.737</ele>
        <time>2019-05-05T11:33:59.726Z</time>
      </trkpt>
      <trkpt lat="48.3307619" lon="15.9580790">
        <ele>182.654</ele>
        <time>2019-05-05T11:34:03.088Z</time>
      </trkpt>
      <trkpt lat="48.3308254" lon="15.9582251">
        <ele>182.584</ele>
        <time>2019-05-05T11:34:06.007Z</time>
      </trkpt>
      <trkpt lat="48.3309117" lon="15.9583508">
        <ele>182.637</ele>
        <time>2019-05-05T11:34:09.045Z</time>
      </trkpt>
      <trkpt lat="48.3310170" lon="15.9584556">
        <ele>182.806</ele>
        <time>2019-05-05T11:34:12.225Z</time>
      </trkpt>
      <trkpt lat="48.3311434" lon="15.9585074">
        <ele>182.976</ele>
        <time>2019-05-05T11:34:15.511Z</time>
      </trkpt>
      <trkpt lat="48.3312635" lon="15.9585380">
        <ele>183.046</ele>
        <time>2019-05-05T11:34:18.583Z</time>
      </trkpt>
      <trkpt lat="48.3313846" lon="15.9585941">
        <ele>183.002</ele>
        <time>2019-05-05T11:34:21.810Z</time>
      </trkpt>
      <trkpt lat="48.3314900" lon="15.9587034">
        <ele>182.875</ele>
        <time>2019-05-05T11:34:25.323Z</time>
      </trkpt>
      <trkpt lat="48.3315196" lon="15.9588636">
        <ele>182.699</ele>
        <time>2019-05-05T11:34:28.437Z</time>
      </trkpt>
      <trkpt lat="48.3314847" lon="15.9590006">
        <ele>182.530</ele>
        <time>2019-05-05T11:34:30.888Z</time>
      </trkpt>
      <trkpt lat="48.3313995" lon="15.9591236">
        <ele>182.455</ele>
        <time>2019-05-05T11:34:33.562Z</time>
      </trkpt>
      <trkpt lat="48.3313261" lon="15.9592029">
        <ele>182.508</ele>
        <time>2019-05-05T11:34:35.415Z</time>
      </trkpt>
      <trkpt lat="48.3312095" lon="15.9593037">
        <ele>182.620</ele>
        <time>2019-05-05T11:34:38.102Z</time>
      </trkpt>
      <trkpt lat="48.3311209" lon="15.9593645">
        <ele>182.699</ele>
        <time>2019-05-05T11:34:40.005Z</time>
      </trkpt>
      <trkpt lat="48.3310293" lon="15.9594024">
        <ele>182.719</ele>
        <time>2019-05-05T11:34:41.852Z</time>
      </trkpt>
      <trkpt lat="48.3309327" lon="15.9594694">
        <ele>182.719</ele>
        <time>2019-05-05T11:34:43.983Z</time>
      </trkpt>
      <trkpt lat="48.3308447" lon="15.9595420">
        <ele>182.737</ele>
        <time>2019-05-05T11:34:46.142Z</time>
      </trkpt>
      <trkpt lat="48.3307519" lon="15.9596029">
        <ele>182.751</ele>
        <time>2019-05-05T11:34:48.379Z</time>
      </trkpt>
      <trkpt lat="48.3306792" lon="15.9597036">
        <ele>182.735</ele>
        <time>2019-05-05T11:34:50.504Z</time>
      </trkpt>
      <trkpt lat="48.3306167" lon="15.9598175">
        <ele>182.708</ele>
        <time>2019-05-05T11:34:52.648Z</time>
      </trkpt>
      <trkpt lat="48.3305758" lon="15.9600021">
        <ele>182.694</ele>
        <time>2019-05-05T11:34:55.613Z</time>
      </trkpt>
      <trkpt lat="48.3305450" lon="15.9601841">
        <ele>182.680</ele>
        <time>2019-05-05T11:34:58.699Z</time>
      </trkpt>
      <trkpt lat="48.3305384" lon="15.9603575">
        <ele>182.624</ele>
        <time>2019-05-05T11:35:01.621Z</time>
      </trkpt>
      <trkpt lat="48.3305512" lon="15.9605200">
        <ele>182.464</ele>
        <time>2019-05-05T11:35:04.111Z</time>
      </trkpt>
      <trkpt lat="48.3305724" lon="15.9606797">
        <ele>182.201</ele>
        <time>2019-05-05T11:35:06.512Z</time>
      </trkpt>
      <trkpt lat="48.3306000" lon="15.9608283">
        <ele>181.950</ele>
        <time>2019-05-05T11:35:08.874Z</time>
      </trkpt>
      <trkpt lat="48.3306464" lon="15.9610152">
        <ele>181.834</ele>
        <time>2019-05-05T11:35:12.209Z</time>
      </trkpt>
      <trkpt lat="48.3306960" lon="15.9611481">
        <ele>181.889</ele>
        <time>2019-05-05T11:35:15.128Z</time>
      </trkpt>
      <trkpt lat="48.3307439" lon="15.9612828">
        <ele>182.044</ele>
        <time>2019-05-05T11:35:18.329Z</time>
      </trkpt>
      <trkpt lat="48.3308048" lon="15.9614258">
        <ele>182.180</ele>
        <time>2019-05-05T11:35:21.588Z</time>
      </trkpt>
      <trkpt lat="48.3308660" lon="15.9615693">
        <ele>182.226</ele>
        <time>2019-05-05T11:35:24.429Z</time>
      </trkpt>
      <trkpt lat="48.3309715" lon="15.9616815">
        <ele>182.188</ele>
        <time>2019-05-05T11:35:27.445Z</time>
      </trkpt>
      <trkpt lat="48.3310690" lon="15.9618065">
        <ele>182.109</ele>
        <time>2019-05-05T11:35:30.520Z</time>
      </trkpt>
      <trkpt lat="48.3311467" lon="15.9619056">
        <ele>182.028</ele>
        <time>2019-05-05T11:35:32.929Z</time>
      </trkpt>
      <trkpt lat="48.3312518" lon="15.9619990">
        <ele>181.965</ele>
        <time>2019-05-05T11:35:35.502Z</time>
      </trkpt>
      <trkpt lat="48.3313372" lon="15.9620698">
        <ele>181.971</ele>
        <time>2019-05-05T11:35:37.431Z</time>
      </trkpt>
      <trkpt lat="48.3314436" lon="15.9621285">
        <ele>182.070</ele>
        <time>2019-05-05T11:35:39.650Z</time>
      </trkpt>
      <trkpt lat="48.3315406" lon="15.9621842">
        <ele>182.186</ele>
        <time>2019-05-05T11:35:41.683Z</time>
      </trkpt>
      <trkpt lat="48.3316229" lon="15.9622458">
        <ele>182.253</ele>
        <time>2019-05-05T11:35:43.601Z</time>
      </trkpt>
      <trkpt lat="48.3317295" lon="15.9623226">
        <ele>182.304</ele>
        <time>2019-05-05T11:35:46.846Z</time>
      </trkpt>
      <trkpt lat="48.3318240" lon="15.9624094">
        <ele>182.371</ele>
        <time>2019-05-05T11:35:49.985Z</time>
      </trkpt>
      <trkpt lat="48.3318945" lon="15.9625059">
        <ele>182.427</ele>
        <time>2019-05-05T11:35:52.225Z</time>
      </trkpt>
      <trkpt lat="48.3318859" lon="15.9627136">
        <ele>182.414</ele>
        <time>2019-05-05T11:35:55.278Z</time>
      </trkpt>
      <trkpt lat="48.3318670" lon="15.9628809">
        <ele>182.285</ele>
        <time>2019-05-05T11:35:57.770Z</time>
      </trkpt>
      <trkpt lat="48.3318398" lon="15.9630608">
        <ele>182.088</ele>
        <time>2019-05-05T11:36:00.577Z</time>
      </trkpt>
      <trkpt lat="48.3318151" lon="15.9631992">
        <ele>181.942</ele>
        <time>2019-05-05T11:36:02.936Z</time>
      </trkpt>
      <trkpt lat="48.3317696" lon="15.9633348">
        <ele>181.908</ele>
        <time>2019-05-05T11:36:05.672Z</time>
      </trkpt>
      <trkpt lat="48.3317197" lon="15.9635129">
        <ele>181.958</ele>
        <time>2019-05-05T11:36:09.035Z</time>
      </trkpt>
      <trkpt lat="48.3316707" lon="15.9636608">
        <ele>182.036</ele>
        <time>2019-05-05T11:36:11.732Z</time>
      </trkpt>
      <trkpt lat="48.3316041" lon="15.9637821">
        <ele>182.047</ele>
        <time>2019-05-05T11:36:14.244Z</time>
      </trkpt>
      <trkpt lat="48.3315448" lon="15.9639415">
        <ele>181.952</ele>
        <time>2019-05-05T11:36:17.085Z</time>
      </trkpt>
      <trkpt lat="48.3314959" lon="15.9640654">
        <ele>181.847</ele>
        <time>2019-05-05T11:36:19.230Z</time>
      </trkpt>
      <trkpt lat="48.3314488" lon="15.9641886">
        <ele>181.819</ele>
        <time>2019-05-05T11:36:21.336Z</time>
      </trkpt>
      <trkpt lat="48.3314085" lon="15.9643164">
        <ele>181.817</ele>
        <time>2019-05-05T11:36:23.473Z</time>
      </trkpt>
      <trkpt lat="48.3313632" lon="15.9644415">
        <ele>181.765</ele>
        <time>2019-05-05T11:36:25.613Z</time>
      </trkpt>
      <trkpt lat="48.3313199" lon="15.9645837">
        <ele>181.681</ele>
        <time>2019-05-05T11:36:27.960Z</time>
      </trkpt>
      <trkpt lat="48.3312793" lon="15.9647113">
        <ele>181.635</ele>
        <time>2019-05-05T11:36:30.129Z</time>
      </trkpt>
      <trkpt lat="48.3312251" lon="15.9648389">
        <ele>181.650</ele>
        <time>2019-05-05T11:36:32.506Z</time>
      </trkpt>
      <trkpt lat="48.3311616" lon="15.9650079">
        <ele>181.687</ele>
        <time>2019-05-05T11:36:35.553Z</time>
      </trkpt>
      <trkpt lat="48.3311267" lon="15.9651509">
        <ele>181.704</ele>
        <time>2019-05-05T11:36:37.926Z</time>
      </trkpt>
      <trkpt lat="48.3310879" lon="15.9652898">
        <ele>181.696</ele>
        <time>2019-05-05T11:36:40.269Z</time>
      </trkpt>
      <trkpt lat="48.3310485" lon="15.9654224">
        <ele>181.676</ele>
        <time>2019-05-05T11:36:42.563Z</time>
      </trkpt>
      <trkpt lat="48.3309951" lon="15.9655646">
        <ele>181.672</ele>
        <time>2019-05-05T11:36:45.145Z</time>
      </trkpt>
      <trkpt lat="48.3309601" lon="15.9657415">
        <ele>181.711</ele>
        <time>2019-05-05T11:36:47.808Z</time>
      </trkpt>
      <trkpt lat="48.3309115" lon="15.9659229">
        <ele>181.813</ele>
        <time>2019-05-05T11:36:50.646Z</time>
      </trkpt>
      <trkpt lat="48.3308824" lon="15.9660595">
        <ele>181.968</ele>
        <time>2019-05-05T11:36:52.827Z</time>
      </trkpt>
      <trkpt lat="48.3308543" lon="15.9662145">
        <ele>182.142</ele>
        <time>2019-05-05T11:36:55.161Z</time>
      </trkpt>
      <trkpt lat="48.3308252" lon="15.9663890">
        <ele>182.282</ele>
        <time>2019-05-05T11:36:57.644Z</time>
      </trkpt>
      <trkpt lat="48.3307983" lon="15.9665603">
        <ele>182.337</ele>
        <time>2019-05-05T11:36:59.919Z</time>
      </trkpt>
      <trkpt lat="48.3307877" lon="15.9667070">
        <ele>182.269</ele>
        <time>2019-05-05T11:37:01.799Z</time>
      </trkpt>
      <trkpt lat="48.3307632" lon="15.9668487">
        <ele>182.101</ele>
        <time>2019-05-05T11:37:03.727Z</time>
      </trkpt>
      <trkpt lat="48.3307356" lon="15.9669849">
        <ele>181.928</ele>
        <time>2019-05-05T11:37:05.648Z</time>
      </trkpt>
      <trkpt lat="48.3307077" lon="15.9671495">
        <ele>181.818</ele>
        <time>2019-05-05T11:37:07.960Z</time>
      </trkpt>
      <trkpt lat="48.3306990" lon="15.9673120">
        <ele>181.742</ele>
        <time>2019-05-05T11:37:10.211Z</time>
      </trkpt>
      <trkpt lat="48.3306886" lon="15.9675050">
        <ele>181.630</ele>
        <time>2019-05-05T11:37:12.929Z</time>
      </trkpt>
      <trkpt lat="48.3306760" lon="15.9676793">
        <ele>181.466</ele>
        <time>2019-05-05T11:37:15.242Z</time>
      </trkpt>
      <trkpt lat="48.3306508" lon="15.9678326">
        <ele>181.312</ele>
        <time>2019-05-05T11:37:17.309Z</time>
      </trkpt>
      <trkpt lat="48.3306302" lon="15.9679811">
        <ele>181.229</ele>
        <time>2019-05-05T11:37:19.410Z</time>
      </trkpt>
      <trkpt lat="48.3306181" lon="15.9681302">
        <ele>181.220</ele>
        <time>2019-05-05T11:37:21.550Z</time>
      </trkpt>
      <trkpt lat="48.3306013" lon="15.9682984">
        <ele>181.264</ele>
        <time>2019-05-05T11:37:23.945Z</time>
      </trkpt>
      <trkpt lat="48.3305923" lon="15.9684427">
        <ele>181.330</ele>
        <time>2019-05-05T11:37:25.984Z</time>
      </trkpt>
      <trkpt lat="48.3305864" lon="15.9686133">
        <ele>181.396</ele>
        <time>2019-05-05T11:37:28.352Z</time>
      </trkpt>
      <trkpt lat="48.3305851" lon="15.9687878">
        <ele>181.453</ele>
        <time>2019-05-05T11:37:30.739Z</time>
      </trkpt>
      <trkpt lat="48.3305895" lon="15.9689341">
        <ele>181.499</ele>
        <time>2019-05-05T11:37:32.701Z</time>
      </trkpt>
      <trkpt lat="48.3306021" lon="15.9690766">
        <ele>181.529</ele>
        <time>2019-05-05T11:37:34.577Z</time>
      </trkpt>
      <trkpt lat="48.3306185" lon="15.9692321">
        <ele>181.543</ele>
        <time>2019-05-05T11:37:36.640Z</time>
      </trkpt>
      <trkpt lat="48.3306318" lon="15.9693792">
        <ele>181.542</ele>
        <time>2019-05-05T11:37:38.656Z</time>
      </trkpt>
      <trkpt lat="48.3306527" lon="15.9695320">
        <ele>181.523</ele>
        <time>2019-05-05T11:37:40.830Z</time>
      </trkpt>
      <trkpt lat="48.3306643" lon="15.9696709">
        <ele>181.483</ele>
        <time>2019-05-05T11:37:42.835Z</time>
      </trkpt>
      <trkpt lat="48.3306839" lon="15.9698231">
        <ele>181.429</ele>
        <time>2019-05-05T11:37:45.140Z</time>
      </trkpt>
      <trkpt lat="48.3307159" lon="15.9699698">
        <ele>181.375</ele>
        <time>2019-05-05T11:37:47.642Z</time>
      </trkpt>
      <trkpt lat="48.3307402" lon="15.9701221">
        <ele>181.346</ele>
        <time>2019-05-05T11:37:50.138Z</time>
      </trkpt>
      <trkpt lat="48.3307661" lon="15.9702602">
        <ele>181.369</ele>
        <time>2019-05-05T11:37:52.234Z</time>
      </trkpt>
      <trkpt lat="48.3307893" lon="15.9704147">
        <ele>181.452</ele>
        <time>2019-05-05T11:37:54.422Z</time>
      </trkpt>
      <trkpt lat="48.3308036" lon="15.9705566">
        <ele>181.555</ele>
        <time>2019-05-05T11:37:56.420Z</time>
      </trkpt>
      <trkpt lat="48.3308410" lon="15.9706966">
        <ele>181.630</ele>
        <time>2019-05-05T11:37:58.680Z</time>
      </trkpt>
      <trkpt lat="48.3308724" lon="15.9708677">
        <ele>181.665</ele>
        <time>2019-05-05T11:38:01.539Z</time>
      </trkpt>
      <trkpt lat="48.3309127" lon="15.9710441">
        <ele>181.666</ele>
        <time>2019-05-05T11:38:04.803Z</time>
      </trkpt>
      <trkpt lat="48.3309464" lon="15.9711715">
        <ele>181.629</ele>
        <time>2019-05-05T11:38:07.346Z</time>
      </trkpt>
      <trkpt lat="48.3309772" lon="15.9713253">
        <ele>181.553</ele>
        <time>2019-05-05T11:38:10.336Z</time>
      </trkpt>
      <trkpt lat="48.3309960" lon="15.9714763">
        <ele>181.452</ele>
        <time>2019-05-05T11:38:13.357Z</time>
      </trkpt>
      <trkpt lat="48.3310310" lon="15.9716133">
        <ele>181.341</ele>
        <time>2019-05-05T11:38:16.691Z</time>
      </trkpt>
      <trkpt lat="48.3310695" lon="15.9717433">
        <ele>181.236</ele>
        <time>2019-05-05T11:38:19.800Z</time>
      </trkpt>
      <trkpt lat="48.3311021" lon="15.9718705">
        <ele>181.136</ele>
        <time>2019-05-05T11:38:22.376Z</time>
      </trkpt>
      <trkpt lat="48.3311462" lon="15.9719925">
        <ele>181.032</ele>
        <time>2019-05-05T11:38:24.773Z</time>
      </trkpt>
      <trkpt lat="48.3312039" lon="15.9721549">
        <ele>180.916</ele>
        <time>2019-05-05T11:38:27.808Z</time>
      </trkpt>
      <trkpt lat="48.3312690" lon="15.9723061">
        <ele>180.795</ele>
        <time>2019-05-05T11:38:30.510Z</time>
      </trkpt>
      <trkpt lat="48.3313257" lon="15.9724921">
        <ele>180.697</ele>
        <time>2019-05-05T11:38:33.330Z</time>
      </trkpt>
      <trkpt lat="48.3313770" lon="15.9726568">
        <ele>180.667</ele>
        <time>2019-05-05T11:38:35.728Z</time>
      </trkpt>
      <trkpt lat="48.3314115" lon="15.9727989">
        <ele>180.734</ele>
        <time>2019-05-05T11:38:37.587Z</time>
      </trkpt>
      <trkpt lat="48.3314232" lon="15.9729367">
        <ele>180.896</ele>
        <time>2019-05-05T11:38:39.249Z</time>
      </trkpt>
      <trkpt lat="48.3313927" lon="15.9731033">
        <ele>181.127</ele>
        <time>2019-05-05T11:38:41.391Z</time>
      </trkpt>
      <trkpt lat="48.3313847" lon="15.9732740">
        <ele>181.365</ele>
        <time>2019-05-05T11:38:43.666Z</time>
      </trkpt>
      <trkpt lat="48.3313632" lon="15.9734449">
        <ele>181.549</ele>
        <time>2019-05-05T11:38:46.098Z</time>
      </trkpt>
      <trkpt lat="48.3313578" lon="15.9735843">
        <ele>181.657</ele>
        <time>2019-05-05T11:38:48.079Z</time>
      </trkpt>
      <trkpt lat="48.3313475" lon="15.9737286">
        <ele>181.704</ele>
        <time>2019-05-05T11:38:50.158Z</time>
      </trkpt>
      <trkpt lat="48.3313105" lon="15.9738748">
        <ele>181.724</ele>
        <time>2019-05-05T11:38:52.399Z</time>
      </trkpt>
      <trkpt lat="48.3312723" lon="15.9740053">
        <ele>181.736</ele>
        <time>2019-05-05T11:38:54.471Z</time>
      </trkpt>
      <trkpt lat="48.3312173" lon="15.9741315">
        <ele>181.731</ele>
        <time>2019-05-05T11:38:56.677Z</time>
      </trkpt>
      <trkpt lat="48.3311599" lon="15.9742375">
        <ele>181.681</ele>
        <time>2019-05-05T11:38:58.679Z</time>
      </trkpt>
      <trkpt lat="48.3311071" lon="15.9743600">
        <ele>181.578</ele>
        <time>2019-05-05T11:39:00.831Z</time>
      </trkpt>
      <trkpt lat="48.3310504" lon="15.9744721">
        <ele>181.447</ele>
        <time>2019-05-05T11:39:02.925Z</time>
      </trkpt>
      <trkpt lat="48.3309872" lon="15.9746390">
        <ele>181.300</ele>
        <time>2019-05-05T11:39:05.668Z</time>
      </trkpt>
      <trkpt lat="48.3309317" lon="15.9748012">
        <ele>181.157</ele>
        <time>2019-05-05T11:39:08.187Z</time>
      </trkpt>
      <trkpt lat="48.3308936" lon="15.9749317">
        <ele>181.068</ele>
        <time>2019-05-05T11:39:10.160Z</time>
      </trkpt>
      <trkpt lat="48.3308445" lon="15.9750565">
        <ele>181.052</ele>
        <time>2019-05-05T11:39:12.177Z</time>
      </trkpt>
      <trkpt lat="48.3307808" lon="15.9752428">
        <ele>181.042</ele>
        <time>2019-05-05T11:39:15.047Z</time>
      </trkpt>
      <trkpt lat="48.3307307" lon="15.9754188">
        <ele>180.989</ele>
        <time>2019-05-05T11:39:17.573Z</time>
      </trkpt>
      <trkpt lat="48.3306841" lon="15.9756125">
        <ele>180.923</ele>
        <time>2019-05-05T11:39:20.408Z</time>
      </trkpt>
      <trkpt lat="48.3306340" lon="15.9758305">
        <ele>180.900</ele>
        <time>2019-05-05T11:39:23.762Z</time>
      </trkpt>
      <trkpt lat="48.3305893" lon="15.9760285">
        <ele>180.922</ele>
        <time>2019-05-05T11:39:26.900Z</time>
      </trkpt>
      <trkpt lat="48.3305408" lon="15.9762344">
        <ele>180.926</ele>
        <time>2019-05-05T11:39:30.112Z</time>
      </trkpt>
      <trkpt lat="48.3305109" lon="15.9764574">
        <ele>180.862</ele>
        <time>2019-05-05T11:39:33.252Z</time>
      </trkpt>
      <trkpt lat="48.3304665" lon="15.9766673">
        <ele>180.781</ele>
        <time>2019-05-05T11:39:36.135Z</time>
      </trkpt>
      <trkpt lat="48.3304361" lon="15.9768650">
        <ele>180.752</ele>
        <time>2019-05-05T11:39:38.605Z</time>
      </trkpt>
      <trkpt lat="48.3304077" lon="15.9769982">
        <ele>180.802</ele>
        <time>2019-05-05T11:39:40.199Z</time>
      </trkpt>
      <trkpt lat="48.3303817" lon="15.9771760">
        <ele>180.910</ele>
        <time>2019-05-05T11:39:42.253Z</time>
      </trkpt>
      <trkpt lat="48.3303558" lon="15.9773641">
        <ele>181.035</ele>
        <time>2019-05-05T11:39:44.417Z</time>
      </trkpt>
      <trkpt lat="48.3303428" lon="15.9775019">
        <ele>181.156</ele>
        <time>2019-05-05T11:39:46.031Z</time>
      </trkpt>
      <trkpt lat="48.3303249" lon="15.9776391">
        <ele>181.261</ele>
        <time>2019-05-05T11:39:47.724Z</time>
      </trkpt>
      <trkpt lat="48.3303174" lon="15.9777853">
        <ele>181.342</ele>
        <time>2019-05-05T11:39:49.581Z</time>
      </trkpt>
      <trkpt lat="48.3303010" lon="15.9779432">
        <ele>181.403</ele>
        <time>2019-05-05T11:39:51.650Z</time>
      </trkpt>
      <trkpt lat="48.3302872" lon="15.9781165">
        <ele>181.457</ele>
        <time>2019-05-05T11:39:53.901Z</time>
      </trkpt>
      <trkpt lat="48.3302744" lon="15.9782835">
        <ele>181.512</ele>
        <time>2019-05-05T11:39:56.017Z</time>
      </trkpt>
      <trkpt lat="48.3302593" lon="15.9784569">
        <ele>181.570</ele>
        <time>2019-05-05T11:39:58.245Z</time>
      </trkpt>
      <trkpt lat="48.3302427" lon="15.9786245">
        <ele>181.620</ele>
        <time>2019-05-05T11:40:00.474Z</time>
      </trkpt>
      <trkpt lat="48.3302306" lon="15.9787708">
        <ele>181.651</ele>
        <time>2019-05-05T11:40:02.466Z</time>
      </trkpt>
      <trkpt lat="48.3302180" lon="15.9789152">
        <ele>181.649</ele>
        <time>2019-05-05T11:40:04.483Z</time>
      </trkpt>
      <trkpt lat="48.3301962" lon="15.9790536">
        <ele>181.576</ele>
        <time>2019-05-05T11:40:06.478Z</time>
      </trkpt>
      <trkpt lat="48.3301652" lon="15.9791921">
        <ele>181.399</ele>
        <time>2019-05-05T11:40:08.567Z</time>
      </trkpt>
      <trkpt lat="48.3301645" lon="15.9793531">
        <ele>181.157</ele>
        <time>2019-05-05T11:40:10.762Z</time>
      </trkpt>
      <trkpt lat="48.3301714" lon="15.9795060">
        <ele>180.934</ele>
        <time>2019-05-05T11:40:12.771Z</time>
      </trkpt>
      <trkpt lat="48.3301706" lon="15.9796567">
        <ele>180.778</ele>
        <time>2019-05-05T11:40:14.635Z</time>
      </trkpt>
      <trkpt lat="48.3301559" lon="15.9797999">
        <ele>180.694</ele>
        <time>2019-05-05T11:40:16.382Z</time>
      </trkpt>
      <trkpt lat="48.3301413" lon="15.9799431">
        <ele>180.664</ele>
        <time>2019-05-05T11:40:18.128Z</time>
      </trkpt>
      <trkpt lat="48.3301317" lon="15.9801266">
        <ele>180.661</ele>
        <time>2019-05-05T11:40:20.400Z</time>
      </trkpt>
      <trkpt lat="48.3301083" lon="15.9803189">
        <ele>180.665</ele>
        <time>2019-05-05T11:40:22.868Z</time>
      </trkpt>
      <trkpt lat="48.3300506" lon="15.9805032">
        <ele>180.668</ele>
        <time>2019-05-05T11:40:25.470Z</time>
      </trkpt>
      <trkpt lat="48.3300156" lon="15.9806412">
        <ele>180.657</ele>
        <time>2019-05-05T11:40:27.321Z</time>
      </trkpt>
      <trkpt lat="48.3299637" lon="15.9807895">
        <ele>180.625</ele>
        <time>2019-05-05T11:40:29.392Z</time>
      </trkpt>
      <trkpt lat="48.3298880" lon="15.9810140">
        <ele>180.588</ele>
        <time>2019-05-05T11:40:32.515Z</time>
      </trkpt>
      <trkpt lat="48.3298270" lon="15.9811996">
        <ele>180.561</ele>
        <time>2019-05-05T11:40:35.155Z</time>
      </trkpt>
      <trkpt lat="48.3297675" lon="15.9813258">
        <ele>180.514</ele>
        <time>2019-05-05T11:40:37.146Z</time>
      </trkpt>
      <trkpt lat="48.3297119" lon="15.9814578">
        <ele>180.432</ele>
        <time>2019-05-05T11:40:39.149Z</time>
      </trkpt>
      <trkpt lat="48.3296492" lon="15.9815688">
        <ele>180.375</ele>
        <time>2019-05-05T11:40:40.989Z</time>
      </trkpt>
      <trkpt lat="48.3295838" lon="15.9816932">
        <ele>180.405</ele>
        <time>2019-05-05T11:40:42.937Z</time>
      </trkpt>
      <trkpt lat="48.3295308" lon="15.9818273">
        <ele>180.500</ele>
        <time>2019-05-05T11:40:44.804Z</time>
      </trkpt>
      <trkpt lat="48.3294853" lon="15.9819585">
        <ele>180.596</ele>
        <time>2019-05-05T11:40:46.548Z</time>
      </trkpt>
      <trkpt lat="48.3294555" lon="15.9821117">
        <ele>180.652</ele>
        <time>2019-05-05T11:40:48.420Z</time>
      </trkpt>
      <trkpt lat="48.3294266" lon="15.9822527">
        <ele>180.670</ele>
        <time>2019-05-05T11:40:50.176Z</time>
      </trkpt>
      <trkpt lat="48.3293831" lon="15.9823819">
        <ele>180.668</ele>
        <time>2019-05-05T11:40:51.959Z</time>
      </trkpt>
      <trkpt lat="48.3293273" lon="15.9825078">
        <ele>180.662</ele>
        <time>2019-05-05T11:40:53.897Z</time>
      </trkpt>
      <trkpt lat="48.3292669" lon="15.9826365">
        <ele>180.661</ele>
        <time>2019-05-05T11:40:56.003Z</time>
      </trkpt>
      <trkpt lat="48.3291750" lon="15.9827517">
        <ele>180.663</ele>
        <time>2019-05-05T11:40:58.406Z</time>
      </trkpt>
      <trkpt lat="48.3291093" lon="15.9828865">
        <ele>180.666</ele>
        <time>2019-05-05T11:41:00.607Z</time>
      </trkpt>
      <trkpt lat="48.3290183" lon="15.9829754">
        <ele>180.668</ele>
        <time>2019-05-05T11:41:02.675Z</time>
      </trkpt>
      <trkpt lat="48.3289386" lon="15.9830665">
        <ele>180.669</ele>
        <time>2019-05-05T11:41:04.561Z</time>
      </trkpt>
      <trkpt lat="48.3288699" lon="15.9831632">
        <ele>180.669</ele>
        <time>2019-05-05T11:41:06.352Z</time>
      </trkpt>
      <trkpt lat="48.3287906" lon="15.9833141">
        <ele>180.669</ele>
        <time>2019-05-05T11:41:08.820Z</time>
      </trkpt>
      <trkpt lat="48.3287089" lon="15.9834879">
        <ele>180.668</ele>
        <time>2019-05-05T11:41:11.528Z</time>
      </trkpt>
      <trkpt lat="48.3286327" lon="15.9835940">
        <ele>180.668</ele>
        <time>2019-05-05T11:41:13.458Z</time>
      </trkpt>
      <trkpt lat="48.3285661" lon="15.9837113">
        <ele>180.668</ele>
        <time>2019-05-05T11:41:15.342Z</time>
      </trkpt>
      <trkpt lat="48.3284947" lon="15.9837999">
        <ele>180.668</ele>
        <time>2019-05-05T11:41:17.040Z</time>
      </trkpt>
      <trkpt lat="48.3284178" lon="15.9838970">
        <ele>180.668</ele>
        <time>2019-05-05T11:41:18.868Z</time>
      </trkpt>
      <trkpt lat="48.3283449" lon="15.9839840">
        <ele>180.668</ele>
        <time>2019-05-05T11:41:20.551Z</time>
      </trkpt>
      <trkpt lat="48.3282562" lon="15.9840742">
        <ele>180.668</ele>
        <time>2019-05-05T11:41:22.574Z</time>
      </trkpt>
      <trkpt lat="48.3281821" lon="15.9841692">
        <ele>180.668</ele>
        <time>2019-05-05T11:41:24.603Z</time>
      </trkpt>
      <trkpt lat="48.3281053" lon="15.9842679">
        <ele>180.668</ele>
        <time>2019-05-05T11:41:26.913Z</time>
      </trkpt>
      <trkpt lat="48.3280332" lon="15.9843625">
        <ele>180.668</ele>
        <time>2019-05-05T11:41:29.283Z</time>
      </trkpt>
      <trkpt lat="48.3279378" lon="15.9844711">
        <ele>180.668</ele>
        <time>2019-05-05T11:41:32.521Z</time>
      </trkpt>
      <trkpt lat="48.3278633" lon="15.9845566">
        <ele>180.668</ele>
        <time>2019-05-05T11:41:34.938Z</time>
      </trkpt>
      <trkpt lat="48.3277603" lon="15.9846499">
        <ele>180.653</ele>
        <time>2019-05-05T11:41:37.616Z</time>
      </trkpt>
      <trkpt lat="48.3276670" lon="15.9847338">
        <ele>180.567</ele>
        <time>2019-05-05T11:41:39.789Z</time>
      </trkpt>
      <trkpt lat="48.3275678" lon="15.9848209">
        <ele>180.376</ele>
        <time>2019-05-05T11:41:41.963Z</time>
      </trkpt>
      <trkpt lat="48.3275179" lon="15.9849772">
        <ele>180.115</ele>
        <time>2019-05-05T11:41:44.153Z</time>
      </trkpt>
      <trkpt lat="48.3275515" lon="15.9851817">
        <ele>179.870</ele>
        <time>2019-05-05T11:41:46.839Z</time>
      </trkpt>
      <trkpt lat="48.3276135" lon="15.9853661">
        <ele>179.687</ele>
        <time>2019-05-05T11:41:49.490Z</time>
      </trkpt>
      <trkpt lat="48.3276637" lon="15.9854894">
        <ele>179.490</ele>
        <time>2019-05-05T11:41:51.367Z</time>
      </trkpt>
      <trkpt lat="48.3277155" lon="15.9856093">
        <ele>179.206</ele>
        <time>2019-05-05T11:41:53.228Z</time>
      </trkpt>
      <trkpt lat="48.3277570" lon="15.9857370">
        <ele>178.919</ele>
        <time>2019-05-05T11:41:55.084Z</time>
      </trkpt>
      <trkpt lat="48.3278002" lon="15.9858677">
        <ele>178.731</ele>
        <time>2019-05-05T11:41:56.985Z</time>
      </trkpt>
      <trkpt lat="48.3278556" lon="15.9859862">
        <ele>178.646</ele>
        <time>2019-05-05T11:41:58.856Z</time>
      </trkpt>
      <trkpt lat="48.3279043" lon="15.9861082">
        <ele>178.629</ele>
        <time>2019-05-05T11:42:00.676Z</time>
      </trkpt>
      <trkpt lat="48.3279454" lon="15.9862314">
        <ele>178.641</ele>
        <time>2019-05-05T11:42:02.431Z</time>
      </trkpt>
      <trkpt lat="48.3279920" lon="15.9863640">
        <ele>178.658</ele>
        <time>2019-05-05T11:42:04.344Z</time>
      </trkpt>
      <trkpt lat="48.3280378" lon="15.9865010">
        <ele>178.669</ele>
        <time>2019-05-05T11:42:06.303Z</time>
      </trkpt>
      <trkpt lat="48.3280809" lon="15.9866415">
        <ele>178.679</ele>
        <time>2019-05-05T11:42:08.248Z</time>
      </trkpt>
      <trkpt lat="48.3281075" lon="15.9867820">
        <ele>178.735</ele>
        <time>2019-05-05T11:42:10.039Z</time>
      </trkpt>
      <trkpt lat="48.3281276" lon="15.9869344">
        <ele>178.907</ele>
        <time>2019-05-05T11:42:11.918Z</time>
      </trkpt>
      <trkpt lat="48.3281396" lon="15.9870789">
        <ele>179.180</ele>
        <time>2019-05-05T11:42:13.688Z</time>
      </trkpt>
      <trkpt lat="48.3281464" lon="15.9872301">
        <ele>179.444</ele>
        <time>2019-05-05T11:42:15.542Z</time>
      </trkpt>
      <trkpt lat="48.3281420" lon="15.9873843">
        <ele>179.610</ele>
        <time>2019-05-05T11:42:17.398Z</time>
      </trkpt>
      <trkpt lat="48.3281321" lon="15.9875320">
        <ele>179.677</ele>
        <time>2019-05-05T11:42:19.107Z</time>
      </trkpt>
      <trkpt lat="48.3281257" lon="15.9876767">
        <ele>179.688</ele>
        <time>2019-05-05T11:42:20.715Z</time>
      </trkpt>
      <trkpt lat="48.3281163" lon="15.9878192">
        <ele>179.680</ele>
        <time>2019-05-05T11:42:22.327Z</time>
      </trkpt>
      <trkpt lat="48.3281044" lon="15.9879715">
        <ele>179.671</ele>
        <time>2019-05-05T11:42:24.095Z</time>
      </trkpt>
      <trkpt lat="48.3281004" lon="15.9881443">
        <ele>179.668</ele>
        <time>2019-05-05T11:42:26.113Z</time>
      </trkpt>
      <trkpt lat="48.3281038" lon="15.9883142">
        <ele>179.668</ele>
        <time>2019-05-05T11:42:28.074Z</time>
      </trkpt>
      <trkpt lat="48.3281165" lon="15.9884617">
        <ele>179.669</ele>
        <time>2019-05-05T11:42:29.758Z</time>
      </trkpt>
      <trkpt lat="48.3281494" lon="15.9886144">
        <ele>179.668</ele>
        <time>2019-05-05T11:42:31.558Z</time>
      </trkpt>
      <trkpt lat="48.3281961" lon="15.9887619">
        <ele>179.652</ele>
        <time>2019-05-05T11:42:33.387Z</time>
      </trkpt>
      <trkpt lat="48.3282559" lon="15.9889108">
        <ele>179.603</ele>
        <time>2019-05-05T11:42:35.345Z</time>
      </trkpt>
      <trkpt lat="48.3283292" lon="15.9890344">
        <ele>179.535</ele>
        <time>2019-05-05T11:42:37.228Z</time>
      </trkpt>
      <trkpt lat="48.3283986" lon="15.9891750">
        <ele>179.500</ele>
        <time>2019-05-05T11:42:39.231Z</time>
      </trkpt>
      <trkpt lat="48.3284546" lon="15.9893119">
        <ele>179.522</ele>
        <time>2019-05-05T11:42:41.052Z</time>
      </trkpt>
      <trkpt lat="48.3285079" lon="15.9894453">
        <ele>179.548</ele>
        <time>2019-05-05T11:42:42.765Z</time>
      </trkpt>
      <trkpt lat="48.3285355" lon="15.9896072">
        <ele>179.506</ele>
        <time>2019-05-05T11:42:44.564Z</time>
      </trkpt>
      <trkpt lat="48.3285433" lon="15.9897690">
        <ele>179.405</ele>
        <time>2019-05-05T11:42:46.321Z</time>
      </trkpt>
      <trkpt lat="48.3285685" lon="15.9899336">
        <ele>179.325</ele>
        <time>2019-05-05T11:42:48.167Z</time>
      </trkpt>
      <trkpt lat="48.3285968" lon="15.9901034">
        <ele>179.308</ele>
        <time>2019-05-05T11:42:50.086Z</time>
      </trkpt>
      <trkpt lat="48.3286156" lon="15.9902720">
        <ele>179.278</ele>
        <time>2019-05-05T11:42:51.955Z</time>
      </trkpt>
      <trkpt lat="48.3286400" lon="15.9904288">
        <ele>179.145</ele>
        <time>2019-05-05T11:42:53.719Z</time>
      </trkpt>
      <trkpt lat="48.3286747" lon="15.9905789">
        <ele>178.943</ele>
        <time>2019-05-05T11:42:55.483Z</time>
      </trkpt>
      <trkpt lat="48.3287092" lon="15.9907413">
        <ele>178.778</ele>
        <time>2019-05-05T11:42:57.418Z</time>
      </trkpt>
      <trkpt lat="48.3287650" lon="15.9908828">
        <ele>178.700</ele>
        <time>2019-05-05T11:42:59.303Z</time>
      </trkpt>
      <trkpt lat="48.3288348" lon="15.9910053">
        <ele>178.712</ele>
        <time>2019-05-05T11:43:01.149Z</time>
      </trkpt>
      <trkpt lat="48.3289098" lon="15.9911109">
        <ele>178.819</ele>
        <time>2019-05-05T11:43:02.923Z</time>
      </trkpt>
      <trkpt lat="48.3290050" lon="15.9911992">
        <ele>179.016</ele>
        <time>2019-05-05T11:43:04.879Z</time>
      </trkpt>
      <trkpt lat="48.3291109" lon="15.9912769">
        <ele>179.230</ele>
        <time>2019-05-05T11:43:06.887Z</time>
      </trkpt>
      <trkpt lat="48.3292124" lon="15.9913425">
        <ele>179.337</ele>
        <time>2019-05-05T11:43:08.735Z</time>
      </trkpt>
      <trkpt lat="48.3293219" lon="15.9913852">
        <ele>179.261</ele>
        <time>2019-05-05T11:43:10.747Z</time>
      </trkpt>
      <trkpt lat="48.3294269" lon="15.9914133">
        <ele>179.054</ele>
        <time>2019-05-05T11:43:12.896Z</time>
      </trkpt>
      <trkpt lat="48.3295249" lon="15.9914227">
        <ele>178.839</ele>
        <time>2019-05-05T11:43:14.958Z</time>
      </trkpt>
      <trkpt lat="48.3296590" lon="15.9914537">
        <ele>178.699</ele>
        <time>2019-05-05T11:43:17.899Z</time>
      </trkpt>
      <trkpt lat="48.3297551" lon="15.9914887">
        <ele>178.598</ele>
        <time>2019-05-05T11:43:20.060Z</time>
      </trkpt>
      <trkpt lat="48.3298813" lon="15.9915487">
        <ele>178.458</ele>
        <time>2019-05-05T11:43:22.971Z</time>
      </trkpt>
      <trkpt lat="48.3299797" lon="15.9916225">
        <ele>178.253</ele>
        <time>2019-05-05T11:43:25.406Z</time>
      </trkpt>
      <trkpt lat="48.3300668" lon="15.9916779">
        <ele>178.019</ele>
        <time>2019-05-05T11:43:27.447Z</time>
      </trkpt>
      <trkpt lat="48.3301746" lon="15.9917300">
        <ele>177.811</ele>
        <time>2019-05-05T11:43:29.764Z</time>
      </trkpt>
      <trkpt lat="48.3302716" lon="15.9917896">
        <ele>177.657</ele>
        <time>2019-05-05T11:43:31.773Z</time>
      </trkpt>
      <trkpt lat="48.3303697" lon="15.9918487">
        <ele>177.556</ele>
        <time>2019-05-05T11:43:33.696Z</time>
      </trkpt>
      <trkpt lat="48.3304894" lon="15.9919207">
        <ele>177.503</ele>
        <time>2019-05-05T11:43:35.970Z</time>
      </trkpt>
      <trkpt lat="48.3305879" lon="15.9920143">
        <ele>177.471</ele>
        <time>2019-05-05T11:43:38.005Z</time>
      </trkpt>
      <trkpt lat="48.3306855" lon="15.9921101">
        <ele>177.421</ele>
        <time>2019-05-05T11:43:40.060Z</time>
      </trkpt>
      <trkpt lat="48.3307833" lon="15.9922203">
        <ele>177.345</ele>
        <time>2019-05-05T11:43:42.294Z</time>
      </trkpt>
      <trkpt lat="48.3308672" lon="15.9923304">
        <ele>177.348</ele>
        <time>2019-05-05T11:43:44.434Z</time>
      </trkpt>
      <trkpt lat="48.3309356" lon="15.9924421">
        <ele>177.570</ele>
        <time>2019-05-05T11:43:46.350Z</time>
      </trkpt>
      <trkpt lat="48.3309719" lon="15.9926003">
        <ele>177.946</ele>
        <time>2019-05-05T11:43:48.324Z</time>
      </trkpt>
      <trkpt lat="48.3309812" lon="15.9927632">
        <ele>178.247</ele>
        <time>2019-05-05T11:43:50.133Z</time>
      </trkpt>
      <trkpt lat="48.3309844" lon="15.9929359">
        <ele>178.357</ele>
        <time>2019-05-05T11:43:51.984Z</time>
      </trkpt>
      <trkpt lat="48.3309786" lon="15.9931176">
        <ele>178.315</ele>
        <time>2019-05-05T11:43:53.910Z</time>
      </trkpt>
      <trkpt lat="48.3309610" lon="15.9932957">
        <ele>178.181</ele>
        <time>2019-05-05T11:43:55.798Z</time>
      </trkpt>
      <trkpt lat="48.3309499" lon="15.9934899">
        <ele>178.000</ele>
        <time>2019-05-05T11:43:57.815Z</time>
      </trkpt>
      <trkpt lat="48.3309352" lon="15.9936834">
        <ele>177.836</ele>
        <time>2019-05-05T11:43:59.835Z</time>
      </trkpt>
      <trkpt lat="48.3309250" lon="15.9938648">
        <ele>177.756</ele>
        <time>2019-05-05T11:44:01.748Z</time>
      </trkpt>
      <trkpt lat="48.3309079" lon="15.9940503">
        <ele>177.767</ele>
        <time>2019-05-05T11:44:03.739Z</time>
      </trkpt>
      <trkpt lat="48.3308940" lon="15.9942439">
        <ele>177.837</ele>
        <time>2019-05-05T11:44:05.837Z</time>
      </trkpt>
      <trkpt lat="48.3308813" lon="15.9944238">
        <ele>177.915</ele>
        <time>2019-05-05T11:44:07.820Z</time>
      </trkpt>
      <trkpt lat="48.3308632" lon="15.9945872">
        <ele>177.981</ele>
        <time>2019-05-05T11:44:09.700Z</time>
      </trkpt>
      <trkpt lat="48.3308434" lon="15.9947587">
        <ele>178.059</ele>
        <time>2019-05-05T11:44:11.768Z</time>
      </trkpt>
      <trkpt lat="48.3308358" lon="15.9949098">
        <ele>178.179</ele>
        <time>2019-05-05T11:44:13.599Z</time>
      </trkpt>
      <trkpt lat="48.3308328" lon="15.9950681">
        <ele>178.328</ele>
        <time>2019-05-05T11:44:15.478Z</time>
      </trkpt>
      <trkpt lat="48.3308099" lon="15.9952283">
        <ele>178.470</ele>
        <time>2019-05-05T11:44:17.364Z</time>
      </trkpt>
      <trkpt lat="48.3307784" lon="15.9953721">
        <ele>178.577</ele>
        <time>2019-05-05T11:44:19.112Z</time>
      </trkpt>
      <trkpt lat="48.3307407" lon="15.9955546">
        <ele>178.640</ele>
        <time>2019-05-05T11:44:21.370Z</time>
      </trkpt>
      <trkpt lat="48.3306757" lon="15.9957312">
        <ele>178.667</ele>
        <time>2019-05-05T11:44:23.698Z</time>
      </trkpt>
      <trkpt lat="48.3306001" lon="15.9958610">
        <ele>178.663</ele>
        <time>2019-05-05T11:44:25.671Z</time>
      </trkpt>
      <trkpt lat="48.3305133" lon="15.9959787">
        <ele>178.620</ele>
        <time>2019-05-05T11:44:27.746Z</time>
      </trkpt>
      <trkpt lat="48.3304141" lon="15.9960825">
        <ele>178.541</ele>
        <time>2019-05-05T11:44:29.938Z</time>
      </trkpt>
      <trkpt lat="48.3303117" lon="15.9961570">
        <ele>178.432</ele>
        <time>2019-05-05T11:44:31.995Z</time>
      </trkpt>
      <trkpt lat="48.3302235" lon="15.9962513">
        <ele>178.268</ele>
        <time>2019-05-05T11:44:33.956Z</time>
      </trkpt>
      <trkpt lat="48.3301228" lon="15.9963394">
        <ele>178.051</ele>
        <time>2019-05-05T11:44:36.092Z</time>
      </trkpt>
      <trkpt lat="48.3300308" lon="15.9964325">
        <ele>177.850</ele>
        <time>2019-05-05T11:44:38.111Z</time>
      </trkpt>
      <trkpt lat="48.3299401" lon="15.9965174">
        <ele>177.722</ele>
        <time>2019-05-05T11:44:40.006Z</time>
      </trkpt>
      <trkpt lat="48.3298525" lon="15.9966080">
        <ele>177.668</ele>
        <time>2019-05-05T11:44:41.864Z</time>
      </trkpt>
      <trkpt lat="48.3297564" lon="15.9967142">
        <ele>177.659</ele>
        <time>2019-05-05T11:44:43.974Z</time>
      </trkpt>
      <trkpt lat="48.3296870" lon="15.9968463">
        <ele>177.665</ele>
        <time>2019-05-05T11:44:45.985Z</time>
      </trkpt>
      <trkpt lat="48.3296143" lon="15.9969679">
        <ele>177.697</ele>
        <time>2019-05-05T11:44:47.913Z</time>
      </trkpt>
      <trkpt lat="48.3295422" lon="15.9970792">
        <ele>177.814</ele>
        <time>2019-05-05T11:44:49.701Z</time>
      </trkpt>
      <trkpt lat="48.3294676" lon="15.9972286">
        <ele>178.045</ele>
        <time>2019-05-05T11:44:51.821Z</time>
      </trkpt>
      <trkpt lat="48.3293962" lon="15.9973893">
        <ele>178.322</ele>
        <time>2019-05-05T11:44:54.017Z</time>
      </trkpt>
      <trkpt lat="48.3293492" lon="15.9975673">
        <ele>178.538</ele>
        <time>2019-05-05T11:44:56.215Z</time>
      </trkpt>
      <trkpt lat="48.3293210" lon="15.9977430">
        <ele>178.652</ele>
        <time>2019-05-05T11:44:58.298Z</time>
      </trkpt>
      <trkpt lat="48.3292881" lon="15.9978996">
        <ele>178.707</ele>
        <time>2019-05-05T11:45:00.181Z</time>
      </trkpt>
      <trkpt lat="48.3292751" lon="15.9980626">
        <ele>178.788</ele>
        <time>2019-05-05T11:45:02.053Z</time>
      </trkpt>
      <trkpt lat="48.3292644" lon="15.9982276">
        <ele>178.913</ele>
        <time>2019-05-05T11:45:03.933Z</time>
      </trkpt>
      <trkpt lat="48.3292574" lon="15.9984120">
        <ele>179.033</ele>
        <time>2019-05-05T11:45:05.999Z</time>
      </trkpt>
      <trkpt lat="48.3292555" lon="15.9985777">
        <ele>179.133</ele>
        <time>2019-05-05T11:45:07.826Z</time>
      </trkpt>
      <trkpt lat="48.3292595" lon="15.9987492">
        <ele>179.225</ele>
        <time>2019-05-05T11:45:09.707Z</time>
      </trkpt>
      <trkpt lat="48.3292644" lon="15.9989338">
        <ele>179.240</ele>
        <time>2019-05-05T11:45:11.733Z</time>
      </trkpt>
      <trkpt lat="48.3292567" lon="15.9991097">
        <ele>179.116</ele>
        <time>2019-05-05T11:45:13.666Z</time>
      </trkpt>
      <trkpt lat="48.3292557" lon="15.9992922">
        <ele>178.917</ele>
        <time>2019-05-05T11:45:15.661Z</time>
      </trkpt>
      <trkpt lat="48.3292376" lon="15.9994767">
        <ele>178.758</ele>
        <time>2019-05-05T11:45:17.653Z</time>
      </trkpt>
      <trkpt lat="48.3292296" lon="15.9996447">
        <ele>178.678</ele>
        <time>2019-05-05T11:45:19.390Z</time>
      </trkpt>
      <trkpt lat="48.3291877" lon="15.9998319">
        <ele>178.655</ele>
        <time>2019-05-05T11:45:21.404Z</time>
      </trkpt>
      <trkpt lat="48.3291382" lon="16.0000239">
        <ele>178.659</ele>
        <time>2019-05-05T11:45:23.600Z</time>
      </trkpt>
      <trkpt lat="48.3290711" lon="16.0001819">
        <ele>178.667</ele>
        <time>2019-05-05T11:45:25.723Z</time>
      </trkpt>
      <trkpt lat="48.3289969" lon="16.0003318">
        <ele>178.672</ele>
        <time>2019-05-05T11:45:27.915Z</time>
      </trkpt>
      <trkpt lat="48.3289382" lon="16.0004549">
        <ele>178.673</ele>
        <time>2019-05-05T11:45:29.720Z</time>
      </trkpt>
      <trkpt lat="48.3288663" lon="16.0005819">
        <ele>178.672</ele>
        <time>2019-05-05T11:45:31.720Z</time>
      </trkpt>
      <trkpt lat="48.3287922" lon="16.0007155">
        <ele>178.671</ele>
        <time>2019-05-05T11:45:33.781Z</time>
      </trkpt>
      <trkpt lat="48.3287235" lon="16.0008554">
        <ele>178.671</ele>
        <time>2019-05-05T11:45:35.774Z</time>
      </trkpt>
      <trkpt lat="48.3286634" lon="16.0009850">
        <ele>178.671</ele>
        <time>2019-05-05T11:45:37.557Z</time>
      </trkpt>
      <trkpt lat="48.3285929" lon="16.0011175">
        <ele>178.671</ele>
        <time>2019-05-05T11:45:39.459Z</time>
      </trkpt>
      <trkpt lat="48.3285113" lon="16.0012576">
        <ele>178.671</ele>
        <time>2019-05-05T11:45:41.505Z</time>
      </trkpt>
      <trkpt lat="48.3284395" lon="16.0013894">
        <ele>178.660</ele>
        <time>2019-05-05T11:45:43.353Z</time>
      </trkpt>
      <trkpt lat="48.3283545" lon="16.0015188">
        <ele>178.609</ele>
        <time>2019-05-05T11:45:45.325Z</time>
      </trkpt>
      <trkpt lat="48.3282602" lon="16.0016449">
        <ele>178.519</ele>
        <time>2019-05-05T11:45:47.372Z</time>
      </trkpt>
      <trkpt lat="48.3281763" lon="16.0017777">
        <ele>178.437</ele>
        <time>2019-05-05T11:45:49.346Z</time>
      </trkpt>
      <trkpt lat="48.3280936" lon="16.0019123">
        <ele>177.660</ele>
        <time>2019-05-05T11:45:51.304Z</time>
      </trkpt>
      <trkpt lat="48.3280187" lon="16.0020436">
        <ele>175.315</ele>
        <time>2019-05-05T11:45:53.119Z</time>
      </trkpt>
      <trkpt lat="48.3279427" lon="16.0021832">
        <ele>172.024</ele>
        <time>2019-05-05T11:45:54.980Z</time>
      </trkpt>
      <trkpt lat="48.3278705" lon="16.0023208">
        <ele>169.363</ele>
        <time>2019-05-05T11:45:56.754Z</time>
      </trkpt>
      <trkpt lat="48.3277827" lon="16.0024700">
        <ele>169.234</ele>
        <time>2019-05-05T11:45:58.751Z</time>
      </trkpt>
      <trkpt lat="48.3277054" lon="16.0026271">
        <ele>172.201</ele>
        <time>2019-05-05T11:46:00.700Z</time>
      </trkpt>
      <trkpt lat="48.3276309" lon="16.0027924">
        <ele>175.929</ele>
        <time>2019-05-05T11:46:02.728Z</time>
      </trkpt>
      <trkpt lat="48.3275642" lon="16.0029602">
        <ele>178.112</ele>
        <time>2019-05-05T11:46:04.769Z</time>
      </trkpt>
      <trkpt lat="48.3275052" lon="16.0031107">
        <ele>178.785</ele>
        <time>2019-05-05T11:46:06.601Z</time>
      </trkpt>
      <trkpt lat="48.3274526" lon="16.0032653">
        <ele>178.715</ele>
        <time>2019-05-05T11:46:08.423Z</time>
      </trkpt>
      <trkpt lat="48.3273744" lon="16.0035123">
        <ele>178.479</ele>
        <time>2019-05-05T11:46:11.291Z</time>
      </trkpt>
      <trkpt lat="48.3273186" lon="16.0036648">
        <ele>178.334</ele>
        <time>2019-05-05T11:46:13.133Z</time>
      </trkpt>
      <trkpt lat="48.3272721" lon="16.0038472">
        <ele>178.362</ele>
        <time>2019-05-05T11:46:15.259Z</time>
      </trkpt>
      <trkpt lat="48.3272375" lon="16.0040215">
        <ele>178.543</ele>
        <time>2019-05-05T11:46:17.312Z</time>
      </trkpt>
      <trkpt lat="48.3272112" lon="16.0041914">
        <ele>178.750</ele>
        <time>2019-05-05T11:46:19.346Z</time>
      </trkpt>
      <trkpt lat="48.3271788" lon="16.0043727">
        <ele>178.834</ele>
        <time>2019-05-05T11:46:21.610Z</time>
      </trkpt>
      <trkpt lat="48.3271473" lon="16.0045256">
        <ele>178.728</ele>
        <time>2019-05-05T11:46:23.623Z</time>
      </trkpt>
      <trkpt lat="48.3271009" lon="16.0046905">
        <ele>178.495</ele>
        <time>2019-05-05T11:46:25.978Z</time>
      </trkpt>
      <trkpt lat="48.3270658" lon="16.0048566">
        <ele>178.268</ele>
        <time>2019-05-05T11:46:28.470Z</time>
      </trkpt>
      <trkpt lat="48.3270423" lon="16.0050143">
        <ele>178.126</ele>
        <time>2019-05-05T11:46:30.833Z</time>
      </trkpt>
      <trkpt lat="48.3270228" lon="16.0051492">
        <ele>178.067</ele>
        <time>2019-05-05T11:46:32.685Z</time>
      </trkpt>
      <trkpt lat="48.3270130" lon="16.0052873">
        <ele>178.057</ele>
        <time>2019-05-05T11:46:34.374Z</time>
      </trkpt>
      <trkpt lat="48.3269926" lon="16.0054492">
        <ele>178.063</ele>
        <time>2019-05-05T11:46:36.245Z</time>
      </trkpt>
      <trkpt lat="48.3269572" lon="16.0056241">
        <ele>178.070</ele>
        <time>2019-05-05T11:46:38.291Z</time>
      </trkpt>
      <trkpt lat="48.3269190" lon="16.0057943">
        <ele>178.073</ele>
        <time>2019-05-05T11:46:40.302Z</time>
      </trkpt>
      <trkpt lat="48.3268995" lon="16.0059706">
        <ele>178.073</ele>
        <time>2019-05-05T11:46:42.342Z</time>
      </trkpt>
      <trkpt lat="48.3268766" lon="16.0061616">
        <ele>178.072</ele>
        <time>2019-05-05T11:46:44.597Z</time>
      </trkpt>
      <trkpt lat="48.3268654" lon="16.0063358">
        <ele>178.072</ele>
        <time>2019-05-05T11:46:46.639Z</time>
      </trkpt>
      <trkpt lat="48.3268580" lon="16.0065013">
        <ele>178.071</ele>
        <time>2019-05-05T11:46:48.622Z</time>
      </trkpt>
      <trkpt lat="48.3268405" lon="16.0066671">
        <ele>178.071</ele>
        <time>2019-05-05T11:46:50.654Z</time>
      </trkpt>
      <trkpt lat="48.3268456" lon="16.0068571">
        <ele>178.071</ele>
        <time>2019-05-05T11:46:52.852Z</time>
      </trkpt>
      <trkpt lat="48.3268428" lon="16.0070417">
        <ele>178.071</ele>
        <time>2019-05-05T11:46:54.878Z</time>
      </trkpt>
      <trkpt lat="48.3268251" lon="16.0072306">
        <ele>178.071</ele>
        <time>2019-05-05T11:46:56.885Z</time>
      </trkpt>
      <trkpt lat="48.3268009" lon="16.0074142">
        <ele>178.071</ele>
        <time>2019-05-05T11:46:58.804Z</time>
      </trkpt>
      <trkpt lat="48.3267725" lon="16.0076093">
        <ele>178.071</ele>
        <time>2019-05-05T11:47:00.862Z</time>
      </trkpt>
      <trkpt lat="48.3267331" lon="16.0078238">
        <ele>178.071</ele>
        <time>2019-05-05T11:47:03.175Z</time>
      </trkpt>
      <trkpt lat="48.3266894" lon="16.0080061">
        <ele>178.071</ele>
        <time>2019-05-05T11:47:05.190Z</time>
      </trkpt>
      <trkpt lat="48.3266266" lon="16.0081953">
        <ele>178.071</ele>
        <time>2019-05-05T11:47:07.435Z</time>
      </trkpt>
      <trkpt lat="48.3265707" lon="16.0083757">
        <ele>178.072</ele>
        <time>2019-05-05T11:47:09.591Z</time>
      </trkpt>
      <trkpt lat="48.3265368" lon="16.0085384">
        <ele>178.085</ele>
        <time>2019-05-05T11:47:11.449Z</time>
      </trkpt>
      <trkpt lat="48.3265053" lon="16.0087004">
        <ele>178.142</ele>
        <time>2019-05-05T11:47:13.299Z</time>
      </trkpt>
      <trkpt lat="48.3264929" lon="16.0088631">
        <ele>178.257</ele>
        <time>2019-05-05T11:47:15.154Z</time>
      </trkpt>
      <trkpt lat="48.3264779" lon="16.0090156">
        <ele>178.403</ele>
        <time>2019-05-05T11:47:16.975Z</time>
      </trkpt>
      <trkpt lat="48.3264708" lon="16.0091884">
        <ele>178.538</ele>
        <time>2019-05-05T11:47:19.038Z</time>
      </trkpt>
      <trkpt lat="48.3264703" lon="16.0093403">
        <ele>178.641</ele>
        <time>2019-05-05T11:47:20.812Z</time>
      </trkpt>
      <trkpt lat="48.3264523" lon="16.0095009">
        <ele>178.710</ele>
        <time>2019-05-05T11:47:22.696Z</time>
      </trkpt>
      <trkpt lat="48.3264444" lon="16.0096703">
        <ele>178.751</ele>
        <time>2019-05-05T11:47:24.649Z</time>
      </trkpt>
      <trkpt lat="48.3264428" lon="16.0098277">
        <ele>178.772</ele>
        <time>2019-05-05T11:47:26.434Z</time>
      </trkpt>
      <trkpt lat="48.3264403" lon="16.0099778">
        <ele>178.773</ele>
        <time>2019-05-05T11:47:28.103Z</time>
      </trkpt>
      <trkpt lat="48.3264520" lon="16.0101375">
        <ele>178.753</ele>
        <time>2019-05-05T11:47:29.857Z</time>
      </trkpt>
      <trkpt lat="48.3264493" lon="16.0102967">
        <ele>178.718</ele>
        <time>2019-05-05T11:47:31.596Z</time>
      </trkpt>
      <trkpt lat="48.3264584" lon="16.0104611">
        <ele>178.647</ele>
        <time>2019-05-05T11:47:33.415Z</time>
      </trkpt>
      <trkpt lat="48.3264648" lon="16.0106188">
        <ele>178.508</ele>
        <time>2019-05-05T11:47:35.174Z</time>
      </trkpt>
      <trkpt lat="48.3264656" lon="16.0107743">
        <ele>178.328</ele>
        <time>2019-05-05T11:47:36.910Z</time>
      </trkpt>
      <trkpt lat="48.3264670" lon="16.0109272">
        <ele>178.176</ele>
        <time>2019-05-05T11:47:38.632Z</time>
      </trkpt>
      <trkpt lat="48.3264668" lon="16.0110844">
        <ele>178.091</ele>
        <time>2019-05-05T11:47:40.444Z</time>
      </trkpt>
      <trkpt lat="48.3264625" lon="16.0112428">
        <ele>178.062</ele>
        <time>2019-05-05T11:47:42.329Z</time>
      </trkpt>
      <trkpt lat="48.3264593" lon="16.0113989">
        <ele>178.061</ele>
        <time>2019-05-05T11:47:44.182Z</time>
      </trkpt>
      <trkpt lat="48.3264499" lon="16.0115623">
        <ele>178.067</ele>
        <time>2019-05-05T11:47:46.109Z</time>
      </trkpt>
      <trkpt lat="48.3264374" lon="16.0117184">
        <ele>178.071</ele>
        <time>2019-05-05T11:47:47.950Z</time>
      </trkpt>
      <trkpt lat="48.3264215" lon="16.0118722">
        <ele>178.073</ele>
        <time>2019-05-05T11:47:49.762Z</time>
      </trkpt>
      <trkpt lat="48.3264095" lon="16.0120414">
        <ele>178.073</ele>
        <time>2019-05-05T11:47:51.816Z</time>
      </trkpt>
      <trkpt lat="48.3263978" lon="16.0121975">
        <ele>178.072</ele>
        <time>2019-05-05T11:47:53.823Z</time>
      </trkpt>
      <trkpt lat="48.3263963" lon="16.0124108">
        <ele>178.071</ele>
        <time>2019-05-05T11:47:56.567Z</time>
      </trkpt>
      <trkpt lat="48.3263711" lon="16.0125696">
        <ele>178.071</ele>
        <time>2019-05-05T11:47:58.646Z</time>
      </trkpt>
      <trkpt lat="48.3263483" lon="16.0127305">
        <ele>178.072</ele>
        <time>2019-05-05T11:48:00.744Z</time>
      </trkpt>
      <trkpt lat="48.3263207" lon="16.0128769">
        <ele>178.081</ele>
        <time>2019-05-05T11:48:02.682Z</time>
      </trkpt>
      <trkpt lat="48.3263059" lon="16.0130335">
        <ele>178.112</ele>
        <time>2019-05-05T11:48:04.644Z</time>
      </trkpt>
      <trkpt lat="48.3262801" lon="16.0131876">
        <ele>178.169</ele>
        <time>2019-05-05T11:48:06.572Z</time>
      </trkpt>
      <trkpt lat="48.3262609" lon="16.0133480">
        <ele>178.244</ele>
        <time>2019-05-05T11:48:08.541Z</time>
      </trkpt>
      <trkpt lat="48.3262526" lon="16.0134980">
        <ele>178.323</ele>
        <time>2019-05-05T11:48:10.359Z</time>
      </trkpt>
      <trkpt lat="48.3262287" lon="16.0136775">
        <ele>178.390</ele>
        <time>2019-05-05T11:48:12.567Z</time>
      </trkpt>
      <trkpt lat="48.3262091" lon="16.0138274">
        <ele>178.410</ele>
        <time>2019-05-05T11:48:14.426Z</time>
      </trkpt>
      <trkpt lat="48.3261980" lon="16.0139863">
        <ele>178.352</ele>
        <time>2019-05-05T11:48:16.388Z</time>
      </trkpt>
      <trkpt lat="48.3261489" lon="16.0141220">
        <ele>178.242</ele>
        <time>2019-05-05T11:48:18.292Z</time>
      </trkpt>
      <trkpt lat="48.3260899" lon="16.0142460">
        <ele>178.142</ele>
        <time>2019-05-05T11:48:20.167Z</time>
      </trkpt>
      <trkpt lat="48.3260232" lon="16.0143715">
        <ele>178.086</ele>
        <time>2019-05-05T11:48:22.146Z</time>
      </trkpt>
      <trkpt lat="48.3259464" lon="16.0144876">
        <ele>178.079</ele>
        <time>2019-05-05T11:48:24.180Z</time>
      </trkpt>
      <trkpt lat="48.3258729" lon="16.0145996">
        <ele>178.134</ele>
        <time>2019-05-05T11:48:26.138Z</time>
      </trkpt>
      <trkpt lat="48.3258048" lon="16.0147332">
        <ele>178.243</ele>
        <time>2019-05-05T11:48:28.234Z</time>
      </trkpt>
      <trkpt lat="48.3257439" lon="16.0148541">
        <ele>178.352</ele>
        <time>2019-05-05T11:48:30.103Z</time>
      </trkpt>
      <trkpt lat="48.3257117" lon="16.0150104">
        <ele>178.407</ele>
        <time>2019-05-05T11:48:32.074Z</time>
      </trkpt>
      <trkpt lat="48.3257024" lon="16.0151786">
        <ele>178.410</ele>
        <time>2019-05-05T11:48:34.067Z</time>
      </trkpt>
      <trkpt lat="48.3256971" lon="16.0153355">
        <ele>178.393</ele>
        <time>2019-05-05T11:48:35.955Z</time>
      </trkpt>
      <trkpt lat="48.3256795" lon="16.0154807">
        <ele>178.363</ele>
        <time>2019-05-05T11:48:37.800Z</time>
      </trkpt>
      <trkpt lat="48.3256730" lon="16.0156356">
        <ele>178.317</ele>
        <time>2019-05-05T11:48:39.804Z</time>
      </trkpt>
      <trkpt lat="48.3256661" lon="16.0157727">
        <ele>178.299</ele>
        <time>2019-05-05T11:48:41.674Z</time>
      </trkpt>
      <trkpt lat="48.3256712" lon="16.0159386">
        <ele>178.376</ele>
        <time>2019-05-05T11:48:44.140Z</time>
      </trkpt>
      <trkpt lat="48.3256811" lon="16.0160871">
        <ele>178.562</ele>
        <time>2019-05-05T11:48:46.815Z</time>
      </trkpt>
      <trkpt lat="48.3256932" lon="16.0162230">
        <ele>178.798</ele>
        <time>2019-05-05T11:48:49.692Z</time>
      </trkpt>
      <trkpt lat="48.3257285" lon="16.0163507">
        <ele>178.986</ele>
        <time>2019-05-05T11:48:52.849Z</time>
      </trkpt>
      <trkpt lat="48.3257531" lon="16.0164813">
        <ele>179.079</ele>
        <time>2019-05-05T11:48:56.001Z</time>
      </trkpt>
      <trkpt lat="48.3257531" lon="16.0164813">
        <ele>179.099</ele>
        <time>2019-05-05T11:49:02.001Z</time>
      </trkpt>
      <trkpt lat="48.3257531" lon="16.0164813">
        <ele>179.064</ele>
        <time>2019-05-05T11:49:08.594Z</time>
      </trkpt>
      <trkpt lat="48.3258005" lon="16.0168442">
        <ele>178.987</ele>
        <time>2019-05-05T11:49:22.451Z</time>
      </trkpt>
      <trkpt lat="48.3258421" lon="16.0170151">
        <ele>178.940</ele>
        <time>2019-05-05T11:49:25.621Z</time>
      </trkpt>
      <trkpt lat="48.3258753" lon="16.0171890">
        <ele>178.971</ele>
        <time>2019-05-05T11:49:28.749Z</time>
      </trkpt>
      <trkpt lat="48.3258764" lon="16.0173460">
        <ele>179.015</ele>
        <time>2019-05-05T11:49:31.516Z</time>
      </trkpt>
      <trkpt lat="48.3258964" lon="16.0175051">
        <ele>179.002</ele>
        <time>2019-05-05T11:49:34.293Z</time>
      </trkpt>
      <trkpt lat="48.3259182" lon="16.0176938">
        <ele>178.951</ele>
        <time>2019-05-05T11:49:37.448Z</time>
      </trkpt>
      <trkpt lat="48.3259421" lon="16.0178644">
        <ele>178.898</ele>
        <time>2019-05-05T11:49:40.378Z</time>
      </trkpt>
      <trkpt lat="48.3259572" lon="16.0180180">
        <ele>178.845</ele>
        <time>2019-05-05T11:49:43.107Z</time>
      </trkpt>
      <trkpt lat="48.3260118" lon="16.0181493">
        <ele>178.784</ele>
        <time>2019-05-05T11:49:45.970Z</time>
      </trkpt>
      <trkpt lat="48.3260387" lon="16.0183095">
        <ele>178.705</ele>
        <time>2019-05-05T11:49:49.018Z</time>
      </trkpt>
      <trkpt lat="48.3260610" lon="16.0184796">
        <ele>178.582</ele>
        <time>2019-05-05T11:49:52.266Z</time>
      </trkpt>
      <trkpt lat="48.3261266" lon="16.0185959">
        <ele>178.406</ele>
        <time>2019-05-05T11:49:55.242Z</time>
      </trkpt>
      <trkpt lat="48.3261706" lon="16.0187187">
        <ele>178.224</ele>
        <time>2019-05-05T11:49:58.035Z</time>
      </trkpt>
      <trkpt lat="48.3262075" lon="16.0188574">
        <ele>178.100</ele>
        <time>2019-05-05T11:50:01.024Z</time>
      </trkpt>
      <trkpt lat="48.3262378" lon="16.0190008">
        <ele>178.029</ele>
        <time>2019-05-05T11:50:03.890Z</time>
      </trkpt>
      <trkpt lat="48.3263120" lon="16.0192012">
        <ele>177.955</ele>
        <time>2019-05-05T11:50:07.757Z</time>
      </trkpt>
      <trkpt lat="48.3263622" lon="16.0193464">
        <ele>177.832</ele>
        <time>2019-05-05T11:50:10.206Z</time>
      </trkpt>
      <trkpt lat="48.3263704" lon="16.0195085">
        <ele>177.660</ele>
        <time>2019-05-05T11:50:12.576Z</time>
      </trkpt>
      <trkpt lat="48.3263808" lon="16.0196796">
        <ele>177.463</ele>
        <time>2019-05-05T11:50:15.056Z</time>
      </trkpt>
      <trkpt lat="48.3264015" lon="16.0198805">
        <ele>177.279</ele>
        <time>2019-05-05T11:50:18.042Z</time>
      </trkpt>
      <trkpt lat="48.3264168" lon="16.0200530">
        <ele>177.143</ele>
        <time>2019-05-05T11:50:20.659Z</time>
      </trkpt>
      <trkpt lat="48.3264364" lon="16.0202330">
        <ele>177.074</ele>
        <time>2019-05-05T11:50:23.427Z</time>
      </trkpt>
      <trkpt lat="48.3264517" lon="16.0203664">
        <ele>177.055</ele>
        <time>2019-05-05T11:50:25.521Z</time>
      </trkpt>
      <trkpt lat="48.3265336" lon="16.0204784">
        <ele>177.062</ele>
        <time>2019-05-05T11:50:28.176Z</time>
      </trkpt>
      <trkpt lat="48.3265848" lon="16.0206298">
        <ele>177.106</ele>
        <time>2019-05-05T11:50:30.954Z</time>
      </trkpt>
      <trkpt lat="48.3266384" lon="16.0207844">
        <ele>177.208</ele>
        <time>2019-05-05T11:50:33.836Z</time>
      </trkpt>
      <trkpt lat="48.3266615" lon="16.0209523">
        <ele>177.360</ele>
        <time>2019-05-05T11:50:36.642Z</time>
      </trkpt>
      <trkpt lat="48.3267005" lon="16.0211029">
        <ele>177.558</ele>
        <time>2019-05-05T11:50:39.189Z</time>
      </trkpt>
      <trkpt lat="48.3267298" lon="16.0212332">
        <ele>177.781</ele>
        <time>2019-05-05T11:50:41.304Z</time>
      </trkpt>
      <trkpt lat="48.3267871" lon="16.0214175">
        <ele>177.960</ele>
        <time>2019-05-05T11:50:44.413Z</time>
      </trkpt>
      <trkpt lat="48.3268179" lon="16.0215994">
        <ele>178.054</ele>
        <time>2019-05-05T11:50:47.263Z</time>
      </trkpt>
      <trkpt lat="48.3268701" lon="16.0217306">
        <ele>178.085</ele>
        <time>2019-05-05T11:50:49.631Z</time>
      </trkpt>
      <trkpt lat="48.3269085" lon="16.0218575">
        <ele>178.085</ele>
        <time>2019-05-05T11:50:51.899Z</time>
      </trkpt>
      <trkpt lat="48.3269268" lon="16.0220333">
        <ele>178.077</ele>
        <time>2019-05-05T11:50:54.864Z</time>
      </trkpt>
      <trkpt lat="48.3269694" lon="16.0222077">
        <ele>178.072</ele>
        <time>2019-05-05T11:50:57.985Z</time>
      </trkpt>
      <trkpt lat="48.3270070" lon="16.0223325">
        <ele>178.068</ele>
        <time>2019-05-05T11:51:00.318Z</time>
      </trkpt>
      <trkpt lat="48.3269951" lon="16.0224806">
        <ele>178.053</ele>
        <time>2019-05-05T11:51:02.842Z</time>
      </trkpt>
      <trkpt lat="48.3270135" lon="16.0226329">
        <ele>178.011</ele>
        <time>2019-05-05T11:51:05.309Z</time>
      </trkpt>
      <trkpt lat="48.3270451" lon="16.0227794">
        <ele>177.950</ele>
        <time>2019-05-05T11:51:07.667Z</time>
      </trkpt>
      <trkpt lat="48.3270544" lon="16.0229377">
        <ele>177.895</ele>
        <time>2019-05-05T11:51:10.158Z</time>
      </trkpt>
      <trkpt lat="48.3270811" lon="16.0230968">
        <ele>177.822</ele>
        <time>2019-05-05T11:51:12.820Z</time>
      </trkpt>
      <trkpt lat="48.3270560" lon="16.0232722">
        <ele>177.672</ele>
        <time>2019-05-05T11:51:15.807Z</time>
      </trkpt>
      <trkpt lat="48.3270554" lon="16.0234101">
        <ele>177.445</ele>
        <time>2019-05-05T11:51:18.211Z</time>
      </trkpt>
      <trkpt lat="48.3270913" lon="16.0235466">
        <ele>177.227</ele>
        <time>2019-05-05T11:51:20.829Z</time>
      </trkpt>
      <trkpt lat="48.3271086" lon="16.0237063">
        <ele>177.070</ele>
        <time>2019-05-05T11:51:23.731Z</time>
      </trkpt>
      <trkpt lat="48.3271348" lon="16.0238439">
        <ele>176.926</ele>
        <time>2019-05-05T11:51:26.343Z</time>
      </trkpt>
      <trkpt lat="48.3271514" lon="16.0239922">
        <ele>176.749</ele>
        <time>2019-05-05T11:51:29.159Z</time>
      </trkpt>
      <trkpt lat="48.3271760" lon="16.0241400">
        <ele>176.568</ele>
        <time>2019-05-05T11:51:32.236Z</time>
      </trkpt>
      <trkpt lat="48.3271782" lon="16.0243025">
        <ele>176.421</ele>
        <time>2019-05-05T11:51:35.575Z</time>
      </trkpt>
      <trkpt lat="48.3271962" lon="16.0244450">
        <ele>176.318</ele>
        <time>2019-05-05T11:51:38.533Z</time>
      </trkpt>
      <trkpt lat="48.3272067" lon="16.0246211">
        <ele>176.256</ele>
        <time>2019-05-05T11:51:42.047Z</time>
      </trkpt>
      <trkpt lat="48.3272155" lon="16.0247783">
        <ele>176.244</ele>
        <time>2019-05-05T11:51:45.044Z</time>
      </trkpt>
      <trkpt lat="48.3272450" lon="16.0249075">
        <ele>176.340</ele>
        <time>2019-05-05T11:51:47.544Z</time>
      </trkpt>
      <trkpt lat="48.3272055" lon="16.0250583">
        <ele>176.570</ele>
        <time>2019-05-05T11:51:50.515Z</time>
      </trkpt>
      <trkpt lat="48.3271995" lon="16.0251940">
        <ele>176.833</ele>
        <time>2019-05-05T11:51:53.019Z</time>
      </trkpt>
      <trkpt lat="48.3271703" lon="16.0253802">
        <ele>177.044</ele>
        <time>2019-05-05T11:51:56.399Z</time>
      </trkpt>
      <trkpt lat="48.3271871" lon="16.0255627">
        <ele>177.274</ele>
        <time>2019-05-05T11:51:59.593Z</time>
      </trkpt>
      <trkpt lat="48.3271827" lon="16.0257002">
        <ele>177.581</ele>
        <time>2019-05-05T11:52:02.002Z</time>
      </trkpt>
      <trkpt lat="48.3271827" lon="16.0257002">
        <ele>177.870</ele>
        <time>2019-05-05T11:52:02.002Z</time>
      </trkpt>
      <trkpt lat="48.3271827" lon="16.0257002">
        <ele>177.978</ele>
        <time>2019-05-05T11:52:02.102Z</time>
      </trkpt>
      <trkpt lat="48.3271778" lon="16.0259059">
        <ele>177.890</ele>
        <time>2019-05-05T11:52:13.685Z</time>
      </trkpt>
      <trkpt lat="48.3271405" lon="16.0260374">
        <ele>177.801</ele>
        <time>2019-05-05T11:52:21.002Z</time>
      </trkpt>
      <trkpt lat="48.3271405" lon="16.0260374">
        <ele>177.864</ele>
        <time>2019-05-05T11:52:27.002Z</time>
      </trkpt>
      <trkpt lat="48.3271405" lon="16.0260374">
        <ele>177.935</ele>
        <time>2019-05-05T11:52:27.102Z</time>
      </trkpt>
      <trkpt lat="48.3271314" lon="16.0262719">
        <ele>177.865</ele>
        <time>2019-05-05T11:52:37.002Z</time>
      </trkpt>
      <trkpt lat="48.3271314" lon="16.0262719">
        <ele>177.736</ele>
        <time>2019-05-05T11:52:44.002Z</time>
      </trkpt>
      <trkpt lat="48.3271314" lon="16.0262719">
        <ele>177.658</ele>
        <time>2019-05-05T11:53:03.314Z</time>
      </trkpt>
      <trkpt lat="48.3271534" lon="16.0264350">
        <ele>177.638</ele>
        <time>2019-05-05T11:53:24.522Z</time>
      </trkpt>
      <trkpt lat="48.3271215" lon="16.0265698">
        <ele>177.701</ele>
        <time>2019-05-05T11:53:35.058Z</time>
      </trkpt>
      <trkpt lat="48.3270875" lon="16.0266993">
        <ele>177.859</ele>
        <time>2019-05-05T11:53:44.391Z</time>
      </trkpt>
      <trkpt lat="48.3270923" lon="16.0268381">
        <ele>178.018</ele>
        <time>2019-05-05T11:53:54.000Z</time>
      </trkpt>
      <trkpt lat="48.3270923" lon="16.0268381">
        <ele>178.091</ele>
        <time>2019-05-05T11:53:59.000Z</time>
      </trkpt>
      <trkpt lat="48.3270923" lon="16.0268381">
        <ele>178.076</ele>
        <time>2019-05-05T11:54:34.186Z</time>
      </trkpt>
      <trkpt lat="48.3269470" lon="16.0269094">
        <ele>177.996</ele>
        <time>2019-05-05T11:54:50.030Z</time>
      </trkpt>
      <trkpt lat="48.3268486" lon="16.0269308">
        <ele>177.941</ele>
        <time>2019-05-05T11:55:02.593Z</time>
      </trkpt>
      <trkpt lat="48.3268693" lon="16.0270634">
        <ele>177.969</ele>
        <time>2019-05-05T11:55:14.043Z</time>
      </trkpt>
      <trkpt lat="48.3268644" lon="16.0272230">
        <ele>169.051</ele>
        <time>2019-05-05T11:55:27.469Z</time>
      </trkpt>
      <trkpt lat="48.3268701" lon="16.0274229">
        <ele>145.461</ele>
        <time>2019-05-05T11:55:44.280Z</time>
      </trkpt>
      <trkpt lat="48.3269158" lon="16.0275637">
        <ele>120.843</ele>
        <time>2019-05-05T11:55:57.445Z</time>
      </trkpt>
      <trkpt lat="48.3268793" lon="16.0276923">
        <ele>109.244</ele>
        <time>2019-05-05T11:56:09.201Z</time>
      </trkpt>
      <trkpt lat="48.3268261" lon="16.0278255">
        <ele>108.997</ele>
        <time>2019-05-05T11:56:21.972Z</time>
      </trkpt>
      <trkpt lat="48.3267553" lon="16.0279958">
        <ele>114.574</ele>
        <time>2019-05-05T11:56:29.041Z</time>
      </trkpt>
      <trkpt lat="48.3267012" lon="16.0281198">
        <ele>122.048</ele>
        <time>2019-05-05T11:56:33.856Z</time>
      </trkpt>
      <trkpt lat="48.3266436" lon="16.0282448">
        <ele>129.892</ele>
        <time>2019-05-05T11:56:39.126Z</time>
      </trkpt>
      <trkpt lat="48.3265743" lon="16.0283513">
        <ele>139.442</ele>
        <time>2019-05-05T11:56:44.069Z</time>
      </trkpt>
      <trkpt lat="48.3265049" lon="16.0284657">
        <ele>150.823</ele>
        <time>2019-05-05T11:56:49.215Z</time>
      </trkpt>
      <trkpt lat="48.3264271" lon="16.0285690">
        <ele>160.180</ele>
        <time>2019-05-05T11:56:54.861Z</time>
      </trkpt>
      <trkpt lat="48.3263502" lon="16.0286968">
        <ele>165.440</ele>
        <time>2019-05-05T11:57:01.235Z</time>
      </trkpt>
      <trkpt lat="48.3262820" lon="16.0288283">
        <ele>168.695</ele>
        <time>2019-05-05T11:57:06.084Z</time>
      </trkpt>
      <trkpt lat="48.3261973" lon="16.0289294">
        <ele>171.386</ele>
        <time>2019-05-05T11:57:10.159Z</time>
      </trkpt>
      <trkpt lat="48.3261172" lon="16.0290276">
        <ele>173.605</ele>
        <time>2019-05-05T11:57:13.808Z</time>
      </trkpt>
      <trkpt lat="48.3260330" lon="16.0291222">
        <ele>175.120</ele>
        <time>2019-05-05T11:57:17.429Z</time>
      </trkpt>
      <trkpt lat="48.3259609" lon="16.0292284">
        <ele>175.835</ele>
        <time>2019-05-05T11:57:20.915Z</time>
      </trkpt>
      <trkpt lat="48.3258986" lon="16.0293656">
        <ele>175.965</ele>
        <time>2019-05-05T11:57:24.878Z</time>
      </trkpt>
      <trkpt lat="48.3258190" lon="16.0294677">
        <ele>176.320</ele>
        <time>2019-05-05T11:57:29.051Z</time>
      </trkpt>
      <trkpt lat="48.3257427" lon="16.0295672">
        <ele>177.411</ele>
        <time>2019-05-05T11:57:33.654Z</time>
      </trkpt>
      <trkpt lat="48.3256727" lon="16.0296536">
        <ele>178.600</ele>
        <time>2019-05-05T11:57:39.199Z</time>
      </trkpt>
      <trkpt lat="48.3255856" lon="16.0297033">
        <ele>179.190</ele>
        <time>2019-05-05T11:57:46.171Z</time>
      </trkpt>
      <trkpt lat="48.3254907" lon="16.0297803">
        <ele>179.294</ele>
        <time>2019-05-05T11:57:56.262Z</time>
      </trkpt>
      <trkpt lat="48.3254136" lon="16.0298507">
        <ele>179.226</ele>
        <time>2019-05-05T11:58:02.651Z</time>
      </trkpt>
      <trkpt lat="48.3253527" lon="16.0299528">
        <ele>179.220</ele>
        <time>2019-05-05T11:58:07.877Z</time>
      </trkpt>
      <trkpt lat="48.3253011" lon="16.0301170">
        <ele>179.351</ele>
        <time>2019-05-05T11:58:14.112Z</time>
      </trkpt>
      <trkpt lat="48.3252287" lon="16.0301994">
        <ele>179.544</ele>
        <time>2019-05-05T11:58:18.251Z</time>
      </trkpt>
      <trkpt lat="48.3251649" lon="16.0303031">
        <ele>179.646</ele>
        <time>2019-05-05T11:58:22.438Z</time>
      </trkpt>
      <trkpt lat="48.3250864" lon="16.0304124">
        <ele>179.598</ele>
        <time>2019-05-05T11:58:27.265Z</time>
      </trkpt>
      <trkpt lat="48.3250732" lon="16.0305563">
        <ele>179.529</ele>
        <time>2019-05-05T11:58:31.504Z</time>
      </trkpt>
      <trkpt lat="48.3250919" lon="16.0307083">
        <ele>179.561</ele>
        <time>2019-05-05T11:58:35.917Z</time>
      </trkpt>
      <trkpt lat="48.3251328" lon="16.0308309">
        <ele>179.651</ele>
        <time>2019-05-05T11:58:39.851Z</time>
      </trkpt>
      <trkpt lat="48.3251473" lon="16.0309735">
        <ele>179.708</ele>
        <time>2019-05-05T11:58:43.594Z</time>
      </trkpt>
      <trkpt lat="48.3251472" lon="16.0311443">
        <ele>179.668</ele>
        <time>2019-05-05T11:58:50.392Z</time>
      </trkpt>
      <trkpt lat="48.3251723" lon="16.0313315">
        <ele>179.500</ele>
        <time>2019-05-05T11:58:58.286Z</time>
      </trkpt>
      <trkpt lat="48.3251752" lon="16.0314773">
        <ele>179.270</ele>
        <time>2019-05-05T11:59:04.314Z</time>
      </trkpt>
      <trkpt lat="48.3250836" lon="16.0314942">
        <ele>179.103</ele>
        <time>2019-05-05T11:59:10.045Z</time>
      </trkpt>
      <trkpt lat="48.3251914" lon="16.0315398">
        <ele>179.038</ele>
        <time>2019-05-05T11:59:17.006Z</time>
      </trkpt>
      <trkpt lat="48.3251295" lon="16.0314373">
        <ele>179.037</ele>
        <time>2019-05-05T11:59:22.732Z</time>
      </trkpt>
      <trkpt lat="48.3251967" lon="16.0313433">
        <ele>179.054</ele>
        <time>2019-05-05T11:59:28.435Z</time>
      </trkpt>
      <trkpt lat="48.3252270" lon="16.0311948">
        <ele>179.068</ele>
        <time>2019-05-05T11:59:34.854Z</time>
      </trkpt>
      <trkpt lat="48.3252134" lon="16.0310504">
        <ele>179.072</ele>
        <time>2019-05-05T11:59:40.882Z</time>
      </trkpt>
      <trkpt lat="48.3251327" lon="16.0311256">
        <ele>177.718</ele>
        <time>2019-05-05T11:59:46.781Z</time>
      </trkpt>
      <trkpt lat="48.3250879" lon="16.0312713">
        <ele>169.911</ele>
        <time>2019-05-05T11:59:53.417Z</time>
      </trkpt>
      <trkpt lat="48.3250220" lon="16.0313905">
        <ele>155.092</ele>
        <time>2019-05-05T11:59:59.825Z</time>
      </trkpt>
      <trkpt lat="48.3250740" lon="16.0315022">
        <ele>141.807</ele>
        <time>2019-05-05T12:00:05.461Z</time>
      </trkpt>
      <trkpt lat="48.3249735" lon="16.0315092">
        <ele>141.632</ele>
        <time>2019-05-05T12:00:11.712Z</time>
      </trkpt>
      <trkpt lat="48.3248990" lon="16.0316050">
        <ele>155.773</ele>
        <time>2019-05-05T12:00:17.807Z</time>
      </trkpt>
      <trkpt lat="48.3249098" lon="16.0317812">
        <ele>172.175</ele>
        <time>2019-05-05T12:00:29.437Z</time>
      </trkpt>
      <trkpt lat="48.3249010" lon="16.0319542">
        <ele>176.763</ele>
        <time>2019-05-05T12:00:51.159Z</time>
      </trkpt>
      <trkpt lat="48.3249801" lon="16.0320639">
        <ele>166.161</ele>
        <time>2019-05-05T12:01:10.454Z</time>
      </trkpt>
      <trkpt lat="48.3249985" lon="16.0322009">
        <ele>147.954</ele>
        <time>2019-05-05T12:01:26.681Z</time>
      </trkpt>
      <trkpt lat="48.3250334" lon="16.0323366">
        <ele>133.361</ele>
        <time>2019-05-05T12:01:43.567Z</time>
      </trkpt>
      <trkpt lat="48.3250732" lon="16.0324619">
        <ele>126.480</ele>
        <time>2019-05-05T12:01:59.599Z</time>
      </trkpt>
      <trkpt lat="48.3251233" lon="16.0326578">
        <ele>132.199</ele>
        <time>2019-05-05T12:02:22.752Z</time>
      </trkpt>
      <trkpt lat="48.3251630" lon="16.0327884">
        <ele>151.339</ele>
        <time>2019-05-05T12:02:38.600Z</time>
      </trkpt>
      <trkpt lat="48.3252189" lon="16.0328993">
        <ele>171.062</ele>
        <time>2019-05-05T12:02:53.941Z</time>
      </trkpt>
      <trkpt lat="48.3252553" lon="16.0330377">
        <ele>180.442</ele>
        <time>2019-05-05T12:03:10.355Z</time>
      </trkpt>
      <trkpt lat="48.3252932" lon="16.0331714">
        <ele>181.865</ele>
        <time>2019-05-05T12:03:26.382Z</time>
      </trkpt>
      <trkpt lat="48.3253497" lon="16.0333377">
        <ele>180.255</ele>
        <time>2019-05-05T12:03:46.970Z</time>
      </trkpt>
      <trkpt lat="48.3254236" lon="16.0334570">
        <ele>178.650</ele>
        <time>2019-05-05T12:04:00.925Z</time>
      </trkpt>
      <trkpt lat="48.3254787" lon="16.0335816">
        <ele>177.944</ele>
        <time>2019-05-05T12:04:09.447Z</time>
      </trkpt>
      <trkpt lat="48.3255661" lon="16.0337251">
        <ele>177.947</ele>
        <time>2019-05-05T12:04:23.569Z</time>
      </trkpt>
      <trkpt lat="48.3256342" lon="16.0338456">
        <ele>178.264</ele>
        <time>2019-05-05T12:04:38.183Z</time>
      </trkpt>
      <trkpt lat="48.3257112" lon="16.0339725">
        <ele>178.628</ele>
        <time>2019-05-05T12:04:53.976Z</time>
      </trkpt>
      <trkpt lat="48.3257812" lon="16.0341049">
        <ele>178.892</ele>
        <time>2019-05-05T12:05:08.474Z</time>
      </trkpt>
      <trkpt lat="48.3258441" lon="16.0342478">
        <ele>179.006</ele>
        <time>2019-05-05T12:05:23.156Z</time>
      </trkpt>
      <trkpt lat="48.3258800" lon="16.0344111">
        <ele>179.016</ele>
        <time>2019-05-05T12:05:33.259Z</time>
      </trkpt>
      <trkpt lat="48.3259322" lon="16.0345587">
        <ele>178.989</ele>
        <time>2019-05-05T12:05:40.857Z</time>
      </trkpt>
      <trkpt lat="48.3259552" lon="16.0347091">
        <ele>178.955</ele>
        <time>2019-05-05T12:05:46.149Z</time>
      </trkpt>
      <trkpt lat="48.3259799" lon="16.0348789">
        <ele>178.872</ele>
        <time>2019-05-05T12:05:50.517Z</time>
      </trkpt>
      <trkpt lat="48.3260281" lon="16.0350021">
        <ele>178.689</ele>
        <time>2019-05-05T12:05:53.417Z</time>
      </trkpt>
      <trkpt lat="48.3260629" lon="16.0351362">
        <ele>178.441</ele>
        <time>2019-05-05T12:05:56.113Z</time>
      </trkpt>
      <trkpt lat="48.3261037" lon="16.0352795">
        <ele>178.232</ele>
        <time>2019-05-05T12:05:58.872Z</time>
      </trkpt>
      <trkpt lat="48.3261367" lon="16.0354408">
        <ele>178.124</ele>
        <time>2019-05-05T12:06:01.779Z</time>
      </trkpt>
      <trkpt lat="48.3261772" lon="16.0355845">
        <ele>178.111</ele>
        <time>2019-05-05T12:06:04.426Z</time>
      </trkpt>
      <trkpt lat="48.3261860" lon="16.0357993">
        <ele>178.191</ele>
        <time>2019-05-05T12:06:08.082Z</time>
      </trkpt>
      <trkpt lat="48.3262028" lon="16.0359554">
        <ele>178.384</ele>
        <time>2019-05-05T12:06:10.746Z</time>
      </trkpt>
      <trkpt lat="48.3262491" lon="16.0361125">
        <ele>178.648</ele>
        <time>2019-05-05T12:06:13.614Z</time>
      </trkpt>
      <trkpt lat="48.3262822" lon="16.0362971">
        <ele>178.880</ele>
        <time>2019-05-05T12:06:16.733Z</time>
      </trkpt>
      <trkpt lat="48.3262958" lon="16.0364488">
        <ele>179.020</ele>
        <time>2019-05-05T12:06:19.149Z</time>
      </trkpt>
      <trkpt lat="48.3263270" lon="16.0366407">
        <ele>179.077</ele>
        <time>2019-05-05T12:06:22.184Z</time>
      </trkpt>
      <trkpt lat="48.3263364" lon="16.0368488">
        <ele>179.087</ele>
        <time>2019-05-05T12:06:25.343Z</time>
      </trkpt>
      <trkpt lat="48.3263308" lon="16.0370441">
        <ele>179.080</ele>
        <time>2019-05-05T12:06:28.270Z</time>
      </trkpt>
      <trkpt lat="48.3263435" lon="16.0372214">
        <ele>179.072</ele>
        <time>2019-05-05T12:06:30.921Z</time>
      </trkpt>
      <trkpt lat="48.3263695" lon="16.0373667">
        <ele>179.069</ele>
        <time>2019-05-05T12:06:33.180Z</time>
      </trkpt>
      <trkpt lat="48.3263940" lon="16.0375531">
        <ele>179.069</ele>
        <time>2019-05-05T12:06:36.072Z</time>
      </trkpt>
      <trkpt lat="48.3263741" lon="16.0377522">
        <ele>179.069</ele>
        <time>2019-05-05T12:06:39.156Z</time>
      </trkpt>
      <trkpt lat="48.3263778" lon="16.0379690">
        <ele>179.070</ele>
        <time>2019-05-05T12:06:42.550Z</time>
      </trkpt>
      <trkpt lat="48.3263727" lon="16.0381379">
        <ele>179.070</ele>
        <time>2019-05-05T12:06:45.216Z</time>
      </trkpt>
      <trkpt lat="48.3263880" lon="16.0383067">
        <ele>179.070</ele>
        <time>2019-05-05T12:06:47.878Z</time>
      </trkpt>
      <trkpt lat="48.3264107" lon="16.0384714">
        <ele>179.070</ele>
        <time>2019-05-05T12:06:50.511Z</time>
      </trkpt>
      <trkpt lat="48.3264242" lon="16.0386307">
        <ele>179.061</ele>
        <time>2019-05-05T12:06:53.013Z</time>
      </trkpt>
      <trkpt lat="48.3264346" lon="16.0388019">
        <ele>178.988</ele>
        <time>2019-05-05T12:06:55.559Z</time>
      </trkpt>
      <trkpt lat="48.3264542" lon="16.0389819">
        <ele>178.789</ele>
        <time>2019-05-05T12:06:58.140Z</time>
      </trkpt>
      <trkpt lat="48.3264677" lon="16.0391540">
        <ele>178.503</ele>
        <time>2019-05-05T12:07:00.537Z</time>
      </trkpt>
      <trkpt lat="48.3264796" lon="16.0393380">
        <ele>178.252</ele>
        <time>2019-05-05T12:07:03.079Z</time>
      </trkpt>
      <trkpt lat="48.3265178" lon="16.0395852">
        <ele>178.108</ele>
        <time>2019-05-05T12:07:06.498Z</time>
      </trkpt>
      <trkpt lat="48.3265292" lon="16.0397986">
        <ele>178.056</ele>
        <time>2019-05-05T12:07:09.325Z</time>
      </trkpt>
      <trkpt lat="48.3264970" lon="16.0400422">
        <ele>178.053</ele>
        <time>2019-05-05T12:07:12.605Z</time>
      </trkpt>
      <trkpt lat="48.3264833" lon="16.0403103">
        <ele>178.062</ele>
        <time>2019-05-05T12:07:16.168Z</time>
      </trkpt>
      <trkpt lat="48.3265392" lon="16.0405296">
        <ele>178.070</ele>
        <time>2019-05-05T12:07:19.309Z</time>
      </trkpt>
      <trkpt lat="48.3265783" lon="16.0407259">
        <ele>178.073</ele>
        <time>2019-05-05T12:07:22.120Z</time>
      </trkpt>
      <trkpt lat="48.3266351" lon="16.0409365">
        <ele>178.073</ele>
        <time>2019-05-05T12:07:25.326Z</time>
      </trkpt>
      <trkpt lat="48.3266511" lon="16.0411936">
        <ele>178.072</ele>
        <time>2019-05-05T12:07:29.115Z</time>
      </trkpt>
      <trkpt lat="48.3266827" lon="16.0414303">
        <ele>178.072</ele>
        <time>2019-05-05T12:07:32.894Z</time>
      </trkpt>
      <trkpt lat="48.3267469" lon="16.0416211">
        <ele>178.071</ele>
        <time>2019-05-05T12:07:36.273Z</time>
      </trkpt>
      <trkpt lat="48.3268056" lon="16.0417653">
        <ele>178.055</ele>
        <time>2019-05-05T12:07:38.964Z</time>
      </trkpt>
      <trkpt lat="48.3268607" lon="16.0419151">
        <ele>177.997</ele>
        <time>2019-05-05T12:07:41.721Z</time>
      </trkpt>
      <trkpt lat="48.3269256" lon="16.0420202">
        <ele>177.909</ele>
        <time>2019-05-05T12:07:44.040Z</time>
      </trkpt>
      <trkpt lat="48.3270206" lon="16.0421328">
        <ele>177.858</ele>
        <time>2019-05-05T12:07:46.932Z</time>
      </trkpt>
      <trkpt lat="48.3270852" lon="16.0422915">
        <ele>177.880</ele>
        <time>2019-05-05T12:07:49.788Z</time>
      </trkpt>
      <trkpt lat="48.3271533" lon="16.0424510">
        <ele>177.942</ele>
        <time>2019-05-05T12:07:52.689Z</time>
      </trkpt>
      <trkpt lat="48.3272390" lon="16.0426083">
        <ele>177.999</ele>
        <time>2019-05-05T12:07:55.702Z</time>
      </trkpt>
      <trkpt lat="48.3273281" lon="16.0427303">
        <ele>178.038</ele>
        <time>2019-05-05T12:07:58.281Z</time>
      </trkpt>
      <trkpt lat="48.3274216" lon="16.0428392">
        <ele>178.061</ele>
        <time>2019-05-05T12:08:00.901Z</time>
      </trkpt>
      <trkpt lat="48.3275185" lon="16.0429560">
        <ele>178.070</ele>
        <time>2019-05-05T12:08:03.686Z</time>
      </trkpt>
      <trkpt lat="48.3276083" lon="16.0430640">
        <ele>178.073</ele>
        <time>2019-05-05T12:08:06.179Z</time>
      </trkpt>
      <trkpt lat="48.3276744" lon="16.0431881">
        <ele>178.072</ele>
        <time>2019-05-05T12:08:08.431Z</time>
      </trkpt>
      <trkpt lat="48.3277295" lon="16.0433252">
        <ele>178.072</ele>
        <time>2019-05-05T12:08:10.697Z</time>
      </trkpt>
      <trkpt lat="48.3277913" lon="16.0434557">
        <ele>178.071</ele>
        <time>2019-05-05T12:08:12.968Z</time>
      </trkpt>
      <trkpt lat="48.3278523" lon="16.0436108">
        <ele>178.071</ele>
        <time>2019-05-05T12:08:15.615Z</time>
      </trkpt>
      <trkpt lat="48.3279100" lon="16.0437613">
        <ele>178.071</ele>
        <time>2019-05-05T12:08:18.221Z</time>
      </trkpt>
      <trkpt lat="48.3279625" lon="16.0439319">
        <ele>178.071</ele>
        <time>2019-05-05T12:08:21.011Z</time>
      </trkpt>
      <trkpt lat="48.3280060" lon="16.0440919">
        <ele>178.071</ele>
        <time>2019-05-05T12:08:23.493Z</time>
      </trkpt>
      <trkpt lat="48.3280484" lon="16.0442247">
        <ele>178.071</ele>
        <time>2019-05-05T12:08:25.582Z</time>
      </trkpt>
      <trkpt lat="48.3280823" lon="16.0443998">
        <ele>178.071</ele>
        <time>2019-05-05T12:08:28.221Z</time>
      </trkpt>
      <trkpt lat="48.3281178" lon="16.0445460">
        <ele>178.071</ele>
        <time>2019-05-05T12:08:30.543Z</time>
      </trkpt>
      <trkpt lat="48.3281765" lon="16.0447903">
        <ele>178.075</ele>
        <time>2019-05-05T12:08:34.347Z</time>
      </trkpt>
      <trkpt lat="48.3282302" lon="16.0449039">
        <ele>178.133</ele>
        <time>2019-05-05T12:08:36.368Z</time>
      </trkpt>
      <trkpt lat="48.3282386" lon="16.0450977">
        <ele>178.292</ele>
        <time>2019-05-05T12:08:39.202Z</time>
      </trkpt>
      <trkpt lat="48.3282528" lon="16.0453290">
        <ele>178.520</ele>
        <time>2019-05-05T12:08:42.514Z</time>
      </trkpt>
      <trkpt lat="48.3282716" lon="16.0455086">
        <ele>178.743</ele>
        <time>2019-05-05T12:08:44.993Z</time>
      </trkpt>
      <trkpt lat="48.3282467" lon="16.0456773">
        <ele>178.918</ele>
        <time>2019-05-05T12:08:47.427Z</time>
      </trkpt>
      <trkpt lat="48.3282554" lon="16.0458347">
        <ele>179.025</ele>
        <time>2019-05-05T12:08:49.803Z</time>
      </trkpt>
      <trkpt lat="48.3282525" lon="16.0460174">
        <ele>179.070</ele>
        <time>2019-05-05T12:08:53.000Z</time>
      </trkpt>
      <trkpt lat="48.3282525" lon="16.0460174">
        <ele>179.079</ele>
        <time>2019-05-05T12:08:57.000Z</time>
      </trkpt>
      <trkpt lat="48.3282525" lon="16.0460174">
        <ele>179.047</ele>
        <time>2019-05-05T12:09:45.517Z</time>
      </trkpt>
      <trkpt lat="48.3283704" lon="16.0460687">
        <ele>178.972</ele>
        <time>2019-05-05T12:09:52.913Z</time>
      </trkpt>
      <trkpt lat="48.3284230" lon="16.0461907">
        <ele>178.925</ele>
        <time>2019-05-05T12:09:55.685Z</time>
      </trkpt>
      <trkpt lat="48.3284268" lon="16.0463664">
        <ele>178.962</ele>
        <time>2019-05-05T12:09:58.259Z</time>
      </trkpt>
      <trkpt lat="48.3283962" lon="16.0465190">
        <ele>179.030</ele>
        <time>2019-05-05T12:10:00.206Z</time>
      </trkpt>
      <trkpt lat="48.3283882" lon="16.0466614">
        <ele>179.096</ele>
        <time>2019-05-05T12:10:01.767Z</time>
      </trkpt>
      <trkpt lat="48.3284073" lon="16.0468653">
        <ele>179.249</ele>
        <time>2019-05-05T12:10:03.924Z</time>
      </trkpt>
      <trkpt lat="48.3284276" lon="16.0470461">
        <ele>179.546</ele>
        <time>2019-05-05T12:10:05.682Z</time>
      </trkpt>
      <trkpt lat="48.3284725" lon="16.0472918">
        <ele>179.871</ele>
        <time>2019-05-05T12:10:08.000Z</time>
      </trkpt>
      <trkpt lat="48.3284725" lon="16.0472918">
        <ele>180.069</ele>
        <time>2019-05-05T12:10:08.000Z</time>
      </trkpt>
      <trkpt lat="48.3284725" lon="16.0472918">
        <ele>180.097</ele>
        <time>2019-05-05T12:10:08.100Z</time>
      </trkpt>
      <trkpt lat="48.3285237" lon="16.0474882">
        <ele>179.981</ele>
        <time>2019-05-05T12:10:12.495Z</time>
      </trkpt>
      <trkpt lat="48.3285441" lon="16.0476757">
        <ele>179.806</ele>
        <time>2019-05-05T12:10:15.118Z</time>
      </trkpt>
      <trkpt lat="48.3285519" lon="16.0478338">
        <ele>179.619</ele>
        <time>2019-05-05T12:10:17.229Z</time>
      </trkpt>
      <trkpt lat="48.3285680" lon="16.0479973">
        <ele>179.404</ele>
        <time>2019-05-05T12:10:19.397Z</time>
      </trkpt>
      <trkpt lat="48.3285917" lon="16.0481399">
        <ele>179.205</ele>
        <time>2019-05-05T12:10:21.356Z</time>
      </trkpt>
      <trkpt lat="48.3286063" lon="16.0482766">
        <ele>179.092</ele>
        <time>2019-05-05T12:10:23.223Z</time>
      </trkpt>
      <trkpt lat="48.3285993" lon="16.0484172">
        <ele>179.055</ele>
        <time>2019-05-05T12:10:25.138Z</time>
      </trkpt>
      <trkpt lat="48.3286204" lon="16.0485548">
        <ele>179.055</ele>
        <time>2019-05-05T12:10:27.064Z</time>
      </trkpt>
      <trkpt lat="48.3286487" lon="16.0487174">
        <ele>179.064</ele>
        <time>2019-05-05T12:10:29.374Z</time>
      </trkpt>
      <trkpt lat="48.3286416" lon="16.0488526">
        <ele>179.070</ele>
        <time>2019-05-05T12:10:31.253Z</time>
      </trkpt>
      <trkpt lat="48.3286677" lon="16.0489900">
        <ele>179.072</ele>
        <time>2019-05-05T12:10:33.262Z</time>
      </trkpt>
      <trkpt lat="48.3286916" lon="16.0491893">
        <ele>179.072</ele>
        <time>2019-05-05T12:10:36.162Z</time>
      </trkpt>
      <trkpt lat="48.3287091" lon="16.0493870">
        <ele>179.071</ele>
        <time>2019-05-05T12:10:39.044Z</time>
      </trkpt>
      <trkpt lat="48.3287321" lon="16.0495239">
        <ele>179.070</ele>
        <time>2019-05-05T12:10:41.098Z</time>
      </trkpt>
      <trkpt lat="48.3287689" lon="16.0497023">
        <ele>179.070</ele>
        <time>2019-05-05T12:10:43.901Z</time>
      </trkpt>
      <trkpt lat="48.3287765" lon="16.0498768">
        <ele>179.070</ele>
        <time>2019-05-05T12:10:46.586Z</time>
      </trkpt>
      <trkpt lat="48.3288022" lon="16.0500301">
        <ele>179.070</ele>
        <time>2019-05-05T12:10:48.926Z</time>
      </trkpt>
      <trkpt lat="48.3287894" lon="16.0501910">
        <ele>179.070</ele>
        <time>2019-05-05T12:10:51.224Z</time>
      </trkpt>
      <trkpt lat="48.3287760" lon="16.0503544">
        <ele>179.091</ele>
        <time>2019-05-05T12:10:53.497Z</time>
      </trkpt>
      <trkpt lat="48.3287808" lon="16.0504968">
        <ele>179.203</ele>
        <time>2019-05-05T12:10:55.451Z</time>
      </trkpt>
      <trkpt lat="48.3287817" lon="16.0506385">
        <ele>179.446</ele>
        <time>2019-05-05T12:10:57.393Z</time>
      </trkpt>
      <trkpt lat="48.3287985" lon="16.0507784">
        <ele>179.738</ele>
        <time>2019-05-05T12:10:59.337Z</time>
      </trkpt>
      <trkpt lat="48.3288120" lon="16.0509676">
        <ele>179.994</ele>
        <time>2019-05-05T12:11:01.881Z</time>
      </trkpt>
      <trkpt lat="48.3288123" lon="16.0511178">
        <ele>180.268</ele>
        <time>2019-05-05T12:11:03.765Z</time>
      </trkpt>
      <trkpt lat="48.3287996" lon="16.0512862">
        <ele>180.599</ele>
        <time>2019-05-05T12:11:05.869Z</time>
      </trkpt>
      <trkpt lat="48.3288260" lon="16.0514837">
        <ele>180.885</ele>
        <time>2019-05-05T12:11:08.480Z</time>
      </trkpt>
      <trkpt lat="48.3288289" lon="16.0516381">
        <ele>181.042</ele>
        <time>2019-05-05T12:11:10.542Z</time>
      </trkpt>
      <trkpt lat="48.3288390" lon="16.0517888">
        <ele>181.093</ele>
        <time>2019-05-05T12:11:12.506Z</time>
      </trkpt>
      <trkpt lat="48.3288512" lon="16.0519454">
        <ele>181.092</ele>
        <time>2019-05-05T12:11:14.506Z</time>
      </trkpt>
      <trkpt lat="48.3288597" lon="16.0520961">
        <ele>181.078</ele>
        <time>2019-05-05T12:11:16.400Z</time>
      </trkpt>
      <trkpt lat="48.3288758" lon="16.0522616">
        <ele>181.055</ele>
        <time>2019-05-05T12:11:18.483Z</time>
      </trkpt>
      <trkpt lat="48.3288913" lon="16.0524232">
        <ele>180.970</ele>
        <time>2019-05-05T12:11:20.520Z</time>
      </trkpt>
      <trkpt lat="48.3289139" lon="16.0525781">
        <ele>180.761</ele>
        <time>2019-05-05T12:11:22.559Z</time>
      </trkpt>
      <trkpt lat="48.3289049" lon="16.0527270">
        <ele>180.477</ele>
        <time>2019-05-05T12:11:24.526Z</time>
      </trkpt>
      <trkpt lat="48.3289078" lon="16.0528689">
        <ele>180.236</ele>
        <time>2019-05-05T12:11:26.367Z</time>
      </trkpt>
      <trkpt lat="48.3289234" lon="16.0530234">
        <ele>180.100</ele>
        <time>2019-05-05T12:11:28.351Z</time>
      </trkpt>
      <trkpt lat="48.3289367" lon="16.0532114">
        <ele>180.048</ele>
        <time>2019-05-05T12:11:30.757Z</time>
      </trkpt>
      <trkpt lat="48.3289569" lon="16.0533618">
        <ele>180.005</ele>
        <time>2019-05-05T12:11:32.748Z</time>
      </trkpt>
      <trkpt lat="48.3290196" lon="16.0535337">
        <ele>179.884</ele>
        <time>2019-05-05T12:11:35.474Z</time>
      </trkpt>
      <trkpt lat="48.3291353" lon="16.0536457">
        <ele>179.649</ele>
        <time>2019-05-05T12:11:38.830Z</time>
      </trkpt>
      <trkpt lat="48.3291942" lon="16.0537657">
        <ele>179.364</ele>
        <time>2019-05-05T12:11:42.021Z</time>
      </trkpt>
      <trkpt lat="48.3292245" lon="16.0538977">
        <ele>179.142</ele>
        <time>2019-05-05T12:11:46.001Z</time>
      </trkpt>
      <trkpt lat="48.3292245" lon="16.0538977">
        <ele>179.041</ele>
        <time>2019-05-05T12:11:52.001Z</time>
      </trkpt>
      <trkpt lat="48.3292245" lon="16.0538977">
        <ele>179.010</ele>
        <time>2019-05-05T12:11:52.101Z</time>
      </trkpt>
      <trkpt lat="48.3293268" lon="16.0540062">
        <ele>178.980</ele>
        <time>2019-05-05T12:11:58.614Z</time>
      </trkpt>
      <trkpt lat="48.3294377" lon="16.0540151">
        <ele>178.967</ele>
        <time>2019-05-05T12:12:01.093Z</time>
      </trkpt>
      <trkpt lat="48.3295486" lon="16.0539661">
        <ele>179.000</ele>
        <time>2019-05-05T12:12:03.396Z</time>
      </trkpt>
      <trkpt lat="48.3296527" lon="16.0539588">
        <ele>178.693</ele>
        <time>2019-05-05T12:12:05.368Z</time>
      </trkpt>
      <trkpt lat="48.3297435" lon="16.0539325">
        <ele>177.799</ele>
        <time>2019-05-05T12:12:07.027Z</time>
      </trkpt>
      <trkpt lat="48.3298629" lon="16.0539139">
        <ele>177.211</ele>
        <time>2019-05-05T12:12:09.001Z</time>
      </trkpt>
      <trkpt lat="48.3298629" lon="16.0539139">
        <ele>177.671</ele>
        <time>2019-05-05T12:12:11.001Z</time>
      </trkpt>
      <trkpt lat="48.3298629" lon="16.0539139">
        <ele>178.316</ele>
        <time>2019-05-05T12:12:11.101Z</time>
      </trkpt>
      <trkpt lat="48.3300920" lon="16.0538846">
        <ele>178.265</ele>
        <time>2019-05-05T12:12:17.458Z</time>
      </trkpt>
      <trkpt lat="48.3301842" lon="16.0538672">
        <ele>178.180</ele>
        <time>2019-05-05T12:12:19.395Z</time>
      </trkpt>
      <trkpt lat="48.3302951" lon="16.0538694">
        <ele>178.792</ele>
        <time>2019-05-05T12:12:22.115Z</time>
      </trkpt>
      <trkpt lat="48.3303871" lon="16.0538015">
        <ele>179.640</ele>
        <time>2019-05-05T12:12:25.001Z</time>
      </trkpt>
      <trkpt lat="48.3304834" lon="16.0537766">
        <ele>180.129</ele>
        <time>2019-05-05T12:12:36.001Z</time>
      </trkpt>
    </trkseg>
  </trk>
</gpx>
